<?xml version="1.0" encoding="UTF-8"?>
<gpx version="1.1" creator="https://www.youtrack.es" xsi:schemaLocation="http://www.topografix.com/GPX/1/1 http://www.topografix.com/GPX/1/1/gpx.xsd http://www.garmin.com/xmlschemas/GpxExtensions/v3 http://www.garmin.com/xmlschemas/GpxExtensionsv3.xsd http://www.garmin.com/xmlschemas/TrackPointExtension/v1 http://www.garmin.com/xmlschemas/TrackPointExtensionv1.xsd" xmlns:gpxtpx="http://www.garmin.com/xmlschemas/TrackPointExtension/v1" xmlns:gpxx="http://www.garmin.com/xmlschemas/GpxExtensions/v3" xmlns:xsi="http://www.w3.org/2001/XMLSchema-instance">
  <metadata>
    <link href="https://www.youtrack.es">
      <text>YouTrack.es</text>
    </link>
    <time>2026-05-09T00:40:30Z</time>
  </metadata>
  <trk>
    <src>https://www.youtrack.es</src>
    <link href="https://www.youtrack.es/ruta/13162-4-tr-puigcerda-setcases">
      <text>YouTrack.es</text>
    </link>
    <trkseg>
      <trkpt lat="42.429547" lon="1.925205">
        <ele>1148.1</ele>
        <time>2013-08-10T07:46:37Z</time>
      </trkpt>
      <trkpt lat="42.429573" lon="1.925222">
        <ele>1148.2</ele>
        <time>2013-08-10T07:46:48Z</time>
      </trkpt>
      <trkpt lat="42.429564" lon="1.925267">
        <ele>1148.2</ele>
        <time>2013-08-10T07:47:02Z</time>
      </trkpt>
      <trkpt lat="42.429575" lon="1.925324">
        <ele>1148.3</ele>
        <time>2013-08-10T07:47:14Z</time>
      </trkpt>
      <trkpt lat="42.429518" lon="1.925478">
        <ele>1148.1</ele>
        <time>2013-08-10T07:47:27Z</time>
      </trkpt>
      <trkpt lat="42.429447" lon="1.925660">
        <ele>1147.7</ele>
        <time>2013-08-10T07:47:41Z</time>
      </trkpt>
      <trkpt lat="42.429405" lon="1.925891">
        <ele>1148.0</ele>
        <time>2013-08-10T07:47:56Z</time>
      </trkpt>
      <trkpt lat="42.429273" lon="1.926095">
        <ele>1147.9</ele>
        <time>2013-08-10T07:48:10Z</time>
      </trkpt>
      <trkpt lat="42.429241" lon="1.926126">
        <ele>1147.8</ele>
        <time>2013-08-10T07:48:12Z</time>
      </trkpt>
      <trkpt lat="42.429100" lon="1.926167">
        <ele>1147.6</ele>
        <time>2013-08-10T07:48:21Z</time>
      </trkpt>
      <trkpt lat="42.429077" lon="1.926267">
        <ele>1147.6</ele>
        <time>2013-08-10T07:48:31Z</time>
      </trkpt>
      <trkpt lat="42.429036" lon="1.926352">
        <ele>1147.4</ele>
        <time>2013-08-10T07:48:35Z</time>
      </trkpt>
      <trkpt lat="42.428954" lon="1.926462">
        <ele>1147.3</ele>
        <time>2013-08-10T07:48:42Z</time>
      </trkpt>
      <trkpt lat="42.428911" lon="1.926494">
        <ele>1147.3</ele>
        <time>2013-08-10T07:48:46Z</time>
      </trkpt>
      <trkpt lat="42.428855" lon="1.926564">
        <ele>1147.2</ele>
        <time>2013-08-10T07:48:55Z</time>
      </trkpt>
      <trkpt lat="42.428775" lon="1.926603">
        <ele>1147.0</ele>
        <time>2013-08-10T07:49:06Z</time>
      </trkpt>
      <trkpt lat="42.428617" lon="1.926786">
        <ele>1147.1</ele>
        <time>2013-08-10T07:49:17Z</time>
      </trkpt>
      <trkpt lat="42.428560" lon="1.926847">
        <ele>1146.7</ele>
        <time>2013-08-10T07:49:29Z</time>
      </trkpt>
      <trkpt lat="42.428509" lon="1.926891">
        <ele>1146.5</ele>
        <time>2013-08-10T07:49:33Z</time>
      </trkpt>
      <trkpt lat="42.428427" lon="1.927001">
        <ele>1146.3</ele>
        <time>2013-08-10T07:49:47Z</time>
      </trkpt>
      <trkpt lat="42.428428" lon="1.926999">
        <ele>1146.3</ele>
        <time>2013-08-10T07:49:48Z</time>
      </trkpt>
      <trkpt lat="42.428343" lon="1.927184">
        <ele>1145.9</ele>
        <time>2013-08-10T07:49:57Z</time>
      </trkpt>
      <trkpt lat="42.428219" lon="1.927363">
        <ele>1145.6</ele>
        <time>2013-08-10T07:50:10Z</time>
      </trkpt>
      <trkpt lat="42.428210" lon="1.927380">
        <ele>1145.6</ele>
        <time>2013-08-10T07:50:16Z</time>
      </trkpt>
      <trkpt lat="42.428156" lon="1.927514">
        <ele>1145.6</ele>
        <time>2013-08-10T07:50:22Z</time>
      </trkpt>
      <trkpt lat="42.428114" lon="1.927682">
        <ele>1145.8</ele>
        <time>2013-08-10T07:50:33Z</time>
      </trkpt>
      <trkpt lat="42.428112" lon="1.927786">
        <ele>1146.0</ele>
        <time>2013-08-10T07:50:37Z</time>
      </trkpt>
      <trkpt lat="42.428060" lon="1.927906">
        <ele>1145.8</ele>
        <time>2013-08-10T07:50:48Z</time>
      </trkpt>
      <trkpt lat="42.428042" lon="1.927939">
        <ele>1145.6</ele>
        <time>2013-08-10T07:50:50Z</time>
      </trkpt>
      <trkpt lat="42.427941" lon="1.928090">
        <ele>1144.8</ele>
        <time>2013-08-10T07:50:57Z</time>
      </trkpt>
      <trkpt lat="42.427832" lon="1.928315">
        <ele>1144.6</ele>
        <time>2013-08-10T07:51:11Z</time>
      </trkpt>
      <trkpt lat="42.427810" lon="1.928361">
        <ele>1144.5</ele>
        <time>2013-08-10T07:51:17Z</time>
      </trkpt>
      <trkpt lat="42.427790" lon="1.928402">
        <ele>1144.4</ele>
        <time>2013-08-10T07:51:20Z</time>
      </trkpt>
      <trkpt lat="42.427750" lon="1.928501">
        <ele>1144.1</ele>
        <time>2013-08-10T07:51:25Z</time>
      </trkpt>
      <trkpt lat="42.427699" lon="1.928717">
        <ele>1143.7</ele>
        <time>2013-08-10T07:51:36Z</time>
      </trkpt>
      <trkpt lat="42.427679" lon="1.928805">
        <ele>1143.5</ele>
        <time>2013-08-10T07:51:42Z</time>
      </trkpt>
      <trkpt lat="42.427675" lon="1.928999">
        <ele>1144.1</ele>
        <time>2013-08-10T07:51:56Z</time>
      </trkpt>
      <trkpt lat="42.427644" lon="1.929046">
        <ele>1143.2</ele>
        <time>2013-08-10T07:52:10Z</time>
      </trkpt>
      <trkpt lat="42.427644" lon="1.929057">
        <ele>1143.2</ele>
        <time>2013-08-10T07:52:26Z</time>
      </trkpt>
      <trkpt lat="42.427644" lon="1.929057">
        <ele>1143.2</ele>
        <time>2013-08-10T07:52:31Z</time>
      </trkpt>
      <trkpt lat="42.427636" lon="1.929070">
        <ele>1143.1</ele>
        <time>2013-08-10T07:52:43Z</time>
      </trkpt>
      <trkpt lat="42.427640" lon="1.929076">
        <ele>1143.1</ele>
        <time>2013-08-10T07:52:53Z</time>
      </trkpt>
      <trkpt lat="42.427537" lon="1.929209">
        <ele>1143.0</ele>
        <time>2013-08-10T07:53:11Z</time>
      </trkpt>
      <trkpt lat="42.427334" lon="1.929331">
        <ele>1142.2</ele>
        <time>2013-08-10T07:53:26Z</time>
      </trkpt>
      <trkpt lat="42.427163" lon="1.929431">
        <ele>1141.5</ele>
        <time>2013-08-10T07:53:43Z</time>
      </trkpt>
      <trkpt lat="42.427148" lon="1.929443">
        <ele>1141.4</ele>
        <time>2013-08-10T07:53:45Z</time>
      </trkpt>
      <trkpt lat="42.426990" lon="1.929609">
        <ele>1140.7</ele>
        <time>2013-08-10T07:53:59Z</time>
      </trkpt>
      <trkpt lat="42.426942" lon="1.929675">
        <ele>1140.4</ele>
        <time>2013-08-10T07:54:05Z</time>
      </trkpt>
      <trkpt lat="42.426914" lon="1.929741">
        <ele>1140.2</ele>
        <time>2013-08-10T07:54:09Z</time>
      </trkpt>
      <trkpt lat="42.426859" lon="1.929800">
        <ele>1139.9</ele>
        <time>2013-08-10T07:54:13Z</time>
      </trkpt>
      <trkpt lat="42.426770" lon="1.929933">
        <ele>1139.3</ele>
        <time>2013-08-10T07:54:28Z</time>
      </trkpt>
      <trkpt lat="42.426755" lon="1.929943">
        <ele>1139.1</ele>
        <time>2013-08-10T07:54:41Z</time>
      </trkpt>
      <trkpt lat="42.426734" lon="1.929938">
        <ele>1139.2</ele>
        <time>2013-08-10T07:54:43Z</time>
      </trkpt>
      <trkpt lat="42.426674" lon="1.929960">
        <ele>1139.1</ele>
        <time>2013-08-10T07:54:56Z</time>
      </trkpt>
      <trkpt lat="42.426674" lon="1.929960">
        <ele>1139.1</ele>
        <time>2013-08-10T07:55:19Z</time>
      </trkpt>
      <trkpt lat="42.426665" lon="1.929966">
        <ele>1139.1</ele>
        <time>2013-08-10T07:55:33Z</time>
      </trkpt>
      <trkpt lat="42.426669" lon="1.929982">
        <ele>1139.0</ele>
        <time>2013-08-10T07:55:47Z</time>
      </trkpt>
      <trkpt lat="42.426669" lon="1.929989">
        <ele>1139.0</ele>
        <time>2013-08-10T07:56:18Z</time>
      </trkpt>
      <trkpt lat="42.426550" lon="1.930113">
        <ele>1138.6</ele>
        <time>2013-08-10T07:56:30Z</time>
      </trkpt>
      <trkpt lat="42.426476" lon="1.930195">
        <ele>1138.4</ele>
        <time>2013-08-10T07:56:37Z</time>
      </trkpt>
      <trkpt lat="42.426431" lon="1.930252">
        <ele>1138.4</ele>
        <time>2013-08-10T07:56:41Z</time>
      </trkpt>
      <trkpt lat="42.426402" lon="1.930307">
        <ele>1138.2</ele>
        <time>2013-08-10T07:56:44Z</time>
      </trkpt>
      <trkpt lat="42.426234" lon="1.930505">
        <ele>1137.9</ele>
        <time>2013-08-10T07:57:00Z</time>
      </trkpt>
      <trkpt lat="42.426112" lon="1.930670">
        <ele>1137.4</ele>
        <time>2013-08-10T07:57:15Z</time>
      </trkpt>
      <trkpt lat="42.426053" lon="1.930749">
        <ele>1137.2</ele>
        <time>2013-08-10T07:57:21Z</time>
      </trkpt>
      <trkpt lat="42.425888" lon="1.930956">
        <ele>1136.8</ele>
        <time>2013-08-10T07:57:37Z</time>
      </trkpt>
      <trkpt lat="42.425736" lon="1.931204">
        <ele>1136.3</ele>
        <time>2013-08-10T07:57:53Z</time>
      </trkpt>
      <trkpt lat="42.425546" lon="1.931451">
        <ele>1135.7</ele>
        <time>2013-08-10T07:58:11Z</time>
      </trkpt>
      <trkpt lat="42.425418" lon="1.931644">
        <ele>1135.5</ele>
        <time>2013-08-10T07:58:25Z</time>
      </trkpt>
      <trkpt lat="42.425376" lon="1.931763">
        <ele>1135.2</ele>
        <time>2013-08-10T07:58:31Z</time>
      </trkpt>
      <trkpt lat="42.425330" lon="1.931842">
        <ele>1135.1</ele>
        <time>2013-08-10T07:58:35Z</time>
      </trkpt>
      <trkpt lat="42.425253" lon="1.931948">
        <ele>1135.0</ele>
        <time>2013-08-10T07:58:42Z</time>
      </trkpt>
      <trkpt lat="42.425010" lon="1.932199">
        <ele>1134.1</ele>
        <time>2013-08-10T07:59:05Z</time>
      </trkpt>
      <trkpt lat="42.424768" lon="1.932440">
        <ele>1132.7</ele>
        <time>2013-08-10T07:59:23Z</time>
      </trkpt>
      <trkpt lat="42.424560" lon="1.932589">
        <ele>1131.7</ele>
        <time>2013-08-10T07:59:39Z</time>
      </trkpt>
      <trkpt lat="42.424325" lon="1.932727">
        <ele>1130.7</ele>
        <time>2013-08-10T07:59:56Z</time>
      </trkpt>
      <trkpt lat="42.424092" lon="1.932797">
        <ele>1129.7</ele>
        <time>2013-08-10T08:00:13Z</time>
      </trkpt>
      <trkpt lat="42.423858" lon="1.932925">
        <ele>1128.7</ele>
        <time>2013-08-10T08:00:28Z</time>
      </trkpt>
      <trkpt lat="42.423683" lon="1.933143">
        <ele>1127.1</ele>
        <time>2013-08-10T08:00:44Z</time>
      </trkpt>
      <trkpt lat="42.423552" lon="1.933451">
        <ele>1126.3</ele>
        <time>2013-08-10T08:01:02Z</time>
      </trkpt>
      <trkpt lat="42.423463" lon="1.933662">
        <ele>1127.3</ele>
        <time>2013-08-10T08:01:18Z</time>
      </trkpt>
      <trkpt lat="42.423463" lon="1.933662">
        <ele>1127.3</ele>
        <time>2013-08-10T08:01:39Z</time>
      </trkpt>
      <trkpt lat="42.423277" lon="1.933847">
        <ele>1125.5</ele>
        <time>2013-08-10T08:01:55Z</time>
      </trkpt>
      <trkpt lat="42.423067" lon="1.933947">
        <ele>1124.4</ele>
        <time>2013-08-10T08:02:13Z</time>
      </trkpt>
      <trkpt lat="42.422850" lon="1.934078">
        <ele>1123.5</ele>
        <time>2013-08-10T08:02:28Z</time>
      </trkpt>
      <trkpt lat="42.422726" lon="1.934151">
        <ele>1123.3</ele>
        <time>2013-08-10T08:02:42Z</time>
      </trkpt>
      <trkpt lat="42.422605" lon="1.934252">
        <ele>1122.5</ele>
        <time>2013-08-10T08:02:54Z</time>
      </trkpt>
      <trkpt lat="42.422594" lon="1.934264">
        <ele>1122.4</ele>
        <time>2013-08-10T08:02:55Z</time>
      </trkpt>
      <trkpt lat="42.422528" lon="1.934333">
        <ele>1122.4</ele>
        <time>2013-08-10T08:03:00Z</time>
      </trkpt>
      <trkpt lat="42.422329" lon="1.934630">
        <ele>1122.7</ele>
        <time>2013-08-10T08:03:16Z</time>
      </trkpt>
      <trkpt lat="42.422267" lon="1.934725">
        <ele>1122.5</ele>
        <time>2013-08-10T08:03:22Z</time>
      </trkpt>
      <trkpt lat="42.422156" lon="1.934918">
        <ele>1122.8</ele>
        <time>2013-08-10T08:03:37Z</time>
      </trkpt>
      <trkpt lat="42.422008" lon="1.935245">
        <ele>1123.0</ele>
        <time>2013-08-10T08:03:51Z</time>
      </trkpt>
      <trkpt lat="42.421867" lon="1.935499">
        <ele>1123.1</ele>
        <time>2013-08-10T08:04:08Z</time>
      </trkpt>
      <trkpt lat="42.421721" lon="1.935758">
        <ele>1122.9</ele>
        <time>2013-08-10T08:04:23Z</time>
      </trkpt>
      <trkpt lat="42.421577" lon="1.936016">
        <ele>1122.7</ele>
        <time>2013-08-10T08:04:40Z</time>
      </trkpt>
      <trkpt lat="42.421443" lon="1.936338">
        <ele>1123.1</ele>
        <time>2013-08-10T08:04:55Z</time>
      </trkpt>
      <trkpt lat="42.421361" lon="1.936598">
        <ele>1123.4</ele>
        <time>2013-08-10T08:05:10Z</time>
      </trkpt>
      <trkpt lat="42.421293" lon="1.936923">
        <ele>1123.7</ele>
        <time>2013-08-10T08:05:26Z</time>
      </trkpt>
      <trkpt lat="42.421219" lon="1.937185">
        <ele>1123.6</ele>
        <time>2013-08-10T08:05:40Z</time>
      </trkpt>
      <trkpt lat="42.421123" lon="1.937515">
        <ele>1123.3</ele>
        <time>2013-08-10T08:05:57Z</time>
      </trkpt>
      <trkpt lat="42.421071" lon="1.937592">
        <ele>1123.4</ele>
        <time>2013-08-10T08:06:05Z</time>
      </trkpt>
      <trkpt lat="42.420946" lon="1.937798">
        <ele>1123.6</ele>
        <time>2013-08-10T08:06:18Z</time>
      </trkpt>
      <trkpt lat="42.420799" lon="1.938020">
        <ele>1123.7</ele>
        <time>2013-08-10T08:06:32Z</time>
      </trkpt>
      <trkpt lat="42.420682" lon="1.938208">
        <ele>1123.8</ele>
        <time>2013-08-10T08:06:47Z</time>
      </trkpt>
      <trkpt lat="42.420535" lon="1.938417">
        <ele>1124.1</ele>
        <time>2013-08-10T08:07:02Z</time>
      </trkpt>
      <trkpt lat="42.420344" lon="1.938717">
        <ele>1124.1</ele>
        <time>2013-08-10T08:07:18Z</time>
      </trkpt>
      <trkpt lat="42.420177" lon="1.938936">
        <ele>1124.5</ele>
        <time>2013-08-10T08:07:36Z</time>
      </trkpt>
      <trkpt lat="42.420157" lon="1.938955">
        <ele>1124.4</ele>
        <time>2013-08-10T08:07:38Z</time>
      </trkpt>
      <trkpt lat="42.419977" lon="1.939228">
        <ele>1124.6</ele>
        <time>2013-08-10T08:07:55Z</time>
      </trkpt>
      <trkpt lat="42.419787" lon="1.939498">
        <ele>1124.8</ele>
        <time>2013-08-10T08:08:12Z</time>
      </trkpt>
      <trkpt lat="42.419591" lon="1.939727">
        <ele>1125.5</ele>
        <time>2013-08-10T08:08:32Z</time>
      </trkpt>
      <trkpt lat="42.419406" lon="1.940039">
        <ele>1125.4</ele>
        <time>2013-08-10T08:08:49Z</time>
      </trkpt>
      <trkpt lat="42.419229" lon="1.940327">
        <ele>1125.9</ele>
        <time>2013-08-10T08:09:07Z</time>
      </trkpt>
      <trkpt lat="42.419087" lon="1.940585">
        <ele>1126.1</ele>
        <time>2013-08-10T08:09:17Z</time>
      </trkpt>
      <trkpt lat="42.419066" lon="1.940626">
        <ele>1126.2</ele>
        <time>2013-08-10T08:09:25Z</time>
      </trkpt>
      <trkpt lat="42.418901" lon="1.940900">
        <ele>1127.0</ele>
        <time>2013-08-10T08:09:46Z</time>
      </trkpt>
      <trkpt lat="42.418875" lon="1.940948">
        <ele>1127.3</ele>
        <time>2013-08-10T08:09:53Z</time>
      </trkpt>
      <trkpt lat="42.418783" lon="1.941049">
        <ele>1127.9</ele>
        <time>2013-08-10T08:24:29Z</time>
      </trkpt>
      <trkpt lat="42.418717" lon="1.941317">
        <ele>1129.1</ele>
        <time>2013-08-10T08:24:44Z</time>
      </trkpt>
      <trkpt lat="42.418611" lon="1.941551">
        <ele>1130.2</ele>
        <time>2013-08-10T08:24:59Z</time>
      </trkpt>
      <trkpt lat="42.418517" lon="1.941757">
        <ele>1131.3</ele>
        <time>2013-08-10T08:25:13Z</time>
      </trkpt>
      <trkpt lat="42.418405" lon="1.942043">
        <ele>1133.4</ele>
        <time>2013-08-10T08:25:29Z</time>
      </trkpt>
      <trkpt lat="42.418344" lon="1.942293">
        <ele>1134.7</ele>
        <time>2013-08-10T08:25:43Z</time>
      </trkpt>
      <trkpt lat="42.418331" lon="1.942492">
        <ele>1136.1</ele>
        <time>2013-08-10T08:25:55Z</time>
      </trkpt>
      <trkpt lat="42.418348" lon="1.942705">
        <ele>1137.7</ele>
        <time>2013-08-10T08:26:07Z</time>
      </trkpt>
      <trkpt lat="42.418355" lon="1.942779">
        <ele>1138.3</ele>
        <time>2013-08-10T08:26:12Z</time>
      </trkpt>
      <trkpt lat="42.418360" lon="1.942826">
        <ele>1138.7</ele>
        <time>2013-08-10T08:26:15Z</time>
      </trkpt>
      <trkpt lat="42.418366" lon="1.943062">
        <ele>1140.5</ele>
        <time>2013-08-10T08:26:29Z</time>
      </trkpt>
      <trkpt lat="42.418364" lon="1.943073">
        <ele>1140.6</ele>
        <time>2013-08-10T08:26:30Z</time>
      </trkpt>
      <trkpt lat="42.418318" lon="1.943265">
        <ele>1142.0</ele>
        <time>2013-08-10T08:26:43Z</time>
      </trkpt>
      <trkpt lat="42.418338" lon="1.943412">
        <ele>1143.2</ele>
        <time>2013-08-10T08:26:59Z</time>
      </trkpt>
      <trkpt lat="42.418359" lon="1.943532">
        <ele>1144.3</ele>
        <time>2013-08-10T08:27:08Z</time>
      </trkpt>
      <trkpt lat="42.418374" lon="1.943715">
        <ele>1146.2</ele>
        <time>2013-08-10T08:27:20Z</time>
      </trkpt>
      <trkpt lat="42.418380" lon="1.943807">
        <ele>1146.9</ele>
        <time>2013-08-10T08:27:26Z</time>
      </trkpt>
      <trkpt lat="42.418384" lon="1.943837">
        <ele>1147.1</ele>
        <time>2013-08-10T08:27:28Z</time>
      </trkpt>
      <trkpt lat="42.418387" lon="1.943897">
        <ele>1147.7</ele>
        <time>2013-08-10T08:27:32Z</time>
      </trkpt>
      <trkpt lat="42.418386" lon="1.943966">
        <ele>1148.2</ele>
        <time>2013-08-10T08:27:36Z</time>
      </trkpt>
      <trkpt lat="42.418385" lon="1.944009">
        <ele>1148.6</ele>
        <time>2013-08-10T08:27:39Z</time>
      </trkpt>
      <trkpt lat="42.418387" lon="1.944053">
        <ele>1148.8</ele>
        <time>2013-08-10T08:27:42Z</time>
      </trkpt>
      <trkpt lat="42.418394" lon="1.944255">
        <ele>1148.9</ele>
        <time>2013-08-10T08:27:55Z</time>
      </trkpt>
      <trkpt lat="42.418396" lon="1.944484">
        <ele>1149.5</ele>
        <time>2013-08-10T08:28:08Z</time>
      </trkpt>
      <trkpt lat="42.418394" lon="1.944506">
        <ele>1149.5</ele>
        <time>2013-08-10T08:28:09Z</time>
      </trkpt>
      <trkpt lat="42.418409" lon="1.944740">
        <ele>1152.8</ele>
        <time>2013-08-10T08:28:24Z</time>
      </trkpt>
      <trkpt lat="42.418421" lon="1.944842">
        <ele>1153.2</ele>
        <time>2013-08-10T08:28:31Z</time>
      </trkpt>
      <trkpt lat="42.418444" lon="1.945056">
        <ele>1154.0</ele>
        <time>2013-08-10T08:28:45Z</time>
      </trkpt>
      <trkpt lat="42.418459" lon="1.945255">
        <ele>1154.6</ele>
        <time>2013-08-10T08:28:57Z</time>
      </trkpt>
      <trkpt lat="42.418485" lon="1.945503">
        <ele>1155.5</ele>
        <time>2013-08-10T08:29:11Z</time>
      </trkpt>
      <trkpt lat="42.418484" lon="1.945520">
        <ele>1155.5</ele>
        <time>2013-08-10T08:29:12Z</time>
      </trkpt>
      <trkpt lat="42.418475" lon="1.945615">
        <ele>1155.6</ele>
        <time>2013-08-10T08:29:17Z</time>
      </trkpt>
      <trkpt lat="42.418466" lon="1.945735">
        <ele>1156.1</ele>
        <time>2013-08-10T08:29:23Z</time>
      </trkpt>
      <trkpt lat="42.418457" lon="1.945854">
        <ele>1156.5</ele>
        <time>2013-08-10T08:29:33Z</time>
      </trkpt>
      <trkpt lat="42.418464" lon="1.945966">
        <ele>1156.6</ele>
        <time>2013-08-10T08:29:39Z</time>
      </trkpt>
      <trkpt lat="42.418475" lon="1.946213">
        <ele>1157.2</ele>
        <time>2013-08-10T08:29:52Z</time>
      </trkpt>
      <trkpt lat="42.418478" lon="1.946251">
        <ele>1157.3</ele>
        <time>2013-08-10T08:29:55Z</time>
      </trkpt>
      <trkpt lat="42.418486" lon="1.946369">
        <ele>1157.8</ele>
        <time>2013-08-10T08:30:01Z</time>
      </trkpt>
      <trkpt lat="42.418567" lon="1.946597">
        <ele>1158.6</ele>
        <time>2013-08-10T08:30:15Z</time>
      </trkpt>
      <trkpt lat="42.418562" lon="1.946916">
        <ele>1159.3</ele>
        <time>2013-08-10T08:30:29Z</time>
      </trkpt>
      <trkpt lat="42.418562" lon="1.947033">
        <ele>1159.6</ele>
        <time>2013-08-10T08:30:38Z</time>
      </trkpt>
      <trkpt lat="42.418559" lon="1.947115">
        <ele>1159.7</ele>
        <time>2013-08-10T08:30:45Z</time>
      </trkpt>
      <trkpt lat="42.418561" lon="1.947235">
        <ele>1159.9</ele>
        <time>2013-08-10T08:30:51Z</time>
      </trkpt>
      <trkpt lat="42.418552" lon="1.947285">
        <ele>1160.0</ele>
        <time>2013-08-10T08:30:54Z</time>
      </trkpt>
      <trkpt lat="42.418517" lon="1.947474">
        <ele>1160.2</ele>
        <time>2013-08-10T08:31:07Z</time>
      </trkpt>
      <trkpt lat="42.418550" lon="1.947582">
        <ele>1160.3</ele>
        <time>2013-08-10T08:31:14Z</time>
      </trkpt>
      <trkpt lat="42.418556" lon="1.947677">
        <ele>1160.7</ele>
        <time>2013-08-10T08:31:18Z</time>
      </trkpt>
      <trkpt lat="42.418599" lon="1.947748">
        <ele>1161.2</ele>
        <time>2013-08-10T08:31:23Z</time>
      </trkpt>
      <trkpt lat="42.418612" lon="1.947783">
        <ele>1161.1</ele>
        <time>2013-08-10T08:31:25Z</time>
      </trkpt>
      <trkpt lat="42.418622" lon="1.947931">
        <ele>1161.2</ele>
        <time>2013-08-10T08:31:33Z</time>
      </trkpt>
      <trkpt lat="42.418613" lon="1.948175">
        <ele>1161.7</ele>
        <time>2013-08-10T08:31:46Z</time>
      </trkpt>
      <trkpt lat="42.418601" lon="1.948292">
        <ele>1162.0</ele>
        <time>2013-08-10T08:31:54Z</time>
      </trkpt>
      <trkpt lat="42.418545" lon="1.948551">
        <ele>1162.2</ele>
        <time>2013-08-10T08:32:09Z</time>
      </trkpt>
      <trkpt lat="42.418541" lon="1.948656">
        <ele>1161.2</ele>
        <time>2013-08-10T08:32:23Z</time>
      </trkpt>
      <trkpt lat="42.418579" lon="1.948742">
        <ele>1161.6</ele>
        <time>2013-08-10T08:32:46Z</time>
      </trkpt>
      <trkpt lat="42.418591" lon="1.948804">
        <ele>1161.4</ele>
        <time>2013-08-10T08:32:50Z</time>
      </trkpt>
      <trkpt lat="42.418611" lon="1.949073">
        <ele>1159.6</ele>
        <time>2013-08-10T08:33:03Z</time>
      </trkpt>
      <trkpt lat="42.418609" lon="1.949101">
        <ele>1159.6</ele>
        <time>2013-08-10T08:33:04Z</time>
      </trkpt>
      <trkpt lat="42.418638" lon="1.949177">
        <ele>1158.9</ele>
        <time>2013-08-10T08:33:08Z</time>
      </trkpt>
      <trkpt lat="42.418662" lon="1.949260">
        <ele>1158.1</ele>
        <time>2013-08-10T08:33:12Z</time>
      </trkpt>
      <trkpt lat="42.418676" lon="1.949299">
        <ele>1157.8</ele>
        <time>2013-08-10T08:33:14Z</time>
      </trkpt>
      <trkpt lat="42.418666" lon="1.949518">
        <ele>1155.8</ele>
        <time>2013-08-10T08:33:28Z</time>
      </trkpt>
      <trkpt lat="42.418660" lon="1.949532">
        <ele>1155.7</ele>
        <time>2013-08-10T08:33:29Z</time>
      </trkpt>
      <trkpt lat="42.418641" lon="1.949568">
        <ele>1155.5</ele>
        <time>2013-08-10T08:33:34Z</time>
      </trkpt>
      <trkpt lat="42.418455" lon="1.949625">
        <ele>1154.0</ele>
        <time>2013-08-10T08:33:51Z</time>
      </trkpt>
      <trkpt lat="42.418249" lon="1.949644">
        <ele>1152.5</ele>
        <time>2013-08-10T08:34:06Z</time>
      </trkpt>
      <trkpt lat="42.418048" lon="1.949692">
        <ele>1151.5</ele>
        <time>2013-08-10T08:34:21Z</time>
      </trkpt>
      <trkpt lat="42.417783" lon="1.949690">
        <ele>1149.7</ele>
        <time>2013-08-10T08:34:39Z</time>
      </trkpt>
      <trkpt lat="42.417529" lon="1.949692">
        <ele>1148.1</ele>
        <time>2013-08-10T08:34:56Z</time>
      </trkpt>
      <trkpt lat="42.417289" lon="1.949715">
        <ele>1147.0</ele>
        <time>2013-08-10T08:35:13Z</time>
      </trkpt>
      <trkpt lat="42.417038" lon="1.949734">
        <ele>1146.4</ele>
        <time>2013-08-10T08:35:30Z</time>
      </trkpt>
      <trkpt lat="42.416832" lon="1.949762">
        <ele>1145.7</ele>
        <time>2013-08-10T08:35:42Z</time>
      </trkpt>
      <trkpt lat="42.416604" lon="1.949744">
        <ele>1144.8</ele>
        <time>2013-08-10T08:35:58Z</time>
      </trkpt>
      <trkpt lat="42.416402" lon="1.949692">
        <ele>1144.2</ele>
        <time>2013-08-10T08:36:14Z</time>
      </trkpt>
      <trkpt lat="42.416206" lon="1.949628">
        <ele>1143.7</ele>
        <time>2013-08-10T08:36:30Z</time>
      </trkpt>
      <trkpt lat="42.416039" lon="1.949492">
        <ele>1143.1</ele>
        <time>2013-08-10T08:36:48Z</time>
      </trkpt>
      <trkpt lat="42.415777" lon="1.949333">
        <ele>1142.7</ele>
        <time>2013-08-10T08:37:06Z</time>
      </trkpt>
      <trkpt lat="42.415600" lon="1.949194">
        <ele>1142.4</ele>
        <time>2013-08-10T08:37:22Z</time>
      </trkpt>
      <trkpt lat="42.415443" lon="1.949059">
        <ele>1142.2</ele>
        <time>2013-08-10T08:37:40Z</time>
      </trkpt>
      <trkpt lat="42.415145" lon="1.948842">
        <ele>1141.9</ele>
        <time>2013-08-10T08:38:01Z</time>
      </trkpt>
      <trkpt lat="42.414972" lon="1.948711">
        <ele>1141.8</ele>
        <time>2013-08-10T08:38:17Z</time>
      </trkpt>
      <trkpt lat="42.414782" lon="1.948636">
        <ele>1141.9</ele>
        <time>2013-08-10T08:38:34Z</time>
      </trkpt>
      <trkpt lat="42.414755" lon="1.948639">
        <ele>1142.0</ele>
        <time>2013-08-10T08:38:36Z</time>
      </trkpt>
      <trkpt lat="42.414490" lon="1.948679">
        <ele>1142.1</ele>
        <time>2013-08-10T08:38:54Z</time>
      </trkpt>
      <trkpt lat="42.414297" lon="1.948667">
        <ele>1142.2</ele>
        <time>2013-08-10T08:39:08Z</time>
      </trkpt>
      <trkpt lat="42.414081" lon="1.948642">
        <ele>1142.4</ele>
        <time>2013-08-10T08:39:26Z</time>
      </trkpt>
      <trkpt lat="42.413930" lon="1.948607">
        <ele>1142.5</ele>
        <time>2013-08-10T08:39:36Z</time>
      </trkpt>
      <trkpt lat="42.413860" lon="1.948591">
        <ele>1142.6</ele>
        <time>2013-08-10T08:39:40Z</time>
      </trkpt>
      <trkpt lat="42.413639" lon="1.948538">
        <ele>1142.7</ele>
        <time>2013-08-10T08:39:55Z</time>
      </trkpt>
      <trkpt lat="42.413478" lon="1.948500">
        <ele>1142.7</ele>
        <time>2013-08-10T08:40:09Z</time>
      </trkpt>
      <trkpt lat="42.413280" lon="1.948421">
        <ele>1142.6</ele>
        <time>2013-08-10T08:40:25Z</time>
      </trkpt>
      <trkpt lat="42.413205" lon="1.948407">
        <ele>1143.0</ele>
        <time>2013-08-10T08:40:29Z</time>
      </trkpt>
      <trkpt lat="42.413019" lon="1.948380">
        <ele>1143.3</ele>
        <time>2013-08-10T08:40:44Z</time>
      </trkpt>
      <trkpt lat="42.412754" lon="1.948299">
        <ele>1140.1</ele>
        <time>2013-08-10T08:41:03Z</time>
      </trkpt>
      <trkpt lat="42.412650" lon="1.948276">
        <ele>1142.8</ele>
        <time>2013-08-10T08:41:13Z</time>
      </trkpt>
      <trkpt lat="42.412579" lon="1.948262">
        <ele>1143.4</ele>
        <time>2013-08-10T08:41:18Z</time>
      </trkpt>
      <trkpt lat="42.412502" lon="1.948234">
        <ele>1143.5</ele>
        <time>2013-08-10T08:41:23Z</time>
      </trkpt>
      <trkpt lat="42.412316" lon="1.948123">
        <ele>1143.6</ele>
        <time>2013-08-10T08:41:38Z</time>
      </trkpt>
      <trkpt lat="42.412229" lon="1.948078">
        <ele>1143.9</ele>
        <time>2013-08-10T08:41:46Z</time>
      </trkpt>
      <trkpt lat="42.412178" lon="1.948098">
        <ele>1144.0</ele>
        <time>2013-08-10T08:41:50Z</time>
      </trkpt>
      <trkpt lat="42.412139" lon="1.948113">
        <ele>1144.1</ele>
        <time>2013-08-10T08:41:54Z</time>
      </trkpt>
      <trkpt lat="42.412070" lon="1.948153">
        <ele>1144.2</ele>
        <time>2013-08-10T08:42:08Z</time>
      </trkpt>
      <trkpt lat="42.411976" lon="1.948212">
        <ele>1144.4</ele>
        <time>2013-08-10T08:42:27Z</time>
      </trkpt>
      <trkpt lat="42.411958" lon="1.948242">
        <ele>1144.4</ele>
        <time>2013-08-10T08:42:29Z</time>
      </trkpt>
      <trkpt lat="42.411763" lon="1.948385">
        <ele>1145.2</ele>
        <time>2013-08-10T08:42:45Z</time>
      </trkpt>
      <trkpt lat="42.411671" lon="1.948503">
        <ele>1145.5</ele>
        <time>2013-08-10T08:42:56Z</time>
      </trkpt>
      <trkpt lat="42.411485" lon="1.948823">
        <ele>1146.3</ele>
        <time>2013-08-10T08:43:16Z</time>
      </trkpt>
      <trkpt lat="42.411374" lon="1.948993">
        <ele>1146.9</ele>
        <time>2013-08-10T08:43:30Z</time>
      </trkpt>
      <trkpt lat="42.411260" lon="1.949149">
        <ele>1147.5</ele>
        <time>2013-08-10T08:43:43Z</time>
      </trkpt>
      <trkpt lat="42.411157" lon="1.949263">
        <ele>1148.1</ele>
        <time>2013-08-10T08:43:52Z</time>
      </trkpt>
      <trkpt lat="42.411028" lon="1.949377">
        <ele>1148.8</ele>
        <time>2013-08-10T08:44:05Z</time>
      </trkpt>
      <trkpt lat="42.410878" lon="1.949466">
        <ele>1149.3</ele>
        <time>2013-08-10T08:44:20Z</time>
      </trkpt>
      <trkpt lat="42.410789" lon="1.949515">
        <ele>1149.6</ele>
        <time>2013-08-10T08:44:37Z</time>
      </trkpt>
      <trkpt lat="42.410586" lon="1.949620">
        <ele>1150.5</ele>
        <time>2013-08-10T08:44:53Z</time>
      </trkpt>
      <trkpt lat="42.410382" lon="1.949726">
        <ele>1151.4</ele>
        <time>2013-08-10T08:45:09Z</time>
      </trkpt>
      <trkpt lat="42.410192" lon="1.949817">
        <ele>1152.4</ele>
        <time>2013-08-10T08:45:25Z</time>
      </trkpt>
      <trkpt lat="42.409959" lon="1.949940">
        <ele>1153.4</ele>
        <time>2013-08-10T08:45:41Z</time>
      </trkpt>
      <trkpt lat="42.409826" lon="1.949990">
        <ele>1154.3</ele>
        <time>2013-08-10T08:45:54Z</time>
      </trkpt>
      <trkpt lat="42.409558" lon="1.950148">
        <ele>1155.4</ele>
        <time>2013-08-10T08:46:13Z</time>
      </trkpt>
      <trkpt lat="42.409352" lon="1.950280">
        <ele>1156.7</ele>
        <time>2013-08-10T08:46:28Z</time>
      </trkpt>
      <trkpt lat="42.409117" lon="1.950401">
        <ele>1157.9</ele>
        <time>2013-08-10T08:46:47Z</time>
      </trkpt>
      <trkpt lat="42.408932" lon="1.950516">
        <ele>1159.3</ele>
        <time>2013-08-10T08:47:03Z</time>
      </trkpt>
      <trkpt lat="42.408805" lon="1.950547">
        <ele>1160.6</ele>
        <time>2013-08-10T08:47:14Z</time>
      </trkpt>
      <trkpt lat="42.408770" lon="1.950550">
        <ele>1160.9</ele>
        <time>2013-08-10T08:47:24Z</time>
      </trkpt>
      <trkpt lat="42.408615" lon="1.950503">
        <ele>1162.3</ele>
        <time>2013-08-10T08:47:38Z</time>
      </trkpt>
      <trkpt lat="42.408439" lon="1.950469">
        <ele>1163.2</ele>
        <time>2013-08-10T08:47:52Z</time>
      </trkpt>
      <trkpt lat="42.408266" lon="1.950426">
        <ele>1165.0</ele>
        <time>2013-08-10T08:48:05Z</time>
      </trkpt>
      <trkpt lat="42.408197" lon="1.950428">
        <ele>1165.5</ele>
        <time>2013-08-10T08:48:11Z</time>
      </trkpt>
      <trkpt lat="42.408011" lon="1.950506">
        <ele>1166.3</ele>
        <time>2013-08-10T08:48:26Z</time>
      </trkpt>
      <trkpt lat="42.407861" lon="1.950614">
        <ele>1166.8</ele>
        <time>2013-08-10T08:48:40Z</time>
      </trkpt>
      <trkpt lat="42.407779" lon="1.950676">
        <ele>1167.0</ele>
        <time>2013-08-10T08:48:53Z</time>
      </trkpt>
      <trkpt lat="42.407696" lon="1.950730">
        <ele>1167.6</ele>
        <time>2013-08-10T08:49:07Z</time>
      </trkpt>
      <trkpt lat="42.407650" lon="1.950753">
        <ele>1167.8</ele>
        <time>2013-08-10T08:49:12Z</time>
      </trkpt>
      <trkpt lat="42.407615" lon="1.950774">
        <ele>1168.1</ele>
        <time>2013-08-10T08:49:16Z</time>
      </trkpt>
      <trkpt lat="42.407405" lon="1.950852">
        <ele>1168.7</ele>
        <time>2013-08-10T09:17:06Z</time>
      </trkpt>
      <trkpt lat="42.407249" lon="1.950842">
        <ele>1169.8</ele>
        <time>2013-08-10T09:17:20Z</time>
      </trkpt>
      <trkpt lat="42.407092" lon="1.950847">
        <ele>1170.4</ele>
        <time>2013-08-10T09:17:34Z</time>
      </trkpt>
      <trkpt lat="42.407033" lon="1.950845">
        <ele>1170.8</ele>
        <time>2013-08-10T09:17:39Z</time>
      </trkpt>
      <trkpt lat="42.406839" lon="1.950842">
        <ele>1171.8</ele>
        <time>2013-08-10T09:17:53Z</time>
      </trkpt>
      <trkpt lat="42.406691" lon="1.950864">
        <ele>1172.5</ele>
        <time>2013-08-10T09:18:06Z</time>
      </trkpt>
      <trkpt lat="42.406503" lon="1.950891">
        <ele>1173.8</ele>
        <time>2013-08-10T09:18:21Z</time>
      </trkpt>
      <trkpt lat="42.406283" lon="1.950879">
        <ele>1175.4</ele>
        <time>2013-08-10T09:18:37Z</time>
      </trkpt>
      <trkpt lat="42.406209" lon="1.950846">
        <ele>1175.7</ele>
        <time>2013-08-10T09:18:43Z</time>
      </trkpt>
      <trkpt lat="42.406042" lon="1.950832">
        <ele>1176.8</ele>
        <time>2013-08-10T09:18:57Z</time>
      </trkpt>
      <trkpt lat="42.405950" lon="1.950832">
        <ele>1177.5</ele>
        <time>2013-08-10T09:19:05Z</time>
      </trkpt>
      <trkpt lat="42.405787" lon="1.950732">
        <ele>1178.4</ele>
        <time>2013-08-10T09:19:20Z</time>
      </trkpt>
      <trkpt lat="42.405645" lon="1.950637">
        <ele>1179.7</ele>
        <time>2013-08-10T09:19:32Z</time>
      </trkpt>
      <trkpt lat="42.405496" lon="1.950516">
        <ele>1180.9</ele>
        <time>2013-08-10T09:19:45Z</time>
      </trkpt>
      <trkpt lat="42.405370" lon="1.950396">
        <ele>1182.0</ele>
        <time>2013-08-10T09:19:57Z</time>
      </trkpt>
      <trkpt lat="42.405280" lon="1.950289">
        <ele>1182.9</ele>
        <time>2013-08-10T09:20:07Z</time>
      </trkpt>
      <trkpt lat="42.405181" lon="1.950171">
        <ele>1184.2</ele>
        <time>2013-08-10T09:20:19Z</time>
      </trkpt>
      <trkpt lat="42.405095" lon="1.950068">
        <ele>1185.4</ele>
        <time>2013-08-10T09:20:30Z</time>
      </trkpt>
      <trkpt lat="42.404988" lon="1.949967">
        <ele>1186.9</ele>
        <time>2013-08-10T09:20:41Z</time>
      </trkpt>
      <trkpt lat="42.404929" lon="1.949884">
        <ele>1188.0</ele>
        <time>2013-08-10T09:20:51Z</time>
      </trkpt>
      <trkpt lat="42.404899" lon="1.949848">
        <ele>1188.3</ele>
        <time>2013-08-10T09:21:06Z</time>
      </trkpt>
      <trkpt lat="42.404808" lon="1.949721">
        <ele>1189.7</ele>
        <time>2013-08-10T09:21:17Z</time>
      </trkpt>
      <trkpt lat="42.404758" lon="1.949652">
        <ele>1190.4</ele>
        <time>2013-08-10T09:21:24Z</time>
      </trkpt>
      <trkpt lat="42.404636" lon="1.949593">
        <ele>1191.8</ele>
        <time>2013-08-10T09:21:38Z</time>
      </trkpt>
      <trkpt lat="42.404533" lon="1.949566">
        <ele>1193.2</ele>
        <time>2013-08-10T09:21:48Z</time>
      </trkpt>
      <trkpt lat="42.404501" lon="1.949542">
        <ele>1193.7</ele>
        <time>2013-08-10T09:21:52Z</time>
      </trkpt>
      <trkpt lat="42.404450" lon="1.949547">
        <ele>1194.1</ele>
        <time>2013-08-10T09:22:00Z</time>
      </trkpt>
      <trkpt lat="42.404346" lon="1.949547">
        <ele>1196.3</ele>
        <time>2013-08-10T09:22:10Z</time>
      </trkpt>
      <trkpt lat="42.404260" lon="1.949530">
        <ele>1197.4</ele>
        <time>2013-08-10T09:22:17Z</time>
      </trkpt>
      <trkpt lat="42.404148" lon="1.949506">
        <ele>1200.8</ele>
        <time>2013-08-10T09:22:28Z</time>
      </trkpt>
      <trkpt lat="42.404143" lon="1.949506">
        <ele>1201.0</ele>
        <time>2013-08-10T09:22:29Z</time>
      </trkpt>
      <trkpt lat="42.404076" lon="1.949520">
        <ele>1202.6</ele>
        <time>2013-08-10T09:22:39Z</time>
      </trkpt>
      <trkpt lat="42.404045" lon="1.949531">
        <ele>1203.4</ele>
        <time>2013-08-10T09:22:43Z</time>
      </trkpt>
      <trkpt lat="42.403979" lon="1.949585">
        <ele>1205.4</ele>
        <time>2013-08-10T09:22:55Z</time>
      </trkpt>
      <trkpt lat="42.403975" lon="1.949591">
        <ele>1205.4</ele>
        <time>2013-08-10T09:22:56Z</time>
      </trkpt>
      <trkpt lat="42.403924" lon="1.949671">
        <ele>1207.5</ele>
        <time>2013-08-10T09:23:07Z</time>
      </trkpt>
      <trkpt lat="42.403864" lon="1.949738">
        <ele>1210.1</ele>
        <time>2013-08-10T09:23:19Z</time>
      </trkpt>
      <trkpt lat="42.403800" lon="1.949796">
        <ele>1212.3</ele>
        <time>2013-08-10T09:23:31Z</time>
      </trkpt>
      <trkpt lat="42.403790" lon="1.949805">
        <ele>1212.7</ele>
        <time>2013-08-10T09:23:33Z</time>
      </trkpt>
      <trkpt lat="42.403723" lon="1.949868">
        <ele>1214.9</ele>
        <time>2013-08-10T09:23:44Z</time>
      </trkpt>
      <trkpt lat="42.403644" lon="1.949920">
        <ele>1216.9</ele>
        <time>2013-08-10T09:23:55Z</time>
      </trkpt>
      <trkpt lat="42.403564" lon="1.949960">
        <ele>1218.4</ele>
        <time>2013-08-10T09:24:07Z</time>
      </trkpt>
      <trkpt lat="42.403463" lon="1.949972">
        <ele>1219.7</ele>
        <time>2013-08-10T09:24:18Z</time>
      </trkpt>
      <trkpt lat="42.403379" lon="1.949945">
        <ele>1221.9</ele>
        <time>2013-08-10T09:24:30Z</time>
      </trkpt>
      <trkpt lat="42.403299" lon="1.949922">
        <ele>1223.7</ele>
        <time>2013-08-10T09:24:42Z</time>
      </trkpt>
      <trkpt lat="42.403226" lon="1.949906">
        <ele>1226.7</ele>
        <time>2013-08-10T09:24:54Z</time>
      </trkpt>
      <trkpt lat="42.403148" lon="1.949866">
        <ele>1228.8</ele>
        <time>2013-08-10T09:25:05Z</time>
      </trkpt>
      <trkpt lat="42.403121" lon="1.949852">
        <ele>1229.4</ele>
        <time>2013-08-10T09:25:08Z</time>
      </trkpt>
      <trkpt lat="42.403072" lon="1.949822">
        <ele>1230.5</ele>
        <time>2013-08-10T09:25:14Z</time>
      </trkpt>
      <trkpt lat="42.403034" lon="1.949803">
        <ele>1231.3</ele>
        <time>2013-08-10T09:25:19Z</time>
      </trkpt>
      <trkpt lat="42.402987" lon="1.949796">
        <ele>1232.4</ele>
        <time>2013-08-10T09:25:25Z</time>
      </trkpt>
      <trkpt lat="42.402894" lon="1.949799">
        <ele>1234.7</ele>
        <time>2013-08-10T09:25:37Z</time>
      </trkpt>
      <trkpt lat="42.402820" lon="1.949828">
        <ele>1236.3</ele>
        <time>2013-08-10T09:25:48Z</time>
      </trkpt>
      <trkpt lat="42.402810" lon="1.949833">
        <ele>1236.5</ele>
        <time>2013-08-10T09:25:50Z</time>
      </trkpt>
      <trkpt lat="42.402743" lon="1.949823">
        <ele>1238.5</ele>
        <time>2013-08-10T09:26:01Z</time>
      </trkpt>
      <trkpt lat="42.402696" lon="1.949817">
        <ele>1239.6</ele>
        <time>2013-08-10T09:26:07Z</time>
      </trkpt>
      <trkpt lat="42.402622" lon="1.949846">
        <ele>1241.1</ele>
        <time>2013-08-10T09:26:17Z</time>
      </trkpt>
      <trkpt lat="42.402616" lon="1.949846">
        <ele>1241.2</ele>
        <time>2013-08-10T09:26:18Z</time>
      </trkpt>
      <trkpt lat="42.402540" lon="1.949858">
        <ele>1243.3</ele>
        <time>2013-08-10T09:26:29Z</time>
      </trkpt>
      <trkpt lat="42.402479" lon="1.949852">
        <ele>1245.1</ele>
        <time>2013-08-10T09:26:39Z</time>
      </trkpt>
      <trkpt lat="42.402472" lon="1.949851">
        <ele>1245.3</ele>
        <time>2013-08-10T09:26:40Z</time>
      </trkpt>
      <trkpt lat="42.402423" lon="1.949852">
        <ele>1246.3</ele>
        <time>2013-08-10T09:26:46Z</time>
      </trkpt>
      <trkpt lat="42.402318" lon="1.949865">
        <ele>1248.4</ele>
        <time>2013-08-10T09:26:58Z</time>
      </trkpt>
      <trkpt lat="42.402213" lon="1.949876">
        <ele>1249.8</ele>
        <time>2013-08-10T09:27:10Z</time>
      </trkpt>
      <trkpt lat="42.402120" lon="1.949891">
        <ele>1251.0</ele>
        <time>2013-08-10T09:27:21Z</time>
      </trkpt>
      <trkpt lat="42.402049" lon="1.949931">
        <ele>1251.9</ele>
        <time>2013-08-10T09:27:33Z</time>
      </trkpt>
      <trkpt lat="42.401971" lon="1.949978">
        <ele>1253.5</ele>
        <time>2013-08-10T09:27:43Z</time>
      </trkpt>
      <trkpt lat="42.401895" lon="1.950044">
        <ele>1254.4</ele>
        <time>2013-08-10T09:27:52Z</time>
      </trkpt>
      <trkpt lat="42.401778" lon="1.950158">
        <ele>1255.9</ele>
        <time>2013-08-10T09:28:05Z</time>
      </trkpt>
      <trkpt lat="42.401678" lon="1.950254">
        <ele>1258.2</ele>
        <time>2013-08-10T09:28:17Z</time>
      </trkpt>
      <trkpt lat="42.401601" lon="1.950350">
        <ele>1259.9</ele>
        <time>2013-08-10T09:28:28Z</time>
      </trkpt>
      <trkpt lat="42.401592" lon="1.950356">
        <ele>1260.2</ele>
        <time>2013-08-10T09:28:29Z</time>
      </trkpt>
      <trkpt lat="42.401519" lon="1.950448">
        <ele>1261.9</ele>
        <time>2013-08-10T09:28:42Z</time>
      </trkpt>
      <trkpt lat="42.401480" lon="1.950544">
        <ele>1263.7</ele>
        <time>2013-08-10T09:28:55Z</time>
      </trkpt>
      <trkpt lat="42.401439" lon="1.950680">
        <ele>1267.2</ele>
        <time>2013-08-10T09:29:07Z</time>
      </trkpt>
      <trkpt lat="42.401416" lon="1.950793">
        <ele>1268.9</ele>
        <time>2013-08-10T09:29:18Z</time>
      </trkpt>
      <trkpt lat="42.401415" lon="1.950807">
        <ele>1269.1</ele>
        <time>2013-08-10T09:29:19Z</time>
      </trkpt>
      <trkpt lat="42.401376" lon="1.950953">
        <ele>1271.3</ele>
        <time>2013-08-10T09:29:31Z</time>
      </trkpt>
      <trkpt lat="42.401305" lon="1.951042">
        <ele>1272.7</ele>
        <time>2013-08-10T09:29:43Z</time>
      </trkpt>
      <trkpt lat="42.401225" lon="1.951096">
        <ele>1275.2</ele>
        <time>2013-08-10T09:29:55Z</time>
      </trkpt>
      <trkpt lat="42.401152" lon="1.951140">
        <ele>1277.2</ele>
        <time>2013-08-10T09:30:06Z</time>
      </trkpt>
      <trkpt lat="42.401099" lon="1.951214">
        <ele>1278.2</ele>
        <time>2013-08-10T09:30:16Z</time>
      </trkpt>
      <trkpt lat="42.401065" lon="1.951306">
        <ele>1279.4</ele>
        <time>2013-08-10T09:30:24Z</time>
      </trkpt>
      <trkpt lat="42.401024" lon="1.951547">
        <ele>1281.6</ele>
        <time>2013-08-10T09:30:39Z</time>
      </trkpt>
      <trkpt lat="42.401017" lon="1.951723">
        <ele>1283.0</ele>
        <time>2013-08-10T09:30:51Z</time>
      </trkpt>
      <trkpt lat="42.401020" lon="1.951832">
        <ele>1283.8</ele>
        <time>2013-08-10T09:30:57Z</time>
      </trkpt>
      <trkpt lat="42.401029" lon="1.952040">
        <ele>1285.3</ele>
        <time>2013-08-10T09:31:11Z</time>
      </trkpt>
      <trkpt lat="42.401037" lon="1.952081">
        <ele>1285.7</ele>
        <time>2013-08-10T09:31:14Z</time>
      </trkpt>
      <trkpt lat="42.401057" lon="1.952198">
        <ele>1286.9</ele>
        <time>2013-08-10T09:31:22Z</time>
      </trkpt>
      <trkpt lat="42.401082" lon="1.952348">
        <ele>1287.9</ele>
        <time>2013-08-10T09:31:33Z</time>
      </trkpt>
      <trkpt lat="42.401095" lon="1.952409">
        <ele>1288.6</ele>
        <time>2013-08-10T09:31:38Z</time>
      </trkpt>
      <trkpt lat="42.401074" lon="1.952611">
        <ele>1291.0</ele>
        <time>2013-08-10T09:31:52Z</time>
      </trkpt>
      <trkpt lat="42.401059" lon="1.952715">
        <ele>1292.3</ele>
        <time>2013-08-10T09:31:59Z</time>
      </trkpt>
      <trkpt lat="42.401036" lon="1.952823">
        <ele>1293.2</ele>
        <time>2013-08-10T09:32:07Z</time>
      </trkpt>
      <trkpt lat="42.401012" lon="1.952885">
        <ele>1293.9</ele>
        <time>2013-08-10T09:32:12Z</time>
      </trkpt>
      <trkpt lat="42.400993" lon="1.952951">
        <ele>1294.4</ele>
        <time>2013-08-10T09:32:17Z</time>
      </trkpt>
      <trkpt lat="42.400936" lon="1.953148">
        <ele>1296.3</ele>
        <time>2013-08-10T09:32:31Z</time>
      </trkpt>
      <trkpt lat="42.400881" lon="1.953327">
        <ele>1297.7</ele>
        <time>2013-08-10T09:32:45Z</time>
      </trkpt>
      <trkpt lat="42.400815" lon="1.953511">
        <ele>1299.6</ele>
        <time>2013-08-10T09:32:58Z</time>
      </trkpt>
      <trkpt lat="42.400762" lon="1.953689">
        <ele>1301.7</ele>
        <time>2013-08-10T09:33:11Z</time>
      </trkpt>
      <trkpt lat="42.400719" lon="1.953919">
        <ele>1304.1</ele>
        <time>2013-08-10T09:33:26Z</time>
      </trkpt>
      <trkpt lat="42.400713" lon="1.954072">
        <ele>1305.9</ele>
        <time>2013-08-10T09:33:39Z</time>
      </trkpt>
      <trkpt lat="42.400700" lon="1.954245">
        <ele>1307.7</ele>
        <time>2013-08-10T09:33:51Z</time>
      </trkpt>
      <trkpt lat="42.400677" lon="1.954420">
        <ele>1310.2</ele>
        <time>2013-08-10T09:34:03Z</time>
      </trkpt>
      <trkpt lat="42.400611" lon="1.954599">
        <ele>1312.6</ele>
        <time>2013-08-10T09:34:16Z</time>
      </trkpt>
      <trkpt lat="42.400566" lon="1.954691">
        <ele>1313.6</ele>
        <time>2013-08-10T09:34:24Z</time>
      </trkpt>
      <trkpt lat="42.400508" lon="1.954866">
        <ele>1315.9</ele>
        <time>2013-08-10T09:34:38Z</time>
      </trkpt>
      <trkpt lat="42.400505" lon="1.954877">
        <ele>1316.1</ele>
        <time>2013-08-10T09:34:39Z</time>
      </trkpt>
      <trkpt lat="42.400473" lon="1.955009">
        <ele>1317.9</ele>
        <time>2013-08-10T09:34:51Z</time>
      </trkpt>
      <trkpt lat="42.400460" lon="1.955173">
        <ele>1321.0</ele>
        <time>2013-08-10T09:35:03Z</time>
      </trkpt>
      <trkpt lat="42.400459" lon="1.955230">
        <ele>1321.8</ele>
        <time>2013-08-10T09:35:07Z</time>
      </trkpt>
      <trkpt lat="42.400479" lon="1.955454">
        <ele>1324.0</ele>
        <time>2013-08-10T09:35:22Z</time>
      </trkpt>
      <trkpt lat="42.400531" lon="1.955679">
        <ele>1325.6</ele>
        <time>2013-08-10T09:35:36Z</time>
      </trkpt>
      <trkpt lat="42.400543" lon="1.955705">
        <ele>1325.8</ele>
        <time>2013-08-10T09:35:38Z</time>
      </trkpt>
      <trkpt lat="42.400616" lon="1.955882">
        <ele>1328.0</ele>
        <time>2013-08-10T09:35:50Z</time>
      </trkpt>
      <trkpt lat="42.400639" lon="1.955949">
        <ele>1328.7</ele>
        <time>2013-08-10T09:35:56Z</time>
      </trkpt>
      <trkpt lat="42.400650" lon="1.956148">
        <ele>1330.6</ele>
        <time>2013-08-10T09:36:10Z</time>
      </trkpt>
      <trkpt lat="42.400606" lon="1.956307">
        <ele>1332.2</ele>
        <time>2013-08-10T09:36:23Z</time>
      </trkpt>
      <trkpt lat="42.400576" lon="1.956373">
        <ele>1332.8</ele>
        <time>2013-08-10T09:36:29Z</time>
      </trkpt>
      <trkpt lat="42.400530" lon="1.956446">
        <ele>1333.9</ele>
        <time>2013-08-10T09:36:37Z</time>
      </trkpt>
      <trkpt lat="42.400428" lon="1.956543">
        <ele>1336.2</ele>
        <time>2013-08-10T09:36:50Z</time>
      </trkpt>
      <trkpt lat="42.400320" lon="1.956609">
        <ele>1338.5</ele>
        <time>2013-08-10T09:37:03Z</time>
      </trkpt>
      <trkpt lat="42.400282" lon="1.956630">
        <ele>1339.3</ele>
        <time>2013-08-10T09:37:08Z</time>
      </trkpt>
      <trkpt lat="42.400242" lon="1.956637">
        <ele>1340.1</ele>
        <time>2013-08-10T09:37:12Z</time>
      </trkpt>
      <trkpt lat="42.400164" lon="1.956680">
        <ele>1341.4</ele>
        <time>2013-08-10T09:37:20Z</time>
      </trkpt>
      <trkpt lat="42.400029" lon="1.956726">
        <ele>1343.5</ele>
        <time>2013-08-10T09:37:33Z</time>
      </trkpt>
      <trkpt lat="42.399882" lon="1.956757">
        <ele>1345.7</ele>
        <time>2013-08-10T09:37:47Z</time>
      </trkpt>
      <trkpt lat="42.399743" lon="1.956702">
        <ele>1347.9</ele>
        <time>2013-08-10T09:38:00Z</time>
      </trkpt>
      <trkpt lat="42.399634" lon="1.956599">
        <ele>1349.6</ele>
        <time>2013-08-10T09:38:13Z</time>
      </trkpt>
      <trkpt lat="42.399538" lon="1.956473">
        <ele>1351.0</ele>
        <time>2013-08-10T09:38:25Z</time>
      </trkpt>
      <trkpt lat="42.399430" lon="1.956323">
        <ele>1352.6</ele>
        <time>2013-08-10T09:38:38Z</time>
      </trkpt>
      <trkpt lat="42.399299" lon="1.956174">
        <ele>1353.8</ele>
        <time>2013-08-10T09:38:52Z</time>
      </trkpt>
      <trkpt lat="42.399220" lon="1.956144">
        <ele>1354.0</ele>
        <time>2013-08-10T09:38:59Z</time>
      </trkpt>
      <trkpt lat="42.399003" lon="1.956215">
        <ele>1354.3</ele>
        <time>2013-08-10T09:39:14Z</time>
      </trkpt>
      <trkpt lat="42.398854" lon="1.956293">
        <ele>1354.1</ele>
        <time>2013-08-10T09:39:27Z</time>
      </trkpt>
      <trkpt lat="42.398693" lon="1.956398">
        <ele>1354.8</ele>
        <time>2013-08-10T09:39:42Z</time>
      </trkpt>
      <trkpt lat="42.398554" lon="1.956465">
        <ele>1355.8</ele>
        <time>2013-08-10T09:39:54Z</time>
      </trkpt>
      <trkpt lat="42.398368" lon="1.956475">
        <ele>1358.4</ele>
        <time>2013-08-10T09:40:08Z</time>
      </trkpt>
      <trkpt lat="42.398295" lon="1.956486">
        <ele>1358.9</ele>
        <time>2013-08-10T09:40:14Z</time>
      </trkpt>
      <trkpt lat="42.398105" lon="1.956498">
        <ele>1360.2</ele>
        <time>2013-08-10T09:40:29Z</time>
      </trkpt>
      <trkpt lat="42.397951" lon="1.956494">
        <ele>1360.9</ele>
        <time>2013-08-10T09:40:42Z</time>
      </trkpt>
      <trkpt lat="42.397776" lon="1.956491">
        <ele>1362.5</ele>
        <time>2013-08-10T09:40:56Z</time>
      </trkpt>
      <trkpt lat="42.397617" lon="1.956470">
        <ele>1364.1</ele>
        <time>2013-08-10T09:41:08Z</time>
      </trkpt>
      <trkpt lat="42.397563" lon="1.956470">
        <ele>1364.6</ele>
        <time>2013-08-10T09:41:12Z</time>
      </trkpt>
      <trkpt lat="42.397393" lon="1.956567">
        <ele>1366.1</ele>
        <time>2013-08-10T09:41:28Z</time>
      </trkpt>
      <trkpt lat="42.397369" lon="1.956592">
        <ele>1366.6</ele>
        <time>2013-08-10T09:41:31Z</time>
      </trkpt>
      <trkpt lat="42.397266" lon="1.956678">
        <ele>1368.4</ele>
        <time>2013-08-10T09:41:43Z</time>
      </trkpt>
      <trkpt lat="42.397172" lon="1.956734">
        <ele>1370.0</ele>
        <time>2013-08-10T09:41:54Z</time>
      </trkpt>
      <trkpt lat="42.397125" lon="1.956766">
        <ele>1371.4</ele>
        <time>2013-08-10T09:41:59Z</time>
      </trkpt>
      <trkpt lat="42.397018" lon="1.956743">
        <ele>1373.5</ele>
        <time>2013-08-10T09:42:10Z</time>
      </trkpt>
      <trkpt lat="42.396916" lon="1.956734">
        <ele>1376.1</ele>
        <time>2013-08-10T09:42:21Z</time>
      </trkpt>
      <trkpt lat="42.396801" lon="1.956772">
        <ele>1378.6</ele>
        <time>2013-08-10T09:42:33Z</time>
      </trkpt>
      <trkpt lat="42.396685" lon="1.956881">
        <ele>1381.2</ele>
        <time>2013-08-10T09:42:47Z</time>
      </trkpt>
      <trkpt lat="42.396587" lon="1.956999">
        <ele>1383.2</ele>
        <time>2013-08-10T09:43:00Z</time>
      </trkpt>
      <trkpt lat="42.396468" lon="1.957077">
        <ele>1385.2</ele>
        <time>2013-08-10T09:43:13Z</time>
      </trkpt>
      <trkpt lat="42.396352" lon="1.957098">
        <ele>1387.1</ele>
        <time>2013-08-10T09:43:25Z</time>
      </trkpt>
      <trkpt lat="42.396269" lon="1.957106">
        <ele>1387.5</ele>
        <time>2013-08-10T09:43:31Z</time>
      </trkpt>
      <trkpt lat="42.396127" lon="1.957188">
        <ele>1387.9</ele>
        <time>2013-08-10T09:43:45Z</time>
      </trkpt>
      <trkpt lat="42.395970" lon="1.957323">
        <ele>1389.1</ele>
        <time>2013-08-10T09:43:58Z</time>
      </trkpt>
      <trkpt lat="42.395812" lon="1.957359">
        <ele>1390.0</ele>
        <time>2013-08-10T09:44:10Z</time>
      </trkpt>
      <trkpt lat="42.395668" lon="1.957387">
        <ele>1391.0</ele>
        <time>2013-08-10T09:44:23Z</time>
      </trkpt>
      <trkpt lat="42.395488" lon="1.957404">
        <ele>1392.1</ele>
        <time>2013-08-10T09:44:37Z</time>
      </trkpt>
      <trkpt lat="42.395357" lon="1.957404">
        <ele>1393.3</ele>
        <time>2013-08-10T09:44:48Z</time>
      </trkpt>
      <trkpt lat="42.395218" lon="1.957393">
        <ele>1395.0</ele>
        <time>2013-08-10T09:45:00Z</time>
      </trkpt>
      <trkpt lat="42.395193" lon="1.957387">
        <ele>1395.3</ele>
        <time>2013-08-10T09:45:02Z</time>
      </trkpt>
      <trkpt lat="42.395039" lon="1.957331">
        <ele>1397.6</ele>
        <time>2013-08-10T09:45:15Z</time>
      </trkpt>
      <trkpt lat="42.394915" lon="1.957294">
        <ele>1398.9</ele>
        <time>2013-08-10T09:45:27Z</time>
      </trkpt>
      <trkpt lat="42.394752" lon="1.957286">
        <ele>1400.9</ele>
        <time>2013-08-10T09:45:40Z</time>
      </trkpt>
      <trkpt lat="42.394732" lon="1.957291">
        <ele>1401.2</ele>
        <time>2013-08-10T09:45:42Z</time>
      </trkpt>
      <trkpt lat="42.394590" lon="1.957317">
        <ele>1403.6</ele>
        <time>2013-08-10T09:45:56Z</time>
      </trkpt>
      <trkpt lat="42.394439" lon="1.957368">
        <ele>1406.5</ele>
        <time>2013-08-10T09:46:09Z</time>
      </trkpt>
      <trkpt lat="42.394330" lon="1.957462">
        <ele>1407.5</ele>
        <time>2013-08-10T09:46:21Z</time>
      </trkpt>
      <trkpt lat="42.394299" lon="1.957509">
        <ele>1408.0</ele>
        <time>2013-08-10T09:46:25Z</time>
      </trkpt>
      <trkpt lat="42.394194" lon="1.957664">
        <ele>1410.5</ele>
        <time>2013-08-10T09:46:39Z</time>
      </trkpt>
      <trkpt lat="42.394062" lon="1.957768">
        <ele>1412.1</ele>
        <time>2013-08-10T09:46:51Z</time>
      </trkpt>
      <trkpt lat="42.393922" lon="1.957832">
        <ele>1413.8</ele>
        <time>2013-08-10T09:47:04Z</time>
      </trkpt>
      <trkpt lat="42.393801" lon="1.957857">
        <ele>1415.2</ele>
        <time>2013-08-10T09:47:16Z</time>
      </trkpt>
      <trkpt lat="42.393781" lon="1.957855">
        <ele>1415.4</ele>
        <time>2013-08-10T09:47:18Z</time>
      </trkpt>
      <trkpt lat="42.393678" lon="1.957861">
        <ele>1416.6</ele>
        <time>2013-08-10T09:47:29Z</time>
      </trkpt>
      <trkpt lat="42.393524" lon="1.957856">
        <ele>1419.6</ele>
        <time>2013-08-10T09:47:43Z</time>
      </trkpt>
      <trkpt lat="42.393408" lon="1.957881">
        <ele>1421.8</ele>
        <time>2013-08-10T09:47:55Z</time>
      </trkpt>
      <trkpt lat="42.393390" lon="1.957877">
        <ele>1422.2</ele>
        <time>2013-08-10T09:47:57Z</time>
      </trkpt>
      <trkpt lat="42.393317" lon="1.957845">
        <ele>1424.2</ele>
        <time>2013-08-10T09:48:05Z</time>
      </trkpt>
      <trkpt lat="42.393288" lon="1.957848">
        <ele>1424.6</ele>
        <time>2013-08-10T09:48:08Z</time>
      </trkpt>
      <trkpt lat="42.393162" lon="1.957857">
        <ele>1427.5</ele>
        <time>2013-08-10T09:48:22Z</time>
      </trkpt>
      <trkpt lat="42.393062" lon="1.957868">
        <ele>1429.1</ele>
        <time>2013-08-10T09:48:31Z</time>
      </trkpt>
      <trkpt lat="42.392887" lon="1.957896">
        <ele>1430.4</ele>
        <time>2013-08-10T09:48:46Z</time>
      </trkpt>
      <trkpt lat="42.392731" lon="1.957926">
        <ele>1431.9</ele>
        <time>2013-08-10T09:49:00Z</time>
      </trkpt>
      <trkpt lat="42.392693" lon="1.957947">
        <ele>1432.5</ele>
        <time>2013-08-10T09:49:05Z</time>
      </trkpt>
      <trkpt lat="42.392541" lon="1.957993">
        <ele>1435.1</ele>
        <time>2013-08-10T09:49:20Z</time>
      </trkpt>
      <trkpt lat="42.392430" lon="1.958025">
        <ele>1437.3</ele>
        <time>2013-08-10T09:49:33Z</time>
      </trkpt>
      <trkpt lat="42.392331" lon="1.958043">
        <ele>1440.0</ele>
        <time>2013-08-10T09:49:45Z</time>
      </trkpt>
      <trkpt lat="42.392324" lon="1.958051">
        <ele>1440.3</ele>
        <time>2013-08-10T09:49:46Z</time>
      </trkpt>
      <trkpt lat="42.392242" lon="1.958209">
        <ele>1443.5</ele>
        <time>2013-08-10T09:49:59Z</time>
      </trkpt>
      <trkpt lat="42.392232" lon="1.958228">
        <ele>1443.9</ele>
        <time>2013-08-10T09:50:01Z</time>
      </trkpt>
      <trkpt lat="42.392204" lon="1.958266">
        <ele>1444.8</ele>
        <time>2013-08-10T09:50:05Z</time>
      </trkpt>
      <trkpt lat="42.392085" lon="1.958323">
        <ele>1447.3</ele>
        <time>2013-08-10T09:50:18Z</time>
      </trkpt>
      <trkpt lat="42.391972" lon="1.958345">
        <ele>1449.4</ele>
        <time>2013-08-10T09:50:29Z</time>
      </trkpt>
      <trkpt lat="42.391848" lon="1.958349">
        <ele>1451.8</ele>
        <time>2013-08-10T09:50:41Z</time>
      </trkpt>
      <trkpt lat="42.391723" lon="1.958375">
        <ele>1453.7</ele>
        <time>2013-08-10T09:50:54Z</time>
      </trkpt>
      <trkpt lat="42.391703" lon="1.958378">
        <ele>1454.0</ele>
        <time>2013-08-10T09:50:56Z</time>
      </trkpt>
      <trkpt lat="42.391566" lon="1.958404">
        <ele>1456.3</ele>
        <time>2013-08-10T09:51:10Z</time>
      </trkpt>
      <trkpt lat="42.391452" lon="1.958454">
        <ele>1458.5</ele>
        <time>2013-08-10T09:51:22Z</time>
      </trkpt>
      <trkpt lat="42.391324" lon="1.958494">
        <ele>1461.1</ele>
        <time>2013-08-10T09:51:36Z</time>
      </trkpt>
      <trkpt lat="42.391298" lon="1.958492">
        <ele>1461.7</ele>
        <time>2013-08-10T09:51:39Z</time>
      </trkpt>
      <trkpt lat="42.391236" lon="1.958508">
        <ele>1463.0</ele>
        <time>2013-08-10T09:51:45Z</time>
      </trkpt>
      <trkpt lat="42.391164" lon="1.958529">
        <ele>1464.4</ele>
        <time>2013-08-10T09:51:53Z</time>
      </trkpt>
      <trkpt lat="42.391106" lon="1.958562">
        <ele>1465.7</ele>
        <time>2013-08-10T09:52:00Z</time>
      </trkpt>
      <trkpt lat="42.390993" lon="1.958591">
        <ele>1468.4</ele>
        <time>2013-08-10T09:52:14Z</time>
      </trkpt>
      <trkpt lat="42.390959" lon="1.958606">
        <ele>1469.2</ele>
        <time>2013-08-10T09:52:18Z</time>
      </trkpt>
      <trkpt lat="42.390828" lon="1.958655">
        <ele>1472.2</ele>
        <time>2013-08-10T09:52:32Z</time>
      </trkpt>
      <trkpt lat="42.390698" lon="1.958651">
        <ele>1474.8</ele>
        <time>2013-08-10T09:52:44Z</time>
      </trkpt>
      <trkpt lat="42.390680" lon="1.958657">
        <ele>1475.0</ele>
        <time>2013-08-10T09:52:46Z</time>
      </trkpt>
      <trkpt lat="42.390537" lon="1.958728">
        <ele>1476.2</ele>
        <time>2013-08-10T09:52:59Z</time>
      </trkpt>
      <trkpt lat="42.390388" lon="1.958824">
        <ele>1478.6</ele>
        <time>2013-08-10T09:53:14Z</time>
      </trkpt>
      <trkpt lat="42.390356" lon="1.958872">
        <ele>1479.3</ele>
        <time>2013-08-10T09:53:18Z</time>
      </trkpt>
      <trkpt lat="42.390249" lon="1.959009">
        <ele>1481.1</ele>
        <time>2013-08-10T09:53:30Z</time>
      </trkpt>
      <trkpt lat="42.390102" lon="1.959174">
        <ele>1482.5</ele>
        <time>2013-08-10T09:53:45Z</time>
      </trkpt>
      <trkpt lat="42.389980" lon="1.959314">
        <ele>1484.1</ele>
        <time>2013-08-10T09:53:59Z</time>
      </trkpt>
      <trkpt lat="42.389855" lon="1.959409">
        <ele>1486.2</ele>
        <time>2013-08-10T09:54:10Z</time>
      </trkpt>
      <trkpt lat="42.389710" lon="1.959529">
        <ele>1487.9</ele>
        <time>2013-08-10T09:54:25Z</time>
      </trkpt>
      <trkpt lat="42.389584" lon="1.959564">
        <ele>1489.5</ele>
        <time>2013-08-10T09:54:36Z</time>
      </trkpt>
      <trkpt lat="42.389454" lon="1.959632">
        <ele>1491.2</ele>
        <time>2013-08-10T09:54:48Z</time>
      </trkpt>
      <trkpt lat="42.389394" lon="1.959643">
        <ele>1492.1</ele>
        <time>2013-08-10T09:54:54Z</time>
      </trkpt>
      <trkpt lat="42.389351" lon="1.959642">
        <ele>1492.7</ele>
        <time>2013-08-10T09:54:58Z</time>
      </trkpt>
      <trkpt lat="42.389200" lon="1.959617">
        <ele>1495.3</ele>
        <time>2013-08-10T09:55:11Z</time>
      </trkpt>
      <trkpt lat="42.389040" lon="1.959623">
        <ele>1496.5</ele>
        <time>2013-08-10T09:55:24Z</time>
      </trkpt>
      <trkpt lat="42.388974" lon="1.959643">
        <ele>1497.6</ele>
        <time>2013-08-10T09:55:31Z</time>
      </trkpt>
      <trkpt lat="42.388919" lon="1.959630">
        <ele>1497.8</ele>
        <time>2013-08-10T09:55:35Z</time>
      </trkpt>
      <trkpt lat="42.388808" lon="1.959664">
        <ele>1499.2</ele>
        <time>2013-08-10T09:55:45Z</time>
      </trkpt>
      <trkpt lat="42.388668" lon="1.959678">
        <ele>1500.9</ele>
        <time>2013-08-10T09:55:57Z</time>
      </trkpt>
      <trkpt lat="42.388498" lon="1.959678">
        <ele>1502.7</ele>
        <time>2013-08-10T09:56:11Z</time>
      </trkpt>
      <trkpt lat="42.388378" lon="1.959691">
        <ele>1504.3</ele>
        <time>2013-08-10T09:56:22Z</time>
      </trkpt>
      <trkpt lat="42.388337" lon="1.959697">
        <ele>1505.1</ele>
        <time>2013-08-10T09:56:26Z</time>
      </trkpt>
      <trkpt lat="42.388144" lon="1.959666">
        <ele>1507.2</ele>
        <time>2013-08-10T09:56:41Z</time>
      </trkpt>
      <trkpt lat="42.388048" lon="1.959643">
        <ele>1508.4</ele>
        <time>2013-08-10T09:56:49Z</time>
      </trkpt>
      <trkpt lat="42.387883" lon="1.959640">
        <ele>1510.4</ele>
        <time>2013-08-10T09:57:02Z</time>
      </trkpt>
      <trkpt lat="42.387734" lon="1.959628">
        <ele>1512.0</ele>
        <time>2013-08-10T09:57:15Z</time>
      </trkpt>
      <trkpt lat="42.387725" lon="1.959626">
        <ele>1512.0</ele>
        <time>2013-08-10T09:57:16Z</time>
      </trkpt>
      <trkpt lat="42.387616" lon="1.959584">
        <ele>1513.1</ele>
        <time>2013-08-10T09:57:25Z</time>
      </trkpt>
      <trkpt lat="42.387460" lon="1.959556">
        <ele>1515.2</ele>
        <time>2013-08-10T09:57:38Z</time>
      </trkpt>
      <trkpt lat="42.387414" lon="1.959535">
        <ele>1515.6</ele>
        <time>2013-08-10T09:57:43Z</time>
      </trkpt>
      <trkpt lat="42.387379" lon="1.959534">
        <ele>1516.3</ele>
        <time>2013-08-10T09:57:47Z</time>
      </trkpt>
      <trkpt lat="42.387322" lon="1.959515">
        <ele>1516.6</ele>
        <time>2013-08-10T09:57:52Z</time>
      </trkpt>
      <trkpt lat="42.387264" lon="1.959499">
        <ele>1517.0</ele>
        <time>2013-08-10T09:57:56Z</time>
      </trkpt>
      <trkpt lat="42.387131" lon="1.959479">
        <ele>1519.2</ele>
        <time>2013-08-10T09:58:07Z</time>
      </trkpt>
      <trkpt lat="42.387089" lon="1.959488">
        <ele>1520.4</ele>
        <time>2013-08-10T09:58:11Z</time>
      </trkpt>
      <trkpt lat="42.386962" lon="1.959477">
        <ele>1521.7</ele>
        <time>2013-08-10T09:58:22Z</time>
      </trkpt>
      <trkpt lat="42.386917" lon="1.959478">
        <ele>1522.4</ele>
        <time>2013-08-10T09:58:26Z</time>
      </trkpt>
      <trkpt lat="42.386890" lon="1.959484">
        <ele>1522.8</ele>
        <time>2013-08-10T09:58:29Z</time>
      </trkpt>
      <trkpt lat="42.386861" lon="1.959484">
        <ele>1523.1</ele>
        <time>2013-08-10T09:58:32Z</time>
      </trkpt>
      <trkpt lat="42.386734" lon="1.959459">
        <ele>1524.8</ele>
        <time>2013-08-10T09:58:43Z</time>
      </trkpt>
      <trkpt lat="42.386571" lon="1.959426">
        <ele>1527.2</ele>
        <time>2013-08-10T09:58:56Z</time>
      </trkpt>
      <trkpt lat="42.386398" lon="1.959370">
        <ele>1528.6</ele>
        <time>2013-08-10T09:59:10Z</time>
      </trkpt>
      <trkpt lat="42.386275" lon="1.959340">
        <ele>1530.0</ele>
        <time>2013-08-10T09:59:21Z</time>
      </trkpt>
      <trkpt lat="42.386143" lon="1.959283">
        <ele>1531.3</ele>
        <time>2013-08-10T09:59:33Z</time>
      </trkpt>
      <trkpt lat="42.386104" lon="1.959282">
        <ele>1532.6</ele>
        <time>2013-08-10T09:59:36Z</time>
      </trkpt>
      <trkpt lat="42.386056" lon="1.959263">
        <ele>1533.6</ele>
        <time>2013-08-10T09:59:40Z</time>
      </trkpt>
      <trkpt lat="42.385980" lon="1.959216">
        <ele>1534.2</ele>
        <time>2013-08-10T09:59:47Z</time>
      </trkpt>
      <trkpt lat="42.385943" lon="1.959200">
        <ele>1535.1</ele>
        <time>2013-08-10T09:59:51Z</time>
      </trkpt>
      <trkpt lat="42.385894" lon="1.959173">
        <ele>1535.7</ele>
        <time>2013-08-10T09:59:56Z</time>
      </trkpt>
      <trkpt lat="42.385831" lon="1.959163">
        <ele>1537.0</ele>
        <time>2013-08-10T10:00:03Z</time>
      </trkpt>
      <trkpt lat="42.385757" lon="1.959130">
        <ele>1538.0</ele>
        <time>2013-08-10T10:00:09Z</time>
      </trkpt>
      <trkpt lat="42.385631" lon="1.959104">
        <ele>1540.0</ele>
        <time>2013-08-10T10:00:22Z</time>
      </trkpt>
      <trkpt lat="42.385556" lon="1.959101">
        <ele>1542.2</ele>
        <time>2013-08-10T10:00:34Z</time>
      </trkpt>
      <trkpt lat="42.385533" lon="1.959090">
        <ele>1542.5</ele>
        <time>2013-08-10T10:00:36Z</time>
      </trkpt>
      <trkpt lat="42.385504" lon="1.959078">
        <ele>1542.9</ele>
        <time>2013-08-10T10:00:38Z</time>
      </trkpt>
      <trkpt lat="42.385426" lon="1.959073">
        <ele>1544.9</ele>
        <time>2013-08-10T10:00:46Z</time>
      </trkpt>
      <trkpt lat="42.385388" lon="1.959068">
        <ele>1545.7</ele>
        <time>2013-08-10T10:00:50Z</time>
      </trkpt>
      <trkpt lat="42.385310" lon="1.959058">
        <ele>1547.2</ele>
        <time>2013-08-10T10:00:57Z</time>
      </trkpt>
      <trkpt lat="42.385244" lon="1.959047">
        <ele>1548.5</ele>
        <time>2013-08-10T10:01:04Z</time>
      </trkpt>
      <trkpt lat="42.385090" lon="1.959040">
        <ele>1551.4</ele>
        <time>2013-08-10T10:01:17Z</time>
      </trkpt>
      <trkpt lat="42.384977" lon="1.959020">
        <ele>1553.2</ele>
        <time>2013-08-10T10:01:27Z</time>
      </trkpt>
      <trkpt lat="42.384841" lon="1.959037">
        <ele>1555.3</ele>
        <time>2013-08-10T10:01:40Z</time>
      </trkpt>
      <trkpt lat="42.384787" lon="1.959050">
        <ele>1556.1</ele>
        <time>2013-08-10T10:01:46Z</time>
      </trkpt>
      <trkpt lat="42.384691" lon="1.959064">
        <ele>1557.6</ele>
        <time>2013-08-10T10:01:55Z</time>
      </trkpt>
      <trkpt lat="42.384635" lon="1.959073">
        <ele>1558.7</ele>
        <time>2013-08-10T10:02:00Z</time>
      </trkpt>
      <trkpt lat="42.384502" lon="1.959056">
        <ele>1560.4</ele>
        <time>2013-08-10T10:02:13Z</time>
      </trkpt>
      <trkpt lat="42.384398" lon="1.959038">
        <ele>1562.4</ele>
        <time>2013-08-10T10:02:23Z</time>
      </trkpt>
      <trkpt lat="42.384347" lon="1.959025">
        <ele>1562.3</ele>
        <time>2013-08-10T10:02:28Z</time>
      </trkpt>
      <trkpt lat="42.384296" lon="1.959032">
        <ele>1563.2</ele>
        <time>2013-08-10T10:02:33Z</time>
      </trkpt>
      <trkpt lat="42.384176" lon="1.959076">
        <ele>1566.2</ele>
        <time>2013-08-10T10:02:46Z</time>
      </trkpt>
      <trkpt lat="42.384062" lon="1.959036">
        <ele>1567.4</ele>
        <time>2013-08-10T10:02:56Z</time>
      </trkpt>
      <trkpt lat="42.383884" lon="1.958983">
        <ele>1568.9</ele>
        <time>2013-08-10T10:03:10Z</time>
      </trkpt>
      <trkpt lat="42.383826" lon="1.958986">
        <ele>1569.4</ele>
        <time>2013-08-10T10:03:15Z</time>
      </trkpt>
      <trkpt lat="42.383759" lon="1.958966">
        <ele>1568.7</ele>
        <time>2013-08-10T10:03:20Z</time>
      </trkpt>
      <trkpt lat="42.383715" lon="1.958982">
        <ele>1569.3</ele>
        <time>2013-08-10T10:03:23Z</time>
      </trkpt>
      <trkpt lat="42.383673" lon="1.958992">
        <ele>1569.7</ele>
        <time>2013-08-10T10:03:27Z</time>
      </trkpt>
      <trkpt lat="42.383517" lon="1.959067">
        <ele>1573.2</ele>
        <time>2013-08-10T10:03:40Z</time>
      </trkpt>
      <trkpt lat="42.383481" lon="1.959088">
        <ele>1574.1</ele>
        <time>2013-08-10T10:03:44Z</time>
      </trkpt>
      <trkpt lat="42.383423" lon="1.959111">
        <ele>1575.5</ele>
        <time>2013-08-10T10:03:49Z</time>
      </trkpt>
      <trkpt lat="42.383311" lon="1.959128">
        <ele>1576.5</ele>
        <time>2013-08-10T10:03:58Z</time>
      </trkpt>
      <trkpt lat="42.383150" lon="1.959162">
        <ele>1578.3</ele>
        <time>2013-08-10T10:04:12Z</time>
      </trkpt>
      <trkpt lat="42.383075" lon="1.959188">
        <ele>1579.6</ele>
        <time>2013-08-10T10:04:18Z</time>
      </trkpt>
      <trkpt lat="42.382943" lon="1.959237">
        <ele>1580.6</ele>
        <time>2013-08-10T10:04:28Z</time>
      </trkpt>
      <trkpt lat="42.382901" lon="1.959256">
        <ele>1580.3</ele>
        <time>2013-08-10T10:04:32Z</time>
      </trkpt>
      <trkpt lat="42.382772" lon="1.959316">
        <ele>1581.0</ele>
        <time>2013-08-10T10:04:43Z</time>
      </trkpt>
      <trkpt lat="42.382660" lon="1.959375">
        <ele>1583.6</ele>
        <time>2013-08-10T10:04:55Z</time>
      </trkpt>
      <trkpt lat="42.382624" lon="1.959385">
        <ele>1584.0</ele>
        <time>2013-08-10T10:04:58Z</time>
      </trkpt>
      <trkpt lat="42.382537" lon="1.959409">
        <ele>1584.6</ele>
        <time>2013-08-10T10:05:05Z</time>
      </trkpt>
      <trkpt lat="42.382389" lon="1.959391">
        <ele>1585.6</ele>
        <time>2013-08-10T10:05:17Z</time>
      </trkpt>
      <trkpt lat="42.382246" lon="1.959396">
        <ele>1587.5</ele>
        <time>2013-08-10T10:05:30Z</time>
      </trkpt>
      <trkpt lat="42.382236" lon="1.959395">
        <ele>1587.6</ele>
        <time>2013-08-10T10:05:31Z</time>
      </trkpt>
      <trkpt lat="42.382177" lon="1.959379">
        <ele>1588.1</ele>
        <time>2013-08-10T10:05:36Z</time>
      </trkpt>
      <trkpt lat="42.382062" lon="1.959365">
        <ele>1589.2</ele>
        <time>2013-08-10T10:05:49Z</time>
      </trkpt>
      <trkpt lat="42.382000" lon="1.959365">
        <ele>1590.3</ele>
        <time>2013-08-10T10:05:55Z</time>
      </trkpt>
      <trkpt lat="42.381971" lon="1.959377">
        <ele>1591.4</ele>
        <time>2013-08-10T10:05:58Z</time>
      </trkpt>
      <trkpt lat="42.381865" lon="1.959347">
        <ele>1592.1</ele>
        <time>2013-08-10T10:06:08Z</time>
      </trkpt>
      <trkpt lat="42.381855" lon="1.959345">
        <ele>1592.2</ele>
        <time>2013-08-10T10:06:09Z</time>
      </trkpt>
      <trkpt lat="42.381743" lon="1.959371">
        <ele>1595.1</ele>
        <time>2013-08-10T10:06:21Z</time>
      </trkpt>
      <trkpt lat="42.381595" lon="1.959354">
        <ele>1596.8</ele>
        <time>2013-08-10T10:06:34Z</time>
      </trkpt>
      <trkpt lat="42.381482" lon="1.959363">
        <ele>1597.5</ele>
        <time>2013-08-10T10:06:43Z</time>
      </trkpt>
      <trkpt lat="42.381357" lon="1.959449">
        <ele>1599.5</ele>
        <time>2013-08-10T10:06:54Z</time>
      </trkpt>
      <trkpt lat="42.381338" lon="1.959464">
        <ele>1600.0</ele>
        <time>2013-08-10T10:06:56Z</time>
      </trkpt>
      <trkpt lat="42.381306" lon="1.959489">
        <ele>1601.0</ele>
        <time>2013-08-10T10:06:59Z</time>
      </trkpt>
      <trkpt lat="42.381257" lon="1.959516">
        <ele>1602.0</ele>
        <time>2013-08-10T10:07:04Z</time>
      </trkpt>
      <trkpt lat="42.381209" lon="1.959555">
        <ele>1603.7</ele>
        <time>2013-08-10T10:07:09Z</time>
      </trkpt>
      <trkpt lat="42.381088" lon="1.959609">
        <ele>1606.4</ele>
        <time>2013-08-10T10:07:22Z</time>
      </trkpt>
      <trkpt lat="42.381031" lon="1.959632">
        <ele>1607.6</ele>
        <time>2013-08-10T10:07:27Z</time>
      </trkpt>
      <trkpt lat="42.380959" lon="1.959650">
        <ele>1609.1</ele>
        <time>2013-08-10T10:07:35Z</time>
      </trkpt>
      <trkpt lat="42.380864" lon="1.959724">
        <ele>1611.2</ele>
        <time>2013-08-10T10:07:47Z</time>
      </trkpt>
      <trkpt lat="42.380801" lon="1.959771">
        <ele>1612.9</ele>
        <time>2013-08-10T10:07:58Z</time>
      </trkpt>
      <trkpt lat="42.380731" lon="1.959821">
        <ele>1614.7</ele>
        <time>2013-08-10T10:08:07Z</time>
      </trkpt>
      <trkpt lat="42.380621" lon="1.959874">
        <ele>1617.2</ele>
        <time>2013-08-10T10:08:19Z</time>
      </trkpt>
      <trkpt lat="42.380556" lon="1.959914">
        <ele>1618.6</ele>
        <time>2013-08-10T10:08:26Z</time>
      </trkpt>
      <trkpt lat="42.380472" lon="1.959963">
        <ele>1620.5</ele>
        <time>2013-08-10T10:08:35Z</time>
      </trkpt>
      <trkpt lat="42.380425" lon="1.959979">
        <ele>1621.2</ele>
        <time>2013-08-10T10:08:42Z</time>
      </trkpt>
      <trkpt lat="42.380382" lon="1.960025">
        <ele>1622.2</ele>
        <time>2013-08-10T10:08:48Z</time>
      </trkpt>
      <trkpt lat="42.380275" lon="1.960095">
        <ele>1625.0</ele>
        <time>2013-08-10T10:08:59Z</time>
      </trkpt>
      <trkpt lat="42.380166" lon="1.960162">
        <ele>1628.0</ele>
        <time>2013-08-10T10:09:12Z</time>
      </trkpt>
      <trkpt lat="42.380131" lon="1.960181">
        <ele>1628.9</ele>
        <time>2013-08-10T10:09:17Z</time>
      </trkpt>
      <trkpt lat="42.380035" lon="1.960274">
        <ele>1631.1</ele>
        <time>2013-08-10T10:09:29Z</time>
      </trkpt>
      <trkpt lat="42.379883" lon="1.960353">
        <ele>1632.3</ele>
        <time>2013-08-10T10:09:41Z</time>
      </trkpt>
      <trkpt lat="42.379752" lon="1.960436">
        <ele>1634.8</ele>
        <time>2013-08-10T10:09:53Z</time>
      </trkpt>
      <trkpt lat="42.379727" lon="1.960454">
        <ele>1635.5</ele>
        <time>2013-08-10T10:09:56Z</time>
      </trkpt>
      <trkpt lat="42.379605" lon="1.960465">
        <ele>1636.7</ele>
        <time>2013-08-10T10:10:08Z</time>
      </trkpt>
      <trkpt lat="42.379528" lon="1.960489">
        <ele>1638.5</ele>
        <time>2013-08-10T10:10:19Z</time>
      </trkpt>
      <trkpt lat="42.379460" lon="1.960497">
        <ele>1638.9</ele>
        <time>2013-08-10T10:10:30Z</time>
      </trkpt>
      <trkpt lat="42.379449" lon="1.960521">
        <ele>1639.6</ele>
        <time>2013-08-10T10:14:02Z</time>
      </trkpt>
      <trkpt lat="42.379345" lon="1.960541">
        <ele>1638.8</ele>
        <time>2013-08-10T10:14:13Z</time>
      </trkpt>
      <trkpt lat="42.379317" lon="1.960539">
        <ele>1638.6</ele>
        <time>2013-08-10T10:14:30Z</time>
      </trkpt>
      <trkpt lat="42.379302" lon="1.960533">
        <ele>1638.3</ele>
        <time>2013-08-10T10:14:41Z</time>
      </trkpt>
      <trkpt lat="42.379302" lon="1.960533">
        <ele>1638.3</ele>
        <time>2013-08-10T10:15:04Z</time>
      </trkpt>
      <trkpt lat="42.379199" lon="1.960511">
        <ele>1638.9</ele>
        <time>2013-08-10T10:15:19Z</time>
      </trkpt>
      <trkpt lat="42.379161" lon="1.960534">
        <ele>1639.8</ele>
        <time>2013-08-10T10:15:29Z</time>
      </trkpt>
      <trkpt lat="42.379062" lon="1.960541">
        <ele>1641.3</ele>
        <time>2013-08-10T10:15:40Z</time>
      </trkpt>
      <trkpt lat="42.378975" lon="1.960559">
        <ele>1643.2</ele>
        <time>2013-08-10T10:15:52Z</time>
      </trkpt>
      <trkpt lat="42.378943" lon="1.960577">
        <ele>1642.8</ele>
        <time>2013-08-10T10:15:55Z</time>
      </trkpt>
      <trkpt lat="42.378846" lon="1.960637">
        <ele>1642.9</ele>
        <time>2013-08-10T10:16:08Z</time>
      </trkpt>
      <trkpt lat="42.378846" lon="1.960634">
        <ele>1642.9</ele>
        <time>2013-08-10T10:16:22Z</time>
      </trkpt>
      <trkpt lat="42.378846" lon="1.960634">
        <ele>1642.9</ele>
        <time>2013-08-10T10:16:36Z</time>
      </trkpt>
      <trkpt lat="42.378791" lon="1.960630">
        <ele>1643.2</ele>
        <time>2013-08-10T10:16:51Z</time>
      </trkpt>
      <trkpt lat="42.378676" lon="1.960666">
        <ele>1643.8</ele>
        <time>2013-08-10T10:17:03Z</time>
      </trkpt>
      <trkpt lat="42.378596" lon="1.960692">
        <ele>1646.0</ele>
        <time>2013-08-10T10:17:10Z</time>
      </trkpt>
      <trkpt lat="42.378556" lon="1.960708">
        <ele>1646.8</ele>
        <time>2013-08-10T10:17:13Z</time>
      </trkpt>
      <trkpt lat="42.378458" lon="1.960810">
        <ele>1647.4</ele>
        <time>2013-08-10T10:17:22Z</time>
      </trkpt>
      <trkpt lat="42.378424" lon="1.960844">
        <ele>1647.4</ele>
        <time>2013-08-10T10:17:26Z</time>
      </trkpt>
      <trkpt lat="42.378398" lon="1.960875">
        <ele>1647.5</ele>
        <time>2013-08-10T10:17:34Z</time>
      </trkpt>
      <trkpt lat="42.378279" lon="1.960964">
        <ele>1649.3</ele>
        <time>2013-08-10T10:17:44Z</time>
      </trkpt>
      <trkpt lat="42.378168" lon="1.961067">
        <ele>1651.2</ele>
        <time>2013-08-10T10:17:57Z</time>
      </trkpt>
      <trkpt lat="42.378149" lon="1.961102">
        <ele>1651.5</ele>
        <time>2013-08-10T10:18:00Z</time>
      </trkpt>
      <trkpt lat="42.378086" lon="1.961167">
        <ele>1652.4</ele>
        <time>2013-08-10T10:18:07Z</time>
      </trkpt>
      <trkpt lat="42.378037" lon="1.961231">
        <ele>1652.7</ele>
        <time>2013-08-10T10:18:12Z</time>
      </trkpt>
      <trkpt lat="42.377907" lon="1.961272">
        <ele>1654.7</ele>
        <time>2013-08-10T10:18:25Z</time>
      </trkpt>
      <trkpt lat="42.377813" lon="1.961262">
        <ele>1656.8</ele>
        <time>2013-08-10T10:18:35Z</time>
      </trkpt>
      <trkpt lat="42.377700" lon="1.961307">
        <ele>1658.1</ele>
        <time>2013-08-10T10:18:47Z</time>
      </trkpt>
      <trkpt lat="42.377580" lon="1.961332">
        <ele>1659.4</ele>
        <time>2013-08-10T10:18:58Z</time>
      </trkpt>
      <trkpt lat="42.377471" lon="1.961356">
        <ele>1660.7</ele>
        <time>2013-08-10T10:19:10Z</time>
      </trkpt>
      <trkpt lat="42.377459" lon="1.961359">
        <ele>1660.7</ele>
        <time>2013-08-10T10:19:19Z</time>
      </trkpt>
      <trkpt lat="42.377416" lon="1.961392">
        <ele>1660.6</ele>
        <time>2013-08-10T10:19:23Z</time>
      </trkpt>
      <trkpt lat="42.377286" lon="1.961482">
        <ele>1662.2</ele>
        <time>2013-08-10T10:19:35Z</time>
      </trkpt>
      <trkpt lat="42.377191" lon="1.961539">
        <ele>1664.3</ele>
        <time>2013-08-10T10:19:46Z</time>
      </trkpt>
      <trkpt lat="42.377100" lon="1.961622">
        <ele>1665.4</ele>
        <time>2013-08-10T10:19:57Z</time>
      </trkpt>
      <trkpt lat="42.376973" lon="1.961703">
        <ele>1667.1</ele>
        <time>2013-08-10T10:20:08Z</time>
      </trkpt>
      <trkpt lat="42.376852" lon="1.961749">
        <ele>1669.2</ele>
        <time>2013-08-10T10:20:18Z</time>
      </trkpt>
      <trkpt lat="42.376729" lon="1.961781">
        <ele>1670.3</ele>
        <time>2013-08-10T10:20:29Z</time>
      </trkpt>
      <trkpt lat="42.376587" lon="1.961797">
        <ele>1672.3</ele>
        <time>2013-08-10T10:20:42Z</time>
      </trkpt>
      <trkpt lat="42.376548" lon="1.961795">
        <ele>1672.8</ele>
        <time>2013-08-10T10:20:47Z</time>
      </trkpt>
      <trkpt lat="42.376520" lon="1.961770">
        <ele>1673.5</ele>
        <time>2013-08-10T10:20:51Z</time>
      </trkpt>
      <trkpt lat="42.376394" lon="1.961798">
        <ele>1674.4</ele>
        <time>2013-08-10T10:21:05Z</time>
      </trkpt>
      <trkpt lat="42.376367" lon="1.961807">
        <ele>1674.6</ele>
        <time>2013-08-10T10:21:17Z</time>
      </trkpt>
      <trkpt lat="42.376357" lon="1.961804">
        <ele>1674.8</ele>
        <time>2013-08-10T10:21:29Z</time>
      </trkpt>
      <trkpt lat="42.376326" lon="1.961791">
        <ele>1675.2</ele>
        <time>2013-08-10T10:21:32Z</time>
      </trkpt>
      <trkpt lat="42.376231" lon="1.961806">
        <ele>1675.7</ele>
        <time>2013-08-10T10:21:45Z</time>
      </trkpt>
      <trkpt lat="42.376187" lon="1.961789">
        <ele>1676.1</ele>
        <time>2013-08-10T10:21:50Z</time>
      </trkpt>
      <trkpt lat="42.376076" lon="1.961777">
        <ele>1677.3</ele>
        <time>2013-08-10T10:22:02Z</time>
      </trkpt>
      <trkpt lat="42.375997" lon="1.961712">
        <ele>1679.9</ele>
        <time>2013-08-10T10:22:14Z</time>
      </trkpt>
      <trkpt lat="42.375881" lon="1.961733">
        <ele>1680.8</ele>
        <time>2013-08-10T10:22:25Z</time>
      </trkpt>
      <trkpt lat="42.375814" lon="1.961776">
        <ele>1681.2</ele>
        <time>2013-08-10T10:22:34Z</time>
      </trkpt>
      <trkpt lat="42.375767" lon="1.961796">
        <ele>1682.0</ele>
        <time>2013-08-10T10:22:39Z</time>
      </trkpt>
      <trkpt lat="42.375640" lon="1.961826">
        <ele>1684.2</ele>
        <time>2013-08-10T10:22:51Z</time>
      </trkpt>
      <trkpt lat="42.375501" lon="1.961867">
        <ele>1685.8</ele>
        <time>2013-08-10T10:23:03Z</time>
      </trkpt>
      <trkpt lat="42.375443" lon="1.961854">
        <ele>1687.2</ele>
        <time>2013-08-10T10:23:15Z</time>
      </trkpt>
      <trkpt lat="42.375375" lon="1.961891">
        <ele>1687.1</ele>
        <time>2013-08-10T10:23:30Z</time>
      </trkpt>
      <trkpt lat="42.375269" lon="1.961906">
        <ele>1688.3</ele>
        <time>2013-08-10T10:23:41Z</time>
      </trkpt>
      <trkpt lat="42.375148" lon="1.961905">
        <ele>1690.6</ele>
        <time>2013-08-10T10:23:54Z</time>
      </trkpt>
      <trkpt lat="42.375119" lon="1.961912">
        <ele>1690.7</ele>
        <time>2013-08-10T10:23:56Z</time>
      </trkpt>
      <trkpt lat="42.375054" lon="1.961945">
        <ele>1690.0</ele>
        <time>2013-08-10T10:24:04Z</time>
      </trkpt>
      <trkpt lat="42.374930" lon="1.961978">
        <ele>1690.2</ele>
        <time>2013-08-10T10:24:17Z</time>
      </trkpt>
      <trkpt lat="42.374883" lon="1.961971">
        <ele>1690.6</ele>
        <time>2013-08-10T10:24:22Z</time>
      </trkpt>
      <trkpt lat="42.374808" lon="1.961972">
        <ele>1690.9</ele>
        <time>2013-08-10T10:24:29Z</time>
      </trkpt>
      <trkpt lat="42.374754" lon="1.961954">
        <ele>1691.8</ele>
        <time>2013-08-10T10:24:33Z</time>
      </trkpt>
      <trkpt lat="42.374599" lon="1.961970">
        <ele>1692.2</ele>
        <time>2013-08-10T10:24:47Z</time>
      </trkpt>
      <trkpt lat="42.374516" lon="1.961997">
        <ele>1692.8</ele>
        <time>2013-08-10T10:24:54Z</time>
      </trkpt>
      <trkpt lat="42.374328" lon="1.962106">
        <ele>1693.2</ele>
        <time>2013-08-10T10:25:09Z</time>
      </trkpt>
      <trkpt lat="42.374193" lon="1.962259">
        <ele>1693.9</ele>
        <time>2013-08-10T10:25:22Z</time>
      </trkpt>
      <trkpt lat="42.374066" lon="1.962351">
        <ele>1694.8</ele>
        <time>2013-08-10T10:25:34Z</time>
      </trkpt>
      <trkpt lat="42.373933" lon="1.962421">
        <ele>1695.7</ele>
        <time>2013-08-10T10:25:47Z</time>
      </trkpt>
      <trkpt lat="42.373911" lon="1.962420">
        <ele>1696.0</ele>
        <time>2013-08-10T10:25:49Z</time>
      </trkpt>
      <trkpt lat="42.373807" lon="1.962525">
        <ele>1697.0</ele>
        <time>2013-08-10T10:25:58Z</time>
      </trkpt>
      <trkpt lat="42.373749" lon="1.962592">
        <ele>1697.7</ele>
        <time>2013-08-10T10:26:04Z</time>
      </trkpt>
      <trkpt lat="42.373681" lon="1.962664">
        <ele>1698.6</ele>
        <time>2013-08-10T10:26:13Z</time>
      </trkpt>
      <trkpt lat="42.373570" lon="1.962691">
        <ele>1700.3</ele>
        <time>2013-08-10T10:26:25Z</time>
      </trkpt>
      <trkpt lat="42.373510" lon="1.962701">
        <ele>1701.3</ele>
        <time>2013-08-10T10:26:37Z</time>
      </trkpt>
      <trkpt lat="42.373458" lon="1.962698">
        <ele>1702.3</ele>
        <time>2013-08-10T10:26:51Z</time>
      </trkpt>
      <trkpt lat="42.373452" lon="1.962697">
        <ele>1702.4</ele>
        <time>2013-08-10T10:26:59Z</time>
      </trkpt>
      <trkpt lat="42.373438" lon="1.962692">
        <ele>1702.8</ele>
        <time>2013-08-10T10:27:02Z</time>
      </trkpt>
      <trkpt lat="42.373405" lon="1.962674">
        <ele>1703.4</ele>
        <time>2013-08-10T10:27:06Z</time>
      </trkpt>
      <trkpt lat="42.373299" lon="1.962612">
        <ele>1705.1</ele>
        <time>2013-08-10T10:27:17Z</time>
      </trkpt>
      <trkpt lat="42.373258" lon="1.962593">
        <ele>1705.8</ele>
        <time>2013-08-10T10:27:21Z</time>
      </trkpt>
      <trkpt lat="42.373234" lon="1.962596">
        <ele>1706.1</ele>
        <time>2013-08-10T10:27:35Z</time>
      </trkpt>
      <trkpt lat="42.373234" lon="1.962596">
        <ele>1706.1</ele>
        <time>2013-08-10T10:27:48Z</time>
      </trkpt>
      <trkpt lat="42.373069" lon="1.962531">
        <ele>1707.8</ele>
        <time>2013-08-10T10:28:00Z</time>
      </trkpt>
      <trkpt lat="42.373062" lon="1.962529">
        <ele>1707.8</ele>
        <time>2013-08-10T10:28:01Z</time>
      </trkpt>
      <trkpt lat="42.372873" lon="1.962463">
        <ele>1708.7</ele>
        <time>2013-08-10T10:28:14Z</time>
      </trkpt>
      <trkpt lat="42.372822" lon="1.962492">
        <ele>1709.1</ele>
        <time>2013-08-10T10:28:26Z</time>
      </trkpt>
      <trkpt lat="42.372763" lon="1.962644">
        <ele>1709.4</ele>
        <time>2013-08-10T10:28:39Z</time>
      </trkpt>
      <trkpt lat="42.372711" lon="1.962776">
        <ele>1709.8</ele>
        <time>2013-08-10T10:28:51Z</time>
      </trkpt>
      <trkpt lat="42.372698" lon="1.962846">
        <ele>1710.0</ele>
        <time>2013-08-10T10:51:12Z</time>
      </trkpt>
      <trkpt lat="42.372628" lon="1.962999">
        <ele>1710.7</ele>
        <time>2013-08-10T10:51:25Z</time>
      </trkpt>
      <trkpt lat="42.372608" lon="1.963059">
        <ele>1710.9</ele>
        <time>2013-08-10T10:51:39Z</time>
      </trkpt>
      <trkpt lat="42.372594" lon="1.963089">
        <ele>1711.1</ele>
        <time>2013-08-10T10:54:22Z</time>
      </trkpt>
      <trkpt lat="42.372524" lon="1.963263">
        <ele>1712.2</ele>
        <time>2013-08-10T10:54:36Z</time>
      </trkpt>
      <trkpt lat="42.372520" lon="1.963273">
        <ele>1712.3</ele>
        <time>2013-08-10T10:54:37Z</time>
      </trkpt>
      <trkpt lat="42.372432" lon="1.963479">
        <ele>1713.6</ele>
        <time>2013-08-10T10:54:51Z</time>
      </trkpt>
      <trkpt lat="42.372357" lon="1.963653">
        <ele>1714.7</ele>
        <time>2013-08-10T10:55:04Z</time>
      </trkpt>
      <trkpt lat="42.372277" lon="1.963839">
        <ele>1716.0</ele>
        <time>2013-08-10T10:55:18Z</time>
      </trkpt>
      <trkpt lat="42.372178" lon="1.964080">
        <ele>1717.5</ele>
        <time>2013-08-10T10:55:34Z</time>
      </trkpt>
      <trkpt lat="42.372060" lon="1.964282">
        <ele>1719.0</ele>
        <time>2013-08-10T10:55:47Z</time>
      </trkpt>
      <trkpt lat="42.371972" lon="1.964459">
        <ele>1720.5</ele>
        <time>2013-08-10T10:56:01Z</time>
      </trkpt>
      <trkpt lat="42.371883" lon="1.964654">
        <ele>1722.3</ele>
        <time>2013-08-10T10:56:14Z</time>
      </trkpt>
      <trkpt lat="42.371816" lon="1.964819">
        <ele>1723.8</ele>
        <time>2013-08-10T10:56:27Z</time>
      </trkpt>
      <trkpt lat="42.371727" lon="1.964900">
        <ele>1725.0</ele>
        <time>2013-08-10T10:56:36Z</time>
      </trkpt>
      <trkpt lat="42.371695" lon="1.964941">
        <ele>1725.4</ele>
        <time>2013-08-10T10:56:40Z</time>
      </trkpt>
      <trkpt lat="42.371635" lon="1.964989">
        <ele>1726.2</ele>
        <time>2013-08-10T10:56:46Z</time>
      </trkpt>
      <trkpt lat="42.371541" lon="1.965037">
        <ele>1727.2</ele>
        <time>2013-08-10T10:56:54Z</time>
      </trkpt>
      <trkpt lat="42.371520" lon="1.965038">
        <ele>1727.4</ele>
        <time>2013-08-10T10:56:56Z</time>
      </trkpt>
      <trkpt lat="42.371380" lon="1.965104">
        <ele>1728.7</ele>
        <time>2013-08-10T10:57:09Z</time>
      </trkpt>
      <trkpt lat="42.371232" lon="1.965157">
        <ele>1730.1</ele>
        <time>2013-08-10T10:57:23Z</time>
      </trkpt>
      <trkpt lat="42.371086" lon="1.965239">
        <ele>1731.5</ele>
        <time>2013-08-10T10:57:36Z</time>
      </trkpt>
      <trkpt lat="42.370988" lon="1.965304">
        <ele>1732.4</ele>
        <time>2013-08-10T10:57:44Z</time>
      </trkpt>
      <trkpt lat="42.370872" lon="1.965453">
        <ele>1734.6</ele>
        <time>2013-08-10T10:57:58Z</time>
      </trkpt>
      <trkpt lat="42.370817" lon="1.965575">
        <ele>1735.9</ele>
        <time>2013-08-10T10:58:06Z</time>
      </trkpt>
      <trkpt lat="42.370771" lon="1.965830">
        <ele>1737.6</ele>
        <time>2013-08-10T10:58:19Z</time>
      </trkpt>
      <trkpt lat="42.370771" lon="1.965978">
        <ele>1738.6</ele>
        <time>2013-08-10T10:58:30Z</time>
      </trkpt>
      <trkpt lat="42.370754" lon="1.966172">
        <ele>1740.3</ele>
        <time>2013-08-10T10:58:43Z</time>
      </trkpt>
      <trkpt lat="42.370726" lon="1.966302">
        <ele>1741.7</ele>
        <time>2013-08-10T10:58:53Z</time>
      </trkpt>
      <trkpt lat="42.370614" lon="1.966460">
        <ele>1743.6</ele>
        <time>2013-08-10T10:59:06Z</time>
      </trkpt>
      <trkpt lat="42.370504" lon="1.966563">
        <ele>1744.9</ele>
        <time>2013-08-10T10:59:17Z</time>
      </trkpt>
      <trkpt lat="42.370368" lon="1.966630">
        <ele>1746.2</ele>
        <time>2013-08-10T10:59:30Z</time>
      </trkpt>
      <trkpt lat="42.370260" lon="1.966698">
        <ele>1747.4</ele>
        <time>2013-08-10T10:59:40Z</time>
      </trkpt>
      <trkpt lat="42.370097" lon="1.966782">
        <ele>1748.9</ele>
        <time>2013-08-10T10:59:55Z</time>
      </trkpt>
      <trkpt lat="42.369949" lon="1.966854">
        <ele>1749.8</ele>
        <time>2013-08-10T11:00:06Z</time>
      </trkpt>
      <trkpt lat="42.369752" lon="1.966972">
        <ele>1750.8</ele>
        <time>2013-08-10T11:00:19Z</time>
      </trkpt>
      <trkpt lat="42.369608" lon="1.967091">
        <ele>1751.7</ele>
        <time>2013-08-10T11:00:34Z</time>
      </trkpt>
      <trkpt lat="42.369453" lon="1.967219">
        <ele>1753.1</ele>
        <time>2013-08-10T11:00:47Z</time>
      </trkpt>
      <trkpt lat="42.369275" lon="1.967330">
        <ele>1754.5</ele>
        <time>2013-08-10T11:01:02Z</time>
      </trkpt>
      <trkpt lat="42.369120" lon="1.967448">
        <ele>1755.9</ele>
        <time>2013-08-10T11:01:15Z</time>
      </trkpt>
      <trkpt lat="42.368934" lon="1.967625">
        <ele>1757.5</ele>
        <time>2013-08-10T11:01:31Z</time>
      </trkpt>
      <trkpt lat="42.368757" lon="1.967838">
        <ele>1759.3</ele>
        <time>2013-08-10T11:01:47Z</time>
      </trkpt>
      <trkpt lat="42.368579" lon="1.968123">
        <ele>1761.2</ele>
        <time>2013-08-10T11:02:05Z</time>
      </trkpt>
      <trkpt lat="42.368565" lon="1.968153">
        <ele>1761.4</ele>
        <time>2013-08-10T11:02:07Z</time>
      </trkpt>
      <trkpt lat="42.368524" lon="1.968236">
        <ele>1762.1</ele>
        <time>2013-08-10T11:02:13Z</time>
      </trkpt>
      <trkpt lat="42.368511" lon="1.968501">
        <ele>1764.0</ele>
        <time>2013-08-10T11:02:28Z</time>
      </trkpt>
      <trkpt lat="42.368564" lon="1.968707">
        <ele>1765.6</ele>
        <time>2013-08-10T11:02:40Z</time>
      </trkpt>
      <trkpt lat="42.368589" lon="1.968755">
        <ele>1765.9</ele>
        <time>2013-08-10T11:02:43Z</time>
      </trkpt>
      <trkpt lat="42.368618" lon="1.968824">
        <ele>1766.1</ele>
        <time>2013-08-10T11:02:48Z</time>
      </trkpt>
      <trkpt lat="42.368689" lon="1.969058">
        <ele>1766.6</ele>
        <time>2013-08-10T11:03:03Z</time>
      </trkpt>
      <trkpt lat="42.368680" lon="1.969110">
        <ele>1766.9</ele>
        <time>2013-08-10T11:03:06Z</time>
      </trkpt>
      <trkpt lat="42.368546" lon="1.969290">
        <ele>1768.7</ele>
        <time>2013-08-10T11:03:19Z</time>
      </trkpt>
      <trkpt lat="42.368453" lon="1.969456">
        <ele>1769.9</ele>
        <time>2013-08-10T11:03:31Z</time>
      </trkpt>
      <trkpt lat="42.368416" lon="1.969553">
        <ele>1770.2</ele>
        <time>2013-08-10T11:03:37Z</time>
      </trkpt>
      <trkpt lat="42.368403" lon="1.969835">
        <ele>1771.3</ele>
        <time>2013-08-10T11:03:53Z</time>
      </trkpt>
      <trkpt lat="42.368402" lon="1.970081">
        <ele>1772.5</ele>
        <time>2013-08-10T11:04:07Z</time>
      </trkpt>
      <trkpt lat="42.368390" lon="1.970302">
        <ele>1774.0</ele>
        <time>2013-08-10T11:04:20Z</time>
      </trkpt>
      <trkpt lat="42.368394" lon="1.970415">
        <ele>1775.1</ele>
        <time>2013-08-10T11:04:27Z</time>
      </trkpt>
      <trkpt lat="42.368404" lon="1.970733">
        <ele>1775.9</ele>
        <time>2013-08-10T11:04:43Z</time>
      </trkpt>
      <trkpt lat="42.368380" lon="1.971012">
        <ele>1777.1</ele>
        <time>2013-08-10T11:04:58Z</time>
      </trkpt>
      <trkpt lat="42.368373" lon="1.971165">
        <ele>1777.8</ele>
        <time>2013-08-10T11:05:11Z</time>
      </trkpt>
      <trkpt lat="42.368367" lon="1.971182">
        <ele>1777.7</ele>
        <time>2013-08-10T11:13:40Z</time>
      </trkpt>
      <trkpt lat="42.368350" lon="1.971287">
        <ele>1778.2</ele>
        <time>2013-08-10T11:14:07Z</time>
      </trkpt>
      <trkpt lat="42.368345" lon="1.971389">
        <ele>1778.8</ele>
        <time>2013-08-10T11:14:19Z</time>
      </trkpt>
      <trkpt lat="42.368320" lon="1.971584">
        <ele>1779.5</ele>
        <time>2013-08-10T11:14:32Z</time>
      </trkpt>
      <trkpt lat="42.368299" lon="1.971766">
        <ele>1780.9</ele>
        <time>2013-08-10T11:14:44Z</time>
      </trkpt>
      <trkpt lat="42.368288" lon="1.971968">
        <ele>1781.8</ele>
        <time>2013-08-10T11:14:58Z</time>
      </trkpt>
      <trkpt lat="42.368283" lon="1.972162">
        <ele>1783.4</ele>
        <time>2013-08-10T11:15:11Z</time>
      </trkpt>
      <trkpt lat="42.368283" lon="1.972217">
        <ele>1783.8</ele>
        <time>2013-08-10T11:15:15Z</time>
      </trkpt>
      <trkpt lat="42.368280" lon="1.972403">
        <ele>1785.2</ele>
        <time>2013-08-10T11:15:28Z</time>
      </trkpt>
      <trkpt lat="42.368243" lon="1.972585">
        <ele>1785.9</ele>
        <time>2013-08-10T11:15:41Z</time>
      </trkpt>
      <trkpt lat="42.368211" lon="1.972682">
        <ele>1786.3</ele>
        <time>2013-08-10T11:15:48Z</time>
      </trkpt>
      <trkpt lat="42.368185" lon="1.972771">
        <ele>1787.1</ele>
        <time>2013-08-10T11:15:54Z</time>
      </trkpt>
      <trkpt lat="42.368136" lon="1.972929">
        <ele>1788.0</ele>
        <time>2013-08-10T11:16:03Z</time>
      </trkpt>
      <trkpt lat="42.368049" lon="1.973147">
        <ele>1789.5</ele>
        <time>2013-08-10T11:16:18Z</time>
      </trkpt>
      <trkpt lat="42.368007" lon="1.973278">
        <ele>1790.6</ele>
        <time>2013-08-10T11:16:28Z</time>
      </trkpt>
      <trkpt lat="42.367982" lon="1.973411">
        <ele>1791.8</ele>
        <time>2013-08-10T11:16:37Z</time>
      </trkpt>
      <trkpt lat="42.367948" lon="1.973531">
        <ele>1792.7</ele>
        <time>2013-08-10T11:16:44Z</time>
      </trkpt>
      <trkpt lat="42.367927" lon="1.973662">
        <ele>1793.7</ele>
        <time>2013-08-10T11:16:53Z</time>
      </trkpt>
      <trkpt lat="42.367914" lon="1.973753">
        <ele>1794.4</ele>
        <time>2013-08-10T11:16:58Z</time>
      </trkpt>
      <trkpt lat="42.367902" lon="1.973970">
        <ele>1795.5</ele>
        <time>2013-08-10T11:17:11Z</time>
      </trkpt>
      <trkpt lat="42.367889" lon="1.974051">
        <ele>1795.8</ele>
        <time>2013-08-10T11:17:15Z</time>
      </trkpt>
      <trkpt lat="42.367903" lon="1.974179">
        <ele>1796.7</ele>
        <time>2013-08-10T11:17:23Z</time>
      </trkpt>
      <trkpt lat="42.367905" lon="1.974261">
        <ele>1797.2</ele>
        <time>2013-08-10T11:17:28Z</time>
      </trkpt>
      <trkpt lat="42.367919" lon="1.974495">
        <ele>1798.8</ele>
        <time>2013-08-10T11:17:41Z</time>
      </trkpt>
      <trkpt lat="42.367945" lon="1.974690">
        <ele>1799.5</ele>
        <time>2013-08-10T11:17:53Z</time>
      </trkpt>
      <trkpt lat="42.367996" lon="1.974907">
        <ele>1801.2</ele>
        <time>2013-08-10T11:18:06Z</time>
      </trkpt>
      <trkpt lat="42.368049" lon="1.975091">
        <ele>1802.6</ele>
        <time>2013-08-10T11:18:18Z</time>
      </trkpt>
      <trkpt lat="42.368094" lon="1.975299">
        <ele>1804.0</ele>
        <time>2013-08-10T11:18:30Z</time>
      </trkpt>
      <trkpt lat="42.368111" lon="1.975465">
        <ele>1805.4</ele>
        <time>2013-08-10T11:18:40Z</time>
      </trkpt>
      <trkpt lat="42.368141" lon="1.975627">
        <ele>1807.0</ele>
        <time>2013-08-10T11:18:51Z</time>
      </trkpt>
      <trkpt lat="42.368154" lon="1.975758">
        <ele>1808.6</ele>
        <time>2013-08-10T11:18:59Z</time>
      </trkpt>
      <trkpt lat="42.368165" lon="1.975955">
        <ele>1810.0</ele>
        <time>2013-08-10T11:19:11Z</time>
      </trkpt>
      <trkpt lat="42.368213" lon="1.976137">
        <ele>1811.6</ele>
        <time>2013-08-10T11:19:23Z</time>
      </trkpt>
      <trkpt lat="42.368294" lon="1.976308">
        <ele>1813.4</ele>
        <time>2013-08-10T11:19:35Z</time>
      </trkpt>
      <trkpt lat="42.368345" lon="1.976480">
        <ele>1814.8</ele>
        <time>2013-08-10T11:19:46Z</time>
      </trkpt>
      <trkpt lat="42.368269" lon="1.976636">
        <ele>1815.1</ele>
        <time>2013-08-10T11:19:59Z</time>
      </trkpt>
      <trkpt lat="42.368143" lon="1.976818">
        <ele>1816.0</ele>
        <time>2013-08-10T11:20:14Z</time>
      </trkpt>
      <trkpt lat="42.368087" lon="1.976912">
        <ele>1816.8</ele>
        <time>2013-08-10T11:20:21Z</time>
      </trkpt>
      <trkpt lat="42.367995" lon="1.977151">
        <ele>1818.4</ele>
        <time>2013-08-10T11:20:36Z</time>
      </trkpt>
      <trkpt lat="42.367974" lon="1.977250">
        <ele>1819.4</ele>
        <time>2013-08-10T11:20:42Z</time>
      </trkpt>
      <trkpt lat="42.367947" lon="1.977531">
        <ele>1822.2</ele>
        <time>2013-08-10T11:20:58Z</time>
      </trkpt>
      <trkpt lat="42.367930" lon="1.977784">
        <ele>1823.5</ele>
        <time>2013-08-10T11:21:13Z</time>
      </trkpt>
      <trkpt lat="42.367929" lon="1.977859">
        <ele>1824.1</ele>
        <time>2013-08-10T11:21:18Z</time>
      </trkpt>
      <trkpt lat="42.367927" lon="1.978115">
        <ele>1826.5</ele>
        <time>2013-08-10T11:21:32Z</time>
      </trkpt>
      <trkpt lat="42.367923" lon="1.978311">
        <ele>1828.3</ele>
        <time>2013-08-10T11:21:44Z</time>
      </trkpt>
      <trkpt lat="42.367890" lon="1.978419">
        <ele>1828.2</ele>
        <time>2013-08-10T11:21:52Z</time>
      </trkpt>
      <trkpt lat="42.367757" lon="1.978611">
        <ele>1830.2</ele>
        <time>2013-08-10T11:22:06Z</time>
      </trkpt>
      <trkpt lat="42.367703" lon="1.978703">
        <ele>1831.3</ele>
        <time>2013-08-10T11:22:12Z</time>
      </trkpt>
      <trkpt lat="42.367599" lon="1.978893">
        <ele>1833.6</ele>
        <time>2013-08-10T11:22:25Z</time>
      </trkpt>
      <trkpt lat="42.367499" lon="1.979049">
        <ele>1835.4</ele>
        <time>2013-08-10T11:22:39Z</time>
      </trkpt>
      <trkpt lat="42.367470" lon="1.979107">
        <ele>1836.0</ele>
        <time>2013-08-10T11:22:44Z</time>
      </trkpt>
      <trkpt lat="42.367415" lon="1.979166">
        <ele>1836.6</ele>
        <time>2013-08-10T11:22:49Z</time>
      </trkpt>
      <trkpt lat="42.367302" lon="1.979323">
        <ele>1837.9</ele>
        <time>2013-08-10T11:23:02Z</time>
      </trkpt>
      <trkpt lat="42.367200" lon="1.979442">
        <ele>1839.7</ele>
        <time>2013-08-10T11:23:12Z</time>
      </trkpt>
      <trkpt lat="42.367078" lon="1.979558">
        <ele>1841.7</ele>
        <time>2013-08-10T11:23:24Z</time>
      </trkpt>
      <trkpt lat="42.366930" lon="1.979702">
        <ele>1844.5</ele>
        <time>2013-08-10T11:23:37Z</time>
      </trkpt>
      <trkpt lat="42.366785" lon="1.979835">
        <ele>1846.1</ele>
        <time>2013-08-10T11:23:50Z</time>
      </trkpt>
      <trkpt lat="42.366706" lon="1.979907">
        <ele>1847.2</ele>
        <time>2013-08-10T11:23:58Z</time>
      </trkpt>
      <trkpt lat="42.366661" lon="1.979958">
        <ele>1847.8</ele>
        <time>2013-08-10T11:24:03Z</time>
      </trkpt>
      <trkpt lat="42.366545" lon="1.980023">
        <ele>1848.5</ele>
        <time>2013-08-10T11:24:15Z</time>
      </trkpt>
      <trkpt lat="42.366441" lon="1.980111">
        <ele>1850.2</ele>
        <time>2013-08-10T11:24:26Z</time>
      </trkpt>
      <trkpt lat="42.366303" lon="1.980221">
        <ele>1852.5</ele>
        <time>2013-08-10T11:24:38Z</time>
      </trkpt>
      <trkpt lat="42.366203" lon="1.980304">
        <ele>1854.5</ele>
        <time>2013-08-10T11:24:49Z</time>
      </trkpt>
      <trkpt lat="42.366162" lon="1.980344">
        <ele>1855.7</ele>
        <time>2013-08-10T11:24:53Z</time>
      </trkpt>
      <trkpt lat="42.366011" lon="1.980448">
        <ele>1857.9</ele>
        <time>2013-08-10T11:25:06Z</time>
      </trkpt>
      <trkpt lat="42.365890" lon="1.980529">
        <ele>1859.6</ele>
        <time>2013-08-10T11:25:16Z</time>
      </trkpt>
      <trkpt lat="42.365782" lon="1.980598">
        <ele>1861.0</ele>
        <time>2013-08-10T11:25:26Z</time>
      </trkpt>
      <trkpt lat="42.365657" lon="1.980677">
        <ele>1863.7</ele>
        <time>2013-08-10T11:25:38Z</time>
      </trkpt>
      <trkpt lat="42.365546" lon="1.980762">
        <ele>1864.5</ele>
        <time>2013-08-10T11:25:50Z</time>
      </trkpt>
      <trkpt lat="42.365420" lon="1.980844">
        <ele>1866.2</ele>
        <time>2013-08-10T11:26:01Z</time>
      </trkpt>
      <trkpt lat="42.365281" lon="1.980912">
        <ele>1868.0</ele>
        <time>2013-08-10T11:26:14Z</time>
      </trkpt>
      <trkpt lat="42.365129" lon="1.980938">
        <ele>1869.6</ele>
        <time>2013-08-10T11:26:27Z</time>
      </trkpt>
      <trkpt lat="42.364967" lon="1.980950">
        <ele>1871.3</ele>
        <time>2013-08-10T11:26:41Z</time>
      </trkpt>
      <trkpt lat="42.364818" lon="1.980947">
        <ele>1872.8</ele>
        <time>2013-08-10T11:26:53Z</time>
      </trkpt>
      <trkpt lat="42.364740" lon="1.980989">
        <ele>1874.0</ele>
        <time>2013-08-10T11:27:05Z</time>
      </trkpt>
      <trkpt lat="42.364731" lon="1.981045">
        <ele>1875.3</ele>
        <time>2013-08-10T11:27:15Z</time>
      </trkpt>
      <trkpt lat="42.364731" lon="1.981045">
        <ele>1875.3</ele>
        <time>2013-08-10T11:27:34Z</time>
      </trkpt>
      <trkpt lat="42.364683" lon="1.980925">
        <ele>1873.1</ele>
        <time>2013-08-10T11:27:48Z</time>
      </trkpt>
      <trkpt lat="42.364629" lon="1.980872">
        <ele>1873.6</ele>
        <time>2013-08-10T11:27:58Z</time>
      </trkpt>
      <trkpt lat="42.364558" lon="1.980863">
        <ele>1876.3</ele>
        <time>2013-08-10T11:28:12Z</time>
      </trkpt>
      <trkpt lat="42.364516" lon="1.980998">
        <ele>1878.2</ele>
        <time>2013-08-10T11:28:22Z</time>
      </trkpt>
      <trkpt lat="42.364458" lon="1.981102">
        <ele>1880.4</ele>
        <time>2013-08-10T11:28:33Z</time>
      </trkpt>
      <trkpt lat="42.364444" lon="1.981147">
        <ele>1881.1</ele>
        <time>2013-08-10T11:28:37Z</time>
      </trkpt>
      <trkpt lat="42.364417" lon="1.981255">
        <ele>1882.1</ele>
        <time>2013-08-10T11:28:49Z</time>
      </trkpt>
      <trkpt lat="42.364358" lon="1.981317">
        <ele>1883.6</ele>
        <time>2013-08-10T11:29:01Z</time>
      </trkpt>
      <trkpt lat="42.364281" lon="1.981384">
        <ele>1886.0</ele>
        <time>2013-08-10T11:29:13Z</time>
      </trkpt>
      <trkpt lat="42.364207" lon="1.981398">
        <ele>1888.4</ele>
        <time>2013-08-10T11:29:25Z</time>
      </trkpt>
      <trkpt lat="42.364148" lon="1.981458">
        <ele>1890.0</ele>
        <time>2013-08-10T11:29:34Z</time>
      </trkpt>
      <trkpt lat="42.364077" lon="1.981562">
        <ele>1892.1</ele>
        <time>2013-08-10T11:29:46Z</time>
      </trkpt>
      <trkpt lat="42.364003" lon="1.981633">
        <ele>1894.8</ele>
        <time>2013-08-10T11:29:58Z</time>
      </trkpt>
      <trkpt lat="42.363942" lon="1.981733">
        <ele>1896.6</ele>
        <time>2013-08-10T11:30:10Z</time>
      </trkpt>
      <trkpt lat="42.363884" lon="1.981849">
        <ele>1898.2</ele>
        <time>2013-08-10T11:30:21Z</time>
      </trkpt>
      <trkpt lat="42.363817" lon="1.981927">
        <ele>1900.1</ele>
        <time>2013-08-10T11:30:31Z</time>
      </trkpt>
      <trkpt lat="42.363749" lon="1.981994">
        <ele>1901.6</ele>
        <time>2013-08-10T11:30:40Z</time>
      </trkpt>
      <trkpt lat="42.363644" lon="1.982030">
        <ele>1903.6</ele>
        <time>2013-08-10T11:30:52Z</time>
      </trkpt>
      <trkpt lat="42.363616" lon="1.982047">
        <ele>1904.2</ele>
        <time>2013-08-10T11:30:56Z</time>
      </trkpt>
      <trkpt lat="42.363579" lon="1.982059">
        <ele>1905.0</ele>
        <time>2013-08-10T11:31:01Z</time>
      </trkpt>
      <trkpt lat="42.363488" lon="1.982154">
        <ele>1907.3</ele>
        <time>2013-08-10T11:31:15Z</time>
      </trkpt>
      <trkpt lat="42.363427" lon="1.982234">
        <ele>1908.9</ele>
        <time>2013-08-10T11:31:27Z</time>
      </trkpt>
      <trkpt lat="42.363367" lon="1.982308">
        <ele>1910.3</ele>
        <time>2013-08-10T11:31:37Z</time>
      </trkpt>
      <trkpt lat="42.363278" lon="1.982342">
        <ele>1912.3</ele>
        <time>2013-08-10T11:31:47Z</time>
      </trkpt>
      <trkpt lat="42.363208" lon="1.982382">
        <ele>1913.8</ele>
        <time>2013-08-10T11:31:56Z</time>
      </trkpt>
      <trkpt lat="42.363113" lon="1.982466">
        <ele>1915.8</ele>
        <time>2013-08-10T11:32:07Z</time>
      </trkpt>
      <trkpt lat="42.363089" lon="1.982496">
        <ele>1916.5</ele>
        <time>2013-08-10T11:32:16Z</time>
      </trkpt>
      <trkpt lat="42.363068" lon="1.982556">
        <ele>1917.2</ele>
        <time>2013-08-10T11:32:34Z</time>
      </trkpt>
      <trkpt lat="42.363063" lon="1.982567">
        <ele>1917.4</ele>
        <time>2013-08-10T11:32:35Z</time>
      </trkpt>
      <trkpt lat="42.363054" lon="1.982657">
        <ele>1918.7</ele>
        <time>2013-08-10T11:32:43Z</time>
      </trkpt>
      <trkpt lat="42.363016" lon="1.982708">
        <ele>1920.3</ele>
        <time>2013-08-10T11:32:49Z</time>
      </trkpt>
      <trkpt lat="42.362968" lon="1.982873">
        <ele>1922.7</ele>
        <time>2013-08-10T11:33:02Z</time>
      </trkpt>
      <trkpt lat="42.362936" lon="1.982995">
        <ele>1925.2</ele>
        <time>2013-08-10T11:33:13Z</time>
      </trkpt>
      <trkpt lat="42.362928" lon="1.983007">
        <ele>1925.6</ele>
        <time>2013-08-10T11:33:15Z</time>
      </trkpt>
      <trkpt lat="42.362910" lon="1.983024">
        <ele>1926.1</ele>
        <time>2013-08-10T11:33:18Z</time>
      </trkpt>
      <trkpt lat="42.362892" lon="1.983047">
        <ele>1926.6</ele>
        <time>2013-08-10T11:33:21Z</time>
      </trkpt>
      <trkpt lat="42.362880" lon="1.983074">
        <ele>1927.2</ele>
        <time>2013-08-10T11:33:24Z</time>
      </trkpt>
      <trkpt lat="42.362823" lon="1.983153">
        <ele>1930.0</ele>
        <time>2013-08-10T11:33:35Z</time>
      </trkpt>
      <trkpt lat="42.362810" lon="1.983154">
        <ele>1930.4</ele>
        <time>2013-08-10T11:33:50Z</time>
      </trkpt>
      <trkpt lat="42.362799" lon="1.983184">
        <ele>1931.1</ele>
        <time>2013-08-10T11:33:54Z</time>
      </trkpt>
      <trkpt lat="42.362816" lon="1.983271">
        <ele>1931.4</ele>
        <time>2013-08-10T11:34:00Z</time>
      </trkpt>
      <trkpt lat="42.362812" lon="1.983405">
        <ele>1933.3</ele>
        <time>2013-08-10T11:34:11Z</time>
      </trkpt>
      <trkpt lat="42.362816" lon="1.983486">
        <ele>1934.6</ele>
        <time>2013-08-10T11:34:21Z</time>
      </trkpt>
      <trkpt lat="42.362804" lon="1.983506">
        <ele>1935.3</ele>
        <time>2013-08-10T11:34:26Z</time>
      </trkpt>
      <trkpt lat="42.362776" lon="1.983541">
        <ele>1937.2</ele>
        <time>2013-08-10T11:34:33Z</time>
      </trkpt>
      <trkpt lat="42.362719" lon="1.983535">
        <ele>1939.1</ele>
        <time>2013-08-10T11:34:43Z</time>
      </trkpt>
      <trkpt lat="42.362706" lon="1.983528">
        <ele>1939.5</ele>
        <time>2013-08-10T11:34:45Z</time>
      </trkpt>
      <trkpt lat="42.362634" lon="1.983509">
        <ele>1941.3</ele>
        <time>2013-08-10T11:34:57Z</time>
      </trkpt>
      <trkpt lat="42.362563" lon="1.983498">
        <ele>1943.0</ele>
        <time>2013-08-10T11:35:06Z</time>
      </trkpt>
      <trkpt lat="42.362479" lon="1.983536">
        <ele>1945.5</ele>
        <time>2013-08-10T11:35:19Z</time>
      </trkpt>
      <trkpt lat="42.362437" lon="1.983592">
        <ele>1947.2</ele>
        <time>2013-08-10T11:35:30Z</time>
      </trkpt>
      <trkpt lat="42.362373" lon="1.983641">
        <ele>1948.9</ele>
        <time>2013-08-10T11:35:41Z</time>
      </trkpt>
      <trkpt lat="42.362373" lon="1.983639">
        <ele>1948.9</ele>
        <time>2013-08-10T11:35:59Z</time>
      </trkpt>
      <trkpt lat="42.362373" lon="1.983639">
        <ele>1948.9</ele>
        <time>2013-08-10T11:36:12Z</time>
      </trkpt>
      <trkpt lat="42.362337" lon="1.983626">
        <ele>1949.1</ele>
        <time>2013-08-10T11:36:17Z</time>
      </trkpt>
      <trkpt lat="42.362255" lon="1.983726">
        <ele>1950.6</ele>
        <time>2013-08-10T11:36:28Z</time>
      </trkpt>
      <trkpt lat="42.362243" lon="1.983757">
        <ele>1951.0</ele>
        <time>2013-08-10T11:36:31Z</time>
      </trkpt>
      <trkpt lat="42.362197" lon="1.983827">
        <ele>1951.9</ele>
        <time>2013-08-10T11:36:38Z</time>
      </trkpt>
      <trkpt lat="42.362172" lon="1.983871">
        <ele>1952.5</ele>
        <time>2013-08-10T11:36:42Z</time>
      </trkpt>
      <trkpt lat="42.362126" lon="1.983984">
        <ele>1953.8</ele>
        <time>2013-08-10T11:36:54Z</time>
      </trkpt>
      <trkpt lat="42.362082" lon="1.984077">
        <ele>1955.3</ele>
        <time>2013-08-10T11:37:04Z</time>
      </trkpt>
      <trkpt lat="42.362029" lon="1.984190">
        <ele>1956.8</ele>
        <time>2013-08-10T11:37:14Z</time>
      </trkpt>
      <trkpt lat="42.361977" lon="1.984299">
        <ele>1958.2</ele>
        <time>2013-08-10T11:37:24Z</time>
      </trkpt>
      <trkpt lat="42.361946" lon="1.984441">
        <ele>1959.9</ele>
        <time>2013-08-10T11:37:37Z</time>
      </trkpt>
      <trkpt lat="42.361934" lon="1.984570">
        <ele>1961.5</ele>
        <time>2013-08-10T11:37:48Z</time>
      </trkpt>
      <trkpt lat="42.361934" lon="1.984593">
        <ele>1961.8</ele>
        <time>2013-08-10T11:37:50Z</time>
      </trkpt>
      <trkpt lat="42.361936" lon="1.984642">
        <ele>1962.3</ele>
        <time>2013-08-10T11:37:54Z</time>
      </trkpt>
      <trkpt lat="42.361924" lon="1.984676">
        <ele>1962.7</ele>
        <time>2013-08-10T11:37:57Z</time>
      </trkpt>
      <trkpt lat="42.361934" lon="1.984729">
        <ele>1963.2</ele>
        <time>2013-08-10T11:38:01Z</time>
      </trkpt>
      <trkpt lat="42.361944" lon="1.984896">
        <ele>1964.7</ele>
        <time>2013-08-10T11:38:13Z</time>
      </trkpt>
      <trkpt lat="42.361949" lon="1.984980">
        <ele>1965.3</ele>
        <time>2013-08-10T11:38:19Z</time>
      </trkpt>
      <trkpt lat="42.361955" lon="1.985032">
        <ele>1965.8</ele>
        <time>2013-08-10T11:38:23Z</time>
      </trkpt>
      <trkpt lat="42.361966" lon="1.985087">
        <ele>1966.1</ele>
        <time>2013-08-10T11:38:27Z</time>
      </trkpt>
      <trkpt lat="42.361973" lon="1.985135">
        <ele>1966.3</ele>
        <time>2013-08-10T11:38:31Z</time>
      </trkpt>
      <trkpt lat="42.361974" lon="1.985203">
        <ele>1966.6</ele>
        <time>2013-08-10T11:38:36Z</time>
      </trkpt>
      <trkpt lat="42.361975" lon="1.985354">
        <ele>1967.6</ele>
        <time>2013-08-10T11:38:47Z</time>
      </trkpt>
      <trkpt lat="42.361981" lon="1.985480">
        <ele>1969.0</ele>
        <time>2013-08-10T11:38:58Z</time>
      </trkpt>
      <trkpt lat="42.361990" lon="1.985600">
        <ele>1970.4</ele>
        <time>2013-08-10T11:39:09Z</time>
      </trkpt>
      <trkpt lat="42.361996" lon="1.985648">
        <ele>1970.9</ele>
        <time>2013-08-10T11:39:14Z</time>
      </trkpt>
      <trkpt lat="42.361998" lon="1.985683">
        <ele>1971.4</ele>
        <time>2013-08-10T11:39:18Z</time>
      </trkpt>
      <trkpt lat="42.361999" lon="1.985802">
        <ele>1972.6</ele>
        <time>2013-08-10T11:39:27Z</time>
      </trkpt>
      <trkpt lat="42.361992" lon="1.985928">
        <ele>1973.8</ele>
        <time>2013-08-10T11:39:39Z</time>
      </trkpt>
      <trkpt lat="42.361992" lon="1.985963">
        <ele>1974.2</ele>
        <time>2013-08-10T11:39:42Z</time>
      </trkpt>
      <trkpt lat="42.361989" lon="1.986035">
        <ele>1975.0</ele>
        <time>2013-08-10T11:39:48Z</time>
      </trkpt>
      <trkpt lat="42.361984" lon="1.986114">
        <ele>1976.0</ele>
        <time>2013-08-10T11:39:54Z</time>
      </trkpt>
      <trkpt lat="42.361957" lon="1.986228">
        <ele>1977.8</ele>
        <time>2013-08-10T11:40:04Z</time>
      </trkpt>
      <trkpt lat="42.361930" lon="1.986336">
        <ele>1979.7</ele>
        <time>2013-08-10T11:40:16Z</time>
      </trkpt>
      <trkpt lat="42.361882" lon="1.986498">
        <ele>1980.7</ele>
        <time>2013-08-10T11:46:05Z</time>
      </trkpt>
      <trkpt lat="42.361876" lon="1.986629">
        <ele>1981.0</ele>
        <time>2013-08-10T11:46:21Z</time>
      </trkpt>
      <trkpt lat="42.361846" lon="1.986839">
        <ele>1981.9</ele>
        <time>2013-08-10T11:46:34Z</time>
      </trkpt>
      <trkpt lat="42.361826" lon="1.986917">
        <ele>1982.6</ele>
        <time>2013-08-10T11:46:40Z</time>
      </trkpt>
      <trkpt lat="42.361757" lon="1.987109">
        <ele>1983.2</ele>
        <time>2013-08-10T11:46:53Z</time>
      </trkpt>
      <trkpt lat="42.361677" lon="1.987277">
        <ele>1983.0</ele>
        <time>2013-08-10T11:47:05Z</time>
      </trkpt>
      <trkpt lat="42.361573" lon="1.987459">
        <ele>1982.4</ele>
        <time>2013-08-10T11:47:18Z</time>
      </trkpt>
      <trkpt lat="42.361468" lon="1.987603">
        <ele>1982.0</ele>
        <time>2013-08-10T11:47:32Z</time>
      </trkpt>
      <trkpt lat="42.361347" lon="1.987769">
        <ele>1981.1</ele>
        <time>2013-08-10T11:47:46Z</time>
      </trkpt>
      <trkpt lat="42.361217" lon="1.987946">
        <ele>1978.8</ele>
        <time>2013-08-10T11:48:00Z</time>
      </trkpt>
      <trkpt lat="42.361111" lon="1.988111">
        <ele>1978.0</ele>
        <time>2013-08-10T11:48:13Z</time>
      </trkpt>
      <trkpt lat="42.361079" lon="1.988188">
        <ele>1978.2</ele>
        <time>2013-08-10T11:48:24Z</time>
      </trkpt>
      <trkpt lat="42.360980" lon="1.988364">
        <ele>1978.2</ele>
        <time>2013-08-10T11:48:39Z</time>
      </trkpt>
      <trkpt lat="42.360842" lon="1.988519">
        <ele>1977.7</ele>
        <time>2013-08-10T11:48:53Z</time>
      </trkpt>
      <trkpt lat="42.360830" lon="1.988531">
        <ele>1977.7</ele>
        <time>2013-08-10T11:48:54Z</time>
      </trkpt>
      <trkpt lat="42.360791" lon="1.988556">
        <ele>1977.6</ele>
        <time>2013-08-10T11:48:59Z</time>
      </trkpt>
      <trkpt lat="42.360645" lon="1.988671">
        <ele>1977.2</ele>
        <time>2013-08-10T11:49:14Z</time>
      </trkpt>
      <trkpt lat="42.360472" lon="1.988825">
        <ele>1976.2</ele>
        <time>2013-08-10T11:49:31Z</time>
      </trkpt>
      <trkpt lat="42.360298" lon="1.988981">
        <ele>1975.4</ele>
        <time>2013-08-10T11:49:48Z</time>
      </trkpt>
      <trkpt lat="42.360159" lon="1.989146">
        <ele>1975.7</ele>
        <time>2013-08-10T11:50:05Z</time>
      </trkpt>
      <trkpt lat="42.360036" lon="1.989319">
        <ele>1976.2</ele>
        <time>2013-08-10T11:50:20Z</time>
      </trkpt>
      <trkpt lat="42.359921" lon="1.989531">
        <ele>1977.0</ele>
        <time>2013-08-10T11:50:36Z</time>
      </trkpt>
      <trkpt lat="42.359824" lon="1.989696">
        <ele>1977.1</ele>
        <time>2013-08-10T11:50:49Z</time>
      </trkpt>
      <trkpt lat="42.359776" lon="1.989782">
        <ele>1977.1</ele>
        <time>2013-08-10T11:50:56Z</time>
      </trkpt>
      <trkpt lat="42.359681" lon="1.989991">
        <ele>1977.8</ele>
        <time>2013-08-10T11:51:10Z</time>
      </trkpt>
      <trkpt lat="42.359575" lon="1.990206">
        <ele>1978.4</ele>
        <time>2013-08-10T11:51:26Z</time>
      </trkpt>
      <trkpt lat="42.359472" lon="1.990440">
        <ele>1979.0</ele>
        <time>2013-08-10T11:51:42Z</time>
      </trkpt>
      <trkpt lat="42.359417" lon="1.990556">
        <ele>1978.8</ele>
        <time>2013-08-10T11:51:50Z</time>
      </trkpt>
      <trkpt lat="42.359408" lon="1.990589">
        <ele>1978.9</ele>
        <time>2013-08-10T11:51:52Z</time>
      </trkpt>
      <trkpt lat="42.359316" lon="1.990818">
        <ele>1979.1</ele>
        <time>2013-08-10T11:52:06Z</time>
      </trkpt>
      <trkpt lat="42.359210" lon="1.991062">
        <ele>1978.6</ele>
        <time>2013-08-10T11:52:21Z</time>
      </trkpt>
      <trkpt lat="42.359147" lon="1.991308">
        <ele>1978.3</ele>
        <time>2013-08-10T11:52:37Z</time>
      </trkpt>
      <trkpt lat="42.359132" lon="1.991490">
        <ele>1978.4</ele>
        <time>2013-08-10T11:52:47Z</time>
      </trkpt>
      <trkpt lat="42.359112" lon="1.991685">
        <ele>1978.0</ele>
        <time>2013-08-10T11:53:01Z</time>
      </trkpt>
      <trkpt lat="42.359092" lon="1.991801">
        <ele>1977.5</ele>
        <time>2013-08-10T11:53:07Z</time>
      </trkpt>
      <trkpt lat="42.359095" lon="1.992012">
        <ele>1976.8</ele>
        <time>2013-08-10T11:53:21Z</time>
      </trkpt>
      <trkpt lat="42.359086" lon="1.992275">
        <ele>1975.2</ele>
        <time>2013-08-10T11:53:35Z</time>
      </trkpt>
      <trkpt lat="42.359138" lon="1.992548">
        <ele>1974.3</ele>
        <time>2013-08-10T11:53:50Z</time>
      </trkpt>
      <trkpt lat="42.359194" lon="1.992836">
        <ele>1972.8</ele>
        <time>2013-08-10T11:54:06Z</time>
      </trkpt>
      <trkpt lat="42.359208" lon="1.992882">
        <ele>1972.6</ele>
        <time>2013-08-10T11:54:08Z</time>
      </trkpt>
      <trkpt lat="42.359237" lon="1.992988">
        <ele>1971.7</ele>
        <time>2013-08-10T11:54:16Z</time>
      </trkpt>
      <trkpt lat="42.359261" lon="1.993065">
        <ele>1971.3</ele>
        <time>2013-08-10T11:54:20Z</time>
      </trkpt>
      <trkpt lat="42.359369" lon="1.993331">
        <ele>1969.5</ele>
        <time>2013-08-10T11:54:36Z</time>
      </trkpt>
      <trkpt lat="42.359442" lon="1.993487">
        <ele>1968.6</ele>
        <time>2013-08-10T11:54:46Z</time>
      </trkpt>
      <trkpt lat="42.359533" lon="1.993626">
        <ele>1968.2</ele>
        <time>2013-08-10T11:54:59Z</time>
      </trkpt>
      <trkpt lat="42.359604" lon="1.993750">
        <ele>1966.9</ele>
        <time>2013-08-10T11:55:06Z</time>
      </trkpt>
      <trkpt lat="42.359730" lon="1.993932">
        <ele>1965.3</ele>
        <time>2013-08-10T11:55:21Z</time>
      </trkpt>
      <trkpt lat="42.359735" lon="1.993943">
        <ele>1965.2</ele>
        <time>2013-08-10T11:55:22Z</time>
      </trkpt>
      <trkpt lat="42.359808" lon="1.994068">
        <ele>1964.1</ele>
        <time>2013-08-10T11:55:29Z</time>
      </trkpt>
      <trkpt lat="42.359950" lon="1.994280">
        <ele>1960.8</ele>
        <time>2013-08-10T11:55:45Z</time>
      </trkpt>
      <trkpt lat="42.360035" lon="1.994571">
        <ele>1959.6</ele>
        <time>2013-08-10T11:56:01Z</time>
      </trkpt>
      <trkpt lat="42.360024" lon="1.994611">
        <ele>1959.7</ele>
        <time>2013-08-10T11:56:05Z</time>
      </trkpt>
      <trkpt lat="42.359943" lon="1.994794">
        <ele>1959.4</ele>
        <time>2013-08-10T11:56:20Z</time>
      </trkpt>
      <trkpt lat="42.359941" lon="1.994820">
        <ele>1959.5</ele>
        <time>2013-08-10T11:56:23Z</time>
      </trkpt>
      <trkpt lat="42.359913" lon="1.994865">
        <ele>1959.0</ele>
        <time>2013-08-10T11:56:26Z</time>
      </trkpt>
      <trkpt lat="42.359833" lon="1.995061">
        <ele>1958.3</ele>
        <time>2013-08-10T11:56:39Z</time>
      </trkpt>
      <trkpt lat="42.359796" lon="1.995149">
        <ele>1958.0</ele>
        <time>2013-08-10T11:56:45Z</time>
      </trkpt>
      <trkpt lat="42.359774" lon="1.995182">
        <ele>1957.0</ele>
        <time>2013-08-10T11:56:48Z</time>
      </trkpt>
      <trkpt lat="42.359704" lon="1.995307">
        <ele>1954.8</ele>
        <time>2013-08-10T11:56:56Z</time>
      </trkpt>
      <trkpt lat="42.359585" lon="1.995499">
        <ele>1952.1</ele>
        <time>2013-08-10T11:57:11Z</time>
      </trkpt>
      <trkpt lat="42.359517" lon="1.995723">
        <ele>1951.1</ele>
        <time>2013-08-10T11:57:24Z</time>
      </trkpt>
      <trkpt lat="42.359490" lon="1.995894">
        <ele>1950.2</ele>
        <time>2013-08-10T11:57:34Z</time>
      </trkpt>
      <trkpt lat="42.359359" lon="1.996130">
        <ele>1944.5</ele>
        <time>2013-08-10T11:57:51Z</time>
      </trkpt>
      <trkpt lat="42.359300" lon="1.996225">
        <ele>1943.0</ele>
        <time>2013-08-10T11:57:56Z</time>
      </trkpt>
      <trkpt lat="42.359120" lon="1.996487">
        <ele>1941.6</ele>
        <time>2013-08-10T11:58:10Z</time>
      </trkpt>
      <trkpt lat="42.358977" lon="1.996580">
        <ele>1941.3</ele>
        <time>2013-08-10T11:58:23Z</time>
      </trkpt>
      <trkpt lat="42.358936" lon="1.996592">
        <ele>1940.8</ele>
        <time>2013-08-10T11:58:27Z</time>
      </trkpt>
      <trkpt lat="42.358797" lon="1.996732">
        <ele>1941.1</ele>
        <time>2013-08-10T11:58:41Z</time>
      </trkpt>
      <trkpt lat="42.358667" lon="1.996892">
        <ele>1941.5</ele>
        <time>2013-08-10T11:58:55Z</time>
      </trkpt>
      <trkpt lat="42.358604" lon="1.996966">
        <ele>1941.8</ele>
        <time>2013-08-10T11:59:01Z</time>
      </trkpt>
      <trkpt lat="42.358533" lon="1.997061">
        <ele>1941.6</ele>
        <time>2013-08-10T11:59:09Z</time>
      </trkpt>
      <trkpt lat="42.358522" lon="1.997096">
        <ele>1942.1</ele>
        <time>2013-08-10T11:59:11Z</time>
      </trkpt>
      <trkpt lat="42.358396" lon="1.997335">
        <ele>1941.5</ele>
        <time>2013-08-10T11:59:26Z</time>
      </trkpt>
      <trkpt lat="42.358162" lon="1.997402">
        <ele>1938.6</ele>
        <time>2013-08-10T11:59:41Z</time>
      </trkpt>
      <trkpt lat="42.357986" lon="1.997474">
        <ele>1939.6</ele>
        <time>2013-08-10T11:59:55Z</time>
      </trkpt>
      <trkpt lat="42.357973" lon="1.997476">
        <ele>1939.6</ele>
        <time>2013-08-10T11:59:56Z</time>
      </trkpt>
      <trkpt lat="42.357803" lon="1.997529">
        <ele>1939.8</ele>
        <time>2013-08-10T12:00:09Z</time>
      </trkpt>
      <trkpt lat="42.357642" lon="1.997568">
        <ele>1939.8</ele>
        <time>2013-08-10T12:00:24Z</time>
      </trkpt>
      <trkpt lat="42.357511" lon="1.997603">
        <ele>1940.3</ele>
        <time>2013-08-10T12:00:36Z</time>
      </trkpt>
      <trkpt lat="42.357349" lon="1.997686">
        <ele>1942.8</ele>
        <time>2013-08-10T12:00:50Z</time>
      </trkpt>
      <trkpt lat="42.357219" lon="1.997759">
        <ele>1944.4</ele>
        <time>2013-08-10T12:01:01Z</time>
      </trkpt>
      <trkpt lat="42.357129" lon="1.997792">
        <ele>1944.8</ele>
        <time>2013-08-10T12:01:12Z</time>
      </trkpt>
      <trkpt lat="42.356963" lon="1.997853">
        <ele>1944.2</ele>
        <time>2013-08-10T12:01:25Z</time>
      </trkpt>
      <trkpt lat="42.356896" lon="1.997869">
        <ele>1943.0</ele>
        <time>2013-08-10T12:01:30Z</time>
      </trkpt>
      <trkpt lat="42.356861" lon="1.997885">
        <ele>1942.7</ele>
        <time>2013-08-10T12:01:32Z</time>
      </trkpt>
      <trkpt lat="42.356635" lon="1.997991">
        <ele>1941.3</ele>
        <time>2013-08-10T12:01:47Z</time>
      </trkpt>
      <trkpt lat="42.356566" lon="1.998005">
        <ele>1941.0</ele>
        <time>2013-08-10T12:01:52Z</time>
      </trkpt>
      <trkpt lat="42.356439" lon="1.998063">
        <ele>1941.1</ele>
        <time>2013-08-10T12:02:04Z</time>
      </trkpt>
      <trkpt lat="42.356283" lon="1.998134">
        <ele>1939.8</ele>
        <time>2013-08-10T12:02:17Z</time>
      </trkpt>
      <trkpt lat="42.356118" lon="1.998220">
        <ele>1939.8</ele>
        <time>2013-08-10T12:02:31Z</time>
      </trkpt>
      <trkpt lat="42.355940" lon="1.998446">
        <ele>1940.4</ele>
        <time>2013-08-10T12:02:46Z</time>
      </trkpt>
      <trkpt lat="42.355812" lon="1.998639">
        <ele>1938.0</ele>
        <time>2013-08-10T12:03:01Z</time>
      </trkpt>
      <trkpt lat="42.355735" lon="1.998807">
        <ele>1935.9</ele>
        <time>2013-08-10T12:03:13Z</time>
      </trkpt>
      <trkpt lat="42.355692" lon="1.998978">
        <ele>1934.1</ele>
        <time>2013-08-10T12:03:27Z</time>
      </trkpt>
      <trkpt lat="42.355656" lon="1.999196">
        <ele>1932.3</ele>
        <time>2013-08-10T12:03:41Z</time>
      </trkpt>
      <trkpt lat="42.355620" lon="1.999438">
        <ele>1929.8</ele>
        <time>2013-08-10T12:03:55Z</time>
      </trkpt>
      <trkpt lat="42.355593" lon="1.999693">
        <ele>1928.2</ele>
        <time>2013-08-10T12:04:08Z</time>
      </trkpt>
      <trkpt lat="42.355554" lon="1.999869">
        <ele>1925.2</ele>
        <time>2013-08-10T12:04:20Z</time>
      </trkpt>
      <trkpt lat="42.355527" lon="2.000070">
        <ele>1924.5</ele>
        <time>2013-08-10T12:04:30Z</time>
      </trkpt>
      <trkpt lat="42.355476" lon="2.000327">
        <ele>1924.7</ele>
        <time>2013-08-10T12:04:43Z</time>
      </trkpt>
      <trkpt lat="42.355448" lon="2.000422">
        <ele>1923.5</ele>
        <time>2013-08-10T12:04:49Z</time>
      </trkpt>
      <trkpt lat="42.355419" lon="2.000637">
        <ele>1924.6</ele>
        <time>2013-08-10T12:05:02Z</time>
      </trkpt>
      <trkpt lat="42.355409" lon="2.000884">
        <ele>1926.1</ele>
        <time>2013-08-10T12:05:16Z</time>
      </trkpt>
      <trkpt lat="42.355400" lon="2.001060">
        <ele>1925.8</ele>
        <time>2013-08-10T12:05:27Z</time>
      </trkpt>
      <trkpt lat="42.355420" lon="2.001200">
        <ele>1926.2</ele>
        <time>2013-08-10T12:05:35Z</time>
      </trkpt>
      <trkpt lat="42.355430" lon="2.001421">
        <ele>1924.8</ele>
        <time>2013-08-10T12:05:49Z</time>
      </trkpt>
      <trkpt lat="42.355478" lon="2.001667">
        <ele>1923.8</ele>
        <time>2013-08-10T12:06:05Z</time>
      </trkpt>
      <trkpt lat="42.355546" lon="2.001956">
        <ele>1922.5</ele>
        <time>2013-08-10T12:06:21Z</time>
      </trkpt>
      <trkpt lat="42.355603" lon="2.002197">
        <ele>1919.9</ele>
        <time>2013-08-10T12:06:36Z</time>
      </trkpt>
      <trkpt lat="42.355630" lon="2.002315">
        <ele>1918.7</ele>
        <time>2013-08-10T12:06:42Z</time>
      </trkpt>
      <trkpt lat="42.355699" lon="2.002516">
        <ele>1917.8</ele>
        <time>2013-08-10T12:06:55Z</time>
      </trkpt>
      <trkpt lat="42.355765" lon="2.002662">
        <ele>1917.1</ele>
        <time>2013-08-10T12:07:05Z</time>
      </trkpt>
      <trkpt lat="42.355845" lon="2.002914">
        <ele>1914.2</ele>
        <time>2013-08-10T12:07:21Z</time>
      </trkpt>
      <trkpt lat="42.355851" lon="2.002931">
        <ele>1914.1</ele>
        <time>2013-08-10T12:07:22Z</time>
      </trkpt>
      <trkpt lat="42.355938" lon="2.003151">
        <ele>1913.8</ele>
        <time>2013-08-10T12:07:37Z</time>
      </trkpt>
      <trkpt lat="42.355940" lon="2.003175">
        <ele>1913.4</ele>
        <time>2013-08-10T12:07:39Z</time>
      </trkpt>
      <trkpt lat="42.355897" lon="2.003376">
        <ele>1909.1</ele>
        <time>2013-08-10T12:16:20Z</time>
      </trkpt>
      <trkpt lat="42.355866" lon="2.003422">
        <ele>1909.8</ele>
        <time>2013-08-10T12:16:36Z</time>
      </trkpt>
      <trkpt lat="42.355828" lon="2.003486">
        <ele>1911.2</ele>
        <time>2013-08-10T12:16:42Z</time>
      </trkpt>
      <trkpt lat="42.355758" lon="2.003594">
        <ele>1912.8</ele>
        <time>2013-08-10T12:16:52Z</time>
      </trkpt>
      <trkpt lat="42.355736" lon="2.003632">
        <ele>1913.1</ele>
        <time>2013-08-10T12:16:56Z</time>
      </trkpt>
      <trkpt lat="42.355637" lon="2.003775">
        <ele>1914.4</ele>
        <time>2013-08-10T12:17:10Z</time>
      </trkpt>
      <trkpt lat="42.355527" lon="2.003897">
        <ele>1914.5</ele>
        <time>2013-08-10T12:17:23Z</time>
      </trkpt>
      <trkpt lat="42.355417" lon="2.004024">
        <ele>1914.6</ele>
        <time>2013-08-10T12:17:36Z</time>
      </trkpt>
      <trkpt lat="42.355305" lon="2.004148">
        <ele>1915.1</ele>
        <time>2013-08-10T12:17:50Z</time>
      </trkpt>
      <trkpt lat="42.355167" lon="2.004297">
        <ele>1916.0</ele>
        <time>2013-08-10T12:18:04Z</time>
      </trkpt>
      <trkpt lat="42.355030" lon="2.004388">
        <ele>1916.0</ele>
        <time>2013-08-10T12:18:16Z</time>
      </trkpt>
      <trkpt lat="42.354915" lon="2.004497">
        <ele>1916.8</ele>
        <time>2013-08-10T12:18:29Z</time>
      </trkpt>
      <trkpt lat="42.354801" lon="2.004613">
        <ele>1917.3</ele>
        <time>2013-08-10T12:18:41Z</time>
      </trkpt>
      <trkpt lat="42.354699" lon="2.004740">
        <ele>1917.8</ele>
        <time>2013-08-10T12:18:53Z</time>
      </trkpt>
      <trkpt lat="42.354645" lon="2.004825">
        <ele>1917.2</ele>
        <time>2013-08-10T12:19:01Z</time>
      </trkpt>
      <trkpt lat="42.354568" lon="2.004982">
        <ele>1919.9</ele>
        <time>2013-08-10T12:19:15Z</time>
      </trkpt>
      <trkpt lat="42.354460" lon="2.005150">
        <ele>1920.9</ele>
        <time>2013-08-10T12:19:28Z</time>
      </trkpt>
      <trkpt lat="42.354357" lon="2.005314">
        <ele>1921.4</ele>
        <time>2013-08-10T12:19:41Z</time>
      </trkpt>
      <trkpt lat="42.354191" lon="2.005466">
        <ele>1920.9</ele>
        <time>2013-08-10T12:19:57Z</time>
      </trkpt>
      <trkpt lat="42.354167" lon="2.005486">
        <ele>1920.8</ele>
        <time>2013-08-10T12:19:59Z</time>
      </trkpt>
      <trkpt lat="42.353989" lon="2.005650">
        <ele>1921.0</ele>
        <time>2013-08-10T12:20:15Z</time>
      </trkpt>
      <trkpt lat="42.353886" lon="2.005776">
        <ele>1921.2</ele>
        <time>2013-08-10T12:20:26Z</time>
      </trkpt>
      <trkpt lat="42.353739" lon="2.005938">
        <ele>1921.4</ele>
        <time>2013-08-10T12:20:41Z</time>
      </trkpt>
      <trkpt lat="42.353644" lon="2.006103">
        <ele>1921.7</ele>
        <time>2013-08-10T12:20:54Z</time>
      </trkpt>
      <trkpt lat="42.353505" lon="2.006290">
        <ele>1921.1</ele>
        <time>2013-08-10T12:21:10Z</time>
      </trkpt>
      <trkpt lat="42.353410" lon="2.006452">
        <ele>1921.3</ele>
        <time>2013-08-10T12:21:23Z</time>
      </trkpt>
      <trkpt lat="42.353322" lon="2.006681">
        <ele>1921.6</ele>
        <time>2013-08-10T12:21:38Z</time>
      </trkpt>
      <trkpt lat="42.353240" lon="2.006921">
        <ele>1921.5</ele>
        <time>2013-08-10T12:21:53Z</time>
      </trkpt>
      <trkpt lat="42.353180" lon="2.007149">
        <ele>1921.5</ele>
        <time>2013-08-10T12:22:07Z</time>
      </trkpt>
      <trkpt lat="42.353128" lon="2.007365">
        <ele>1922.0</ele>
        <time>2013-08-10T12:22:21Z</time>
      </trkpt>
      <trkpt lat="42.353058" lon="2.007641">
        <ele>1921.8</ele>
        <time>2013-08-10T12:22:38Z</time>
      </trkpt>
      <trkpt lat="42.352991" lon="2.007878">
        <ele>1921.3</ele>
        <time>2013-08-10T12:22:52Z</time>
      </trkpt>
      <trkpt lat="42.352954" lon="2.008177">
        <ele>1921.6</ele>
        <time>2013-08-10T12:23:09Z</time>
      </trkpt>
      <trkpt lat="42.352918" lon="2.008417">
        <ele>1921.1</ele>
        <time>2013-08-10T12:23:23Z</time>
      </trkpt>
      <trkpt lat="42.352889" lon="2.008662">
        <ele>1920.5</ele>
        <time>2013-08-10T12:23:37Z</time>
      </trkpt>
      <trkpt lat="42.352875" lon="2.008862">
        <ele>1920.0</ele>
        <time>2013-08-10T12:23:48Z</time>
      </trkpt>
      <trkpt lat="42.352828" lon="2.009110">
        <ele>1918.6</ele>
        <time>2013-08-10T12:24:04Z</time>
      </trkpt>
      <trkpt lat="42.352834" lon="2.009403">
        <ele>1918.4</ele>
        <time>2013-08-10T12:24:20Z</time>
      </trkpt>
      <trkpt lat="42.352869" lon="2.009626">
        <ele>1919.6</ele>
        <time>2013-08-10T12:24:34Z</time>
      </trkpt>
      <trkpt lat="42.352910" lon="2.009812">
        <ele>1919.1</ele>
        <time>2013-08-10T12:24:47Z</time>
      </trkpt>
      <trkpt lat="42.352900" lon="2.009932">
        <ele>1916.1</ele>
        <time>2013-08-10T12:24:54Z</time>
      </trkpt>
      <trkpt lat="42.352900" lon="2.010059">
        <ele>1913.3</ele>
        <time>2013-08-10T12:25:01Z</time>
      </trkpt>
      <trkpt lat="42.352900" lon="2.010078">
        <ele>1912.9</ele>
        <time>2013-08-10T12:25:02Z</time>
      </trkpt>
      <trkpt lat="42.352903" lon="2.010145">
        <ele>1911.8</ele>
        <time>2013-08-10T12:25:06Z</time>
      </trkpt>
      <trkpt lat="42.352907" lon="2.010221">
        <ele>1910.9</ele>
        <time>2013-08-10T12:25:17Z</time>
      </trkpt>
      <trkpt lat="42.352893" lon="2.010386">
        <ele>1908.6</ele>
        <time>2013-08-10T12:25:25Z</time>
      </trkpt>
      <trkpt lat="42.352917" lon="2.010622">
        <ele>1908.0</ele>
        <time>2013-08-10T12:25:39Z</time>
      </trkpt>
      <trkpt lat="42.352915" lon="2.010619">
        <ele>1907.9</ele>
        <time>2013-08-10T12:25:56Z</time>
      </trkpt>
      <trkpt lat="42.352911" lon="2.010621">
        <ele>1907.7</ele>
        <time>2013-08-10T12:26:20Z</time>
      </trkpt>
      <trkpt lat="42.352910" lon="2.010646">
        <ele>1907.2</ele>
        <time>2013-08-10T12:26:40Z</time>
      </trkpt>
      <trkpt lat="42.352917" lon="2.010938">
        <ele>1904.8</ele>
        <time>2013-08-10T12:26:57Z</time>
      </trkpt>
      <trkpt lat="42.352916" lon="2.010971">
        <ele>1904.1</ele>
        <time>2013-08-10T12:26:59Z</time>
      </trkpt>
      <trkpt lat="42.352932" lon="2.011078">
        <ele>1903.5</ele>
        <time>2013-08-10T12:27:03Z</time>
      </trkpt>
      <trkpt lat="42.352964" lon="2.011394">
        <ele>1901.5</ele>
        <time>2013-08-10T12:27:15Z</time>
      </trkpt>
      <trkpt lat="42.353020" lon="2.011678">
        <ele>1900.0</ele>
        <time>2013-08-10T12:27:26Z</time>
      </trkpt>
      <trkpt lat="42.353089" lon="2.011950">
        <ele>1896.7</ele>
        <time>2013-08-10T12:27:38Z</time>
      </trkpt>
      <trkpt lat="42.353092" lon="2.011977">
        <ele>1895.6</ele>
        <time>2013-08-10T12:27:39Z</time>
      </trkpt>
      <trkpt lat="42.353018" lon="2.012153">
        <ele>1895.0</ele>
        <time>2013-08-10T12:27:47Z</time>
      </trkpt>
      <trkpt lat="42.352862" lon="2.012353">
        <ele>1896.3</ele>
        <time>2013-08-10T12:28:01Z</time>
      </trkpt>
      <trkpt lat="42.352745" lon="2.012619">
        <ele>1894.8</ele>
        <time>2013-08-10T12:28:17Z</time>
      </trkpt>
      <trkpt lat="42.352680" lon="2.012581">
        <ele>1892.4</ele>
        <time>2013-08-10T12:29:59Z</time>
      </trkpt>
      <trkpt lat="42.352572" lon="2.012499">
        <ele>1896.8</ele>
        <time>2013-08-10T12:30:08Z</time>
      </trkpt>
      <trkpt lat="42.352442" lon="2.012542">
        <ele>1897.6</ele>
        <time>2013-08-10T12:30:21Z</time>
      </trkpt>
      <trkpt lat="42.352317" lon="2.012561">
        <ele>1898.7</ele>
        <time>2013-08-10T12:44:47Z</time>
      </trkpt>
      <trkpt lat="42.352296" lon="2.012554">
        <ele>1898.6</ele>
        <time>2013-08-10T12:45:05Z</time>
      </trkpt>
      <trkpt lat="42.352296" lon="2.012554">
        <ele>1898.6</ele>
        <time>2013-08-10T12:45:29Z</time>
      </trkpt>
      <trkpt lat="42.352266" lon="2.012535">
        <ele>1898.6</ele>
        <time>2013-08-10T12:45:43Z</time>
      </trkpt>
      <trkpt lat="42.352217" lon="2.012495">
        <ele>1898.8</ele>
        <time>2013-08-10T12:45:55Z</time>
      </trkpt>
      <trkpt lat="42.352198" lon="2.012489">
        <ele>1898.9</ele>
        <time>2013-08-10T12:45:57Z</time>
      </trkpt>
      <trkpt lat="42.352072" lon="2.012441">
        <ele>1900.4</ele>
        <time>2013-08-10T12:46:09Z</time>
      </trkpt>
      <trkpt lat="42.352008" lon="2.012408">
        <ele>1900.9</ele>
        <time>2013-08-10T12:46:16Z</time>
      </trkpt>
      <trkpt lat="42.351880" lon="2.012303">
        <ele>1900.9</ele>
        <time>2013-08-10T12:46:28Z</time>
      </trkpt>
      <trkpt lat="42.351775" lon="2.012279">
        <ele>1903.0</ele>
        <time>2013-08-10T12:46:39Z</time>
      </trkpt>
      <trkpt lat="42.351757" lon="2.012274">
        <ele>1903.3</ele>
        <time>2013-08-10T12:46:41Z</time>
      </trkpt>
      <trkpt lat="42.351659" lon="2.012270">
        <ele>1906.0</ele>
        <time>2013-08-10T12:46:52Z</time>
      </trkpt>
      <trkpt lat="42.351579" lon="2.012247">
        <ele>1906.6</ele>
        <time>2013-08-10T12:47:03Z</time>
      </trkpt>
      <trkpt lat="42.351572" lon="2.012246">
        <ele>1906.7</ele>
        <time>2013-08-10T12:47:04Z</time>
      </trkpt>
      <trkpt lat="42.351539" lon="2.012242">
        <ele>1907.4</ele>
        <time>2013-08-10T12:47:08Z</time>
      </trkpt>
      <trkpt lat="42.351437" lon="2.012232">
        <ele>1909.4</ele>
        <time>2013-08-10T12:47:20Z</time>
      </trkpt>
      <trkpt lat="42.351376" lon="2.012225">
        <ele>1910.5</ele>
        <time>2013-08-10T12:47:26Z</time>
      </trkpt>
      <trkpt lat="42.351250" lon="2.012231">
        <ele>1913.2</ele>
        <time>2013-08-10T12:47:38Z</time>
      </trkpt>
      <trkpt lat="42.351163" lon="2.012223">
        <ele>1914.1</ele>
        <time>2013-08-10T12:47:48Z</time>
      </trkpt>
      <trkpt lat="42.351087" lon="2.012238">
        <ele>1916.1</ele>
        <time>2013-08-10T12:47:56Z</time>
      </trkpt>
      <trkpt lat="42.351058" lon="2.012240">
        <ele>1916.6</ele>
        <time>2013-08-10T12:47:59Z</time>
      </trkpt>
      <trkpt lat="42.350963" lon="2.012254">
        <ele>1918.6</ele>
        <time>2013-08-10T12:48:10Z</time>
      </trkpt>
      <trkpt lat="42.350882" lon="2.012273">
        <ele>1920.7</ele>
        <time>2013-08-10T12:48:20Z</time>
      </trkpt>
      <trkpt lat="42.350801" lon="2.012282">
        <ele>1922.2</ele>
        <time>2013-08-10T12:48:30Z</time>
      </trkpt>
      <trkpt lat="42.350756" lon="2.012283">
        <ele>1922.9</ele>
        <time>2013-08-10T12:48:36Z</time>
      </trkpt>
      <trkpt lat="42.350670" lon="2.012276">
        <ele>1924.2</ele>
        <time>2013-08-10T12:48:45Z</time>
      </trkpt>
      <trkpt lat="42.350541" lon="2.012289">
        <ele>1926.8</ele>
        <time>2013-08-10T12:48:59Z</time>
      </trkpt>
      <trkpt lat="42.350443" lon="2.012272">
        <ele>1927.9</ele>
        <time>2013-08-10T12:49:09Z</time>
      </trkpt>
      <trkpt lat="42.350339" lon="2.012285">
        <ele>1930.2</ele>
        <time>2013-08-10T12:49:21Z</time>
      </trkpt>
      <trkpt lat="42.350332" lon="2.012285">
        <ele>1930.2</ele>
        <time>2013-08-10T12:49:22Z</time>
      </trkpt>
      <trkpt lat="42.350245" lon="2.012294">
        <ele>1930.8</ele>
        <time>2013-08-10T12:49:31Z</time>
      </trkpt>
      <trkpt lat="42.350105" lon="2.012344">
        <ele>1933.0</ele>
        <time>2013-08-10T12:49:44Z</time>
      </trkpt>
      <trkpt lat="42.350027" lon="2.012385">
        <ele>1934.6</ele>
        <time>2013-08-10T12:49:52Z</time>
      </trkpt>
      <trkpt lat="42.349982" lon="2.012402">
        <ele>1935.5</ele>
        <time>2013-08-10T12:49:56Z</time>
      </trkpt>
      <trkpt lat="42.349867" lon="2.012461">
        <ele>1937.4</ele>
        <time>2013-08-10T12:50:06Z</time>
      </trkpt>
      <trkpt lat="42.349742" lon="2.012548">
        <ele>1939.8</ele>
        <time>2013-08-10T12:50:18Z</time>
      </trkpt>
      <trkpt lat="42.349728" lon="2.012565">
        <ele>1940.2</ele>
        <time>2013-08-10T12:50:20Z</time>
      </trkpt>
      <trkpt lat="42.349607" lon="2.012666">
        <ele>1942.2</ele>
        <time>2013-08-10T12:50:34Z</time>
      </trkpt>
      <trkpt lat="42.349517" lon="2.012746">
        <ele>1943.8</ele>
        <time>2013-08-10T12:50:45Z</time>
      </trkpt>
      <trkpt lat="42.349422" lon="2.012855">
        <ele>1945.8</ele>
        <time>2013-08-10T12:50:58Z</time>
      </trkpt>
      <trkpt lat="42.349366" lon="2.012900">
        <ele>1946.3</ele>
        <time>2013-08-10T12:51:04Z</time>
      </trkpt>
      <trkpt lat="42.349274" lon="2.013019">
        <ele>1948.7</ele>
        <time>2013-08-10T12:51:16Z</time>
      </trkpt>
      <trkpt lat="42.349229" lon="2.013058">
        <ele>1949.3</ele>
        <time>2013-08-10T12:51:20Z</time>
      </trkpt>
      <trkpt lat="42.349121" lon="2.013178">
        <ele>1951.2</ele>
        <time>2013-08-10T12:51:32Z</time>
      </trkpt>
      <trkpt lat="42.349038" lon="2.013294">
        <ele>1953.1</ele>
        <time>2013-08-10T12:51:42Z</time>
      </trkpt>
      <trkpt lat="42.348959" lon="2.013390">
        <ele>1954.7</ele>
        <time>2013-08-10T12:51:52Z</time>
      </trkpt>
      <trkpt lat="42.348916" lon="2.013445">
        <ele>1955.6</ele>
        <time>2013-08-10T12:51:58Z</time>
      </trkpt>
      <trkpt lat="42.348896" lon="2.013472">
        <ele>1956.3</ele>
        <time>2013-08-10T12:52:01Z</time>
      </trkpt>
      <trkpt lat="42.348786" lon="2.013585">
        <ele>1958.1</ele>
        <time>2013-08-10T12:52:15Z</time>
      </trkpt>
      <trkpt lat="42.348738" lon="2.013661">
        <ele>1959.2</ele>
        <time>2013-08-10T12:52:22Z</time>
      </trkpt>
      <trkpt lat="42.348604" lon="2.013761">
        <ele>1960.6</ele>
        <time>2013-08-10T12:52:35Z</time>
      </trkpt>
      <trkpt lat="42.348518" lon="2.013839">
        <ele>1962.3</ele>
        <time>2013-08-10T12:52:46Z</time>
      </trkpt>
      <trkpt lat="42.348435" lon="2.013913">
        <ele>1964.5</ele>
        <time>2013-08-10T12:52:56Z</time>
      </trkpt>
      <trkpt lat="42.348345" lon="2.013979">
        <ele>1967.1</ele>
        <time>2013-08-10T12:53:06Z</time>
      </trkpt>
      <trkpt lat="42.348272" lon="2.014039">
        <ele>1969.3</ele>
        <time>2013-08-10T12:53:18Z</time>
      </trkpt>
      <trkpt lat="42.348188" lon="2.014102">
        <ele>1971.5</ele>
        <time>2013-08-10T12:53:29Z</time>
      </trkpt>
      <trkpt lat="42.348111" lon="2.014153">
        <ele>1973.9</ele>
        <time>2013-08-10T12:53:40Z</time>
      </trkpt>
      <trkpt lat="42.348025" lon="2.014232">
        <ele>1976.7</ele>
        <time>2013-08-10T12:53:51Z</time>
      </trkpt>
      <trkpt lat="42.347941" lon="2.014308">
        <ele>1978.6</ele>
        <time>2013-08-10T12:54:01Z</time>
      </trkpt>
      <trkpt lat="42.347830" lon="2.014414">
        <ele>1981.2</ele>
        <time>2013-08-10T12:54:12Z</time>
      </trkpt>
      <trkpt lat="42.347792" lon="2.014445">
        <ele>1982.0</ele>
        <time>2013-08-10T12:54:17Z</time>
      </trkpt>
      <trkpt lat="42.347716" lon="2.014565">
        <ele>1984.4</ele>
        <time>2013-08-10T12:54:30Z</time>
      </trkpt>
      <trkpt lat="42.347711" lon="2.014573">
        <ele>1984.5</ele>
        <time>2013-08-10T12:54:31Z</time>
      </trkpt>
      <trkpt lat="42.347679" lon="2.014624">
        <ele>1985.4</ele>
        <time>2013-08-10T12:54:35Z</time>
      </trkpt>
      <trkpt lat="42.347636" lon="2.014706">
        <ele>1986.7</ele>
        <time>2013-08-10T12:54:43Z</time>
      </trkpt>
      <trkpt lat="42.347611" lon="2.014810">
        <ele>1987.6</ele>
        <time>2013-08-10T12:54:54Z</time>
      </trkpt>
      <trkpt lat="42.347578" lon="2.014901">
        <ele>1988.0</ele>
        <time>2013-08-10T12:55:00Z</time>
      </trkpt>
      <trkpt lat="42.347523" lon="2.015021">
        <ele>1988.6</ele>
        <time>2013-08-10T12:55:09Z</time>
      </trkpt>
      <trkpt lat="42.347423" lon="2.015193">
        <ele>1990.0</ele>
        <time>2013-08-10T12:55:23Z</time>
      </trkpt>
      <trkpt lat="42.347361" lon="2.015309">
        <ele>1990.9</ele>
        <time>2013-08-10T12:55:31Z</time>
      </trkpt>
      <trkpt lat="42.347339" lon="2.015341">
        <ele>1991.2</ele>
        <time>2013-08-10T12:55:34Z</time>
      </trkpt>
      <trkpt lat="42.347248" lon="2.015527">
        <ele>1992.5</ele>
        <time>2013-08-10T12:55:48Z</time>
      </trkpt>
      <trkpt lat="42.347246" lon="2.015531">
        <ele>1992.5</ele>
        <time>2013-08-10T12:56:02Z</time>
      </trkpt>
      <trkpt lat="42.347246" lon="2.015531">
        <ele>1992.5</ele>
        <time>2013-08-10T12:56:03Z</time>
      </trkpt>
      <trkpt lat="42.347302" lon="2.015614">
        <ele>1993.1</ele>
        <time>2013-08-10T12:56:16Z</time>
      </trkpt>
      <trkpt lat="42.347212" lon="2.015745">
        <ele>1993.5</ele>
        <time>2013-08-10T12:56:28Z</time>
      </trkpt>
      <trkpt lat="42.347176" lon="2.015799">
        <ele>1993.6</ele>
        <time>2013-08-10T12:56:33Z</time>
      </trkpt>
      <trkpt lat="42.347158" lon="2.015870">
        <ele>1993.8</ele>
        <time>2013-08-10T12:56:38Z</time>
      </trkpt>
      <trkpt lat="42.347104" lon="2.015995">
        <ele>1993.9</ele>
        <time>2013-08-10T12:56:54Z</time>
      </trkpt>
      <trkpt lat="42.347098" lon="2.016073">
        <ele>1993.9</ele>
        <time>2013-08-10T13:01:11Z</time>
      </trkpt>
      <trkpt lat="42.347063" lon="2.016102">
        <ele>1993.9</ele>
        <time>2013-08-10T13:01:19Z</time>
      </trkpt>
      <trkpt lat="42.346950" lon="2.016126">
        <ele>1994.1</ele>
        <time>2013-08-10T13:01:29Z</time>
      </trkpt>
      <trkpt lat="42.346826" lon="2.016159">
        <ele>1994.7</ele>
        <time>2013-08-10T13:01:40Z</time>
      </trkpt>
      <trkpt lat="42.346767" lon="2.016169">
        <ele>1995.0</ele>
        <time>2013-08-10T13:01:47Z</time>
      </trkpt>
      <trkpt lat="42.346742" lon="2.016196">
        <ele>1994.8</ele>
        <time>2013-08-10T13:01:51Z</time>
      </trkpt>
      <trkpt lat="42.346685" lon="2.016370">
        <ele>1993.7</ele>
        <time>2013-08-10T13:02:05Z</time>
      </trkpt>
      <trkpt lat="42.346680" lon="2.016468">
        <ele>1993.0</ele>
        <time>2013-08-10T13:02:17Z</time>
      </trkpt>
      <trkpt lat="42.346698" lon="2.016667">
        <ele>1991.4</ele>
        <time>2013-08-10T13:02:30Z</time>
      </trkpt>
      <trkpt lat="42.346688" lon="2.016945">
        <ele>1988.7</ele>
        <time>2013-08-10T13:02:46Z</time>
      </trkpt>
      <trkpt lat="42.346654" lon="2.017124">
        <ele>1987.5</ele>
        <time>2013-08-10T13:02:59Z</time>
      </trkpt>
      <trkpt lat="42.346604" lon="2.017218">
        <ele>1986.3</ele>
        <time>2013-08-10T13:03:11Z</time>
      </trkpt>
      <trkpt lat="42.346600" lon="2.017349">
        <ele>1985.7</ele>
        <time>2013-08-10T13:54:56Z</time>
      </trkpt>
      <trkpt lat="42.346588" lon="2.017484">
        <ele>1985.1</ele>
        <time>2013-08-10T13:55:08Z</time>
      </trkpt>
      <trkpt lat="42.346603" lon="2.017686">
        <ele>1984.4</ele>
        <time>2013-08-10T13:55:21Z</time>
      </trkpt>
      <trkpt lat="42.346597" lon="2.017712">
        <ele>1984.2</ele>
        <time>2013-08-10T13:55:23Z</time>
      </trkpt>
      <trkpt lat="42.346587" lon="2.017890">
        <ele>1984.1</ele>
        <time>2013-08-10T13:55:36Z</time>
      </trkpt>
      <trkpt lat="42.346579" lon="2.018019">
        <ele>1983.9</ele>
        <time>2013-08-10T13:55:47Z</time>
      </trkpt>
      <trkpt lat="42.346576" lon="2.018082">
        <ele>1983.7</ele>
        <time>2013-08-10T13:55:52Z</time>
      </trkpt>
      <trkpt lat="42.346536" lon="2.018272">
        <ele>1982.9</ele>
        <time>2013-08-10T13:56:06Z</time>
      </trkpt>
      <trkpt lat="42.346528" lon="2.018303">
        <ele>1982.7</ele>
        <time>2013-08-10T13:56:09Z</time>
      </trkpt>
      <trkpt lat="42.346523" lon="2.018374">
        <ele>1982.3</ele>
        <time>2013-08-10T13:56:23Z</time>
      </trkpt>
      <trkpt lat="42.346521" lon="2.018384">
        <ele>1982.2</ele>
        <time>2013-08-10T13:56:24Z</time>
      </trkpt>
      <trkpt lat="42.346517" lon="2.018507">
        <ele>1982.5</ele>
        <time>2013-08-10T13:56:36Z</time>
      </trkpt>
      <trkpt lat="42.346496" lon="2.018521">
        <ele>1981.8</ele>
        <time>2013-08-10T13:56:50Z</time>
      </trkpt>
      <trkpt lat="42.346471" lon="2.018516">
        <ele>1980.9</ele>
        <time>2013-08-10T13:57:03Z</time>
      </trkpt>
      <trkpt lat="42.346462" lon="2.018522">
        <ele>1980.6</ele>
        <time>2013-08-10T13:57:15Z</time>
      </trkpt>
      <trkpt lat="42.346413" lon="2.018489">
        <ele>1979.2</ele>
        <time>2013-08-10T13:57:25Z</time>
      </trkpt>
      <trkpt lat="42.346355" lon="2.018505">
        <ele>1977.7</ele>
        <time>2013-08-10T13:57:37Z</time>
      </trkpt>
      <trkpt lat="42.346280" lon="2.018523">
        <ele>1975.4</ele>
        <time>2013-08-10T13:57:51Z</time>
      </trkpt>
      <trkpt lat="42.346247" lon="2.018529">
        <ele>1974.6</ele>
        <time>2013-08-10T13:58:04Z</time>
      </trkpt>
      <trkpt lat="42.346222" lon="2.018508">
        <ele>1974.2</ele>
        <time>2013-08-10T13:58:21Z</time>
      </trkpt>
      <trkpt lat="42.346171" lon="2.018472">
        <ele>1972.7</ele>
        <time>2013-08-10T13:58:37Z</time>
      </trkpt>
      <trkpt lat="42.346133" lon="2.018518">
        <ele>1971.1</ele>
        <time>2013-08-10T13:58:51Z</time>
      </trkpt>
      <trkpt lat="42.346050" lon="2.018605">
        <ele>1968.5</ele>
        <time>2013-08-10T13:59:04Z</time>
      </trkpt>
      <trkpt lat="42.346009" lon="2.018690">
        <ele>1967.6</ele>
        <time>2013-08-10T13:59:15Z</time>
      </trkpt>
      <trkpt lat="42.345944" lon="2.018830">
        <ele>1966.1</ele>
        <time>2013-08-10T13:59:28Z</time>
      </trkpt>
      <trkpt lat="42.345931" lon="2.018786">
        <ele>1965.3</ele>
        <time>2013-08-10T14:03:41Z</time>
      </trkpt>
      <trkpt lat="42.345935" lon="2.018742">
        <ele>1965.5</ele>
        <time>2013-08-10T14:03:45Z</time>
      </trkpt>
      <trkpt lat="42.345909" lon="2.018664">
        <ele>1965.2</ele>
        <time>2013-08-10T14:03:58Z</time>
      </trkpt>
      <trkpt lat="42.345909" lon="2.018664">
        <ele>1965.2</ele>
        <time>2013-08-10T14:04:02Z</time>
      </trkpt>
      <trkpt lat="42.345876" lon="2.018737">
        <ele>1964.2</ele>
        <time>2013-08-10T14:04:10Z</time>
      </trkpt>
      <trkpt lat="42.345834" lon="2.018782">
        <ele>1962.9</ele>
        <time>2013-08-10T14:04:16Z</time>
      </trkpt>
      <trkpt lat="42.345821" lon="2.018797">
        <ele>1962.4</ele>
        <time>2013-08-10T14:04:18Z</time>
      </trkpt>
      <trkpt lat="42.345702" lon="2.018781">
        <ele>1958.5</ele>
        <time>2013-08-10T14:04:30Z</time>
      </trkpt>
      <trkpt lat="42.345672" lon="2.018778">
        <ele>1957.5</ele>
        <time>2013-08-10T14:04:34Z</time>
      </trkpt>
      <trkpt lat="42.345655" lon="2.018786">
        <ele>1957.1</ele>
        <time>2013-08-10T14:04:38Z</time>
      </trkpt>
      <trkpt lat="42.345623" lon="2.018841">
        <ele>1956.1</ele>
        <time>2013-08-10T14:04:49Z</time>
      </trkpt>
      <trkpt lat="42.345623" lon="2.018841">
        <ele>1956.1</ele>
        <time>2013-08-10T14:05:12Z</time>
      </trkpt>
      <trkpt lat="42.345589" lon="2.018841">
        <ele>1955.0</ele>
        <time>2013-08-10T14:05:17Z</time>
      </trkpt>
      <trkpt lat="42.345495" lon="2.018821">
        <ele>1951.8</ele>
        <time>2013-08-10T14:05:28Z</time>
      </trkpt>
      <trkpt lat="42.345468" lon="2.018799">
        <ele>1950.6</ele>
        <time>2013-08-10T14:05:33Z</time>
      </trkpt>
      <trkpt lat="42.345451" lon="2.018753">
        <ele>1949.4</ele>
        <time>2013-08-10T14:05:46Z</time>
      </trkpt>
      <trkpt lat="42.345372" lon="2.018665">
        <ele>1945.2</ele>
        <time>2013-08-10T14:05:58Z</time>
      </trkpt>
      <trkpt lat="42.345365" lon="2.018666">
        <ele>1945.0</ele>
        <time>2013-08-10T14:05:59Z</time>
      </trkpt>
      <trkpt lat="42.345294" lon="2.018678">
        <ele>1942.6</ele>
        <time>2013-08-10T14:06:06Z</time>
      </trkpt>
      <trkpt lat="42.345255" lon="2.018692">
        <ele>1941.3</ele>
        <time>2013-08-10T14:06:10Z</time>
      </trkpt>
      <trkpt lat="42.345231" lon="2.018692">
        <ele>1940.4</ele>
        <time>2013-08-10T14:06:14Z</time>
      </trkpt>
      <trkpt lat="42.345153" lon="2.018653">
        <ele>1936.8</ele>
        <time>2013-08-10T14:06:23Z</time>
      </trkpt>
      <trkpt lat="42.345119" lon="2.018678">
        <ele>1936.2</ele>
        <time>2013-08-10T14:06:35Z</time>
      </trkpt>
      <trkpt lat="42.345083" lon="2.018674">
        <ele>1934.8</ele>
        <time>2013-08-10T14:06:51Z</time>
      </trkpt>
      <trkpt lat="42.345013" lon="2.018670">
        <ele>1932.4</ele>
        <time>2013-08-10T14:07:05Z</time>
      </trkpt>
      <trkpt lat="42.344987" lon="2.018672">
        <ele>1932.0</ele>
        <time>2013-08-10T14:07:19Z</time>
      </trkpt>
      <trkpt lat="42.344938" lon="2.018684">
        <ele>1930.9</ele>
        <time>2013-08-10T14:07:31Z</time>
      </trkpt>
      <trkpt lat="42.344905" lon="2.018680">
        <ele>1930.7</ele>
        <time>2013-08-10T14:07:42Z</time>
      </trkpt>
      <trkpt lat="42.344818" lon="2.018691">
        <ele>1929.0</ele>
        <time>2013-08-10T14:07:55Z</time>
      </trkpt>
      <trkpt lat="42.344764" lon="2.018704">
        <ele>1927.4</ele>
        <time>2013-08-10T14:08:07Z</time>
      </trkpt>
      <trkpt lat="42.344761" lon="2.018695">
        <ele>1927.7</ele>
        <time>2013-08-10T14:08:20Z</time>
      </trkpt>
      <trkpt lat="42.344743" lon="2.018716">
        <ele>1926.4</ele>
        <time>2013-08-10T14:08:34Z</time>
      </trkpt>
      <trkpt lat="42.344735" lon="2.018724">
        <ele>1926.0</ele>
        <time>2013-08-10T14:08:56Z</time>
      </trkpt>
      <trkpt lat="42.344669" lon="2.018814">
        <ele>1923.5</ele>
        <time>2013-08-10T14:09:03Z</time>
      </trkpt>
      <trkpt lat="42.344515" lon="2.018883">
        <ele>1920.1</ele>
        <time>2013-08-10T14:09:16Z</time>
      </trkpt>
      <trkpt lat="42.344451" lon="2.018856">
        <ele>1919.9</ele>
        <time>2013-08-10T14:09:23Z</time>
      </trkpt>
      <trkpt lat="42.344431" lon="2.018849">
        <ele>1919.7</ele>
        <time>2013-08-10T14:09:32Z</time>
      </trkpt>
      <trkpt lat="42.344424" lon="2.018920">
        <ele>1918.3</ele>
        <time>2013-08-10T14:09:42Z</time>
      </trkpt>
      <trkpt lat="42.344394" lon="2.018947">
        <ele>1917.3</ele>
        <time>2013-08-10T14:09:50Z</time>
      </trkpt>
      <trkpt lat="42.344306" lon="2.019030">
        <ele>1915.0</ele>
        <time>2013-08-10T14:10:00Z</time>
      </trkpt>
      <trkpt lat="42.344227" lon="2.019053">
        <ele>1913.4</ele>
        <time>2013-08-10T14:10:10Z</time>
      </trkpt>
      <trkpt lat="42.344211" lon="2.019041">
        <ele>1912.7</ele>
        <time>2013-08-10T14:10:24Z</time>
      </trkpt>
      <trkpt lat="42.344207" lon="2.019100">
        <ele>1913.3</ele>
        <time>2013-08-10T14:10:36Z</time>
      </trkpt>
      <trkpt lat="42.344095" lon="2.019338">
        <ele>1912.2</ele>
        <time>2013-08-10T14:10:50Z</time>
      </trkpt>
      <trkpt lat="42.343934" lon="2.019576">
        <ele>1911.6</ele>
        <time>2013-08-10T14:11:06Z</time>
      </trkpt>
      <trkpt lat="42.343835" lon="2.019773">
        <ele>1911.3</ele>
        <time>2013-08-10T14:11:19Z</time>
      </trkpt>
      <trkpt lat="42.343734" lon="2.019942">
        <ele>1909.5</ele>
        <time>2013-08-10T14:11:32Z</time>
      </trkpt>
      <trkpt lat="42.343645" lon="2.020070">
        <ele>1907.8</ele>
        <time>2013-08-10T14:11:46Z</time>
      </trkpt>
      <trkpt lat="42.343593" lon="2.020281">
        <ele>1906.3</ele>
        <time>2013-08-10T14:11:59Z</time>
      </trkpt>
      <trkpt lat="42.343539" lon="2.020497">
        <ele>1905.6</ele>
        <time>2013-08-10T14:12:13Z</time>
      </trkpt>
      <trkpt lat="42.343509" lon="2.020780">
        <ele>1904.4</ele>
        <time>2013-08-10T14:12:28Z</time>
      </trkpt>
      <trkpt lat="42.343502" lon="2.021025">
        <ele>1903.4</ele>
        <time>2013-08-10T14:12:43Z</time>
      </trkpt>
      <trkpt lat="42.343537" lon="2.021231">
        <ele>1902.8</ele>
        <time>2013-08-10T14:12:58Z</time>
      </trkpt>
      <trkpt lat="42.343548" lon="2.021314">
        <ele>1902.1</ele>
        <time>2013-08-10T14:13:04Z</time>
      </trkpt>
      <trkpt lat="42.343595" lon="2.021513">
        <ele>1900.8</ele>
        <time>2013-08-10T14:13:17Z</time>
      </trkpt>
      <trkpt lat="42.343608" lon="2.021586">
        <ele>1900.5</ele>
        <time>2013-08-10T14:13:21Z</time>
      </trkpt>
      <trkpt lat="42.343711" lon="2.021764">
        <ele>1900.2</ele>
        <time>2013-08-10T14:13:34Z</time>
      </trkpt>
      <trkpt lat="42.343815" lon="2.021919">
        <ele>1899.2</ele>
        <time>2013-08-10T14:13:47Z</time>
      </trkpt>
      <trkpt lat="42.343879" lon="2.022032">
        <ele>1898.3</ele>
        <time>2013-08-10T14:13:57Z</time>
      </trkpt>
      <trkpt lat="42.343994" lon="2.022240">
        <ele>1896.6</ele>
        <time>2013-08-10T14:14:12Z</time>
      </trkpt>
      <trkpt lat="42.344007" lon="2.022269">
        <ele>1896.2</ele>
        <time>2013-08-10T14:14:15Z</time>
      </trkpt>
      <trkpt lat="42.344048" lon="2.022324">
        <ele>1894.8</ele>
        <time>2013-08-10T14:14:19Z</time>
      </trkpt>
      <trkpt lat="42.344161" lon="2.022432">
        <ele>1892.6</ele>
        <time>2013-08-10T14:14:31Z</time>
      </trkpt>
      <trkpt lat="42.344348" lon="2.022574">
        <ele>1891.9</ele>
        <time>2013-08-10T14:14:48Z</time>
      </trkpt>
      <trkpt lat="42.344461" lon="2.022709">
        <ele>1890.0</ele>
        <time>2013-08-10T14:15:01Z</time>
      </trkpt>
      <trkpt lat="42.344584" lon="2.022794">
        <ele>1888.8</ele>
        <time>2013-08-10T14:15:14Z</time>
      </trkpt>
      <trkpt lat="42.344715" lon="2.022885">
        <ele>1887.0</ele>
        <time>2013-08-10T14:15:27Z</time>
      </trkpt>
      <trkpt lat="42.344766" lon="2.022933">
        <ele>1886.3</ele>
        <time>2013-08-10T14:15:31Z</time>
      </trkpt>
      <trkpt lat="42.344913" lon="2.023031">
        <ele>1886.1</ele>
        <time>2013-08-10T14:15:45Z</time>
      </trkpt>
      <trkpt lat="42.345011" lon="2.023107">
        <ele>1885.4</ele>
        <time>2013-08-10T14:15:51Z</time>
      </trkpt>
      <trkpt lat="42.345156" lon="2.023251">
        <ele>1883.0</ele>
        <time>2013-08-10T14:16:07Z</time>
      </trkpt>
      <trkpt lat="42.345321" lon="2.023414">
        <ele>1880.9</ele>
        <time>2013-08-10T14:16:21Z</time>
      </trkpt>
      <trkpt lat="42.345472" lon="2.023550">
        <ele>1879.4</ele>
        <time>2013-08-10T14:16:35Z</time>
      </trkpt>
      <trkpt lat="42.345509" lon="2.023581">
        <ele>1879.1</ele>
        <time>2013-08-10T14:16:39Z</time>
      </trkpt>
      <trkpt lat="42.345568" lon="2.023628">
        <ele>1878.5</ele>
        <time>2013-08-10T14:16:44Z</time>
      </trkpt>
      <trkpt lat="42.345736" lon="2.023740">
        <ele>1876.7</ele>
        <time>2013-08-10T14:16:58Z</time>
      </trkpt>
      <trkpt lat="42.345892" lon="2.023830">
        <ele>1875.7</ele>
        <time>2013-08-10T14:17:12Z</time>
      </trkpt>
      <trkpt lat="42.345942" lon="2.023851">
        <ele>1875.6</ele>
        <time>2013-08-10T14:17:16Z</time>
      </trkpt>
      <trkpt lat="42.346117" lon="2.023950">
        <ele>1873.7</ele>
        <time>2013-08-10T14:17:31Z</time>
      </trkpt>
      <trkpt lat="42.346129" lon="2.024007">
        <ele>1872.8</ele>
        <time>2013-08-10T14:17:37Z</time>
      </trkpt>
      <trkpt lat="42.345976" lon="2.024016">
        <ele>1871.0</ele>
        <time>2013-08-10T14:17:51Z</time>
      </trkpt>
      <trkpt lat="42.345849" lon="2.024001">
        <ele>1869.8</ele>
        <time>2013-08-10T14:18:04Z</time>
      </trkpt>
      <trkpt lat="42.345806" lon="2.024032">
        <ele>1868.3</ele>
        <time>2013-08-10T14:18:09Z</time>
      </trkpt>
      <trkpt lat="42.345836" lon="2.024158">
        <ele>1866.9</ele>
        <time>2013-08-10T14:18:16Z</time>
      </trkpt>
      <trkpt lat="42.345888" lon="2.024245">
        <ele>1865.7</ele>
        <time>2013-08-10T14:18:23Z</time>
      </trkpt>
      <trkpt lat="42.345950" lon="2.024396">
        <ele>1863.9</ele>
        <time>2013-08-10T14:18:36Z</time>
      </trkpt>
      <trkpt lat="42.345897" lon="2.024541">
        <ele>1861.7</ele>
        <time>2013-08-10T14:18:49Z</time>
      </trkpt>
      <trkpt lat="42.345873" lon="2.024601">
        <ele>1861.5</ele>
        <time>2013-08-10T14:18:54Z</time>
      </trkpt>
      <trkpt lat="42.345809" lon="2.024665">
        <ele>1861.7</ele>
        <time>2013-08-10T14:19:00Z</time>
      </trkpt>
      <trkpt lat="42.345756" lon="2.024721">
        <ele>1861.3</ele>
        <time>2013-08-10T14:19:05Z</time>
      </trkpt>
      <trkpt lat="42.345536" lon="2.024838">
        <ele>1860.1</ele>
        <time>2013-08-10T14:19:25Z</time>
      </trkpt>
      <trkpt lat="42.345389" lon="2.024898">
        <ele>1859.4</ele>
        <time>2013-08-10T14:19:38Z</time>
      </trkpt>
      <trkpt lat="42.345297" lon="2.024942">
        <ele>1859.3</ele>
        <time>2013-08-10T14:19:46Z</time>
      </trkpt>
      <trkpt lat="42.345233" lon="2.024981">
        <ele>1859.7</ele>
        <time>2013-08-10T14:19:52Z</time>
      </trkpt>
      <trkpt lat="42.345151" lon="2.025043">
        <ele>1859.9</ele>
        <time>2013-08-10T14:20:00Z</time>
      </trkpt>
      <trkpt lat="42.345130" lon="2.025058">
        <ele>1859.9</ele>
        <time>2013-08-10T14:20:02Z</time>
      </trkpt>
      <trkpt lat="42.345028" lon="2.025114">
        <ele>1858.6</ele>
        <time>2013-08-10T14:20:14Z</time>
      </trkpt>
      <trkpt lat="42.345059" lon="2.025182">
        <ele>1859.3</ele>
        <time>2013-08-10T14:20:19Z</time>
      </trkpt>
      <trkpt lat="42.345093" lon="2.025217">
        <ele>1860.1</ele>
        <time>2013-08-10T14:20:23Z</time>
      </trkpt>
      <trkpt lat="42.345115" lon="2.025256">
        <ele>1860.8</ele>
        <time>2013-08-10T14:20:27Z</time>
      </trkpt>
      <trkpt lat="42.345103" lon="2.025357">
        <ele>1860.8</ele>
        <time>2013-08-10T14:20:34Z</time>
      </trkpt>
      <trkpt lat="42.345088" lon="2.025391">
        <ele>1860.5</ele>
        <time>2013-08-10T14:20:37Z</time>
      </trkpt>
      <trkpt lat="42.345090" lon="2.025590">
        <ele>1860.9</ele>
        <time>2013-08-10T14:20:50Z</time>
      </trkpt>
      <trkpt lat="42.345147" lon="2.025819">
        <ele>1861.5</ele>
        <time>2013-08-10T14:21:06Z</time>
      </trkpt>
      <trkpt lat="42.345198" lon="2.025970">
        <ele>1862.4</ele>
        <time>2013-08-10T14:21:17Z</time>
      </trkpt>
      <trkpt lat="42.345207" lon="2.025994">
        <ele>1862.5</ele>
        <time>2013-08-10T14:21:19Z</time>
      </trkpt>
      <trkpt lat="42.345280" lon="2.026143">
        <ele>1863.2</ele>
        <time>2013-08-10T14:21:31Z</time>
      </trkpt>
      <trkpt lat="42.345291" lon="2.026155">
        <ele>1863.3</ele>
        <time>2013-08-10T14:21:32Z</time>
      </trkpt>
      <trkpt lat="42.345366" lon="2.026322">
        <ele>1862.6</ele>
        <time>2013-08-10T14:21:46Z</time>
      </trkpt>
      <trkpt lat="42.345454" lon="2.026459">
        <ele>1861.7</ele>
        <time>2013-08-10T14:21:58Z</time>
      </trkpt>
      <trkpt lat="42.345556" lon="2.026580">
        <ele>1860.3</ele>
        <time>2013-08-10T14:22:11Z</time>
      </trkpt>
      <trkpt lat="42.345684" lon="2.026708">
        <ele>1860.1</ele>
        <time>2013-08-10T14:22:24Z</time>
      </trkpt>
      <trkpt lat="42.345727" lon="2.026731">
        <ele>1860.5</ele>
        <time>2013-08-10T14:22:28Z</time>
      </trkpt>
      <trkpt lat="42.345796" lon="2.026780">
        <ele>1860.5</ele>
        <time>2013-08-10T14:22:35Z</time>
      </trkpt>
      <trkpt lat="42.345866" lon="2.026832">
        <ele>1860.4</ele>
        <time>2013-08-10T14:22:42Z</time>
      </trkpt>
      <trkpt lat="42.345976" lon="2.026909">
        <ele>1859.8</ele>
        <time>2013-08-10T14:22:51Z</time>
      </trkpt>
      <trkpt lat="42.346101" lon="2.027045">
        <ele>1858.5</ele>
        <time>2013-08-10T14:23:07Z</time>
      </trkpt>
      <trkpt lat="42.346108" lon="2.027158">
        <ele>1860.0</ele>
        <time>2013-08-10T14:23:19Z</time>
      </trkpt>
      <trkpt lat="42.346103" lon="2.027176">
        <ele>1860.2</ele>
        <time>2013-08-10T14:23:21Z</time>
      </trkpt>
      <trkpt lat="42.346047" lon="2.027272">
        <ele>1860.7</ele>
        <time>2013-08-10T14:23:30Z</time>
      </trkpt>
      <trkpt lat="42.345995" lon="2.027381">
        <ele>1860.8</ele>
        <time>2013-08-10T14:23:39Z</time>
      </trkpt>
      <trkpt lat="42.345946" lon="2.027482">
        <ele>1861.0</ele>
        <time>2013-08-10T14:23:48Z</time>
      </trkpt>
      <trkpt lat="42.345964" lon="2.027675">
        <ele>1862.5</ele>
        <time>2013-08-10T14:24:03Z</time>
      </trkpt>
      <trkpt lat="42.345972" lon="2.027702">
        <ele>1862.7</ele>
        <time>2013-08-10T14:24:07Z</time>
      </trkpt>
      <trkpt lat="42.346026" lon="2.027732">
        <ele>1864.0</ele>
        <time>2013-08-10T14:25:03Z</time>
      </trkpt>
      <trkpt lat="42.346041" lon="2.027766">
        <ele>1864.3</ele>
        <time>2013-08-10T14:25:06Z</time>
      </trkpt>
      <trkpt lat="42.346064" lon="2.027935">
        <ele>1865.0</ele>
        <time>2013-08-10T14:25:18Z</time>
      </trkpt>
      <trkpt lat="42.346091" lon="2.028118">
        <ele>1866.8</ele>
        <time>2013-08-10T14:25:30Z</time>
      </trkpt>
      <trkpt lat="42.346107" lon="2.028263">
        <ele>1868.8</ele>
        <time>2013-08-10T14:25:42Z</time>
      </trkpt>
      <trkpt lat="42.346114" lon="2.028327">
        <ele>1869.1</ele>
        <time>2013-08-10T14:25:47Z</time>
      </trkpt>
      <trkpt lat="42.346128" lon="2.028375">
        <ele>1870.1</ele>
        <time>2013-08-10T14:25:51Z</time>
      </trkpt>
      <trkpt lat="42.346127" lon="2.028417">
        <ele>1870.1</ele>
        <time>2013-08-10T14:25:55Z</time>
      </trkpt>
      <trkpt lat="42.346155" lon="2.028553">
        <ele>1872.1</ele>
        <time>2013-08-10T14:26:08Z</time>
      </trkpt>
      <trkpt lat="42.346158" lon="2.028601">
        <ele>1872.4</ele>
        <time>2013-08-10T14:26:13Z</time>
      </trkpt>
      <trkpt lat="42.346169" lon="2.028635">
        <ele>1873.0</ele>
        <time>2013-08-10T14:26:16Z</time>
      </trkpt>
      <trkpt lat="42.346190" lon="2.028769">
        <ele>1874.3</ele>
        <time>2013-08-10T14:26:28Z</time>
      </trkpt>
      <trkpt lat="42.346208" lon="2.028856">
        <ele>1875.4</ele>
        <time>2013-08-10T14:26:39Z</time>
      </trkpt>
      <trkpt lat="42.346204" lon="2.028883">
        <ele>1875.2</ele>
        <time>2013-08-10T14:26:46Z</time>
      </trkpt>
      <trkpt lat="42.346195" lon="2.028975">
        <ele>1875.4</ele>
        <time>2013-08-10T14:26:53Z</time>
      </trkpt>
      <trkpt lat="42.346192" lon="2.029027">
        <ele>1875.6</ele>
        <time>2013-08-10T14:27:06Z</time>
      </trkpt>
      <trkpt lat="42.346192" lon="2.029044">
        <ele>1875.8</ele>
        <time>2013-08-10T14:27:11Z</time>
      </trkpt>
      <trkpt lat="42.346198" lon="2.029080">
        <ele>1876.1</ele>
        <time>2013-08-10T14:27:14Z</time>
      </trkpt>
      <trkpt lat="42.346197" lon="2.029127">
        <ele>1876.3</ele>
        <time>2013-08-10T14:27:18Z</time>
      </trkpt>
      <trkpt lat="42.346196" lon="2.029197">
        <ele>1876.9</ele>
        <time>2013-08-10T14:27:25Z</time>
      </trkpt>
      <trkpt lat="42.346208" lon="2.029274">
        <ele>1878.3</ele>
        <time>2013-08-10T14:27:31Z</time>
      </trkpt>
      <trkpt lat="42.346211" lon="2.029324">
        <ele>1878.8</ele>
        <time>2013-08-10T14:27:35Z</time>
      </trkpt>
      <trkpt lat="42.346216" lon="2.029417">
        <ele>1879.3</ele>
        <time>2013-08-10T14:27:42Z</time>
      </trkpt>
      <trkpt lat="42.346245" lon="2.029541">
        <ele>1881.1</ele>
        <time>2013-08-10T14:27:55Z</time>
      </trkpt>
      <trkpt lat="42.346255" lon="2.029578">
        <ele>1881.5</ele>
        <time>2013-08-10T14:27:58Z</time>
      </trkpt>
      <trkpt lat="42.346271" lon="2.029648">
        <ele>1881.3</ele>
        <time>2013-08-10T14:28:04Z</time>
      </trkpt>
      <trkpt lat="42.346322" lon="2.029789">
        <ele>1879.7</ele>
        <time>2013-08-10T14:28:17Z</time>
      </trkpt>
      <trkpt lat="42.346369" lon="2.029867">
        <ele>1879.0</ele>
        <time>2013-08-10T14:28:29Z</time>
      </trkpt>
      <trkpt lat="42.346449" lon="2.029983">
        <ele>1878.2</ele>
        <time>2013-08-10T14:28:43Z</time>
      </trkpt>
      <trkpt lat="42.346492" lon="2.030037">
        <ele>1878.0</ele>
        <time>2013-08-10T14:28:50Z</time>
      </trkpt>
      <trkpt lat="42.346538" lon="2.030113">
        <ele>1877.0</ele>
        <time>2013-08-10T14:28:58Z</time>
      </trkpt>
      <trkpt lat="42.346578" lon="2.030153">
        <ele>1877.1</ele>
        <time>2013-08-10T14:29:03Z</time>
      </trkpt>
      <trkpt lat="42.346655" lon="2.030248">
        <ele>1877.1</ele>
        <time>2013-08-10T14:29:14Z</time>
      </trkpt>
      <trkpt lat="42.346726" lon="2.030331">
        <ele>1878.0</ele>
        <time>2013-08-10T14:29:25Z</time>
      </trkpt>
      <trkpt lat="42.346763" lon="2.030379">
        <ele>1878.0</ele>
        <time>2013-08-10T14:29:30Z</time>
      </trkpt>
      <trkpt lat="42.346801" lon="2.030414">
        <ele>1878.7</ele>
        <time>2013-08-10T14:29:39Z</time>
      </trkpt>
      <trkpt lat="42.346888" lon="2.030520">
        <ele>1879.0</ele>
        <time>2013-08-10T14:29:50Z</time>
      </trkpt>
      <trkpt lat="42.346936" lon="2.030596">
        <ele>1878.5</ele>
        <time>2013-08-10T14:29:57Z</time>
      </trkpt>
      <trkpt lat="42.347033" lon="2.030676">
        <ele>1879.7</ele>
        <time>2013-08-10T14:30:09Z</time>
      </trkpt>
      <trkpt lat="42.347098" lon="2.030716">
        <ele>1880.5</ele>
        <time>2013-08-10T14:30:20Z</time>
      </trkpt>
      <trkpt lat="42.347141" lon="2.030736">
        <ele>1881.3</ele>
        <time>2013-08-10T14:30:26Z</time>
      </trkpt>
      <trkpt lat="42.347158" lon="2.030735">
        <ele>1881.9</ele>
        <time>2013-08-10T14:30:28Z</time>
      </trkpt>
      <trkpt lat="42.347169" lon="2.030754">
        <ele>1881.7</ele>
        <time>2013-08-10T14:30:30Z</time>
      </trkpt>
      <trkpt lat="42.347231" lon="2.030804">
        <ele>1882.2</ele>
        <time>2013-08-10T14:30:37Z</time>
      </trkpt>
      <trkpt lat="42.347253" lon="2.030813">
        <ele>1882.6</ele>
        <time>2013-08-10T14:30:40Z</time>
      </trkpt>
      <trkpt lat="42.347285" lon="2.030828">
        <ele>1883.2</ele>
        <time>2013-08-10T14:30:44Z</time>
      </trkpt>
      <trkpt lat="42.347376" lon="2.030903">
        <ele>1883.6</ele>
        <time>2013-08-10T14:30:56Z</time>
      </trkpt>
      <trkpt lat="42.347412" lon="2.030929">
        <ele>1883.6</ele>
        <time>2013-08-10T14:31:00Z</time>
      </trkpt>
      <trkpt lat="42.347446" lon="2.030943">
        <ele>1884.0</ele>
        <time>2013-08-10T14:31:04Z</time>
      </trkpt>
      <trkpt lat="42.347498" lon="2.030980">
        <ele>1884.0</ele>
        <time>2013-08-10T14:31:10Z</time>
      </trkpt>
      <trkpt lat="42.347617" lon="2.031053">
        <ele>1884.1</ele>
        <time>2013-08-10T14:31:22Z</time>
      </trkpt>
      <trkpt lat="42.347642" lon="2.031068">
        <ele>1884.3</ele>
        <time>2013-08-10T14:31:25Z</time>
      </trkpt>
      <trkpt lat="42.347725" lon="2.031136">
        <ele>1884.5</ele>
        <time>2013-08-10T14:31:40Z</time>
      </trkpt>
      <trkpt lat="42.347774" lon="2.031166">
        <ele>1884.6</ele>
        <time>2013-08-10T14:31:46Z</time>
      </trkpt>
      <trkpt lat="42.347835" lon="2.031275">
        <ele>1884.1</ele>
        <time>2013-08-10T14:32:01Z</time>
      </trkpt>
      <trkpt lat="42.347773" lon="2.031291">
        <ele>1882.2</ele>
        <time>2013-08-10T14:32:12Z</time>
      </trkpt>
      <trkpt lat="42.347772" lon="2.031292">
        <ele>1882.2</ele>
        <time>2013-08-10T14:32:13Z</time>
      </trkpt>
      <trkpt lat="42.347757" lon="2.031284">
        <ele>1881.8</ele>
        <time>2013-08-10T14:32:29Z</time>
      </trkpt>
      <trkpt lat="42.347750" lon="2.031276">
        <ele>1881.5</ele>
        <time>2013-08-10T14:32:43Z</time>
      </trkpt>
      <trkpt lat="42.347751" lon="2.031273">
        <ele>1881.5</ele>
        <time>2013-08-10T14:33:22Z</time>
      </trkpt>
      <trkpt lat="42.347737" lon="2.031307">
        <ele>1881.4</ele>
        <time>2013-08-10T14:33:32Z</time>
      </trkpt>
      <trkpt lat="42.347692" lon="2.031329">
        <ele>1880.3</ele>
        <time>2013-08-10T14:33:46Z</time>
      </trkpt>
      <trkpt lat="42.347654" lon="2.031373">
        <ele>1880.4</ele>
        <time>2013-08-10T14:33:54Z</time>
      </trkpt>
      <trkpt lat="42.347595" lon="2.031438">
        <ele>1880.4</ele>
        <time>2013-08-10T14:34:03Z</time>
      </trkpt>
      <trkpt lat="42.347534" lon="2.031487">
        <ele>1881.1</ele>
        <time>2013-08-10T14:34:11Z</time>
      </trkpt>
      <trkpt lat="42.347417" lon="2.031533">
        <ele>1880.9</ele>
        <time>2013-08-10T14:34:23Z</time>
      </trkpt>
      <trkpt lat="42.347308" lon="2.031616">
        <ele>1881.1</ele>
        <time>2013-08-10T14:34:33Z</time>
      </trkpt>
      <trkpt lat="42.347271" lon="2.031654">
        <ele>1881.2</ele>
        <time>2013-08-10T14:34:38Z</time>
      </trkpt>
      <trkpt lat="42.347257" lon="2.031696">
        <ele>1882.7</ele>
        <time>2013-08-10T14:34:42Z</time>
      </trkpt>
      <trkpt lat="42.347140" lon="2.031809">
        <ele>1882.8</ele>
        <time>2013-08-10T14:34:56Z</time>
      </trkpt>
      <trkpt lat="42.347114" lon="2.031829">
        <ele>1882.6</ele>
        <time>2013-08-10T14:35:08Z</time>
      </trkpt>
      <trkpt lat="42.347063" lon="2.031863">
        <ele>1882.0</ele>
        <time>2013-08-10T14:35:37Z</time>
      </trkpt>
      <trkpt lat="42.347013" lon="2.031913">
        <ele>1882.0</ele>
        <time>2013-08-10T14:35:42Z</time>
      </trkpt>
      <trkpt lat="42.346947" lon="2.031987">
        <ele>1882.2</ele>
        <time>2013-08-10T14:35:54Z</time>
      </trkpt>
      <trkpt lat="42.346936" lon="2.031989">
        <ele>1881.9</ele>
        <time>2013-08-10T14:36:00Z</time>
      </trkpt>
      <trkpt lat="42.346906" lon="2.032008">
        <ele>1881.4</ele>
        <time>2013-08-10T14:36:04Z</time>
      </trkpt>
      <trkpt lat="42.346819" lon="2.032032">
        <ele>1879.9</ele>
        <time>2013-08-10T14:36:15Z</time>
      </trkpt>
      <trkpt lat="42.346823" lon="2.032035">
        <ele>1880.1</ele>
        <time>2013-08-10T14:36:32Z</time>
      </trkpt>
      <trkpt lat="42.346810" lon="2.032040">
        <ele>1879.9</ele>
        <time>2013-08-10T14:36:41Z</time>
      </trkpt>
      <trkpt lat="42.346810" lon="2.032034">
        <ele>1879.6</ele>
        <time>2013-08-10T14:36:55Z</time>
      </trkpt>
      <trkpt lat="42.346751" lon="2.032043">
        <ele>1878.2</ele>
        <time>2013-08-10T14:37:01Z</time>
      </trkpt>
      <trkpt lat="42.346686" lon="2.032083">
        <ele>1877.7</ele>
        <time>2013-08-10T14:37:08Z</time>
      </trkpt>
      <trkpt lat="42.346624" lon="2.032092">
        <ele>1875.8</ele>
        <time>2013-08-10T14:37:14Z</time>
      </trkpt>
      <trkpt lat="42.346518" lon="2.032131">
        <ele>1874.3</ele>
        <time>2013-08-10T14:37:25Z</time>
      </trkpt>
      <trkpt lat="42.346394" lon="2.032205">
        <ele>1874.5</ele>
        <time>2013-08-10T14:37:38Z</time>
      </trkpt>
      <trkpt lat="42.346201" lon="2.032330">
        <ele>1874.2</ele>
        <time>2013-08-10T14:37:56Z</time>
      </trkpt>
      <trkpt lat="42.346080" lon="2.032385">
        <ele>1872.6</ele>
        <time>2013-08-10T14:38:10Z</time>
      </trkpt>
      <trkpt lat="42.346070" lon="2.032389">
        <ele>1872.4</ele>
        <time>2013-08-10T14:38:11Z</time>
      </trkpt>
      <trkpt lat="42.345936" lon="2.032449">
        <ele>1872.2</ele>
        <time>2013-08-10T14:38:24Z</time>
      </trkpt>
      <trkpt lat="42.345852" lon="2.032473">
        <ele>1871.2</ele>
        <time>2013-08-10T14:38:32Z</time>
      </trkpt>
      <trkpt lat="42.345774" lon="2.032522">
        <ele>1871.8</ele>
        <time>2013-08-10T14:38:40Z</time>
      </trkpt>
      <trkpt lat="42.345665" lon="2.032589">
        <ele>1871.6</ele>
        <time>2013-08-10T14:38:53Z</time>
      </trkpt>
      <trkpt lat="42.345654" lon="2.032601">
        <ele>1871.8</ele>
        <time>2013-08-10T14:39:10Z</time>
      </trkpt>
      <trkpt lat="42.345574" lon="2.032629">
        <ele>1871.6</ele>
        <time>2013-08-10T14:39:25Z</time>
      </trkpt>
      <trkpt lat="42.345473" lon="2.032654">
        <ele>1870.9</ele>
        <time>2013-08-10T14:39:36Z</time>
      </trkpt>
      <trkpt lat="42.345377" lon="2.032661">
        <ele>1869.5</ele>
        <time>2013-08-10T14:39:46Z</time>
      </trkpt>
      <trkpt lat="42.345326" lon="2.032698">
        <ele>1870.2</ele>
        <time>2013-08-10T14:39:51Z</time>
      </trkpt>
      <trkpt lat="42.345192" lon="2.032740">
        <ele>1871.3</ele>
        <time>2013-08-10T14:40:04Z</time>
      </trkpt>
      <trkpt lat="42.345164" lon="2.032745">
        <ele>1871.6</ele>
        <time>2013-08-10T14:40:07Z</time>
      </trkpt>
      <trkpt lat="42.345071" lon="2.032769">
        <ele>1873.3</ele>
        <time>2013-08-10T14:40:21Z</time>
      </trkpt>
      <trkpt lat="42.345044" lon="2.032765">
        <ele>1873.4</ele>
        <time>2013-08-10T14:40:39Z</time>
      </trkpt>
      <trkpt lat="42.345000" lon="2.032783">
        <ele>1874.8</ele>
        <time>2013-08-10T14:40:44Z</time>
      </trkpt>
      <trkpt lat="42.344937" lon="2.032780">
        <ele>1875.5</ele>
        <time>2013-08-10T14:40:50Z</time>
      </trkpt>
      <trkpt lat="42.344870" lon="2.032791">
        <ele>1876.7</ele>
        <time>2013-08-10T14:40:56Z</time>
      </trkpt>
      <trkpt lat="42.344856" lon="2.032791">
        <ele>1876.8</ele>
        <time>2013-08-10T14:41:02Z</time>
      </trkpt>
      <trkpt lat="42.344763" lon="2.032798">
        <ele>1877.1</ele>
        <time>2013-08-10T14:41:10Z</time>
      </trkpt>
      <trkpt lat="42.344687" lon="2.032832">
        <ele>1877.5</ele>
        <time>2013-08-10T14:41:20Z</time>
      </trkpt>
      <trkpt lat="42.344678" lon="2.032836">
        <ele>1877.5</ele>
        <time>2013-08-10T14:41:21Z</time>
      </trkpt>
      <trkpt lat="42.344660" lon="2.032852">
        <ele>1877.6</ele>
        <time>2013-08-10T14:41:23Z</time>
      </trkpt>
      <trkpt lat="42.344574" lon="2.032981">
        <ele>1877.7</ele>
        <time>2013-08-10T14:41:38Z</time>
      </trkpt>
      <trkpt lat="42.344542" lon="2.033053">
        <ele>1877.5</ele>
        <time>2013-08-10T14:41:50Z</time>
      </trkpt>
      <trkpt lat="42.344523" lon="2.033071">
        <ele>1876.9</ele>
        <time>2013-08-10T14:41:52Z</time>
      </trkpt>
      <trkpt lat="42.344489" lon="2.033130">
        <ele>1875.7</ele>
        <time>2013-08-10T14:41:58Z</time>
      </trkpt>
      <trkpt lat="42.344471" lon="2.033252">
        <ele>1875.8</ele>
        <time>2013-08-10T14:42:08Z</time>
      </trkpt>
      <trkpt lat="42.344458" lon="2.033289">
        <ele>1875.6</ele>
        <time>2013-08-10T14:42:19Z</time>
      </trkpt>
      <trkpt lat="42.344398" lon="2.033362">
        <ele>1874.2</ele>
        <time>2013-08-10T14:42:32Z</time>
      </trkpt>
      <trkpt lat="42.344301" lon="2.033487">
        <ele>1872.6</ele>
        <time>2013-08-10T14:42:44Z</time>
      </trkpt>
      <trkpt lat="42.344257" lon="2.033563">
        <ele>1872.3</ele>
        <time>2013-08-10T14:42:53Z</time>
      </trkpt>
      <trkpt lat="42.344211" lon="2.033618">
        <ele>1871.4</ele>
        <time>2013-08-10T14:43:00Z</time>
      </trkpt>
      <trkpt lat="42.344168" lon="2.033664">
        <ele>1870.8</ele>
        <time>2013-08-10T14:43:07Z</time>
      </trkpt>
      <trkpt lat="42.344139" lon="2.033710">
        <ele>1870.7</ele>
        <time>2013-08-10T14:43:11Z</time>
      </trkpt>
      <trkpt lat="42.344123" lon="2.033734">
        <ele>1870.5</ele>
        <time>2013-08-10T14:43:13Z</time>
      </trkpt>
      <trkpt lat="42.344069" lon="2.033792">
        <ele>1869.6</ele>
        <time>2013-08-10T14:43:19Z</time>
      </trkpt>
      <trkpt lat="42.344033" lon="2.033842">
        <ele>1869.2</ele>
        <time>2013-08-10T14:43:24Z</time>
      </trkpt>
      <trkpt lat="42.343978" lon="2.033936">
        <ele>1868.8</ele>
        <time>2013-08-10T14:43:32Z</time>
      </trkpt>
      <trkpt lat="42.343964" lon="2.033982">
        <ele>1869.1</ele>
        <time>2013-08-10T14:43:36Z</time>
      </trkpt>
      <trkpt lat="42.343914" lon="2.034110">
        <ele>1869.2</ele>
        <time>2013-08-10T14:43:47Z</time>
      </trkpt>
      <trkpt lat="42.343806" lon="2.034269">
        <ele>1868.4</ele>
        <time>2013-08-10T14:44:00Z</time>
      </trkpt>
      <trkpt lat="42.343784" lon="2.034286">
        <ele>1867.8</ele>
        <time>2013-08-10T14:44:13Z</time>
      </trkpt>
      <trkpt lat="42.343730" lon="2.034330">
        <ele>1866.8</ele>
        <time>2013-08-10T14:44:19Z</time>
      </trkpt>
      <trkpt lat="42.343639" lon="2.034438">
        <ele>1864.8</ele>
        <time>2013-08-10T14:44:31Z</time>
      </trkpt>
      <trkpt lat="42.343601" lon="2.034546">
        <ele>1866.2</ele>
        <time>2013-08-10T14:44:44Z</time>
      </trkpt>
      <trkpt lat="42.343549" lon="2.034645">
        <ele>1866.0</ele>
        <time>2013-08-10T14:44:57Z</time>
      </trkpt>
      <trkpt lat="42.343527" lon="2.034707">
        <ele>1866.1</ele>
        <time>2013-08-10T14:45:04Z</time>
      </trkpt>
      <trkpt lat="42.343537" lon="2.034769">
        <ele>1866.5</ele>
        <time>2013-08-10T14:45:17Z</time>
      </trkpt>
      <trkpt lat="42.343537" lon="2.034769">
        <ele>1866.5</ele>
        <time>2013-08-10T14:45:24Z</time>
      </trkpt>
      <trkpt lat="42.343543" lon="2.034792">
        <ele>1866.4</ele>
        <time>2013-08-10T14:45:28Z</time>
      </trkpt>
      <trkpt lat="42.343552" lon="2.034836">
        <ele>1867.9</ele>
        <time>2013-08-10T14:45:42Z</time>
      </trkpt>
      <trkpt lat="42.343544" lon="2.034867">
        <ele>1868.2</ele>
        <time>2013-08-10T14:45:52Z</time>
      </trkpt>
      <trkpt lat="42.343410" lon="2.035076">
        <ele>1866.5</ele>
        <time>2013-08-10T14:46:09Z</time>
      </trkpt>
      <trkpt lat="42.343302" lon="2.035266">
        <ele>1865.1</ele>
        <time>2013-08-10T14:46:25Z</time>
      </trkpt>
      <trkpt lat="42.343154" lon="2.035480">
        <ele>1862.7</ele>
        <time>2013-08-10T14:46:40Z</time>
      </trkpt>
      <trkpt lat="42.343059" lon="2.035662">
        <ele>1861.8</ele>
        <time>2013-08-10T14:46:53Z</time>
      </trkpt>
      <trkpt lat="42.343036" lon="2.035718">
        <ele>1861.4</ele>
        <time>2013-08-10T14:46:56Z</time>
      </trkpt>
      <trkpt lat="42.342978" lon="2.035799">
        <ele>1859.3</ele>
        <time>2013-08-10T14:47:02Z</time>
      </trkpt>
      <trkpt lat="42.342811" lon="2.035901">
        <ele>1854.6</ele>
        <time>2013-08-10T14:47:17Z</time>
      </trkpt>
      <trkpt lat="42.342622" lon="2.036133">
        <ele>1853.5</ele>
        <time>2013-08-10T14:47:32Z</time>
      </trkpt>
      <trkpt lat="42.342568" lon="2.036167">
        <ele>1852.1</ele>
        <time>2013-08-10T14:47:37Z</time>
      </trkpt>
      <trkpt lat="42.342548" lon="2.036191">
        <ele>1851.8</ele>
        <time>2013-08-10T14:47:39Z</time>
      </trkpt>
      <trkpt lat="42.342510" lon="2.036220">
        <ele>1851.0</ele>
        <time>2013-08-10T14:47:43Z</time>
      </trkpt>
      <trkpt lat="42.342483" lon="2.036244">
        <ele>1850.6</ele>
        <time>2013-08-10T14:47:46Z</time>
      </trkpt>
      <trkpt lat="42.342389" lon="2.036321">
        <ele>1848.8</ele>
        <time>2013-08-10T14:47:54Z</time>
      </trkpt>
      <trkpt lat="42.342218" lon="2.036498">
        <ele>1846.0</ele>
        <time>2013-08-10T14:48:12Z</time>
      </trkpt>
      <trkpt lat="42.342075" lon="2.036714">
        <ele>1844.7</ele>
        <time>2013-08-10T14:48:26Z</time>
      </trkpt>
      <trkpt lat="42.341952" lon="2.036867">
        <ele>1842.8</ele>
        <time>2013-08-10T14:48:41Z</time>
      </trkpt>
      <trkpt lat="42.341787" lon="2.037129">
        <ele>1840.0</ele>
        <time>2013-08-10T14:48:56Z</time>
      </trkpt>
      <trkpt lat="42.341724" lon="2.037212">
        <ele>1839.0</ele>
        <time>2013-08-10T14:49:02Z</time>
      </trkpt>
      <trkpt lat="42.341603" lon="2.037397">
        <ele>1837.1</ele>
        <time>2013-08-10T14:49:20Z</time>
      </trkpt>
      <trkpt lat="42.341433" lon="2.037698">
        <ele>1834.3</ele>
        <time>2013-08-10T14:49:38Z</time>
      </trkpt>
      <trkpt lat="42.341308" lon="2.038024">
        <ele>1832.6</ele>
        <time>2013-08-10T14:49:54Z</time>
      </trkpt>
      <trkpt lat="42.341181" lon="2.038177">
        <ele>1830.4</ele>
        <time>2013-08-10T14:50:08Z</time>
      </trkpt>
      <trkpt lat="42.341063" lon="2.038511">
        <ele>1826.6</ele>
        <time>2013-08-10T14:50:26Z</time>
      </trkpt>
      <trkpt lat="42.341057" lon="2.038531">
        <ele>1826.2</ele>
        <time>2013-08-10T14:50:27Z</time>
      </trkpt>
      <trkpt lat="42.341045" lon="2.038717">
        <ele>1823.5</ele>
        <time>2013-08-10T14:50:40Z</time>
      </trkpt>
      <trkpt lat="42.341128" lon="2.038949">
        <ele>1821.9</ele>
        <time>2013-08-10T14:50:54Z</time>
      </trkpt>
      <trkpt lat="42.341179" lon="2.039149">
        <ele>1820.7</ele>
        <time>2013-08-10T14:51:06Z</time>
      </trkpt>
      <trkpt lat="42.341214" lon="2.039262">
        <ele>1820.1</ele>
        <time>2013-08-10T14:51:13Z</time>
      </trkpt>
      <trkpt lat="42.341312" lon="2.039543">
        <ele>1818.5</ele>
        <time>2013-08-10T14:51:28Z</time>
      </trkpt>
      <trkpt lat="42.341345" lon="2.039615">
        <ele>1817.4</ele>
        <time>2013-08-10T14:51:35Z</time>
      </trkpt>
      <trkpt lat="42.341360" lon="2.039647">
        <ele>1816.8</ele>
        <time>2013-08-10T14:51:37Z</time>
      </trkpt>
      <trkpt lat="42.341418" lon="2.039877">
        <ele>1812.6</ele>
        <time>2013-08-10T14:51:51Z</time>
      </trkpt>
      <trkpt lat="42.341481" lon="2.039983">
        <ele>1810.6</ele>
        <time>2013-08-10T14:51:58Z</time>
      </trkpt>
      <trkpt lat="42.341550" lon="2.040173">
        <ele>1809.5</ele>
        <time>2013-08-10T14:52:12Z</time>
      </trkpt>
      <trkpt lat="42.341558" lon="2.040334">
        <ele>1806.6</ele>
        <time>2013-08-10T14:52:25Z</time>
      </trkpt>
      <trkpt lat="42.341571" lon="2.040528">
        <ele>1804.0</ele>
        <time>2013-08-10T14:52:39Z</time>
      </trkpt>
      <trkpt lat="42.341579" lon="2.040545">
        <ele>1804.0</ele>
        <time>2013-08-10T14:52:41Z</time>
      </trkpt>
      <trkpt lat="42.341659" lon="2.040676">
        <ele>1803.5</ele>
        <time>2013-08-10T14:52:53Z</time>
      </trkpt>
      <trkpt lat="42.341712" lon="2.040799">
        <ele>1801.3</ele>
        <time>2013-08-10T14:53:03Z</time>
      </trkpt>
      <trkpt lat="42.341812" lon="2.040986">
        <ele>1799.4</ele>
        <time>2013-08-10T14:53:17Z</time>
      </trkpt>
      <trkpt lat="42.341935" lon="2.041119">
        <ele>1796.0</ele>
        <time>2013-08-10T14:53:30Z</time>
      </trkpt>
      <trkpt lat="42.341978" lon="2.041141">
        <ele>1793.9</ele>
        <time>2013-08-10T14:53:33Z</time>
      </trkpt>
      <trkpt lat="42.342031" lon="2.041164">
        <ele>1792.8</ele>
        <time>2013-08-10T14:53:37Z</time>
      </trkpt>
      <trkpt lat="42.342061" lon="2.041186">
        <ele>1792.9</ele>
        <time>2013-08-10T14:53:39Z</time>
      </trkpt>
      <trkpt lat="42.342118" lon="2.041278">
        <ele>1790.3</ele>
        <time>2013-08-10T14:53:45Z</time>
      </trkpt>
      <trkpt lat="42.342113" lon="2.041510">
        <ele>1796.7</ele>
        <time>2013-08-10T14:53:59Z</time>
      </trkpt>
      <trkpt lat="42.342094" lon="2.041534">
        <ele>1795.4</ele>
        <time>2013-08-10T14:54:01Z</time>
      </trkpt>
      <trkpt lat="42.341990" lon="2.041712">
        <ele>1795.1</ele>
        <time>2013-08-10T14:54:13Z</time>
      </trkpt>
      <trkpt lat="42.341950" lon="2.041758">
        <ele>1795.9</ele>
        <time>2013-08-10T14:54:17Z</time>
      </trkpt>
      <trkpt lat="42.341813" lon="2.041862">
        <ele>1795.2</ele>
        <time>2013-08-10T14:54:30Z</time>
      </trkpt>
      <trkpt lat="42.341781" lon="2.041890">
        <ele>1795.1</ele>
        <time>2013-08-10T14:54:33Z</time>
      </trkpt>
      <trkpt lat="42.341631" lon="2.042041">
        <ele>1797.4</ele>
        <time>2013-08-10T14:54:47Z</time>
      </trkpt>
      <trkpt lat="42.341596" lon="2.042104">
        <ele>1798.8</ele>
        <time>2013-08-10T14:54:53Z</time>
      </trkpt>
      <trkpt lat="42.341581" lon="2.042125">
        <ele>1799.2</ele>
        <time>2013-08-10T14:54:55Z</time>
      </trkpt>
      <trkpt lat="42.341506" lon="2.042191">
        <ele>1799.6</ele>
        <time>2013-08-10T14:55:03Z</time>
      </trkpt>
      <trkpt lat="42.341423" lon="2.042261">
        <ele>1800.3</ele>
        <time>2013-08-10T14:55:10Z</time>
      </trkpt>
      <trkpt lat="42.341280" lon="2.042392">
        <ele>1801.3</ele>
        <time>2013-08-10T14:55:24Z</time>
      </trkpt>
      <trkpt lat="42.341150" lon="2.042509">
        <ele>1801.6</ele>
        <time>2013-08-10T14:55:39Z</time>
      </trkpt>
      <trkpt lat="42.341015" lon="2.042635">
        <ele>1802.3</ele>
        <time>2013-08-10T14:55:53Z</time>
      </trkpt>
      <trkpt lat="42.340845" lon="2.042756">
        <ele>1802.2</ele>
        <time>2013-08-10T14:56:08Z</time>
      </trkpt>
      <trkpt lat="42.340800" lon="2.042790">
        <ele>1801.9</ele>
        <time>2013-08-10T14:56:12Z</time>
      </trkpt>
      <trkpt lat="42.340694" lon="2.042855">
        <ele>1801.4</ele>
        <time>2013-08-10T14:56:21Z</time>
      </trkpt>
      <trkpt lat="42.340642" lon="2.042878">
        <ele>1801.0</ele>
        <time>2013-08-10T14:56:25Z</time>
      </trkpt>
      <trkpt lat="42.340425" lon="2.043025">
        <ele>1800.3</ele>
        <time>2013-08-10T14:56:40Z</time>
      </trkpt>
      <trkpt lat="42.340352" lon="2.043070">
        <ele>1799.7</ele>
        <time>2013-08-10T14:56:48Z</time>
      </trkpt>
      <trkpt lat="42.340317" lon="2.043100">
        <ele>1799.6</ele>
        <time>2013-08-10T14:56:51Z</time>
      </trkpt>
      <trkpt lat="42.340153" lon="2.043305">
        <ele>1799.0</ele>
        <time>2013-08-10T14:57:07Z</time>
      </trkpt>
      <trkpt lat="42.340007" lon="2.043483">
        <ele>1797.4</ele>
        <time>2013-08-10T14:57:22Z</time>
      </trkpt>
      <trkpt lat="42.339848" lon="2.043654">
        <ele>1796.5</ele>
        <time>2013-08-10T14:57:38Z</time>
      </trkpt>
      <trkpt lat="42.339737" lon="2.043754">
        <ele>1795.5</ele>
        <time>2013-08-10T14:57:51Z</time>
      </trkpt>
      <trkpt lat="42.339542" lon="2.043933">
        <ele>1793.7</ele>
        <time>2013-08-10T14:58:07Z</time>
      </trkpt>
      <trkpt lat="42.339393" lon="2.044110">
        <ele>1792.7</ele>
        <time>2013-08-10T14:58:21Z</time>
      </trkpt>
      <trkpt lat="42.339360" lon="2.044148">
        <ele>1792.5</ele>
        <time>2013-08-10T14:58:25Z</time>
      </trkpt>
      <trkpt lat="42.339268" lon="2.044359">
        <ele>1793.2</ele>
        <time>2013-08-10T14:58:39Z</time>
      </trkpt>
      <trkpt lat="42.339145" lon="2.044612">
        <ele>1791.6</ele>
        <time>2013-08-10T14:58:55Z</time>
      </trkpt>
      <trkpt lat="42.339058" lon="2.044792">
        <ele>1791.0</ele>
        <time>2013-08-10T14:59:09Z</time>
      </trkpt>
      <trkpt lat="42.338966" lon="2.044971">
        <ele>1790.8</ele>
        <time>2013-08-10T14:59:23Z</time>
      </trkpt>
      <trkpt lat="42.338917" lon="2.045056">
        <ele>1790.2</ele>
        <time>2013-08-10T14:59:29Z</time>
      </trkpt>
      <trkpt lat="42.338763" lon="2.045199">
        <ele>1787.9</ele>
        <time>2013-08-10T14:59:43Z</time>
      </trkpt>
      <trkpt lat="42.338548" lon="2.045376">
        <ele>1785.9</ele>
        <time>2013-08-10T14:59:58Z</time>
      </trkpt>
      <trkpt lat="42.338390" lon="2.045540">
        <ele>1785.0</ele>
        <time>2013-08-10T15:00:11Z</time>
      </trkpt>
      <trkpt lat="42.338368" lon="2.045566">
        <ele>1784.9</ele>
        <time>2013-08-10T15:00:14Z</time>
      </trkpt>
      <trkpt lat="42.338198" lon="2.045668">
        <ele>1782.3</ele>
        <time>2013-08-10T15:00:27Z</time>
      </trkpt>
      <trkpt lat="42.338138" lon="2.045726">
        <ele>1782.0</ele>
        <time>2013-08-10T15:00:32Z</time>
      </trkpt>
      <trkpt lat="42.338067" lon="2.045817">
        <ele>1782.5</ele>
        <time>2013-08-10T15:00:39Z</time>
      </trkpt>
      <trkpt lat="42.338017" lon="2.045842">
        <ele>1781.3</ele>
        <time>2013-08-10T15:00:43Z</time>
      </trkpt>
      <trkpt lat="42.337813" lon="2.045938">
        <ele>1777.2</ele>
        <time>2013-08-10T15:00:56Z</time>
      </trkpt>
      <trkpt lat="42.337627" lon="2.046018">
        <ele>1774.4</ele>
        <time>2013-08-10T15:01:11Z</time>
      </trkpt>
      <trkpt lat="42.337435" lon="2.046086">
        <ele>1772.3</ele>
        <time>2013-08-10T15:01:24Z</time>
      </trkpt>
      <trkpt lat="42.337235" lon="2.046173">
        <ele>1771.0</ele>
        <time>2013-08-10T15:01:36Z</time>
      </trkpt>
      <trkpt lat="42.337031" lon="2.046245">
        <ele>1770.4</ele>
        <time>2013-08-10T15:01:52Z</time>
      </trkpt>
      <trkpt lat="42.336859" lon="2.046328">
        <ele>1770.1</ele>
        <time>2013-08-10T15:02:06Z</time>
      </trkpt>
      <trkpt lat="42.336636" lon="2.046448">
        <ele>1769.2</ele>
        <time>2013-08-10T15:02:22Z</time>
      </trkpt>
      <trkpt lat="42.336573" lon="2.046473">
        <ele>1768.7</ele>
        <time>2013-08-10T15:02:28Z</time>
      </trkpt>
      <trkpt lat="42.336357" lon="2.046605">
        <ele>1767.5</ele>
        <time>2013-08-10T15:02:45Z</time>
      </trkpt>
      <trkpt lat="42.336159" lon="2.046706">
        <ele>1766.6</ele>
        <time>2013-08-10T15:02:59Z</time>
      </trkpt>
      <trkpt lat="42.335976" lon="2.046762">
        <ele>1765.7</ele>
        <time>2013-08-10T15:03:13Z</time>
      </trkpt>
      <trkpt lat="42.335901" lon="2.046807">
        <ele>1765.3</ele>
        <time>2013-08-10T15:03:26Z</time>
      </trkpt>
      <trkpt lat="42.335882" lon="2.046841">
        <ele>1765.4</ele>
        <time>2013-08-10T15:03:45Z</time>
      </trkpt>
      <trkpt lat="42.335882" lon="2.046841">
        <ele>1765.4</ele>
        <time>2013-08-10T15:03:52Z</time>
      </trkpt>
      <trkpt lat="42.335801" lon="2.046877">
        <ele>1764.9</ele>
        <time>2013-08-10T15:04:00Z</time>
      </trkpt>
      <trkpt lat="42.335663" lon="2.046944">
        <ele>1764.1</ele>
        <time>2013-08-10T15:04:11Z</time>
      </trkpt>
      <trkpt lat="42.335581" lon="2.047203">
        <ele>1763.0</ele>
        <time>2013-08-10T15:04:27Z</time>
      </trkpt>
      <trkpt lat="42.335575" lon="2.047240">
        <ele>1762.8</ele>
        <time>2013-08-10T15:04:31Z</time>
      </trkpt>
      <trkpt lat="42.335582" lon="2.047365">
        <ele>1762.0</ele>
        <time>2013-08-10T15:04:39Z</time>
      </trkpt>
      <trkpt lat="42.335600" lon="2.047449">
        <ele>1761.4</ele>
        <time>2013-08-10T15:04:44Z</time>
      </trkpt>
      <trkpt lat="42.335614" lon="2.047622">
        <ele>1761.0</ele>
        <time>2013-08-10T15:04:57Z</time>
      </trkpt>
      <trkpt lat="42.335603" lon="2.047668">
        <ele>1760.8</ele>
        <time>2013-08-10T15:04:59Z</time>
      </trkpt>
      <trkpt lat="42.335579" lon="2.047977">
        <ele>1760.9</ele>
        <time>2013-08-10T15:05:15Z</time>
      </trkpt>
      <trkpt lat="42.335599" lon="2.048149">
        <ele>1760.9</ele>
        <time>2013-08-10T15:05:29Z</time>
      </trkpt>
      <trkpt lat="42.335606" lon="2.048242">
        <ele>1760.2</ele>
        <time>2013-08-10T15:05:34Z</time>
      </trkpt>
      <trkpt lat="42.335621" lon="2.048462">
        <ele>1758.6</ele>
        <time>2013-08-10T15:05:48Z</time>
      </trkpt>
      <trkpt lat="42.335649" lon="2.048671">
        <ele>1756.9</ele>
        <time>2013-08-10T15:06:03Z</time>
      </trkpt>
      <trkpt lat="42.335656" lon="2.048779">
        <ele>1757.6</ele>
        <time>2013-08-10T15:06:16Z</time>
      </trkpt>
      <trkpt lat="42.335699" lon="2.049090">
        <ele>1755.3</ele>
        <time>2013-08-10T15:06:29Z</time>
      </trkpt>
      <trkpt lat="42.335746" lon="2.049243">
        <ele>1754.1</ele>
        <time>2013-08-10T15:06:35Z</time>
      </trkpt>
      <trkpt lat="42.335764" lon="2.049339">
        <ele>1753.2</ele>
        <time>2013-08-10T15:06:39Z</time>
      </trkpt>
      <trkpt lat="42.335815" lon="2.049620">
        <ele>1749.1</ele>
        <time>2013-08-10T15:06:53Z</time>
      </trkpt>
      <trkpt lat="42.335824" lon="2.049654">
        <ele>1748.8</ele>
        <time>2013-08-10T15:06:55Z</time>
      </trkpt>
      <trkpt lat="42.335856" lon="2.049745">
        <ele>1748.0</ele>
        <time>2013-08-10T15:06:59Z</time>
      </trkpt>
      <trkpt lat="42.335877" lon="2.049778">
        <ele>1747.9</ele>
        <time>2013-08-10T15:07:01Z</time>
      </trkpt>
      <trkpt lat="42.335920" lon="2.049879">
        <ele>1746.9</ele>
        <time>2013-08-10T15:07:06Z</time>
      </trkpt>
      <trkpt lat="42.336023" lon="2.050122">
        <ele>1743.5</ele>
        <time>2013-08-10T15:07:21Z</time>
      </trkpt>
      <trkpt lat="42.336070" lon="2.050200">
        <ele>1742.4</ele>
        <time>2013-08-10T15:07:26Z</time>
      </trkpt>
      <trkpt lat="42.336213" lon="2.050305">
        <ele>1741.5</ele>
        <time>2013-08-10T15:07:38Z</time>
      </trkpt>
      <trkpt lat="42.336295" lon="2.050460">
        <ele>1738.5</ele>
        <time>2013-08-10T15:07:50Z</time>
      </trkpt>
      <trkpt lat="42.336264" lon="2.050533">
        <ele>1735.9</ele>
        <time>2013-08-10T15:07:55Z</time>
      </trkpt>
      <trkpt lat="42.336220" lon="2.050581">
        <ele>1735.1</ele>
        <time>2013-08-10T15:07:59Z</time>
      </trkpt>
      <trkpt lat="42.336077" lon="2.050629">
        <ele>1732.8</ele>
        <time>2013-08-10T15:08:13Z</time>
      </trkpt>
      <trkpt lat="42.335862" lon="2.050747">
        <ele>1729.1</ele>
        <time>2013-08-10T15:08:28Z</time>
      </trkpt>
      <trkpt lat="42.335811" lon="2.050782">
        <ele>1728.5</ele>
        <time>2013-08-10T15:08:33Z</time>
      </trkpt>
      <trkpt lat="42.335688" lon="2.050850">
        <ele>1727.4</ele>
        <time>2013-08-10T15:08:43Z</time>
      </trkpt>
      <trkpt lat="42.335557" lon="2.050937">
        <ele>1726.3</ele>
        <time>2013-08-10T15:08:57Z</time>
      </trkpt>
      <trkpt lat="42.335349" lon="2.051030">
        <ele>1724.0</ele>
        <time>2013-08-10T15:09:12Z</time>
      </trkpt>
      <trkpt lat="42.335215" lon="2.051077">
        <ele>1722.4</ele>
        <time>2013-08-10T15:09:26Z</time>
      </trkpt>
      <trkpt lat="42.335188" lon="2.051142">
        <ele>1720.9</ele>
        <time>2013-08-10T15:09:31Z</time>
      </trkpt>
      <trkpt lat="42.335143" lon="2.051194">
        <ele>1719.5</ele>
        <time>2013-08-10T15:09:35Z</time>
      </trkpt>
      <trkpt lat="42.334987" lon="2.051273">
        <ele>1716.7</ele>
        <time>2013-08-10T15:09:49Z</time>
      </trkpt>
      <trkpt lat="42.334913" lon="2.051308">
        <ele>1715.5</ele>
        <time>2013-08-10T15:10:04Z</time>
      </trkpt>
      <trkpt lat="42.334844" lon="2.051345">
        <ele>1714.0</ele>
        <time>2013-08-10T15:10:12Z</time>
      </trkpt>
      <trkpt lat="42.334842" lon="2.051420">
        <ele>1712.9</ele>
        <time>2013-08-10T15:10:18Z</time>
      </trkpt>
      <trkpt lat="42.334781" lon="2.051534">
        <ele>1710.4</ele>
        <time>2013-08-10T15:10:27Z</time>
      </trkpt>
      <trkpt lat="42.334619" lon="2.051640">
        <ele>1709.4</ele>
        <time>2013-08-10T15:10:40Z</time>
      </trkpt>
      <trkpt lat="42.334457" lon="2.051733">
        <ele>1707.3</ele>
        <time>2013-08-10T15:10:54Z</time>
      </trkpt>
      <trkpt lat="42.334363" lon="2.051739">
        <ele>1706.7</ele>
        <time>2013-08-10T15:11:02Z</time>
      </trkpt>
      <trkpt lat="42.334196" lon="2.051692">
        <ele>1707.3</ele>
        <time>2013-08-10T15:11:15Z</time>
      </trkpt>
      <trkpt lat="42.334128" lon="2.051622">
        <ele>1707.0</ele>
        <time>2013-08-10T15:11:25Z</time>
      </trkpt>
      <trkpt lat="42.334131" lon="2.051546">
        <ele>1706.8</ele>
        <time>2013-08-10T15:11:31Z</time>
      </trkpt>
      <trkpt lat="42.334185" lon="2.051393">
        <ele>1705.9</ele>
        <time>2013-08-10T15:11:43Z</time>
      </trkpt>
      <trkpt lat="42.334242" lon="2.051250">
        <ele>1704.7</ele>
        <time>2013-08-10T15:11:52Z</time>
      </trkpt>
      <trkpt lat="42.334187" lon="2.051106">
        <ele>1701.2</ele>
        <time>2013-08-10T15:12:06Z</time>
      </trkpt>
      <trkpt lat="42.334173" lon="2.051082">
        <ele>1700.7</ele>
        <time>2013-08-10T15:12:09Z</time>
      </trkpt>
      <trkpt lat="42.334149" lon="2.051048">
        <ele>1699.5</ele>
        <time>2013-08-10T15:12:13Z</time>
      </trkpt>
      <trkpt lat="42.334071" lon="2.050936">
        <ele>1695.5</ele>
        <time>2013-08-10T15:12:27Z</time>
      </trkpt>
      <trkpt lat="42.334027" lon="2.050902">
        <ele>1693.6</ele>
        <time>2013-08-10T15:12:32Z</time>
      </trkpt>
      <trkpt lat="42.333997" lon="2.050886">
        <ele>1692.5</ele>
        <time>2013-08-10T15:12:44Z</time>
      </trkpt>
      <trkpt lat="42.333997" lon="2.050886">
        <ele>1692.5</ele>
        <time>2013-08-10T15:12:51Z</time>
      </trkpt>
      <trkpt lat="42.333954" lon="2.050847">
        <ele>1690.6</ele>
        <time>2013-08-10T15:12:55Z</time>
      </trkpt>
      <trkpt lat="42.333928" lon="2.050841">
        <ele>1689.7</ele>
        <time>2013-08-10T15:12:57Z</time>
      </trkpt>
      <trkpt lat="42.333901" lon="2.050848">
        <ele>1689.1</ele>
        <time>2013-08-10T15:13:03Z</time>
      </trkpt>
      <trkpt lat="42.333849" lon="2.050886">
        <ele>1688.2</ele>
        <time>2013-08-10T15:13:10Z</time>
      </trkpt>
      <trkpt lat="42.333806" lon="2.050932">
        <ele>1687.8</ele>
        <time>2013-08-10T15:13:14Z</time>
      </trkpt>
      <trkpt lat="42.333791" lon="2.050976">
        <ele>1688.3</ele>
        <time>2013-08-10T15:13:17Z</time>
      </trkpt>
      <trkpt lat="42.333655" lon="2.051101">
        <ele>1687.0</ele>
        <time>2013-08-10T15:13:33Z</time>
      </trkpt>
      <trkpt lat="42.333606" lon="2.051163">
        <ele>1687.0</ele>
        <time>2013-08-10T15:13:36Z</time>
      </trkpt>
      <trkpt lat="42.333506" lon="2.051341">
        <ele>1687.3</ele>
        <time>2013-08-10T15:13:49Z</time>
      </trkpt>
      <trkpt lat="42.333425" lon="2.051524">
        <ele>1686.9</ele>
        <time>2013-08-10T15:14:02Z</time>
      </trkpt>
      <trkpt lat="42.333344" lon="2.051781">
        <ele>1687.1</ele>
        <time>2013-08-10T15:14:17Z</time>
      </trkpt>
      <trkpt lat="42.333346" lon="2.051958">
        <ele>1687.4</ele>
        <time>2013-08-10T15:14:30Z</time>
      </trkpt>
      <trkpt lat="42.333339" lon="2.052108">
        <ele>1685.8</ele>
        <time>2013-08-10T15:14:39Z</time>
      </trkpt>
      <trkpt lat="42.333375" lon="2.052222">
        <ele>1685.9</ele>
        <time>2013-08-10T15:14:45Z</time>
      </trkpt>
      <trkpt lat="42.333496" lon="2.052455">
        <ele>1682.5</ele>
        <time>2013-08-10T15:14:59Z</time>
      </trkpt>
      <trkpt lat="42.333594" lon="2.052505">
        <ele>1681.3</ele>
        <time>2013-08-10T15:15:10Z</time>
      </trkpt>
      <trkpt lat="42.333618" lon="2.052522">
        <ele>1681.1</ele>
        <time>2013-08-10T15:15:12Z</time>
      </trkpt>
      <trkpt lat="42.333727" lon="2.052624">
        <ele>1680.5</ele>
        <time>2013-08-10T15:15:21Z</time>
      </trkpt>
      <trkpt lat="42.333871" lon="2.052764">
        <ele>1679.6</ele>
        <time>2013-08-10T15:15:36Z</time>
      </trkpt>
      <trkpt lat="42.334025" lon="2.052885">
        <ele>1677.7</ele>
        <time>2013-08-10T15:15:49Z</time>
      </trkpt>
      <trkpt lat="42.334088" lon="2.052925">
        <ele>1676.5</ele>
        <time>2013-08-10T15:16:02Z</time>
      </trkpt>
      <trkpt lat="42.334179" lon="2.052998">
        <ele>1675.3</ele>
        <time>2013-08-10T15:16:13Z</time>
      </trkpt>
      <trkpt lat="42.334301" lon="2.053064">
        <ele>1674.2</ele>
        <time>2013-08-10T15:16:25Z</time>
      </trkpt>
      <trkpt lat="42.334454" lon="2.053168">
        <ele>1671.8</ele>
        <time>2013-08-10T15:16:38Z</time>
      </trkpt>
      <trkpt lat="42.334554" lon="2.053216">
        <ele>1670.9</ele>
        <time>2013-08-10T15:16:43Z</time>
      </trkpt>
      <trkpt lat="42.334670" lon="2.053285">
        <ele>1669.6</ele>
        <time>2013-08-10T15:16:55Z</time>
      </trkpt>
      <trkpt lat="42.334895" lon="2.053399">
        <ele>1667.9</ele>
        <time>2013-08-10T15:17:10Z</time>
      </trkpt>
      <trkpt lat="42.334978" lon="2.053468">
        <ele>1667.3</ele>
        <time>2013-08-10T15:17:24Z</time>
      </trkpt>
      <trkpt lat="42.335150" lon="2.053623">
        <ele>1666.2</ele>
        <time>2013-08-10T15:17:36Z</time>
      </trkpt>
      <trkpt lat="42.335176" lon="2.053658">
        <ele>1665.8</ele>
        <time>2013-08-10T15:17:38Z</time>
      </trkpt>
      <trkpt lat="42.335233" lon="2.053838">
        <ele>1663.7</ele>
        <time>2013-08-10T15:17:48Z</time>
      </trkpt>
      <trkpt lat="42.335073" lon="2.054147">
        <ele>1659.6</ele>
        <time>2013-08-10T15:18:04Z</time>
      </trkpt>
      <trkpt lat="42.334865" lon="2.054251">
        <ele>1656.9</ele>
        <time>2013-08-10T15:18:19Z</time>
      </trkpt>
      <trkpt lat="42.334748" lon="2.054394">
        <ele>1655.2</ele>
        <time>2013-08-10T15:18:33Z</time>
      </trkpt>
      <trkpt lat="42.334746" lon="2.054406">
        <ele>1655.1</ele>
        <time>2013-08-10T15:18:34Z</time>
      </trkpt>
      <trkpt lat="42.334727" lon="2.054517">
        <ele>1654.9</ele>
        <time>2013-08-10T15:18:40Z</time>
      </trkpt>
      <trkpt lat="42.334787" lon="2.054657">
        <ele>1654.8</ele>
        <time>2013-08-10T15:18:51Z</time>
      </trkpt>
      <trkpt lat="42.334837" lon="2.054686">
        <ele>1653.7</ele>
        <time>2013-08-10T15:18:55Z</time>
      </trkpt>
      <trkpt lat="42.334958" lon="2.054708">
        <ele>1651.4</ele>
        <time>2013-08-10T15:19:07Z</time>
      </trkpt>
      <trkpt lat="42.335128" lon="2.054680">
        <ele>1649.7</ele>
        <time>2013-08-10T15:19:21Z</time>
      </trkpt>
      <trkpt lat="42.335367" lon="2.054671">
        <ele>1644.8</ele>
        <time>2013-08-10T15:19:35Z</time>
      </trkpt>
      <trkpt lat="42.335409" lon="2.054639">
        <ele>1645.0</ele>
        <time>2013-08-10T15:19:40Z</time>
      </trkpt>
      <trkpt lat="42.335615" lon="2.054539">
        <ele>1641.3</ele>
        <time>2013-08-10T15:19:54Z</time>
      </trkpt>
      <trkpt lat="42.335684" lon="2.054460">
        <ele>1639.8</ele>
        <time>2013-08-10T15:20:01Z</time>
      </trkpt>
      <trkpt lat="42.335712" lon="2.054389">
        <ele>1640.2</ele>
        <time>2013-08-10T15:20:06Z</time>
      </trkpt>
      <trkpt lat="42.335801" lon="2.054265">
        <ele>1637.4</ele>
        <time>2013-08-10T15:20:18Z</time>
      </trkpt>
      <trkpt lat="42.335845" lon="2.054178">
        <ele>1637.2</ele>
        <time>2013-08-10T15:20:23Z</time>
      </trkpt>
      <trkpt lat="42.335864" lon="2.054107">
        <ele>1638.2</ele>
        <time>2013-08-10T15:20:27Z</time>
      </trkpt>
      <trkpt lat="42.335968" lon="2.053961">
        <ele>1637.4</ele>
        <time>2013-08-10T15:20:39Z</time>
      </trkpt>
      <trkpt lat="42.336213" lon="2.053891">
        <ele>1630.0</ele>
        <time>2013-08-10T15:20:54Z</time>
      </trkpt>
      <trkpt lat="42.336312" lon="2.053842">
        <ele>1632.7</ele>
        <time>2013-08-10T15:21:06Z</time>
      </trkpt>
      <trkpt lat="42.336330" lon="2.053852">
        <ele>1632.0</ele>
        <time>2013-08-10T15:25:24Z</time>
      </trkpt>
      <trkpt lat="42.336382" lon="2.053842">
        <ele>1631.7</ele>
        <time>2013-08-10T15:25:38Z</time>
      </trkpt>
      <trkpt lat="42.336393" lon="2.053843">
        <ele>1631.5</ele>
        <time>2013-08-10T15:25:39Z</time>
      </trkpt>
      <trkpt lat="42.336450" lon="2.053838">
        <ele>1631.5</ele>
        <time>2013-08-10T15:25:51Z</time>
      </trkpt>
      <trkpt lat="42.336470" lon="2.053828">
        <ele>1631.8</ele>
        <time>2013-08-10T15:26:06Z</time>
      </trkpt>
      <trkpt lat="42.336481" lon="2.053851">
        <ele>1632.1</ele>
        <time>2013-08-10T15:26:10Z</time>
      </trkpt>
      <trkpt lat="42.336359" lon="2.054053">
        <ele>1631.9</ele>
        <time>2013-08-10T15:26:25Z</time>
      </trkpt>
      <trkpt lat="42.336352" lon="2.054080">
        <ele>1632.3</ele>
        <time>2013-08-10T15:26:27Z</time>
      </trkpt>
      <trkpt lat="42.336330" lon="2.054141">
        <ele>1632.9</ele>
        <time>2013-08-10T15:26:42Z</time>
      </trkpt>
      <trkpt lat="42.336327" lon="2.054182">
        <ele>1633.1</ele>
        <time>2013-08-10T15:27:11Z</time>
      </trkpt>
      <trkpt lat="42.336285" lon="2.054465">
        <ele>1633.3</ele>
        <time>2013-08-10T15:27:27Z</time>
      </trkpt>
      <trkpt lat="42.336218" lon="2.054794">
        <ele>1635.1</ele>
        <time>2013-08-10T15:27:43Z</time>
      </trkpt>
      <trkpt lat="42.336141" lon="2.055083">
        <ele>1635.0</ele>
        <time>2013-08-10T15:27:59Z</time>
      </trkpt>
      <trkpt lat="42.336025" lon="2.055334">
        <ele>1633.1</ele>
        <time>2013-08-10T15:28:15Z</time>
      </trkpt>
      <trkpt lat="42.335855" lon="2.055533">
        <ele>1629.8</ele>
        <time>2013-08-10T15:28:30Z</time>
      </trkpt>
      <trkpt lat="42.335728" lon="2.055704">
        <ele>1627.9</ele>
        <time>2013-08-10T15:28:45Z</time>
      </trkpt>
      <trkpt lat="42.335629" lon="2.055971">
        <ele>1624.7</ele>
        <time>2013-08-10T15:29:02Z</time>
      </trkpt>
      <trkpt lat="42.335593" lon="2.056038">
        <ele>1623.9</ele>
        <time>2013-08-10T15:29:06Z</time>
      </trkpt>
      <trkpt lat="42.335450" lon="2.056276">
        <ele>1621.9</ele>
        <time>2013-08-10T15:29:22Z</time>
      </trkpt>
      <trkpt lat="42.335253" lon="2.056557">
        <ele>1620.4</ele>
        <time>2013-08-10T15:29:41Z</time>
      </trkpt>
      <trkpt lat="42.335153" lon="2.056672">
        <ele>1619.9</ele>
        <time>2013-08-10T15:29:49Z</time>
      </trkpt>
      <trkpt lat="42.334961" lon="2.056823">
        <ele>1619.2</ele>
        <time>2013-08-10T15:30:03Z</time>
      </trkpt>
      <trkpt lat="42.334790" lon="2.057057">
        <ele>1617.9</ele>
        <time>2013-08-10T15:30:19Z</time>
      </trkpt>
      <trkpt lat="42.334751" lon="2.057240">
        <ele>1616.4</ele>
        <time>2013-08-10T15:30:32Z</time>
      </trkpt>
      <trkpt lat="42.334714" lon="2.057589">
        <ele>1614.3</ele>
        <time>2013-08-10T15:30:49Z</time>
      </trkpt>
      <trkpt lat="42.334707" lon="2.057690">
        <ele>1614.2</ele>
        <time>2013-08-10T15:30:59Z</time>
      </trkpt>
      <trkpt lat="42.334703" lon="2.057717">
        <ele>1614.2</ele>
        <time>2013-08-10T15:31:05Z</time>
      </trkpt>
      <trkpt lat="42.334687" lon="2.058004">
        <ele>1613.7</ele>
        <time>2013-08-10T15:31:21Z</time>
      </trkpt>
      <trkpt lat="42.334723" lon="2.058346">
        <ele>1611.3</ele>
        <time>2013-08-10T15:31:39Z</time>
      </trkpt>
      <trkpt lat="42.334745" lon="2.058460">
        <ele>1611.0</ele>
        <time>2013-08-10T15:31:45Z</time>
      </trkpt>
      <trkpt lat="42.334759" lon="2.058603">
        <ele>1610.5</ele>
        <time>2013-08-10T15:31:58Z</time>
      </trkpt>
      <trkpt lat="42.334740" lon="2.058825">
        <ele>1609.7</ele>
        <time>2013-08-10T15:32:12Z</time>
      </trkpt>
      <trkpt lat="42.334713" lon="2.059046">
        <ele>1607.8</ele>
        <time>2013-08-10T15:32:26Z</time>
      </trkpt>
      <trkpt lat="42.334655" lon="2.059313">
        <ele>1604.8</ele>
        <time>2013-08-10T15:32:41Z</time>
      </trkpt>
      <trkpt lat="42.334609" lon="2.059603">
        <ele>1601.4</ele>
        <time>2013-08-10T15:32:57Z</time>
      </trkpt>
      <trkpt lat="42.334575" lon="2.059882">
        <ele>1598.5</ele>
        <time>2013-08-10T15:33:15Z</time>
      </trkpt>
      <trkpt lat="42.334527" lon="2.060211">
        <ele>1597.9</ele>
        <time>2013-08-10T15:33:31Z</time>
      </trkpt>
      <trkpt lat="42.334470" lon="2.060492">
        <ele>1595.6</ele>
        <time>2013-08-10T15:33:46Z</time>
      </trkpt>
      <trkpt lat="42.334404" lon="2.060731">
        <ele>1592.8</ele>
        <time>2013-08-10T15:34:02Z</time>
      </trkpt>
      <trkpt lat="42.334340" lon="2.061013">
        <ele>1591.0</ele>
        <time>2013-08-10T15:34:17Z</time>
      </trkpt>
      <trkpt lat="42.334306" lon="2.061311">
        <ele>1588.2</ele>
        <time>2013-08-10T15:34:33Z</time>
      </trkpt>
      <trkpt lat="42.334262" lon="2.061548">
        <ele>1584.3</ele>
        <time>2013-08-10T15:34:49Z</time>
      </trkpt>
      <trkpt lat="42.334211" lon="2.061853">
        <ele>1581.4</ele>
        <time>2013-08-10T15:35:04Z</time>
      </trkpt>
      <trkpt lat="42.334212" lon="2.061981">
        <ele>1580.1</ele>
        <time>2013-08-10T15:35:11Z</time>
      </trkpt>
      <trkpt lat="42.334140" lon="2.062216">
        <ele>1575.6</ele>
        <time>2013-08-10T15:35:28Z</time>
      </trkpt>
      <trkpt lat="42.333937" lon="2.062418">
        <ele>1572.9</ele>
        <time>2013-08-10T15:35:45Z</time>
      </trkpt>
      <trkpt lat="42.333821" lon="2.062590">
        <ele>1570.8</ele>
        <time>2013-08-10T15:36:01Z</time>
      </trkpt>
      <trkpt lat="42.333810" lon="2.062606">
        <ele>1570.5</ele>
        <time>2013-08-10T15:36:07Z</time>
      </trkpt>
      <trkpt lat="42.333799" lon="2.062844">
        <ele>1567.5</ele>
        <time>2013-08-10T15:36:22Z</time>
      </trkpt>
      <trkpt lat="42.333844" lon="2.063078">
        <ele>1564.7</ele>
        <time>2013-08-10T15:36:34Z</time>
      </trkpt>
      <trkpt lat="42.333861" lon="2.063239">
        <ele>1563.3</ele>
        <time>2013-08-10T15:36:45Z</time>
      </trkpt>
      <trkpt lat="42.333840" lon="2.063328">
        <ele>1561.8</ele>
        <time>2013-08-10T15:36:50Z</time>
      </trkpt>
      <trkpt lat="42.333769" lon="2.063569">
        <ele>1558.6</ele>
        <time>2013-08-10T15:37:07Z</time>
      </trkpt>
      <trkpt lat="42.333781" lon="2.063860">
        <ele>1557.0</ele>
        <time>2013-08-10T15:37:23Z</time>
      </trkpt>
      <trkpt lat="42.333793" lon="2.064128">
        <ele>1555.7</ele>
        <time>2013-08-10T15:37:38Z</time>
      </trkpt>
      <trkpt lat="42.333782" lon="2.064376">
        <ele>1552.2</ele>
        <time>2013-08-10T15:37:53Z</time>
      </trkpt>
      <trkpt lat="42.333735" lon="2.064659">
        <ele>1549.3</ele>
        <time>2013-08-10T15:38:09Z</time>
      </trkpt>
      <trkpt lat="42.333704" lon="2.064973">
        <ele>1547.5</ele>
        <time>2013-08-10T15:38:26Z</time>
      </trkpt>
      <trkpt lat="42.333664" lon="2.065233">
        <ele>1544.6</ele>
        <time>2013-08-10T15:38:42Z</time>
      </trkpt>
      <trkpt lat="42.333625" lon="2.065454">
        <ele>1542.5</ele>
        <time>2013-08-10T15:38:54Z</time>
      </trkpt>
      <trkpt lat="42.333597" lon="2.065776">
        <ele>1541.0</ele>
        <time>2013-08-10T15:39:08Z</time>
      </trkpt>
      <trkpt lat="42.333557" lon="2.065882">
        <ele>1539.6</ele>
        <time>2013-08-10T15:39:18Z</time>
      </trkpt>
      <trkpt lat="42.333557" lon="2.065954">
        <ele>1539.7</ele>
        <time>2013-08-10T15:39:22Z</time>
      </trkpt>
      <trkpt lat="42.333545" lon="2.066003">
        <ele>1539.5</ele>
        <time>2013-08-10T15:39:27Z</time>
      </trkpt>
      <trkpt lat="42.333535" lon="2.066004">
        <ele>1539.2</ele>
        <time>2013-08-10T15:39:29Z</time>
      </trkpt>
      <trkpt lat="42.333542" lon="2.066056">
        <ele>1539.5</ele>
        <time>2013-08-10T15:39:41Z</time>
      </trkpt>
      <trkpt lat="42.333539" lon="2.066067">
        <ele>1539.4</ele>
        <time>2013-08-10T15:39:44Z</time>
      </trkpt>
      <trkpt lat="42.333509" lon="2.066279">
        <ele>1538.3</ele>
        <time>2013-08-10T15:39:58Z</time>
      </trkpt>
      <trkpt lat="42.333484" lon="2.066528">
        <ele>1538.1</ele>
        <time>2013-08-10T15:40:13Z</time>
      </trkpt>
      <trkpt lat="42.333506" lon="2.066737">
        <ele>1539.3</ele>
        <time>2013-08-10T15:40:26Z</time>
      </trkpt>
      <trkpt lat="42.333537" lon="2.066843">
        <ele>1539.4</ele>
        <time>2013-08-10T15:40:34Z</time>
      </trkpt>
      <trkpt lat="42.333560" lon="2.066917">
        <ele>1539.4</ele>
        <time>2013-08-10T15:40:45Z</time>
      </trkpt>
      <trkpt lat="42.333530" lon="2.066870">
        <ele>1539.3</ele>
        <time>2013-08-10T15:40:57Z</time>
      </trkpt>
      <trkpt lat="42.333532" lon="2.066867">
        <ele>1539.3</ele>
        <time>2013-08-10T15:41:11Z</time>
      </trkpt>
      <trkpt lat="42.333537" lon="2.066880">
        <ele>1539.3</ele>
        <time>2013-08-10T15:41:19Z</time>
      </trkpt>
      <trkpt lat="42.333544" lon="2.066891">
        <ele>1539.3</ele>
        <time>2013-08-10T15:41:21Z</time>
      </trkpt>
      <trkpt lat="42.333624" lon="2.066972">
        <ele>1539.3</ele>
        <time>2013-08-10T15:41:31Z</time>
      </trkpt>
      <trkpt lat="42.333744" lon="2.067060">
        <ele>1538.8</ele>
        <time>2013-08-10T15:41:43Z</time>
      </trkpt>
      <trkpt lat="42.333867" lon="2.067140">
        <ele>1538.4</ele>
        <time>2013-08-10T15:41:57Z</time>
      </trkpt>
      <trkpt lat="42.333867" lon="2.067140">
        <ele>1538.4</ele>
        <time>2013-08-10T15:42:19Z</time>
      </trkpt>
      <trkpt lat="42.333958" lon="2.067194">
        <ele>1538.1</ele>
        <time>2013-08-10T15:42:35Z</time>
      </trkpt>
      <trkpt lat="42.334127" lon="2.067275">
        <ele>1536.5</ele>
        <time>2013-08-10T15:42:50Z</time>
      </trkpt>
      <trkpt lat="42.334320" lon="2.067384">
        <ele>1534.1</ele>
        <time>2013-08-10T15:43:07Z</time>
      </trkpt>
      <trkpt lat="42.334451" lon="2.067576">
        <ele>1531.8</ele>
        <time>2013-08-10T15:43:22Z</time>
      </trkpt>
      <trkpt lat="42.334631" lon="2.067687">
        <ele>1528.9</ele>
        <time>2013-08-10T15:43:38Z</time>
      </trkpt>
      <trkpt lat="42.334803" lon="2.067781">
        <ele>1527.2</ele>
        <time>2013-08-10T15:43:52Z</time>
      </trkpt>
      <trkpt lat="42.335012" lon="2.067869">
        <ele>1525.9</ele>
        <time>2013-08-10T15:44:08Z</time>
      </trkpt>
      <trkpt lat="42.335223" lon="2.067907">
        <ele>1523.0</ele>
        <time>2013-08-10T15:46:12Z</time>
      </trkpt>
      <trkpt lat="42.335416" lon="2.067901">
        <ele>1520.3</ele>
        <time>2013-08-10T15:46:29Z</time>
      </trkpt>
      <trkpt lat="42.335644" lon="2.067939">
        <ele>1517.1</ele>
        <time>2013-08-10T15:46:46Z</time>
      </trkpt>
      <trkpt lat="42.335822" lon="2.067982">
        <ele>1514.7</ele>
        <time>2013-08-10T15:47:01Z</time>
      </trkpt>
      <trkpt lat="42.335895" lon="2.068175">
        <ele>1512.6</ele>
        <time>2013-08-10T15:47:14Z</time>
      </trkpt>
      <trkpt lat="42.335715" lon="2.068244">
        <ele>1510.9</ele>
        <time>2013-08-10T15:47:28Z</time>
      </trkpt>
      <trkpt lat="42.335519" lon="2.068244">
        <ele>1509.3</ele>
        <time>2013-08-10T15:47:44Z</time>
      </trkpt>
      <trkpt lat="42.335254" lon="2.068312">
        <ele>1507.6</ele>
        <time>2013-08-10T15:48:01Z</time>
      </trkpt>
      <trkpt lat="42.335082" lon="2.068384">
        <ele>1507.1</ele>
        <time>2013-08-10T15:48:18Z</time>
      </trkpt>
      <trkpt lat="42.334835" lon="2.068461">
        <ele>1507.2</ele>
        <time>2013-08-10T15:48:34Z</time>
      </trkpt>
      <trkpt lat="42.334615" lon="2.068408">
        <ele>1506.7</ele>
        <time>2013-08-10T15:48:51Z</time>
      </trkpt>
      <trkpt lat="42.334560" lon="2.068396">
        <ele>1506.1</ele>
        <time>2013-08-10T15:48:55Z</time>
      </trkpt>
      <trkpt lat="42.334294" lon="2.068401">
        <ele>1505.1</ele>
        <time>2013-08-10T15:49:13Z</time>
      </trkpt>
      <trkpt lat="42.334153" lon="2.068328">
        <ele>1504.8</ele>
        <time>2013-08-10T15:49:26Z</time>
      </trkpt>
      <trkpt lat="42.333970" lon="2.068365">
        <ele>1503.2</ele>
        <time>2013-08-10T15:49:41Z</time>
      </trkpt>
      <trkpt lat="42.333811" lon="2.068510">
        <ele>1501.5</ele>
        <time>2013-08-10T15:49:57Z</time>
      </trkpt>
      <trkpt lat="42.333773" lon="2.068539">
        <ele>1500.7</ele>
        <time>2013-08-10T15:50:00Z</time>
      </trkpt>
      <trkpt lat="42.333738" lon="2.068583">
        <ele>1500.1</ele>
        <time>2013-08-10T15:50:14Z</time>
      </trkpt>
      <trkpt lat="42.333759" lon="2.068636">
        <ele>1499.6</ele>
        <time>2013-08-10T15:50:29Z</time>
      </trkpt>
      <trkpt lat="42.333814" lon="2.068678">
        <ele>1497.9</ele>
        <time>2013-08-10T15:50:34Z</time>
      </trkpt>
      <trkpt lat="42.333861" lon="2.068680">
        <ele>1497.0</ele>
        <time>2013-08-10T15:50:37Z</time>
      </trkpt>
      <trkpt lat="42.334026" lon="2.068577">
        <ele>1492.8</ele>
        <time>2013-08-10T15:50:52Z</time>
      </trkpt>
      <trkpt lat="42.334060" lon="2.068593">
        <ele>1492.2</ele>
        <time>2013-08-10T15:50:56Z</time>
      </trkpt>
      <trkpt lat="42.334126" lon="2.068630">
        <ele>1490.8</ele>
        <time>2013-08-10T15:51:02Z</time>
      </trkpt>
      <trkpt lat="42.334225" lon="2.068726">
        <ele>1489.1</ele>
        <time>2013-08-10T15:51:14Z</time>
      </trkpt>
      <trkpt lat="42.334241" lon="2.068753">
        <ele>1488.6</ele>
        <time>2013-08-10T15:51:16Z</time>
      </trkpt>
      <trkpt lat="42.334378" lon="2.068929">
        <ele>1484.5</ele>
        <time>2013-08-10T15:51:30Z</time>
      </trkpt>
      <trkpt lat="42.334465" lon="2.068986">
        <ele>1483.0</ele>
        <time>2013-08-10T15:51:37Z</time>
      </trkpt>
      <trkpt lat="42.334555" lon="2.069101">
        <ele>1480.2</ele>
        <time>2013-08-10T15:51:48Z</time>
      </trkpt>
      <trkpt lat="42.334590" lon="2.069146">
        <ele>1479.2</ele>
        <time>2013-08-10T15:51:52Z</time>
      </trkpt>
      <trkpt lat="42.334601" lon="2.069156">
        <ele>1478.9</ele>
        <time>2013-08-10T15:51:53Z</time>
      </trkpt>
      <trkpt lat="42.334642" lon="2.069205">
        <ele>1477.7</ele>
        <time>2013-08-10T15:51:57Z</time>
      </trkpt>
      <trkpt lat="42.334745" lon="2.069371">
        <ele>1474.2</ele>
        <time>2013-08-10T15:52:13Z</time>
      </trkpt>
      <trkpt lat="42.334779" lon="2.069411">
        <ele>1473.1</ele>
        <time>2013-08-10T15:52:17Z</time>
      </trkpt>
      <trkpt lat="42.334876" lon="2.069530">
        <ele>1470.1</ele>
        <time>2013-08-10T15:52:30Z</time>
      </trkpt>
      <trkpt lat="42.334890" lon="2.069537">
        <ele>1469.8</ele>
        <time>2013-08-10T15:52:31Z</time>
      </trkpt>
      <trkpt lat="42.334946" lon="2.069558">
        <ele>1468.8</ele>
        <time>2013-08-10T15:52:35Z</time>
      </trkpt>
      <trkpt lat="42.334995" lon="2.069590">
        <ele>1467.3</ele>
        <time>2013-08-10T15:52:39Z</time>
      </trkpt>
      <trkpt lat="42.335054" lon="2.069618">
        <ele>1465.6</ele>
        <time>2013-08-10T15:52:43Z</time>
      </trkpt>
      <trkpt lat="42.335084" lon="2.069611">
        <ele>1465.0</ele>
        <time>2013-08-10T15:52:45Z</time>
      </trkpt>
      <trkpt lat="42.335269" lon="2.069573">
        <ele>1460.6</ele>
        <time>2013-08-10T15:52:58Z</time>
      </trkpt>
      <trkpt lat="42.335450" lon="2.069537">
        <ele>1458.8</ele>
        <time>2013-08-10T15:53:12Z</time>
      </trkpt>
      <trkpt lat="42.335687" lon="2.069596">
        <ele>1456.2</ele>
        <time>2013-08-10T15:53:27Z</time>
      </trkpt>
      <trkpt lat="42.335817" lon="2.069633">
        <ele>1453.8</ele>
        <time>2013-08-10T15:53:39Z</time>
      </trkpt>
      <trkpt lat="42.336009" lon="2.069636">
        <ele>1452.3</ele>
        <time>2013-08-10T15:53:54Z</time>
      </trkpt>
      <trkpt lat="42.336101" lon="2.069603">
        <ele>1450.9</ele>
        <time>2013-08-10T15:54:08Z</time>
      </trkpt>
      <trkpt lat="42.336272" lon="2.069646">
        <ele>1447.0</ele>
        <time>2013-08-10T15:54:20Z</time>
      </trkpt>
      <trkpt lat="42.336283" lon="2.069692">
        <ele>1445.9</ele>
        <time>2013-08-10T15:54:24Z</time>
      </trkpt>
      <trkpt lat="42.336240" lon="2.069735">
        <ele>1444.5</ele>
        <time>2013-08-10T15:54:30Z</time>
      </trkpt>
      <trkpt lat="42.336218" lon="2.069779">
        <ele>1442.8</ele>
        <time>2013-08-10T15:54:34Z</time>
      </trkpt>
      <trkpt lat="42.336167" lon="2.069821">
        <ele>1441.0</ele>
        <time>2013-08-10T15:54:50Z</time>
      </trkpt>
      <trkpt lat="42.336158" lon="2.069828">
        <ele>1440.8</ele>
        <time>2013-08-10T15:55:05Z</time>
      </trkpt>
      <trkpt lat="42.336126" lon="2.069877">
        <ele>1440.0</ele>
        <time>2013-08-10T15:55:16Z</time>
      </trkpt>
      <trkpt lat="42.336087" lon="2.069934">
        <ele>1439.3</ele>
        <time>2013-08-10T15:55:27Z</time>
      </trkpt>
      <trkpt lat="42.336053" lon="2.070038">
        <ele>1442.0</ele>
        <time>2013-08-10T15:55:33Z</time>
      </trkpt>
      <trkpt lat="42.336001" lon="2.070205">
        <ele>1441.6</ele>
        <time>2013-08-10T15:55:41Z</time>
      </trkpt>
      <trkpt lat="42.335954" lon="2.070292">
        <ele>1441.6</ele>
        <time>2013-08-10T15:55:47Z</time>
      </trkpt>
      <trkpt lat="42.335905" lon="2.070504">
        <ele>1442.2</ele>
        <time>2013-08-10T15:56:00Z</time>
      </trkpt>
      <trkpt lat="42.335834" lon="2.070677">
        <ele>1438.6</ele>
        <time>2013-08-10T15:56:10Z</time>
      </trkpt>
      <trkpt lat="42.335804" lon="2.070717">
        <ele>1437.3</ele>
        <time>2013-08-10T15:56:13Z</time>
      </trkpt>
      <trkpt lat="42.335788" lon="2.070745">
        <ele>1436.6</ele>
        <time>2013-08-10T15:56:20Z</time>
      </trkpt>
      <trkpt lat="42.335752" lon="2.070847">
        <ele>1436.5</ele>
        <time>2013-08-10T15:56:33Z</time>
      </trkpt>
      <trkpt lat="42.335667" lon="2.071025">
        <ele>1435.7</ele>
        <time>2013-08-10T15:56:45Z</time>
      </trkpt>
      <trkpt lat="42.335651" lon="2.071058">
        <ele>1435.3</ele>
        <time>2013-08-10T15:56:47Z</time>
      </trkpt>
      <trkpt lat="42.335599" lon="2.071270">
        <ele>1432.7</ele>
        <time>2013-08-10T15:57:01Z</time>
      </trkpt>
      <trkpt lat="42.335578" lon="2.071435">
        <ele>1431.3</ele>
        <time>2013-08-10T15:57:09Z</time>
      </trkpt>
      <trkpt lat="42.335570" lon="2.071618">
        <ele>1429.3</ele>
        <time>2013-08-10T15:57:23Z</time>
      </trkpt>
      <trkpt lat="42.335661" lon="2.071932">
        <ele>1425.6</ele>
        <time>2013-08-10T15:57:37Z</time>
      </trkpt>
      <trkpt lat="42.335673" lon="2.071960">
        <ele>1425.4</ele>
        <time>2013-08-10T15:57:39Z</time>
      </trkpt>
      <trkpt lat="42.335743" lon="2.072047">
        <ele>1426.2</ele>
        <time>2013-08-10T15:57:47Z</time>
      </trkpt>
      <trkpt lat="42.335804" lon="2.072181">
        <ele>1424.4</ele>
        <time>2013-08-10T15:57:57Z</time>
      </trkpt>
      <trkpt lat="42.335945" lon="2.072280">
        <ele>1422.0</ele>
        <time>2013-08-10T15:58:11Z</time>
      </trkpt>
      <trkpt lat="42.335986" lon="2.072322">
        <ele>1420.8</ele>
        <time>2013-08-10T15:58:26Z</time>
      </trkpt>
      <trkpt lat="42.335997" lon="2.072369">
        <ele>1419.2</ele>
        <time>2013-08-10T15:58:40Z</time>
      </trkpt>
      <trkpt lat="42.335997" lon="2.072369">
        <ele>1419.2</ele>
        <time>2013-08-10T15:58:54Z</time>
      </trkpt>
      <trkpt lat="42.335998" lon="2.072375">
        <ele>1419.2</ele>
        <time>2013-08-10T15:59:23Z</time>
      </trkpt>
      <trkpt lat="42.335998" lon="2.072375">
        <ele>1419.2</ele>
        <time>2013-08-10T15:59:26Z</time>
      </trkpt>
      <trkpt lat="42.335916" lon="2.072428">
        <ele>1417.2</ele>
        <time>2013-08-10T15:59:36Z</time>
      </trkpt>
      <trkpt lat="42.335801" lon="2.072509">
        <ele>1419.2</ele>
        <time>2013-08-10T15:59:48Z</time>
      </trkpt>
      <trkpt lat="42.335760" lon="2.072522">
        <ele>1419.1</ele>
        <time>2013-08-10T15:59:52Z</time>
      </trkpt>
      <trkpt lat="42.335648" lon="2.072555">
        <ele>1419.1</ele>
        <time>2013-08-10T16:00:03Z</time>
      </trkpt>
      <trkpt lat="42.335595" lon="2.072579">
        <ele>1420.2</ele>
        <time>2013-08-10T16:00:14Z</time>
      </trkpt>
      <trkpt lat="42.335530" lon="2.072595">
        <ele>1421.1</ele>
        <time>2013-08-10T16:00:19Z</time>
      </trkpt>
      <trkpt lat="42.335396" lon="2.072638">
        <ele>1423.8</ele>
        <time>2013-08-10T16:00:31Z</time>
      </trkpt>
      <trkpt lat="42.335318" lon="2.072694">
        <ele>1425.5</ele>
        <time>2013-08-10T16:00:43Z</time>
      </trkpt>
      <trkpt lat="42.335230" lon="2.072740">
        <ele>1427.9</ele>
        <time>2013-08-10T16:00:55Z</time>
      </trkpt>
      <trkpt lat="42.335159" lon="2.072780">
        <ele>1430.0</ele>
        <time>2013-08-10T16:01:07Z</time>
      </trkpt>
      <trkpt lat="42.335084" lon="2.072814">
        <ele>1431.7</ele>
        <time>2013-08-10T16:01:19Z</time>
      </trkpt>
      <trkpt lat="42.334997" lon="2.072862">
        <ele>1434.9</ele>
        <time>2013-08-10T16:01:32Z</time>
      </trkpt>
      <trkpt lat="42.334932" lon="2.072897">
        <ele>1437.5</ele>
        <time>2013-08-10T16:01:43Z</time>
      </trkpt>
      <trkpt lat="42.334843" lon="2.072897">
        <ele>1439.3</ele>
        <time>2013-08-10T16:01:54Z</time>
      </trkpt>
      <trkpt lat="42.334783" lon="2.072897">
        <ele>1440.4</ele>
        <time>2013-08-10T16:02:01Z</time>
      </trkpt>
      <trkpt lat="42.334653" lon="2.072971">
        <ele>1442.4</ele>
        <time>2013-08-10T16:02:13Z</time>
      </trkpt>
      <trkpt lat="42.334554" lon="2.073059">
        <ele>1443.9</ele>
        <time>2013-08-10T16:02:25Z</time>
      </trkpt>
      <trkpt lat="42.334403" lon="2.073138">
        <ele>1443.7</ele>
        <time>2013-08-10T16:02:39Z</time>
      </trkpt>
      <trkpt lat="42.334380" lon="2.073153">
        <ele>1443.8</ele>
        <time>2013-08-10T16:02:41Z</time>
      </trkpt>
      <trkpt lat="42.334243" lon="2.073237">
        <ele>1444.5</ele>
        <time>2013-08-10T16:02:53Z</time>
      </trkpt>
      <trkpt lat="42.334213" lon="2.073254">
        <ele>1444.5</ele>
        <time>2013-08-10T16:02:56Z</time>
      </trkpt>
      <trkpt lat="42.334147" lon="2.073278">
        <ele>1445.0</ele>
        <time>2013-08-10T16:03:02Z</time>
      </trkpt>
      <trkpt lat="42.333970" lon="2.073345">
        <ele>1446.2</ele>
        <time>2013-08-10T16:03:16Z</time>
      </trkpt>
      <trkpt lat="42.333928" lon="2.073364">
        <ele>1446.9</ele>
        <time>2013-08-10T16:03:20Z</time>
      </trkpt>
      <trkpt lat="42.333833" lon="2.073367">
        <ele>1446.2</ele>
        <time>2013-08-10T16:03:29Z</time>
      </trkpt>
      <trkpt lat="42.333633" lon="2.073381">
        <ele>1443.3</ele>
        <time>2013-08-10T16:03:45Z</time>
      </trkpt>
      <trkpt lat="42.333576" lon="2.073415">
        <ele>1442.4</ele>
        <time>2013-08-10T16:03:53Z</time>
      </trkpt>
      <trkpt lat="42.333539" lon="2.073452">
        <ele>1443.3</ele>
        <time>2013-08-10T16:04:06Z</time>
      </trkpt>
      <trkpt lat="42.333430" lon="2.073517">
        <ele>1439.9</ele>
        <time>2013-08-10T16:04:21Z</time>
      </trkpt>
      <trkpt lat="42.333245" lon="2.073575">
        <ele>1437.4</ele>
        <time>2013-08-10T16:04:35Z</time>
      </trkpt>
      <trkpt lat="42.333227" lon="2.073585">
        <ele>1437.2</ele>
        <time>2013-08-10T16:04:37Z</time>
      </trkpt>
      <trkpt lat="42.333199" lon="2.073567">
        <ele>1435.6</ele>
        <time>2013-08-10T16:04:44Z</time>
      </trkpt>
      <trkpt lat="42.333193" lon="2.073543">
        <ele>1434.7</ele>
        <time>2013-08-10T16:04:46Z</time>
      </trkpt>
      <trkpt lat="42.333195" lon="2.073487">
        <ele>1432.8</ele>
        <time>2013-08-10T16:04:50Z</time>
      </trkpt>
      <trkpt lat="42.333134" lon="2.073485">
        <ele>1431.2</ele>
        <time>2013-08-10T16:04:56Z</time>
      </trkpt>
      <trkpt lat="42.333038" lon="2.073513">
        <ele>1427.6</ele>
        <time>2013-08-10T16:05:03Z</time>
      </trkpt>
      <trkpt lat="42.332951" lon="2.073493">
        <ele>1423.6</ele>
        <time>2013-08-10T16:05:16Z</time>
      </trkpt>
      <trkpt lat="42.332929" lon="2.073496">
        <ele>1423.0</ele>
        <time>2013-08-10T16:05:19Z</time>
      </trkpt>
      <trkpt lat="42.332905" lon="2.073512">
        <ele>1422.6</ele>
        <time>2013-08-10T16:05:22Z</time>
      </trkpt>
      <trkpt lat="42.332782" lon="2.073663">
        <ele>1419.1</ele>
        <time>2013-08-10T16:05:36Z</time>
      </trkpt>
      <trkpt lat="42.332744" lon="2.073716">
        <ele>1418.2</ele>
        <time>2013-08-10T16:05:42Z</time>
      </trkpt>
      <trkpt lat="42.332685" lon="2.073849">
        <ele>1416.7</ele>
        <time>2013-08-10T16:05:50Z</time>
      </trkpt>
      <trkpt lat="42.332615" lon="2.074065">
        <ele>1415.8</ele>
        <time>2013-08-10T16:06:04Z</time>
      </trkpt>
      <trkpt lat="42.332595" lon="2.074292">
        <ele>1413.9</ele>
        <time>2013-08-10T16:06:17Z</time>
      </trkpt>
      <trkpt lat="42.332613" lon="2.074551">
        <ele>1411.8</ele>
        <time>2013-08-10T16:06:34Z</time>
      </trkpt>
      <trkpt lat="42.332595" lon="2.074779">
        <ele>1409.3</ele>
        <time>2013-08-10T16:06:48Z</time>
      </trkpt>
      <trkpt lat="42.332564" lon="2.074906">
        <ele>1408.2</ele>
        <time>2013-08-10T16:06:57Z</time>
      </trkpt>
      <trkpt lat="42.332490" lon="2.075089">
        <ele>1407.8</ele>
        <time>2013-08-10T16:07:11Z</time>
      </trkpt>
      <trkpt lat="42.332489" lon="2.075177">
        <ele>1407.7</ele>
        <time>2013-08-10T16:07:26Z</time>
      </trkpt>
      <trkpt lat="42.332489" lon="2.075177">
        <ele>1407.7</ele>
        <time>2013-08-10T16:07:55Z</time>
      </trkpt>
      <trkpt lat="42.332489" lon="2.075182">
        <ele>1407.7</ele>
        <time>2013-08-10T16:08:26Z</time>
      </trkpt>
      <trkpt lat="42.332465" lon="2.075350">
        <ele>1405.8</ele>
        <time>2013-08-10T16:08:34Z</time>
      </trkpt>
      <trkpt lat="42.332444" lon="2.075422">
        <ele>1404.2</ele>
        <time>2013-08-10T16:08:42Z</time>
      </trkpt>
      <trkpt lat="42.332414" lon="2.075462">
        <ele>1402.5</ele>
        <time>2013-08-10T16:08:55Z</time>
      </trkpt>
      <trkpt lat="42.332361" lon="2.075480">
        <ele>1401.0</ele>
        <time>2013-08-10T16:09:08Z</time>
      </trkpt>
      <trkpt lat="42.332329" lon="2.075455">
        <ele>1399.6</ele>
        <time>2013-08-10T16:09:18Z</time>
      </trkpt>
      <trkpt lat="42.332318" lon="2.075443">
        <ele>1399.3</ele>
        <time>2013-08-10T16:09:19Z</time>
      </trkpt>
      <trkpt lat="42.332136" lon="2.075236">
        <ele>1399.1</ele>
        <time>2013-08-10T16:09:33Z</time>
      </trkpt>
      <trkpt lat="42.331946" lon="2.075102">
        <ele>1402.8</ele>
        <time>2013-08-10T16:09:45Z</time>
      </trkpt>
      <trkpt lat="42.331742" lon="2.074972">
        <ele>1402.4</ele>
        <time>2013-08-10T16:09:58Z</time>
      </trkpt>
      <trkpt lat="42.331572" lon="2.074933">
        <ele>1404.3</ele>
        <time>2013-08-10T16:10:11Z</time>
      </trkpt>
      <trkpt lat="42.331389" lon="2.074966">
        <ele>1404.1</ele>
        <time>2013-08-10T16:10:25Z</time>
      </trkpt>
      <trkpt lat="42.331248" lon="2.075079">
        <ele>1404.6</ele>
        <time>2013-08-10T16:10:38Z</time>
      </trkpt>
      <trkpt lat="42.331160" lon="2.075172">
        <ele>1406.1</ele>
        <time>2013-08-10T16:10:49Z</time>
      </trkpt>
      <trkpt lat="42.331085" lon="2.075177">
        <ele>1405.7</ele>
        <time>2013-08-10T16:10:55Z</time>
      </trkpt>
      <trkpt lat="42.330954" lon="2.075160">
        <ele>1407.6</ele>
        <time>2013-08-10T16:11:06Z</time>
      </trkpt>
      <trkpt lat="42.330782" lon="2.075173">
        <ele>1409.0</ele>
        <time>2013-08-10T16:11:21Z</time>
      </trkpt>
      <trkpt lat="42.330607" lon="2.075089">
        <ele>1408.5</ele>
        <time>2013-08-10T16:11:36Z</time>
      </trkpt>
      <trkpt lat="42.330441" lon="2.075059">
        <ele>1408.5</ele>
        <time>2013-08-10T16:11:48Z</time>
      </trkpt>
      <trkpt lat="42.330378" lon="2.075085">
        <ele>1409.6</ele>
        <time>2013-08-10T16:11:53Z</time>
      </trkpt>
      <trkpt lat="42.330342" lon="2.075108">
        <ele>1409.9</ele>
        <time>2013-08-10T16:11:56Z</time>
      </trkpt>
      <trkpt lat="42.330116" lon="2.075167">
        <ele>1408.7</ele>
        <time>2013-08-10T16:12:12Z</time>
      </trkpt>
      <trkpt lat="42.329988" lon="2.075272">
        <ele>1409.2</ele>
        <time>2013-08-10T16:12:24Z</time>
      </trkpt>
      <trkpt lat="42.329888" lon="2.075487">
        <ele>1406.6</ele>
        <time>2013-08-10T16:12:39Z</time>
      </trkpt>
      <trkpt lat="42.329862" lon="2.075674">
        <ele>1404.1</ele>
        <time>2013-08-10T16:12:52Z</time>
      </trkpt>
      <trkpt lat="42.329868" lon="2.075797">
        <ele>1403.1</ele>
        <time>2013-08-10T16:12:58Z</time>
      </trkpt>
      <trkpt lat="42.329843" lon="2.076010">
        <ele>1400.4</ele>
        <time>2013-08-10T16:13:11Z</time>
      </trkpt>
      <trkpt lat="42.329868" lon="2.076270">
        <ele>1399.7</ele>
        <time>2013-08-10T16:13:26Z</time>
      </trkpt>
      <trkpt lat="42.329861" lon="2.076495">
        <ele>1398.9</ele>
        <time>2013-08-10T16:13:41Z</time>
      </trkpt>
      <trkpt lat="42.329871" lon="2.076681">
        <ele>1398.8</ele>
        <time>2013-08-10T16:13:52Z</time>
      </trkpt>
      <trkpt lat="42.329835" lon="2.076913">
        <ele>1397.7</ele>
        <time>2013-08-10T16:14:05Z</time>
      </trkpt>
      <trkpt lat="42.329867" lon="2.077174">
        <ele>1399.3</ele>
        <time>2013-08-10T16:14:20Z</time>
      </trkpt>
      <trkpt lat="42.329889" lon="2.077429">
        <ele>1397.7</ele>
        <time>2013-08-10T16:14:34Z</time>
      </trkpt>
      <trkpt lat="42.329878" lon="2.077584">
        <ele>1394.9</ele>
        <time>2013-08-10T16:14:45Z</time>
      </trkpt>
      <trkpt lat="42.329762" lon="2.077657">
        <ele>1392.5</ele>
        <time>2013-08-10T16:14:58Z</time>
      </trkpt>
      <trkpt lat="42.329687" lon="2.077639">
        <ele>1391.9</ele>
        <time>2013-08-10T16:15:07Z</time>
      </trkpt>
      <trkpt lat="42.329486" lon="2.077642">
        <ele>1391.5</ele>
        <time>2013-08-10T16:15:21Z</time>
      </trkpt>
      <trkpt lat="42.329362" lon="2.077628">
        <ele>1389.9</ele>
        <time>2013-08-10T16:15:31Z</time>
      </trkpt>
      <trkpt lat="42.329189" lon="2.077706">
        <ele>1388.0</ele>
        <time>2013-08-10T16:15:46Z</time>
      </trkpt>
      <trkpt lat="42.329152" lon="2.077724">
        <ele>1387.5</ele>
        <time>2013-08-10T16:15:49Z</time>
      </trkpt>
      <trkpt lat="42.329022" lon="2.077853">
        <ele>1387.7</ele>
        <time>2013-08-10T16:16:03Z</time>
      </trkpt>
      <trkpt lat="42.328901" lon="2.077981">
        <ele>1387.5</ele>
        <time>2013-08-10T16:16:17Z</time>
      </trkpt>
      <trkpt lat="42.328821" lon="2.078065">
        <ele>1387.3</ele>
        <time>2013-08-10T16:16:24Z</time>
      </trkpt>
      <trkpt lat="42.328771" lon="2.078198">
        <ele>1388.8</ele>
        <time>2013-08-10T16:16:33Z</time>
      </trkpt>
      <trkpt lat="42.328666" lon="2.078339">
        <ele>1389.0</ele>
        <time>2013-08-10T16:16:45Z</time>
      </trkpt>
      <trkpt lat="42.328661" lon="2.078347">
        <ele>1389.1</ele>
        <time>2013-08-10T16:16:46Z</time>
      </trkpt>
      <trkpt lat="42.328636" lon="2.078404">
        <ele>1389.8</ele>
        <time>2013-08-10T16:16:50Z</time>
      </trkpt>
      <trkpt lat="42.328580" lon="2.078558">
        <ele>1391.0</ele>
        <time>2013-08-10T16:17:01Z</time>
      </trkpt>
      <trkpt lat="42.328573" lon="2.078825">
        <ele>1392.0</ele>
        <time>2013-08-10T16:17:16Z</time>
      </trkpt>
      <trkpt lat="42.328551" lon="2.078869">
        <ele>1391.5</ele>
        <time>2013-08-10T16:17:21Z</time>
      </trkpt>
      <trkpt lat="42.328506" lon="2.078896">
        <ele>1391.3</ele>
        <time>2013-08-10T16:17:25Z</time>
      </trkpt>
      <trkpt lat="42.328380" lon="2.078910">
        <ele>1390.7</ele>
        <time>2013-08-10T16:17:36Z</time>
      </trkpt>
      <trkpt lat="42.328194" lon="2.078908">
        <ele>1388.9</ele>
        <time>2013-08-10T16:17:49Z</time>
      </trkpt>
      <trkpt lat="42.328090" lon="2.078938">
        <ele>1388.1</ele>
        <time>2013-08-10T16:17:59Z</time>
      </trkpt>
      <trkpt lat="42.327920" lon="2.079116">
        <ele>1386.4</ele>
        <time>2013-08-10T16:18:13Z</time>
      </trkpt>
      <trkpt lat="42.327837" lon="2.079349">
        <ele>1384.3</ele>
        <time>2013-08-10T16:18:30Z</time>
      </trkpt>
      <trkpt lat="42.327826" lon="2.079383">
        <ele>1383.9</ele>
        <time>2013-08-10T16:18:32Z</time>
      </trkpt>
      <trkpt lat="42.327802" lon="2.079590">
        <ele>1384.5</ele>
        <time>2013-08-10T16:18:45Z</time>
      </trkpt>
      <trkpt lat="42.327795" lon="2.079690">
        <ele>1384.7</ele>
        <time>2013-08-10T16:18:52Z</time>
      </trkpt>
      <trkpt lat="42.327759" lon="2.079899">
        <ele>1385.1</ele>
        <time>2013-08-10T16:19:04Z</time>
      </trkpt>
      <trkpt lat="42.327717" lon="2.080191">
        <ele>1384.9</ele>
        <time>2013-08-10T16:19:20Z</time>
      </trkpt>
      <trkpt lat="42.327722" lon="2.080278">
        <ele>1385.6</ele>
        <time>2013-08-10T16:19:26Z</time>
      </trkpt>
      <trkpt lat="42.327732" lon="2.080376">
        <ele>1385.8</ele>
        <time>2013-08-10T16:19:31Z</time>
      </trkpt>
      <trkpt lat="42.327759" lon="2.080604">
        <ele>1386.7</ele>
        <time>2013-08-10T16:19:45Z</time>
      </trkpt>
      <trkpt lat="42.327789" lon="2.080861">
        <ele>1387.5</ele>
        <time>2013-08-10T16:20:00Z</time>
      </trkpt>
      <trkpt lat="42.327831" lon="2.081040">
        <ele>1388.9</ele>
        <time>2013-08-10T16:20:12Z</time>
      </trkpt>
      <trkpt lat="42.327833" lon="2.081137">
        <ele>1387.8</ele>
        <time>2013-08-10T16:20:19Z</time>
      </trkpt>
      <trkpt lat="42.327844" lon="2.081277">
        <ele>1386.5</ele>
        <time>2013-08-10T16:20:26Z</time>
      </trkpt>
      <trkpt lat="42.327836" lon="2.081401">
        <ele>1384.7</ele>
        <time>2013-08-10T16:20:36Z</time>
      </trkpt>
      <trkpt lat="42.327853" lon="2.081584">
        <ele>1383.4</ele>
        <time>2013-08-10T16:20:48Z</time>
      </trkpt>
      <trkpt lat="42.327873" lon="2.081763">
        <ele>1381.8</ele>
        <time>2013-08-10T16:20:59Z</time>
      </trkpt>
      <trkpt lat="42.327884" lon="2.081853">
        <ele>1381.0</ele>
        <time>2013-08-10T16:21:05Z</time>
      </trkpt>
      <trkpt lat="42.327913" lon="2.081912">
        <ele>1382.3</ele>
        <time>2013-08-10T16:21:10Z</time>
      </trkpt>
      <trkpt lat="42.327922" lon="2.081955">
        <ele>1383.0</ele>
        <time>2013-08-10T16:21:13Z</time>
      </trkpt>
      <trkpt lat="42.327915" lon="2.082026">
        <ele>1382.2</ele>
        <time>2013-08-10T16:21:18Z</time>
      </trkpt>
      <trkpt lat="42.327882" lon="2.082154">
        <ele>1380.0</ele>
        <time>2013-08-10T16:21:26Z</time>
      </trkpt>
      <trkpt lat="42.327867" lon="2.082361">
        <ele>1380.1</ele>
        <time>2013-08-10T16:21:38Z</time>
      </trkpt>
      <trkpt lat="42.327834" lon="2.082594">
        <ele>1379.9</ele>
        <time>2013-08-10T16:21:54Z</time>
      </trkpt>
      <trkpt lat="42.327796" lon="2.082684">
        <ele>1378.2</ele>
        <time>2013-08-10T16:22:01Z</time>
      </trkpt>
      <trkpt lat="42.327770" lon="2.082841">
        <ele>1379.6</ele>
        <time>2013-08-10T16:22:13Z</time>
      </trkpt>
      <trkpt lat="42.327753" lon="2.082937">
        <ele>1379.1</ele>
        <time>2013-08-10T16:22:18Z</time>
      </trkpt>
      <trkpt lat="42.327701" lon="2.083059">
        <ele>1377.4</ele>
        <time>2013-08-10T16:22:26Z</time>
      </trkpt>
      <trkpt lat="42.327651" lon="2.083173">
        <ele>1375.8</ele>
        <time>2013-08-10T16:22:33Z</time>
      </trkpt>
      <trkpt lat="42.327605" lon="2.083368">
        <ele>1373.5</ele>
        <time>2013-08-10T16:22:46Z</time>
      </trkpt>
      <trkpt lat="42.327612" lon="2.083563">
        <ele>1371.8</ele>
        <time>2013-08-10T16:22:56Z</time>
      </trkpt>
      <trkpt lat="42.327596" lon="2.083809">
        <ele>1369.4</ele>
        <time>2013-08-10T16:23:11Z</time>
      </trkpt>
      <trkpt lat="42.327618" lon="2.084100">
        <ele>1367.1</ele>
        <time>2013-08-10T16:23:26Z</time>
      </trkpt>
      <trkpt lat="42.327649" lon="2.084298">
        <ele>1365.1</ele>
        <time>2013-08-10T16:23:39Z</time>
      </trkpt>
      <trkpt lat="42.327667" lon="2.084343">
        <ele>1365.1</ele>
        <time>2013-08-10T16:23:42Z</time>
      </trkpt>
      <trkpt lat="42.327740" lon="2.084562">
        <ele>1364.3</ele>
        <time>2013-08-10T16:23:55Z</time>
      </trkpt>
      <trkpt lat="42.327832" lon="2.084870">
        <ele>1362.2</ele>
        <time>2013-08-10T16:24:12Z</time>
      </trkpt>
      <trkpt lat="42.327948" lon="2.085152">
        <ele>1361.8</ele>
        <time>2013-08-10T16:24:28Z</time>
      </trkpt>
      <trkpt lat="42.328043" lon="2.085336">
        <ele>1361.4</ele>
        <time>2013-08-10T16:24:43Z</time>
      </trkpt>
      <trkpt lat="42.328180" lon="2.085526">
        <ele>1361.2</ele>
        <time>2013-08-10T16:24:56Z</time>
      </trkpt>
      <trkpt lat="42.328293" lon="2.085606">
        <ele>1361.4</ele>
        <time>2013-08-10T16:25:05Z</time>
      </trkpt>
      <trkpt lat="42.328456" lon="2.085722">
        <ele>1361.7</ele>
        <time>2013-08-10T16:25:19Z</time>
      </trkpt>
      <trkpt lat="42.328632" lon="2.085755">
        <ele>1364.0</ele>
        <time>2013-08-10T16:25:33Z</time>
      </trkpt>
      <trkpt lat="42.328783" lon="2.085741">
        <ele>1367.0</ele>
        <time>2013-08-10T16:25:46Z</time>
      </trkpt>
      <trkpt lat="42.328794" lon="2.085742">
        <ele>1366.8</ele>
        <time>2013-08-10T16:25:47Z</time>
      </trkpt>
      <trkpt lat="42.328985" lon="2.085792">
        <ele>1364.9</ele>
        <time>2013-08-10T16:26:02Z</time>
      </trkpt>
      <trkpt lat="42.329080" lon="2.085837">
        <ele>1366.3</ele>
        <time>2013-08-10T16:26:10Z</time>
      </trkpt>
      <trkpt lat="42.329129" lon="2.085888">
        <ele>1365.6</ele>
        <time>2013-08-10T16:26:24Z</time>
      </trkpt>
      <trkpt lat="42.329147" lon="2.085949">
        <ele>1363.2</ele>
        <time>2013-08-10T16:26:39Z</time>
      </trkpt>
      <trkpt lat="42.329108" lon="2.086048">
        <ele>1361.7</ele>
        <time>2013-08-10T16:26:48Z</time>
      </trkpt>
      <trkpt lat="42.328964" lon="2.086249">
        <ele>1363.4</ele>
        <time>2013-08-10T16:27:03Z</time>
      </trkpt>
      <trkpt lat="42.328825" lon="2.086510">
        <ele>1362.0</ele>
        <time>2013-08-10T16:27:19Z</time>
      </trkpt>
      <trkpt lat="42.328755" lon="2.086602">
        <ele>1360.8</ele>
        <time>2013-08-10T16:27:27Z</time>
      </trkpt>
      <trkpt lat="42.328671" lon="2.086732">
        <ele>1358.4</ele>
        <time>2013-08-10T16:27:36Z</time>
      </trkpt>
      <trkpt lat="42.328576" lon="2.086798">
        <ele>1357.4</ele>
        <time>2013-08-10T16:27:42Z</time>
      </trkpt>
      <trkpt lat="42.328409" lon="2.086940">
        <ele>1355.6</ele>
        <time>2013-08-10T16:27:56Z</time>
      </trkpt>
      <trkpt lat="42.328285" lon="2.087151">
        <ele>1355.6</ele>
        <time>2013-08-10T16:28:11Z</time>
      </trkpt>
      <trkpt lat="42.328146" lon="2.087389">
        <ele>1354.6</ele>
        <time>2013-08-10T16:28:26Z</time>
      </trkpt>
      <trkpt lat="42.328016" lon="2.087655">
        <ele>1351.3</ele>
        <time>2013-08-10T16:28:44Z</time>
      </trkpt>
      <trkpt lat="42.327830" lon="2.087812">
        <ele>1351.6</ele>
        <time>2013-08-10T16:29:00Z</time>
      </trkpt>
      <trkpt lat="42.327631" lon="2.087966">
        <ele>1352.2</ele>
        <time>2013-08-10T16:29:16Z</time>
      </trkpt>
      <trkpt lat="42.327504" lon="2.088109">
        <ele>1352.8</ele>
        <time>2013-08-10T16:29:29Z</time>
      </trkpt>
      <trkpt lat="42.327497" lon="2.088123">
        <ele>1352.9</ele>
        <time>2013-08-10T16:29:30Z</time>
      </trkpt>
      <trkpt lat="42.327347" lon="2.088316">
        <ele>1352.3</ele>
        <time>2013-08-10T16:29:45Z</time>
      </trkpt>
      <trkpt lat="42.327252" lon="2.088522">
        <ele>1352.8</ele>
        <time>2013-08-10T16:29:59Z</time>
      </trkpt>
      <trkpt lat="42.327210" lon="2.088803">
        <ele>1352.1</ele>
        <time>2013-08-10T16:30:15Z</time>
      </trkpt>
      <trkpt lat="42.327211" lon="2.088835">
        <ele>1352.1</ele>
        <time>2013-08-10T16:30:17Z</time>
      </trkpt>
      <trkpt lat="42.327196" lon="2.088963">
        <ele>1351.7</ele>
        <time>2013-08-10T16:30:25Z</time>
      </trkpt>
      <trkpt lat="42.327186" lon="2.089278">
        <ele>1351.4</ele>
        <time>2013-08-10T16:30:41Z</time>
      </trkpt>
      <trkpt lat="42.327185" lon="2.089328">
        <ele>1351.0</ele>
        <time>2013-08-10T16:30:44Z</time>
      </trkpt>
      <trkpt lat="42.327165" lon="2.089475">
        <ele>1350.6</ele>
        <time>2013-08-10T16:30:51Z</time>
      </trkpt>
      <trkpt lat="42.327153" lon="2.089570">
        <ele>1350.5</ele>
        <time>2013-08-10T16:30:56Z</time>
      </trkpt>
      <trkpt lat="42.327123" lon="2.089796">
        <ele>1350.4</ele>
        <time>2013-08-10T16:31:10Z</time>
      </trkpt>
      <trkpt lat="42.327087" lon="2.090033">
        <ele>1350.0</ele>
        <time>2013-08-10T16:31:22Z</time>
      </trkpt>
      <trkpt lat="42.327019" lon="2.090310">
        <ele>1350.0</ele>
        <time>2013-08-10T16:31:37Z</time>
      </trkpt>
      <trkpt lat="42.327007" lon="2.090571">
        <ele>1351.2</ele>
        <time>2013-08-10T16:31:52Z</time>
      </trkpt>
      <trkpt lat="42.327007" lon="2.090604">
        <ele>1351.1</ele>
        <time>2013-08-10T16:31:54Z</time>
      </trkpt>
      <trkpt lat="42.327058" lon="2.090902">
        <ele>1349.5</ele>
        <time>2013-08-10T16:32:09Z</time>
      </trkpt>
      <trkpt lat="42.326974" lon="2.091150">
        <ele>1349.9</ele>
        <time>2013-08-10T16:32:22Z</time>
      </trkpt>
      <trkpt lat="42.326952" lon="2.091384">
        <ele>1349.3</ele>
        <time>2013-08-10T16:32:35Z</time>
      </trkpt>
      <trkpt lat="42.326932" lon="2.091711">
        <ele>1348.5</ele>
        <time>2013-08-10T16:32:52Z</time>
      </trkpt>
      <trkpt lat="42.326873" lon="2.092026">
        <ele>1347.4</ele>
        <time>2013-08-10T16:33:08Z</time>
      </trkpt>
      <trkpt lat="42.326856" lon="2.092057">
        <ele>1346.7</ele>
        <time>2013-08-10T16:33:10Z</time>
      </trkpt>
      <trkpt lat="42.326758" lon="2.092260">
        <ele>1344.0</ele>
        <time>2013-08-10T16:33:24Z</time>
      </trkpt>
      <trkpt lat="42.326641" lon="2.092476">
        <ele>1341.2</ele>
        <time>2013-08-10T16:33:39Z</time>
      </trkpt>
      <trkpt lat="42.326618" lon="2.092509">
        <ele>1340.8</ele>
        <time>2013-08-10T16:33:41Z</time>
      </trkpt>
      <trkpt lat="42.326591" lon="2.092590">
        <ele>1340.8</ele>
        <time>2013-08-10T16:33:45Z</time>
      </trkpt>
      <trkpt lat="42.326455" lon="2.092848">
        <ele>1337.2</ele>
        <time>2013-08-10T16:34:01Z</time>
      </trkpt>
      <trkpt lat="42.326336" lon="2.093008">
        <ele>1333.9</ele>
        <time>2013-08-10T16:34:12Z</time>
      </trkpt>
      <trkpt lat="42.326255" lon="2.093096">
        <ele>1331.8</ele>
        <time>2013-08-10T16:34:19Z</time>
      </trkpt>
      <trkpt lat="42.326243" lon="2.093106">
        <ele>1331.7</ele>
        <time>2013-08-10T16:34:20Z</time>
      </trkpt>
      <trkpt lat="42.326141" lon="2.093335">
        <ele>1328.8</ele>
        <time>2013-08-10T16:34:36Z</time>
      </trkpt>
      <trkpt lat="42.326073" lon="2.093606">
        <ele>1326.6</ele>
        <time>2013-08-10T16:34:52Z</time>
      </trkpt>
      <trkpt lat="42.326021" lon="2.093967">
        <ele>1324.9</ele>
        <time>2013-08-10T16:35:09Z</time>
      </trkpt>
      <trkpt lat="42.326017" lon="2.093989">
        <ele>1324.7</ele>
        <time>2013-08-10T16:35:10Z</time>
      </trkpt>
      <trkpt lat="42.325976" lon="2.094237">
        <ele>1323.1</ele>
        <time>2013-08-10T16:35:23Z</time>
      </trkpt>
      <trkpt lat="42.325964" lon="2.094298">
        <ele>1321.8</ele>
        <time>2013-08-10T16:35:27Z</time>
      </trkpt>
      <trkpt lat="42.325932" lon="2.094487">
        <ele>1318.5</ele>
        <time>2013-08-10T16:35:37Z</time>
      </trkpt>
      <trkpt lat="42.325931" lon="2.094584">
        <ele>1317.9</ele>
        <time>2013-08-10T16:35:41Z</time>
      </trkpt>
      <trkpt lat="42.325935" lon="2.094664">
        <ele>1318.4</ele>
        <time>2013-08-10T16:35:45Z</time>
      </trkpt>
      <trkpt lat="42.325908" lon="2.094786">
        <ele>1317.4</ele>
        <time>2013-08-10T16:35:52Z</time>
      </trkpt>
      <trkpt lat="42.325865" lon="2.094976">
        <ele>1314.4</ele>
        <time>2013-08-10T16:36:01Z</time>
      </trkpt>
      <trkpt lat="42.325835" lon="2.095126">
        <ele>1311.4</ele>
        <time>2013-08-10T16:36:08Z</time>
      </trkpt>
      <trkpt lat="42.325779" lon="2.095332">
        <ele>1309.2</ele>
        <time>2013-08-10T16:36:22Z</time>
      </trkpt>
      <trkpt lat="42.325713" lon="2.095577">
        <ele>1308.2</ele>
        <time>2013-08-10T16:36:37Z</time>
      </trkpt>
      <trkpt lat="42.325697" lon="2.095621">
        <ele>1307.5</ele>
        <time>2013-08-10T16:36:41Z</time>
      </trkpt>
      <trkpt lat="42.325614" lon="2.095772">
        <ele>1306.0</ele>
        <time>2013-08-10T16:36:54Z</time>
      </trkpt>
      <trkpt lat="42.325524" lon="2.095920">
        <ele>1303.2</ele>
        <time>2013-08-10T16:37:07Z</time>
      </trkpt>
      <trkpt lat="42.325412" lon="2.096157">
        <ele>1301.7</ele>
        <time>2013-08-10T16:37:21Z</time>
      </trkpt>
      <trkpt lat="42.325239" lon="2.096360">
        <ele>1296.7</ele>
        <time>2013-08-10T16:37:39Z</time>
      </trkpt>
      <trkpt lat="42.325207" lon="2.096375">
        <ele>1296.3</ele>
        <time>2013-08-10T16:37:41Z</time>
      </trkpt>
      <trkpt lat="42.325069" lon="2.096417">
        <ele>1293.3</ele>
        <time>2013-08-10T16:37:54Z</time>
      </trkpt>
      <trkpt lat="42.325011" lon="2.096452">
        <ele>1292.6</ele>
        <time>2013-08-10T16:37:59Z</time>
      </trkpt>
      <trkpt lat="42.324869" lon="2.096563">
        <ele>1289.7</ele>
        <time>2013-08-10T16:38:10Z</time>
      </trkpt>
      <trkpt lat="42.324744" lon="2.096680">
        <ele>1286.8</ele>
        <time>2013-08-10T16:38:24Z</time>
      </trkpt>
      <trkpt lat="42.324543" lon="2.096852">
        <ele>1281.1</ele>
        <time>2013-08-10T16:38:39Z</time>
      </trkpt>
      <trkpt lat="42.324417" lon="2.096988">
        <ele>1278.8</ele>
        <time>2013-08-10T16:38:50Z</time>
      </trkpt>
      <trkpt lat="42.324322" lon="2.097131">
        <ele>1276.4</ele>
        <time>2013-08-10T16:39:00Z</time>
      </trkpt>
      <trkpt lat="42.324266" lon="2.097213">
        <ele>1274.6</ele>
        <time>2013-08-10T16:39:05Z</time>
      </trkpt>
      <trkpt lat="42.324156" lon="2.097298">
        <ele>1271.8</ele>
        <time>2013-08-10T16:39:19Z</time>
      </trkpt>
      <trkpt lat="42.324126" lon="2.097360">
        <ele>1270.8</ele>
        <time>2013-08-10T17:08:46Z</time>
      </trkpt>
      <trkpt lat="42.324147" lon="2.097399">
        <ele>1272.4</ele>
        <time>2013-08-10T17:09:02Z</time>
      </trkpt>
      <trkpt lat="42.324171" lon="2.097456">
        <ele>1273.4</ele>
        <time>2013-08-10T17:09:14Z</time>
      </trkpt>
      <trkpt lat="42.324215" lon="2.097549">
        <ele>1274.1</ele>
        <time>2013-08-10T17:09:25Z</time>
      </trkpt>
      <trkpt lat="42.324227" lon="2.097578">
        <ele>1274.3</ele>
        <time>2013-08-10T17:09:40Z</time>
      </trkpt>
      <trkpt lat="42.324227" lon="2.097576">
        <ele>1274.3</ele>
        <time>2013-08-10T17:10:14Z</time>
      </trkpt>
      <trkpt lat="42.324240" lon="2.097600">
        <ele>1274.8</ele>
        <time>2013-08-10T17:10:27Z</time>
      </trkpt>
      <trkpt lat="42.324321" lon="2.097759">
        <ele>1275.4</ele>
        <time>2013-08-10T17:10:40Z</time>
      </trkpt>
      <trkpt lat="42.324390" lon="2.097925">
        <ele>1274.7</ele>
        <time>2013-08-10T17:10:50Z</time>
      </trkpt>
      <trkpt lat="42.324469" lon="2.098002">
        <ele>1274.1</ele>
        <time>2013-08-10T17:10:59Z</time>
      </trkpt>
      <trkpt lat="42.324626" lon="2.098137">
        <ele>1274.6</ele>
        <time>2013-08-10T17:11:13Z</time>
      </trkpt>
      <trkpt lat="42.324740" lon="2.098183">
        <ele>1275.1</ele>
        <time>2013-08-10T17:11:24Z</time>
      </trkpt>
      <trkpt lat="42.324868" lon="2.098177">
        <ele>1276.9</ele>
        <time>2013-08-10T17:11:36Z</time>
      </trkpt>
      <trkpt lat="42.324990" lon="2.098182">
        <ele>1278.2</ele>
        <time>2013-08-10T17:11:47Z</time>
      </trkpt>
      <trkpt lat="42.325081" lon="2.098190">
        <ele>1279.0</ele>
        <time>2013-08-10T17:11:58Z</time>
      </trkpt>
      <trkpt lat="42.325240" lon="2.098204">
        <ele>1279.9</ele>
        <time>2013-08-10T17:12:12Z</time>
      </trkpt>
      <trkpt lat="42.325255" lon="2.098203">
        <ele>1280.1</ele>
        <time>2013-08-10T17:12:14Z</time>
      </trkpt>
      <trkpt lat="42.325435" lon="2.098206">
        <ele>1281.6</ele>
        <time>2013-08-10T17:12:28Z</time>
      </trkpt>
      <trkpt lat="42.325628" lon="2.098178">
        <ele>1284.7</ele>
        <time>2013-08-10T17:12:43Z</time>
      </trkpt>
      <trkpt lat="42.325747" lon="2.098151">
        <ele>1287.6</ele>
        <time>2013-08-10T17:12:56Z</time>
      </trkpt>
      <trkpt lat="42.325855" lon="2.098136">
        <ele>1290.0</ele>
        <time>2013-08-10T17:13:07Z</time>
      </trkpt>
      <trkpt lat="42.325978" lon="2.098140">
        <ele>1292.2</ele>
        <time>2013-08-10T17:13:18Z</time>
      </trkpt>
      <trkpt lat="42.326076" lon="2.098149">
        <ele>1294.2</ele>
        <time>2013-08-10T17:13:28Z</time>
      </trkpt>
      <trkpt lat="42.326191" lon="2.098157">
        <ele>1296.1</ele>
        <time>2013-08-10T17:13:40Z</time>
      </trkpt>
      <trkpt lat="42.326210" lon="2.098162">
        <ele>1296.3</ele>
        <time>2013-08-10T17:13:43Z</time>
      </trkpt>
      <trkpt lat="42.326260" lon="2.098184">
        <ele>1297.1</ele>
        <time>2013-08-10T17:13:48Z</time>
      </trkpt>
      <trkpt lat="42.326419" lon="2.098242">
        <ele>1298.4</ele>
        <time>2013-08-10T17:14:01Z</time>
      </trkpt>
      <trkpt lat="42.326443" lon="2.098260">
        <ele>1298.2</ele>
        <time>2013-08-10T17:14:05Z</time>
      </trkpt>
      <trkpt lat="42.326569" lon="2.098318">
        <ele>1299.7</ele>
        <time>2013-08-10T17:14:18Z</time>
      </trkpt>
      <trkpt lat="42.326649" lon="2.098367">
        <ele>1299.5</ele>
        <time>2013-08-10T17:14:24Z</time>
      </trkpt>
      <trkpt lat="42.326784" lon="2.098412">
        <ele>1299.8</ele>
        <time>2013-08-10T17:14:35Z</time>
      </trkpt>
      <trkpt lat="42.326885" lon="2.098421">
        <ele>1301.4</ele>
        <time>2013-08-10T17:14:48Z</time>
      </trkpt>
      <trkpt lat="42.326962" lon="2.098409">
        <ele>1302.2</ele>
        <time>2013-08-10T17:15:04Z</time>
      </trkpt>
      <trkpt lat="42.327060" lon="2.098461">
        <ele>1301.9</ele>
        <time>2013-08-10T17:15:12Z</time>
      </trkpt>
      <trkpt lat="42.327210" lon="2.098594">
        <ele>1302.4</ele>
        <time>2013-08-10T17:15:22Z</time>
      </trkpt>
      <trkpt lat="42.327233" lon="2.098609">
        <ele>1302.7</ele>
        <time>2013-08-10T17:15:24Z</time>
      </trkpt>
      <trkpt lat="42.327260" lon="2.098630">
        <ele>1303.0</ele>
        <time>2013-08-10T17:15:27Z</time>
      </trkpt>
      <trkpt lat="42.327383" lon="2.098769">
        <ele>1302.5</ele>
        <time>2013-08-10T17:15:41Z</time>
      </trkpt>
      <trkpt lat="42.327481" lon="2.098832">
        <ele>1302.7</ele>
        <time>2013-08-10T17:15:50Z</time>
      </trkpt>
      <trkpt lat="42.327656" lon="2.098990">
        <ele>1301.3</ele>
        <time>2013-08-10T17:16:05Z</time>
      </trkpt>
      <trkpt lat="42.327889" lon="2.099068">
        <ele>1301.2</ele>
        <time>2013-08-10T17:16:20Z</time>
      </trkpt>
      <trkpt lat="42.328009" lon="2.099127">
        <ele>1302.0</ele>
        <time>2013-08-10T17:16:32Z</time>
      </trkpt>
      <trkpt lat="42.328097" lon="2.099164">
        <ele>1302.2</ele>
        <time>2013-08-10T17:16:43Z</time>
      </trkpt>
      <trkpt lat="42.328195" lon="2.099157">
        <ele>1304.5</ele>
        <time>2013-08-10T17:16:57Z</time>
      </trkpt>
      <trkpt lat="42.328254" lon="2.099171">
        <ele>1304.3</ele>
        <time>2013-08-10T17:17:05Z</time>
      </trkpt>
      <trkpt lat="42.328287" lon="2.099190">
        <ele>1304.0</ele>
        <time>2013-08-10T17:17:12Z</time>
      </trkpt>
      <trkpt lat="42.328462" lon="2.099332">
        <ele>1302.7</ele>
        <time>2013-08-10T17:17:25Z</time>
      </trkpt>
      <trkpt lat="42.328592" lon="2.099438">
        <ele>1304.3</ele>
        <time>2013-08-10T17:17:31Z</time>
      </trkpt>
      <trkpt lat="42.328765" lon="2.099623">
        <ele>1307.0</ele>
        <time>2013-08-10T17:17:43Z</time>
      </trkpt>
      <trkpt lat="42.328883" lon="2.099764">
        <ele>1309.5</ele>
        <time>2013-08-10T17:17:54Z</time>
      </trkpt>
      <trkpt lat="42.328891" lon="2.099767">
        <ele>1309.6</ele>
        <time>2013-08-10T17:17:55Z</time>
      </trkpt>
      <trkpt lat="42.328914" lon="2.099784">
        <ele>1309.5</ele>
        <time>2013-08-10T17:17:57Z</time>
      </trkpt>
      <trkpt lat="42.328982" lon="2.099846">
        <ele>1310.3</ele>
        <time>2013-08-10T17:18:03Z</time>
      </trkpt>
      <trkpt lat="42.329006" lon="2.099849">
        <ele>1310.9</ele>
        <time>2013-08-10T17:18:05Z</time>
      </trkpt>
      <trkpt lat="42.329133" lon="2.099937">
        <ele>1313.4</ele>
        <time>2013-08-10T17:18:16Z</time>
      </trkpt>
      <trkpt lat="42.329180" lon="2.100013">
        <ele>1313.2</ele>
        <time>2013-08-10T17:18:25Z</time>
      </trkpt>
      <trkpt lat="42.329150" lon="2.100165">
        <ele>1314.2</ele>
        <time>2013-08-10T17:18:37Z</time>
      </trkpt>
      <trkpt lat="42.329081" lon="2.100136">
        <ele>1314.3</ele>
        <time>2013-08-10T17:18:44Z</time>
      </trkpt>
      <trkpt lat="42.329009" lon="2.100152">
        <ele>1314.9</ele>
        <time>2013-08-10T17:18:51Z</time>
      </trkpt>
      <trkpt lat="42.328882" lon="2.100196">
        <ele>1316.7</ele>
        <time>2013-08-10T17:19:04Z</time>
      </trkpt>
      <trkpt lat="42.328685" lon="2.100198">
        <ele>1316.7</ele>
        <time>2013-08-10T17:19:18Z</time>
      </trkpt>
      <trkpt lat="42.328507" lon="2.100153">
        <ele>1314.6</ele>
        <time>2013-08-10T17:19:31Z</time>
      </trkpt>
      <trkpt lat="42.328404" lon="2.100131">
        <ele>1312.5</ele>
        <time>2013-08-10T17:19:37Z</time>
      </trkpt>
      <trkpt lat="42.328353" lon="2.100132">
        <ele>1311.7</ele>
        <time>2013-08-10T17:19:41Z</time>
      </trkpt>
      <trkpt lat="42.328272" lon="2.100124">
        <ele>1310.3</ele>
        <time>2013-08-10T17:19:48Z</time>
      </trkpt>
      <trkpt lat="42.328180" lon="2.100109">
        <ele>1308.6</ele>
        <time>2013-08-10T17:19:54Z</time>
      </trkpt>
      <trkpt lat="42.328081" lon="2.100122">
        <ele>1307.5</ele>
        <time>2013-08-10T17:20:00Z</time>
      </trkpt>
      <trkpt lat="42.327936" lon="2.100144">
        <ele>1304.2</ele>
        <time>2013-08-10T17:20:10Z</time>
      </trkpt>
      <trkpt lat="42.327887" lon="2.100147">
        <ele>1302.4</ele>
        <time>2013-08-10T17:20:14Z</time>
      </trkpt>
      <trkpt lat="42.327699" lon="2.100171">
        <ele>1297.9</ele>
        <time>2013-08-10T17:20:28Z</time>
      </trkpt>
      <trkpt lat="42.327520" lon="2.100229">
        <ele>1297.0</ele>
        <time>2013-08-10T17:20:41Z</time>
      </trkpt>
      <trkpt lat="42.327336" lon="2.100270">
        <ele>1296.9</ele>
        <time>2013-08-10T17:20:56Z</time>
      </trkpt>
      <trkpt lat="42.327237" lon="2.100294">
        <ele>1296.4</ele>
        <time>2013-08-10T17:21:08Z</time>
      </trkpt>
      <trkpt lat="42.327182" lon="2.100326">
        <ele>1296.0</ele>
        <time>2013-08-10T17:21:25Z</time>
      </trkpt>
      <trkpt lat="42.327075" lon="2.100465">
        <ele>1294.8</ele>
        <time>2013-08-10T17:21:37Z</time>
      </trkpt>
      <trkpt lat="42.326904" lon="2.100515">
        <ele>1291.6</ele>
        <time>2013-08-10T17:21:50Z</time>
      </trkpt>
      <trkpt lat="42.326886" lon="2.100496">
        <ele>1291.9</ele>
        <time>2013-08-10T17:21:53Z</time>
      </trkpt>
      <trkpt lat="42.326757" lon="2.100432">
        <ele>1293.0</ele>
        <time>2013-08-10T17:22:03Z</time>
      </trkpt>
      <trkpt lat="42.326590" lon="2.100452">
        <ele>1293.2</ele>
        <time>2013-08-10T17:22:17Z</time>
      </trkpt>
      <trkpt lat="42.326412" lon="2.100496">
        <ele>1293.5</ele>
        <time>2013-08-10T17:22:30Z</time>
      </trkpt>
      <trkpt lat="42.326320" lon="2.100519">
        <ele>1293.0</ele>
        <time>2013-08-10T17:22:38Z</time>
      </trkpt>
      <trkpt lat="42.326121" lon="2.100590">
        <ele>1294.0</ele>
        <time>2013-08-10T17:22:53Z</time>
      </trkpt>
      <trkpt lat="42.325971" lon="2.100673">
        <ele>1294.6</ele>
        <time>2013-08-10T17:23:05Z</time>
      </trkpt>
      <trkpt lat="42.325796" lon="2.100725">
        <ele>1294.2</ele>
        <time>2013-08-10T17:23:19Z</time>
      </trkpt>
      <trkpt lat="42.325743" lon="2.100737">
        <ele>1293.5</ele>
        <time>2013-08-10T17:23:23Z</time>
      </trkpt>
      <trkpt lat="42.325713" lon="2.100749">
        <ele>1293.3</ele>
        <time>2013-08-10T17:23:25Z</time>
      </trkpt>
      <trkpt lat="42.325547" lon="2.100880">
        <ele>1294.8</ele>
        <time>2013-08-10T17:23:41Z</time>
      </trkpt>
      <trkpt lat="42.325487" lon="2.100977">
        <ele>1297.5</ele>
        <time>2013-08-10T17:23:47Z</time>
      </trkpt>
      <trkpt lat="42.325303" lon="2.101110">
        <ele>1298.2</ele>
        <time>2013-08-10T17:24:02Z</time>
      </trkpt>
      <trkpt lat="42.325040" lon="2.101141">
        <ele>1294.9</ele>
        <time>2013-08-10T03:54:58Z</time>
      </trkpt>
      <trkpt lat="42.324743" lon="2.101264">
        <ele>1292.7</ele>
        <time>2013-06-18T21:20:38Z</time>
      </trkpt>
      <trkpt lat="42.324201" lon="2.101662">
        <ele>1290.1</ele>
        <time>1998-10-31T02:44:45Z</time>
      </trkpt>
      <trkpt lat="42.323681" lon="2.102065">
        <ele>1285.5</ele>
      </trkpt>
      <trkpt lat="42.323323" lon="2.102384">
        <ele>1282.3</ele>
      </trkpt>
      <trkpt lat="42.323250" lon="2.102378">
        <ele>1280.3</ele>
      </trkpt>
      <trkpt lat="42.323141" lon="2.102589">
        <ele>1278.3</ele>
      </trkpt>
      <trkpt lat="42.323070" lon="2.103077">
        <ele>1278.4</ele>
      </trkpt>
      <trkpt lat="42.322957" lon="2.103373">
        <ele>1275.2</ele>
      </trkpt>
      <trkpt lat="42.322957" lon="2.103374">
        <ele>1278.0</ele>
        <time>2014-06-11T16:32:28Z</time>
      </trkpt>
      <trkpt lat="42.323006" lon="2.103402">
        <ele>1277.8</ele>
        <time>2014-06-11T16:32:44Z</time>
      </trkpt>
      <trkpt lat="42.323028" lon="2.103429">
        <ele>1278.2</ele>
        <time>2014-06-11T16:32:57Z</time>
      </trkpt>
      <trkpt lat="42.323084" lon="2.103461">
        <ele>1279.3</ele>
        <time>2014-06-11T16:33:08Z</time>
      </trkpt>
      <trkpt lat="42.323101" lon="2.103470">
        <ele>1279.6</ele>
        <time>2014-06-11T16:33:29Z</time>
      </trkpt>
      <trkpt lat="42.323156" lon="2.103476">
        <ele>1281.4</ele>
        <time>2014-06-11T16:33:40Z</time>
      </trkpt>
      <trkpt lat="42.323229" lon="2.103510">
        <ele>1283.8</ele>
        <time>2014-06-11T16:33:51Z</time>
      </trkpt>
      <trkpt lat="42.323257" lon="2.103507">
        <ele>1284.7</ele>
        <time>2014-06-11T16:33:54Z</time>
      </trkpt>
      <trkpt lat="42.323360" lon="2.103495">
        <ele>1288.1</ele>
        <time>2014-06-11T16:34:07Z</time>
      </trkpt>
      <trkpt lat="42.323463" lon="2.103500">
        <ele>1291.5</ele>
        <time>2014-06-11T16:34:21Z</time>
      </trkpt>
      <trkpt lat="42.323541" lon="2.103488">
        <ele>1294.2</ele>
        <time>2014-06-11T16:34:33Z</time>
      </trkpt>
      <trkpt lat="42.323579" lon="2.103491">
        <ele>1295.4</ele>
        <time>2014-06-11T16:34:47Z</time>
      </trkpt>
      <trkpt lat="42.323663" lon="2.103499">
        <ele>1298.3</ele>
        <time>2014-06-11T16:35:02Z</time>
      </trkpt>
      <trkpt lat="42.323762" lon="2.103524">
        <ele>1301.5</ele>
        <time>2014-06-11T16:35:18Z</time>
      </trkpt>
      <trkpt lat="42.323799" lon="2.103538">
        <ele>1302.7</ele>
        <time>2014-06-11T16:43:22Z</time>
      </trkpt>
      <trkpt lat="42.323799" lon="2.103538">
        <ele>1302.7</ele>
        <time>2014-06-11T16:43:50Z</time>
      </trkpt>
      <trkpt lat="42.323859" lon="2.103566">
        <ele>1304.6</ele>
        <time>2014-06-11T16:44:13Z</time>
      </trkpt>
      <trkpt lat="42.323895" lon="2.103523">
        <ele>1306.3</ele>
        <time>2014-06-11T16:44:27Z</time>
      </trkpt>
      <trkpt lat="42.323892" lon="2.103458">
        <ele>1306.4</ele>
        <time>2014-06-11T16:44:38Z</time>
      </trkpt>
      <trkpt lat="42.323885" lon="2.103382">
        <ele>1306.4</ele>
        <time>2014-06-11T16:44:48Z</time>
      </trkpt>
      <trkpt lat="42.323879" lon="2.103346">
        <ele>1306.3</ele>
        <time>2014-06-11T16:44:51Z</time>
      </trkpt>
      <trkpt lat="42.323896" lon="2.103288">
        <ele>1307.1</ele>
        <time>2014-06-11T16:45:08Z</time>
      </trkpt>
      <trkpt lat="42.323948" lon="2.103191">
        <ele>1309.4</ele>
        <time>2014-06-11T16:45:20Z</time>
      </trkpt>
      <trkpt lat="42.323955" lon="2.103166">
        <ele>1309.7</ele>
        <time>2014-06-11T16:45:23Z</time>
      </trkpt>
      <trkpt lat="42.324018" lon="2.103083">
        <ele>1311.7</ele>
        <time>2014-06-11T16:45:33Z</time>
      </trkpt>
      <trkpt lat="42.324092" lon="2.102970">
        <ele>1313.8</ele>
        <time>2014-06-11T16:45:45Z</time>
      </trkpt>
      <trkpt lat="42.324145" lon="2.102904">
        <ele>1315.4</ele>
        <time>2014-06-11T16:45:56Z</time>
      </trkpt>
      <trkpt lat="42.324205" lon="2.102844">
        <ele>1317.1</ele>
        <time>2014-06-11T16:46:07Z</time>
      </trkpt>
      <trkpt lat="42.324286" lon="2.102781">
        <ele>1319.9</ele>
        <time>2014-06-11T16:46:20Z</time>
      </trkpt>
      <trkpt lat="42.324356" lon="2.102706">
        <ele>1321.5</ele>
        <time>2014-06-11T16:46:33Z</time>
      </trkpt>
      <trkpt lat="42.324430" lon="2.102661">
        <ele>1323.7</ele>
        <time>2014-06-11T16:46:43Z</time>
      </trkpt>
      <trkpt lat="42.324436" lon="2.102658">
        <ele>1323.9</ele>
        <time>2014-06-11T16:46:44Z</time>
      </trkpt>
      <trkpt lat="42.324502" lon="2.102607">
        <ele>1325.4</ele>
        <time>2014-06-11T16:46:53Z</time>
      </trkpt>
      <trkpt lat="42.324614" lon="2.102549">
        <ele>1328.3</ele>
        <time>2014-06-11T16:47:08Z</time>
      </trkpt>
      <trkpt lat="42.324697" lon="2.102507">
        <ele>1330.3</ele>
        <time>2014-06-11T16:47:20Z</time>
      </trkpt>
      <trkpt lat="42.324774" lon="2.102471">
        <ele>1332.1</ele>
        <time>2014-06-11T16:47:31Z</time>
      </trkpt>
      <trkpt lat="42.324937" lon="2.102428">
        <ele>1336.4</ele>
        <time>2014-06-11T16:49:45Z</time>
      </trkpt>
      <trkpt lat="42.325026" lon="2.102398">
        <ele>1338.2</ele>
        <time>2014-06-11T16:49:57Z</time>
      </trkpt>
      <trkpt lat="42.325122" lon="2.102375">
        <ele>1340.2</ele>
        <time>2014-06-11T16:50:09Z</time>
      </trkpt>
      <trkpt lat="42.325147" lon="2.102371">
        <ele>1340.8</ele>
        <time>2014-06-11T16:50:12Z</time>
      </trkpt>
      <trkpt lat="42.325218" lon="2.102355">
        <ele>1342.4</ele>
        <time>2014-06-11T16:50:23Z</time>
      </trkpt>
      <trkpt lat="42.325303" lon="2.102328">
        <ele>1343.9</ele>
        <time>2014-06-11T16:50:33Z</time>
      </trkpt>
      <trkpt lat="42.325402" lon="2.102286">
        <ele>1345.1</ele>
        <time>2014-06-11T16:50:44Z</time>
      </trkpt>
      <trkpt lat="42.325497" lon="2.102254">
        <ele>1346.5</ele>
        <time>2014-06-11T16:50:55Z</time>
      </trkpt>
      <trkpt lat="42.325600" lon="2.102266">
        <ele>1349.9</ele>
        <time>2014-06-11T16:51:07Z</time>
      </trkpt>
      <trkpt lat="42.325653" lon="2.102273">
        <ele>1351.7</ele>
        <time>2014-06-11T16:51:18Z</time>
      </trkpt>
      <trkpt lat="42.325741" lon="2.102265">
        <ele>1353.9</ele>
        <time>2014-06-11T16:51:30Z</time>
      </trkpt>
      <trkpt lat="42.325803" lon="2.102269">
        <ele>1355.8</ele>
        <time>2014-06-11T16:51:41Z</time>
      </trkpt>
      <trkpt lat="42.325852" lon="2.102272">
        <ele>1357.3</ele>
        <time>2014-06-11T16:51:51Z</time>
      </trkpt>
      <trkpt lat="42.325944" lon="2.102301">
        <ele>1361.1</ele>
        <time>2014-06-11T16:52:03Z</time>
      </trkpt>
      <trkpt lat="42.325988" lon="2.102320">
        <ele>1363.2</ele>
        <time>2014-06-11T16:52:15Z</time>
      </trkpt>
      <trkpt lat="42.326050" lon="2.102341">
        <ele>1365.9</ele>
        <time>2014-06-11T16:52:29Z</time>
      </trkpt>
      <trkpt lat="42.326168" lon="2.102332">
        <ele>1367.6</ele>
        <time>2014-06-11T16:52:42Z</time>
      </trkpt>
      <trkpt lat="42.326274" lon="2.102288">
        <ele>1367.5</ele>
        <time>2014-06-11T16:52:53Z</time>
      </trkpt>
      <trkpt lat="42.326391" lon="2.102323">
        <ele>1370.9</ele>
        <time>2014-06-11T16:53:07Z</time>
      </trkpt>
      <trkpt lat="42.326481" lon="2.102314">
        <ele>1371.7</ele>
        <time>2014-06-11T16:53:18Z</time>
      </trkpt>
      <trkpt lat="42.326532" lon="2.102327">
        <ele>1372.6</ele>
        <time>2014-06-11T16:53:24Z</time>
      </trkpt>
      <trkpt lat="42.326636" lon="2.102400">
        <ele>1376.3</ele>
        <time>2014-06-11T16:53:37Z</time>
      </trkpt>
      <trkpt lat="42.326695" lon="2.102445">
        <ele>1378.6</ele>
        <time>2014-06-11T16:53:47Z</time>
      </trkpt>
      <trkpt lat="42.326792" lon="2.102461">
        <ele>1380.1</ele>
        <time>2014-06-11T16:53:59Z</time>
      </trkpt>
      <trkpt lat="42.326862" lon="2.102501">
        <ele>1382.2</ele>
        <time>2014-06-11T16:54:11Z</time>
      </trkpt>
      <trkpt lat="42.326955" lon="2.102535">
        <ele>1384.1</ele>
        <time>2014-06-11T16:54:23Z</time>
      </trkpt>
      <trkpt lat="42.327018" lon="2.102573">
        <ele>1386.0</ele>
        <time>2014-06-11T16:54:35Z</time>
      </trkpt>
      <trkpt lat="42.327095" lon="2.102595">
        <ele>1387.3</ele>
        <time>2014-06-11T16:54:46Z</time>
      </trkpt>
      <trkpt lat="42.327163" lon="2.102650">
        <ele>1389.9</ele>
        <time>2014-06-11T16:54:58Z</time>
      </trkpt>
      <trkpt lat="42.327241" lon="2.102710">
        <ele>1392.5</ele>
        <time>2014-06-11T16:55:12Z</time>
      </trkpt>
      <trkpt lat="42.327297" lon="2.102753">
        <ele>1394.3</ele>
        <time>2014-06-11T16:55:23Z</time>
      </trkpt>
      <trkpt lat="42.327360" lon="2.102780">
        <ele>1395.4</ele>
        <time>2014-06-11T16:55:37Z</time>
      </trkpt>
      <trkpt lat="42.327392" lon="2.102837">
        <ele>1397.6</ele>
        <time>2014-06-11T16:55:49Z</time>
      </trkpt>
      <trkpt lat="42.327424" lon="2.102896">
        <ele>1399.9</ele>
        <time>2014-06-11T16:56:02Z</time>
      </trkpt>
      <trkpt lat="42.327466" lon="2.102947">
        <ele>1401.9</ele>
        <time>2014-06-11T16:56:16Z</time>
      </trkpt>
      <trkpt lat="42.327477" lon="2.102973">
        <ele>1402.9</ele>
        <time>2014-06-11T16:56:31Z</time>
      </trkpt>
      <trkpt lat="42.327477" lon="2.102973">
        <ele>1402.9</ele>
        <time>2014-06-11T16:56:59Z</time>
      </trkpt>
      <trkpt lat="42.327505" lon="2.102997">
        <ele>1403.8</ele>
        <time>2014-06-11T16:57:13Z</time>
      </trkpt>
      <trkpt lat="42.327591" lon="2.103043">
        <ele>1405.1</ele>
        <time>2014-06-11T16:57:22Z</time>
      </trkpt>
      <trkpt lat="42.327683" lon="2.103109">
        <ele>1406.7</ele>
        <time>2014-06-11T16:57:34Z</time>
      </trkpt>
      <trkpt lat="42.327777" lon="2.103161">
        <ele>1407.5</ele>
        <time>2014-06-11T16:57:46Z</time>
      </trkpt>
      <trkpt lat="42.327854" lon="2.103250">
        <ele>1409.9</ele>
        <time>2014-06-11T16:57:58Z</time>
      </trkpt>
      <trkpt lat="42.327888" lon="2.103335">
        <ele>1412.8</ele>
        <time>2014-06-11T16:58:10Z</time>
      </trkpt>
      <trkpt lat="42.327926" lon="2.103439">
        <ele>1416.4</ele>
        <time>2014-06-11T16:58:21Z</time>
      </trkpt>
      <trkpt lat="42.327929" lon="2.103456">
        <ele>1417.1</ele>
        <time>2014-06-11T16:58:36Z</time>
      </trkpt>
      <trkpt lat="42.327903" lon="2.103553">
        <ele>1420.7</ele>
        <time>2014-06-11T16:58:47Z</time>
      </trkpt>
      <trkpt lat="42.327875" lon="2.103594">
        <ele>1422.2</ele>
        <time>2014-06-11T16:58:59Z</time>
      </trkpt>
      <trkpt lat="42.327849" lon="2.103636">
        <ele>1423.6</ele>
        <time>2014-06-11T16:59:11Z</time>
      </trkpt>
      <trkpt lat="42.327798" lon="2.103697">
        <ele>1425.5</ele>
        <time>2014-06-11T16:59:24Z</time>
      </trkpt>
      <trkpt lat="42.327761" lon="2.103788">
        <ele>1428.1</ele>
        <time>2014-06-11T16:59:39Z</time>
      </trkpt>
      <trkpt lat="42.327730" lon="2.103874">
        <ele>1430.4</ele>
        <time>2014-06-11T16:59:51Z</time>
      </trkpt>
      <trkpt lat="42.327693" lon="2.103969">
        <ele>1432.3</ele>
        <time>2014-06-11T17:00:03Z</time>
      </trkpt>
      <trkpt lat="42.327679" lon="2.104019">
        <ele>1433.1</ele>
        <time>2014-06-11T17:00:08Z</time>
      </trkpt>
      <trkpt lat="42.327682" lon="2.104145">
        <ele>1435.5</ele>
        <time>2014-06-11T17:00:20Z</time>
      </trkpt>
      <trkpt lat="42.327711" lon="2.104218">
        <ele>1437.3</ele>
        <time>2014-06-11T17:00:27Z</time>
      </trkpt>
      <trkpt lat="42.327724" lon="2.104238">
        <ele>1437.8</ele>
        <time>2014-06-11T17:00:29Z</time>
      </trkpt>
      <trkpt lat="42.327740" lon="2.104281">
        <ele>1438.9</ele>
        <time>2014-06-11T17:00:32Z</time>
      </trkpt>
      <trkpt lat="42.327784" lon="2.104381">
        <ele>1440.8</ele>
        <time>2014-06-11T17:00:45Z</time>
      </trkpt>
      <trkpt lat="42.327821" lon="2.104447">
        <ele>1442.3</ele>
        <time>2014-06-11T17:00:56Z</time>
      </trkpt>
      <trkpt lat="42.327847" lon="2.104551">
        <ele>1444.1</ele>
        <time>2014-06-11T17:01:08Z</time>
      </trkpt>
      <trkpt lat="42.327891" lon="2.104668">
        <ele>1446.6</ele>
        <time>2014-06-11T17:03:56Z</time>
      </trkpt>
      <trkpt lat="42.327925" lon="2.104785">
        <ele>1448.8</ele>
        <time>2014-06-11T17:04:08Z</time>
      </trkpt>
      <trkpt lat="42.327938" lon="2.104890">
        <ele>1450.3</ele>
        <time>2014-06-11T17:04:19Z</time>
      </trkpt>
      <trkpt lat="42.327944" lon="2.104967">
        <ele>1451.4</ele>
        <time>2014-06-11T17:04:31Z</time>
      </trkpt>
      <trkpt lat="42.327976" lon="2.105009">
        <ele>1452.8</ele>
        <time>2014-06-11T17:04:41Z</time>
      </trkpt>
      <trkpt lat="42.327987" lon="2.105021">
        <ele>1453.2</ele>
        <time>2014-06-11T17:04:43Z</time>
      </trkpt>
      <trkpt lat="42.328034" lon="2.105047">
        <ele>1454.8</ele>
        <time>2014-06-11T17:04:56Z</time>
      </trkpt>
      <trkpt lat="42.328104" lon="2.105090">
        <ele>1457.2</ele>
        <time>2014-06-11T17:05:12Z</time>
      </trkpt>
      <trkpt lat="42.328157" lon="2.105088">
        <ele>1458.7</ele>
        <time>2014-06-11T17:05:24Z</time>
      </trkpt>
      <trkpt lat="42.328267" lon="2.105033">
        <ele>1461.0</ele>
        <time>2014-06-11T17:05:37Z</time>
      </trkpt>
      <trkpt lat="42.328357" lon="2.105027">
        <ele>1463.0</ele>
        <time>2014-06-11T17:05:50Z</time>
      </trkpt>
      <trkpt lat="42.328423" lon="2.105022">
        <ele>1464.3</ele>
        <time>2014-06-11T17:06:02Z</time>
      </trkpt>
      <trkpt lat="42.328461" lon="2.104993">
        <ele>1464.6</ele>
        <time>2014-06-11T17:06:08Z</time>
      </trkpt>
      <trkpt lat="42.328565" lon="2.104980">
        <ele>1466.5</ele>
        <time>2014-06-11T17:06:22Z</time>
      </trkpt>
      <trkpt lat="42.328585" lon="2.104979">
        <ele>1466.9</ele>
        <time>2014-06-11T17:06:24Z</time>
      </trkpt>
      <trkpt lat="42.328708" lon="2.104976">
        <ele>1469.6</ele>
        <time>2014-06-11T17:06:37Z</time>
      </trkpt>
      <trkpt lat="42.328791" lon="2.104923">
        <ele>1470.4</ele>
        <time>2014-06-11T17:06:47Z</time>
      </trkpt>
      <trkpt lat="42.328890" lon="2.104879">
        <ele>1471.7</ele>
        <time>2014-06-11T17:07:00Z</time>
      </trkpt>
      <trkpt lat="42.329004" lon="2.104873">
        <ele>1474.4</ele>
        <time>2014-06-11T17:07:14Z</time>
      </trkpt>
      <trkpt lat="42.329085" lon="2.104872">
        <ele>1476.4</ele>
        <time>2014-06-11T17:07:26Z</time>
      </trkpt>
      <trkpt lat="42.329158" lon="2.104894">
        <ele>1478.8</ele>
        <time>2014-06-11T17:07:38Z</time>
      </trkpt>
      <trkpt lat="42.329176" lon="2.104903">
        <ele>1479.5</ele>
        <time>2014-06-11T17:07:52Z</time>
      </trkpt>
      <trkpt lat="42.329278" lon="2.104958">
        <ele>1483.6</ele>
        <time>2014-06-11T17:09:47Z</time>
      </trkpt>
      <trkpt lat="42.329367" lon="2.104953">
        <ele>1485.7</ele>
        <time>2014-06-11T17:09:59Z</time>
      </trkpt>
      <trkpt lat="42.329451" lon="2.104955">
        <ele>1487.6</ele>
        <time>2014-06-11T17:10:11Z</time>
      </trkpt>
      <trkpt lat="42.329474" lon="2.104972">
        <ele>1488.5</ele>
        <time>2014-06-11T17:10:23Z</time>
      </trkpt>
      <trkpt lat="42.329479" lon="2.104996">
        <ele>1489.2</ele>
        <time>2014-06-11T17:10:34Z</time>
      </trkpt>
      <trkpt lat="42.329488" lon="2.105113">
        <ele>1492.4</ele>
        <time>2014-06-11T17:10:48Z</time>
      </trkpt>
      <trkpt lat="42.329490" lon="2.105127">
        <ele>1492.8</ele>
        <time>2014-06-11T17:11:01Z</time>
      </trkpt>
      <trkpt lat="42.329497" lon="2.105155">
        <ele>1493.6</ele>
        <time>2014-06-11T17:11:17Z</time>
      </trkpt>
      <trkpt lat="42.329497" lon="2.105155">
        <ele>1493.6</ele>
        <time>2014-06-11T17:11:37Z</time>
      </trkpt>
      <trkpt lat="42.329505" lon="2.105222">
        <ele>1495.5</ele>
        <time>2014-06-11T17:11:50Z</time>
      </trkpt>
      <trkpt lat="42.329507" lon="2.105272">
        <ele>1496.8</ele>
        <time>2014-06-11T17:12:03Z</time>
      </trkpt>
      <trkpt lat="42.329513" lon="2.105317">
        <ele>1498.1</ele>
        <time>2014-06-11T17:12:16Z</time>
      </trkpt>
      <trkpt lat="42.329519" lon="2.105385">
        <ele>1499.9</ele>
        <time>2014-06-11T17:12:27Z</time>
      </trkpt>
      <trkpt lat="42.329534" lon="2.105438">
        <ele>1501.4</ele>
        <time>2014-06-11T17:12:43Z</time>
      </trkpt>
      <trkpt lat="42.329534" lon="2.105454">
        <ele>1501.8</ele>
        <time>2014-06-11T17:13:03Z</time>
      </trkpt>
      <trkpt lat="42.329513" lon="2.105528">
        <ele>1503.0</ele>
        <time>2014-06-11T17:13:23Z</time>
      </trkpt>
      <trkpt lat="42.329455" lon="2.105689">
        <ele>1505.4</ele>
        <time>2014-06-11T17:13:38Z</time>
      </trkpt>
      <trkpt lat="42.329443" lon="2.105725">
        <ele>1506.0</ele>
        <time>2014-06-11T17:13:42Z</time>
      </trkpt>
      <trkpt lat="42.329430" lon="2.105851">
        <ele>1508.0</ele>
        <time>2014-06-11T17:13:55Z</time>
      </trkpt>
      <trkpt lat="42.329424" lon="2.105890">
        <ele>1508.6</ele>
        <time>2014-06-11T17:14:09Z</time>
      </trkpt>
      <trkpt lat="42.329426" lon="2.105897">
        <ele>1508.7</ele>
        <time>2014-06-11T17:14:33Z</time>
      </trkpt>
      <trkpt lat="42.329437" lon="2.105965">
        <ele>1510.1</ele>
        <time>2014-06-11T17:14:45Z</time>
      </trkpt>
      <trkpt lat="42.329398" lon="2.105993">
        <ele>1509.7</ele>
        <time>2014-06-11T17:14:58Z</time>
      </trkpt>
      <trkpt lat="42.329377" lon="2.106164">
        <ele>1511.9</ele>
        <time>2014-06-11T17:15:13Z</time>
      </trkpt>
      <trkpt lat="42.329368" lon="2.106305">
        <ele>1513.7</ele>
        <time>2014-06-11T17:15:25Z</time>
      </trkpt>
      <trkpt lat="42.329338" lon="2.106454">
        <ele>1515.0</ele>
        <time>2014-06-11T17:15:41Z</time>
      </trkpt>
      <trkpt lat="42.329213" lon="2.106795">
        <ele>1515.4</ele>
        <time>2014-06-11T17:15:58Z</time>
      </trkpt>
      <trkpt lat="42.329153" lon="2.106966">
        <ele>1515.0</ele>
        <time>2014-06-11T17:16:10Z</time>
      </trkpt>
      <trkpt lat="42.329152" lon="2.107045">
        <ele>1515.5</ele>
        <time>2014-06-11T17:16:15Z</time>
      </trkpt>
      <trkpt lat="42.329146" lon="2.107112">
        <ele>1515.7</ele>
        <time>2014-06-11T17:16:19Z</time>
      </trkpt>
      <trkpt lat="42.329123" lon="2.107353">
        <ele>1516.4</ele>
        <time>2014-06-11T17:16:33Z</time>
      </trkpt>
      <trkpt lat="42.329157" lon="2.107516">
        <ele>1518.1</ele>
        <time>2014-06-11T17:16:45Z</time>
      </trkpt>
      <trkpt lat="42.329210" lon="2.107666">
        <ele>1519.7</ele>
        <time>2014-06-11T17:16:57Z</time>
      </trkpt>
      <trkpt lat="42.329266" lon="2.107751">
        <ele>1521.0</ele>
        <time>2014-06-11T17:17:09Z</time>
      </trkpt>
      <trkpt lat="42.329292" lon="2.107763">
        <ele>1521.8</ele>
        <time>2014-06-11T17:17:22Z</time>
      </trkpt>
      <trkpt lat="42.329315" lon="2.107763">
        <ele>1522.6</ele>
        <time>2014-06-11T17:17:37Z</time>
      </trkpt>
      <trkpt lat="42.329395" lon="2.107749">
        <ele>1525.2</ele>
        <time>2014-06-11T17:17:52Z</time>
      </trkpt>
      <trkpt lat="42.329470" lon="2.107779">
        <ele>1527.7</ele>
        <time>2014-06-11T17:18:03Z</time>
      </trkpt>
      <trkpt lat="42.329527" lon="2.107793">
        <ele>1529.6</ele>
        <time>2014-06-11T17:18:16Z</time>
      </trkpt>
      <trkpt lat="42.329587" lon="2.107865">
        <ele>1531.5</ele>
        <time>2014-06-11T17:18:32Z</time>
      </trkpt>
      <trkpt lat="42.329682" lon="2.107900">
        <ele>1534.7</ele>
        <time>2014-06-11T17:18:45Z</time>
      </trkpt>
      <trkpt lat="42.329724" lon="2.107920">
        <ele>1536.1</ele>
        <time>2014-06-11T17:18:56Z</time>
      </trkpt>
      <trkpt lat="42.329824" lon="2.107950">
        <ele>1539.3</ele>
        <time>2014-06-11T17:19:10Z</time>
      </trkpt>
      <trkpt lat="42.329881" lon="2.107940">
        <ele>1541.2</ele>
        <time>2014-06-11T17:19:21Z</time>
      </trkpt>
      <trkpt lat="42.329928" lon="2.107919">
        <ele>1542.8</ele>
        <time>2014-06-11T17:19:33Z</time>
      </trkpt>
      <trkpt lat="42.329945" lon="2.107916">
        <ele>1543.3</ele>
        <time>2014-06-11T17:19:47Z</time>
      </trkpt>
      <trkpt lat="42.330026" lon="2.107939">
        <ele>1546.0</ele>
        <time>2014-06-11T17:20:05Z</time>
      </trkpt>
      <trkpt lat="42.330098" lon="2.107982">
        <ele>1548.3</ele>
        <time>2014-06-11T17:20:24Z</time>
      </trkpt>
      <trkpt lat="42.330178" lon="2.107964">
        <ele>1551.0</ele>
        <time>2014-06-11T17:20:35Z</time>
      </trkpt>
      <trkpt lat="42.330270" lon="2.107973">
        <ele>1553.9</ele>
        <time>2014-06-11T17:20:46Z</time>
      </trkpt>
      <trkpt lat="42.330339" lon="2.107957">
        <ele>1556.1</ele>
        <time>2014-06-11T17:24:16Z</time>
      </trkpt>
      <trkpt lat="42.330403" lon="2.107939">
        <ele>1558.2</ele>
        <time>2014-06-11T17:24:29Z</time>
      </trkpt>
      <trkpt lat="42.330443" lon="2.107985">
        <ele>1559.4</ele>
        <time>2014-06-11T17:24:44Z</time>
      </trkpt>
      <trkpt lat="42.330472" lon="2.108011">
        <ele>1560.3</ele>
        <time>2014-06-11T17:24:56Z</time>
      </trkpt>
      <trkpt lat="42.330522" lon="2.108008">
        <ele>1561.9</ele>
        <time>2014-06-11T17:25:11Z</time>
      </trkpt>
      <trkpt lat="42.330575" lon="2.107968">
        <ele>1563.7</ele>
        <time>2014-06-11T17:25:25Z</time>
      </trkpt>
      <trkpt lat="42.330659" lon="2.107935">
        <ele>1566.4</ele>
        <time>2014-06-11T17:25:39Z</time>
      </trkpt>
      <trkpt lat="42.330717" lon="2.107914">
        <ele>1568.2</ele>
        <time>2014-06-11T17:25:54Z</time>
      </trkpt>
      <trkpt lat="42.330783" lon="2.107858">
        <ele>1570.3</ele>
        <time>2014-06-11T17:26:06Z</time>
      </trkpt>
      <trkpt lat="42.330850" lon="2.107785">
        <ele>1572.3</ele>
        <time>2014-06-11T17:26:18Z</time>
      </trkpt>
      <trkpt lat="42.330931" lon="2.107690">
        <ele>1574.6</ele>
        <time>2014-06-11T17:26:32Z</time>
      </trkpt>
      <trkpt lat="42.330988" lon="2.107657">
        <ele>1576.3</ele>
        <time>2014-06-11T17:26:45Z</time>
      </trkpt>
      <trkpt lat="42.331055" lon="2.107603">
        <ele>1578.2</ele>
        <time>2014-06-11T17:27:00Z</time>
      </trkpt>
      <trkpt lat="42.331148" lon="2.107556">
        <ele>1580.9</ele>
        <time>2014-06-11T17:27:14Z</time>
      </trkpt>
      <trkpt lat="42.331197" lon="2.107560">
        <ele>1582.4</ele>
        <time>2014-06-11T17:27:30Z</time>
      </trkpt>
      <trkpt lat="42.331228" lon="2.107578">
        <ele>1583.4</ele>
        <time>2014-06-11T17:27:43Z</time>
      </trkpt>
      <trkpt lat="42.331236" lon="2.107584">
        <ele>1583.7</ele>
        <time>2014-06-11T17:28:00Z</time>
      </trkpt>
      <trkpt lat="42.331263" lon="2.107586">
        <ele>1584.6</ele>
        <time>2014-06-11T17:28:18Z</time>
      </trkpt>
      <trkpt lat="42.331267" lon="2.107587">
        <ele>1584.7</ele>
        <time>2014-06-11T17:28:47Z</time>
      </trkpt>
      <trkpt lat="42.331314" lon="2.107603">
        <ele>1586.3</ele>
        <time>2014-06-11T17:29:06Z</time>
      </trkpt>
      <trkpt lat="42.331353" lon="2.107641">
        <ele>1587.8</ele>
        <time>2014-06-11T17:29:23Z</time>
      </trkpt>
      <trkpt lat="42.331446" lon="2.107754">
        <ele>1591.6</ele>
        <time>2014-06-11T17:29:39Z</time>
      </trkpt>
      <trkpt lat="42.331495" lon="2.107811">
        <ele>1593.6</ele>
        <time>2014-06-11T17:29:54Z</time>
      </trkpt>
      <trkpt lat="42.331644" lon="2.108014">
        <ele>1600.0</ele>
        <time>2014-06-11T17:30:10Z</time>
      </trkpt>
      <trkpt lat="42.331721" lon="2.108098">
        <ele>1602.9</ele>
        <time>2014-06-11T17:30:25Z</time>
      </trkpt>
      <trkpt lat="42.331781" lon="2.108185">
        <ele>1605.3</ele>
        <time>2014-06-11T17:30:39Z</time>
      </trkpt>
      <trkpt lat="42.331869" lon="2.108319">
        <ele>1608.9</ele>
        <time>2014-06-11T17:31:00Z</time>
      </trkpt>
      <trkpt lat="42.331958" lon="2.108456">
        <ele>1611.3</ele>
        <time>2014-06-11T17:31:11Z</time>
      </trkpt>
      <trkpt lat="42.331991" lon="2.108483">
        <ele>1612.3</ele>
        <time>2014-06-11T17:31:27Z</time>
      </trkpt>
      <trkpt lat="42.331991" lon="2.108483">
        <ele>1612.3</ele>
        <time>2014-06-11T17:31:49Z</time>
      </trkpt>
      <trkpt lat="42.332009" lon="2.108524">
        <ele>1612.6</ele>
        <time>2014-06-11T17:32:03Z</time>
      </trkpt>
      <trkpt lat="42.332049" lon="2.108539">
        <ele>1613.9</ele>
        <time>2014-06-11T17:32:18Z</time>
      </trkpt>
      <trkpt lat="42.332066" lon="2.108540">
        <ele>1614.5</ele>
        <time>2014-06-11T17:32:31Z</time>
      </trkpt>
      <trkpt lat="42.332066" lon="2.108540">
        <ele>1614.5</ele>
        <time>2014-06-11T17:33:00Z</time>
      </trkpt>
      <trkpt lat="42.332088" lon="2.108596">
        <ele>1614.9</ele>
        <time>2014-06-11T17:33:16Z</time>
      </trkpt>
      <trkpt lat="42.332105" lon="2.108612">
        <ele>1615.4</ele>
        <time>2014-06-11T17:33:31Z</time>
      </trkpt>
      <trkpt lat="42.332115" lon="2.108614">
        <ele>1615.7</ele>
        <time>2014-06-11T17:33:47Z</time>
      </trkpt>
      <trkpt lat="42.332246" lon="2.108709">
        <ele>1620.2</ele>
        <time>2014-06-11T17:34:03Z</time>
      </trkpt>
      <trkpt lat="42.332253" lon="2.108715">
        <ele>1620.4</ele>
        <time>2014-06-11T17:34:17Z</time>
      </trkpt>
      <trkpt lat="42.332279" lon="2.108722">
        <ele>1621.4</ele>
        <time>2014-06-11T17:34:33Z</time>
      </trkpt>
      <trkpt lat="42.332279" lon="2.108722">
        <ele>1621.4</ele>
        <time>2014-06-11T17:34:52Z</time>
      </trkpt>
      <trkpt lat="42.332290" lon="2.108734">
        <ele>1621.8</ele>
        <time>2014-06-11T17:35:11Z</time>
      </trkpt>
      <trkpt lat="42.332318" lon="2.108726">
        <ele>1623.0</ele>
        <time>2014-06-11T17:35:32Z</time>
      </trkpt>
      <trkpt lat="42.332493" lon="2.108789">
        <ele>1630.0</ele>
        <time>2014-06-11T17:35:46Z</time>
      </trkpt>
      <trkpt lat="42.332611" lon="2.108890">
        <ele>1634.8</ele>
        <time>2014-06-11T17:36:04Z</time>
      </trkpt>
      <trkpt lat="42.332612" lon="2.108893">
        <ele>1634.8</ele>
        <time>2014-06-11T17:36:22Z</time>
      </trkpt>
      <trkpt lat="42.332633" lon="2.108914">
        <ele>1635.7</ele>
        <time>2014-06-11T17:36:41Z</time>
      </trkpt>
      <trkpt lat="42.332654" lon="2.108934">
        <ele>1636.6</ele>
        <time>2014-06-11T17:36:59Z</time>
      </trkpt>
      <trkpt lat="42.332708" lon="2.109005">
        <ele>1639.0</ele>
        <time>2014-06-11T17:37:18Z</time>
      </trkpt>
      <trkpt lat="42.332873" lon="2.109153">
        <ele>1646.2</ele>
        <time>2014-06-11T17:37:33Z</time>
      </trkpt>
      <trkpt lat="42.332967" lon="2.109230">
        <ele>1650.5</ele>
        <time>2014-06-11T17:37:45Z</time>
      </trkpt>
      <trkpt lat="42.333054" lon="2.109355">
        <ele>1654.8</ele>
        <time>2014-06-11T17:38:01Z</time>
      </trkpt>
      <trkpt lat="42.333089" lon="2.109386">
        <ele>1656.5</ele>
        <time>2014-06-11T17:38:14Z</time>
      </trkpt>
      <trkpt lat="42.333136" lon="2.109473">
        <ele>1658.7</ele>
        <time>2014-06-11T17:38:27Z</time>
      </trkpt>
      <trkpt lat="42.333175" lon="2.109494">
        <ele>1660.3</ele>
        <time>2014-06-11T17:38:38Z</time>
      </trkpt>
      <trkpt lat="42.333244" lon="2.109531">
        <ele>1663.0</ele>
        <time>2014-06-11T17:38:51Z</time>
      </trkpt>
      <trkpt lat="42.333274" lon="2.109528">
        <ele>1664.1</ele>
        <time>2014-06-11T17:39:05Z</time>
      </trkpt>
      <trkpt lat="42.333315" lon="2.109524">
        <ele>1665.6</ele>
        <time>2014-06-11T17:39:16Z</time>
      </trkpt>
      <trkpt lat="42.333395" lon="2.109497">
        <ele>1668.4</ele>
        <time>2014-06-11T17:39:30Z</time>
      </trkpt>
      <trkpt lat="42.333419" lon="2.109496">
        <ele>1669.3</ele>
        <time>2014-06-11T17:39:34Z</time>
      </trkpt>
      <trkpt lat="42.333501" lon="2.109464">
        <ele>1672.1</ele>
        <time>2014-06-11T17:39:46Z</time>
      </trkpt>
      <trkpt lat="42.333521" lon="2.109457">
        <ele>1672.8</ele>
        <time>2014-06-11T17:39:58Z</time>
      </trkpt>
      <trkpt lat="42.333565" lon="2.109447">
        <ele>1674.3</ele>
        <time>2014-06-11T17:40:12Z</time>
      </trkpt>
      <trkpt lat="42.333647" lon="2.109445">
        <ele>1677.1</ele>
        <time>2014-06-11T17:40:21Z</time>
      </trkpt>
      <trkpt lat="42.333730" lon="2.109465">
        <ele>1680.1</ele>
        <time>2014-06-11T17:40:33Z</time>
      </trkpt>
      <trkpt lat="42.333774" lon="2.109409">
        <ele>1681.2</ele>
        <time>2014-06-11T17:40:46Z</time>
      </trkpt>
      <trkpt lat="42.333808" lon="2.109266">
        <ele>1681.5</ele>
        <time>2014-06-11T17:42:16Z</time>
      </trkpt>
      <trkpt lat="42.333883" lon="2.109185">
        <ele>1683.6</ele>
        <time>2014-06-11T17:42:30Z</time>
      </trkpt>
      <trkpt lat="42.333942" lon="2.109115">
        <ele>1685.4</ele>
        <time>2014-06-11T17:42:43Z</time>
      </trkpt>
      <trkpt lat="42.333984" lon="2.109089">
        <ele>1686.8</ele>
        <time>2014-06-11T17:42:54Z</time>
      </trkpt>
      <trkpt lat="42.334029" lon="2.109095">
        <ele>1688.5</ele>
        <time>2014-06-11T17:43:08Z</time>
      </trkpt>
      <trkpt lat="42.334083" lon="2.109099">
        <ele>1690.5</ele>
        <time>2014-06-11T17:43:20Z</time>
      </trkpt>
      <trkpt lat="42.334101" lon="2.109110">
        <ele>1691.2</ele>
        <time>2014-06-11T17:43:33Z</time>
      </trkpt>
      <trkpt lat="42.334146" lon="2.109118">
        <ele>1692.9</ele>
        <time>2014-06-11T17:43:49Z</time>
      </trkpt>
      <trkpt lat="42.334247" lon="2.109145">
        <ele>1696.6</ele>
        <time>2014-06-11T17:44:03Z</time>
      </trkpt>
      <trkpt lat="42.334294" lon="2.109129">
        <ele>1698.1</ele>
        <time>2014-06-11T17:44:13Z</time>
      </trkpt>
      <trkpt lat="42.334351" lon="2.109124">
        <ele>1700.0</ele>
        <time>2014-06-11T17:44:24Z</time>
      </trkpt>
      <trkpt lat="42.334380" lon="2.109130">
        <ele>1701.1</ele>
        <time>2014-06-11T17:44:38Z</time>
      </trkpt>
      <trkpt lat="42.334499" lon="2.109121">
        <ele>1705.0</ele>
        <time>2014-06-11T17:44:51Z</time>
      </trkpt>
      <trkpt lat="42.334525" lon="2.109125">
        <ele>1705.9</ele>
        <time>2014-06-11T17:45:03Z</time>
      </trkpt>
      <trkpt lat="42.334616" lon="2.109182">
        <ele>1709.1</ele>
        <time>2014-06-11T17:45:15Z</time>
      </trkpt>
      <trkpt lat="42.334648" lon="2.109205">
        <ele>1710.1</ele>
        <time>2014-06-11T17:45:30Z</time>
      </trkpt>
      <trkpt lat="42.334677" lon="2.109262">
        <ele>1711.3</ele>
        <time>2014-06-11T17:45:45Z</time>
      </trkpt>
      <trkpt lat="42.334691" lon="2.109266">
        <ele>1711.7</ele>
        <time>2014-06-11T17:45:57Z</time>
      </trkpt>
      <trkpt lat="42.334754" lon="2.109301">
        <ele>1713.8</ele>
        <time>2014-06-11T17:46:10Z</time>
      </trkpt>
      <trkpt lat="42.334802" lon="2.109374">
        <ele>1715.6</ele>
        <time>2014-06-11T17:46:25Z</time>
      </trkpt>
      <trkpt lat="42.334885" lon="2.109465">
        <ele>1718.7</ele>
        <time>2014-06-11T17:46:39Z</time>
      </trkpt>
      <trkpt lat="42.335032" lon="2.109613">
        <ele>1723.7</ele>
        <time>2014-06-11T17:46:53Z</time>
      </trkpt>
      <trkpt lat="42.335077" lon="2.109685">
        <ele>1725.3</ele>
        <time>2014-06-11T17:47:06Z</time>
      </trkpt>
      <trkpt lat="42.335114" lon="2.109783">
        <ele>1727.0</ele>
        <time>2014-06-11T17:47:16Z</time>
      </trkpt>
      <trkpt lat="42.335135" lon="2.109890">
        <ele>1728.8</ele>
        <time>2014-06-11T17:47:29Z</time>
      </trkpt>
      <trkpt lat="42.335170" lon="2.109935">
        <ele>1730.5</ele>
        <time>2014-06-11T17:47:42Z</time>
      </trkpt>
      <trkpt lat="42.335206" lon="2.109947">
        <ele>1731.8</ele>
        <time>2014-06-11T17:47:54Z</time>
      </trkpt>
      <trkpt lat="42.335224" lon="2.109957">
        <ele>1732.5</ele>
        <time>2014-06-11T17:48:08Z</time>
      </trkpt>
      <trkpt lat="42.335221" lon="2.109960">
        <ele>1732.4</ele>
        <time>2014-06-11T17:48:21Z</time>
      </trkpt>
      <trkpt lat="42.335243" lon="2.110010">
        <ele>1733.8</ele>
        <time>2014-06-11T17:48:42Z</time>
      </trkpt>
      <trkpt lat="42.335291" lon="2.110090">
        <ele>1736.5</ele>
        <time>2014-06-11T17:48:55Z</time>
      </trkpt>
      <trkpt lat="42.335348" lon="2.110189">
        <ele>1739.6</ele>
        <time>2014-06-11T17:49:08Z</time>
      </trkpt>
      <trkpt lat="42.335399" lon="2.110250">
        <ele>1741.9</ele>
        <time>2014-06-11T17:49:19Z</time>
      </trkpt>
      <trkpt lat="42.335394" lon="2.110258">
        <ele>1742.0</ele>
        <time>2014-06-11T17:49:24Z</time>
      </trkpt>
      <trkpt lat="42.335394" lon="2.110258">
        <ele>1742.0</ele>
        <time>2014-06-11T17:49:27Z</time>
      </trkpt>
      <trkpt lat="42.335439" lon="2.110307">
        <ele>1743.9</ele>
        <time>2014-06-11T17:49:42Z</time>
      </trkpt>
      <trkpt lat="42.335472" lon="2.110331">
        <ele>1745.1</ele>
        <time>2014-06-11T17:49:57Z</time>
      </trkpt>
      <trkpt lat="42.335523" lon="2.110346">
        <ele>1746.6</ele>
        <time>2014-06-11T17:50:10Z</time>
      </trkpt>
      <trkpt lat="42.335565" lon="2.110363">
        <ele>1747.9</ele>
        <time>2014-06-11T17:50:23Z</time>
      </trkpt>
      <trkpt lat="42.335631" lon="2.110497">
        <ele>1751.5</ele>
        <time>2014-06-11T17:50:41Z</time>
      </trkpt>
      <trkpt lat="42.335698" lon="2.110609">
        <ele>1755.1</ele>
        <time>2014-06-11T17:50:54Z</time>
      </trkpt>
      <trkpt lat="42.335742" lon="2.110632">
        <ele>1756.7</ele>
        <time>2014-06-11T17:51:06Z</time>
      </trkpt>
      <trkpt lat="42.335769" lon="2.110684">
        <ele>1758.5</ele>
        <time>2014-06-11T17:51:19Z</time>
      </trkpt>
      <trkpt lat="42.335850" lon="2.110723">
        <ele>1761.3</ele>
        <time>2014-06-11T17:51:35Z</time>
      </trkpt>
      <trkpt lat="42.335884" lon="2.110811">
        <ele>1764.0</ele>
        <time>2014-06-11T17:53:04Z</time>
      </trkpt>
      <trkpt lat="42.335904" lon="2.110828">
        <ele>1764.8</ele>
        <time>2014-06-11T17:53:15Z</time>
      </trkpt>
      <trkpt lat="42.335959" lon="2.110929">
        <ele>1768.1</ele>
        <time>2014-06-11T17:53:28Z</time>
      </trkpt>
      <trkpt lat="42.335965" lon="2.110941">
        <ele>1768.4</ele>
        <time>2014-06-11T17:53:32Z</time>
      </trkpt>
      <trkpt lat="42.336000" lon="2.111007">
        <ele>1770.2</ele>
        <time>2014-06-11T17:53:43Z</time>
      </trkpt>
      <trkpt lat="42.336044" lon="2.111076">
        <ele>1772.2</ele>
        <time>2014-06-11T17:53:56Z</time>
      </trkpt>
      <trkpt lat="42.336090" lon="2.111114">
        <ele>1774.0</ele>
        <time>2014-06-11T17:54:10Z</time>
      </trkpt>
      <trkpt lat="42.336122" lon="2.111152">
        <ele>1775.6</ele>
        <time>2014-06-11T17:54:23Z</time>
      </trkpt>
      <trkpt lat="42.336138" lon="2.111197">
        <ele>1776.8</ele>
        <time>2014-06-11T17:54:35Z</time>
      </trkpt>
      <trkpt lat="42.336154" lon="2.111235">
        <ele>1777.9</ele>
        <time>2014-06-11T17:54:48Z</time>
      </trkpt>
      <trkpt lat="42.336201" lon="2.111325">
        <ele>1780.7</ele>
        <time>2014-06-11T17:54:59Z</time>
      </trkpt>
      <trkpt lat="42.336232" lon="2.111350">
        <ele>1781.9</ele>
        <time>2014-06-11T17:55:12Z</time>
      </trkpt>
      <trkpt lat="42.336359" lon="2.111499">
        <ele>1787.4</ele>
        <time>2014-06-11T17:58:24Z</time>
      </trkpt>
      <trkpt lat="42.336392" lon="2.111516">
        <ele>1788.6</ele>
        <time>2014-06-11T17:58:33Z</time>
      </trkpt>
      <trkpt lat="42.336447" lon="2.111545">
        <ele>1790.5</ele>
        <time>2014-06-11T17:58:44Z</time>
      </trkpt>
      <trkpt lat="42.336471" lon="2.111564">
        <ele>1791.4</ele>
        <time>2014-06-11T17:58:55Z</time>
      </trkpt>
      <trkpt lat="42.336502" lon="2.111586">
        <ele>1792.6</ele>
        <time>2014-06-11T17:59:06Z</time>
      </trkpt>
      <trkpt lat="42.336527" lon="2.111614">
        <ele>1793.6</ele>
        <time>2014-06-11T17:59:16Z</time>
      </trkpt>
      <trkpt lat="42.336579" lon="2.111663">
        <ele>1795.7</ele>
        <time>2014-06-11T17:59:31Z</time>
      </trkpt>
      <trkpt lat="42.336600" lon="2.111708">
        <ele>1796.6</ele>
        <time>2014-06-11T17:59:46Z</time>
      </trkpt>
      <trkpt lat="42.336681" lon="2.111812">
        <ele>1799.7</ele>
        <time>2014-06-12T06:42:49Z</time>
      </trkpt>
      <trkpt lat="42.336782" lon="2.111859">
        <ele>1801.2</ele>
        <time>2014-06-12T06:43:01Z</time>
      </trkpt>
      <trkpt lat="42.337163" lon="2.111989">
        <ele>1812.7</ele>
        <time>2014-06-12T06:49:45Z</time>
      </trkpt>
      <trkpt lat="42.337206" lon="2.112024">
        <ele>1812.7</ele>
        <time>2014-06-12T06:49:57Z</time>
      </trkpt>
      <trkpt lat="42.337260" lon="2.112002">
        <ele>1814.2</ele>
        <time>2014-06-12T06:50:08Z</time>
      </trkpt>
      <trkpt lat="42.337295" lon="2.112012">
        <ele>1816.6</ele>
        <time>2014-06-12T06:50:20Z</time>
      </trkpt>
      <trkpt lat="42.337347" lon="2.112043">
        <ele>1818.0</ele>
        <time>2014-06-12T06:50:31Z</time>
      </trkpt>
      <trkpt lat="42.337441" lon="2.112083">
        <ele>1820.9</ele>
        <time>2014-06-12T06:50:47Z</time>
      </trkpt>
      <trkpt lat="42.337505" lon="2.112107">
        <ele>1822.8</ele>
        <time>2014-06-12T06:50:59Z</time>
      </trkpt>
      <trkpt lat="42.337571" lon="2.112064">
        <ele>1824.2</ele>
        <time>2014-06-12T06:51:10Z</time>
      </trkpt>
      <trkpt lat="42.337613" lon="2.112105">
        <ele>1825.7</ele>
        <time>2014-06-12T06:51:21Z</time>
      </trkpt>
      <trkpt lat="42.337645" lon="2.112147">
        <ele>1827.6</ele>
        <time>2014-06-12T06:51:32Z</time>
      </trkpt>
      <trkpt lat="42.337675" lon="2.112248">
        <ele>1829.1</ele>
        <time>2014-06-12T06:51:46Z</time>
      </trkpt>
      <trkpt lat="42.337677" lon="2.112294">
        <ele>1829.5</ele>
        <time>2014-06-12T06:52:01Z</time>
      </trkpt>
      <trkpt lat="42.337677" lon="2.112294">
        <ele>1830.0</ele>
        <time>2014-06-12T06:52:29Z</time>
      </trkpt>
      <trkpt lat="42.337674" lon="2.112339">
        <ele>1830.0</ele>
        <time>2014-06-12T06:52:58Z</time>
      </trkpt>
      <trkpt lat="42.337665" lon="2.112493">
        <ele>1830.5</ele>
        <time>2014-06-12T06:53:09Z</time>
      </trkpt>
      <trkpt lat="42.337664" lon="2.112673">
        <ele>1831.4</ele>
        <time>2014-06-12T06:53:20Z</time>
      </trkpt>
      <trkpt lat="42.337640" lon="2.112894">
        <ele>1832.4</ele>
        <time>2014-06-12T06:53:34Z</time>
      </trkpt>
      <trkpt lat="42.337615" lon="2.113067">
        <ele>1833.8</ele>
        <time>2014-06-12T06:53:46Z</time>
      </trkpt>
      <trkpt lat="42.337583" lon="2.113271">
        <ele>1835.3</ele>
        <time>2014-06-12T06:54:00Z</time>
      </trkpt>
      <trkpt lat="42.337562" lon="2.113471">
        <ele>1836.7</ele>
        <time>2014-06-12T06:54:14Z</time>
      </trkpt>
      <trkpt lat="42.337558" lon="2.113539">
        <ele>1837.2</ele>
        <time>2014-06-12T06:54:19Z</time>
      </trkpt>
      <trkpt lat="42.337579" lon="2.113759">
        <ele>1838.7</ele>
        <time>2014-06-12T06:54:34Z</time>
      </trkpt>
      <trkpt lat="42.337582" lon="2.113775">
        <ele>1839.1</ele>
        <time>2014-06-12T06:54:35Z</time>
      </trkpt>
      <trkpt lat="42.337597" lon="2.113851">
        <ele>1840.1</ele>
        <time>2014-06-12T06:58:06Z</time>
      </trkpt>
      <trkpt lat="42.337597" lon="2.113851">
        <ele>1840.6</ele>
        <time>2014-06-12T06:58:23Z</time>
      </trkpt>
      <trkpt lat="42.337623" lon="2.113971">
        <ele>1840.6</ele>
        <time>2014-06-12T06:58:35Z</time>
      </trkpt>
      <trkpt lat="42.337638" lon="2.113997">
        <ele>1840.6</ele>
        <time>2014-06-12T06:58:37Z</time>
      </trkpt>
      <trkpt lat="42.337658" lon="2.114060">
        <ele>1840.6</ele>
        <time>2014-06-12T06:58:42Z</time>
      </trkpt>
      <trkpt lat="42.337742" lon="2.114274">
        <ele>1841.5</ele>
        <time>2014-06-12T06:58:57Z</time>
      </trkpt>
      <trkpt lat="42.337802" lon="2.114429">
        <ele>1842.5</ele>
        <time>2014-06-12T06:59:09Z</time>
      </trkpt>
      <trkpt lat="42.337879" lon="2.114599">
        <ele>1843.9</ele>
        <time>2014-06-12T06:59:23Z</time>
      </trkpt>
      <trkpt lat="42.337904" lon="2.114652">
        <ele>1844.4</ele>
        <time>2014-06-12T06:59:27Z</time>
      </trkpt>
      <trkpt lat="42.337986" lon="2.114794">
        <ele>1845.4</ele>
        <time>2014-06-12T06:59:39Z</time>
      </trkpt>
      <trkpt lat="42.338068" lon="2.114954">
        <ele>1846.3</ele>
        <time>2014-06-12T06:59:52Z</time>
      </trkpt>
      <trkpt lat="42.338161" lon="2.115119">
        <ele>1847.8</ele>
        <time>2014-06-12T07:00:05Z</time>
      </trkpt>
      <trkpt lat="42.338248" lon="2.115257">
        <ele>1848.8</ele>
        <time>2014-06-12T07:00:17Z</time>
      </trkpt>
      <trkpt lat="42.338334" lon="2.115416">
        <ele>1850.2</ele>
        <time>2014-06-12T07:00:30Z</time>
      </trkpt>
      <trkpt lat="42.338359" lon="2.115585">
        <ele>1851.2</ele>
        <time>2014-06-12T07:00:42Z</time>
      </trkpt>
      <trkpt lat="42.338352" lon="2.115768">
        <ele>1852.6</ele>
        <time>2014-06-12T07:00:54Z</time>
      </trkpt>
      <trkpt lat="42.338321" lon="2.115943">
        <ele>1854.0</ele>
        <time>2014-06-12T07:01:06Z</time>
      </trkpt>
      <trkpt lat="42.338299" lon="2.116146">
        <ele>1855.0</ele>
        <time>2014-06-12T07:01:19Z</time>
      </trkpt>
      <trkpt lat="42.338303" lon="2.116349">
        <ele>1856.9</ele>
        <time>2014-06-12T07:01:32Z</time>
      </trkpt>
      <trkpt lat="42.338347" lon="2.116564">
        <ele>1857.9</ele>
        <time>2014-06-12T07:01:46Z</time>
      </trkpt>
      <trkpt lat="42.338418" lon="2.116768">
        <ele>1859.3</ele>
        <time>2014-06-12T07:02:00Z</time>
      </trkpt>
      <trkpt lat="42.338489" lon="2.116957">
        <ele>1860.3</ele>
        <time>2014-06-12T07:02:14Z</time>
      </trkpt>
      <trkpt lat="42.338550" lon="2.117140">
        <ele>1861.2</ele>
        <time>2014-06-12T07:02:27Z</time>
      </trkpt>
      <trkpt lat="42.338585" lon="2.117370">
        <ele>1863.2</ele>
        <time>2014-06-12T07:02:42Z</time>
      </trkpt>
      <trkpt lat="42.338613" lon="2.117574">
        <ele>1864.6</ele>
        <time>2014-06-12T07:02:55Z</time>
      </trkpt>
      <trkpt lat="42.338618" lon="2.117599">
        <ele>1864.6</ele>
        <time>2014-06-12T07:02:57Z</time>
      </trkpt>
      <trkpt lat="42.338648" lon="2.117827">
        <ele>1866.1</ele>
        <time>2014-06-12T07:03:12Z</time>
      </trkpt>
      <trkpt lat="42.338662" lon="2.117873">
        <ele>1867.5</ele>
        <time>2014-06-12T07:03:24Z</time>
      </trkpt>
      <trkpt lat="42.338673" lon="2.117928">
        <ele>1868.0</ele>
        <time>2014-06-12T07:03:38Z</time>
      </trkpt>
      <trkpt lat="42.338670" lon="2.117921">
        <ele>1868.0</ele>
        <time>2014-06-12T07:03:50Z</time>
      </trkpt>
      <trkpt lat="42.338678" lon="2.117913">
        <ele>1868.0</ele>
        <time>2014-06-12T07:04:07Z</time>
      </trkpt>
      <trkpt lat="42.338692" lon="2.117894">
        <ele>1868.0</ele>
        <time>2014-06-12T07:04:29Z</time>
      </trkpt>
      <trkpt lat="42.338692" lon="2.117894">
        <ele>1868.0</ele>
        <time>2014-06-12T07:04:31Z</time>
      </trkpt>
      <trkpt lat="42.338731" lon="2.117915">
        <ele>1868.9</ele>
        <time>2014-06-12T07:04:41Z</time>
      </trkpt>
      <trkpt lat="42.338764" lon="2.117954">
        <ele>1871.3</ele>
        <time>2014-06-12T07:04:52Z</time>
      </trkpt>
      <trkpt lat="42.338814" lon="2.117958">
        <ele>1872.8</ele>
        <time>2014-06-12T07:05:04Z</time>
      </trkpt>
      <trkpt lat="42.338870" lon="2.118013">
        <ele>1875.2</ele>
        <time>2014-06-12T07:05:16Z</time>
      </trkpt>
      <trkpt lat="42.338905" lon="2.118013">
        <ele>1877.6</ele>
        <time>2014-06-12T07:05:29Z</time>
      </trkpt>
      <trkpt lat="42.338980" lon="2.118045">
        <ele>1879.0</ele>
        <time>2014-06-12T07:05:43Z</time>
      </trkpt>
      <trkpt lat="42.339041" lon="2.118080">
        <ele>1880.5</ele>
        <time>2014-06-12T07:05:55Z</time>
      </trkpt>
      <trkpt lat="42.339092" lon="2.118115">
        <ele>1882.9</ele>
        <time>2014-06-12T07:06:08Z</time>
      </trkpt>
      <trkpt lat="42.339119" lon="2.118145">
        <ele>1884.3</ele>
        <time>2014-06-12T07:06:19Z</time>
      </trkpt>
      <trkpt lat="42.339148" lon="2.118185">
        <ele>1886.7</ele>
        <time>2014-06-12T07:06:30Z</time>
      </trkpt>
      <trkpt lat="42.339211" lon="2.118202">
        <ele>1888.7</ele>
        <time>2014-06-12T07:06:43Z</time>
      </trkpt>
      <trkpt lat="42.339300" lon="2.118200">
        <ele>1890.6</ele>
        <time>2014-06-12T07:06:57Z</time>
      </trkpt>
      <trkpt lat="42.339371" lon="2.118212">
        <ele>1892.5</ele>
        <time>2014-06-12T07:07:10Z</time>
      </trkpt>
      <trkpt lat="42.339398" lon="2.118242">
        <ele>1893.4</ele>
        <time>2014-06-12T07:07:14Z</time>
      </trkpt>
      <trkpt lat="42.339454" lon="2.118281">
        <ele>1894.9</ele>
        <time>2014-06-12T07:07:24Z</time>
      </trkpt>
      <trkpt lat="42.339521" lon="2.118332">
        <ele>1896.3</ele>
        <time>2014-06-12T07:07:37Z</time>
      </trkpt>
      <trkpt lat="42.339577" lon="2.118356">
        <ele>1897.3</ele>
        <time>2014-06-12T07:07:51Z</time>
      </trkpt>
      <trkpt lat="42.339656" lon="2.118377">
        <ele>1898.7</ele>
        <time>2014-06-12T07:08:03Z</time>
      </trkpt>
      <trkpt lat="42.339752" lon="2.118398">
        <ele>1900.2</ele>
        <time>2014-06-12T07:08:15Z</time>
      </trkpt>
      <trkpt lat="42.339867" lon="2.118441">
        <ele>1901.6</ele>
        <time>2014-06-12T07:16:39Z</time>
      </trkpt>
      <trkpt lat="42.339918" lon="2.118483">
        <ele>1901.6</ele>
        <time>2014-06-12T07:16:47Z</time>
      </trkpt>
      <trkpt lat="42.339981" lon="2.118520">
        <ele>1901.6</ele>
        <time>2014-06-12T07:16:52Z</time>
      </trkpt>
      <trkpt lat="42.340072" lon="2.118582">
        <ele>1900.7</ele>
        <time>2014-06-12T07:17:02Z</time>
      </trkpt>
      <trkpt lat="42.340221" lon="2.118547">
        <ele>1899.7</ele>
        <time>2014-06-12T07:17:16Z</time>
      </trkpt>
      <trkpt lat="42.340297" lon="2.118550">
        <ele>1897.8</ele>
        <time>2014-06-12T07:17:29Z</time>
      </trkpt>
      <trkpt lat="42.340335" lon="2.118568">
        <ele>1897.3</ele>
        <time>2014-06-12T07:17:34Z</time>
      </trkpt>
      <trkpt lat="42.340414" lon="2.118622">
        <ele>1895.9</ele>
        <time>2014-06-12T07:17:47Z</time>
      </trkpt>
      <trkpt lat="42.340452" lon="2.118652">
        <ele>1893.4</ele>
        <time>2014-06-12T07:18:05Z</time>
      </trkpt>
      <trkpt lat="42.340458" lon="2.118656">
        <ele>1893.4</ele>
        <time>2014-06-12T07:18:07Z</time>
      </trkpt>
      <trkpt lat="42.340568" lon="2.118718">
        <ele>1892.0</ele>
        <time>2014-06-12T07:18:18Z</time>
      </trkpt>
      <trkpt lat="42.340643" lon="2.118752">
        <ele>1890.1</ele>
        <time>2014-06-12T07:18:29Z</time>
      </trkpt>
      <trkpt lat="42.340697" lon="2.118767">
        <ele>1889.6</ele>
        <time>2014-06-12T07:18:40Z</time>
      </trkpt>
      <trkpt lat="42.340765" lon="2.118819">
        <ele>1889.1</ele>
        <time>2014-06-12T07:18:46Z</time>
      </trkpt>
      <trkpt lat="42.340894" lon="2.118950">
        <ele>1886.7</ele>
        <time>2014-06-12T07:19:00Z</time>
      </trkpt>
      <trkpt lat="42.340936" lon="2.118989">
        <ele>1884.8</ele>
        <time>2014-06-12T07:19:13Z</time>
      </trkpt>
      <trkpt lat="42.340994" lon="2.118948">
        <ele>1883.8</ele>
        <time>2014-06-12T07:21:59Z</time>
      </trkpt>
      <trkpt lat="42.341110" lon="2.118808">
        <ele>1883.8</ele>
        <time>2014-06-12T07:22:14Z</time>
      </trkpt>
      <trkpt lat="42.341150" lon="2.118751">
        <ele>1883.8</ele>
        <time>2014-06-12T07:22:25Z</time>
      </trkpt>
      <trkpt lat="42.341255" lon="2.118627">
        <ele>1883.8</ele>
        <time>2014-06-12T07:22:39Z</time>
      </trkpt>
      <trkpt lat="42.341271" lon="2.118619">
        <ele>1883.8</ele>
        <time>2014-06-12T07:22:42Z</time>
      </trkpt>
      <trkpt lat="42.341446" lon="2.118514">
        <ele>1884.3</ele>
        <time>2014-06-12T07:22:56Z</time>
      </trkpt>
      <trkpt lat="42.341541" lon="2.118477">
        <ele>1884.3</ele>
        <time>2014-06-12T07:23:04Z</time>
      </trkpt>
      <trkpt lat="42.341696" lon="2.118418">
        <ele>1884.3</ele>
        <time>2014-06-12T07:23:17Z</time>
      </trkpt>
      <trkpt lat="42.341846" lon="2.118345">
        <ele>1884.3</ele>
        <time>2014-06-12T07:23:31Z</time>
      </trkpt>
      <trkpt lat="42.341998" lon="2.118262">
        <ele>1884.3</ele>
        <time>2014-06-12T07:23:45Z</time>
      </trkpt>
      <trkpt lat="42.342119" lon="2.118158">
        <ele>1884.3</ele>
        <time>2014-06-12T07:23:57Z</time>
      </trkpt>
      <trkpt lat="42.342230" lon="2.117997">
        <ele>1884.8</ele>
        <time>2014-06-12T07:24:11Z</time>
      </trkpt>
      <trkpt lat="42.342235" lon="2.117987">
        <ele>1884.8</ele>
        <time>2014-06-12T07:24:12Z</time>
      </trkpt>
      <trkpt lat="42.342270" lon="2.117935">
        <ele>1884.8</ele>
        <time>2014-06-12T07:24:16Z</time>
      </trkpt>
      <trkpt lat="42.342304" lon="2.117873">
        <ele>1884.8</ele>
        <time>2014-06-12T07:24:21Z</time>
      </trkpt>
      <trkpt lat="42.342339" lon="2.117826">
        <ele>1884.8</ele>
        <time>2014-06-12T07:24:25Z</time>
      </trkpt>
      <trkpt lat="42.342425" lon="2.117749">
        <ele>1884.8</ele>
        <time>2014-06-12T07:24:35Z</time>
      </trkpt>
      <trkpt lat="42.342575" lon="2.117713">
        <ele>1884.8</ele>
        <time>2014-06-12T07:24:49Z</time>
      </trkpt>
      <trkpt lat="42.342728" lon="2.117672">
        <ele>1884.8</ele>
        <time>2014-06-12T07:25:01Z</time>
      </trkpt>
      <trkpt lat="42.342783" lon="2.117656">
        <ele>1884.8</ele>
        <time>2014-06-12T07:25:06Z</time>
      </trkpt>
      <trkpt lat="42.342865" lon="2.117615">
        <ele>1884.8</ele>
        <time>2014-06-12T07:25:12Z</time>
      </trkpt>
      <trkpt lat="42.343036" lon="2.117551">
        <ele>1884.8</ele>
        <time>2014-06-12T07:25:28Z</time>
      </trkpt>
      <trkpt lat="42.343170" lon="2.117526">
        <ele>1884.3</ele>
        <time>2014-06-12T07:25:41Z</time>
      </trkpt>
      <trkpt lat="42.343344" lon="2.117473">
        <ele>1884.3</ele>
        <time>2014-06-12T07:25:55Z</time>
      </trkpt>
      <trkpt lat="42.343500" lon="2.117430">
        <ele>1884.3</ele>
        <time>2014-06-12T07:26:09Z</time>
      </trkpt>
      <trkpt lat="42.343553" lon="2.117408">
        <ele>1884.3</ele>
        <time>2014-06-12T07:26:15Z</time>
      </trkpt>
      <trkpt lat="42.343682" lon="2.117373">
        <ele>1884.8</ele>
        <time>2014-06-12T07:26:25Z</time>
      </trkpt>
      <trkpt lat="42.343841" lon="2.117286">
        <ele>1884.8</ele>
        <time>2014-06-12T07:26:39Z</time>
      </trkpt>
      <trkpt lat="42.343992" lon="2.117253">
        <ele>1884.8</ele>
        <time>2014-06-12T07:26:52Z</time>
      </trkpt>
      <trkpt lat="42.344131" lon="2.117212">
        <ele>1884.8</ele>
        <time>2014-06-12T07:27:04Z</time>
      </trkpt>
      <trkpt lat="42.344244" lon="2.117208">
        <ele>1884.8</ele>
        <time>2014-06-12T07:28:09Z</time>
      </trkpt>
      <trkpt lat="42.344360" lon="2.117203">
        <ele>1884.8</ele>
        <time>2014-06-12T07:28:24Z</time>
      </trkpt>
      <trkpt lat="42.344365" lon="2.117201">
        <ele>1884.3</ele>
        <time>2014-06-12T07:28:46Z</time>
      </trkpt>
      <trkpt lat="42.344429" lon="2.117232">
        <ele>1884.3</ele>
        <time>2014-06-12T07:29:02Z</time>
      </trkpt>
      <trkpt lat="42.344473" lon="2.117224">
        <ele>1883.8</ele>
        <time>2014-06-12T07:29:17Z</time>
      </trkpt>
      <trkpt lat="42.344589" lon="2.117220">
        <ele>1883.4</ele>
        <time>2014-06-12T07:29:34Z</time>
      </trkpt>
      <trkpt lat="42.344657" lon="2.117222">
        <ele>1882.9</ele>
        <time>2014-06-12T07:29:39Z</time>
      </trkpt>
      <trkpt lat="42.344832" lon="2.117185">
        <ele>1881.0</ele>
        <time>2014-06-12T07:29:55Z</time>
      </trkpt>
      <trkpt lat="42.344963" lon="2.117156">
        <ele>1879.0</ele>
        <time>2014-06-12T07:30:09Z</time>
      </trkpt>
      <trkpt lat="42.345028" lon="2.117082">
        <ele>1878.1</ele>
        <time>2014-06-12T07:30:23Z</time>
      </trkpt>
      <trkpt lat="42.345116" lon="2.117034">
        <ele>1877.1</ele>
        <time>2014-06-12T07:30:35Z</time>
      </trkpt>
      <trkpt lat="42.345227" lon="2.116992">
        <ele>1875.7</ele>
        <time>2014-06-12T07:30:48Z</time>
      </trkpt>
      <trkpt lat="42.345234" lon="2.116989">
        <ele>1875.7</ele>
        <time>2014-06-12T07:30:49Z</time>
      </trkpt>
      <trkpt lat="42.345346" lon="2.116902">
        <ele>1874.7</ele>
        <time>2014-06-12T07:31:02Z</time>
      </trkpt>
      <trkpt lat="42.345414" lon="2.116856">
        <ele>1873.8</ele>
        <time>2014-06-12T07:31:15Z</time>
      </trkpt>
      <trkpt lat="42.345572" lon="2.116757">
        <ele>1870.9</ele>
        <time>2014-06-12T07:31:31Z</time>
      </trkpt>
      <trkpt lat="42.345610" lon="2.116732">
        <ele>1868.0</ele>
        <time>2014-06-12T07:31:38Z</time>
      </trkpt>
      <trkpt lat="42.345778" lon="2.116701">
        <ele>1867.5</ele>
        <time>2014-06-12T07:31:53Z</time>
      </trkpt>
      <trkpt lat="42.345887" lon="2.116731">
        <ele>1866.5</ele>
        <time>2014-06-12T07:32:04Z</time>
      </trkpt>
      <trkpt lat="42.346000" lon="2.116755">
        <ele>1865.1</ele>
        <time>2014-06-12T07:32:17Z</time>
      </trkpt>
      <trkpt lat="42.346080" lon="2.116711">
        <ele>1862.7</ele>
        <time>2014-06-12T07:32:30Z</time>
      </trkpt>
      <trkpt lat="42.346191" lon="2.116646">
        <ele>1861.2</ele>
        <time>2014-06-12T07:32:42Z</time>
      </trkpt>
      <trkpt lat="42.346331" lon="2.116641">
        <ele>1861.2</ele>
        <time>2014-06-12T07:32:56Z</time>
      </trkpt>
      <trkpt lat="42.346407" lon="2.116648">
        <ele>1860.8</ele>
        <time>2014-06-12T07:33:07Z</time>
      </trkpt>
      <trkpt lat="42.346561" lon="2.116662">
        <ele>1859.8</ele>
        <time>2014-06-12T07:33:21Z</time>
      </trkpt>
      <trkpt lat="42.346696" lon="2.116669">
        <ele>1858.4</ele>
        <time>2014-06-12T07:33:35Z</time>
      </trkpt>
      <trkpt lat="42.346759" lon="2.116640">
        <ele>1856.0</ele>
        <time>2014-06-12T07:33:50Z</time>
      </trkpt>
      <trkpt lat="42.346918" lon="2.116600">
        <ele>1853.1</ele>
        <time>2014-06-12T07:36:00Z</time>
      </trkpt>
      <trkpt lat="42.346966" lon="2.116599">
        <ele>1851.6</ele>
        <time>2014-06-12T07:36:15Z</time>
      </trkpt>
      <trkpt lat="42.347138" lon="2.116653">
        <ele>1850.7</ele>
        <time>2014-06-12T07:36:27Z</time>
      </trkpt>
      <trkpt lat="42.347215" lon="2.116632">
        <ele>1849.2</ele>
        <time>2014-06-12T07:36:38Z</time>
      </trkpt>
      <trkpt lat="42.347335" lon="2.116604">
        <ele>1848.8</ele>
        <time>2014-06-12T07:36:50Z</time>
      </trkpt>
      <trkpt lat="42.347378" lon="2.116593">
        <ele>1848.8</ele>
        <time>2014-06-12T07:37:04Z</time>
      </trkpt>
      <trkpt lat="42.347487" lon="2.116587">
        <ele>1848.3</ele>
        <time>2014-06-12T07:37:14Z</time>
      </trkpt>
      <trkpt lat="42.347572" lon="2.116588">
        <ele>1847.8</ele>
        <time>2014-06-12T07:37:25Z</time>
      </trkpt>
      <trkpt lat="42.347599" lon="2.116574">
        <ele>1847.3</ele>
        <time>2014-06-12T07:37:41Z</time>
      </trkpt>
      <trkpt lat="42.347612" lon="2.116568">
        <ele>1847.3</ele>
        <time>2014-06-12T07:38:02Z</time>
      </trkpt>
      <trkpt lat="42.347683" lon="2.116562">
        <ele>1847.3</ele>
        <time>2014-06-12T07:38:09Z</time>
      </trkpt>
      <trkpt lat="42.347787" lon="2.116600">
        <ele>1847.3</ele>
        <time>2014-06-12T07:38:18Z</time>
      </trkpt>
      <trkpt lat="42.347850" lon="2.116597">
        <ele>1847.3</ele>
        <time>2014-06-12T07:38:23Z</time>
      </trkpt>
      <trkpt lat="42.347972" lon="2.116633">
        <ele>1847.3</ele>
        <time>2014-06-12T07:38:36Z</time>
      </trkpt>
      <trkpt lat="42.348083" lon="2.116662">
        <ele>1847.3</ele>
        <time>2014-06-12T07:38:48Z</time>
      </trkpt>
      <trkpt lat="42.348107" lon="2.116665">
        <ele>1847.3</ele>
        <time>2014-06-12T07:38:50Z</time>
      </trkpt>
      <trkpt lat="42.348240" lon="2.116700">
        <ele>1846.8</ele>
        <time>2014-06-12T07:39:02Z</time>
      </trkpt>
      <trkpt lat="42.348374" lon="2.116721">
        <ele>1846.3</ele>
        <time>2014-06-12T07:39:15Z</time>
      </trkpt>
      <trkpt lat="42.348385" lon="2.116723">
        <ele>1846.3</ele>
        <time>2014-06-12T07:39:16Z</time>
      </trkpt>
      <trkpt lat="42.348505" lon="2.116731">
        <ele>1846.3</ele>
        <time>2014-06-12T07:39:27Z</time>
      </trkpt>
      <trkpt lat="42.348527" lon="2.116743">
        <ele>1846.3</ele>
        <time>2014-06-12T07:39:29Z</time>
      </trkpt>
      <trkpt lat="42.348615" lon="2.116763">
        <ele>1844.9</ele>
        <time>2014-06-12T07:39:40Z</time>
      </trkpt>
      <trkpt lat="42.348742" lon="2.116764">
        <ele>1844.4</ele>
        <time>2014-06-12T07:39:54Z</time>
      </trkpt>
      <trkpt lat="42.348768" lon="2.116780">
        <ele>1843.5</ele>
        <time>2014-06-12T07:39:58Z</time>
      </trkpt>
      <trkpt lat="42.348855" lon="2.116743">
        <ele>1842.5</ele>
        <time>2014-06-12T07:40:08Z</time>
      </trkpt>
      <trkpt lat="42.348889" lon="2.116734">
        <ele>1841.5</ele>
        <time>2014-06-12T07:40:12Z</time>
      </trkpt>
      <trkpt lat="42.348980" lon="2.116663">
        <ele>1841.5</ele>
        <time>2014-06-12T07:40:25Z</time>
      </trkpt>
      <trkpt lat="42.349005" lon="2.116650">
        <ele>1841.5</ele>
        <time>2014-06-12T07:40:39Z</time>
      </trkpt>
      <trkpt lat="42.349050" lon="2.116657">
        <ele>1840.1</ele>
        <time>2014-06-12T07:40:53Z</time>
      </trkpt>
      <trkpt lat="42.349191" lon="2.116637">
        <ele>1840.1</ele>
        <time>2014-06-12T07:41:05Z</time>
      </trkpt>
      <trkpt lat="42.349285" lon="2.116565">
        <ele>1839.6</ele>
        <time>2014-06-12T07:41:18Z</time>
      </trkpt>
      <trkpt lat="42.349319" lon="2.116542">
        <ele>1839.6</ele>
        <time>2014-06-12T07:41:32Z</time>
      </trkpt>
      <trkpt lat="42.349331" lon="2.116533">
        <ele>1839.1</ele>
        <time>2014-06-12T07:41:33Z</time>
      </trkpt>
      <trkpt lat="42.349484" lon="2.116520">
        <ele>1838.7</ele>
        <time>2014-06-12T07:41:46Z</time>
      </trkpt>
      <trkpt lat="42.349668" lon="2.116511">
        <ele>1837.7</ele>
        <time>2014-06-12T07:42:00Z</time>
      </trkpt>
      <trkpt lat="42.349724" lon="2.116506">
        <ele>1836.7</ele>
        <time>2014-06-12T07:42:06Z</time>
      </trkpt>
      <trkpt lat="42.349911" lon="2.116499">
        <ele>1836.3</ele>
        <time>2014-06-12T07:42:19Z</time>
      </trkpt>
      <trkpt lat="42.350046" lon="2.116565">
        <ele>1835.3</ele>
        <time>2014-06-12T07:42:31Z</time>
      </trkpt>
      <trkpt lat="42.350177" lon="2.116521">
        <ele>1834.3</ele>
        <time>2014-06-12T07:42:41Z</time>
      </trkpt>
      <trkpt lat="42.350288" lon="2.116466">
        <ele>1834.3</ele>
        <time>2014-06-12T07:42:54Z</time>
      </trkpt>
      <trkpt lat="42.350400" lon="2.116439">
        <ele>1832.9</ele>
        <time>2014-06-12T07:43:07Z</time>
      </trkpt>
      <trkpt lat="42.350503" lon="2.116400">
        <ele>1831.9</ele>
        <time>2014-06-12T07:43:17Z</time>
      </trkpt>
      <trkpt lat="42.350545" lon="2.116381">
        <ele>1830.0</ele>
        <time>2014-06-12T07:43:30Z</time>
      </trkpt>
      <trkpt lat="42.350578" lon="2.116351">
        <ele>1828.6</ele>
        <time>2014-06-12T07:43:40Z</time>
      </trkpt>
      <trkpt lat="42.350585" lon="2.116346">
        <ele>1827.1</ele>
        <time>2014-06-12T07:43:55Z</time>
      </trkpt>
      <trkpt lat="42.350593" lon="2.116314">
        <ele>1825.7</ele>
        <time>2014-06-12T07:44:05Z</time>
      </trkpt>
      <trkpt lat="42.350624" lon="2.116240">
        <ele>1825.2</ele>
        <time>2014-06-12T07:44:18Z</time>
      </trkpt>
      <trkpt lat="42.350675" lon="2.116158">
        <ele>1825.2</ele>
        <time>2014-06-12T07:45:14Z</time>
      </trkpt>
      <trkpt lat="42.350943" lon="2.116126">
        <ele>1825.2</ele>
        <time>2014-06-12T07:45:28Z</time>
      </trkpt>
      <trkpt lat="42.351037" lon="2.116279">
        <ele>1825.2</ele>
        <time>2014-06-12T07:45:43Z</time>
      </trkpt>
      <trkpt lat="42.351091" lon="2.116387">
        <ele>1826.6</ele>
        <time>2014-06-12T07:45:56Z</time>
      </trkpt>
      <trkpt lat="42.351111" lon="2.116412">
        <ele>1826.6</ele>
        <time>2014-06-12T07:45:59Z</time>
      </trkpt>
      <trkpt lat="42.351174" lon="2.116518">
        <ele>1827.6</ele>
        <time>2014-06-12T07:46:12Z</time>
      </trkpt>
      <trkpt lat="42.351242" lon="2.116560">
        <ele>1828.6</ele>
        <time>2014-06-12T07:46:24Z</time>
      </trkpt>
      <trkpt lat="42.351325" lon="2.116562">
        <ele>1829.1</ele>
        <time>2014-06-12T07:46:35Z</time>
      </trkpt>
      <trkpt lat="42.351388" lon="2.116567">
        <ele>1830.5</ele>
        <time>2014-06-12T07:46:45Z</time>
      </trkpt>
      <trkpt lat="42.351526" lon="2.116583">
        <ele>1830.5</ele>
        <time>2014-06-12T07:46:58Z</time>
      </trkpt>
      <trkpt lat="42.351643" lon="2.116600">
        <ele>1830.5</ele>
        <time>2014-06-12T07:47:11Z</time>
      </trkpt>
      <trkpt lat="42.351720" lon="2.116583">
        <ele>1830.5</ele>
        <time>2014-06-12T07:47:23Z</time>
      </trkpt>
      <trkpt lat="42.351836" lon="2.116606">
        <ele>1830.0</ele>
        <time>2014-06-12T07:47:36Z</time>
      </trkpt>
      <trkpt lat="42.351950" lon="2.116601">
        <ele>1830.5</ele>
        <time>2014-06-12T07:47:49Z</time>
      </trkpt>
      <trkpt lat="42.352020" lon="2.116607">
        <ele>1831.4</ele>
        <time>2014-06-12T07:48:03Z</time>
      </trkpt>
      <trkpt lat="42.352069" lon="2.116631">
        <ele>1831.9</ele>
        <time>2014-06-12T07:48:13Z</time>
      </trkpt>
      <trkpt lat="42.352197" lon="2.116712">
        <ele>1831.9</ele>
        <time>2014-06-12T07:48:25Z</time>
      </trkpt>
      <trkpt lat="42.352284" lon="2.116743">
        <ele>1831.9</ele>
        <time>2014-06-12T07:48:37Z</time>
      </trkpt>
      <trkpt lat="42.352384" lon="2.116814">
        <ele>1831.9</ele>
        <time>2014-06-12T07:48:50Z</time>
      </trkpt>
      <trkpt lat="42.352459" lon="2.116858">
        <ele>1831.9</ele>
        <time>2014-06-12T07:49:02Z</time>
      </trkpt>
      <trkpt lat="42.352549" lon="2.116906">
        <ele>1830.5</ele>
        <time>2014-06-12T07:49:15Z</time>
      </trkpt>
      <trkpt lat="42.352596" lon="2.116928">
        <ele>1830.0</ele>
        <time>2014-06-12T07:49:21Z</time>
      </trkpt>
      <trkpt lat="42.352670" lon="2.116918">
        <ele>1829.1</ele>
        <time>2014-06-12T07:49:33Z</time>
      </trkpt>
      <trkpt lat="42.352765" lon="2.116904">
        <ele>1828.6</ele>
        <time>2014-06-12T07:49:45Z</time>
      </trkpt>
      <trkpt lat="42.352791" lon="2.116903">
        <ele>1828.6</ele>
        <time>2014-06-12T07:49:59Z</time>
      </trkpt>
      <trkpt lat="42.352803" lon="2.116904">
        <ele>1828.6</ele>
        <time>2014-06-12T07:50:00Z</time>
      </trkpt>
      <trkpt lat="42.352915" lon="2.116907">
        <ele>1828.1</ele>
        <time>2014-06-12T07:50:14Z</time>
      </trkpt>
      <trkpt lat="42.352915" lon="2.116907">
        <ele>1828.1</ele>
        <time>2014-06-12T07:50:17Z</time>
      </trkpt>
      <trkpt lat="42.353031" lon="2.116979">
        <ele>1826.2</ele>
        <time>2014-06-12T07:50:31Z</time>
      </trkpt>
      <trkpt lat="42.353123" lon="2.116998">
        <ele>1824.7</ele>
        <time>2014-06-12T07:50:45Z</time>
      </trkpt>
      <trkpt lat="42.353291" lon="2.116975">
        <ele>1823.8</ele>
        <time>2014-06-12T07:50:58Z</time>
      </trkpt>
      <trkpt lat="42.353371" lon="2.116955">
        <ele>1822.8</ele>
        <time>2014-06-12T07:51:11Z</time>
      </trkpt>
      <trkpt lat="42.353473" lon="2.116935">
        <ele>1821.8</ele>
        <time>2014-06-12T07:51:18Z</time>
      </trkpt>
      <trkpt lat="42.353508" lon="2.116920">
        <ele>1821.8</ele>
        <time>2014-06-12T07:51:21Z</time>
      </trkpt>
      <trkpt lat="42.353611" lon="2.116915">
        <ele>1822.3</ele>
        <time>2014-06-12T07:51:33Z</time>
      </trkpt>
      <trkpt lat="42.353612" lon="2.116913">
        <ele>1820.4</ele>
        <time>2014-06-12T07:51:47Z</time>
      </trkpt>
      <trkpt lat="42.353647" lon="2.116915">
        <ele>1819.4</ele>
        <time>2014-06-12T07:51:59Z</time>
      </trkpt>
      <trkpt lat="42.353693" lon="2.116914">
        <ele>1818.5</ele>
        <time>2014-06-12T07:52:08Z</time>
      </trkpt>
      <trkpt lat="42.353700" lon="2.116928">
        <ele>1816.6</ele>
        <time>2014-06-12T07:52:22Z</time>
      </trkpt>
      <trkpt lat="42.353808" lon="2.116958">
        <ele>1815.1</ele>
        <time>2014-06-12T07:52:33Z</time>
      </trkpt>
      <trkpt lat="42.353862" lon="2.116955">
        <ele>1813.7</ele>
        <time>2014-06-12T07:52:46Z</time>
      </trkpt>
      <trkpt lat="42.353944" lon="2.116947">
        <ele>1813.2</ele>
        <time>2014-06-12T07:52:51Z</time>
      </trkpt>
      <trkpt lat="42.353982" lon="2.116948">
        <ele>1812.2</ele>
        <time>2014-06-12T07:53:03Z</time>
      </trkpt>
      <trkpt lat="42.354019" lon="2.116949">
        <ele>1811.3</ele>
        <time>2014-06-12T07:53:20Z</time>
      </trkpt>
      <trkpt lat="42.354019" lon="2.116949">
        <ele>1811.3</ele>
        <time>2014-06-12T07:53:47Z</time>
      </trkpt>
      <trkpt lat="42.354162" lon="2.116935">
        <ele>1810.8</ele>
        <time>2014-06-12T07:53:59Z</time>
      </trkpt>
      <trkpt lat="42.354162" lon="2.116935">
        <ele>1810.3</ele>
        <time>2014-06-12T07:54:14Z</time>
      </trkpt>
      <trkpt lat="42.354355" lon="2.116927">
        <ele>1809.3</ele>
        <time>2014-06-12T07:54:26Z</time>
      </trkpt>
      <trkpt lat="42.354442" lon="2.116933">
        <ele>1808.9</ele>
        <time>2014-06-12T07:54:34Z</time>
      </trkpt>
      <trkpt lat="42.354504" lon="2.116930">
        <ele>1808.4</ele>
        <time>2014-06-12T07:54:47Z</time>
      </trkpt>
      <trkpt lat="42.354612" lon="2.116916">
        <ele>1807.4</ele>
        <time>2014-06-12T07:54:59Z</time>
      </trkpt>
      <trkpt lat="42.354759" lon="2.116913">
        <ele>1806.0</ele>
        <time>2014-06-12T07:55:08Z</time>
      </trkpt>
      <trkpt lat="42.354957" lon="2.116962">
        <ele>1804.5</ele>
        <time>2014-06-12T07:55:21Z</time>
      </trkpt>
      <trkpt lat="42.355039" lon="2.116989">
        <ele>1802.6</ele>
        <time>2014-06-12T07:55:30Z</time>
      </trkpt>
      <trkpt lat="42.355101" lon="2.117011">
        <ele>1800.7</ele>
        <time>2014-06-12T07:55:46Z</time>
      </trkpt>
      <trkpt lat="42.355135" lon="2.117090">
        <ele>1799.2</ele>
        <time>2014-06-12T07:56:42Z</time>
      </trkpt>
      <trkpt lat="42.355128" lon="2.117123">
        <ele>1797.8</ele>
        <time>2014-06-12T07:56:55Z</time>
      </trkpt>
      <trkpt lat="42.355140" lon="2.117150">
        <ele>1796.8</ele>
        <time>2014-06-12T07:57:09Z</time>
      </trkpt>
      <trkpt lat="42.355158" lon="2.117180">
        <ele>1796.4</ele>
        <time>2014-06-12T07:57:32Z</time>
      </trkpt>
      <trkpt lat="42.355164" lon="2.117190">
        <ele>1796.4</ele>
        <time>2014-06-12T07:58:28Z</time>
      </trkpt>
      <trkpt lat="42.355126" lon="2.117306">
        <ele>1796.4</ele>
        <time>2014-06-12T07:58:40Z</time>
      </trkpt>
      <trkpt lat="42.355120" lon="2.117318">
        <ele>1796.4</ele>
        <time>2014-06-12T07:58:41Z</time>
      </trkpt>
      <trkpt lat="42.355097" lon="2.117359">
        <ele>1796.4</ele>
        <time>2014-06-12T07:58:47Z</time>
      </trkpt>
      <trkpt lat="42.355085" lon="2.117383">
        <ele>1796.4</ele>
        <time>2014-06-12T07:58:50Z</time>
      </trkpt>
      <trkpt lat="42.355059" lon="2.117418">
        <ele>1796.4</ele>
        <time>2014-06-12T07:58:54Z</time>
      </trkpt>
      <trkpt lat="42.355039" lon="2.117450">
        <ele>1796.4</ele>
        <time>2014-06-12T07:59:06Z</time>
      </trkpt>
      <trkpt lat="42.354994" lon="2.117525">
        <ele>1796.4</ele>
        <time>2014-06-12T07:59:22Z</time>
      </trkpt>
      <trkpt lat="42.354941" lon="2.117571">
        <ele>1796.4</ele>
        <time>2014-06-12T07:59:31Z</time>
      </trkpt>
      <trkpt lat="42.354881" lon="2.117616">
        <ele>1796.4</ele>
        <time>2014-06-12T07:59:37Z</time>
      </trkpt>
      <trkpt lat="42.354858" lon="2.117625">
        <ele>1795.9</ele>
        <time>2014-06-12T07:59:47Z</time>
      </trkpt>
      <trkpt lat="42.354858" lon="2.117625">
        <ele>1795.9</ele>
        <time>2014-06-12T08:00:10Z</time>
      </trkpt>
      <trkpt lat="42.354836" lon="2.117637">
        <ele>1795.9</ele>
        <time>2014-06-12T08:00:28Z</time>
      </trkpt>
      <trkpt lat="42.354842" lon="2.117636">
        <ele>1795.9</ele>
        <time>2014-06-12T08:00:29Z</time>
      </trkpt>
      <trkpt lat="42.354775" lon="2.117694">
        <ele>1795.9</ele>
        <time>2014-06-12T08:00:37Z</time>
      </trkpt>
      <trkpt lat="42.354735" lon="2.117730">
        <ele>1795.9</ele>
        <time>2014-06-12T08:00:42Z</time>
      </trkpt>
      <trkpt lat="42.354659" lon="2.117790">
        <ele>1795.9</ele>
        <time>2014-06-12T08:00:50Z</time>
      </trkpt>
      <trkpt lat="42.354607" lon="2.117833">
        <ele>1795.9</ele>
        <time>2014-06-12T08:00:56Z</time>
      </trkpt>
      <trkpt lat="42.354482" lon="2.117936">
        <ele>1795.9</ele>
        <time>2014-06-12T08:01:09Z</time>
      </trkpt>
      <trkpt lat="42.354436" lon="2.117972">
        <ele>1795.9</ele>
        <time>2014-06-12T08:01:14Z</time>
      </trkpt>
      <trkpt lat="42.354266" lon="2.118075">
        <ele>1795.9</ele>
        <time>2014-06-12T08:01:32Z</time>
      </trkpt>
      <trkpt lat="42.354176" lon="2.118147">
        <ele>1795.4</ele>
        <time>2014-06-12T08:01:42Z</time>
      </trkpt>
      <trkpt lat="42.354126" lon="2.118196">
        <ele>1794.0</ele>
        <time>2014-06-12T08:01:55Z</time>
      </trkpt>
      <trkpt lat="42.354081" lon="2.118195">
        <ele>1793.5</ele>
        <time>2014-06-12T08:01:59Z</time>
      </trkpt>
      <trkpt lat="42.354015" lon="2.118216">
        <ele>1792.0</ele>
        <time>2014-06-12T08:02:06Z</time>
      </trkpt>
      <trkpt lat="42.353916" lon="2.118240">
        <ele>1789.2</ele>
        <time>2014-06-12T08:02:18Z</time>
      </trkpt>
      <trkpt lat="42.353781" lon="2.118284">
        <ele>1786.8</ele>
        <time>2014-06-12T08:02:32Z</time>
      </trkpt>
      <trkpt lat="42.353713" lon="2.118308">
        <ele>1784.3</ele>
        <time>2014-06-12T08:02:43Z</time>
      </trkpt>
      <trkpt lat="42.353680" lon="2.118307">
        <ele>1782.9</ele>
        <time>2014-06-12T08:09:01Z</time>
      </trkpt>
      <trkpt lat="42.353606" lon="2.118379">
        <ele>1782.9</ele>
        <time>2014-06-12T08:09:07Z</time>
      </trkpt>
      <trkpt lat="42.353560" lon="2.118422">
        <ele>1782.9</ele>
        <time>2014-06-12T08:09:11Z</time>
      </trkpt>
      <trkpt lat="42.353473" lon="2.118555">
        <ele>1781.9</ele>
        <time>2014-06-12T08:09:23Z</time>
      </trkpt>
      <trkpt lat="42.353408" lon="2.118609">
        <ele>1781.0</ele>
        <time>2014-06-12T08:09:30Z</time>
      </trkpt>
      <trkpt lat="42.353301" lon="2.118755">
        <ele>1779.1</ele>
        <time>2014-06-12T08:09:45Z</time>
      </trkpt>
      <trkpt lat="42.353245" lon="2.118803">
        <ele>1778.6</ele>
        <time>2014-06-12T08:09:50Z</time>
      </trkpt>
      <trkpt lat="42.353070" lon="2.118967">
        <ele>1775.7</ele>
        <time>2014-06-12T08:10:06Z</time>
      </trkpt>
      <trkpt lat="42.352923" lon="2.119055">
        <ele>1774.2</ele>
        <time>2014-06-12T08:10:18Z</time>
      </trkpt>
      <trkpt lat="42.352876" lon="2.119081">
        <ele>1774.2</ele>
        <time>2014-06-12T08:10:22Z</time>
      </trkpt>
      <trkpt lat="42.352846" lon="2.119106">
        <ele>1773.8</ele>
        <time>2014-06-12T08:10:25Z</time>
      </trkpt>
      <trkpt lat="42.352710" lon="2.119159">
        <ele>1773.3</ele>
        <time>2014-06-12T08:10:37Z</time>
      </trkpt>
      <trkpt lat="42.352605" lon="2.119183">
        <ele>1772.8</ele>
        <time>2014-06-12T08:10:47Z</time>
      </trkpt>
      <trkpt lat="42.352590" lon="2.119163">
        <ele>1772.8</ele>
        <time>2014-06-12T08:10:49Z</time>
      </trkpt>
      <trkpt lat="42.352540" lon="2.119184">
        <ele>1772.8</ele>
        <time>2014-06-12T08:10:53Z</time>
      </trkpt>
      <trkpt lat="42.352488" lon="2.119201">
        <ele>1772.3</ele>
        <time>2014-06-12T08:10:57Z</time>
      </trkpt>
      <trkpt lat="42.352301" lon="2.119200">
        <ele>1772.3</ele>
        <time>2014-06-12T08:11:12Z</time>
      </trkpt>
      <trkpt lat="42.352241" lon="2.119208">
        <ele>1772.3</ele>
        <time>2014-06-12T08:11:19Z</time>
      </trkpt>
      <trkpt lat="42.352172" lon="2.119216">
        <ele>1772.3</ele>
        <time>2014-06-12T08:11:25Z</time>
      </trkpt>
      <trkpt lat="42.352156" lon="2.119221">
        <ele>1772.3</ele>
        <time>2014-06-12T08:11:27Z</time>
      </trkpt>
      <trkpt lat="42.352087" lon="2.119279">
        <ele>1772.3</ele>
        <time>2014-06-12T08:11:32Z</time>
      </trkpt>
      <trkpt lat="42.352057" lon="2.119281">
        <ele>1772.3</ele>
        <time>2014-06-12T08:11:34Z</time>
      </trkpt>
      <trkpt lat="42.351979" lon="2.119301">
        <ele>1773.3</ele>
        <time>2014-06-12T08:11:43Z</time>
      </trkpt>
      <trkpt lat="42.351941" lon="2.119306">
        <ele>1773.3</ele>
        <time>2014-06-12T08:11:47Z</time>
      </trkpt>
      <trkpt lat="42.351719" lon="2.119459">
        <ele>1773.8</ele>
        <time>2014-06-12T08:12:02Z</time>
      </trkpt>
      <trkpt lat="42.351684" lon="2.119470">
        <ele>1773.8</ele>
        <time>2014-06-12T08:12:05Z</time>
      </trkpt>
      <trkpt lat="42.351584" lon="2.119509">
        <ele>1773.8</ele>
        <time>2014-06-12T08:12:14Z</time>
      </trkpt>
      <trkpt lat="42.351527" lon="2.119515">
        <ele>1773.8</ele>
        <time>2014-06-12T08:12:18Z</time>
      </trkpt>
      <trkpt lat="42.351481" lon="2.119519">
        <ele>1773.8</ele>
        <time>2014-06-12T08:12:21Z</time>
      </trkpt>
      <trkpt lat="42.351340" lon="2.119554">
        <ele>1771.8</ele>
        <time>2014-06-12T08:12:34Z</time>
      </trkpt>
      <trkpt lat="42.351223" lon="2.119587">
        <ele>1771.4</ele>
        <time>2014-06-12T08:12:46Z</time>
      </trkpt>
      <trkpt lat="42.351166" lon="2.119590">
        <ele>1771.4</ele>
        <time>2014-06-12T08:12:51Z</time>
      </trkpt>
      <trkpt lat="42.351043" lon="2.119677">
        <ele>1770.9</ele>
        <time>2014-06-12T08:13:03Z</time>
      </trkpt>
      <trkpt lat="42.350995" lon="2.119660">
        <ele>1770.9</ele>
        <time>2014-06-12T08:13:12Z</time>
      </trkpt>
      <trkpt lat="42.350980" lon="2.119686">
        <ele>1770.9</ele>
        <time>2014-06-12T08:13:15Z</time>
      </trkpt>
      <trkpt lat="42.350943" lon="2.119968">
        <ele>1768.0</ele>
        <time>2014-06-12T08:13:28Z</time>
      </trkpt>
      <trkpt lat="42.350861" lon="2.120177">
        <ele>1765.6</ele>
        <time>2014-06-12T08:13:42Z</time>
      </trkpt>
      <trkpt lat="42.350795" lon="2.120353">
        <ele>1764.2</ele>
        <time>2014-06-12T08:13:53Z</time>
      </trkpt>
      <trkpt lat="42.350703" lon="2.120529">
        <ele>1761.8</ele>
        <time>2014-06-12T08:14:05Z</time>
      </trkpt>
      <trkpt lat="42.350678" lon="2.120608">
        <ele>1761.8</ele>
        <time>2014-06-12T08:14:10Z</time>
      </trkpt>
      <trkpt lat="42.350609" lon="2.120774">
        <ele>1760.8</ele>
        <time>2014-06-12T08:14:22Z</time>
      </trkpt>
      <trkpt lat="42.350534" lon="2.120871">
        <ele>1760.8</ele>
        <time>2014-06-12T08:14:31Z</time>
      </trkpt>
      <trkpt lat="42.350467" lon="2.120919">
        <ele>1760.3</ele>
        <time>2014-06-12T08:14:38Z</time>
      </trkpt>
      <trkpt lat="42.350386" lon="2.120989">
        <ele>1759.8</ele>
        <time>2014-06-12T08:14:47Z</time>
      </trkpt>
      <trkpt lat="42.350339" lon="2.121155">
        <ele>1759.8</ele>
        <time>2014-06-12T08:15:00Z</time>
      </trkpt>
      <trkpt lat="42.350325" lon="2.121262">
        <ele>1759.8</ele>
        <time>2014-06-12T08:15:06Z</time>
      </trkpt>
      <trkpt lat="42.350243" lon="2.121370">
        <ele>1759.3</ele>
        <time>2014-06-12T08:15:17Z</time>
      </trkpt>
      <trkpt lat="42.350136" lon="2.121426">
        <ele>1756.0</ele>
        <time>2014-06-12T08:15:32Z</time>
      </trkpt>
      <trkpt lat="42.350066" lon="2.121416">
        <ele>1752.6</ele>
        <time>2014-06-12T08:15:39Z</time>
      </trkpt>
      <trkpt lat="42.350048" lon="2.121424">
        <ele>1748.8</ele>
        <time>2014-06-12T08:15:44Z</time>
      </trkpt>
      <trkpt lat="42.349975" lon="2.121430">
        <ele>1747.3</ele>
        <time>2014-06-12T08:15:56Z</time>
      </trkpt>
      <trkpt lat="42.349937" lon="2.121420">
        <ele>1746.4</ele>
        <time>2014-06-12T08:16:06Z</time>
      </trkpt>
      <trkpt lat="42.349845" lon="2.121392">
        <ele>1744.4</ele>
        <time>2014-06-12T08:16:13Z</time>
      </trkpt>
      <trkpt lat="42.349754" lon="2.121385">
        <ele>1742.1</ele>
        <time>2014-06-12T08:16:25Z</time>
      </trkpt>
      <trkpt lat="42.349553" lon="2.121459">
        <ele>1739.6</ele>
        <time>2014-06-12T08:16:36Z</time>
      </trkpt>
      <trkpt lat="42.349479" lon="2.121493">
        <ele>1739.2</ele>
        <time>2014-06-12T08:16:40Z</time>
      </trkpt>
      <trkpt lat="42.349392" lon="2.121613">
        <ele>1737.2</ele>
        <time>2014-06-12T08:16:51Z</time>
      </trkpt>
      <trkpt lat="42.349375" lon="2.121618">
        <ele>1736.8</ele>
        <time>2014-06-12T08:16:52Z</time>
      </trkpt>
      <trkpt lat="42.349312" lon="2.121704">
        <ele>1735.3</ele>
        <time>2014-06-12T08:17:00Z</time>
      </trkpt>
      <trkpt lat="42.349136" lon="2.121882">
        <ele>1733.4</ele>
        <time>2014-06-12T08:17:12Z</time>
      </trkpt>
      <trkpt lat="42.349110" lon="2.121912">
        <ele>1733.4</ele>
        <time>2014-06-12T08:17:13Z</time>
      </trkpt>
      <trkpt lat="42.348981" lon="2.122058">
        <ele>1731.9</ele>
        <time>2014-06-12T08:17:24Z</time>
      </trkpt>
      <trkpt lat="42.348973" lon="2.122111">
        <ele>1731.5</ele>
        <time>2014-06-12T08:17:37Z</time>
      </trkpt>
      <trkpt lat="42.348868" lon="2.122180">
        <ele>1728.1</ele>
        <time>2014-06-12T08:27:45Z</time>
      </trkpt>
      <trkpt lat="42.348868" lon="2.122180">
        <ele>1727.6</ele>
        <time>2014-06-12T08:28:13Z</time>
      </trkpt>
      <trkpt lat="42.348810" lon="2.122302">
        <ele>1726.2</ele>
        <time>2014-06-12T08:28:28Z</time>
      </trkpt>
      <trkpt lat="42.348804" lon="2.122315">
        <ele>1726.2</ele>
        <time>2014-06-12T08:28:29Z</time>
      </trkpt>
      <trkpt lat="42.348769" lon="2.122432">
        <ele>1724.3</ele>
        <time>2014-06-12T08:28:42Z</time>
      </trkpt>
      <trkpt lat="42.348723" lon="2.122559">
        <ele>1721.4</ele>
        <time>2014-06-12T08:28:55Z</time>
      </trkpt>
      <trkpt lat="42.348704" lon="2.122657">
        <ele>1718.5</ele>
        <time>2014-06-12T08:29:09Z</time>
      </trkpt>
      <trkpt lat="42.348694" lon="2.122688">
        <ele>1716.1</ele>
        <time>2014-06-12T08:29:21Z</time>
      </trkpt>
      <trkpt lat="42.348682" lon="2.122719">
        <ele>1714.7</ele>
        <time>2014-06-12T08:29:34Z</time>
      </trkpt>
      <trkpt lat="42.348676" lon="2.122733">
        <ele>1713.7</ele>
        <time>2014-06-12T08:29:50Z</time>
      </trkpt>
      <trkpt lat="42.348676" lon="2.122733">
        <ele>1713.7</ele>
        <time>2014-06-12T08:30:03Z</time>
      </trkpt>
      <trkpt lat="42.348604" lon="2.122872">
        <ele>1712.7</ele>
        <time>2014-06-12T08:30:14Z</time>
      </trkpt>
      <trkpt lat="42.348547" lon="2.122972">
        <ele>1711.3</ele>
        <time>2014-06-12T08:30:26Z</time>
      </trkpt>
      <trkpt lat="42.348475" lon="2.123148">
        <ele>1710.8</ele>
        <time>2014-06-12T08:30:40Z</time>
      </trkpt>
      <trkpt lat="42.348417" lon="2.123251">
        <ele>1710.3</ele>
        <time>2014-06-12T08:30:50Z</time>
      </trkpt>
      <trkpt lat="42.348346" lon="2.123384">
        <ele>1709.8</ele>
        <time>2014-06-12T08:31:04Z</time>
      </trkpt>
      <trkpt lat="42.348346" lon="2.123384">
        <ele>1708.9</ele>
        <time>2014-06-12T08:31:31Z</time>
      </trkpt>
      <trkpt lat="42.348333" lon="2.123427">
        <ele>1708.9</ele>
        <time>2014-06-12T08:32:06Z</time>
      </trkpt>
      <trkpt lat="42.348242" lon="2.123576">
        <ele>1708.4</ele>
        <time>2014-06-12T08:32:18Z</time>
      </trkpt>
      <trkpt lat="42.348217" lon="2.123607">
        <ele>1707.9</ele>
        <time>2014-06-12T08:32:21Z</time>
      </trkpt>
      <trkpt lat="42.348147" lon="2.123754">
        <ele>1707.0</ele>
        <time>2014-06-12T08:32:33Z</time>
      </trkpt>
      <trkpt lat="42.348121" lon="2.123811">
        <ele>1707.0</ele>
        <time>2014-06-12T08:32:37Z</time>
      </trkpt>
      <trkpt lat="42.348062" lon="2.123980">
        <ele>1706.0</ele>
        <time>2014-06-12T08:32:50Z</time>
      </trkpt>
      <trkpt lat="42.347995" lon="2.124267">
        <ele>1703.6</ele>
        <time>2014-06-12T08:33:06Z</time>
      </trkpt>
      <trkpt lat="42.347976" lon="2.124481">
        <ele>1702.2</ele>
        <time>2014-06-12T08:33:19Z</time>
      </trkpt>
      <trkpt lat="42.347962" lon="2.124691">
        <ele>1699.8</ele>
        <time>2014-06-12T08:33:32Z</time>
      </trkpt>
      <trkpt lat="42.347961" lon="2.124825">
        <ele>1698.3</ele>
        <time>2014-06-12T08:33:44Z</time>
      </trkpt>
      <trkpt lat="42.347970" lon="2.124902">
        <ele>1697.3</ele>
        <time>2014-06-12T08:33:50Z</time>
      </trkpt>
      <trkpt lat="42.347947" lon="2.124997">
        <ele>1696.4</ele>
        <time>2014-06-12T08:33:56Z</time>
      </trkpt>
      <trkpt lat="42.347877" lon="2.125184">
        <ele>1694.5</ele>
        <time>2014-06-12T08:34:08Z</time>
      </trkpt>
      <trkpt lat="42.347853" lon="2.125304">
        <ele>1694.0</ele>
        <time>2014-06-12T08:34:17Z</time>
      </trkpt>
      <trkpt lat="42.347811" lon="2.125471">
        <ele>1693.5</ele>
        <time>2014-06-12T08:34:29Z</time>
      </trkpt>
      <trkpt lat="42.347777" lon="2.125585">
        <ele>1693.5</ele>
        <time>2014-06-12T08:34:40Z</time>
      </trkpt>
      <trkpt lat="42.347756" lon="2.125706">
        <ele>1693.0</ele>
        <time>2014-06-12T08:34:53Z</time>
      </trkpt>
      <trkpt lat="42.347707" lon="2.125842">
        <ele>1692.5</ele>
        <time>2014-06-12T08:35:07Z</time>
      </trkpt>
      <trkpt lat="42.347672" lon="2.125997">
        <ele>1692.1</ele>
        <time>2014-06-12T08:35:21Z</time>
      </trkpt>
      <trkpt lat="42.347644" lon="2.126149">
        <ele>1691.6</ele>
        <time>2014-06-12T08:35:33Z</time>
      </trkpt>
      <trkpt lat="42.347635" lon="2.126178">
        <ele>1691.1</ele>
        <time>2014-06-12T08:35:39Z</time>
      </trkpt>
      <trkpt lat="42.347569" lon="2.126350">
        <ele>1689.2</ele>
        <time>2014-06-12T08:35:53Z</time>
      </trkpt>
      <trkpt lat="42.347541" lon="2.126482">
        <ele>1688.7</ele>
        <time>2014-06-12T08:36:05Z</time>
      </trkpt>
      <trkpt lat="42.347501" lon="2.126624">
        <ele>1687.2</ele>
        <time>2014-06-12T08:36:17Z</time>
      </trkpt>
      <trkpt lat="42.347462" lon="2.126797">
        <ele>1685.8</ele>
        <time>2014-06-12T08:36:30Z</time>
      </trkpt>
      <trkpt lat="42.347442" lon="2.126955">
        <ele>1685.3</ele>
        <time>2014-06-12T08:36:43Z</time>
      </trkpt>
      <trkpt lat="42.347383" lon="2.127098">
        <ele>1684.8</ele>
        <time>2014-06-12T08:36:56Z</time>
      </trkpt>
      <trkpt lat="42.347344" lon="2.127219">
        <ele>1684.4</ele>
        <time>2014-06-12T08:37:08Z</time>
      </trkpt>
      <trkpt lat="42.347288" lon="2.127372">
        <ele>1682.9</ele>
        <time>2014-06-12T08:37:22Z</time>
      </trkpt>
      <trkpt lat="42.347260" lon="2.127440">
        <ele>1682.4</ele>
        <time>2014-06-12T08:37:28Z</time>
      </trkpt>
      <trkpt lat="42.347273" lon="2.127542">
        <ele>1681.0</ele>
        <time>2014-06-12T08:37:39Z</time>
      </trkpt>
      <trkpt lat="42.347255" lon="2.127674">
        <ele>1679.6</ele>
        <time>2014-06-12T08:37:47Z</time>
      </trkpt>
      <trkpt lat="42.347239" lon="2.127759">
        <ele>1679.6</ele>
        <time>2014-06-12T08:37:53Z</time>
      </trkpt>
      <trkpt lat="42.347196" lon="2.127846">
        <ele>1678.1</ele>
        <time>2014-06-12T08:38:05Z</time>
      </trkpt>
      <trkpt lat="42.347195" lon="2.127841">
        <ele>1677.6</ele>
        <time>2014-06-12T08:38:24Z</time>
      </trkpt>
      <trkpt lat="42.347173" lon="2.127872">
        <ele>1677.6</ele>
        <time>2014-06-12T08:38:37Z</time>
      </trkpt>
      <trkpt lat="42.347140" lon="2.127867">
        <ele>1677.6</ele>
        <time>2014-06-12T08:38:40Z</time>
      </trkpt>
      <trkpt lat="42.347067" lon="2.127930">
        <ele>1677.6</ele>
        <time>2014-06-12T08:38:50Z</time>
      </trkpt>
      <trkpt lat="42.347062" lon="2.127932">
        <ele>1677.6</ele>
        <time>2014-06-12T08:38:57Z</time>
      </trkpt>
      <trkpt lat="42.347002" lon="2.127887">
        <ele>1677.2</ele>
        <time>2014-06-12T08:39:05Z</time>
      </trkpt>
      <trkpt lat="42.346893" lon="2.127869">
        <ele>1676.2</ele>
        <time>2014-06-12T08:39:16Z</time>
      </trkpt>
      <trkpt lat="42.346866" lon="2.127882">
        <ele>1676.2</ele>
        <time>2014-06-12T08:39:19Z</time>
      </trkpt>
      <trkpt lat="42.346803" lon="2.127875">
        <ele>1675.7</ele>
        <time>2014-06-12T08:39:25Z</time>
      </trkpt>
      <trkpt lat="42.346754" lon="2.127880">
        <ele>1675.7</ele>
        <time>2014-06-12T08:39:36Z</time>
      </trkpt>
      <trkpt lat="42.346720" lon="2.127883">
        <ele>1675.7</ele>
        <time>2014-06-12T08:39:39Z</time>
      </trkpt>
      <trkpt lat="42.346635" lon="2.127997">
        <ele>1675.2</ele>
        <time>2014-06-12T08:39:52Z</time>
      </trkpt>
      <trkpt lat="42.346551" lon="2.128139">
        <ele>1674.8</ele>
        <time>2014-06-12T08:40:05Z</time>
      </trkpt>
      <trkpt lat="42.346501" lon="2.128254">
        <ele>1674.8</ele>
        <time>2014-06-12T08:40:17Z</time>
      </trkpt>
      <trkpt lat="42.346423" lon="2.128346">
        <ele>1672.3</ele>
        <time>2014-06-12T08:41:54Z</time>
      </trkpt>
      <trkpt lat="42.346342" lon="2.128372">
        <ele>1670.9</ele>
        <time>2014-06-12T08:42:01Z</time>
      </trkpt>
      <trkpt lat="42.346323" lon="2.128387">
        <ele>1670.9</ele>
        <time>2014-06-12T08:42:03Z</time>
      </trkpt>
      <trkpt lat="42.346267" lon="2.128415">
        <ele>1669.9</ele>
        <time>2014-06-12T08:42:08Z</time>
      </trkpt>
      <trkpt lat="42.346141" lon="2.128609">
        <ele>1669.0</ele>
        <time>2014-06-12T08:42:25Z</time>
      </trkpt>
      <trkpt lat="42.346123" lon="2.128638">
        <ele>1668.5</ele>
        <time>2014-06-12T08:42:37Z</time>
      </trkpt>
      <trkpt lat="42.346123" lon="2.128638">
        <ele>1668.5</ele>
        <time>2014-06-12T08:42:49Z</time>
      </trkpt>
      <trkpt lat="42.346117" lon="2.128673">
        <ele>1668.5</ele>
        <time>2014-06-12T08:42:52Z</time>
      </trkpt>
      <trkpt lat="42.346095" lon="2.128764">
        <ele>1667.5</ele>
        <time>2014-06-12T08:42:59Z</time>
      </trkpt>
      <trkpt lat="42.346062" lon="2.128843">
        <ele>1666.1</ele>
        <time>2014-06-12T08:43:08Z</time>
      </trkpt>
      <trkpt lat="42.346009" lon="2.128901">
        <ele>1666.1</ele>
        <time>2014-06-12T08:43:16Z</time>
      </trkpt>
      <trkpt lat="42.345992" lon="2.128936">
        <ele>1666.1</ele>
        <time>2014-06-12T08:43:19Z</time>
      </trkpt>
      <trkpt lat="42.345870" lon="2.129114">
        <ele>1666.1</ele>
        <time>2014-06-12T08:43:34Z</time>
      </trkpt>
      <trkpt lat="42.345855" lon="2.129135">
        <ele>1666.1</ele>
        <time>2014-06-12T08:43:36Z</time>
      </trkpt>
      <trkpt lat="42.345843" lon="2.129168">
        <ele>1666.1</ele>
        <time>2014-06-12T08:43:38Z</time>
      </trkpt>
      <trkpt lat="42.345762" lon="2.129300">
        <ele>1666.1</ele>
        <time>2014-06-12T08:43:48Z</time>
      </trkpt>
      <trkpt lat="42.345672" lon="2.129379">
        <ele>1665.6</ele>
        <time>2014-06-12T08:44:03Z</time>
      </trkpt>
      <trkpt lat="42.345584" lon="2.129441">
        <ele>1665.1</ele>
        <time>2014-06-12T09:01:03Z</time>
      </trkpt>
      <trkpt lat="42.345561" lon="2.129489">
        <ele>1665.1</ele>
        <time>2014-06-12T09:01:07Z</time>
      </trkpt>
      <trkpt lat="42.345521" lon="2.129588">
        <ele>1666.6</ele>
        <time>2014-06-12T09:01:17Z</time>
      </trkpt>
      <trkpt lat="42.345496" lon="2.129638">
        <ele>1666.6</ele>
        <time>2014-06-12T09:01:23Z</time>
      </trkpt>
      <trkpt lat="42.345497" lon="2.129664">
        <ele>1665.1</ele>
        <time>2014-06-12T09:01:41Z</time>
      </trkpt>
      <trkpt lat="42.345515" lon="2.129760">
        <ele>1664.2</ele>
        <time>2014-06-12T09:01:59Z</time>
      </trkpt>
      <trkpt lat="42.345527" lon="2.129872">
        <ele>1662.7</ele>
        <time>2014-06-12T09:02:11Z</time>
      </trkpt>
      <trkpt lat="42.345526" lon="2.129969">
        <ele>1660.3</ele>
        <time>2014-06-12T09:02:24Z</time>
      </trkpt>
      <trkpt lat="42.345506" lon="2.130073">
        <ele>1658.4</ele>
        <time>2014-06-12T09:02:35Z</time>
      </trkpt>
      <trkpt lat="42.345479" lon="2.130135">
        <ele>1656.0</ele>
        <time>2014-06-12T09:02:45Z</time>
      </trkpt>
      <trkpt lat="42.345442" lon="2.130192">
        <ele>1654.6</ele>
        <time>2014-06-12T09:02:51Z</time>
      </trkpt>
      <trkpt lat="42.345434" lon="2.130331">
        <ele>1652.6</ele>
        <time>2014-06-12T09:03:02Z</time>
      </trkpt>
      <trkpt lat="42.345469" lon="2.130433">
        <ele>1650.2</ele>
        <time>2014-06-12T09:03:14Z</time>
      </trkpt>
      <trkpt lat="42.345479" lon="2.130455">
        <ele>1649.8</ele>
        <time>2014-06-12T09:03:17Z</time>
      </trkpt>
      <trkpt lat="42.345473" lon="2.130570">
        <ele>1647.4</ele>
        <time>2014-06-12T09:03:31Z</time>
      </trkpt>
      <trkpt lat="42.345422" lon="2.130639">
        <ele>1644.9</ele>
        <time>2014-06-12T09:03:42Z</time>
      </trkpt>
      <trkpt lat="42.345409" lon="2.130654">
        <ele>1644.5</ele>
        <time>2014-06-12T09:03:44Z</time>
      </trkpt>
      <trkpt lat="42.345379" lon="2.130668">
        <ele>1641.6</ele>
        <time>2014-06-12T09:03:49Z</time>
      </trkpt>
      <trkpt lat="42.345372" lon="2.130711">
        <ele>1638.7</ele>
        <time>2014-06-12T09:03:54Z</time>
      </trkpt>
      <trkpt lat="42.345393" lon="2.130774">
        <ele>1638.2</ele>
        <time>2014-06-12T09:04:01Z</time>
      </trkpt>
      <trkpt lat="42.345462" lon="2.130882">
        <ele>1637.3</ele>
        <time>2014-06-12T09:04:16Z</time>
      </trkpt>
      <trkpt lat="42.345516" lon="2.130963">
        <ele>1635.3</ele>
        <time>2014-06-12T09:04:28Z</time>
      </trkpt>
      <trkpt lat="42.345569" lon="2.131058">
        <ele>1632.5</ele>
        <time>2014-06-12T09:04:39Z</time>
      </trkpt>
      <trkpt lat="42.345591" lon="2.131081">
        <ele>1632.5</ele>
        <time>2014-06-12T09:04:43Z</time>
      </trkpt>
      <trkpt lat="42.345606" lon="2.131098">
        <ele>1631.5</ele>
        <time>2014-06-12T09:04:45Z</time>
      </trkpt>
      <trkpt lat="42.345635" lon="2.131193">
        <ele>1629.6</ele>
        <time>2014-06-12T09:04:57Z</time>
      </trkpt>
      <trkpt lat="42.345660" lon="2.131237">
        <ele>1627.7</ele>
        <time>2014-06-12T09:05:16Z</time>
      </trkpt>
      <trkpt lat="42.345709" lon="2.131342">
        <ele>1626.2</ele>
        <time>2014-06-12T09:05:28Z</time>
      </trkpt>
      <trkpt lat="42.345728" lon="2.131410">
        <ele>1623.3</ele>
        <time>2014-06-12T09:05:41Z</time>
      </trkpt>
      <trkpt lat="42.345721" lon="2.131565">
        <ele>1621.4</ele>
        <time>2014-06-12T09:05:53Z</time>
      </trkpt>
      <trkpt lat="42.345727" lon="2.131632">
        <ele>1620.9</ele>
        <time>2014-06-12T09:06:00Z</time>
      </trkpt>
      <trkpt lat="42.345712" lon="2.131658">
        <ele>1620.0</ele>
        <time>2014-06-12T09:06:11Z</time>
      </trkpt>
      <trkpt lat="42.345706" lon="2.131710">
        <ele>1619.0</ele>
        <time>2014-06-12T09:06:26Z</time>
      </trkpt>
      <trkpt lat="42.345670" lon="2.131848">
        <ele>1616.1</ele>
        <time>2014-06-12T09:06:40Z</time>
      </trkpt>
      <trkpt lat="42.345653" lon="2.131937">
        <ele>1614.7</ele>
        <time>2014-06-12T09:06:54Z</time>
      </trkpt>
      <trkpt lat="42.345645" lon="2.131970">
        <ele>1614.2</ele>
        <time>2014-06-12T09:06:57Z</time>
      </trkpt>
      <trkpt lat="42.345632" lon="2.132030">
        <ele>1613.2</ele>
        <time>2014-06-12T09:07:03Z</time>
      </trkpt>
      <trkpt lat="42.345640" lon="2.132137">
        <ele>1610.8</ele>
        <time>2014-06-12T09:07:16Z</time>
      </trkpt>
      <trkpt lat="42.345652" lon="2.132273">
        <ele>1607.9</ele>
        <time>2014-06-12T09:07:28Z</time>
      </trkpt>
      <trkpt lat="42.345652" lon="2.132297">
        <ele>1607.0</ele>
        <time>2014-06-12T09:07:31Z</time>
      </trkpt>
      <trkpt lat="42.345674" lon="2.132422">
        <ele>1605.5</ele>
        <time>2014-06-12T09:07:41Z</time>
      </trkpt>
      <trkpt lat="42.345680" lon="2.132477">
        <ele>1605.1</ele>
        <time>2014-06-12T09:07:45Z</time>
      </trkpt>
      <trkpt lat="42.345686" lon="2.132664">
        <ele>1602.2</ele>
        <time>2014-06-12T09:07:59Z</time>
      </trkpt>
      <trkpt lat="42.345718" lon="2.132780">
        <ele>1601.2</ele>
        <time>2014-06-12T09:08:08Z</time>
      </trkpt>
      <trkpt lat="42.345776" lon="2.132961">
        <ele>1598.3</ele>
        <time>2014-06-12T09:08:23Z</time>
      </trkpt>
      <trkpt lat="42.345824" lon="2.133096">
        <ele>1595.4</ele>
        <time>2014-06-12T09:08:38Z</time>
      </trkpt>
      <trkpt lat="42.345845" lon="2.133136">
        <ele>1593.5</ele>
        <time>2014-06-12T09:08:52Z</time>
      </trkpt>
      <trkpt lat="42.345873" lon="2.133209">
        <ele>1592.1</ele>
        <time>2014-06-12T09:09:04Z</time>
      </trkpt>
      <trkpt lat="42.345885" lon="2.133295">
        <ele>1591.1</ele>
        <time>2014-06-12T09:09:21Z</time>
      </trkpt>
      <trkpt lat="42.345929" lon="2.133455">
        <ele>1589.2</ele>
        <time>2014-06-12T09:09:34Z</time>
      </trkpt>
      <trkpt lat="42.345933" lon="2.133498">
        <ele>1588.7</ele>
        <time>2014-06-12T09:09:36Z</time>
      </trkpt>
      <trkpt lat="42.345956" lon="2.133691">
        <ele>1586.8</ele>
        <time>2014-06-12T09:09:50Z</time>
      </trkpt>
      <trkpt lat="42.345954" lon="2.133705">
        <ele>1586.3</ele>
        <time>2014-06-12T09:09:51Z</time>
      </trkpt>
      <trkpt lat="42.345947" lon="2.133845">
        <ele>1584.4</ele>
        <time>2014-06-12T09:10:01Z</time>
      </trkpt>
      <trkpt lat="42.345944" lon="2.133963">
        <ele>1582.5</ele>
        <time>2014-06-12T09:10:10Z</time>
      </trkpt>
      <trkpt lat="42.345939" lon="2.134177">
        <ele>1579.1</ele>
        <time>2014-06-12T09:10:25Z</time>
      </trkpt>
      <trkpt lat="42.345935" lon="2.134206">
        <ele>1579.1</ele>
        <time>2014-06-12T09:10:27Z</time>
      </trkpt>
      <trkpt lat="42.345944" lon="2.134350">
        <ele>1576.2</ele>
        <time>2014-06-12T09:10:41Z</time>
      </trkpt>
      <trkpt lat="42.345940" lon="2.134421">
        <ele>1572.8</ele>
        <time>2014-06-12T09:10:52Z</time>
      </trkpt>
      <trkpt lat="42.345915" lon="2.134543">
        <ele>1570.4</ele>
        <time>2014-06-12T09:11:05Z</time>
      </trkpt>
      <trkpt lat="42.345906" lon="2.134646">
        <ele>1567.1</ele>
        <time>2014-06-12T09:11:18Z</time>
      </trkpt>
      <trkpt lat="42.345895" lon="2.134753">
        <ele>1565.2</ele>
        <time>2014-06-12T09:11:32Z</time>
      </trkpt>
      <trkpt lat="42.345897" lon="2.134926">
        <ele>1563.2</ele>
        <time>2014-06-12T09:11:44Z</time>
      </trkpt>
      <trkpt lat="42.345914" lon="2.135029">
        <ele>1562.3</ele>
        <time>2014-06-12T09:11:54Z</time>
      </trkpt>
      <trkpt lat="42.345904" lon="2.135160">
        <ele>1561.8</ele>
        <time>2014-06-12T09:12:05Z</time>
      </trkpt>
      <trkpt lat="42.345936" lon="2.135305">
        <ele>1561.8</ele>
        <time>2014-06-12T09:12:18Z</time>
      </trkpt>
      <trkpt lat="42.345954" lon="2.135434">
        <ele>1561.3</ele>
        <time>2014-06-12T09:12:32Z</time>
      </trkpt>
      <trkpt lat="42.345947" lon="2.135498">
        <ele>1561.3</ele>
        <time>2014-06-12T09:12:44Z</time>
      </trkpt>
      <trkpt lat="42.345988" lon="2.135672">
        <ele>1561.3</ele>
        <time>2014-06-12T09:12:56Z</time>
      </trkpt>
      <trkpt lat="42.346022" lon="2.135822">
        <ele>1561.3</ele>
        <time>2014-06-12T09:13:08Z</time>
      </trkpt>
      <trkpt lat="42.346024" lon="2.135836">
        <ele>1561.3</ele>
        <time>2014-06-12T09:13:09Z</time>
      </trkpt>
      <trkpt lat="42.346056" lon="2.136016">
        <ele>1561.3</ele>
        <time>2014-06-12T09:13:21Z</time>
      </trkpt>
      <trkpt lat="42.346096" lon="2.136203">
        <ele>1561.3</ele>
        <time>2014-06-12T09:13:34Z</time>
      </trkpt>
      <trkpt lat="42.346129" lon="2.136373">
        <ele>1560.8</ele>
        <time>2014-06-12T09:13:44Z</time>
      </trkpt>
      <trkpt lat="42.346147" lon="2.136417">
        <ele>1560.8</ele>
        <time>2014-06-12T09:13:48Z</time>
      </trkpt>
      <trkpt lat="42.346175" lon="2.136627">
        <ele>1557.9</ele>
        <time>2014-06-12T09:14:04Z</time>
      </trkpt>
      <trkpt lat="42.346212" lon="2.136773">
        <ele>1556.5</ele>
        <time>2014-06-12T09:14:17Z</time>
      </trkpt>
      <trkpt lat="42.346214" lon="2.136866">
        <ele>1553.2</ele>
        <time>2014-06-12T09:14:28Z</time>
      </trkpt>
      <trkpt lat="42.346212" lon="2.136937">
        <ele>1550.7</ele>
        <time>2014-06-12T09:14:40Z</time>
      </trkpt>
      <trkpt lat="42.346134" lon="2.137055">
        <ele>1549.8</ele>
        <time>2014-06-12T09:14:52Z</time>
      </trkpt>
      <trkpt lat="42.346108" lon="2.137151">
        <ele>1549.3</ele>
        <time>2014-06-12T09:15:06Z</time>
      </trkpt>
      <trkpt lat="42.346108" lon="2.137151">
        <ele>1549.3</ele>
        <time>2014-06-12T09:15:12Z</time>
      </trkpt>
      <trkpt lat="42.346077" lon="2.137257">
        <ele>1549.3</ele>
        <time>2014-06-12T09:15:25Z</time>
      </trkpt>
      <trkpt lat="42.346058" lon="2.137374">
        <ele>1549.3</ele>
        <time>2014-06-12T09:15:36Z</time>
      </trkpt>
      <trkpt lat="42.346018" lon="2.137452">
        <ele>1549.3</ele>
        <time>2014-06-12T09:15:47Z</time>
      </trkpt>
      <trkpt lat="42.345966" lon="2.137624">
        <ele>1549.3</ele>
        <time>2014-06-12T09:16:00Z</time>
      </trkpt>
      <trkpt lat="42.345921" lon="2.137903">
        <ele>1548.8</ele>
        <time>2014-06-12T09:16:14Z</time>
      </trkpt>
      <trkpt lat="42.345875" lon="2.138145">
        <ele>1549.8</ele>
        <time>2014-06-12T09:16:26Z</time>
      </trkpt>
      <trkpt lat="42.345829" lon="2.138353">
        <ele>1549.8</ele>
        <time>2014-06-12T09:16:38Z</time>
      </trkpt>
      <trkpt lat="42.345802" lon="2.138506">
        <ele>1550.7</ele>
        <time>2014-06-12T09:16:49Z</time>
      </trkpt>
      <trkpt lat="42.345769" lon="2.138649">
        <ele>1551.7</ele>
        <time>2014-06-12T09:17:00Z</time>
      </trkpt>
      <trkpt lat="42.345695" lon="2.138848">
        <ele>1552.7</ele>
        <time>2014-06-12T09:17:15Z</time>
      </trkpt>
      <trkpt lat="42.345612" lon="2.139026">
        <ele>1553.2</ele>
        <time>2014-06-12T09:17:28Z</time>
      </trkpt>
      <trkpt lat="42.345573" lon="2.139156">
        <ele>1553.6</ele>
        <time>2014-06-12T09:17:39Z</time>
      </trkpt>
      <trkpt lat="42.345564" lon="2.139223">
        <ele>1553.6</ele>
        <time>2014-06-12T09:17:45Z</time>
      </trkpt>
      <trkpt lat="42.345558" lon="2.139312">
        <ele>1553.6</ele>
        <time>2014-06-12T09:17:56Z</time>
      </trkpt>
      <trkpt lat="42.345562" lon="2.139318">
        <ele>1553.6</ele>
        <time>2014-06-12T09:18:05Z</time>
      </trkpt>
      <trkpt lat="42.345587" lon="2.139401">
        <ele>1553.2</ele>
        <time>2014-06-12T09:18:19Z</time>
      </trkpt>
      <trkpt lat="42.345587" lon="2.139401">
        <ele>1552.2</ele>
        <time>2014-06-12T09:18:24Z</time>
      </trkpt>
      <trkpt lat="42.345603" lon="2.139416">
        <ele>1552.2</ele>
        <time>2014-06-12T09:18:40Z</time>
      </trkpt>
      <trkpt lat="42.345603" lon="2.139416">
        <ele>1551.2</ele>
        <time>2014-06-12T09:19:03Z</time>
      </trkpt>
      <trkpt lat="42.345603" lon="2.139416">
        <ele>1551.2</ele>
        <time>2014-06-12T09:19:04Z</time>
      </trkpt>
      <trkpt lat="42.345706" lon="2.139536">
        <ele>1550.3</ele>
        <time>2014-06-12T09:19:16Z</time>
      </trkpt>
      <trkpt lat="42.345802" lon="2.139639">
        <ele>1548.8</ele>
        <time>2014-06-12T09:19:30Z</time>
      </trkpt>
      <trkpt lat="42.345849" lon="2.139745">
        <ele>1547.9</ele>
        <time>2014-06-12T09:19:40Z</time>
      </trkpt>
      <trkpt lat="42.345881" lon="2.139789">
        <ele>1545.0</ele>
        <time>2014-06-12T09:21:50Z</time>
      </trkpt>
      <trkpt lat="42.345909" lon="2.139938">
        <ele>1542.6</ele>
        <time>2014-06-12T09:22:03Z</time>
      </trkpt>
      <trkpt lat="42.345955" lon="2.140023">
        <ele>1539.2</ele>
        <time>2014-06-12T09:22:11Z</time>
      </trkpt>
      <trkpt lat="42.345979" lon="2.140068">
        <ele>1535.8</ele>
        <time>2014-06-12T09:22:15Z</time>
      </trkpt>
      <trkpt lat="42.346011" lon="2.140168">
        <ele>1535.4</ele>
        <time>2014-06-12T09:22:24Z</time>
      </trkpt>
      <trkpt lat="42.346080" lon="2.140417">
        <ele>1534.4</ele>
        <time>2014-06-12T09:22:39Z</time>
      </trkpt>
      <trkpt lat="42.346054" lon="2.140450">
        <ele>1532.5</ele>
        <time>2014-06-12T09:22:49Z</time>
      </trkpt>
      <trkpt lat="42.346042" lon="2.140466">
        <ele>1531.0</ele>
        <time>2014-06-12T09:23:03Z</time>
      </trkpt>
      <trkpt lat="42.346046" lon="2.140466">
        <ele>1530.6</ele>
        <time>2014-06-12T09:23:19Z</time>
      </trkpt>
      <trkpt lat="42.346079" lon="2.140518">
        <ele>1530.6</ele>
        <time>2014-06-12T09:23:25Z</time>
      </trkpt>
      <trkpt lat="42.346089" lon="2.140549">
        <ele>1530.1</ele>
        <time>2014-06-12T09:23:27Z</time>
      </trkpt>
      <trkpt lat="42.346090" lon="2.140582">
        <ele>1530.1</ele>
        <time>2014-06-12T09:23:29Z</time>
      </trkpt>
      <trkpt lat="42.346109" lon="2.140719">
        <ele>1529.6</ele>
        <time>2014-06-12T09:23:41Z</time>
      </trkpt>
      <trkpt lat="42.346134" lon="2.140807">
        <ele>1525.8</ele>
        <time>2014-06-12T09:25:07Z</time>
      </trkpt>
      <trkpt lat="42.346120" lon="2.140878">
        <ele>1525.8</ele>
        <time>2014-06-12T09:25:12Z</time>
      </trkpt>
      <trkpt lat="42.346132" lon="2.140958">
        <ele>1525.8</ele>
        <time>2014-06-12T09:25:17Z</time>
      </trkpt>
      <trkpt lat="42.346131" lon="2.141110">
        <ele>1522.9</ele>
        <time>2014-06-12T09:25:28Z</time>
      </trkpt>
      <trkpt lat="42.346188" lon="2.141237">
        <ele>1520.9</ele>
        <time>2014-06-12T09:25:39Z</time>
      </trkpt>
      <trkpt lat="42.346324" lon="2.141361">
        <ele>1518.5</ele>
        <time>2014-06-12T09:25:51Z</time>
      </trkpt>
      <trkpt lat="42.346470" lon="2.141519">
        <ele>1516.1</ele>
        <time>2014-06-12T09:26:04Z</time>
      </trkpt>
      <trkpt lat="42.346581" lon="2.141638">
        <ele>1514.7</ele>
        <time>2014-06-12T09:26:17Z</time>
      </trkpt>
      <trkpt lat="42.346589" lon="2.141650">
        <ele>1513.7</ele>
        <time>2014-06-12T09:26:18Z</time>
      </trkpt>
      <trkpt lat="42.346677" lon="2.141768">
        <ele>1512.3</ele>
        <time>2014-06-12T09:26:28Z</time>
      </trkpt>
      <trkpt lat="42.346782" lon="2.141931">
        <ele>1509.4</ele>
        <time>2014-06-12T09:26:42Z</time>
      </trkpt>
      <trkpt lat="42.346820" lon="2.142001">
        <ele>1508.0</ele>
        <time>2014-06-12T09:26:47Z</time>
      </trkpt>
      <trkpt lat="42.346846" lon="2.142129">
        <ele>1506.5</ele>
        <time>2014-06-12T09:26:55Z</time>
      </trkpt>
      <trkpt lat="42.346923" lon="2.142210">
        <ele>1502.7</ele>
        <time>2014-06-12T09:27:02Z</time>
      </trkpt>
      <trkpt lat="42.346957" lon="2.142228">
        <ele>1499.3</ele>
        <time>2014-06-12T09:27:06Z</time>
      </trkpt>
      <trkpt lat="42.346979" lon="2.142262">
        <ele>1498.8</ele>
        <time>2014-06-12T09:27:12Z</time>
      </trkpt>
      <trkpt lat="42.347069" lon="2.142413">
        <ele>1498.8</ele>
        <time>2014-06-12T09:27:26Z</time>
      </trkpt>
      <trkpt lat="42.347123" lon="2.142534">
        <ele>1495.9</ele>
        <time>2014-06-12T09:27:37Z</time>
      </trkpt>
      <trkpt lat="42.347209" lon="2.142664">
        <ele>1493.6</ele>
        <time>2014-06-12T09:27:50Z</time>
      </trkpt>
      <trkpt lat="42.347231" lon="2.142680">
        <ele>1491.6</ele>
        <time>2014-06-12T09:27:53Z</time>
      </trkpt>
      <trkpt lat="42.347292" lon="2.142698">
        <ele>1487.8</ele>
        <time>2014-06-12T09:27:58Z</time>
      </trkpt>
      <trkpt lat="42.347381" lon="2.142775">
        <ele>1486.8</ele>
        <time>2014-06-12T09:28:08Z</time>
      </trkpt>
      <trkpt lat="42.347397" lon="2.142825">
        <ele>1486.8</ele>
        <time>2014-06-12T09:28:12Z</time>
      </trkpt>
      <trkpt lat="42.347405" lon="2.142922">
        <ele>1485.4</ele>
        <time>2014-06-12T09:28:25Z</time>
      </trkpt>
      <trkpt lat="42.347435" lon="2.142983">
        <ele>1484.4</ele>
        <time>2014-06-12T09:28:37Z</time>
      </trkpt>
      <trkpt lat="42.347469" lon="2.143038">
        <ele>1483.9</ele>
        <time>2014-06-12T09:28:41Z</time>
      </trkpt>
      <trkpt lat="42.347570" lon="2.143235">
        <ele>1480.6</ele>
        <time>2014-06-12T09:28:57Z</time>
      </trkpt>
      <trkpt lat="42.347613" lon="2.143303">
        <ele>1476.7</ele>
        <time>2014-06-12T09:29:04Z</time>
      </trkpt>
      <trkpt lat="42.347633" lon="2.143351">
        <ele>1474.3</ele>
        <time>2014-06-12T09:29:08Z</time>
      </trkpt>
      <trkpt lat="42.347665" lon="2.143357">
        <ele>1473.8</ele>
        <time>2014-06-12T09:29:12Z</time>
      </trkpt>
      <trkpt lat="42.347707" lon="2.143388">
        <ele>1473.8</ele>
        <time>2014-06-12T09:29:18Z</time>
      </trkpt>
      <trkpt lat="42.347754" lon="2.143450">
        <ele>1473.4</ele>
        <time>2014-06-12T09:29:27Z</time>
      </trkpt>
      <trkpt lat="42.347793" lon="2.143524">
        <ele>1470.5</ele>
        <time>2014-06-12T09:29:41Z</time>
      </trkpt>
      <trkpt lat="42.347798" lon="2.143528">
        <ele>1469.0</ele>
        <time>2014-06-12T09:29:59Z</time>
      </trkpt>
      <trkpt lat="42.347813" lon="2.143617">
        <ele>1468.1</ele>
        <time>2014-06-12T09:30:12Z</time>
      </trkpt>
      <trkpt lat="42.347798" lon="2.143633">
        <ele>1465.7</ele>
        <time>2014-06-12T09:30:23Z</time>
      </trkpt>
      <trkpt lat="42.347796" lon="2.143658">
        <ele>1464.7</ele>
        <time>2014-06-12T09:30:42Z</time>
      </trkpt>
      <trkpt lat="42.347770" lon="2.143762">
        <ele>1462.3</ele>
        <time>2014-06-12T09:30:56Z</time>
      </trkpt>
      <trkpt lat="42.347728" lon="2.143861">
        <ele>1459.4</ele>
        <time>2014-06-12T09:31:09Z</time>
      </trkpt>
      <trkpt lat="42.347720" lon="2.143913">
        <ele>1455.6</ele>
        <time>2014-06-12T09:31:16Z</time>
      </trkpt>
      <trkpt lat="42.347724" lon="2.143968">
        <ele>1452.7</ele>
        <time>2014-06-12T09:31:22Z</time>
      </trkpt>
      <trkpt lat="42.347761" lon="2.144010">
        <ele>1452.2</ele>
        <time>2014-06-12T09:31:35Z</time>
      </trkpt>
      <trkpt lat="42.347833" lon="2.144083">
        <ele>1449.8</ele>
        <time>2014-06-12T09:31:49Z</time>
      </trkpt>
      <trkpt lat="42.347836" lon="2.144146">
        <ele>1447.9</ele>
        <time>2014-06-12T09:32:02Z</time>
      </trkpt>
      <trkpt lat="42.347836" lon="2.144153">
        <ele>1446.9</ele>
        <time>2014-06-12T09:32:04Z</time>
      </trkpt>
      <trkpt lat="42.347866" lon="2.144168">
        <ele>1445.5</ele>
        <time>2014-06-12T09:32:16Z</time>
      </trkpt>
      <trkpt lat="42.347917" lon="2.144171">
        <ele>1444.5</ele>
        <time>2014-06-12T09:32:35Z</time>
      </trkpt>
      <trkpt lat="42.348010" lon="2.144140">
        <ele>1444.0</ele>
        <time>2014-06-12T09:32:44Z</time>
      </trkpt>
      <trkpt lat="42.348053" lon="2.144103">
        <ele>1444.0</ele>
        <time>2014-06-12T09:32:48Z</time>
      </trkpt>
      <trkpt lat="42.348118" lon="2.144017">
        <ele>1443.6</ele>
        <time>2014-06-12T09:32:56Z</time>
      </trkpt>
      <trkpt lat="42.348170" lon="2.144021">
        <ele>1442.6</ele>
        <time>2014-06-12T09:33:01Z</time>
      </trkpt>
      <trkpt lat="42.348169" lon="2.144107">
        <ele>1442.1</ele>
        <time>2014-06-12T09:33:07Z</time>
      </trkpt>
      <trkpt lat="42.348130" lon="2.144148">
        <ele>1441.2</ele>
        <time>2014-06-12T09:33:13Z</time>
      </trkpt>
      <trkpt lat="42.348042" lon="2.144228">
        <ele>1440.2</ele>
        <time>2014-06-12T09:33:25Z</time>
      </trkpt>
      <trkpt lat="42.347875" lon="2.144279">
        <ele>1437.8</ele>
        <time>2014-06-12T09:33:40Z</time>
      </trkpt>
      <trkpt lat="42.347855" lon="2.144295">
        <ele>1437.8</ele>
        <time>2014-06-12T09:33:43Z</time>
      </trkpt>
      <trkpt lat="42.347741" lon="2.144348">
        <ele>1435.9</ele>
        <time>2014-06-12T09:33:54Z</time>
      </trkpt>
      <trkpt lat="42.347713" lon="2.144457">
        <ele>1433.5</ele>
        <time>2014-06-12T09:34:08Z</time>
      </trkpt>
      <trkpt lat="42.347750" lon="2.144498">
        <ele>1432.5</ele>
        <time>2014-06-12T09:34:36Z</time>
      </trkpt>
      <trkpt lat="42.347792" lon="2.144539">
        <ele>1432.0</ele>
        <time>2014-06-12T09:34:40Z</time>
      </trkpt>
      <trkpt lat="42.347890" lon="2.144598">
        <ele>1429.1</ele>
        <time>2014-06-12T09:34:53Z</time>
      </trkpt>
      <trkpt lat="42.347981" lon="2.144600">
        <ele>1426.7</ele>
        <time>2014-06-12T09:35:05Z</time>
      </trkpt>
      <trkpt lat="42.348101" lon="2.144647">
        <ele>1423.8</ele>
        <time>2014-06-12T09:35:18Z</time>
      </trkpt>
      <trkpt lat="42.348159" lon="2.144673">
        <ele>1421.4</ele>
        <time>2014-06-12T09:35:24Z</time>
      </trkpt>
      <trkpt lat="42.348212" lon="2.144702">
        <ele>1417.1</ele>
        <time>2014-06-12T09:35:29Z</time>
      </trkpt>
      <trkpt lat="42.348231" lon="2.144721">
        <ele>1416.6</ele>
        <time>2014-06-12T09:35:31Z</time>
      </trkpt>
      <trkpt lat="42.348317" lon="2.144812">
        <ele>1416.2</ele>
        <time>2014-06-12T09:35:43Z</time>
      </trkpt>
      <trkpt lat="42.348332" lon="2.144839">
        <ele>1416.2</ele>
        <time>2014-06-12T09:35:46Z</time>
      </trkpt>
      <trkpt lat="42.348408" lon="2.144961">
        <ele>1413.8</ele>
        <time>2014-06-12T09:35:59Z</time>
      </trkpt>
      <trkpt lat="42.348444" lon="2.144995">
        <ele>1413.3</ele>
        <time>2014-06-12T09:36:03Z</time>
      </trkpt>
      <trkpt lat="42.348537" lon="2.145073">
        <ele>1410.9</ele>
        <time>2014-06-12T09:36:14Z</time>
      </trkpt>
      <trkpt lat="42.348563" lon="2.145111">
        <ele>1410.4</ele>
        <time>2014-06-12T09:36:17Z</time>
      </trkpt>
      <trkpt lat="42.348585" lon="2.145166">
        <ele>1409.4</ele>
        <time>2014-06-12T09:36:21Z</time>
      </trkpt>
      <trkpt lat="42.348719" lon="2.145275">
        <ele>1406.6</ele>
        <time>2014-06-12T09:36:35Z</time>
      </trkpt>
      <trkpt lat="42.348792" lon="2.145342">
        <ele>1405.1</ele>
        <time>2014-06-12T09:36:43Z</time>
      </trkpt>
      <trkpt lat="42.348906" lon="2.145449">
        <ele>1401.7</ele>
        <time>2014-06-12T09:36:56Z</time>
      </trkpt>
      <trkpt lat="42.349002" lon="2.145549">
        <ele>1399.3</ele>
        <time>2014-06-12T09:37:10Z</time>
      </trkpt>
      <trkpt lat="42.349070" lon="2.145619">
        <ele>1396.9</ele>
        <time>2014-06-12T09:37:20Z</time>
      </trkpt>
      <trkpt lat="42.349133" lon="2.145700">
        <ele>1395.5</ele>
        <time>2014-06-12T09:37:29Z</time>
      </trkpt>
      <trkpt lat="42.349232" lon="2.145801">
        <ele>1392.6</ele>
        <time>2014-06-12T09:37:43Z</time>
      </trkpt>
      <trkpt lat="42.349323" lon="2.145842">
        <ele>1390.7</ele>
        <time>2014-06-12T09:37:54Z</time>
      </trkpt>
      <trkpt lat="42.349436" lon="2.145837">
        <ele>1387.8</ele>
        <time>2014-06-12T09:38:07Z</time>
      </trkpt>
      <trkpt lat="42.349451" lon="2.145834">
        <ele>1386.4</ele>
        <time>2014-06-12T09:38:20Z</time>
      </trkpt>
      <trkpt lat="42.349628" lon="2.145727">
        <ele>1379.6</ele>
        <time>2014-06-12T09:40:52Z</time>
      </trkpt>
      <trkpt lat="42.349742" lon="2.145611">
        <ele>1378.2</ele>
        <time>2014-06-12T09:41:05Z</time>
      </trkpt>
      <trkpt lat="42.349793" lon="2.145575">
        <ele>1376.8</ele>
        <time>2014-06-12T09:41:18Z</time>
      </trkpt>
      <trkpt lat="42.349792" lon="2.145575">
        <ele>1376.3</ele>
        <time>2014-06-12T09:41:43Z</time>
      </trkpt>
      <trkpt lat="42.349821" lon="2.145551">
        <ele>1376.3</ele>
        <time>2014-06-12T09:42:10Z</time>
      </trkpt>
      <trkpt lat="42.349880" lon="2.145604">
        <ele>1375.8</ele>
        <time>2014-06-12T09:42:25Z</time>
      </trkpt>
      <trkpt lat="42.349997" lon="2.145573">
        <ele>1375.8</ele>
        <time>2014-06-12T09:42:33Z</time>
      </trkpt>
      <trkpt lat="42.350179" lon="2.145609">
        <ele>1375.8</ele>
        <time>2014-06-12T09:42:45Z</time>
      </trkpt>
      <trkpt lat="42.350125" lon="2.145755">
        <ele>1375.3</ele>
        <time>2014-06-12T09:42:57Z</time>
      </trkpt>
      <trkpt lat="42.350113" lon="2.145802">
        <ele>1375.3</ele>
        <time>2014-06-12T09:43:00Z</time>
      </trkpt>
      <trkpt lat="42.350052" lon="2.145986">
        <ele>1374.8</ele>
        <time>2014-06-12T09:43:14Z</time>
      </trkpt>
      <trkpt lat="42.350039" lon="2.146013">
        <ele>1374.8</ele>
        <time>2014-06-12T09:43:16Z</time>
      </trkpt>
      <trkpt lat="42.349999" lon="2.146171">
        <ele>1374.3</ele>
        <time>2014-06-12T09:43:25Z</time>
      </trkpt>
      <trkpt lat="42.349929" lon="2.146359">
        <ele>1374.3</ele>
        <time>2014-06-12T09:43:39Z</time>
      </trkpt>
      <trkpt lat="42.349869" lon="2.146526">
        <ele>1374.3</ele>
        <time>2014-06-12T09:43:52Z</time>
      </trkpt>
      <trkpt lat="42.349789" lon="2.146673">
        <ele>1374.3</ele>
        <time>2014-06-12T09:44:03Z</time>
      </trkpt>
      <trkpt lat="42.349746" lon="2.146759">
        <ele>1373.9</ele>
        <time>2014-06-12T09:44:10Z</time>
      </trkpt>
      <trkpt lat="42.349706" lon="2.146833">
        <ele>1373.9</ele>
        <time>2014-06-12T09:44:15Z</time>
      </trkpt>
      <trkpt lat="42.349633" lon="2.146969">
        <ele>1373.4</ele>
        <time>2014-06-12T09:44:23Z</time>
      </trkpt>
      <trkpt lat="42.349562" lon="2.147217">
        <ele>1372.9</ele>
        <time>2014-06-12T09:44:37Z</time>
      </trkpt>
      <trkpt lat="42.349516" lon="2.147423">
        <ele>1372.4</ele>
        <time>2014-06-12T09:44:50Z</time>
      </trkpt>
      <trkpt lat="42.349488" lon="2.147519">
        <ele>1372.4</ele>
        <time>2014-06-12T09:44:57Z</time>
      </trkpt>
      <trkpt lat="42.349480" lon="2.147702">
        <ele>1372.4</ele>
        <time>2014-06-12T09:45:09Z</time>
      </trkpt>
      <trkpt lat="42.349492" lon="2.147765">
        <ele>1371.9</ele>
        <time>2014-06-12T09:45:13Z</time>
      </trkpt>
      <trkpt lat="42.349447" lon="2.147897">
        <ele>1371.9</ele>
        <time>2014-06-12T09:45:23Z</time>
      </trkpt>
      <trkpt lat="42.349272" lon="2.148022">
        <ele>1371.0</ele>
        <time>2014-06-12T09:45:38Z</time>
      </trkpt>
      <trkpt lat="42.349165" lon="2.148110">
        <ele>1370.5</ele>
        <time>2014-06-12T09:45:50Z</time>
      </trkpt>
      <trkpt lat="42.349068" lon="2.148247">
        <ele>1370.5</ele>
        <time>2014-06-12T09:46:02Z</time>
      </trkpt>
      <trkpt lat="42.348980" lon="2.148424">
        <ele>1370.0</ele>
        <time>2014-06-12T09:46:16Z</time>
      </trkpt>
      <trkpt lat="42.348866" lon="2.148599">
        <ele>1369.1</ele>
        <time>2014-06-12T09:46:30Z</time>
      </trkpt>
      <trkpt lat="42.348736" lon="2.148773">
        <ele>1369.1</ele>
        <time>2014-06-12T09:46:46Z</time>
      </trkpt>
      <trkpt lat="42.348634" lon="2.148946">
        <ele>1368.6</ele>
        <time>2014-06-12T09:47:00Z</time>
      </trkpt>
      <trkpt lat="42.348551" lon="2.149107">
        <ele>1368.1</ele>
        <time>2014-06-12T09:47:13Z</time>
      </trkpt>
      <trkpt lat="42.348455" lon="2.149255">
        <ele>1366.7</ele>
        <time>2014-06-12T09:47:26Z</time>
      </trkpt>
      <trkpt lat="42.348444" lon="2.149277">
        <ele>1366.7</ele>
        <time>2014-06-12T09:47:28Z</time>
      </trkpt>
      <trkpt lat="42.348337" lon="2.149463">
        <ele>1365.7</ele>
        <time>2014-06-12T09:47:42Z</time>
      </trkpt>
      <trkpt lat="42.348232" lon="2.149660">
        <ele>1363.8</ele>
        <time>2014-06-12T09:47:57Z</time>
      </trkpt>
      <trkpt lat="42.348149" lon="2.149825">
        <ele>1362.3</ele>
        <time>2014-06-12T09:48:10Z</time>
      </trkpt>
      <trkpt lat="42.348127" lon="2.149874">
        <ele>1361.8</ele>
        <time>2014-06-12T09:48:15Z</time>
      </trkpt>
      <trkpt lat="42.348061" lon="2.149996">
        <ele>1359.9</ele>
        <time>2014-06-12T09:48:27Z</time>
      </trkpt>
      <trkpt lat="42.348016" lon="2.150168">
        <ele>1358.5</ele>
        <time>2014-06-12T09:48:39Z</time>
      </trkpt>
      <trkpt lat="42.347984" lon="2.150254">
        <ele>1358.0</ele>
        <time>2014-06-12T09:48:44Z</time>
      </trkpt>
      <trkpt lat="42.347969" lon="2.150316">
        <ele>1357.5</ele>
        <time>2014-06-12T09:48:49Z</time>
      </trkpt>
      <trkpt lat="42.347948" lon="2.150393">
        <ele>1356.6</ele>
        <time>2014-06-12T09:48:54Z</time>
      </trkpt>
      <trkpt lat="42.347948" lon="2.150594">
        <ele>1355.6</ele>
        <time>2014-06-12T09:49:08Z</time>
      </trkpt>
      <trkpt lat="42.347948" lon="2.150605">
        <ele>1355.1</ele>
        <time>2014-06-12T09:49:09Z</time>
      </trkpt>
      <trkpt lat="42.347931" lon="2.150795">
        <ele>1354.2</ele>
        <time>2014-06-12T09:49:21Z</time>
      </trkpt>
      <trkpt lat="42.347872" lon="2.150995">
        <ele>1352.7</ele>
        <time>2014-06-12T09:49:34Z</time>
      </trkpt>
      <trkpt lat="42.347853" lon="2.151064">
        <ele>1352.2</ele>
        <time>2014-06-12T09:49:38Z</time>
      </trkpt>
      <trkpt lat="42.347794" lon="2.151281">
        <ele>1350.8</ele>
        <time>2014-06-12T09:49:54Z</time>
      </trkpt>
      <trkpt lat="42.347689" lon="2.151496">
        <ele>1349.3</ele>
        <time>2014-06-12T09:50:10Z</time>
      </trkpt>
      <trkpt lat="42.347649" lon="2.151540">
        <ele>1348.9</ele>
        <time>2014-06-12T09:50:16Z</time>
      </trkpt>
      <trkpt lat="42.347627" lon="2.151586">
        <ele>1348.4</ele>
        <time>2014-06-12T09:50:20Z</time>
      </trkpt>
      <trkpt lat="42.347589" lon="2.151691">
        <ele>1348.4</ele>
        <time>2014-06-12T09:50:28Z</time>
      </trkpt>
      <trkpt lat="42.347555" lon="2.151898">
        <ele>1346.9</ele>
        <time>2014-06-12T09:50:42Z</time>
      </trkpt>
      <trkpt lat="42.347533" lon="2.152087">
        <ele>1346.5</ele>
        <time>2014-06-12T09:50:55Z</time>
      </trkpt>
      <trkpt lat="42.347527" lon="2.152288">
        <ele>1346.0</ele>
        <time>2014-06-12T09:51:09Z</time>
      </trkpt>
      <trkpt lat="42.347512" lon="2.152430">
        <ele>1345.5</ele>
        <time>2014-06-12T09:51:18Z</time>
      </trkpt>
      <trkpt lat="42.347515" lon="2.152513">
        <ele>1345.0</ele>
        <time>2014-06-12T09:51:25Z</time>
      </trkpt>
      <trkpt lat="42.347516" lon="2.152757">
        <ele>1343.1</ele>
        <time>2014-06-12T09:51:40Z</time>
      </trkpt>
      <trkpt lat="42.347520" lon="2.152933">
        <ele>1341.2</ele>
        <time>2014-06-12T09:51:52Z</time>
      </trkpt>
      <trkpt lat="42.347532" lon="2.153114">
        <ele>1339.7</ele>
        <time>2014-06-12T09:52:05Z</time>
      </trkpt>
      <trkpt lat="42.347544" lon="2.153195">
        <ele>1337.3</ele>
        <time>2014-06-12T09:52:19Z</time>
      </trkpt>
      <trkpt lat="42.347539" lon="2.153249">
        <ele>1336.8</ele>
        <time>2014-06-12T09:52:40Z</time>
      </trkpt>
      <trkpt lat="42.347487" lon="2.153326">
        <ele>1335.9</ele>
        <time>2014-06-12T09:53:44Z</time>
      </trkpt>
      <trkpt lat="42.347494" lon="2.153590">
        <ele>1334.0</ele>
        <time>2014-06-12T09:54:00Z</time>
      </trkpt>
      <trkpt lat="42.347505" lon="2.153830">
        <ele>1332.0</ele>
        <time>2014-06-12T09:54:15Z</time>
      </trkpt>
      <trkpt lat="42.347512" lon="2.153985">
        <ele>1331.1</ele>
        <time>2014-06-12T09:54:29Z</time>
      </trkpt>
      <trkpt lat="42.347507" lon="2.154014">
        <ele>1330.1</ele>
        <time>2014-06-12T09:54:31Z</time>
      </trkpt>
      <trkpt lat="42.347517" lon="2.154261">
        <ele>1329.2</ele>
        <time>2014-06-12T09:54:46Z</time>
      </trkpt>
      <trkpt lat="42.347493" lon="2.154514">
        <ele>1327.7</ele>
        <time>2014-06-12T09:55:02Z</time>
      </trkpt>
      <trkpt lat="42.347491" lon="2.154717">
        <ele>1326.3</ele>
        <time>2014-06-12T09:55:16Z</time>
      </trkpt>
      <trkpt lat="42.347505" lon="2.154905">
        <ele>1325.3</ele>
        <time>2014-06-12T09:55:30Z</time>
      </trkpt>
      <trkpt lat="42.347504" lon="2.154935">
        <ele>1324.8</ele>
        <time>2014-06-12T09:55:44Z</time>
      </trkpt>
      <trkpt lat="42.347506" lon="2.154942">
        <ele>1324.8</ele>
        <time>2014-06-12T09:56:09Z</time>
      </trkpt>
      <trkpt lat="42.347506" lon="2.154999">
        <ele>1324.8</ele>
        <time>2014-06-12T09:56:31Z</time>
      </trkpt>
      <trkpt lat="42.347524" lon="2.155185">
        <ele>1324.3</ele>
        <time>2014-06-12T09:56:44Z</time>
      </trkpt>
      <trkpt lat="42.347522" lon="2.155400">
        <ele>1323.4</ele>
        <time>2014-06-12T09:56:59Z</time>
      </trkpt>
      <trkpt lat="42.347479" lon="2.155626">
        <ele>1321.5</ele>
        <time>2014-06-12T09:57:14Z</time>
      </trkpt>
      <trkpt lat="42.347459" lon="2.155756">
        <ele>1320.5</ele>
        <time>2014-06-12T09:57:23Z</time>
      </trkpt>
      <trkpt lat="42.347423" lon="2.155954">
        <ele>1318.6</ele>
        <time>2014-06-12T09:57:36Z</time>
      </trkpt>
      <trkpt lat="42.347381" lon="2.156135">
        <ele>1317.6</ele>
        <time>2014-06-12T09:57:49Z</time>
      </trkpt>
      <trkpt lat="42.347322" lon="2.156355">
        <ele>1315.7</ele>
        <time>2014-06-12T09:58:04Z</time>
      </trkpt>
      <trkpt lat="42.347281" lon="2.156504">
        <ele>1314.7</ele>
        <time>2014-06-12T09:58:16Z</time>
      </trkpt>
      <trkpt lat="42.347287" lon="2.156720">
        <ele>1312.8</ele>
        <time>2014-06-12T09:58:29Z</time>
      </trkpt>
      <trkpt lat="42.347237" lon="2.156825">
        <ele>1311.9</ele>
        <time>2014-06-12T09:58:38Z</time>
      </trkpt>
      <trkpt lat="42.347164" lon="2.156625">
        <ele>1309.9</ele>
        <time>2014-06-12T09:58:55Z</time>
      </trkpt>
      <trkpt lat="42.347142" lon="2.156564">
        <ele>1308.5</ele>
        <time>2014-06-12T09:59:07Z</time>
      </trkpt>
      <trkpt lat="42.347147" lon="2.156652">
        <ele>1308.0</ele>
        <time>2014-06-12T09:59:24Z</time>
      </trkpt>
      <trkpt lat="42.347114" lon="2.156801">
        <ele>1305.1</ele>
        <time>2014-06-12T09:59:39Z</time>
      </trkpt>
      <trkpt lat="42.347098" lon="2.156934">
        <ele>1303.2</ele>
        <time>2014-06-12T09:59:53Z</time>
      </trkpt>
      <trkpt lat="42.347084" lon="2.157063">
        <ele>1300.8</ele>
        <time>2014-06-12T10:00:06Z</time>
      </trkpt>
      <trkpt lat="42.347072" lon="2.157194">
        <ele>1298.9</ele>
        <time>2014-06-12T10:00:18Z</time>
      </trkpt>
      <trkpt lat="42.347075" lon="2.157250">
        <ele>1297.9</ele>
        <time>2014-06-12T10:00:23Z</time>
      </trkpt>
      <trkpt lat="42.347081" lon="2.157366">
        <ele>1295.5</ele>
        <time>2014-06-12T10:00:36Z</time>
      </trkpt>
      <trkpt lat="42.347089" lon="2.157489">
        <ele>1293.1</ele>
        <time>2014-06-12T10:00:49Z</time>
      </trkpt>
      <trkpt lat="42.347135" lon="2.157617">
        <ele>1290.7</ele>
        <time>2014-06-12T10:01:03Z</time>
      </trkpt>
      <trkpt lat="42.347179" lon="2.157713">
        <ele>1289.3</ele>
        <time>2014-06-12T10:01:17Z</time>
      </trkpt>
      <trkpt lat="42.347197" lon="2.157838">
        <ele>1287.3</ele>
        <time>2014-06-12T10:01:29Z</time>
      </trkpt>
      <trkpt lat="42.347200" lon="2.157996">
        <ele>1284.5</ele>
        <time>2014-06-12T10:01:45Z</time>
      </trkpt>
      <trkpt lat="42.347202" lon="2.158110">
        <ele>1282.1</ele>
        <time>2014-06-12T10:01:56Z</time>
      </trkpt>
      <trkpt lat="42.347205" lon="2.158221">
        <ele>1278.7</ele>
        <time>2014-06-12T10:02:08Z</time>
      </trkpt>
      <trkpt lat="42.347200" lon="2.158266">
        <ele>1277.2</ele>
        <time>2014-06-12T10:02:23Z</time>
      </trkpt>
      <trkpt lat="42.347196" lon="2.158302">
        <ele>1276.3</ele>
        <time>2014-06-12T10:02:39Z</time>
      </trkpt>
      <trkpt lat="42.347196" lon="2.158316">
        <ele>1276.3</ele>
        <time>2014-06-12T10:02:45Z</time>
      </trkpt>
      <trkpt lat="42.347176" lon="2.158444">
        <ele>1274.4</ele>
        <time>2014-06-12T10:02:59Z</time>
      </trkpt>
      <trkpt lat="42.347188" lon="2.158521">
        <ele>1273.4</ele>
        <time>2014-06-12T10:03:05Z</time>
      </trkpt>
      <trkpt lat="42.347205" lon="2.158660">
        <ele>1270.5</ele>
        <time>2014-06-12T10:03:18Z</time>
      </trkpt>
      <trkpt lat="42.347194" lon="2.158741">
        <ele>1268.6</ele>
        <time>2014-06-12T10:03:34Z</time>
      </trkpt>
      <trkpt lat="42.347174" lon="2.158846">
        <ele>1266.7</ele>
        <time>2014-06-12T10:03:53Z</time>
      </trkpt>
      <trkpt lat="42.347170" lon="2.158856">
        <ele>1266.2</ele>
        <time>2014-06-12T10:03:55Z</time>
      </trkpt>
      <trkpt lat="42.347161" lon="2.158960">
        <ele>1264.3</ele>
        <time>2014-06-12T10:04:08Z</time>
      </trkpt>
      <trkpt lat="42.347196" lon="2.159031">
        <ele>1262.3</ele>
        <time>2014-06-12T10:04:22Z</time>
      </trkpt>
      <trkpt lat="42.347196" lon="2.159031">
        <ele>1261.4</ele>
        <time>2014-06-12T10:04:50Z</time>
      </trkpt>
      <trkpt lat="42.347199" lon="2.159034">
        <ele>1261.4</ele>
        <time>2014-06-12T10:05:15Z</time>
      </trkpt>
      <trkpt lat="42.347154" lon="2.159024">
        <ele>1261.4</ele>
        <time>2014-06-12T10:05:21Z</time>
      </trkpt>
      <trkpt lat="42.347126" lon="2.158998">
        <ele>1261.4</ele>
        <time>2014-06-12T10:05:25Z</time>
      </trkpt>
      <trkpt lat="42.347097" lon="2.158940">
        <ele>1260.9</ele>
        <time>2014-06-12T10:05:30Z</time>
      </trkpt>
      <trkpt lat="42.347057" lon="2.158845">
        <ele>1258.0</ele>
        <time>2014-06-12T10:05:43Z</time>
      </trkpt>
      <trkpt lat="42.347039" lon="2.158792">
        <ele>1257.5</ele>
        <time>2014-06-12T10:06:05Z</time>
      </trkpt>
      <trkpt lat="42.347008" lon="2.158837">
        <ele>1257.1</ele>
        <time>2014-06-12T10:06:14Z</time>
      </trkpt>
      <trkpt lat="42.347072" lon="2.158981">
        <ele>1256.6</ele>
        <time>2014-06-12T10:06:27Z</time>
      </trkpt>
      <trkpt lat="42.347152" lon="2.159084">
        <ele>1255.6</ele>
        <time>2014-06-12T10:06:41Z</time>
      </trkpt>
      <trkpt lat="42.347223" lon="2.159130">
        <ele>1255.1</ele>
        <time>2014-06-12T10:06:53Z</time>
      </trkpt>
      <trkpt lat="42.347396" lon="2.159282">
        <ele>1255.1</ele>
        <time>2014-06-12T10:07:08Z</time>
      </trkpt>
      <trkpt lat="42.347484" lon="2.159411">
        <ele>1254.2</ele>
        <time>2014-06-12T10:07:21Z</time>
      </trkpt>
      <trkpt lat="42.347570" lon="2.159556">
        <ele>1253.2</ele>
        <time>2014-06-12T10:07:36Z</time>
      </trkpt>
      <trkpt lat="42.347679" lon="2.159721">
        <ele>1252.2</ele>
        <time>2014-06-12T10:07:49Z</time>
      </trkpt>
      <trkpt lat="42.347791" lon="2.159949">
        <ele>1250.3</ele>
        <time>2014-06-12T10:08:03Z</time>
      </trkpt>
      <trkpt lat="42.347851" lon="2.160094">
        <ele>1248.9</ele>
        <time>2014-06-12T10:08:13Z</time>
      </trkpt>
      <trkpt lat="42.347899" lon="2.160236">
        <ele>1247.4</ele>
        <time>2014-06-12T10:08:27Z</time>
      </trkpt>
      <trkpt lat="42.347917" lon="2.160263">
        <ele>1247.4</ele>
        <time>2014-06-12T10:08:30Z</time>
      </trkpt>
      <trkpt lat="42.347983" lon="2.160348">
        <ele>1246.0</ele>
        <time>2014-06-12T10:08:44Z</time>
      </trkpt>
      <trkpt lat="42.348021" lon="2.160401">
        <ele>1245.0</ele>
        <time>2014-06-12T10:08:59Z</time>
      </trkpt>
      <trkpt lat="42.348111" lon="2.160498">
        <ele>1244.6</ele>
        <time>2014-06-12T10:09:08Z</time>
      </trkpt>
      <trkpt lat="42.348271" lon="2.160651">
        <ele>1242.6</ele>
        <time>2014-06-12T10:09:23Z</time>
      </trkpt>
      <trkpt lat="42.348313" lon="2.160702">
        <ele>1242.2</ele>
        <time>2014-06-12T10:09:30Z</time>
      </trkpt>
      <trkpt lat="42.348456" lon="2.160906">
        <ele>1239.8</ele>
        <time>2014-06-12T10:09:46Z</time>
      </trkpt>
      <trkpt lat="42.348555" lon="2.161072">
        <ele>1238.3</ele>
        <time>2014-06-12T10:10:02Z</time>
      </trkpt>
      <trkpt lat="42.348604" lon="2.161158">
        <ele>1237.3</ele>
        <time>2014-06-12T10:10:10Z</time>
      </trkpt>
      <trkpt lat="42.348636" lon="2.161211">
        <ele>1236.9</ele>
        <time>2014-06-12T10:10:15Z</time>
      </trkpt>
      <trkpt lat="42.348731" lon="2.161400">
        <ele>1236.4</ele>
        <time>2014-06-12T10:10:30Z</time>
      </trkpt>
      <trkpt lat="42.348777" lon="2.161525">
        <ele>1235.9</ele>
        <time>2014-06-12T10:10:39Z</time>
      </trkpt>
      <trkpt lat="42.348825" lon="2.161655">
        <ele>1234.9</ele>
        <time>2014-06-12T10:10:54Z</time>
      </trkpt>
      <trkpt lat="42.348851" lon="2.161734">
        <ele>1234.5</ele>
        <time>2014-06-12T10:11:07Z</time>
      </trkpt>
      <trkpt lat="42.348933" lon="2.161850">
        <ele>1234.9</ele>
        <time>2014-06-12T11:19:46Z</time>
      </trkpt>
      <trkpt lat="42.348960" lon="2.162024">
        <ele>1235.4</ele>
        <time>2014-06-12T11:19:58Z</time>
      </trkpt>
      <trkpt lat="42.349021" lon="2.162160">
        <ele>1234.0</ele>
        <time>2014-06-12T11:20:09Z</time>
      </trkpt>
      <trkpt lat="42.349097" lon="2.162265">
        <ele>1232.6</ele>
        <time>2014-06-12T11:20:21Z</time>
      </trkpt>
      <trkpt lat="42.349149" lon="2.162345">
        <ele>1231.1</ele>
        <time>2014-06-12T11:20:28Z</time>
      </trkpt>
      <trkpt lat="42.349246" lon="2.162562">
        <ele>1228.2</ele>
        <time>2014-06-12T11:20:44Z</time>
      </trkpt>
      <trkpt lat="42.349343" lon="2.162707">
        <ele>1226.8</ele>
        <time>2014-06-12T11:20:57Z</time>
      </trkpt>
      <trkpt lat="42.349390" lon="2.162779">
        <ele>1226.3</ele>
        <time>2014-06-12T11:21:04Z</time>
      </trkpt>
      <trkpt lat="42.349474" lon="2.162880">
        <ele>1224.9</ele>
        <time>2014-06-12T11:21:13Z</time>
      </trkpt>
      <trkpt lat="42.349668" lon="2.162902">
        <ele>1223.4</ele>
        <time>2014-06-12T11:21:30Z</time>
      </trkpt>
      <trkpt lat="42.349692" lon="2.162903">
        <ele>1223.4</ele>
        <time>2014-06-12T11:21:32Z</time>
      </trkpt>
      <trkpt lat="42.349844" lon="2.162834">
        <ele>1222.4</ele>
        <time>2014-06-12T11:21:45Z</time>
      </trkpt>
      <trkpt lat="42.349886" lon="2.162886">
        <ele>1222.0</ele>
        <time>2014-06-12T11:21:57Z</time>
      </trkpt>
      <trkpt lat="42.349941" lon="2.162933">
        <ele>1221.5</ele>
        <time>2014-06-12T11:22:02Z</time>
      </trkpt>
      <trkpt lat="42.350019" lon="2.163024">
        <ele>1221.5</ele>
        <time>2014-06-12T11:22:11Z</time>
      </trkpt>
      <trkpt lat="42.350041" lon="2.163111">
        <ele>1221.0</ele>
        <time>2014-06-12T11:22:17Z</time>
      </trkpt>
      <trkpt lat="42.350081" lon="2.163169">
        <ele>1221.0</ele>
        <time>2014-06-12T11:22:22Z</time>
      </trkpt>
      <trkpt lat="42.350094" lon="2.163278">
        <ele>1221.0</ele>
        <time>2014-06-12T11:22:29Z</time>
      </trkpt>
      <trkpt lat="42.350139" lon="2.163426">
        <ele>1220.5</ele>
        <time>2014-06-12T11:22:39Z</time>
      </trkpt>
      <trkpt lat="42.350177" lon="2.163639">
        <ele>1220.5</ele>
        <time>2014-06-12T11:22:54Z</time>
      </trkpt>
      <trkpt lat="42.350232" lon="2.163741">
        <ele>1220.5</ele>
        <time>2014-06-12T11:23:05Z</time>
      </trkpt>
      <trkpt lat="42.350261" lon="2.163765">
        <ele>1220.5</ele>
        <time>2014-06-12T11:23:17Z</time>
      </trkpt>
      <trkpt lat="42.350337" lon="2.163782">
        <ele>1222.0</ele>
        <time>2014-06-12T11:23:29Z</time>
      </trkpt>
      <trkpt lat="42.350431" lon="2.163801">
        <ele>1223.4</ele>
        <time>2014-06-12T11:23:42Z</time>
      </trkpt>
      <trkpt lat="42.350431" lon="2.163801">
        <ele>1223.9</ele>
        <time>2014-06-12T11:23:43Z</time>
      </trkpt>
      <trkpt lat="42.350469" lon="2.163797">
        <ele>1223.9</ele>
        <time>2014-06-12T11:23:47Z</time>
      </trkpt>
      <trkpt lat="42.350586" lon="2.163845">
        <ele>1225.8</ele>
        <time>2014-06-12T11:23:59Z</time>
      </trkpt>
      <trkpt lat="42.350630" lon="2.163885">
        <ele>1226.8</ele>
        <time>2014-06-12T11:24:05Z</time>
      </trkpt>
      <trkpt lat="42.350769" lon="2.163986">
        <ele>1228.2</ele>
        <time>2014-06-12T11:24:20Z</time>
      </trkpt>
      <trkpt lat="42.350801" lon="2.163965">
        <ele>1228.7</ele>
        <time>2014-06-12T11:24:24Z</time>
      </trkpt>
      <trkpt lat="42.350916" lon="2.163843">
        <ele>1230.6</ele>
        <time>2014-06-12T11:24:38Z</time>
      </trkpt>
      <trkpt lat="42.350950" lon="2.163805">
        <ele>1231.1</ele>
        <time>2014-06-12T11:24:43Z</time>
      </trkpt>
      <trkpt lat="42.351000" lon="2.163708">
        <ele>1232.1</ele>
        <time>2014-06-12T11:24:52Z</time>
      </trkpt>
      <trkpt lat="42.351036" lon="2.163616">
        <ele>1233.0</ele>
        <time>2014-06-12T11:25:01Z</time>
      </trkpt>
      <trkpt lat="42.351073" lon="2.163443">
        <ele>1235.4</ele>
        <time>2014-06-12T11:25:15Z</time>
      </trkpt>
      <trkpt lat="42.351129" lon="2.163373">
        <ele>1236.9</ele>
        <time>2014-06-12T11:25:26Z</time>
      </trkpt>
      <trkpt lat="42.351168" lon="2.163414">
        <ele>1237.3</ele>
        <time>2014-06-12T11:25:31Z</time>
      </trkpt>
      <trkpt lat="42.351246" lon="2.163593">
        <ele>1238.8</ele>
        <time>2014-06-12T11:25:45Z</time>
      </trkpt>
      <trkpt lat="42.351261" lon="2.163605">
        <ele>1239.3</ele>
        <time>2014-06-12T11:25:47Z</time>
      </trkpt>
      <trkpt lat="42.351343" lon="2.163642">
        <ele>1240.2</ele>
        <time>2014-06-12T11:25:59Z</time>
      </trkpt>
      <trkpt lat="42.351493" lon="2.163774">
        <ele>1244.6</ele>
        <time>2014-06-12T11:38:04Z</time>
      </trkpt>
      <trkpt lat="42.351599" lon="2.163773">
        <ele>1245.5</ele>
        <time>2014-06-12T11:38:16Z</time>
      </trkpt>
      <trkpt lat="42.351613" lon="2.163771">
        <ele>1246.0</ele>
        <time>2014-06-12T11:38:18Z</time>
      </trkpt>
      <trkpt lat="42.351720" lon="2.163772">
        <ele>1247.4</ele>
        <time>2014-06-12T11:38:31Z</time>
      </trkpt>
      <trkpt lat="42.351774" lon="2.163753">
        <ele>1249.8</ele>
        <time>2014-06-12T11:38:44Z</time>
      </trkpt>
      <trkpt lat="42.351782" lon="2.163667">
        <ele>1252.2</ele>
        <time>2014-06-12T11:38:58Z</time>
      </trkpt>
      <trkpt lat="42.351764" lon="2.163578">
        <ele>1254.2</ele>
        <time>2014-06-12T11:39:10Z</time>
      </trkpt>
      <trkpt lat="42.351801" lon="2.163556">
        <ele>1256.1</ele>
        <time>2014-06-12T11:39:24Z</time>
      </trkpt>
      <trkpt lat="42.351911" lon="2.163540">
        <ele>1259.0</ele>
        <time>2014-06-12T11:39:40Z</time>
      </trkpt>
      <trkpt lat="42.351964" lon="2.163563">
        <ele>1260.4</ele>
        <time>2014-06-12T11:39:53Z</time>
      </trkpt>
      <trkpt lat="42.352060" lon="2.163616">
        <ele>1262.8</ele>
        <time>2014-06-12T11:40:07Z</time>
      </trkpt>
      <trkpt lat="42.352132" lon="2.163621">
        <ele>1265.2</ele>
        <time>2014-06-12T11:40:24Z</time>
      </trkpt>
      <trkpt lat="42.352121" lon="2.163573">
        <ele>1267.2</ele>
        <time>2014-06-12T11:40:36Z</time>
      </trkpt>
      <trkpt lat="42.352128" lon="2.163498">
        <ele>1269.1</ele>
        <time>2014-06-12T11:40:52Z</time>
      </trkpt>
      <trkpt lat="42.352192" lon="2.163521">
        <ele>1271.5</ele>
        <time>2014-06-12T11:41:06Z</time>
      </trkpt>
      <trkpt lat="42.352274" lon="2.163548">
        <ele>1272.9</ele>
        <time>2014-06-12T11:41:17Z</time>
      </trkpt>
      <trkpt lat="42.352292" lon="2.163555">
        <ele>1273.4</ele>
        <time>2014-06-12T11:41:19Z</time>
      </trkpt>
      <trkpt lat="42.352412" lon="2.163571">
        <ele>1275.3</ele>
        <time>2014-06-12T11:41:31Z</time>
      </trkpt>
      <trkpt lat="42.352421" lon="2.163568">
        <ele>1275.3</ele>
        <time>2014-06-12T11:41:32Z</time>
      </trkpt>
      <trkpt lat="42.352479" lon="2.163574">
        <ele>1276.3</ele>
        <time>2014-06-12T11:41:39Z</time>
      </trkpt>
      <trkpt lat="42.352600" lon="2.163570">
        <ele>1277.7</ele>
        <time>2014-06-12T11:41:53Z</time>
      </trkpt>
      <trkpt lat="42.352701" lon="2.163589">
        <ele>1279.2</ele>
        <time>2014-06-12T11:42:05Z</time>
      </trkpt>
      <trkpt lat="42.352845" lon="2.163640">
        <ele>1281.6</ele>
        <time>2014-06-12T11:42:22Z</time>
      </trkpt>
      <trkpt lat="42.352942" lon="2.163654">
        <ele>1282.5</ele>
        <time>2014-06-12T11:42:34Z</time>
      </trkpt>
      <trkpt lat="42.353100" lon="2.163761">
        <ele>1284.0</ele>
        <time>2014-06-12T11:42:50Z</time>
      </trkpt>
      <trkpt lat="42.353237" lon="2.163829">
        <ele>1284.9</ele>
        <time>2014-06-12T11:43:04Z</time>
      </trkpt>
      <trkpt lat="42.353365" lon="2.163941">
        <ele>1285.4</ele>
        <time>2014-06-12T11:43:19Z</time>
      </trkpt>
      <trkpt lat="42.353518" lon="2.163992">
        <ele>1285.9</ele>
        <time>2014-06-12T11:43:32Z</time>
      </trkpt>
      <trkpt lat="42.353648" lon="2.164046">
        <ele>1287.3</ele>
        <time>2014-06-12T11:43:46Z</time>
      </trkpt>
      <trkpt lat="42.353724" lon="2.164099">
        <ele>1289.3</ele>
        <time>2014-06-12T11:43:55Z</time>
      </trkpt>
      <trkpt lat="42.353824" lon="2.164171">
        <ele>1290.7</ele>
        <time>2014-06-12T11:44:09Z</time>
      </trkpt>
      <trkpt lat="42.353848" lon="2.164175">
        <ele>1292.2</ele>
        <time>2014-06-12T11:44:16Z</time>
      </trkpt>
      <trkpt lat="42.354020" lon="2.164255">
        <ele>1293.1</ele>
        <time>2014-06-12T11:44:29Z</time>
      </trkpt>
      <trkpt lat="42.354148" lon="2.164438">
        <ele>1292.6</ele>
        <time>2014-06-12T11:44:44Z</time>
      </trkpt>
      <trkpt lat="42.354269" lon="2.164617">
        <ele>1291.7</ele>
        <time>2014-06-12T11:44:59Z</time>
      </trkpt>
      <trkpt lat="42.354354" lon="2.164730">
        <ele>1291.7</ele>
        <time>2014-06-12T11:45:11Z</time>
      </trkpt>
      <trkpt lat="42.354409" lon="2.164823">
        <ele>1293.1</ele>
        <time>2014-06-12T11:45:19Z</time>
      </trkpt>
      <trkpt lat="42.354414" lon="2.164833">
        <ele>1293.1</ele>
        <time>2014-06-12T11:45:20Z</time>
      </trkpt>
      <trkpt lat="42.354486" lon="2.164932">
        <ele>1294.1</ele>
        <time>2014-06-12T11:45:30Z</time>
      </trkpt>
      <trkpt lat="42.354548" lon="2.165029">
        <ele>1295.5</ele>
        <time>2014-06-12T11:45:39Z</time>
      </trkpt>
      <trkpt lat="42.354556" lon="2.165054">
        <ele>1295.5</ele>
        <time>2014-06-12T11:45:41Z</time>
      </trkpt>
      <trkpt lat="42.354689" lon="2.165155">
        <ele>1298.4</ele>
        <time>2014-06-12T11:45:59Z</time>
      </trkpt>
      <trkpt lat="42.354747" lon="2.165201">
        <ele>1300.3</ele>
        <time>2014-06-12T11:46:12Z</time>
      </trkpt>
      <trkpt lat="42.354805" lon="2.165218">
        <ele>1302.7</ele>
        <time>2014-06-12T11:46:24Z</time>
      </trkpt>
      <trkpt lat="42.354866" lon="2.165260">
        <ele>1305.1</ele>
        <time>2014-06-12T11:46:36Z</time>
      </trkpt>
      <trkpt lat="42.354945" lon="2.165295">
        <ele>1306.6</ele>
        <time>2014-06-12T11:46:47Z</time>
      </trkpt>
      <trkpt lat="42.355035" lon="2.165310">
        <ele>1309.0</ele>
        <time>2014-06-12T11:47:02Z</time>
      </trkpt>
      <trkpt lat="42.355113" lon="2.165346">
        <ele>1310.4</ele>
        <time>2014-06-12T11:47:14Z</time>
      </trkpt>
      <trkpt lat="42.355209" lon="2.165363">
        <ele>1312.8</ele>
        <time>2014-06-12T11:47:27Z</time>
      </trkpt>
      <trkpt lat="42.355283" lon="2.165347">
        <ele>1314.3</ele>
        <time>2014-06-12T11:47:39Z</time>
      </trkpt>
      <trkpt lat="42.355376" lon="2.165365">
        <ele>1317.1</ele>
        <time>2014-06-12T11:47:55Z</time>
      </trkpt>
      <trkpt lat="42.355481" lon="2.165370">
        <ele>1320.0</ele>
        <time>2014-06-12T11:48:11Z</time>
      </trkpt>
      <trkpt lat="42.355605" lon="2.165370">
        <ele>1321.5</ele>
        <time>2014-06-12T11:48:24Z</time>
      </trkpt>
      <trkpt lat="42.355697" lon="2.165371">
        <ele>1322.9</ele>
        <time>2014-06-12T11:48:36Z</time>
      </trkpt>
      <trkpt lat="42.355795" lon="2.165386">
        <ele>1324.3</ele>
        <time>2014-06-12T11:48:48Z</time>
      </trkpt>
      <trkpt lat="42.355928" lon="2.165402">
        <ele>1326.8</ele>
        <time>2014-06-12T11:49:04Z</time>
      </trkpt>
      <trkpt lat="42.356003" lon="2.165430">
        <ele>1327.7</ele>
        <time>2014-06-12T11:49:13Z</time>
      </trkpt>
      <trkpt lat="42.356061" lon="2.165437">
        <ele>1328.2</ele>
        <time>2014-06-12T11:49:20Z</time>
      </trkpt>
      <trkpt lat="42.356086" lon="2.165421">
        <ele>1328.7</ele>
        <time>2014-06-12T11:49:24Z</time>
      </trkpt>
      <trkpt lat="42.356118" lon="2.165381">
        <ele>1329.2</ele>
        <time>2014-06-12T11:49:29Z</time>
      </trkpt>
      <trkpt lat="42.356205" lon="2.165346">
        <ele>1330.1</ele>
        <time>2014-06-12T11:49:39Z</time>
      </trkpt>
      <trkpt lat="42.356330" lon="2.165265">
        <ele>1332.0</ele>
        <time>2014-06-12T11:49:53Z</time>
      </trkpt>
      <trkpt lat="42.356389" lon="2.165222">
        <ele>1333.5</ele>
        <time>2014-06-12T11:50:05Z</time>
      </trkpt>
      <trkpt lat="42.356413" lon="2.165239">
        <ele>1333.5</ele>
        <time>2014-06-12T11:50:18Z</time>
      </trkpt>
      <trkpt lat="42.356460" lon="2.165205">
        <ele>1334.0</ele>
        <time>2014-06-12T11:50:37Z</time>
      </trkpt>
      <trkpt lat="42.356487" lon="2.165171">
        <ele>1334.0</ele>
        <time>2014-06-12T11:50:45Z</time>
      </trkpt>
      <trkpt lat="42.356570" lon="2.165104">
        <ele>1334.0</ele>
        <time>2014-06-12T11:50:53Z</time>
      </trkpt>
      <trkpt lat="42.356617" lon="2.165063">
        <ele>1334.0</ele>
        <time>2014-06-12T11:50:57Z</time>
      </trkpt>
      <trkpt lat="42.356763" lon="2.164886">
        <ele>1334.0</ele>
        <time>2014-06-12T11:51:13Z</time>
      </trkpt>
      <trkpt lat="42.356808" lon="2.164817">
        <ele>1334.0</ele>
        <time>2014-06-12T11:51:19Z</time>
      </trkpt>
      <trkpt lat="42.356941" lon="2.164672">
        <ele>1334.0</ele>
        <time>2014-06-12T11:51:33Z</time>
      </trkpt>
      <trkpt lat="42.357135" lon="2.164576">
        <ele>1334.0</ele>
        <time>2014-06-12T11:51:47Z</time>
      </trkpt>
      <trkpt lat="42.357213" lon="2.164534">
        <ele>1334.0</ele>
        <time>2014-06-12T11:51:55Z</time>
      </trkpt>
      <trkpt lat="42.357348" lon="2.164480">
        <ele>1332.5</ele>
        <time>2014-06-12T11:52:04Z</time>
      </trkpt>
      <trkpt lat="42.357425" lon="2.164385">
        <ele>1332.0</ele>
        <time>2014-06-12T11:52:11Z</time>
      </trkpt>
      <trkpt lat="42.357515" lon="2.164188">
        <ele>1331.1</ele>
        <time>2014-06-12T11:52:26Z</time>
      </trkpt>
      <trkpt lat="42.357524" lon="2.164167">
        <ele>1330.1</ele>
        <time>2014-06-12T11:52:28Z</time>
      </trkpt>
      <trkpt lat="42.357555" lon="2.164127">
        <ele>1330.6</ele>
        <time>2014-06-12T11:52:33Z</time>
      </trkpt>
      <trkpt lat="42.357670" lon="2.164070">
        <ele>1328.7</ele>
        <time>2014-06-12T11:52:48Z</time>
      </trkpt>
      <trkpt lat="42.357690" lon="2.164073">
        <ele>1327.2</ele>
        <time>2014-06-12T11:53:48Z</time>
      </trkpt>
      <trkpt lat="42.357760" lon="2.164054">
        <ele>1326.8</ele>
        <time>2014-06-12T11:54:02Z</time>
      </trkpt>
      <trkpt lat="42.357889" lon="2.163988">
        <ele>1326.3</ele>
        <time>2014-06-12T11:54:15Z</time>
      </trkpt>
      <trkpt lat="42.358088" lon="2.163901">
        <ele>1324.8</ele>
        <time>2014-06-12T11:54:30Z</time>
      </trkpt>
      <trkpt lat="42.358328" lon="2.163772">
        <ele>1324.8</ele>
        <time>2014-06-12T11:54:40Z</time>
      </trkpt>
      <trkpt lat="42.358398" lon="2.163700">
        <ele>1324.8</ele>
        <time>2014-06-12T11:54:45Z</time>
      </trkpt>
      <trkpt lat="42.358479" lon="2.163501">
        <ele>1326.3</ele>
        <time>2014-06-12T11:55:01Z</time>
      </trkpt>
      <trkpt lat="42.358585" lon="2.163445">
        <ele>1327.7</ele>
        <time>2014-06-12T11:55:13Z</time>
      </trkpt>
      <trkpt lat="42.358606" lon="2.163491">
        <ele>1327.7</ele>
        <time>2014-06-12T11:55:18Z</time>
      </trkpt>
      <trkpt lat="42.358602" lon="2.163521">
        <ele>1327.7</ele>
        <time>2014-06-12T11:55:20Z</time>
      </trkpt>
      <trkpt lat="42.358718" lon="2.163601">
        <ele>1327.7</ele>
        <time>2014-06-12T11:55:34Z</time>
      </trkpt>
      <trkpt lat="42.358796" lon="2.163665">
        <ele>1327.2</ele>
        <time>2014-06-12T11:55:46Z</time>
      </trkpt>
      <trkpt lat="42.358820" lon="2.163750">
        <ele>1329.2</ele>
        <time>2014-06-12T11:55:58Z</time>
      </trkpt>
      <trkpt lat="42.358873" lon="2.163842">
        <ele>1331.1</ele>
        <time>2014-06-12T11:56:11Z</time>
      </trkpt>
      <trkpt lat="42.358902" lon="2.163901">
        <ele>1332.5</ele>
        <time>2014-06-12T11:56:22Z</time>
      </trkpt>
      <trkpt lat="42.358948" lon="2.163990">
        <ele>1334.9</ele>
        <time>2014-06-12T11:56:34Z</time>
      </trkpt>
      <trkpt lat="42.358961" lon="2.164024">
        <ele>1335.9</ele>
        <time>2014-06-12T11:56:39Z</time>
      </trkpt>
      <trkpt lat="42.358972" lon="2.164128">
        <ele>1337.3</ele>
        <time>2014-06-12T11:56:50Z</time>
      </trkpt>
      <trkpt lat="42.358983" lon="2.164183">
        <ele>1339.2</ele>
        <time>2014-06-12T11:57:01Z</time>
      </trkpt>
      <trkpt lat="42.359017" lon="2.164269">
        <ele>1340.7</ele>
        <time>2014-06-12T11:57:12Z</time>
      </trkpt>
      <trkpt lat="42.359065" lon="2.164357">
        <ele>1341.7</ele>
        <time>2014-06-12T11:57:23Z</time>
      </trkpt>
      <trkpt lat="42.359104" lon="2.164448">
        <ele>1343.1</ele>
        <time>2014-06-12T11:57:34Z</time>
      </trkpt>
      <trkpt lat="42.359161" lon="2.164538">
        <ele>1344.5</ele>
        <time>2014-06-12T11:57:46Z</time>
      </trkpt>
      <trkpt lat="42.359201" lon="2.164607">
        <ele>1346.0</ele>
        <time>2014-06-12T11:57:57Z</time>
      </trkpt>
      <trkpt lat="42.359263" lon="2.164683">
        <ele>1347.4</ele>
        <time>2014-06-12T11:58:08Z</time>
      </trkpt>
      <trkpt lat="42.359317" lon="2.164786">
        <ele>1349.3</ele>
        <time>2014-06-12T11:58:20Z</time>
      </trkpt>
      <trkpt lat="42.359351" lon="2.164886">
        <ele>1351.3</ele>
        <time>2014-06-12T11:58:32Z</time>
      </trkpt>
      <trkpt lat="42.359375" lon="2.164928">
        <ele>1351.8</ele>
        <time>2014-06-12T11:58:37Z</time>
      </trkpt>
      <trkpt lat="42.359443" lon="2.165024">
        <ele>1352.7</ele>
        <time>2014-06-12T11:58:50Z</time>
      </trkpt>
      <trkpt lat="42.359513" lon="2.165106">
        <ele>1353.7</ele>
        <time>2014-06-12T11:59:01Z</time>
      </trkpt>
      <trkpt lat="42.359583" lon="2.165168">
        <ele>1353.7</ele>
        <time>2014-06-12T11:59:09Z</time>
      </trkpt>
      <trkpt lat="42.359619" lon="2.165220">
        <ele>1354.2</ele>
        <time>2014-06-12T11:59:16Z</time>
      </trkpt>
      <trkpt lat="42.359674" lon="2.165273">
        <ele>1354.6</ele>
        <time>2014-06-12T11:59:23Z</time>
      </trkpt>
      <trkpt lat="42.359696" lon="2.165283">
        <ele>1354.6</ele>
        <time>2014-06-12T11:59:25Z</time>
      </trkpt>
      <trkpt lat="42.359735" lon="2.165301">
        <ele>1354.6</ele>
        <time>2014-06-12T11:59:29Z</time>
      </trkpt>
      <trkpt lat="42.359774" lon="2.165293">
        <ele>1355.1</ele>
        <time>2014-06-12T11:59:33Z</time>
      </trkpt>
      <trkpt lat="42.359883" lon="2.165319">
        <ele>1356.1</ele>
        <time>2014-06-12T11:59:46Z</time>
      </trkpt>
      <trkpt lat="42.359887" lon="2.165324">
        <ele>1356.1</ele>
        <time>2014-06-12T11:59:48Z</time>
      </trkpt>
      <trkpt lat="42.359951" lon="2.165367">
        <ele>1357.5</ele>
        <time>2014-06-12T11:59:55Z</time>
      </trkpt>
      <trkpt lat="42.359978" lon="2.165471">
        <ele>1358.0</ele>
        <time>2014-06-12T12:00:03Z</time>
      </trkpt>
      <trkpt lat="42.360068" lon="2.165604">
        <ele>1358.5</ele>
        <time>2014-06-12T12:00:16Z</time>
      </trkpt>
      <trkpt lat="42.360174" lon="2.165671">
        <ele>1359.0</ele>
        <time>2014-06-12T12:00:28Z</time>
      </trkpt>
      <trkpt lat="42.360264" lon="2.165751">
        <ele>1359.4</ele>
        <time>2014-06-12T12:00:40Z</time>
      </trkpt>
      <trkpt lat="42.360370" lon="2.165826">
        <ele>1360.4</ele>
        <time>2014-06-12T12:00:52Z</time>
      </trkpt>
      <trkpt lat="42.360464" lon="2.165835">
        <ele>1361.4</ele>
        <time>2014-06-12T12:01:05Z</time>
      </trkpt>
      <trkpt lat="42.360552" lon="2.165880">
        <ele>1362.8</ele>
        <time>2014-06-12T12:01:16Z</time>
      </trkpt>
      <trkpt lat="42.360562" lon="2.165953">
        <ele>1363.8</ele>
        <time>2014-06-12T12:01:24Z</time>
      </trkpt>
      <trkpt lat="42.360560" lon="2.165984">
        <ele>1364.7</ele>
        <time>2014-06-12T12:01:31Z</time>
      </trkpt>
      <trkpt lat="42.360550" lon="2.166017">
        <ele>1365.7</ele>
        <time>2014-06-12T12:01:36Z</time>
      </trkpt>
      <trkpt lat="42.360525" lon="2.166124">
        <ele>1367.1</ele>
        <time>2014-06-12T12:01:49Z</time>
      </trkpt>
      <trkpt lat="42.360500" lon="2.166213">
        <ele>1368.1</ele>
        <time>2014-06-12T12:01:59Z</time>
      </trkpt>
      <trkpt lat="42.360491" lon="2.166272">
        <ele>1370.0</ele>
        <time>2014-06-12T12:02:11Z</time>
      </trkpt>
      <trkpt lat="42.360511" lon="2.166436">
        <ele>1371.5</ele>
        <time>2014-06-12T12:02:23Z</time>
      </trkpt>
      <trkpt lat="42.360526" lon="2.166507">
        <ele>1373.4</ele>
        <time>2014-06-12T12:02:32Z</time>
      </trkpt>
      <trkpt lat="42.360537" lon="2.166591">
        <ele>1374.8</ele>
        <time>2014-06-12T12:02:44Z</time>
      </trkpt>
      <trkpt lat="42.360521" lon="2.166680">
        <ele>1376.8</ele>
        <time>2014-06-12T12:02:55Z</time>
      </trkpt>
      <trkpt lat="42.360526" lon="2.166766">
        <ele>1378.7</ele>
        <time>2014-06-12T12:03:07Z</time>
      </trkpt>
      <trkpt lat="42.360577" lon="2.166864">
        <ele>1380.6</ele>
        <time>2014-06-12T12:03:18Z</time>
      </trkpt>
      <trkpt lat="42.360654" lon="2.166933">
        <ele>1382.0</ele>
        <time>2014-06-12T12:03:32Z</time>
      </trkpt>
      <trkpt lat="42.360688" lon="2.166864">
        <ele>1384.0</ele>
        <time>2014-06-12T12:03:45Z</time>
      </trkpt>
      <trkpt lat="42.360688" lon="2.166843">
        <ele>1385.4</ele>
        <time>2014-06-12T12:06:55Z</time>
      </trkpt>
      <trkpt lat="42.360706" lon="2.166770">
        <ele>1386.4</ele>
        <time>2014-06-12T12:07:06Z</time>
      </trkpt>
      <trkpt lat="42.360747" lon="2.166832">
        <ele>1387.8</ele>
        <time>2014-06-12T12:07:19Z</time>
      </trkpt>
      <trkpt lat="42.360873" lon="2.166855">
        <ele>1408.9</ele>
        <time>2014-06-12T12:12:39Z</time>
      </trkpt>
      <trkpt lat="42.360991" lon="2.166863">
        <ele>1410.4</ele>
        <time>2014-06-12T12:12:50Z</time>
      </trkpt>
      <trkpt lat="42.361068" lon="2.166873">
        <ele>1411.3</ele>
        <time>2014-06-12T12:12:57Z</time>
      </trkpt>
      <trkpt lat="42.361210" lon="2.166931">
        <ele>1412.8</ele>
        <time>2014-06-12T12:13:09Z</time>
      </trkpt>
      <trkpt lat="42.361337" lon="2.167004">
        <ele>1413.8</ele>
        <time>2014-06-12T12:13:23Z</time>
      </trkpt>
      <trkpt lat="42.361358" lon="2.167000">
        <ele>1415.2</ele>
        <time>2014-06-12T12:13:41Z</time>
      </trkpt>
      <trkpt lat="42.361412" lon="2.166992">
        <ele>1415.2</ele>
        <time>2014-06-12T12:13:52Z</time>
      </trkpt>
      <trkpt lat="42.361504" lon="2.167027">
        <ele>1416.2</ele>
        <time>2014-06-12T12:14:08Z</time>
      </trkpt>
      <trkpt lat="42.361583" lon="2.167099">
        <ele>1417.1</ele>
        <time>2014-06-12T12:14:15Z</time>
      </trkpt>
      <trkpt lat="42.361736" lon="2.167175">
        <ele>1418.1</ele>
        <time>2014-06-12T12:14:29Z</time>
      </trkpt>
      <trkpt lat="42.361859" lon="2.167263">
        <ele>1419.0</ele>
        <time>2014-06-12T12:14:41Z</time>
      </trkpt>
      <trkpt lat="42.361922" lon="2.167338">
        <ele>1420.0</ele>
        <time>2014-06-12T12:14:55Z</time>
      </trkpt>
      <trkpt lat="42.361993" lon="2.167432">
        <ele>1421.4</ele>
        <time>2014-06-12T12:15:09Z</time>
      </trkpt>
      <trkpt lat="42.362098" lon="2.167495">
        <ele>1423.4</ele>
        <time>2014-06-12T12:15:24Z</time>
      </trkpt>
      <trkpt lat="42.362175" lon="2.167541">
        <ele>1425.3</ele>
        <time>2014-06-12T12:15:36Z</time>
      </trkpt>
      <trkpt lat="42.362251" lon="2.167589">
        <ele>1426.7</ele>
        <time>2014-06-12T12:15:50Z</time>
      </trkpt>
      <trkpt lat="42.362289" lon="2.167613">
        <ele>1428.2</ele>
        <time>2014-06-12T12:16:02Z</time>
      </trkpt>
      <trkpt lat="42.362346" lon="2.167671">
        <ele>1430.1</ele>
        <time>2014-06-12T12:16:14Z</time>
      </trkpt>
      <trkpt lat="42.362359" lon="2.167677">
        <ele>1432.0</ele>
        <time>2014-06-12T12:16:29Z</time>
      </trkpt>
      <trkpt lat="42.362401" lon="2.167716">
        <ele>1434.4</ele>
        <time>2014-06-12T12:16:42Z</time>
      </trkpt>
      <trkpt lat="42.362479" lon="2.167764">
        <ele>1435.9</ele>
        <time>2014-06-12T12:16:54Z</time>
      </trkpt>
      <trkpt lat="42.362523" lon="2.167778">
        <ele>1437.3</ele>
        <time>2014-06-12T12:17:06Z</time>
      </trkpt>
      <trkpt lat="42.362546" lon="2.167802">
        <ele>1439.2</ele>
        <time>2014-06-12T12:17:17Z</time>
      </trkpt>
      <trkpt lat="42.362546" lon="2.167802">
        <ele>1439.7</ele>
        <time>2014-06-12T12:17:19Z</time>
      </trkpt>
      <trkpt lat="42.362608" lon="2.167856">
        <ele>1441.6</ele>
        <time>2014-06-12T12:17:31Z</time>
      </trkpt>
      <trkpt lat="42.362729" lon="2.167939">
        <ele>1442.6</ele>
        <time>2014-06-12T12:17:43Z</time>
      </trkpt>
      <trkpt lat="42.362750" lon="2.167957">
        <ele>1443.6</ele>
        <time>2014-06-12T12:17:57Z</time>
      </trkpt>
      <trkpt lat="42.362757" lon="2.167966">
        <ele>1444.0</ele>
        <time>2014-06-12T12:18:01Z</time>
      </trkpt>
      <trkpt lat="42.362787" lon="2.167978">
        <ele>1444.5</ele>
        <time>2014-06-12T12:18:13Z</time>
      </trkpt>
      <trkpt lat="42.362787" lon="2.167978">
        <ele>1444.5</ele>
        <time>2014-06-12T12:18:24Z</time>
      </trkpt>
      <trkpt lat="42.362848" lon="2.167969">
        <ele>1444.5</ele>
        <time>2014-06-12T12:18:35Z</time>
      </trkpt>
      <trkpt lat="42.362846" lon="2.167967">
        <ele>1444.5</ele>
        <time>2014-06-12T12:18:54Z</time>
      </trkpt>
      <trkpt lat="42.362812" lon="2.167902">
        <ele>1445.0</ele>
        <time>2014-06-12T12:19:07Z</time>
      </trkpt>
      <trkpt lat="42.362740" lon="2.167777">
        <ele>1445.5</ele>
        <time>2014-06-12T12:19:18Z</time>
      </trkpt>
      <trkpt lat="42.362716" lon="2.167730">
        <ele>1446.4</ele>
        <time>2014-06-12T12:19:25Z</time>
      </trkpt>
      <trkpt lat="42.362711" lon="2.167659">
        <ele>1447.9</ele>
        <time>2014-06-12T12:19:35Z</time>
      </trkpt>
      <trkpt lat="42.362699" lon="2.167630">
        <ele>1448.8</ele>
        <time>2014-06-12T12:19:46Z</time>
      </trkpt>
      <trkpt lat="42.362678" lon="2.167531">
        <ele>1450.3</ele>
        <time>2014-06-12T12:19:57Z</time>
      </trkpt>
      <trkpt lat="42.362674" lon="2.167469">
        <ele>1452.2</ele>
        <time>2014-06-12T12:20:08Z</time>
      </trkpt>
      <trkpt lat="42.362688" lon="2.167460">
        <ele>1452.7</ele>
        <time>2014-06-12T12:20:18Z</time>
      </trkpt>
      <trkpt lat="42.362739" lon="2.167509">
        <ele>1454.6</ele>
        <time>2014-06-12T12:20:32Z</time>
      </trkpt>
      <trkpt lat="42.362755" lon="2.167527">
        <ele>1456.5</ele>
        <time>2014-06-12T12:20:45Z</time>
      </trkpt>
      <trkpt lat="42.362762" lon="2.167536">
        <ele>1457.0</ele>
        <time>2014-06-12T12:20:48Z</time>
      </trkpt>
      <trkpt lat="42.362812" lon="2.167546">
        <ele>1458.5</ele>
        <time>2014-06-12T12:20:59Z</time>
      </trkpt>
      <trkpt lat="42.362882" lon="2.167573">
        <ele>1460.4</ele>
        <time>2014-06-12T12:21:10Z</time>
      </trkpt>
      <trkpt lat="42.362986" lon="2.167652">
        <ele>1462.3</ele>
        <time>2014-06-12T12:21:22Z</time>
      </trkpt>
      <trkpt lat="42.363070" lon="2.167706">
        <ele>1463.3</ele>
        <time>2014-06-12T12:21:34Z</time>
      </trkpt>
      <trkpt lat="42.363107" lon="2.167711">
        <ele>1464.7</ele>
        <time>2014-06-12T12:21:46Z</time>
      </trkpt>
      <trkpt lat="42.363116" lon="2.167714">
        <ele>1466.6</ele>
        <time>2014-06-12T12:21:58Z</time>
      </trkpt>
      <trkpt lat="42.363129" lon="2.167726">
        <ele>1468.1</ele>
        <time>2014-06-12T12:22:09Z</time>
      </trkpt>
      <trkpt lat="42.363261" lon="2.167797">
        <ele>1470.0</ele>
        <time>2014-06-12T12:22:22Z</time>
      </trkpt>
      <trkpt lat="42.363313" lon="2.167803">
        <ele>1472.4</ele>
        <time>2014-06-12T12:22:36Z</time>
      </trkpt>
      <trkpt lat="42.363407" lon="2.167836">
        <ele>1474.8</ele>
        <time>2014-06-12T12:22:51Z</time>
      </trkpt>
      <trkpt lat="42.363531" lon="2.167894">
        <ele>1476.7</ele>
        <time>2014-06-12T12:23:03Z</time>
      </trkpt>
      <trkpt lat="42.363531" lon="2.167894">
        <ele>1477.7</ele>
        <time>2014-06-12T12:23:19Z</time>
      </trkpt>
      <trkpt lat="42.363533" lon="2.167891">
        <ele>1478.2</ele>
        <time>2014-06-12T12:23:42Z</time>
      </trkpt>
      <trkpt lat="42.363544" lon="2.167893">
        <ele>1478.2</ele>
        <time>2014-06-12T12:23:59Z</time>
      </trkpt>
      <trkpt lat="42.363557" lon="2.167896">
        <ele>1478.2</ele>
        <time>2014-06-12T12:24:30Z</time>
      </trkpt>
      <trkpt lat="42.363571" lon="2.167891">
        <ele>1478.2</ele>
        <time>2014-06-12T12:24:45Z</time>
      </trkpt>
      <trkpt lat="42.363661" lon="2.167895">
        <ele>1477.7</ele>
        <time>2014-06-12T13:06:23Z</time>
      </trkpt>
      <trkpt lat="42.363666" lon="2.167955">
        <ele>1477.7</ele>
        <time>2014-06-12T13:06:35Z</time>
      </trkpt>
      <trkpt lat="42.363685" lon="2.167972">
        <ele>1478.2</ele>
        <time>2014-06-12T13:06:47Z</time>
      </trkpt>
      <trkpt lat="42.363705" lon="2.167957">
        <ele>1478.2</ele>
        <time>2014-06-12T13:07:07Z</time>
      </trkpt>
      <trkpt lat="42.363679" lon="2.167873">
        <ele>1479.1</ele>
        <time>2014-06-12T13:07:18Z</time>
      </trkpt>
      <trkpt lat="42.363677" lon="2.167849">
        <ele>1480.1</ele>
        <time>2014-06-12T13:07:21Z</time>
      </trkpt>
      <trkpt lat="42.363749" lon="2.167853">
        <ele>1481.1</ele>
        <time>2014-06-12T13:07:33Z</time>
      </trkpt>
      <trkpt lat="42.363806" lon="2.167793">
        <ele>1483.0</ele>
        <time>2014-06-12T13:07:44Z</time>
      </trkpt>
      <trkpt lat="42.363860" lon="2.167716">
        <ele>1483.9</ele>
        <time>2014-06-12T13:07:56Z</time>
      </trkpt>
      <trkpt lat="42.363912" lon="2.167608">
        <ele>1484.9</ele>
        <time>2014-06-12T13:08:09Z</time>
      </trkpt>
      <trkpt lat="42.363982" lon="2.167532">
        <ele>1485.8</ele>
        <time>2014-06-12T13:08:20Z</time>
      </trkpt>
      <trkpt lat="42.364040" lon="2.167442">
        <ele>1487.8</ele>
        <time>2014-06-12T13:08:33Z</time>
      </trkpt>
      <trkpt lat="42.364102" lon="2.167397">
        <ele>1489.2</ele>
        <time>2014-06-12T13:08:46Z</time>
      </trkpt>
      <trkpt lat="42.364187" lon="2.167342">
        <ele>1491.1</ele>
        <time>2014-06-12T13:09:02Z</time>
      </trkpt>
      <trkpt lat="42.364244" lon="2.167318">
        <ele>1492.1</ele>
        <time>2014-06-12T13:09:16Z</time>
      </trkpt>
      <trkpt lat="42.364387" lon="2.167222">
        <ele>1494.0</ele>
        <time>2014-06-12T13:09:33Z</time>
      </trkpt>
      <trkpt lat="42.364506" lon="2.167195">
        <ele>1495.9</ele>
        <time>2014-06-12T13:09:47Z</time>
      </trkpt>
      <trkpt lat="42.364525" lon="2.167249">
        <ele>1496.0</ele>
        <time>2014-06-12T14:32:37Z</time>
      </trkpt>
      <trkpt lat="42.364623" lon="2.167295">
        <ele>1497.0</ele>
        <time>2014-06-12T14:32:52Z</time>
      </trkpt>
      <trkpt lat="42.364658" lon="2.167303">
        <ele>1498.0</ele>
        <time>2014-06-12T14:32:55Z</time>
      </trkpt>
      <trkpt lat="42.364705" lon="2.167307">
        <ele>1499.0</ele>
        <time>2014-06-12T14:32:59Z</time>
      </trkpt>
      <trkpt lat="42.364746" lon="2.167318">
        <ele>1500.0</ele>
        <time>2014-06-12T14:33:03Z</time>
      </trkpt>
      <trkpt lat="42.364796" lon="2.167340">
        <ele>1501.0</ele>
        <time>2014-06-12T14:33:07Z</time>
      </trkpt>
      <trkpt lat="42.364842" lon="2.167408">
        <ele>1502.0</ele>
        <time>2014-06-12T14:33:17Z</time>
      </trkpt>
      <trkpt lat="42.364886" lon="2.167471">
        <ele>1503.0</ele>
        <time>2014-06-12T14:33:26Z</time>
      </trkpt>
      <trkpt lat="42.364890" lon="2.167480">
        <ele>1504.0</ele>
        <time>2014-06-12T14:33:28Z</time>
      </trkpt>
      <trkpt lat="42.364918" lon="2.167523">
        <ele>1505.0</ele>
        <time>2014-06-12T14:33:34Z</time>
      </trkpt>
      <trkpt lat="42.364939" lon="2.167549">
        <ele>1506.0</ele>
        <time>2014-06-12T14:33:39Z</time>
      </trkpt>
      <trkpt lat="42.364955" lon="2.167594">
        <ele>1507.0</ele>
        <time>2014-06-12T14:33:46Z</time>
      </trkpt>
      <trkpt lat="42.364909" lon="2.167626">
        <ele>1505.6</ele>
        <time>2014-06-12T14:33:56Z</time>
      </trkpt>
      <trkpt lat="42.364863" lon="2.167653">
        <ele>1506.0</ele>
        <time>2014-06-12T14:34:04Z</time>
      </trkpt>
      <trkpt lat="42.364885" lon="2.167677">
        <ele>1505.1</ele>
        <time>2014-06-12T14:34:08Z</time>
      </trkpt>
      <trkpt lat="42.364892" lon="2.167679">
        <ele>1504.1</ele>
        <time>2014-06-12T14:34:10Z</time>
      </trkpt>
      <trkpt lat="42.364878" lon="2.167684">
        <ele>1502.2</ele>
        <time>2014-06-12T14:34:13Z</time>
      </trkpt>
      <trkpt lat="42.364834" lon="2.167705">
        <ele>1498.3</ele>
        <time>2014-06-12T14:34:20Z</time>
      </trkpt>
      <trkpt lat="42.364754" lon="2.167738">
        <ele>1496.4</ele>
        <time>2014-06-12T14:34:29Z</time>
      </trkpt>
      <trkpt lat="42.364713" lon="2.167762">
        <ele>1495.0</ele>
        <time>2014-06-12T14:34:36Z</time>
      </trkpt>
      <trkpt lat="42.364694" lon="2.167785">
        <ele>1495.0</ele>
        <time>2014-06-12T14:34:40Z</time>
      </trkpt>
      <trkpt lat="42.364827" lon="2.167869">
        <ele>1495.0</ele>
        <time>2014-06-12T14:34:54Z</time>
      </trkpt>
      <trkpt lat="42.364844" lon="2.167874">
        <ele>1494.0</ele>
        <time>2014-06-12T14:34:56Z</time>
      </trkpt>
      <trkpt lat="42.364874" lon="2.167888">
        <ele>1490.2</ele>
        <time>2014-06-12T14:35:00Z</time>
      </trkpt>
      <trkpt lat="42.364948" lon="2.167896">
        <ele>1487.3</ele>
        <time>2014-06-12T14:35:07Z</time>
      </trkpt>
      <trkpt lat="42.364973" lon="2.167907">
        <ele>1486.8</ele>
        <time>2014-06-12T14:35:10Z</time>
      </trkpt>
      <trkpt lat="42.365051" lon="2.167926">
        <ele>1485.4</ele>
        <time>2014-06-12T14:35:18Z</time>
      </trkpt>
      <trkpt lat="42.365081" lon="2.167936">
        <ele>1484.9</ele>
        <time>2014-06-12T14:35:21Z</time>
      </trkpt>
      <trkpt lat="42.365172" lon="2.167943">
        <ele>1484.9</ele>
        <time>2014-06-12T14:35:30Z</time>
      </trkpt>
      <trkpt lat="42.365220" lon="2.167935">
        <ele>1483.4</ele>
        <time>2014-06-12T14:35:34Z</time>
      </trkpt>
      <trkpt lat="42.365229" lon="2.167934">
        <ele>1480.1</ele>
        <time>2014-06-12T14:35:38Z</time>
      </trkpt>
      <trkpt lat="42.365260" lon="2.167922">
        <ele>1476.7</ele>
        <time>2014-06-12T14:35:45Z</time>
      </trkpt>
      <trkpt lat="42.365278" lon="2.167962">
        <ele>1475.3</ele>
        <time>2014-06-12T14:35:56Z</time>
      </trkpt>
      <trkpt lat="42.365294" lon="2.167962">
        <ele>1475.3</ele>
        <time>2014-06-12T14:36:01Z</time>
      </trkpt>
      <trkpt lat="42.365294" lon="2.167962">
        <ele>1475.3</ele>
        <time>2014-06-12T14:36:04Z</time>
      </trkpt>
      <trkpt lat="42.365331" lon="2.167915">
        <ele>1475.8</ele>
        <time>2014-06-12T14:36:16Z</time>
      </trkpt>
      <trkpt lat="42.365338" lon="2.167903">
        <ele>1475.8</ele>
        <time>2014-06-12T14:36:31Z</time>
      </trkpt>
      <trkpt lat="42.365335" lon="2.167906">
        <ele>1475.8</ele>
        <time>2014-06-12T14:36:49Z</time>
      </trkpt>
      <trkpt lat="42.365335" lon="2.167906">
        <ele>1475.8</ele>
        <time>2014-06-12T14:37:15Z</time>
      </trkpt>
      <trkpt lat="42.365397" lon="2.167851">
        <ele>1475.3</ele>
        <time>2014-06-12T14:37:27Z</time>
      </trkpt>
      <trkpt lat="42.365419" lon="2.167838">
        <ele>1474.8</ele>
        <time>2014-06-12T14:37:30Z</time>
      </trkpt>
      <trkpt lat="42.365438" lon="2.167795">
        <ele>1473.4</ele>
        <time>2014-06-12T14:37:36Z</time>
      </trkpt>
      <trkpt lat="42.365419" lon="2.167653">
        <ele>1472.4</ele>
        <time>2014-06-12T14:37:51Z</time>
      </trkpt>
      <trkpt lat="42.365421" lon="2.167600">
        <ele>1472.4</ele>
        <time>2014-06-12T14:37:56Z</time>
      </trkpt>
      <trkpt lat="42.365412" lon="2.167564">
        <ele>1472.4</ele>
        <time>2014-06-12T14:37:59Z</time>
      </trkpt>
      <trkpt lat="42.365403" lon="2.167557">
        <ele>1472.4</ele>
        <time>2014-06-12T14:38:08Z</time>
      </trkpt>
      <trkpt lat="42.365442" lon="2.167532">
        <ele>1472.9</ele>
        <time>2014-06-12T14:38:20Z</time>
      </trkpt>
      <trkpt lat="42.365478" lon="2.167484">
        <ele>1471.4</ele>
        <time>2014-06-12T14:38:25Z</time>
      </trkpt>
      <trkpt lat="42.365517" lon="2.167426">
        <ele>1466.6</ele>
        <time>2014-06-12T14:38:30Z</time>
      </trkpt>
      <trkpt lat="42.365632" lon="2.167272">
        <ele>1469.0</ele>
        <time>2014-06-12T14:38:39Z</time>
      </trkpt>
      <trkpt lat="42.365773" lon="2.167246">
        <ele>1472.9</ele>
        <time>2014-06-12T14:38:47Z</time>
      </trkpt>
      <trkpt lat="42.365788" lon="2.167235">
        <ele>1472.9</ele>
        <time>2014-06-12T14:38:48Z</time>
      </trkpt>
      <trkpt lat="42.365900" lon="2.167068">
        <ele>1475.3</ele>
        <time>2014-06-12T14:39:02Z</time>
      </trkpt>
      <trkpt lat="42.365940" lon="2.166942">
        <ele>1475.3</ele>
        <time>2014-06-12T14:39:08Z</time>
      </trkpt>
      <trkpt lat="42.366104" lon="2.166779">
        <ele>1475.8</ele>
        <time>2014-06-12T14:39:17Z</time>
      </trkpt>
      <trkpt lat="42.366159" lon="2.166720">
        <ele>1474.3</ele>
        <time>2014-06-12T14:39:20Z</time>
      </trkpt>
      <trkpt lat="42.366223" lon="2.166674">
        <ele>1471.4</ele>
        <time>2014-06-12T14:39:23Z</time>
      </trkpt>
      <trkpt lat="42.366306" lon="2.166635">
        <ele>1467.6</ele>
        <time>2014-06-12T14:39:27Z</time>
      </trkpt>
      <trkpt lat="42.366372" lon="2.166624">
        <ele>1466.6</ele>
        <time>2014-06-12T14:39:30Z</time>
      </trkpt>
      <trkpt lat="42.366568" lon="2.166588">
        <ele>1464.7</ele>
        <time>2014-06-12T14:39:38Z</time>
      </trkpt>
      <trkpt lat="42.366687" lon="2.166552">
        <ele>1466.2</ele>
        <time>2014-06-12T14:39:42Z</time>
      </trkpt>
      <trkpt lat="42.366749" lon="2.166500">
        <ele>1468.6</ele>
        <time>2014-06-12T14:39:45Z</time>
      </trkpt>
      <trkpt lat="42.366841" lon="2.166433">
        <ele>1472.4</ele>
        <time>2014-06-12T14:39:50Z</time>
      </trkpt>
      <trkpt lat="42.366968" lon="2.166381">
        <ele>1473.8</ele>
        <time>2014-06-12T14:40:02Z</time>
      </trkpt>
      <trkpt lat="42.367007" lon="2.166394">
        <ele>1474.3</ele>
        <time>2014-06-12T14:40:05Z</time>
      </trkpt>
      <trkpt lat="42.367025" lon="2.166388">
        <ele>1474.3</ele>
        <time>2014-06-12T14:40:08Z</time>
      </trkpt>
      <trkpt lat="42.367111" lon="2.166353">
        <ele>1475.8</ele>
        <time>2014-06-12T14:40:20Z</time>
      </trkpt>
      <trkpt lat="42.367123" lon="2.166353">
        <ele>1475.8</ele>
        <time>2014-06-12T14:40:21Z</time>
      </trkpt>
      <trkpt lat="42.367262" lon="2.166303">
        <ele>1477.2</ele>
        <time>2014-06-12T14:40:30Z</time>
      </trkpt>
      <trkpt lat="42.367307" lon="2.166284">
        <ele>1480.1</ele>
        <time>2014-06-12T14:40:33Z</time>
      </trkpt>
      <trkpt lat="42.367367" lon="2.166246">
        <ele>1484.4</ele>
        <time>2014-06-12T14:40:37Z</time>
      </trkpt>
      <trkpt lat="42.367397" lon="2.166236">
        <ele>1486.3</ele>
        <time>2014-06-12T14:40:39Z</time>
      </trkpt>
      <trkpt lat="42.367535" lon="2.166129">
        <ele>1487.3</ele>
        <time>2014-06-12T14:40:47Z</time>
      </trkpt>
      <trkpt lat="42.367718" lon="2.166031">
        <ele>1488.7</ele>
        <time>2014-06-12T14:40:58Z</time>
      </trkpt>
      <trkpt lat="42.367769" lon="2.166003">
        <ele>1491.1</ele>
        <time>2014-06-12T14:41:01Z</time>
      </trkpt>
      <trkpt lat="42.367831" lon="2.165980">
        <ele>1494.5</ele>
        <time>2014-06-12T14:41:06Z</time>
      </trkpt>
      <trkpt lat="42.367923" lon="2.165921">
        <ele>1495.9</ele>
        <time>2014-06-12T14:41:11Z</time>
      </trkpt>
      <trkpt lat="42.367977" lon="2.165886">
        <ele>1496.4</ele>
        <time>2014-06-12T14:41:15Z</time>
      </trkpt>
      <trkpt lat="42.368079" lon="2.165834">
        <ele>1497.4</ele>
        <time>2014-06-12T14:41:20Z</time>
      </trkpt>
      <trkpt lat="42.368284" lon="2.165696">
        <ele>1499.8</ele>
        <time>2014-06-12T14:41:30Z</time>
      </trkpt>
      <trkpt lat="42.368339" lon="2.165651">
        <ele>1503.2</ele>
        <time>2014-06-12T14:41:33Z</time>
      </trkpt>
      <trkpt lat="42.368385" lon="2.165630">
        <ele>1506.5</ele>
        <time>2014-06-12T14:41:36Z</time>
      </trkpt>
      <trkpt lat="42.368613" lon="2.165508">
        <ele>1509.9</ele>
        <time>2014-06-12T14:41:50Z</time>
      </trkpt>
      <trkpt lat="42.368678" lon="2.165468">
        <ele>1510.8</ele>
        <time>2014-06-12T14:41:54Z</time>
      </trkpt>
      <trkpt lat="42.368899" lon="2.165424">
        <ele>1513.2</ele>
        <time>2014-06-12T14:42:06Z</time>
      </trkpt>
      <trkpt lat="42.368951" lon="2.165412">
        <ele>1514.2</ele>
        <time>2014-06-12T14:42:10Z</time>
      </trkpt>
      <trkpt lat="42.369140" lon="2.165327">
        <ele>1515.7</ele>
        <time>2014-06-12T14:42:21Z</time>
      </trkpt>
      <trkpt lat="42.369238" lon="2.165237">
        <ele>1516.1</ele>
        <time>2014-06-12T14:42:26Z</time>
      </trkpt>
      <trkpt lat="42.369313" lon="2.165134">
        <ele>1516.6</ele>
        <time>2014-06-12T14:42:31Z</time>
      </trkpt>
      <trkpt lat="42.369393" lon="2.164940">
        <ele>1517.1</ele>
        <time>2014-06-12T14:42:39Z</time>
      </trkpt>
      <trkpt lat="42.369627" lon="2.164737">
        <ele>1518.5</ele>
        <time>2014-06-12T14:42:49Z</time>
      </trkpt>
      <trkpt lat="42.369756" lon="2.164609">
        <ele>1519.5</ele>
        <time>2014-06-12T14:42:55Z</time>
      </trkpt>
      <trkpt lat="42.369763" lon="2.164592">
        <ele>1519.5</ele>
        <time>2014-06-12T14:42:56Z</time>
      </trkpt>
      <trkpt lat="42.369975" lon="2.164422">
        <ele>1519.0</ele>
        <time>2014-06-12T14:43:06Z</time>
      </trkpt>
      <trkpt lat="42.370048" lon="2.164343">
        <ele>1517.1</ele>
        <time>2014-06-12T14:43:09Z</time>
      </trkpt>
      <trkpt lat="42.370089" lon="2.164264">
        <ele>1512.8</ele>
        <time>2014-06-12T14:43:13Z</time>
      </trkpt>
      <trkpt lat="42.370118" lon="2.164240">
        <ele>1511.3</ele>
        <time>2014-06-12T14:43:16Z</time>
      </trkpt>
      <trkpt lat="42.370233" lon="2.164090">
        <ele>1511.3</ele>
        <time>2014-06-12T14:43:23Z</time>
      </trkpt>
      <trkpt lat="42.370340" lon="2.163803">
        <ele>1512.8</ele>
        <time>2014-06-12T14:43:34Z</time>
      </trkpt>
      <trkpt lat="42.370401" lon="2.163747">
        <ele>1512.8</ele>
        <time>2014-06-12T14:43:38Z</time>
      </trkpt>
      <trkpt lat="42.370472" lon="2.163707">
        <ele>1513.7</ele>
        <time>2014-06-12T14:43:43Z</time>
      </trkpt>
      <trkpt lat="42.370539" lon="2.163680">
        <ele>1513.7</ele>
        <time>2014-06-12T14:43:48Z</time>
      </trkpt>
      <trkpt lat="42.370595" lon="2.163694">
        <ele>1513.7</ele>
        <time>2014-06-12T14:43:51Z</time>
      </trkpt>
      <trkpt lat="42.370629" lon="2.163750">
        <ele>1513.7</ele>
        <time>2014-06-12T14:43:56Z</time>
      </trkpt>
      <trkpt lat="42.370629" lon="2.163750">
        <ele>1513.7</ele>
        <time>2014-06-12T14:44:00Z</time>
      </trkpt>
      <trkpt lat="42.370628" lon="2.163750">
        <ele>1513.7</ele>
        <time>2014-06-12T14:44:13Z</time>
      </trkpt>
      <trkpt lat="42.370665" lon="2.163793">
        <ele>1514.2</ele>
        <time>2014-06-12T14:44:24Z</time>
      </trkpt>
      <trkpt lat="42.370661" lon="2.163793">
        <ele>1514.2</ele>
        <time>2014-06-12T14:44:30Z</time>
      </trkpt>
      <trkpt lat="42.370665" lon="2.163793">
        <ele>1514.7</ele>
        <time>2014-06-12T14:44:48Z</time>
      </trkpt>
      <trkpt lat="42.370672" lon="2.163792">
        <ele>1514.7</ele>
        <time>2014-06-12T14:45:02Z</time>
      </trkpt>
      <trkpt lat="42.370704" lon="2.163670">
        <ele>1515.7</ele>
        <time>2014-06-12T14:45:13Z</time>
      </trkpt>
      <trkpt lat="42.370849" lon="2.163634">
        <ele>1517.1</ele>
        <time>2014-06-12T14:45:25Z</time>
      </trkpt>
      <trkpt lat="42.370870" lon="2.163629">
        <ele>1517.1</ele>
        <time>2014-06-12T14:45:28Z</time>
      </trkpt>
      <trkpt lat="42.370922" lon="2.163574">
        <ele>1520.5</ele>
        <time>2014-06-12T14:45:33Z</time>
      </trkpt>
      <trkpt lat="42.370989" lon="2.163491">
        <ele>1523.8</ele>
        <time>2014-06-12T14:45:39Z</time>
      </trkpt>
      <trkpt lat="42.371132" lon="2.163516">
        <ele>1525.8</ele>
        <time>2014-06-12T14:45:49Z</time>
      </trkpt>
      <trkpt lat="42.371177" lon="2.163478">
        <ele>1525.8</ele>
        <time>2014-06-12T14:45:52Z</time>
      </trkpt>
      <trkpt lat="42.371278" lon="2.163479">
        <ele>1526.2</ele>
        <time>2014-06-12T14:45:59Z</time>
      </trkpt>
      <trkpt lat="42.371290" lon="2.163480">
        <ele>1526.2</ele>
        <time>2014-06-12T14:46:00Z</time>
      </trkpt>
      <trkpt lat="42.371352" lon="2.163470">
        <ele>1529.6</ele>
        <time>2014-06-12T14:46:04Z</time>
      </trkpt>
      <trkpt lat="42.371394" lon="2.163467">
        <ele>1532.5</ele>
        <time>2014-06-12T14:46:07Z</time>
      </trkpt>
      <trkpt lat="42.371491" lon="2.163471">
        <ele>1536.3</ele>
        <time>2014-06-12T14:46:13Z</time>
      </trkpt>
      <trkpt lat="42.371651" lon="2.163519">
        <ele>1537.8</ele>
        <time>2014-06-12T14:46:23Z</time>
      </trkpt>
      <trkpt lat="42.371780" lon="2.163493">
        <ele>1538.7</ele>
        <time>2014-06-12T14:46:30Z</time>
      </trkpt>
      <trkpt lat="42.371812" lon="2.163470">
        <ele>1539.7</ele>
        <time>2014-06-12T14:46:33Z</time>
      </trkpt>
      <trkpt lat="42.371957" lon="2.163426">
        <ele>1538.7</ele>
        <time>2014-06-12T14:46:43Z</time>
      </trkpt>
      <trkpt lat="42.371987" lon="2.163411">
        <ele>1539.7</ele>
        <time>2014-06-12T14:46:46Z</time>
      </trkpt>
      <trkpt lat="42.372017" lon="2.163331">
        <ele>1543.5</ele>
        <time>2014-06-12T14:46:51Z</time>
      </trkpt>
      <trkpt lat="42.372034" lon="2.163167">
        <ele>1548.3</ele>
        <time>2014-06-12T14:46:56Z</time>
      </trkpt>
      <trkpt lat="42.372034" lon="2.163167">
        <ele>1548.8</ele>
        <time>2014-06-12T14:46:58Z</time>
      </trkpt>
      <trkpt lat="42.371996" lon="2.163285">
        <ele>1551.2</ele>
        <time>2014-06-12T14:47:09Z</time>
      </trkpt>
      <trkpt lat="42.372059" lon="2.163214">
        <ele>1553.6</ele>
        <time>2014-06-12T14:47:18Z</time>
      </trkpt>
      <trkpt lat="42.372093" lon="2.163205">
        <ele>1554.1</ele>
        <time>2014-06-12T14:47:22Z</time>
      </trkpt>
      <trkpt lat="42.372112" lon="2.163257">
        <ele>1554.6</ele>
        <time>2014-06-12T14:47:25Z</time>
      </trkpt>
      <trkpt lat="42.372098" lon="2.163376">
        <ele>1555.6</ele>
        <time>2014-06-12T14:47:40Z</time>
      </trkpt>
      <trkpt lat="42.372113" lon="2.163504">
        <ele>1557.5</ele>
        <time>2014-06-12T14:47:52Z</time>
      </trkpt>
      <trkpt lat="42.372172" lon="2.163601">
        <ele>1558.9</ele>
        <time>2014-06-12T14:48:00Z</time>
      </trkpt>
      <trkpt lat="42.372209" lon="2.163635">
        <ele>1559.9</ele>
        <time>2014-06-12T14:48:03Z</time>
      </trkpt>
      <trkpt lat="42.372220" lon="2.163654">
        <ele>1559.9</ele>
        <time>2014-06-12T14:48:05Z</time>
      </trkpt>
      <trkpt lat="42.372232" lon="2.163724">
        <ele>1559.9</ele>
        <time>2014-06-12T14:48:15Z</time>
      </trkpt>
      <trkpt lat="42.372232" lon="2.163724">
        <ele>1559.9</ele>
        <time>2014-06-12T14:48:33Z</time>
      </trkpt>
      <trkpt lat="42.372243" lon="2.163783">
        <ele>1559.9</ele>
        <time>2014-06-12T14:48:43Z</time>
      </trkpt>
      <trkpt lat="42.372263" lon="2.163804">
        <ele>1559.9</ele>
        <time>2014-06-12T14:48:47Z</time>
      </trkpt>
      <trkpt lat="42.372270" lon="2.163739">
        <ele>1559.9</ele>
        <time>2014-06-12T14:49:00Z</time>
      </trkpt>
      <trkpt lat="42.372269" lon="2.163634">
        <ele>1558.4</ele>
        <time>2014-06-12T14:49:13Z</time>
      </trkpt>
      <trkpt lat="42.372285" lon="2.163603">
        <ele>1559.4</ele>
        <time>2014-06-12T14:49:16Z</time>
      </trkpt>
      <trkpt lat="42.372329" lon="2.163566">
        <ele>1563.7</ele>
        <time>2014-06-12T14:49:21Z</time>
      </trkpt>
      <trkpt lat="42.372341" lon="2.163561">
        <ele>1564.7</ele>
        <time>2014-06-12T14:49:22Z</time>
      </trkpt>
      <trkpt lat="42.372449" lon="2.163478">
        <ele>1568.5</ele>
        <time>2014-06-12T14:49:32Z</time>
      </trkpt>
      <trkpt lat="42.372479" lon="2.163425">
        <ele>1569.0</ele>
        <time>2014-06-12T14:49:36Z</time>
      </trkpt>
      <trkpt lat="42.372580" lon="2.163300">
        <ele>1570.9</ele>
        <time>2014-06-12T14:49:43Z</time>
      </trkpt>
      <trkpt lat="42.372629" lon="2.163306">
        <ele>1571.4</ele>
        <time>2014-06-12T14:49:47Z</time>
      </trkpt>
      <trkpt lat="42.372674" lon="2.163292">
        <ele>1571.4</ele>
        <time>2014-06-12T14:49:50Z</time>
      </trkpt>
      <trkpt lat="42.372794" lon="2.163299">
        <ele>1571.4</ele>
        <time>2014-06-12T14:49:57Z</time>
      </trkpt>
      <trkpt lat="42.372817" lon="2.163294">
        <ele>1571.9</ele>
        <time>2014-06-12T14:49:59Z</time>
      </trkpt>
      <trkpt lat="42.372915" lon="2.163241">
        <ele>1576.7</ele>
        <time>2014-06-12T14:50:05Z</time>
      </trkpt>
      <trkpt lat="42.372927" lon="2.163234">
        <ele>1577.2</ele>
        <time>2014-06-12T14:50:06Z</time>
      </trkpt>
      <trkpt lat="42.373017" lon="2.163132">
        <ele>1581.0</ele>
        <time>2014-06-12T14:50:15Z</time>
      </trkpt>
      <trkpt lat="42.373083" lon="2.163080">
        <ele>1581.5</ele>
        <time>2014-06-12T14:50:21Z</time>
      </trkpt>
      <trkpt lat="42.373137" lon="2.163031">
        <ele>1581.5</ele>
        <time>2014-06-12T14:50:25Z</time>
      </trkpt>
      <trkpt lat="42.373234" lon="2.162887">
        <ele>1582.9</ele>
        <time>2014-06-12T14:50:33Z</time>
      </trkpt>
      <trkpt lat="42.373263" lon="2.162892">
        <ele>1586.8</ele>
        <time>2014-06-12T14:50:37Z</time>
      </trkpt>
      <trkpt lat="42.373285" lon="2.162897">
        <ele>1588.7</ele>
        <time>2014-06-12T14:50:39Z</time>
      </trkpt>
      <trkpt lat="42.373315" lon="2.162918">
        <ele>1591.6</ele>
        <time>2014-06-12T14:50:43Z</time>
      </trkpt>
      <trkpt lat="42.373330" lon="2.162857">
        <ele>1593.0</ele>
        <time>2014-06-12T14:50:49Z</time>
      </trkpt>
      <trkpt lat="42.373377" lon="2.162799">
        <ele>1594.5</ele>
        <time>2014-06-12T14:50:55Z</time>
      </trkpt>
      <trkpt lat="42.373393" lon="2.162725">
        <ele>1595.0</ele>
        <time>2014-06-12T14:50:59Z</time>
      </trkpt>
      <trkpt lat="42.373461" lon="2.162574">
        <ele>1596.9</ele>
        <time>2014-06-12T14:51:10Z</time>
      </trkpt>
      <trkpt lat="42.373470" lon="2.162529">
        <ele>1599.3</ele>
        <time>2014-06-12T14:51:13Z</time>
      </trkpt>
      <trkpt lat="42.373532" lon="2.162438">
        <ele>1602.7</ele>
        <time>2014-06-12T14:51:21Z</time>
      </trkpt>
      <trkpt lat="42.373556" lon="2.162347">
        <ele>1603.1</ele>
        <time>2014-06-12T14:51:25Z</time>
      </trkpt>
      <trkpt lat="42.373635" lon="2.162188">
        <ele>1604.6</ele>
        <time>2014-06-12T14:51:32Z</time>
      </trkpt>
      <trkpt lat="42.373659" lon="2.162082">
        <ele>1604.6</ele>
        <time>2014-06-12T14:51:38Z</time>
      </trkpt>
      <trkpt lat="42.373660" lon="2.161993">
        <ele>1604.6</ele>
        <time>2014-06-12T14:51:42Z</time>
      </trkpt>
      <trkpt lat="42.373669" lon="2.161968">
        <ele>1605.1</ele>
        <time>2014-06-12T14:51:43Z</time>
      </trkpt>
      <trkpt lat="42.373717" lon="2.161841">
        <ele>1607.9</ele>
        <time>2014-06-12T14:51:47Z</time>
      </trkpt>
      <trkpt lat="42.373792" lon="2.161668">
        <ele>1612.3</ele>
        <time>2014-06-12T14:51:55Z</time>
      </trkpt>
      <trkpt lat="42.373845" lon="2.161613">
        <ele>1613.2</ele>
        <time>2014-06-12T14:52:04Z</time>
      </trkpt>
      <trkpt lat="42.373835" lon="2.161761">
        <ele>1613.2</ele>
        <time>2014-06-12T14:52:11Z</time>
      </trkpt>
      <trkpt lat="42.373821" lon="2.162006">
        <ele>1613.7</ele>
        <time>2014-06-12T14:52:19Z</time>
      </trkpt>
      <trkpt lat="42.373818" lon="2.162027">
        <ele>1613.7</ele>
        <time>2014-06-12T14:52:21Z</time>
      </trkpt>
      <trkpt lat="42.373838" lon="2.162024">
        <ele>1614.7</ele>
        <time>2014-06-12T14:52:23Z</time>
      </trkpt>
      <trkpt lat="42.373886" lon="2.161972">
        <ele>1618.5</ele>
        <time>2014-06-12T14:52:27Z</time>
      </trkpt>
      <trkpt lat="42.373924" lon="2.161911">
        <ele>1622.4</ele>
        <time>2014-06-12T14:52:31Z</time>
      </trkpt>
      <trkpt lat="42.374026" lon="2.161578">
        <ele>1623.0</ele>
        <time>2014-06-12T15:10:26Z</time>
      </trkpt>
      <trkpt lat="42.374119" lon="2.161509">
        <ele>1624.0</ele>
        <time>2014-06-12T15:10:35Z</time>
      </trkpt>
      <trkpt lat="42.374212" lon="2.161526">
        <ele>1624.0</ele>
        <time>2014-06-12T15:10:46Z</time>
      </trkpt>
      <trkpt lat="42.374232" lon="2.161516">
        <ele>1625.0</ele>
        <time>2014-06-12T15:10:58Z</time>
      </trkpt>
      <trkpt lat="42.374230" lon="2.161548">
        <ele>1626.0</ele>
        <time>2014-06-12T15:11:09Z</time>
      </trkpt>
      <trkpt lat="42.374239" lon="2.161590">
        <ele>1626.0</ele>
        <time>2014-06-12T15:11:21Z</time>
      </trkpt>
      <trkpt lat="42.374232" lon="2.161616">
        <ele>1627.0</ele>
        <time>2014-06-12T15:11:25Z</time>
      </trkpt>
      <trkpt lat="42.374194" lon="2.161707">
        <ele>1627.0</ele>
        <time>2014-06-12T15:11:38Z</time>
      </trkpt>
      <trkpt lat="42.374195" lon="2.161699">
        <ele>1628.0</ele>
        <time>2014-06-12T15:11:50Z</time>
      </trkpt>
      <trkpt lat="42.374195" lon="2.161699">
        <ele>1628.0</ele>
        <time>2014-06-12T15:12:03Z</time>
      </trkpt>
      <trkpt lat="42.374220" lon="2.161704">
        <ele>1629.0</ele>
        <time>2014-06-12T15:12:16Z</time>
      </trkpt>
      <trkpt lat="42.374223" lon="2.161812">
        <ele>1629.0</ele>
        <time>2014-06-12T15:12:26Z</time>
      </trkpt>
      <trkpt lat="42.374195" lon="2.161854">
        <ele>1630.0</ele>
        <time>2014-06-12T15:12:38Z</time>
      </trkpt>
      <trkpt lat="42.374195" lon="2.161854">
        <ele>1630.0</ele>
        <time>2014-06-12T15:12:50Z</time>
      </trkpt>
      <trkpt lat="42.374177" lon="2.161949">
        <ele>1630.0</ele>
        <time>2014-06-12T15:13:01Z</time>
      </trkpt>
      <trkpt lat="42.374176" lon="2.161961">
        <ele>1631.0</ele>
        <time>2014-06-12T15:13:02Z</time>
      </trkpt>
      <trkpt lat="42.374186" lon="2.162006">
        <ele>1631.0</ele>
        <time>2014-06-12T15:13:08Z</time>
      </trkpt>
      <trkpt lat="42.374188" lon="2.162020">
        <ele>1631.0</ele>
        <time>2014-06-12T15:13:21Z</time>
      </trkpt>
      <trkpt lat="42.374194" lon="2.162036">
        <ele>1630.1</ele>
        <time>2014-06-12T15:13:31Z</time>
      </trkpt>
      <trkpt lat="42.374165" lon="2.162196">
        <ele>1631.0</ele>
        <time>2014-06-12T15:13:41Z</time>
      </trkpt>
      <trkpt lat="42.374147" lon="2.162322">
        <ele>1632.0</ele>
        <time>2014-06-12T15:13:52Z</time>
      </trkpt>
      <trkpt lat="42.374146" lon="2.162319">
        <ele>1632.9</ele>
        <time>2014-06-12T15:13:57Z</time>
      </trkpt>
      <trkpt lat="42.374176" lon="2.162288">
        <ele>1634.4</ele>
        <time>2014-06-12T15:14:07Z</time>
      </trkpt>
      <trkpt lat="42.374198" lon="2.162275">
        <ele>1635.3</ele>
        <time>2014-06-12T15:14:15Z</time>
      </trkpt>
      <trkpt lat="42.374241" lon="2.162244">
        <ele>1636.3</ele>
        <time>2014-06-12T15:14:24Z</time>
      </trkpt>
      <trkpt lat="42.374241" lon="2.162244">
        <ele>1637.3</ele>
        <time>2014-06-12T15:14:37Z</time>
      </trkpt>
      <trkpt lat="42.374241" lon="2.162244">
        <ele>1638.7</ele>
        <time>2014-06-12T15:14:48Z</time>
      </trkpt>
      <trkpt lat="42.374239" lon="2.162302">
        <ele>1640.2</ele>
        <time>2014-06-12T15:15:00Z</time>
      </trkpt>
      <trkpt lat="42.374239" lon="2.162302">
        <ele>1641.1</ele>
        <time>2014-06-12T15:15:20Z</time>
      </trkpt>
      <trkpt lat="42.374265" lon="2.162328">
        <ele>1641.6</ele>
        <time>2014-06-12T15:15:36Z</time>
      </trkpt>
      <trkpt lat="42.374282" lon="2.162462">
        <ele>1643.0</ele>
        <time>2014-06-12T15:15:49Z</time>
      </trkpt>
      <trkpt lat="42.374282" lon="2.162472">
        <ele>1644.5</ele>
        <time>2014-06-12T15:16:03Z</time>
      </trkpt>
      <trkpt lat="42.374280" lon="2.162475">
        <ele>1644.9</ele>
        <time>2014-06-12T15:16:31Z</time>
      </trkpt>
      <trkpt lat="42.374274" lon="2.162518">
        <ele>1644.9</ele>
        <time>2014-06-12T15:16:47Z</time>
      </trkpt>
      <trkpt lat="42.374271" lon="2.162558">
        <ele>1645.9</ele>
        <time>2014-06-12T15:17:00Z</time>
      </trkpt>
      <trkpt lat="42.374271" lon="2.162558">
        <ele>1646.4</ele>
        <time>2014-06-12T15:17:14Z</time>
      </trkpt>
      <trkpt lat="42.374275" lon="2.162563">
        <ele>1646.9</ele>
        <time>2014-06-12T15:17:19Z</time>
      </trkpt>
      <trkpt lat="42.374289" lon="2.162556">
        <ele>1647.4</ele>
        <time>2014-06-12T15:17:22Z</time>
      </trkpt>
      <trkpt lat="42.374355" lon="2.162523">
        <ele>1648.8</ele>
        <time>2014-06-12T15:17:32Z</time>
      </trkpt>
      <trkpt lat="42.374369" lon="2.162505">
        <ele>1649.8</ele>
        <time>2014-06-12T15:17:42Z</time>
      </trkpt>
      <trkpt lat="42.374384" lon="2.162521">
        <ele>1650.7</ele>
        <time>2014-06-12T15:17:53Z</time>
      </trkpt>
      <trkpt lat="42.374383" lon="2.162580">
        <ele>1652.6</ele>
        <time>2014-06-12T15:18:05Z</time>
      </trkpt>
      <trkpt lat="42.374385" lon="2.162609">
        <ele>1653.6</ele>
        <time>2014-06-12T15:18:17Z</time>
      </trkpt>
      <trkpt lat="42.374386" lon="2.162625">
        <ele>1654.6</ele>
        <time>2014-06-12T15:18:23Z</time>
      </trkpt>
      <trkpt lat="42.374379" lon="2.162688">
        <ele>1655.1</ele>
        <time>2014-06-12T15:18:27Z</time>
      </trkpt>
      <trkpt lat="42.374329" lon="2.162833">
        <ele>1656.5</ele>
        <time>2014-06-12T15:18:38Z</time>
      </trkpt>
      <trkpt lat="42.374329" lon="2.162833">
        <ele>1657.0</ele>
        <time>2014-06-12T15:18:41Z</time>
      </trkpt>
      <trkpt lat="42.374366" lon="2.162772">
        <ele>1657.9</ele>
        <time>2014-06-12T15:18:51Z</time>
      </trkpt>
      <trkpt lat="42.374419" lon="2.162697">
        <ele>1659.4</ele>
        <time>2014-06-12T15:19:03Z</time>
      </trkpt>
      <trkpt lat="42.374433" lon="2.162671">
        <ele>1660.8</ele>
        <time>2014-06-12T15:19:15Z</time>
      </trkpt>
      <trkpt lat="42.374433" lon="2.162671">
        <ele>1660.8</ele>
        <time>2014-06-12T15:19:16Z</time>
      </trkpt>
      <trkpt lat="42.374440" lon="2.162664">
        <ele>1661.8</ele>
        <time>2014-06-12T15:19:23Z</time>
      </trkpt>
      <trkpt lat="42.374438" lon="2.162567">
        <ele>1662.3</ele>
        <time>2014-06-12T15:19:30Z</time>
      </trkpt>
      <trkpt lat="42.374445" lon="2.162496">
        <ele>1662.3</ele>
        <time>2014-06-12T15:19:33Z</time>
      </trkpt>
      <trkpt lat="42.374444" lon="2.162443">
        <ele>1662.7</ele>
        <time>2014-06-12T15:19:36Z</time>
      </trkpt>
      <trkpt lat="42.374461" lon="2.162374">
        <ele>1663.7</ele>
        <time>2014-06-12T15:19:48Z</time>
      </trkpt>
      <trkpt lat="42.374461" lon="2.162371">
        <ele>1664.2</ele>
        <time>2014-06-12T15:20:09Z</time>
      </trkpt>
      <trkpt lat="42.374459" lon="2.162320">
        <ele>1664.2</ele>
        <time>2014-06-12T15:20:27Z</time>
      </trkpt>
      <trkpt lat="42.374457" lon="2.162291">
        <ele>1664.7</ele>
        <time>2014-06-12T15:20:30Z</time>
      </trkpt>
      <trkpt lat="42.374465" lon="2.162180">
        <ele>1665.6</ele>
        <time>2014-06-12T15:20:41Z</time>
      </trkpt>
      <trkpt lat="42.374506" lon="2.162062">
        <ele>1667.5</ele>
        <time>2014-06-12T15:20:53Z</time>
      </trkpt>
      <trkpt lat="42.374524" lon="2.162035">
        <ele>1668.5</ele>
        <time>2014-06-12T15:21:03Z</time>
      </trkpt>
      <trkpt lat="42.374555" lon="2.161997">
        <ele>1670.4</ele>
        <time>2014-06-12T15:21:14Z</time>
      </trkpt>
      <trkpt lat="42.374564" lon="2.161976">
        <ele>1671.4</ele>
        <time>2014-06-12T15:21:24Z</time>
      </trkpt>
      <trkpt lat="42.374586" lon="2.161922">
        <ele>1672.3</ele>
        <time>2014-06-12T15:21:28Z</time>
      </trkpt>
      <trkpt lat="42.374606" lon="2.161884">
        <ele>1672.8</ele>
        <time>2014-06-12T15:21:31Z</time>
      </trkpt>
      <trkpt lat="42.374679" lon="2.161793">
        <ele>1674.3</ele>
        <time>2014-06-12T15:21:41Z</time>
      </trkpt>
      <trkpt lat="42.374791" lon="2.161758">
        <ele>1676.2</ele>
        <time>2014-06-12T15:21:53Z</time>
      </trkpt>
      <trkpt lat="42.374808" lon="2.161756">
        <ele>1676.7</ele>
        <time>2014-06-12T15:21:55Z</time>
      </trkpt>
      <trkpt lat="42.374866" lon="2.161745">
        <ele>1677.2</ele>
        <time>2014-06-12T15:22:05Z</time>
      </trkpt>
      <trkpt lat="42.374941" lon="2.161799">
        <ele>1677.6</ele>
        <time>2014-06-12T15:22:15Z</time>
      </trkpt>
      <trkpt lat="42.374981" lon="2.161847">
        <ele>1678.1</ele>
        <time>2014-06-12T15:22:20Z</time>
      </trkpt>
      <trkpt lat="42.375026" lon="2.161870">
        <ele>1678.1</ele>
        <time>2014-06-12T15:22:25Z</time>
      </trkpt>
      <trkpt lat="42.375100" lon="2.161854">
        <ele>1679.6</ele>
        <time>2014-06-12T15:22:35Z</time>
      </trkpt>
      <trkpt lat="42.375197" lon="2.161838">
        <ele>1679.6</ele>
        <time>2014-06-12T15:22:47Z</time>
      </trkpt>
      <trkpt lat="42.375268" lon="2.161787">
        <ele>1679.6</ele>
        <time>2014-06-12T15:22:56Z</time>
      </trkpt>
      <trkpt lat="42.375317" lon="2.161736">
        <ele>1679.6</ele>
        <time>2014-06-12T15:23:05Z</time>
      </trkpt>
      <trkpt lat="42.375324" lon="2.161731">
        <ele>1678.6</ele>
        <time>2014-06-12T15:23:17Z</time>
      </trkpt>
      <trkpt lat="42.375324" lon="2.161731">
        <ele>1678.1</ele>
        <time>2014-06-12T15:23:41Z</time>
      </trkpt>
      <trkpt lat="42.375327" lon="2.161734">
        <ele>1678.1</ele>
        <time>2014-06-12T15:24:05Z</time>
      </trkpt>
      <trkpt lat="42.375350" lon="2.161735">
        <ele>1678.1</ele>
        <time>2014-06-12T15:24:11Z</time>
      </trkpt>
      <trkpt lat="42.375378" lon="2.161725">
        <ele>1678.1</ele>
        <time>2014-06-12T15:24:23Z</time>
      </trkpt>
      <trkpt lat="42.375378" lon="2.161725">
        <ele>1678.1</ele>
        <time>2014-06-12T15:24:24Z</time>
      </trkpt>
      <trkpt lat="42.375472" lon="2.161662">
        <ele>1678.1</ele>
        <time>2014-06-12T15:24:36Z</time>
      </trkpt>
      <trkpt lat="42.375643" lon="2.161645">
        <ele>1677.2</ele>
        <time>2014-06-12T15:24:49Z</time>
      </trkpt>
      <trkpt lat="42.375710" lon="2.161622">
        <ele>1676.7</ele>
        <time>2014-06-12T15:24:57Z</time>
      </trkpt>
      <trkpt lat="42.375736" lon="2.161570">
        <ele>1675.7</ele>
        <time>2014-06-12T15:25:06Z</time>
      </trkpt>
      <trkpt lat="42.375826" lon="2.161596">
        <ele>1674.8</ele>
        <time>2014-06-12T15:25:20Z</time>
      </trkpt>
      <trkpt lat="42.375839" lon="2.161605">
        <ele>1674.8</ele>
        <time>2014-06-12T15:25:32Z</time>
      </trkpt>
      <trkpt lat="42.375871" lon="2.161617">
        <ele>1674.8</ele>
        <time>2014-06-12T15:25:40Z</time>
      </trkpt>
      <trkpt lat="42.375924" lon="2.161642">
        <ele>1674.3</ele>
        <time>2014-06-12T15:25:45Z</time>
      </trkpt>
      <trkpt lat="42.375943" lon="2.161697">
        <ele>1674.3</ele>
        <time>2014-06-12T15:25:47Z</time>
      </trkpt>
      <trkpt lat="42.376027" lon="2.161814">
        <ele>1673.8</ele>
        <time>2014-06-12T15:25:54Z</time>
      </trkpt>
      <trkpt lat="42.376186" lon="2.161867">
        <ele>1673.8</ele>
        <time>2014-06-12T15:26:05Z</time>
      </trkpt>
      <trkpt lat="42.376305" lon="2.161833">
        <ele>1673.3</ele>
        <time>2014-06-12T15:26:16Z</time>
      </trkpt>
      <trkpt lat="42.376329" lon="2.161837">
        <ele>1673.3</ele>
        <time>2014-06-12T15:26:17Z</time>
      </trkpt>
      <trkpt lat="42.376534" lon="2.161804">
        <ele>1672.8</ele>
        <time>2014-06-12T15:26:31Z</time>
      </trkpt>
      <trkpt lat="42.376572" lon="2.161784">
        <ele>1672.3</ele>
        <time>2014-06-12T15:26:37Z</time>
      </trkpt>
      <trkpt lat="42.376653" lon="2.161728">
        <ele>1672.3</ele>
        <time>2014-06-12T15:26:44Z</time>
      </trkpt>
      <trkpt lat="42.376745" lon="2.161710">
        <ele>1672.3</ele>
        <time>2014-06-12T15:26:52Z</time>
      </trkpt>
      <trkpt lat="42.376789" lon="2.161698">
        <ele>1671.9</ele>
        <time>2014-06-12T15:27:03Z</time>
      </trkpt>
      <trkpt lat="42.376783" lon="2.161702">
        <ele>1671.9</ele>
        <time>2014-06-12T15:27:19Z</time>
      </trkpt>
      <trkpt lat="42.376813" lon="2.161666">
        <ele>1671.9</ele>
        <time>2014-06-12T15:27:36Z</time>
      </trkpt>
      <trkpt lat="42.376861" lon="2.161623">
        <ele>1671.9</ele>
        <time>2014-06-12T15:27:48Z</time>
      </trkpt>
      <trkpt lat="42.376942" lon="2.161551">
        <ele>1672.3</ele>
        <time>2014-06-12T15:27:58Z</time>
      </trkpt>
      <trkpt lat="42.377007" lon="2.161491">
        <ele>1673.3</ele>
        <time>2014-06-12T15:28:09Z</time>
      </trkpt>
      <trkpt lat="42.377027" lon="2.161473">
        <ele>1673.8</ele>
        <time>2014-06-12T15:28:19Z</time>
      </trkpt>
      <trkpt lat="42.377144" lon="2.161367">
        <ele>1674.8</ele>
        <time>2014-06-12T15:28:31Z</time>
      </trkpt>
      <trkpt lat="42.377182" lon="2.161342">
        <ele>1675.2</ele>
        <time>2014-06-12T15:28:42Z</time>
      </trkpt>
      <trkpt lat="42.377185" lon="2.161343">
        <ele>1675.7</ele>
        <time>2014-06-12T15:28:53Z</time>
      </trkpt>
      <trkpt lat="42.377275" lon="2.161279">
        <ele>1676.2</ele>
        <time>2014-06-12T15:29:04Z</time>
      </trkpt>
      <trkpt lat="42.377383" lon="2.161204">
        <ele>1677.2</ele>
        <time>2014-06-12T15:29:14Z</time>
      </trkpt>
      <trkpt lat="42.377464" lon="2.161151">
        <ele>1677.6</ele>
        <time>2014-06-12T15:29:25Z</time>
      </trkpt>
      <trkpt lat="42.377497" lon="2.161106">
        <ele>1678.6</ele>
        <time>2014-06-12T15:29:29Z</time>
      </trkpt>
      <trkpt lat="42.377601" lon="2.161048">
        <ele>1679.1</ele>
        <time>2014-06-12T15:29:38Z</time>
      </trkpt>
      <trkpt lat="42.377710" lon="2.160996">
        <ele>1679.6</ele>
        <time>2014-06-12T15:29:49Z</time>
      </trkpt>
      <trkpt lat="42.377731" lon="2.160980">
        <ele>1680.0</ele>
        <time>2014-06-12T15:30:01Z</time>
      </trkpt>
      <trkpt lat="42.377731" lon="2.160980">
        <ele>1680.0</ele>
        <time>2014-06-12T15:30:05Z</time>
      </trkpt>
      <trkpt lat="42.377757" lon="2.160978">
        <ele>1680.5</ele>
        <time>2014-06-12T15:30:16Z</time>
      </trkpt>
      <trkpt lat="42.377803" lon="2.160952">
        <ele>1681.0</ele>
        <time>2014-06-12T15:30:28Z</time>
      </trkpt>
      <trkpt lat="42.377839" lon="2.160948">
        <ele>1682.4</ele>
        <time>2014-06-12T15:30:39Z</time>
      </trkpt>
      <trkpt lat="42.377896" lon="2.160930">
        <ele>1682.9</ele>
        <time>2014-06-12T15:30:50Z</time>
      </trkpt>
      <trkpt lat="42.377903" lon="2.160915">
        <ele>1682.9</ele>
        <time>2014-06-12T15:31:01Z</time>
      </trkpt>
      <trkpt lat="42.377940" lon="2.160889">
        <ele>1683.4</ele>
        <time>2014-06-12T15:31:11Z</time>
      </trkpt>
      <trkpt lat="42.378076" lon="2.160822">
        <ele>1684.8</ele>
        <time>2014-06-12T15:31:22Z</time>
      </trkpt>
      <trkpt lat="42.378257" lon="2.160787">
        <ele>1686.8</ele>
        <time>2014-06-12T15:31:35Z</time>
      </trkpt>
      <trkpt lat="42.378415" lon="2.160718">
        <ele>1687.7</ele>
        <time>2014-06-12T15:31:43Z</time>
      </trkpt>
      <trkpt lat="42.378613" lon="2.160633">
        <ele>1688.7</ele>
        <time>2014-06-12T15:31:52Z</time>
      </trkpt>
      <trkpt lat="42.378725" lon="2.160474">
        <ele>1688.7</ele>
        <time>2014-06-12T15:32:03Z</time>
      </trkpt>
      <trkpt lat="42.378743" lon="2.160468">
        <ele>1689.7</ele>
        <time>2014-06-12T15:32:12Z</time>
      </trkpt>
      <trkpt lat="42.378745" lon="2.160471">
        <ele>1690.6</ele>
        <time>2014-06-12T15:32:22Z</time>
      </trkpt>
      <trkpt lat="42.378746" lon="2.160462">
        <ele>1691.1</ele>
        <time>2014-06-12T15:32:25Z</time>
      </trkpt>
      <trkpt lat="42.378774" lon="2.160443">
        <ele>1691.1</ele>
        <time>2014-06-12T15:32:29Z</time>
      </trkpt>
      <trkpt lat="42.378847" lon="2.160360">
        <ele>1692.1</ele>
        <time>2014-06-12T15:32:37Z</time>
      </trkpt>
      <trkpt lat="42.378893" lon="2.160339">
        <ele>1692.5</ele>
        <time>2014-06-12T15:32:41Z</time>
      </trkpt>
      <trkpt lat="42.378959" lon="2.160333">
        <ele>1694.5</ele>
        <time>2014-06-12T15:32:55Z</time>
      </trkpt>
      <trkpt lat="42.379033" lon="2.160316">
        <ele>1695.4</ele>
        <time>2014-06-12T15:33:07Z</time>
      </trkpt>
      <trkpt lat="42.379120" lon="2.160259">
        <ele>1697.3</ele>
        <time>2014-06-12T15:33:17Z</time>
      </trkpt>
      <trkpt lat="42.379162" lon="2.160236">
        <ele>1697.3</ele>
        <time>2014-06-12T15:33:21Z</time>
      </trkpt>
      <trkpt lat="42.379235" lon="2.160133">
        <ele>1698.8</ele>
        <time>2014-06-12T15:33:34Z</time>
      </trkpt>
      <trkpt lat="42.379304" lon="2.160081">
        <ele>1700.7</ele>
        <time>2014-06-12T15:33:47Z</time>
      </trkpt>
      <trkpt lat="42.379304" lon="2.160081">
        <ele>1701.2</ele>
        <time>2014-06-12T15:33:51Z</time>
      </trkpt>
      <trkpt lat="42.379324" lon="2.160063">
        <ele>1703.1</ele>
        <time>2014-06-12T15:34:01Z</time>
      </trkpt>
      <trkpt lat="42.379333" lon="2.160042">
        <ele>1704.6</ele>
        <time>2014-06-12T15:34:11Z</time>
      </trkpt>
      <trkpt lat="42.379412" lon="2.159999">
        <ele>1706.0</ele>
        <time>2014-06-12T15:34:21Z</time>
      </trkpt>
      <trkpt lat="42.379418" lon="2.159989">
        <ele>1707.9</ele>
        <time>2014-06-12T15:34:32Z</time>
      </trkpt>
      <trkpt lat="42.379479" lon="2.159942">
        <ele>1709.4</ele>
        <time>2014-06-12T15:34:43Z</time>
      </trkpt>
      <trkpt lat="42.379548" lon="2.159909">
        <ele>1710.8</ele>
        <time>2014-06-12T15:34:50Z</time>
      </trkpt>
      <trkpt lat="42.379593" lon="2.159914">
        <ele>1711.8</ele>
        <time>2014-06-12T15:35:01Z</time>
      </trkpt>
      <trkpt lat="42.379590" lon="2.159914">
        <ele>1713.2</ele>
        <time>2014-06-12T15:35:12Z</time>
      </trkpt>
      <trkpt lat="42.379620" lon="2.159924">
        <ele>1714.7</ele>
        <time>2014-06-12T15:35:22Z</time>
      </trkpt>
      <trkpt lat="42.379672" lon="2.159920">
        <ele>1715.6</ele>
        <time>2014-06-12T15:35:33Z</time>
      </trkpt>
      <trkpt lat="42.379785" lon="2.160007">
        <ele>1717.5</ele>
        <time>2014-06-12T15:35:44Z</time>
      </trkpt>
      <trkpt lat="42.379930" lon="2.160010">
        <ele>1718.5</ele>
        <time>2014-06-12T15:35:59Z</time>
      </trkpt>
      <trkpt lat="42.380052" lon="2.159967">
        <ele>1719.0</ele>
        <time>2014-06-12T15:36:10Z</time>
      </trkpt>
      <trkpt lat="42.380068" lon="2.159995">
        <ele>1719.0</ele>
        <time>2014-06-12T15:36:23Z</time>
      </trkpt>
      <trkpt lat="42.380094" lon="2.160048">
        <ele>1722.3</ele>
        <time>2014-06-12T15:39:34Z</time>
      </trkpt>
      <trkpt lat="42.380094" lon="2.160068">
        <ele>1722.8</ele>
        <time>2014-06-12T15:39:58Z</time>
      </trkpt>
      <trkpt lat="42.380093" lon="2.160078">
        <ele>1722.8</ele>
        <time>2014-06-12T15:39:59Z</time>
      </trkpt>
      <trkpt lat="42.380081" lon="2.160205">
        <ele>1724.3</ele>
        <time>2014-06-12T15:40:12Z</time>
      </trkpt>
      <trkpt lat="42.380062" lon="2.160297">
        <ele>1725.2</ele>
        <time>2014-06-12T15:40:25Z</time>
      </trkpt>
      <trkpt lat="42.380089" lon="2.160333">
        <ele>1727.2</ele>
        <time>2014-06-12T15:40:39Z</time>
      </trkpt>
      <trkpt lat="42.380089" lon="2.160333">
        <ele>1728.6</ele>
        <time>2014-06-12T15:40:58Z</time>
      </trkpt>
      <trkpt lat="42.380100" lon="2.160342">
        <ele>1729.1</ele>
        <time>2014-06-12T15:41:13Z</time>
      </trkpt>
      <trkpt lat="42.380100" lon="2.160342">
        <ele>1730.5</ele>
        <time>2014-06-12T15:41:21Z</time>
      </trkpt>
      <trkpt lat="42.380115" lon="2.160331">
        <ele>1730.5</ele>
        <time>2014-06-12T15:41:24Z</time>
      </trkpt>
      <trkpt lat="42.380175" lon="2.160328">
        <ele>1731.5</ele>
        <time>2014-06-12T15:41:38Z</time>
      </trkpt>
      <trkpt lat="42.380326" lon="2.160232">
        <ele>1732.4</ele>
        <time>2014-06-12T15:41:49Z</time>
      </trkpt>
      <trkpt lat="42.380365" lon="2.160218">
        <ele>1733.4</ele>
        <time>2014-06-12T15:41:53Z</time>
      </trkpt>
      <trkpt lat="42.380414" lon="2.160163">
        <ele>1734.4</ele>
        <time>2014-06-12T15:42:03Z</time>
      </trkpt>
      <trkpt lat="42.380477" lon="2.160155">
        <ele>1736.3</ele>
        <time>2014-06-12T15:42:15Z</time>
      </trkpt>
      <trkpt lat="42.380521" lon="2.160172">
        <ele>1737.2</ele>
        <time>2014-06-12T15:42:25Z</time>
      </trkpt>
      <trkpt lat="42.380521" lon="2.160172">
        <ele>1737.7</ele>
        <time>2014-06-12T15:42:49Z</time>
      </trkpt>
      <trkpt lat="42.380557" lon="2.160235">
        <ele>1738.2</ele>
        <time>2014-06-12T15:43:03Z</time>
      </trkpt>
      <trkpt lat="42.380583" lon="2.160272">
        <ele>1738.7</ele>
        <time>2014-06-12T15:43:08Z</time>
      </trkpt>
      <trkpt lat="42.380619" lon="2.160350">
        <ele>1740.1</ele>
        <time>2014-06-12T15:43:17Z</time>
      </trkpt>
      <trkpt lat="42.380671" lon="2.160343">
        <ele>1742.1</ele>
        <time>2014-06-12T15:43:28Z</time>
      </trkpt>
      <trkpt lat="42.380716" lon="2.160327">
        <ele>1743.5</ele>
        <time>2014-06-12T15:43:38Z</time>
      </trkpt>
      <trkpt lat="42.380724" lon="2.160321">
        <ele>1745.4</ele>
        <time>2014-06-12T15:43:48Z</time>
      </trkpt>
      <trkpt lat="42.380803" lon="2.160294">
        <ele>1747.8</ele>
        <time>2014-06-12T15:44:00Z</time>
      </trkpt>
      <trkpt lat="42.380814" lon="2.160295">
        <ele>1748.8</ele>
        <time>2014-06-12T15:44:06Z</time>
      </trkpt>
      <trkpt lat="42.380845" lon="2.160355">
        <ele>1748.8</ele>
        <time>2014-06-12T15:44:11Z</time>
      </trkpt>
      <trkpt lat="42.380857" lon="2.160412">
        <ele>1749.3</ele>
        <time>2014-06-12T15:44:20Z</time>
      </trkpt>
      <trkpt lat="42.380909" lon="2.160400">
        <ele>1749.7</ele>
        <time>2014-06-12T15:44:24Z</time>
      </trkpt>
      <trkpt lat="42.380945" lon="2.160374">
        <ele>1749.7</ele>
        <time>2014-06-12T15:44:30Z</time>
      </trkpt>
      <trkpt lat="42.381032" lon="2.160332">
        <ele>1750.2</ele>
        <time>2014-06-12T15:44:37Z</time>
      </trkpt>
      <trkpt lat="42.381102" lon="2.160336">
        <ele>1751.2</ele>
        <time>2014-06-12T15:44:50Z</time>
      </trkpt>
      <trkpt lat="42.381100" lon="2.160347">
        <ele>1751.2</ele>
        <time>2014-06-12T15:44:52Z</time>
      </trkpt>
      <trkpt lat="42.381131" lon="2.160351">
        <ele>1752.6</ele>
        <time>2014-06-12T15:45:01Z</time>
      </trkpt>
      <trkpt lat="42.381175" lon="2.160347">
        <ele>1752.6</ele>
        <time>2014-06-12T15:45:15Z</time>
      </trkpt>
      <trkpt lat="42.381280" lon="2.160296">
        <ele>1754.1</ele>
        <time>2014-06-12T15:45:29Z</time>
      </trkpt>
      <trkpt lat="42.381431" lon="2.160266">
        <ele>1756.0</ele>
        <time>2014-06-12T15:45:40Z</time>
      </trkpt>
      <trkpt lat="42.381431" lon="2.160266">
        <ele>1757.4</ele>
        <time>2014-06-12T15:45:51Z</time>
      </trkpt>
      <trkpt lat="42.381451" lon="2.160252">
        <ele>1759.8</ele>
        <time>2014-06-12T15:46:12Z</time>
      </trkpt>
      <trkpt lat="42.381637" lon="2.160127">
        <ele>1762.2</ele>
        <time>2014-06-12T15:46:26Z</time>
      </trkpt>
      <trkpt lat="42.381655" lon="2.160189">
        <ele>1763.2</ele>
        <time>2014-06-12T15:46:37Z</time>
      </trkpt>
      <trkpt lat="42.381655" lon="2.160189">
        <ele>1764.6</ele>
        <time>2014-06-12T15:46:44Z</time>
      </trkpt>
      <trkpt lat="42.381721" lon="2.160207">
        <ele>1765.6</ele>
        <time>2014-06-12T15:46:56Z</time>
      </trkpt>
      <trkpt lat="42.381743" lon="2.160234">
        <ele>1766.6</ele>
        <time>2014-06-12T15:47:06Z</time>
      </trkpt>
      <trkpt lat="42.381743" lon="2.160234">
        <ele>1766.6</ele>
        <time>2014-06-12T15:47:07Z</time>
      </trkpt>
      <trkpt lat="42.381804" lon="2.160207">
        <ele>1767.0</ele>
        <time>2014-06-12T15:47:19Z</time>
      </trkpt>
      <trkpt lat="42.381798" lon="2.160209">
        <ele>1767.0</ele>
        <time>2014-06-12T15:47:35Z</time>
      </trkpt>
      <trkpt lat="42.381955" lon="2.160084">
        <ele>1767.0</ele>
        <time>2014-06-12T15:47:59Z</time>
      </trkpt>
      <trkpt lat="42.381983" lon="2.160042">
        <ele>1767.0</ele>
        <time>2014-06-12T15:48:19Z</time>
      </trkpt>
      <trkpt lat="42.382197" lon="2.159777">
        <ele>1767.0</ele>
        <time>2014-06-12T15:48:35Z</time>
      </trkpt>
      <trkpt lat="42.382448" lon="2.159583">
        <ele>1768.0</ele>
        <time>2014-06-12T15:48:47Z</time>
      </trkpt>
      <trkpt lat="42.382500" lon="2.159553">
        <ele>1770.9</ele>
        <time>2014-06-12T15:54:10Z</time>
      </trkpt>
      <trkpt lat="42.382584" lon="2.159443">
        <ele>1771.4</ele>
        <time>2014-06-12T15:54:21Z</time>
      </trkpt>
      <trkpt lat="42.382654" lon="2.159352">
        <ele>1771.4</ele>
        <time>2014-06-12T15:54:29Z</time>
      </trkpt>
      <trkpt lat="42.382756" lon="2.159232">
        <ele>1772.3</ele>
        <time>2014-06-12T15:54:41Z</time>
      </trkpt>
      <trkpt lat="42.382834" lon="2.159156">
        <ele>1773.3</ele>
        <time>2014-06-12T15:54:52Z</time>
      </trkpt>
      <trkpt lat="42.382907" lon="2.159083">
        <ele>1774.2</ele>
        <time>2014-06-12T15:54:59Z</time>
      </trkpt>
      <trkpt lat="42.382942" lon="2.159040">
        <ele>1774.7</ele>
        <time>2014-06-12T15:55:04Z</time>
      </trkpt>
      <trkpt lat="42.382978" lon="2.159001">
        <ele>1775.7</ele>
        <time>2014-06-12T15:55:16Z</time>
      </trkpt>
      <trkpt lat="42.383021" lon="2.158950">
        <ele>1775.7</ele>
        <time>2014-06-12T15:55:23Z</time>
      </trkpt>
      <trkpt lat="42.383082" lon="2.158817">
        <ele>1776.7</ele>
        <time>2014-06-12T15:55:35Z</time>
      </trkpt>
      <trkpt lat="42.383164" lon="2.158733">
        <ele>1777.1</ele>
        <time>2014-06-12T15:55:45Z</time>
      </trkpt>
      <trkpt lat="42.383348" lon="2.158627">
        <ele>1778.1</ele>
        <time>2014-06-12T15:55:57Z</time>
      </trkpt>
      <trkpt lat="42.383495" lon="2.158572">
        <ele>1779.1</ele>
        <time>2014-06-12T15:56:11Z</time>
      </trkpt>
      <trkpt lat="42.383589" lon="2.158509">
        <ele>1780.5</ele>
        <time>2014-06-12T15:56:24Z</time>
      </trkpt>
      <trkpt lat="42.383594" lon="2.158454">
        <ele>1782.4</ele>
        <time>2014-06-12T15:56:36Z</time>
      </trkpt>
      <trkpt lat="42.383652" lon="2.158408">
        <ele>1783.9</ele>
        <time>2014-06-12T15:56:47Z</time>
      </trkpt>
      <trkpt lat="42.383671" lon="2.158414">
        <ele>1784.8</ele>
        <time>2014-06-12T15:56:50Z</time>
      </trkpt>
      <trkpt lat="42.383728" lon="2.158413">
        <ele>1785.3</ele>
        <time>2014-06-12T15:57:00Z</time>
      </trkpt>
      <trkpt lat="42.383806" lon="2.158412">
        <ele>1786.8</ele>
        <time>2014-06-12T15:57:11Z</time>
      </trkpt>
      <trkpt lat="42.383822" lon="2.158405">
        <ele>1787.2</ele>
        <time>2014-06-12T15:57:13Z</time>
      </trkpt>
      <trkpt lat="42.383914" lon="2.158454">
        <ele>1787.7</ele>
        <time>2014-06-12T15:57:25Z</time>
      </trkpt>
      <trkpt lat="42.384104" lon="2.158492">
        <ele>1787.2</ele>
        <time>2014-06-12T15:57:39Z</time>
      </trkpt>
      <trkpt lat="42.384198" lon="2.158511">
        <ele>1787.2</ele>
        <time>2014-06-12T15:57:51Z</time>
      </trkpt>
      <trkpt lat="42.384273" lon="2.158510">
        <ele>1787.7</ele>
        <time>2014-06-12T15:58:03Z</time>
      </trkpt>
      <trkpt lat="42.384352" lon="2.158423">
        <ele>1788.7</ele>
        <time>2014-06-12T15:58:17Z</time>
      </trkpt>
      <trkpt lat="42.384352" lon="2.158425">
        <ele>1789.2</ele>
        <time>2014-06-12T15:58:29Z</time>
      </trkpt>
      <trkpt lat="42.384355" lon="2.158423">
        <ele>1789.6</ele>
        <time>2014-06-12T15:58:41Z</time>
      </trkpt>
      <trkpt lat="42.384454" lon="2.158418">
        <ele>1790.6</ele>
        <time>2014-06-12T15:58:55Z</time>
      </trkpt>
      <trkpt lat="42.384679" lon="2.158327">
        <ele>1791.1</ele>
        <time>2014-06-12T15:59:06Z</time>
      </trkpt>
      <trkpt lat="42.384716" lon="2.158332">
        <ele>1792.5</ele>
        <time>2014-06-12T15:59:17Z</time>
      </trkpt>
      <trkpt lat="42.384846" lon="2.158325">
        <ele>1794.4</ele>
        <time>2014-06-12T15:59:31Z</time>
      </trkpt>
      <trkpt lat="42.384963" lon="2.158331">
        <ele>1795.9</ele>
        <time>2014-06-12T15:59:43Z</time>
      </trkpt>
      <trkpt lat="42.385018" lon="2.158339">
        <ele>1797.8</ele>
        <time>2014-06-12T15:59:55Z</time>
      </trkpt>
      <trkpt lat="42.385128" lon="2.158339">
        <ele>1799.7</ele>
        <time>2014-06-12T16:00:10Z</time>
      </trkpt>
      <trkpt lat="42.385198" lon="2.158319">
        <ele>1800.7</ele>
        <time>2014-06-12T16:00:23Z</time>
      </trkpt>
      <trkpt lat="42.385235" lon="2.158294">
        <ele>1801.7</ele>
        <time>2014-06-12T16:00:36Z</time>
      </trkpt>
      <trkpt lat="42.385369" lon="2.158282">
        <ele>1802.1</ele>
        <time>2014-06-12T16:00:47Z</time>
      </trkpt>
      <trkpt lat="42.385417" lon="2.158342">
        <ele>1803.1</ele>
        <time>2014-06-12T16:00:57Z</time>
      </trkpt>
      <trkpt lat="42.385479" lon="2.158379">
        <ele>1804.1</ele>
        <time>2014-06-12T16:01:07Z</time>
      </trkpt>
      <trkpt lat="42.385540" lon="2.158408">
        <ele>1806.0</ele>
        <time>2014-06-12T16:01:20Z</time>
      </trkpt>
      <trkpt lat="42.385603" lon="2.158413">
        <ele>1807.9</ele>
        <time>2014-06-12T16:01:32Z</time>
      </trkpt>
      <trkpt lat="42.385660" lon="2.158363">
        <ele>1809.3</ele>
        <time>2014-06-12T16:01:43Z</time>
      </trkpt>
      <trkpt lat="42.385732" lon="2.158333">
        <ele>1811.3</ele>
        <time>2014-06-12T16:01:54Z</time>
      </trkpt>
      <trkpt lat="42.385775" lon="2.158303">
        <ele>1812.2</ele>
        <time>2014-06-12T16:02:05Z</time>
      </trkpt>
      <trkpt lat="42.385792" lon="2.158250">
        <ele>1813.7</ele>
        <time>2014-06-12T16:02:19Z</time>
      </trkpt>
      <trkpt lat="42.385789" lon="2.158244">
        <ele>1814.2</ele>
        <time>2014-06-12T16:02:21Z</time>
      </trkpt>
      <trkpt lat="42.385721" lon="2.158178">
        <ele>1815.1</ele>
        <time>2014-06-12T16:02:32Z</time>
      </trkpt>
      <trkpt lat="42.385684" lon="2.158139">
        <ele>1815.6</ele>
        <time>2014-06-12T16:02:39Z</time>
      </trkpt>
      <trkpt lat="42.385611" lon="2.158027">
        <ele>1816.6</ele>
        <time>2014-06-12T16:02:51Z</time>
      </trkpt>
      <trkpt lat="42.385566" lon="2.157944">
        <ele>1817.5</ele>
        <time>2014-06-12T16:03:04Z</time>
      </trkpt>
      <trkpt lat="42.385584" lon="2.157898">
        <ele>1818.9</ele>
        <time>2014-06-12T16:03:15Z</time>
      </trkpt>
      <trkpt lat="42.385592" lon="2.157891">
        <ele>1819.4</ele>
        <time>2014-06-12T16:03:17Z</time>
      </trkpt>
      <trkpt lat="42.385648" lon="2.157878">
        <ele>1819.9</ele>
        <time>2014-06-12T16:03:24Z</time>
      </trkpt>
      <trkpt lat="42.385751" lon="2.157836">
        <ele>1820.9</ele>
        <time>2014-06-12T16:03:36Z</time>
      </trkpt>
      <trkpt lat="42.385801" lon="2.157866">
        <ele>1822.3</ele>
        <time>2014-06-12T16:03:48Z</time>
      </trkpt>
      <trkpt lat="42.385865" lon="2.157805">
        <ele>1823.3</ele>
        <time>2014-06-12T16:04:00Z</time>
      </trkpt>
      <trkpt lat="42.385943" lon="2.157830">
        <ele>1825.2</ele>
        <time>2014-06-12T16:04:13Z</time>
      </trkpt>
      <trkpt lat="42.385980" lon="2.157894">
        <ele>1826.2</ele>
        <time>2014-06-12T16:04:24Z</time>
      </trkpt>
      <trkpt lat="42.386026" lon="2.157876">
        <ele>1827.1</ele>
        <time>2014-06-12T16:04:36Z</time>
      </trkpt>
      <trkpt lat="42.386047" lon="2.157875">
        <ele>1828.6</ele>
        <time>2014-06-12T16:04:48Z</time>
      </trkpt>
      <trkpt lat="42.386095" lon="2.157830">
        <ele>1830.5</ele>
        <time>2014-06-12T16:05:03Z</time>
      </trkpt>
      <trkpt lat="42.386145" lon="2.157804">
        <ele>1832.9</ele>
        <time>2014-06-12T16:05:17Z</time>
      </trkpt>
      <trkpt lat="42.386136" lon="2.157741">
        <ele>1834.3</ele>
        <time>2014-06-12T16:05:29Z</time>
      </trkpt>
      <trkpt lat="42.386147" lon="2.157652">
        <ele>1835.8</ele>
        <time>2014-06-12T16:05:42Z</time>
      </trkpt>
      <trkpt lat="42.386172" lon="2.157616">
        <ele>1837.2</ele>
        <time>2014-06-12T16:05:53Z</time>
      </trkpt>
      <trkpt lat="42.386237" lon="2.157569">
        <ele>1838.7</ele>
        <time>2014-06-12T16:06:06Z</time>
      </trkpt>
      <trkpt lat="42.386298" lon="2.157526">
        <ele>1839.6</ele>
        <time>2014-06-12T16:06:18Z</time>
      </trkpt>
      <trkpt lat="42.386329" lon="2.157499">
        <ele>1841.1</ele>
        <time>2014-06-12T16:06:31Z</time>
      </trkpt>
      <trkpt lat="42.386319" lon="2.157442">
        <ele>1842.0</ele>
        <time>2014-06-12T16:06:41Z</time>
      </trkpt>
      <trkpt lat="42.386347" lon="2.157410">
        <ele>1843.0</ele>
        <time>2014-06-12T16:06:52Z</time>
      </trkpt>
      <trkpt lat="42.386389" lon="2.157368">
        <ele>1844.9</ele>
        <time>2014-06-12T16:07:02Z</time>
      </trkpt>
      <trkpt lat="42.386425" lon="2.157320">
        <ele>1846.3</ele>
        <time>2014-06-12T16:07:16Z</time>
      </trkpt>
      <trkpt lat="42.386484" lon="2.157277">
        <ele>1847.8</ele>
        <time>2014-06-12T16:07:30Z</time>
      </trkpt>
      <trkpt lat="42.386526" lon="2.157237">
        <ele>1849.2</ele>
        <time>2014-06-12T16:07:41Z</time>
      </trkpt>
      <trkpt lat="42.386540" lon="2.157152">
        <ele>1850.7</ele>
        <time>2014-06-12T16:07:53Z</time>
      </trkpt>
      <trkpt lat="42.386562" lon="2.157123">
        <ele>1852.6</ele>
        <time>2014-06-12T16:08:06Z</time>
      </trkpt>
      <trkpt lat="42.386619" lon="2.157079">
        <ele>1854.5</ele>
        <time>2014-06-12T16:08:20Z</time>
      </trkpt>
      <trkpt lat="42.386677" lon="2.157046">
        <ele>1855.5</ele>
        <time>2014-06-12T16:08:33Z</time>
      </trkpt>
      <trkpt lat="42.386725" lon="2.157030">
        <ele>1857.4</ele>
        <time>2014-06-12T16:08:45Z</time>
      </trkpt>
      <trkpt lat="42.386759" lon="2.157055">
        <ele>1858.4</ele>
        <time>2014-06-12T16:08:56Z</time>
      </trkpt>
      <trkpt lat="42.386824" lon="2.157026">
        <ele>1859.8</ele>
        <time>2014-06-12T16:09:07Z</time>
      </trkpt>
      <trkpt lat="42.386871" lon="2.157004">
        <ele>1860.8</ele>
        <time>2014-06-12T16:09:18Z</time>
      </trkpt>
      <trkpt lat="42.386890" lon="2.156954">
        <ele>1861.7</ele>
        <time>2014-06-12T16:09:31Z</time>
      </trkpt>
      <trkpt lat="42.386948" lon="2.156866">
        <ele>1862.7</ele>
        <time>2014-06-12T16:09:42Z</time>
      </trkpt>
      <trkpt lat="42.387004" lon="2.156784">
        <ele>1864.1</ele>
        <time>2014-06-12T16:09:54Z</time>
      </trkpt>
      <trkpt lat="42.387078" lon="2.156632">
        <ele>1864.6</ele>
        <time>2014-06-12T16:10:08Z</time>
      </trkpt>
      <trkpt lat="42.387083" lon="2.156617">
        <ele>1864.6</ele>
        <time>2014-06-12T16:10:09Z</time>
      </trkpt>
      <trkpt lat="42.387139" lon="2.156528">
        <ele>1865.1</ele>
        <time>2014-06-12T16:10:17Z</time>
      </trkpt>
      <trkpt lat="42.387245" lon="2.156431">
        <ele>1866.1</ele>
        <time>2014-06-12T16:10:31Z</time>
      </trkpt>
      <trkpt lat="42.387274" lon="2.156404">
        <ele>1867.0</ele>
        <time>2014-06-12T16:10:42Z</time>
      </trkpt>
      <trkpt lat="42.387290" lon="2.156388">
        <ele>1868.0</ele>
        <time>2014-06-12T16:10:51Z</time>
      </trkpt>
      <trkpt lat="42.387337" lon="2.156329">
        <ele>1868.0</ele>
        <time>2014-06-12T16:10:58Z</time>
      </trkpt>
      <trkpt lat="42.387478" lon="2.156207">
        <ele>1868.5</ele>
        <time>2014-06-12T16:11:09Z</time>
      </trkpt>
      <trkpt lat="42.387641" lon="2.156115">
        <ele>1869.4</ele>
        <time>2014-06-12T16:11:22Z</time>
      </trkpt>
      <trkpt lat="42.387683" lon="2.156082">
        <ele>1869.9</ele>
        <time>2014-06-12T16:11:29Z</time>
      </trkpt>
      <trkpt lat="42.387711" lon="2.156047">
        <ele>1870.4</ele>
        <time>2014-06-12T16:11:33Z</time>
      </trkpt>
      <trkpt lat="42.387794" lon="2.155990">
        <ele>1870.9</ele>
        <time>2014-06-12T16:11:44Z</time>
      </trkpt>
      <trkpt lat="42.387806" lon="2.155984">
        <ele>1870.9</ele>
        <time>2014-06-12T16:11:45Z</time>
      </trkpt>
      <trkpt lat="42.387875" lon="2.155905">
        <ele>1872.3</ele>
        <time>2014-06-12T16:11:58Z</time>
      </trkpt>
      <trkpt lat="42.387918" lon="2.155861">
        <ele>1872.3</ele>
        <time>2014-06-12T16:12:09Z</time>
      </trkpt>
      <trkpt lat="42.387935" lon="2.155839">
        <ele>1872.3</ele>
        <time>2014-06-12T16:12:12Z</time>
      </trkpt>
      <trkpt lat="42.388046" lon="2.155852">
        <ele>1873.8</ele>
        <time>2014-06-12T16:12:24Z</time>
      </trkpt>
      <trkpt lat="42.388105" lon="2.155837">
        <ele>1874.7</ele>
        <time>2014-06-12T16:12:36Z</time>
      </trkpt>
      <trkpt lat="42.388154" lon="2.155820">
        <ele>1874.7</ele>
        <time>2014-06-12T16:12:48Z</time>
      </trkpt>
      <trkpt lat="42.388219" lon="2.155800">
        <ele>1875.2</ele>
        <time>2014-06-12T16:12:58Z</time>
      </trkpt>
      <trkpt lat="42.388235" lon="2.155808">
        <ele>1876.2</ele>
        <time>2014-06-12T16:13:08Z</time>
      </trkpt>
      <trkpt lat="42.388292" lon="2.155810">
        <ele>1877.1</ele>
        <time>2014-06-12T16:13:18Z</time>
      </trkpt>
      <trkpt lat="42.388318" lon="2.155820">
        <ele>1877.1</ele>
        <time>2014-06-12T16:13:29Z</time>
      </trkpt>
      <trkpt lat="42.388363" lon="2.155842">
        <ele>1877.1</ele>
        <time>2014-06-12T16:13:40Z</time>
      </trkpt>
      <trkpt lat="42.388443" lon="2.155806">
        <ele>1876.2</ele>
        <time>2014-06-12T16:13:51Z</time>
      </trkpt>
      <trkpt lat="42.388439" lon="2.155800">
        <ele>1876.2</ele>
        <time>2014-06-12T16:13:53Z</time>
      </trkpt>
      <trkpt lat="42.388495" lon="2.155785">
        <ele>1876.2</ele>
        <time>2014-06-12T16:13:57Z</time>
      </trkpt>
      <trkpt lat="42.388542" lon="2.155763">
        <ele>1876.2</ele>
        <time>2014-06-12T16:14:01Z</time>
      </trkpt>
      <trkpt lat="42.388581" lon="2.155749">
        <ele>1876.2</ele>
        <time>2014-06-12T16:14:04Z</time>
      </trkpt>
      <trkpt lat="42.388745" lon="2.155718">
        <ele>1875.7</ele>
        <time>2014-06-12T16:14:17Z</time>
      </trkpt>
      <trkpt lat="42.388764" lon="2.155712">
        <ele>1875.7</ele>
        <time>2014-06-12T16:14:18Z</time>
      </trkpt>
      <trkpt lat="42.388936" lon="2.155600">
        <ele>1875.7</ele>
        <time>2014-06-12T16:14:30Z</time>
      </trkpt>
      <trkpt lat="42.389000" lon="2.155580">
        <ele>1877.1</ele>
        <time>2014-06-12T16:14:42Z</time>
      </trkpt>
      <trkpt lat="42.389098" lon="2.155599">
        <ele>1878.1</ele>
        <time>2014-06-12T16:14:54Z</time>
      </trkpt>
      <trkpt lat="42.389157" lon="2.155602">
        <ele>1880.0</ele>
        <time>2014-06-12T16:15:08Z</time>
      </trkpt>
      <trkpt lat="42.389198" lon="2.155591">
        <ele>1881.0</ele>
        <time>2014-06-12T16:15:18Z</time>
      </trkpt>
      <trkpt lat="42.389268" lon="2.155557">
        <ele>1882.9</ele>
        <time>2014-06-12T16:15:32Z</time>
      </trkpt>
      <trkpt lat="42.389353" lon="2.155507">
        <ele>1883.8</ele>
        <time>2014-06-12T16:15:45Z</time>
      </trkpt>
      <trkpt lat="42.389428" lon="2.155509">
        <ele>1885.3</ele>
        <time>2014-06-12T16:15:56Z</time>
      </trkpt>
      <trkpt lat="42.389462" lon="2.155496">
        <ele>1886.2</ele>
        <time>2014-06-12T16:16:08Z</time>
      </trkpt>
      <trkpt lat="42.389478" lon="2.155476">
        <ele>1886.2</ele>
        <time>2014-06-12T16:16:10Z</time>
      </trkpt>
      <trkpt lat="42.389539" lon="2.155447">
        <ele>1887.7</ele>
        <time>2014-06-12T16:16:22Z</time>
      </trkpt>
      <trkpt lat="42.389607" lon="2.155412">
        <ele>1888.7</ele>
        <time>2014-06-12T16:16:33Z</time>
      </trkpt>
      <trkpt lat="42.389660" lon="2.155388">
        <ele>1890.6</ele>
        <time>2014-06-12T16:16:45Z</time>
      </trkpt>
      <trkpt lat="42.389738" lon="2.155372">
        <ele>1892.0</ele>
        <time>2014-06-12T16:16:57Z</time>
      </trkpt>
      <trkpt lat="42.389738" lon="2.155358">
        <ele>1893.0</ele>
        <time>2014-06-12T16:17:12Z</time>
      </trkpt>
      <trkpt lat="42.389697" lon="2.155327">
        <ele>1893.4</ele>
        <time>2014-06-12T16:17:26Z</time>
      </trkpt>
      <trkpt lat="42.389634" lon="2.155283">
        <ele>1893.9</ele>
        <time>2014-06-12T16:17:37Z</time>
      </trkpt>
      <trkpt lat="42.389624" lon="2.155206">
        <ele>1895.4</ele>
        <time>2014-06-12T16:17:47Z</time>
      </trkpt>
      <trkpt lat="42.389688" lon="2.155184">
        <ele>1896.8</ele>
        <time>2014-06-12T16:17:59Z</time>
      </trkpt>
      <trkpt lat="42.389768" lon="2.155120">
        <ele>1897.8</ele>
        <time>2014-06-12T16:18:11Z</time>
      </trkpt>
      <trkpt lat="42.389843" lon="2.155064">
        <ele>1899.2</ele>
        <time>2014-06-12T16:18:22Z</time>
      </trkpt>
      <trkpt lat="42.389905" lon="2.154994">
        <ele>1900.2</ele>
        <time>2014-06-12T16:18:34Z</time>
      </trkpt>
      <trkpt lat="42.389964" lon="2.154937">
        <ele>1901.6</ele>
        <time>2014-06-12T16:18:45Z</time>
      </trkpt>
      <trkpt lat="42.390056" lon="2.154885">
        <ele>1902.6</ele>
        <time>2014-06-12T16:18:58Z</time>
      </trkpt>
      <trkpt lat="42.390097" lon="2.154923">
        <ele>1904.0</ele>
        <time>2014-06-12T16:19:09Z</time>
      </trkpt>
      <trkpt lat="42.390117" lon="2.154941">
        <ele>1905.0</ele>
        <time>2014-06-12T16:19:20Z</time>
      </trkpt>
      <trkpt lat="42.390146" lon="2.154968">
        <ele>1905.9</ele>
        <time>2014-06-12T16:19:30Z</time>
      </trkpt>
      <trkpt lat="42.390176" lon="2.155013">
        <ele>1906.9</ele>
        <time>2014-06-12T16:19:36Z</time>
      </trkpt>
      <trkpt lat="42.390242" lon="2.155047">
        <ele>1906.9</ele>
        <time>2014-06-12T16:19:48Z</time>
      </trkpt>
      <trkpt lat="42.390242" lon="2.155045">
        <ele>1907.9</ele>
        <time>2014-06-12T16:19:49Z</time>
      </trkpt>
      <trkpt lat="42.390297" lon="2.155028">
        <ele>1908.3</ele>
        <time>2014-06-12T16:19:58Z</time>
      </trkpt>
      <trkpt lat="42.390325" lon="2.154940">
        <ele>1909.8</ele>
        <time>2014-06-12T16:20:10Z</time>
      </trkpt>
      <trkpt lat="42.390329" lon="2.154885">
        <ele>1910.3</ele>
        <time>2014-06-12T16:20:16Z</time>
      </trkpt>
      <trkpt lat="42.390344" lon="2.154822">
        <ele>1910.8</ele>
        <time>2014-06-12T16:20:27Z</time>
      </trkpt>
      <trkpt lat="42.390362" lon="2.154731">
        <ele>1912.2</ele>
        <time>2014-06-12T16:20:39Z</time>
      </trkpt>
      <trkpt lat="42.390354" lon="2.154642">
        <ele>1913.2</ele>
        <time>2014-06-12T16:20:50Z</time>
      </trkpt>
      <trkpt lat="42.390356" lon="2.154573">
        <ele>1914.1</ele>
        <time>2014-06-12T16:21:01Z</time>
      </trkpt>
      <trkpt lat="42.390350" lon="2.154513">
        <ele>1917.0</ele>
        <time>2014-06-12T16:23:10Z</time>
      </trkpt>
      <trkpt lat="42.390344" lon="2.154451">
        <ele>1916.5</ele>
        <time>2014-06-12T16:23:13Z</time>
      </trkpt>
      <trkpt lat="42.390386" lon="2.154317">
        <ele>1918.0</ele>
        <time>2014-06-12T16:23:26Z</time>
      </trkpt>
      <trkpt lat="42.390413" lon="2.154218">
        <ele>1919.4</ele>
        <time>2014-06-12T16:23:38Z</time>
      </trkpt>
      <trkpt lat="42.390468" lon="2.154169">
        <ele>1921.3</ele>
        <time>2014-06-12T16:23:55Z</time>
      </trkpt>
      <trkpt lat="42.390485" lon="2.154095">
        <ele>1922.3</ele>
        <time>2014-06-12T16:24:08Z</time>
      </trkpt>
      <trkpt lat="42.390503" lon="2.153974">
        <ele>1923.7</ele>
        <time>2014-06-12T16:24:21Z</time>
      </trkpt>
      <trkpt lat="42.390540" lon="2.153911">
        <ele>1924.7</ele>
        <time>2014-06-12T16:24:29Z</time>
      </trkpt>
      <trkpt lat="42.390607" lon="2.153844">
        <ele>1926.6</ele>
        <time>2014-06-12T16:24:41Z</time>
      </trkpt>
      <trkpt lat="42.390658" lon="2.153803">
        <ele>1928.1</ele>
        <time>2014-06-12T16:24:51Z</time>
      </trkpt>
      <trkpt lat="42.390699" lon="2.153763">
        <ele>1929.0</ele>
        <time>2014-06-12T16:25:00Z</time>
      </trkpt>
      <trkpt lat="42.390767" lon="2.153695">
        <ele>1931.4</ele>
        <time>2014-06-12T16:25:12Z</time>
      </trkpt>
      <trkpt lat="42.390790" lon="2.153680">
        <ele>1931.9</ele>
        <time>2014-06-12T16:25:17Z</time>
      </trkpt>
      <trkpt lat="42.390822" lon="2.153653">
        <ele>1932.4</ele>
        <time>2014-06-12T16:25:22Z</time>
      </trkpt>
      <trkpt lat="42.390882" lon="2.153584">
        <ele>1934.3</ele>
        <time>2014-06-12T16:25:35Z</time>
      </trkpt>
      <trkpt lat="42.390921" lon="2.153554">
        <ele>1935.3</ele>
        <time>2014-06-12T16:25:43Z</time>
      </trkpt>
      <trkpt lat="42.390937" lon="2.153547">
        <ele>1935.8</ele>
        <time>2014-06-12T16:25:46Z</time>
      </trkpt>
      <trkpt lat="42.390978" lon="2.153558">
        <ele>1937.7</ele>
        <time>2014-06-12T16:25:57Z</time>
      </trkpt>
      <trkpt lat="42.390987" lon="2.153547">
        <ele>1938.6</ele>
        <time>2014-06-12T16:26:12Z</time>
      </trkpt>
      <trkpt lat="42.390987" lon="2.153547">
        <ele>1938.6</ele>
        <time>2014-06-12T16:26:35Z</time>
      </trkpt>
      <trkpt lat="42.391036" lon="2.153560">
        <ele>1939.6</ele>
        <time>2014-06-12T16:26:45Z</time>
      </trkpt>
      <trkpt lat="42.391150" lon="2.153569">
        <ele>1941.5</ele>
        <time>2014-06-12T16:26:56Z</time>
      </trkpt>
      <trkpt lat="42.391208" lon="2.153593">
        <ele>1943.0</ele>
        <time>2014-06-12T16:27:07Z</time>
      </trkpt>
      <trkpt lat="42.391212" lon="2.153591">
        <ele>1943.0</ele>
        <time>2014-06-12T16:27:08Z</time>
      </trkpt>
      <trkpt lat="42.391267" lon="2.153628">
        <ele>1944.4</ele>
        <time>2014-06-12T16:27:18Z</time>
      </trkpt>
      <trkpt lat="42.391253" lon="2.153578">
        <ele>1945.8</ele>
        <time>2014-06-12T16:27:29Z</time>
      </trkpt>
      <trkpt lat="42.391240" lon="2.153545">
        <ele>1947.3</ele>
        <time>2014-06-12T16:27:41Z</time>
      </trkpt>
      <trkpt lat="42.391275" lon="2.153552">
        <ele>1948.2</ele>
        <time>2014-06-12T16:27:52Z</time>
      </trkpt>
      <trkpt lat="42.391296" lon="2.153570">
        <ele>1949.2</ele>
        <time>2014-06-12T16:28:10Z</time>
      </trkpt>
      <trkpt lat="42.391333" lon="2.153590">
        <ele>1950.7</ele>
        <time>2014-06-12T16:28:19Z</time>
      </trkpt>
      <trkpt lat="42.391401" lon="2.153587">
        <ele>1952.1</ele>
        <time>2014-06-12T16:28:31Z</time>
      </trkpt>
      <trkpt lat="42.391469" lon="2.153544">
        <ele>1954.0</ele>
        <time>2014-06-12T16:28:44Z</time>
      </trkpt>
      <trkpt lat="42.391527" lon="2.153523">
        <ele>1955.5</ele>
        <time>2014-06-12T16:28:56Z</time>
      </trkpt>
      <trkpt lat="42.391512" lon="2.153463">
        <ele>1956.9</ele>
        <time>2014-06-12T16:29:07Z</time>
      </trkpt>
      <trkpt lat="42.391498" lon="2.153430">
        <ele>1958.3</ele>
        <time>2014-06-12T16:29:18Z</time>
      </trkpt>
      <trkpt lat="42.391461" lon="2.153406">
        <ele>1960.3</ele>
        <time>2014-06-12T16:29:28Z</time>
      </trkpt>
      <trkpt lat="42.391428" lon="2.153377">
        <ele>1962.2</ele>
        <time>2014-06-12T16:29:40Z</time>
      </trkpt>
      <trkpt lat="42.391460" lon="2.153382">
        <ele>1964.6</ele>
        <time>2014-06-12T16:29:53Z</time>
      </trkpt>
      <trkpt lat="42.391527" lon="2.153386">
        <ele>1967.0</ele>
        <time>2014-06-12T16:30:07Z</time>
      </trkpt>
      <trkpt lat="42.391575" lon="2.153351">
        <ele>1968.4</ele>
        <time>2014-06-12T16:30:20Z</time>
      </trkpt>
      <trkpt lat="42.391636" lon="2.153311">
        <ele>1970.4</ele>
        <time>2014-06-12T16:30:31Z</time>
      </trkpt>
      <trkpt lat="42.391684" lon="2.153268">
        <ele>1972.3</ele>
        <time>2014-06-12T16:30:42Z</time>
      </trkpt>
      <trkpt lat="42.391705" lon="2.153238">
        <ele>1972.8</ele>
        <time>2014-06-12T16:30:47Z</time>
      </trkpt>
      <trkpt lat="42.391740" lon="2.153229">
        <ele>1973.7</ele>
        <time>2014-06-12T16:31:00Z</time>
      </trkpt>
      <trkpt lat="42.391740" lon="2.153229">
        <ele>1974.2</ele>
        <time>2014-06-12T16:31:22Z</time>
      </trkpt>
      <trkpt lat="42.391824" lon="2.153219">
        <ele>1975.2</ele>
        <time>2014-06-12T16:31:32Z</time>
      </trkpt>
      <trkpt lat="42.391896" lon="2.153206">
        <ele>1977.1</ele>
        <time>2014-06-12T16:31:44Z</time>
      </trkpt>
      <trkpt lat="42.391899" lon="2.153205">
        <ele>1978.1</ele>
        <time>2014-06-12T16:32:05Z</time>
      </trkpt>
      <trkpt lat="42.391899" lon="2.153205">
        <ele>1978.1</ele>
        <time>2014-06-12T16:32:14Z</time>
      </trkpt>
      <trkpt lat="42.391925" lon="2.153278">
        <ele>1978.1</ele>
        <time>2014-06-12T16:32:27Z</time>
      </trkpt>
      <trkpt lat="42.391927" lon="2.153251">
        <ele>1978.1</ele>
        <time>2014-06-12T16:32:33Z</time>
      </trkpt>
      <trkpt lat="42.391931" lon="2.153208">
        <ele>1978.1</ele>
        <time>2014-06-12T16:32:46Z</time>
      </trkpt>
      <trkpt lat="42.391943" lon="2.153188">
        <ele>1978.1</ele>
        <time>2014-06-12T16:33:06Z</time>
      </trkpt>
      <trkpt lat="42.391950" lon="2.153185">
        <ele>1978.1</ele>
        <time>2014-06-12T16:33:09Z</time>
      </trkpt>
      <trkpt lat="42.392027" lon="2.153087">
        <ele>1977.6</ele>
        <time>2014-06-12T16:33:21Z</time>
      </trkpt>
      <trkpt lat="42.392039" lon="2.153071">
        <ele>1977.6</ele>
        <time>2014-06-12T16:33:23Z</time>
      </trkpt>
      <trkpt lat="42.392088" lon="2.153045">
        <ele>1978.1</ele>
        <time>2014-06-12T16:33:35Z</time>
      </trkpt>
      <trkpt lat="42.392088" lon="2.153045">
        <ele>1978.1</ele>
        <time>2014-06-12T16:33:52Z</time>
      </trkpt>
      <trkpt lat="42.392088" lon="2.153045">
        <ele>1978.1</ele>
        <time>2014-06-12T16:34:06Z</time>
      </trkpt>
      <trkpt lat="42.392148" lon="2.153007">
        <ele>1978.1</ele>
        <time>2014-06-12T16:34:17Z</time>
      </trkpt>
      <trkpt lat="42.392196" lon="2.152970">
        <ele>1978.1</ele>
        <time>2014-06-12T16:34:23Z</time>
      </trkpt>
      <trkpt lat="42.392228" lon="2.152958">
        <ele>1978.1</ele>
        <time>2014-06-12T16:34:26Z</time>
      </trkpt>
      <trkpt lat="42.392399" lon="2.152932">
        <ele>1975.2</ele>
        <time>2014-06-12T16:35:32Z</time>
      </trkpt>
      <trkpt lat="42.392398" lon="2.152932">
        <ele>1974.7</ele>
        <time>2014-06-12T16:35:50Z</time>
      </trkpt>
      <trkpt lat="42.392418" lon="2.152925">
        <ele>1974.2</ele>
        <time>2014-06-12T16:36:18Z</time>
      </trkpt>
      <trkpt lat="42.392460" lon="2.152910">
        <ele>1973.7</ele>
        <time>2014-06-12T16:36:22Z</time>
      </trkpt>
      <trkpt lat="42.392526" lon="2.152905">
        <ele>1973.2</ele>
        <time>2014-06-12T16:36:28Z</time>
      </trkpt>
      <trkpt lat="42.392572" lon="2.152775">
        <ele>1971.8</ele>
        <time>2014-06-12T16:36:40Z</time>
      </trkpt>
      <trkpt lat="42.392584" lon="2.152752">
        <ele>1970.4</ele>
        <time>2014-06-12T16:36:47Z</time>
      </trkpt>
      <trkpt lat="42.392602" lon="2.152677">
        <ele>1969.4</ele>
        <time>2014-06-12T16:36:54Z</time>
      </trkpt>
      <trkpt lat="42.392630" lon="2.152599">
        <ele>1968.4</ele>
        <time>2014-06-12T16:37:00Z</time>
      </trkpt>
      <trkpt lat="42.392688" lon="2.152460">
        <ele>1966.0</ele>
        <time>2014-06-12T16:37:12Z</time>
      </trkpt>
      <trkpt lat="42.392701" lon="2.152448">
        <ele>1966.0</ele>
        <time>2014-06-12T16:37:13Z</time>
      </trkpt>
      <trkpt lat="42.392775" lon="2.152444">
        <ele>1965.1</ele>
        <time>2014-06-12T16:37:19Z</time>
      </trkpt>
      <trkpt lat="42.392829" lon="2.152460">
        <ele>1964.1</ele>
        <time>2014-06-12T16:37:26Z</time>
      </trkpt>
      <trkpt lat="42.392920" lon="2.152459">
        <ele>1963.6</ele>
        <time>2014-06-12T16:37:33Z</time>
      </trkpt>
      <trkpt lat="42.393064" lon="2.152405">
        <ele>1962.2</ele>
        <time>2014-06-12T16:37:46Z</time>
      </trkpt>
      <trkpt lat="42.393110" lon="2.152413">
        <ele>1961.7</ele>
        <time>2014-06-12T16:37:54Z</time>
      </trkpt>
      <trkpt lat="42.393143" lon="2.152413">
        <ele>1961.2</ele>
        <time>2014-06-12T16:37:57Z</time>
      </trkpt>
      <trkpt lat="42.393165" lon="2.152409">
        <ele>1961.2</ele>
        <time>2014-06-12T16:38:00Z</time>
      </trkpt>
      <trkpt lat="42.393182" lon="2.152403">
        <ele>1961.2</ele>
        <time>2014-06-12T16:38:02Z</time>
      </trkpt>
      <trkpt lat="42.393287" lon="2.152385">
        <ele>1960.8</ele>
        <time>2014-06-12T16:38:11Z</time>
      </trkpt>
      <trkpt lat="42.393341" lon="2.152419">
        <ele>1960.8</ele>
        <time>2014-06-12T16:38:17Z</time>
      </trkpt>
      <trkpt lat="42.393375" lon="2.152426">
        <ele>1960.8</ele>
        <time>2014-06-12T16:38:21Z</time>
      </trkpt>
      <trkpt lat="42.393501" lon="2.152423">
        <ele>1960.3</ele>
        <time>2014-06-12T16:38:33Z</time>
      </trkpt>
      <trkpt lat="42.393528" lon="2.152418">
        <ele>1960.3</ele>
        <time>2014-06-12T16:38:36Z</time>
      </trkpt>
      <trkpt lat="42.393596" lon="2.152423">
        <ele>1960.3</ele>
        <time>2014-06-12T16:38:43Z</time>
      </trkpt>
      <trkpt lat="42.393656" lon="2.152438">
        <ele>1959.8</ele>
        <time>2014-06-12T16:38:53Z</time>
      </trkpt>
      <trkpt lat="42.393656" lon="2.152438">
        <ele>1959.3</ele>
        <time>2014-06-12T16:39:15Z</time>
      </trkpt>
      <trkpt lat="42.393659" lon="2.152440">
        <ele>1959.3</ele>
        <time>2014-06-12T16:39:33Z</time>
      </trkpt>
      <trkpt lat="42.393699" lon="2.152415">
        <ele>1959.3</ele>
        <time>2014-06-12T16:39:37Z</time>
      </trkpt>
      <trkpt lat="42.393864" lon="2.152355">
        <ele>1958.8</ele>
        <time>2014-06-12T16:39:51Z</time>
      </trkpt>
      <trkpt lat="42.393915" lon="2.152315">
        <ele>1958.3</ele>
        <time>2014-06-12T16:39:55Z</time>
      </trkpt>
      <trkpt lat="42.394029" lon="2.152279">
        <ele>1956.9</ele>
        <time>2014-06-12T16:40:04Z</time>
      </trkpt>
      <trkpt lat="42.394168" lon="2.152163">
        <ele>1955.5</ele>
        <time>2014-06-12T16:40:19Z</time>
      </trkpt>
      <trkpt lat="42.394175" lon="2.152152">
        <ele>1955.5</ele>
        <time>2014-06-12T16:40:20Z</time>
      </trkpt>
      <trkpt lat="42.394247" lon="2.152068">
        <ele>1955.0</ele>
        <time>2014-06-12T16:40:27Z</time>
      </trkpt>
      <trkpt lat="42.394412" lon="2.152029">
        <ele>1954.0</ele>
        <time>2014-06-12T16:40:40Z</time>
      </trkpt>
      <trkpt lat="42.394439" lon="2.152032">
        <ele>1953.5</ele>
        <time>2014-06-12T16:40:45Z</time>
      </trkpt>
      <trkpt lat="42.394457" lon="2.152042">
        <ele>1953.5</ele>
        <time>2014-06-12T16:40:47Z</time>
      </trkpt>
      <trkpt lat="42.394558" lon="2.152078">
        <ele>1953.1</ele>
        <time>2014-06-12T16:40:59Z</time>
      </trkpt>
      <trkpt lat="42.394623" lon="2.152098">
        <ele>1953.1</ele>
        <time>2014-06-12T16:41:07Z</time>
      </trkpt>
      <trkpt lat="42.394675" lon="2.152114">
        <ele>1953.1</ele>
        <time>2014-06-12T16:41:11Z</time>
      </trkpt>
      <trkpt lat="42.394797" lon="2.152132">
        <ele>1952.1</ele>
        <time>2014-06-12T16:41:22Z</time>
      </trkpt>
      <trkpt lat="42.394803" lon="2.152141">
        <ele>1952.1</ele>
        <time>2014-06-12T16:41:23Z</time>
      </trkpt>
      <trkpt lat="42.394831" lon="2.152164">
        <ele>1952.1</ele>
        <time>2014-06-12T16:41:27Z</time>
      </trkpt>
      <trkpt lat="42.394876" lon="2.152207">
        <ele>1952.1</ele>
        <time>2014-06-12T16:41:32Z</time>
      </trkpt>
      <trkpt lat="42.394936" lon="2.152274">
        <ele>1951.6</ele>
        <time>2014-06-12T16:41:40Z</time>
      </trkpt>
      <trkpt lat="42.394933" lon="2.152304">
        <ele>1951.1</ele>
        <time>2014-06-12T16:41:42Z</time>
      </trkpt>
      <trkpt lat="42.394907" lon="2.152410">
        <ele>1949.2</ele>
        <time>2014-06-12T16:45:09Z</time>
      </trkpt>
      <trkpt lat="42.394941" lon="2.152416">
        <ele>1949.2</ele>
        <time>2014-06-12T16:45:16Z</time>
      </trkpt>
      <trkpt lat="42.394962" lon="2.152401">
        <ele>1949.2</ele>
        <time>2014-06-12T16:45:28Z</time>
      </trkpt>
      <trkpt lat="42.395086" lon="2.152416">
        <ele>1949.2</ele>
        <time>2014-06-12T16:45:39Z</time>
      </trkpt>
      <trkpt lat="42.395172" lon="2.152417">
        <ele>1949.7</ele>
        <time>2014-06-12T16:45:46Z</time>
      </trkpt>
      <trkpt lat="42.395321" lon="2.152381">
        <ele>1949.7</ele>
        <time>2014-06-12T16:46:00Z</time>
      </trkpt>
      <trkpt lat="42.395343" lon="2.152365">
        <ele>1949.7</ele>
        <time>2014-06-12T16:46:03Z</time>
      </trkpt>
      <trkpt lat="42.395533" lon="2.152445">
        <ele>1950.2</ele>
        <time>2014-06-12T16:50:36Z</time>
      </trkpt>
      <trkpt lat="42.395613" lon="2.152448">
        <ele>1949.7</ele>
        <time>2014-06-12T16:50:49Z</time>
      </trkpt>
      <trkpt lat="42.395634" lon="2.152465">
        <ele>1949.7</ele>
        <time>2014-06-12T16:50:51Z</time>
      </trkpt>
      <trkpt lat="42.395655" lon="2.152518">
        <ele>1948.7</ele>
        <time>2014-06-12T16:51:08Z</time>
      </trkpt>
      <trkpt lat="42.395655" lon="2.152518">
        <ele>1948.7</ele>
        <time>2014-06-12T16:51:31Z</time>
      </trkpt>
      <trkpt lat="42.395657" lon="2.152519">
        <ele>1948.2</ele>
        <time>2014-06-12T16:52:00Z</time>
      </trkpt>
      <trkpt lat="42.395668" lon="2.152517">
        <ele>1948.2</ele>
        <time>2014-06-12T16:52:22Z</time>
      </trkpt>
      <trkpt lat="42.395686" lon="2.152523">
        <ele>1948.2</ele>
        <time>2014-06-12T16:52:24Z</time>
      </trkpt>
      <trkpt lat="42.395724" lon="2.152538">
        <ele>1948.2</ele>
        <time>2014-06-12T16:52:27Z</time>
      </trkpt>
      <trkpt lat="42.395880" lon="2.152588">
        <ele>1948.2</ele>
        <time>2014-06-12T16:52:41Z</time>
      </trkpt>
      <trkpt lat="42.395891" lon="2.152584">
        <ele>1948.2</ele>
        <time>2014-06-12T16:52:42Z</time>
      </trkpt>
      <trkpt lat="42.395916" lon="2.152587">
        <ele>1948.2</ele>
        <time>2014-06-12T16:52:45Z</time>
      </trkpt>
      <trkpt lat="42.396040" lon="2.152552">
        <ele>1949.7</ele>
        <time>2014-06-12T16:52:57Z</time>
      </trkpt>
      <trkpt lat="42.396048" lon="2.152549">
        <ele>1949.7</ele>
        <time>2014-06-12T16:52:58Z</time>
      </trkpt>
      <trkpt lat="42.396162" lon="2.152525">
        <ele>1950.7</ele>
        <time>2014-06-12T16:53:10Z</time>
      </trkpt>
      <trkpt lat="42.396278" lon="2.152491">
        <ele>1951.1</ele>
        <time>2014-06-12T16:53:21Z</time>
      </trkpt>
      <trkpt lat="42.396377" lon="2.152490">
        <ele>1951.6</ele>
        <time>2014-06-12T16:53:31Z</time>
      </trkpt>
      <trkpt lat="42.396474" lon="2.152458">
        <ele>1951.6</ele>
        <time>2014-06-12T16:53:43Z</time>
      </trkpt>
      <trkpt lat="42.396551" lon="2.152443">
        <ele>1952.6</ele>
        <time>2014-06-12T16:53:55Z</time>
      </trkpt>
      <trkpt lat="42.396564" lon="2.152439">
        <ele>1952.6</ele>
        <time>2014-06-12T16:53:56Z</time>
      </trkpt>
      <trkpt lat="42.396684" lon="2.152414">
        <ele>1953.1</ele>
        <time>2014-06-12T16:54:08Z</time>
      </trkpt>
      <trkpt lat="42.396799" lon="2.152386">
        <ele>1953.5</ele>
        <time>2014-06-12T16:54:20Z</time>
      </trkpt>
      <trkpt lat="42.396909" lon="2.152351">
        <ele>1954.0</ele>
        <time>2014-06-12T16:54:31Z</time>
      </trkpt>
      <trkpt lat="42.397004" lon="2.152330">
        <ele>1954.5</ele>
        <time>2014-06-12T16:54:42Z</time>
      </trkpt>
      <trkpt lat="42.397103" lon="2.152366">
        <ele>1955.0</ele>
        <time>2014-06-12T16:54:53Z</time>
      </trkpt>
      <trkpt lat="42.397127" lon="2.152409">
        <ele>1955.5</ele>
        <time>2014-06-12T16:54:57Z</time>
      </trkpt>
      <trkpt lat="42.397175" lon="2.152489">
        <ele>1955.5</ele>
        <time>2014-06-12T16:55:06Z</time>
      </trkpt>
      <trkpt lat="42.397310" lon="2.152528">
        <ele>1955.9</ele>
        <time>2014-06-12T16:55:19Z</time>
      </trkpt>
      <trkpt lat="42.397374" lon="2.152555">
        <ele>1958.0</ele>
        <time>2014-06-12T16:55:28Z</time>
      </trkpt>
      <trkpt lat="42.397961039096117" lon="2.152506010606885">
        <ele>1975.62109375</ele>
        <time>2014-06-13T05:34:02Z</time>
      </trkpt>
      <trkpt lat="42.397901024669409" lon="2.152498969808221">
        <ele>1975.32421875</ele>
        <time>2014-06-13T05:34:09Z</time>
      </trkpt>
      <trkpt lat="42.397873029112816" lon="2.152521014213562">
        <ele>1974.921875</ele>
        <time>2014-06-13T05:34:12Z</time>
      </trkpt>
      <trkpt lat="42.397859031334519" lon="2.152536017820239">
        <ele>1974.66015625</ele>
        <time>2014-06-13T05:34:14Z</time>
      </trkpt>
      <trkpt lat="42.397736990824342" lon="2.15258102864027">
        <ele>1973.26953125</ele>
        <time>2014-06-13T05:34:26Z</time>
      </trkpt>
      <trkpt lat="42.397603970021009" lon="2.152577005326748">
        <ele>1972.33203125</ele>
        <time>2014-06-13T05:34:38Z</time>
      </trkpt>
      <trkpt lat="42.397587960585952" lon="2.15258102864027">
        <ele>1972.1640625</ele>
        <time>2014-06-13T05:34:40Z</time>
      </trkpt>
      <trkpt lat="42.397505985572934" lon="2.152552027255297">
        <ele>1971.9140625</ele>
        <time>2014-06-13T05:34:50Z</time>
      </trkpt>
      <trkpt lat="42.397459968924522" lon="2.152558984234929">
        <ele>1971.34375</ele>
        <time>2014-06-13T05:34:54Z</time>
      </trkpt>
      <trkpt lat="42.397372964769602" lon="2.152554960921407">
        <ele>1970.4453125</ele>
        <time>2014-06-13T05:35:06Z</time>
      </trkpt>
      <trkpt lat="42.397375982254744" lon="2.152575999498367">
        <ele>1970.2421875</ele>
        <time>2014-06-13T05:35:20Z</time>
      </trkpt>
      <trkpt lat="42.397395009174943" lon="2.152657974511385">
        <ele>1969.5078125</ele>
        <time>2014-06-13T05:35:26Z</time>
      </trkpt>
      <trkpt lat="42.397477990016341" lon="2.152833994477987">
        <ele>1968.26171875</ele>
        <time>2014-06-13T05:35:41Z</time>
      </trkpt>
      <trkpt lat="42.397570023313165" lon="2.152999034151435">
        <ele>1967.19140625</ele>
        <time>2014-06-13T05:35:54Z</time>
      </trkpt>
      <trkpt lat="42.397632971405983" lon="2.153212018311024">
        <ele>1966.1875</ele>
        <time>2014-06-13T05:36:08Z</time>
      </trkpt>
      <trkpt lat="42.397640012204647" lon="2.15322601608932">
        <ele>1966.23828125</ele>
        <time>2014-06-13T05:36:09Z</time>
      </trkpt>
      <trkpt lat="42.397673958912492" lon="2.153321988880634">
        <ele>1966.46875</ele>
        <time>2014-06-13T05:36:15Z</time>
      </trkpt>
      <trkpt lat="42.3977339733392" lon="2.153550982475281">
        <ele>1967.05078125</ele>
        <time>2014-06-13T05:36:30Z</time>
      </trkpt>
      <trkpt lat="42.397770015522838" lon="2.153781987726688">
        <ele>1967.921875</ele>
        <time>2014-06-13T05:36:45Z</time>
      </trkpt>
      <trkpt lat="42.397774960845709" lon="2.153817024081945">
        <ele>1968.0546875</ele>
        <time>2014-06-13T05:36:48Z</time>
      </trkpt>
      <trkpt lat="42.397710001096129" lon="2.154050962999463">
        <ele>1967.38671875</ele>
        <time>2014-06-13T05:37:03Z</time>
      </trkpt>
      <trkpt lat="42.397736990824342" lon="2.154162023216486">
        <ele>1967.8515625</ele>
        <time>2014-06-13T05:37:12Z</time>
      </trkpt>
      <trkpt lat="42.397890966385603" lon="2.154252966865897">
        <ele>1969.828125</ele>
        <time>2014-06-13T05:37:26Z</time>
      </trkpt>
      <trkpt lat="42.398015018552542" lon="2.154313987120986">
        <ele>1971.40234375</ele>
        <time>2014-06-13T05:37:38Z</time>
      </trkpt>
      <trkpt lat="42.398114008828998" lon="2.154365032911301">
        <ele>1972.71484375</ele>
        <time>2014-06-13T05:37:48Z</time>
      </trkpt>
      <trkpt lat="42.39824996329844" lon="2.154464023187757">
        <ele>1974.72265625</ele>
        <time>2014-06-13T05:38:02Z</time>
      </trkpt>
      <trkpt lat="42.398381978273392" lon="2.154590003192425">
        <ele>1976.65625</ele>
        <time>2014-06-13T05:38:16Z</time>
      </trkpt>
      <trkpt lat="42.398470994085073" lon="2.154710032045841">
        <ele>1978.00390625</ele>
        <time>2014-06-13T05:38:27Z</time>
      </trkpt>
      <trkpt lat="42.398538971319795" lon="2.154869958758354">
        <ele>1979.1171875</ele>
        <time>2014-06-13T05:38:40Z</time>
      </trkpt>
      <trkpt lat="42.398595968261361" lon="2.155034998431802">
        <ele>1979.85546875</ele>
        <time>2014-06-13T05:38:52Z</time>
      </trkpt>
      <trkpt lat="42.398712979629636" lon="2.155208000913262">
        <ele>1979.9453125</ele>
        <time>2014-06-13T05:40:47Z</time>
      </trkpt>
      <trkpt lat="42.398819010704756" lon="2.155292993411422">
        <ele>1979.9453125</ele>
        <time>2014-06-13T05:40:58Z</time>
      </trkpt>
      <trkpt lat="42.39885002374649" lon="2.155316965654492">
        <ele>1979.9453125</ele>
        <time>2014-06-13T05:41:05Z</time>
      </trkpt>
      <trkpt lat="42.39895898848772" lon="2.155348984524608">
        <ele>1979.9453125</ele>
        <time>2014-06-13T05:41:16Z</time>
      </trkpt>
      <trkpt lat="42.399079017341137" lon="2.155433977022767">
        <ele>1981.01171875</ele>
        <time>2014-06-13T05:41:29Z</time>
      </trkpt>
      <trkpt lat="42.399089997634292" lon="2.155460966750979">
        <ele>1981.12109375</ele>
        <time>2014-06-13T05:41:40Z</time>
      </trkpt>
      <trkpt lat="42.399084968492389" lon="2.155477982014418">
        <ele>1981.109375</ele>
        <time>2014-06-13T05:41:42Z</time>
      </trkpt>
      <trkpt lat="42.399045992642641" lon="2.155601028352976">
        <ele>1981.140625</ele>
        <time>2014-06-13T05:41:52Z</time>
      </trkpt>
      <trkpt lat="42.398994024842978" lon="2.155702030286193">
        <ele>1981.37890625</ele>
        <time>2014-06-13T05:42:05Z</time>
      </trkpt>
      <trkpt lat="42.398982960730791" lon="2.155738994479179">
        <ele>1981.5703125</ele>
        <time>2014-06-13T05:42:11Z</time>
      </trkpt>
      <trkpt lat="42.399002993479371" lon="2.155777970328927">
        <ele>1981.79296875</ele>
        <time>2014-06-13T05:42:14Z</time>
      </trkpt>
      <trkpt lat="42.399011962115765" lon="2.155834967270494">
        <ele>1982.1328125</ele>
        <time>2014-06-13T05:42:18Z</time>
      </trkpt>
      <trkpt lat="42.399038029834628" lon="2.155943010002375">
        <ele>1982.703125</ele>
        <time>2014-06-13T05:42:31Z</time>
      </trkpt>
      <trkpt lat="42.399042975157499" lon="2.156075024977326">
        <ele>1983.4453125</ele>
        <time>2014-06-13T05:42:42Z</time>
      </trkpt>
      <trkpt lat="42.399025037884712" lon="2.156088016927242">
        <ele>1983.62109375</ele>
        <time>2014-06-13T05:42:44Z</time>
      </trkpt>
      <trkpt lat="42.398995030671358" lon="2.156117018312216">
        <ele>1984.08203125</ele>
        <time>2014-06-13T05:42:47Z</time>
      </trkpt>
      <trkpt lat="42.398905009031296" lon="2.156135039404035">
        <ele>1985.43359375</ele>
        <time>2014-06-13T05:42:58Z</time>
      </trkpt>
      <trkpt lat="42.398846000432968" lon="2.156116012483835">
        <ele>1986.00390625</ele>
        <time>2014-06-13T05:43:09Z</time>
      </trkpt>
      <trkpt lat="42.398847006261349" lon="2.156183989718556">
        <ele>1986.94140625</ele>
        <time>2014-06-13T05:43:15Z</time>
      </trkpt>
      <trkpt lat="42.398867961019278" lon="2.156325979158282">
        <ele>1988.53125</ele>
        <time>2014-06-13T05:43:27Z</time>
      </trkpt>
      <trkpt lat="42.39891598932445" lon="2.156437961384654">
        <ele>1989.00390625</ele>
        <time>2014-06-13T05:43:38Z</time>
      </trkpt>
      <trkpt lat="42.398929987102747" lon="2.156466962769628">
        <ele>1989.0703125</ele>
        <time>2014-06-13T05:43:41Z</time>
      </trkpt>
      <trkpt lat="42.398977009579539" lon="2.156565031036735">
        <ele>1989.80859375</ele>
        <time>2014-06-13T05:43:52Z</time>
      </trkpt>
      <trkpt lat="42.39902101457119" lon="2.156667960807681">
        <ele>1991.51953125</ele>
        <time>2014-06-13T05:44:04Z</time>
      </trkpt>
      <trkpt lat="42.399030989035964" lon="2.156698973849416">
        <ele>1992.0703125</ele>
        <time>2014-06-13T05:44:07Z</time>
      </trkpt>
      <trkpt lat="42.398945996537805" lon="2.156738033518195">
        <ele>1993.81640625</ele>
        <time>2014-06-13T05:44:19Z</time>
      </trkpt>
      <trkpt lat="42.398857986554503" lon="2.156733004376292">
        <ele>1996.15625</ele>
        <time>2014-06-13T05:44:32Z</time>
      </trkpt>
      <trkpt lat="42.398824039846659" lon="2.156719006597996">
        <ele>1996.79296875</ele>
        <time>2014-06-13T05:44:38Z</time>
      </trkpt>
      <trkpt lat="42.398776011541486" lon="2.156713977456093">
        <ele>1997.99609375</ele>
        <time>2014-06-13T05:44:43Z</time>
      </trkpt>
      <trkpt lat="42.398773999884725" lon="2.156737027689815">
        <ele>1998.5625</ele>
        <time>2014-06-13T05:44:55Z</time>
      </trkpt>
      <trkpt lat="42.398778023198247" lon="2.156753959134221">
        <ele>1998.828125</ele>
        <time>2014-06-13T05:45:07Z</time>
      </trkpt>
      <trkpt lat="42.398733012378216" lon="2.156747002154589">
        <ele>1999.9296875</ele>
        <time>2014-06-13T05:45:19Z</time>
      </trkpt>
      <trkpt lat="42.398835020139813" lon="2.156874993816018">
        <ele>1999.8671875</ele>
        <time>2014-06-13T05:45:31Z</time>
      </trkpt>
      <trkpt lat="42.398840971291065" lon="2.156883962452412">
        <ele>1999.890625</ele>
        <time>2014-06-13T05:45:32Z</time>
      </trkpt>
      <trkpt lat="42.398862009868026" lon="2.156936014071107">
        <ele>2000.43359375</ele>
        <time>2014-06-13T05:45:36Z</time>
      </trkpt>
      <trkpt lat="42.398884976282716" lon="2.156974989920855">
        <ele>2000.578125</ele>
        <time>2014-06-13T05:45:39Z</time>
      </trkpt>
      <trkpt lat="42.398910038173199" lon="2.157009020447731">
        <ele>2000.515625</ele>
        <time>2014-06-13T05:45:43Z</time>
      </trkpt>
      <trkpt lat="42.398929987102747" lon="2.157035004347563">
        <ele>2000.421875</ele>
        <time>2014-06-13T05:45:46Z</time>
      </trkpt>
      <trkpt lat="42.398947002366185" lon="2.157065011560917">
        <ele>2000.4921875</ele>
        <time>2014-06-13T05:45:49Z</time>
      </trkpt>
      <trkpt lat="42.398940967395902" lon="2.157186968252063">
        <ele>2003.296875</ele>
        <time>2014-06-13T05:46:02Z</time>
      </trkpt>
      <trkpt lat="42.398973992094398" lon="2.15728897601366">
        <ele>2004.22265625</ele>
        <time>2014-06-13T05:46:11Z</time>
      </trkpt>
      <trkpt lat="42.398983966559172" lon="2.157342033460736">
        <ele>2005</ele>
        <time>2014-06-13T05:46:16Z</time>
      </trkpt>
      <trkpt lat="42.398997964337468" lon="2.157419985160232">
        <ele>2006.3515625</ele>
        <time>2014-06-13T05:46:29Z</time>
      </trkpt>
      <trkpt lat="42.399011962115765" lon="2.15750296600163">
        <ele>2007.68359375</ele>
        <time>2014-06-13T05:46:40Z</time>
      </trkpt>
      <trkpt lat="42.399028977379203" lon="2.15754303149879">
        <ele>2008.03515625</ele>
        <time>2014-06-13T05:46:48Z</time>
      </trkpt>
      <trkpt lat="42.399088991805911" lon="2.15767303481698">
        <ele>2010.29296875</ele>
        <time>2014-06-13T05:47:00Z</time>
      </trkpt>
      <trkpt lat="42.399097038432956" lon="2.157677980139852">
        <ele>2010.234375</ele>
        <time>2014-06-13T05:47:01Z</time>
      </trkpt>
      <trkpt lat="42.399134002625942" lon="2.157722990959883">
        <ele>2010.65625</ele>
        <time>2014-06-13T05:47:12Z</time>
      </trkpt>
      <trkpt lat="42.399134002625942" lon="2.157722990959883">
        <ele>2010.65625</ele>
        <time>2014-06-13T05:47:29Z</time>
      </trkpt>
      <trkpt lat="42.399132996797562" lon="2.157725002616644">
        <ele>2010.75</ele>
        <time>2014-06-13T05:47:58Z</time>
      </trkpt>
      <trkpt lat="42.399134002625942" lon="2.157729025930166">
        <ele>2010.84765625</ele>
        <time>2014-06-13T05:48:26Z</time>
      </trkpt>
      <trkpt lat="42.399164009839296" lon="2.157792979851365">
        <ele>2012.00390625</ele>
        <time>2014-06-13T05:48:37Z</time>
      </trkpt>
      <trkpt lat="42.399177001789212" lon="2.157829022035003">
        <ele>2012.7421875</ele>
        <time>2014-06-13T05:48:48Z</time>
      </trkpt>
      <trkpt lat="42.399198040366173" lon="2.157841008156538">
        <ele>2012.48046875</ele>
        <time>2014-06-13T05:49:05Z</time>
      </trkpt>
      <trkpt lat="42.39921597763896" lon="2.157861962914467">
        <ele>2012.57421875</ele>
        <time>2014-06-13T05:49:29Z</time>
      </trkpt>
      <trkpt lat="42.399299964308739" lon="2.157961959019303">
        <ele>2013.046875</ele>
        <time>2014-06-13T05:49:40Z</time>
      </trkpt>
      <trkpt lat="42.399364002048969" lon="2.158027002587915">
        <ele>2013.6484375</ele>
        <time>2014-06-13T05:49:52Z</time>
      </trkpt>
      <trkpt lat="42.399385962635279" lon="2.158070001751185">
        <ele>2014.7578125</ele>
        <time>2014-06-13T05:50:04Z</time>
      </trkpt>
      <trkpt lat="42.399462992325425" lon="2.158207967877388">
        <ele>2016.7890625</ele>
        <time>2014-06-13T05:50:16Z</time>
      </trkpt>
      <trkpt lat="42.399541027843952" lon="2.158320033922792">
        <ele>2016.23828125</ele>
        <time>2014-06-13T05:50:26Z</time>
      </trkpt>
      <trkpt lat="42.39955703727901" lon="2.158347023651004">
        <ele>2016.609375</ele>
        <time>2014-06-13T05:50:29Z</time>
      </trkpt>
      <trkpt lat="42.399611016735435" lon="2.158432016149163">
        <ele>2017.62109375</ele>
        <time>2014-06-13T05:50:38Z</time>
      </trkpt>
      <trkpt lat="42.399657033383846" lon="2.15848901309073">
        <ele>2017.84375</ele>
        <time>2014-06-13T05:50:49Z</time>
      </trkpt>
      <trkpt lat="42.399695003405213" lon="2.158531006425619">
        <ele>2017.82421875</ele>
        <time>2014-06-13T05:51:00Z</time>
      </trkpt>
      <trkpt lat="42.399715036153793" lon="2.158569982275367">
        <ele>2018.50390625</ele>
        <time>2014-06-13T05:51:10Z</time>
      </trkpt>
      <trkpt lat="42.39966700784862" lon="2.158591020852327">
        <ele>2021.5859375</ele>
        <time>2014-06-13T05:51:26Z</time>
      </trkpt>
      <trkpt lat="42.399644963443279" lon="2.158624967560172">
        <ele>2024</ele>
        <time>2014-06-13T05:51:37Z</time>
      </trkpt>
      <trkpt lat="42.399600958451629" lon="2.158649023622274">
        <ele>2027.01953125</ele>
        <time>2014-06-13T05:51:52Z</time>
      </trkpt>
      <trkpt lat="42.399611016735435" lon="2.158685987815261">
        <ele>2028.06640625</ele>
        <time>2014-06-13T05:51:58Z</time>
      </trkpt>
      <trkpt lat="42.39962400868535" lon="2.158713983371854">
        <ele>2028.4375</ele>
        <time>2014-06-13T05:52:01Z</time>
      </trkpt>
      <trkpt lat="42.399674970656633" lon="2.158799981698394">
        <ele>2029.0625</ele>
        <time>2014-06-13T05:52:10Z</time>
      </trkpt>
      <trkpt lat="42.399693997576833" lon="2.15883401222527">
        <ele>2029.36328125</ele>
        <time>2014-06-13T05:52:23Z</time>
      </trkpt>
      <trkpt lat="42.399735990911722" lon="2.15891900472343">
        <ele>2030.65234375</ele>
        <time>2014-06-13T05:52:37Z</time>
      </trkpt>
      <trkpt lat="42.399806985631585" lon="2.15907197445631">
        <ele>2033.02734375</ele>
        <time>2014-06-13T05:52:50Z</time>
      </trkpt>
      <trkpt lat="42.399874040856957" lon="2.159204995259643">
        <ele>2033.578125</ele>
        <time>2014-06-13T05:53:02Z</time>
      </trkpt>
      <trkpt lat="42.399930031970143" lon="2.159339021891356">
        <ele>2033.70703125</ele>
        <time>2014-06-13T05:53:14Z</time>
      </trkpt>
      <trkpt lat="42.399958027526736" lon="2.159402975812554">
        <ele>2033.38671875</ele>
        <time>2014-06-13T05:53:20Z</time>
      </trkpt>
      <trkpt lat="42.399998009204865" lon="2.159517975524068">
        <ele>2034.32421875</ele>
        <time>2014-06-13T05:53:30Z</time>
      </trkpt>
      <trkpt lat="42.400013012811542" lon="2.159596011042595">
        <ele>2035.91015625</ele>
        <time>2014-06-13T05:53:37Z</time>
      </trkpt>
      <trkpt lat="42.400026004761457" lon="2.159635992720723">
        <ele>2036.4609375</ele>
        <time>2014-06-13T05:53:41Z</time>
      </trkpt>
      <trkpt lat="42.400034973397851" lon="2.159659964963794">
        <ele>2036.73828125</ele>
        <time>2014-06-13T05:53:43Z</time>
      </trkpt>
      <trkpt lat="42.400062968954444" lon="2.159793991595507">
        <ele>2039.57421875</ele>
        <time>2014-06-13T05:53:55Z</time>
      </trkpt>
      <trkpt lat="42.400064980611205" lon="2.1598029602319">
        <ele>2039.75390625</ele>
        <time>2014-06-13T05:53:56Z</time>
      </trkpt>
      <trkpt lat="42.400081995874643" lon="2.159837996587157">
        <ele>2039.99609375</ele>
        <time>2014-06-13T05:53:59Z</time>
      </trkpt>
      <trkpt lat="42.400112003087997" lon="2.159904967993498">
        <ele>2041.58984375</ele>
        <time>2014-06-13T05:54:06Z</time>
      </trkpt>
      <trkpt lat="42.400122983381152" lon="2.159947967156768">
        <ele>2042.8203125</ele>
        <time>2014-06-13T05:54:10Z</time>
      </trkpt>
      <trkpt lat="42.400179980322719" lon="2.160090962424874">
        <ele>2046.01171875</ele>
        <time>2014-06-13T05:54:22Z</time>
      </trkpt>
      <trkpt lat="42.400262039154768" lon="2.160228006541729">
        <ele>2047.3984375</ele>
        <time>2014-06-13T05:54:35Z</time>
      </trkpt>
      <trkpt lat="42.400290034711361" lon="2.160277040675283">
        <ele>2047.66015625</ele>
        <time>2014-06-13T05:54:41Z</time>
      </trkpt>
      <trkpt lat="42.400314006954432" lon="2.160311993211508">
        <ele>2047.58203125</ele>
        <time>2014-06-13T05:54:45Z</time>
      </trkpt>
      <trkpt lat="42.400380978360772" lon="2.160404026508331">
        <ele>2046.58984375</ele>
        <time>2014-06-13T05:54:57Z</time>
      </trkpt>
      <trkpt lat="42.40046001970768" lon="2.160499999299645">
        <ele>2044.08984375</ele>
        <time>2014-06-13T05:55:08Z</time>
      </trkpt>
      <trkpt lat="42.400501007214189" lon="2.160555990412831">
        <ele>2045.6484375</ele>
        <time>2014-06-13T05:55:15Z</time>
      </trkpt>
      <trkpt lat="42.400550963357091" lon="2.160613993182778">
        <ele>2048.51171875</ele>
        <time>2014-06-13T05:55:22Z</time>
      </trkpt>
      <trkpt lat="42.400599997490644" lon="2.160689011216164">
        <ele>2051.5</ele>
        <time>2014-06-13T05:55:30Z</time>
      </trkpt>
      <trkpt lat="42.400644002482295" lon="2.160721030086279">
        <ele>2052.51171875</ele>
        <time>2014-06-13T05:55:36Z</time>
      </trkpt>
      <trkpt lat="42.400725977495313" lon="2.160763023421168">
        <ele>2053.3046875</ele>
        <time>2014-06-13T05:55:46Z</time>
      </trkpt>
      <trkpt lat="42.400747016072273" lon="2.160776015371084">
        <ele>2053.46875</ele>
        <time>2014-06-13T05:55:49Z</time>
      </trkpt>
      <trkpt lat="42.40078498609364" lon="2.160799987614155">
        <ele>2053.65625</ele>
        <time>2014-06-13T05:55:56Z</time>
      </trkpt>
      <trkpt lat="42.400841983035207" lon="2.160840975120664">
        <ele>2054.13671875</ele>
        <time>2014-06-13T05:56:10Z</time>
      </trkpt>
      <trkpt lat="42.400841983035207" lon="2.160840975120664">
        <ele>2054.13671875</ele>
        <time>2014-06-13T05:56:14Z</time>
      </trkpt>
      <trkpt lat="42.400893028825521" lon="2.160903001204133">
        <ele>2056.24609375</ele>
        <time>2014-06-13T05:56:25Z</time>
      </trkpt>
      <trkpt lat="42.400939967483282" lon="2.1609599981457">
        <ele>2058.25390625</ele>
        <time>2014-06-13T05:56:34Z</time>
      </trkpt>
      <trkpt lat="42.400982966646552" lon="2.160998973995447">
        <ele>2059.62890625</ele>
        <time>2014-06-13T05:56:40Z</time>
      </trkpt>
      <trkpt lat="42.401013979688287" lon="2.161038033664227">
        <ele>2060.62890625</ele>
        <time>2014-06-13T05:56:53Z</time>
      </trkpt>
      <trkpt lat="42.401110036298633" lon="2.16109000146389">
        <ele>2062.3125</ele>
        <time>2014-06-13T05:57:04Z</time>
      </trkpt>
      <trkpt lat="42.401131996884942" lon="2.161103999242187">
        <ele>2062.62109375</ele>
        <time>2014-06-13T05:57:07Z</time>
      </trkpt>
      <trkpt lat="42.401206009089947" lon="2.161162002012134">
        <ele>2063.3984375</ele>
        <time>2014-06-13T05:57:18Z</time>
      </trkpt>
      <trkpt lat="42.401210032403469" lon="2.161251017823815">
        <ele>2063.46875</ele>
        <time>2014-06-13T05:57:27Z</time>
      </trkpt>
      <trkpt lat="42.401207014918327" lon="2.16126099228859">
        <ele>2063.4609375</ele>
        <time>2014-06-13T05:57:28Z</time>
      </trkpt>
      <trkpt lat="42.401208020746708" lon="2.161273984238505">
        <ele>2063.46875</ele>
        <time>2014-06-13T05:57:31Z</time>
      </trkpt>
      <trkpt lat="42.401255965232849" lon="2.16134699061513">
        <ele>2064.76171875</ele>
        <time>2014-06-13T05:57:37Z</time>
      </trkpt>
      <trkpt lat="42.401338024064898" lon="2.161436006426811">
        <ele>2066.01953125</ele>
        <time>2014-06-13T05:57:45Z</time>
      </trkpt>
      <trkpt lat="42.401433996856213" lon="2.161568021401763">
        <ele>2067.21484375</ele>
        <time>2014-06-13T05:57:56Z</time>
      </trkpt>
      <trkpt lat="42.401421004906297" lon="2.161614038050175">
        <ele>2067.8203125</ele>
        <time>2014-06-13T05:58:08Z</time>
      </trkpt>
      <trkpt lat="42.401421004906297" lon="2.161614038050175">
        <ele>2067.8203125</ele>
        <time>2014-06-13T05:58:34Z</time>
      </trkpt>
      <trkpt lat="42.401461992412806" lon="2.161632981151342">
        <ele>2067.6796875</ele>
        <time>2014-06-13T05:58:38Z</time>
      </trkpt>
      <trkpt lat="42.401538016274571" lon="2.161692995578051">
        <ele>2068.71875</ele>
        <time>2014-06-13T05:58:49Z</time>
      </trkpt>
      <trkpt lat="42.401588978245854" lon="2.161724008619785">
        <ele>2069.51953125</ele>
        <time>2014-06-13T05:58:56Z</time>
      </trkpt>
      <trkpt lat="42.401638012379408" lon="2.161786034703255">
        <ele>2071.70703125</ele>
        <time>2014-06-13T05:59:02Z</time>
      </trkpt>
      <trkpt lat="42.401669025421143" lon="2.161858035251498">
        <ele>2074.015625</ele>
        <time>2014-06-13T05:59:08Z</time>
      </trkpt>
      <trkpt lat="42.401712024584413" lon="2.161904973909259">
        <ele>2075.4296875</ele>
        <time>2014-06-13T05:59:19Z</time>
      </trkpt>
      <trkpt lat="42.40175100043416" lon="2.161955013871193">
        <ele>2076.828125</ele>
        <time>2014-06-13T05:59:25Z</time>
      </trkpt>
      <trkpt lat="42.401798022910953" lon="2.161998013034463">
        <ele>2077.88671875</ele>
        <time>2014-06-13T05:59:32Z</time>
      </trkpt>
      <trkpt lat="42.40181596018374" lon="2.162022991105914">
        <ele>2078.5078125</ele>
        <time>2014-06-13T05:59:35Z</time>
      </trkpt>
      <trkpt lat="42.401853008195758" lon="2.162054004147649">
        <ele>2079.21875</ele>
        <time>2014-06-13T05:59:45Z</time>
      </trkpt>
      <trkpt lat="42.401877986267209" lon="2.162089040502906">
        <ele>2080.046875</ele>
        <time>2014-06-13T05:59:49Z</time>
      </trkpt>
      <trkpt lat="42.401910005137324" lon="2.162144025787711">
        <ele>2081.3046875</ele>
        <time>2014-06-13T05:59:55Z</time>
      </trkpt>
      <trkpt lat="42.401925008744001" lon="2.162169003859162">
        <ele>2081.8359375</ele>
        <time>2014-06-13T05:59:58Z</time>
      </trkpt>
      <trkpt lat="42.40196499042213" lon="2.162222983315587">
        <ele>2083.6171875</ele>
        <time>2014-06-13T06:00:04Z</time>
      </trkpt>
      <trkpt lat="42.402006983757019" lon="2.162286015227437">
        <ele>2085.95703125</ele>
        <time>2014-06-13T06:00:11Z</time>
      </trkpt>
      <trkpt lat="42.402020981535316" lon="2.162321973592043">
        <ele>2086.94140625</ele>
        <time>2014-06-13T06:00:14Z</time>
      </trkpt>
      <trkpt lat="42.402021987363696" lon="2.162361033260822">
        <ele>2087.71875</ele>
        <time>2014-06-13T06:00:17Z</time>
      </trkpt>
      <trkpt lat="42.402054006233811" lon="2.162482989951968">
        <ele>2090.62890625</ele>
        <time>2014-06-13T06:00:27Z</time>
      </trkpt>
      <trkpt lat="42.402087030932307" lon="2.162524983286858">
        <ele>2091.58984375</ele>
        <time>2014-06-13T06:00:33Z</time>
      </trkpt>
      <trkpt lat="42.402125000953674" lon="2.162607964128256">
        <ele>2092.99609375</ele>
        <time>2014-06-13T06:00:44Z</time>
      </trkpt>
      <trkpt lat="42.402132963761687" lon="2.162625985220075">
        <ele>2093.24609375</ele>
        <time>2014-06-13T06:00:58Z</time>
      </trkpt>
      <trkpt lat="42.402183003723621" lon="2.162712989374995">
        <ele>2094.02734375</ele>
        <time>2014-06-13T06:01:08Z</time>
      </trkpt>
      <trkpt lat="42.402235977351665" lon="2.162802005186677">
        <ele>2094.80078125</ele>
        <time>2014-06-13T06:01:17Z</time>
      </trkpt>
      <trkpt lat="42.402284005656838" lon="2.162933014333248">
        <ele>2096.58203125</ele>
        <time>2014-06-13T06:01:29Z</time>
      </trkpt>
      <trkpt lat="42.40230998955667" lon="2.162961009889841">
        <ele>2096.4921875</ele>
        <time>2014-06-13T06:01:33Z</time>
      </trkpt>
      <trkpt lat="42.402319964021444" lon="2.162980036810041">
        <ele>2096.89453125</ele>
        <time>2014-06-13T06:01:35Z</time>
      </trkpt>
      <trkpt lat="42.402344020083547" lon="2.163014989346266">
        <ele>2097.85546875</ele>
        <time>2014-06-13T06:01:39Z</time>
      </trkpt>
      <trkpt lat="42.402433035895228" lon="2.163094030693173">
        <ele>2099.83203125</ele>
        <time>2014-06-13T06:01:52Z</time>
      </trkpt>
      <trkpt lat="42.402482992038131" lon="2.163164019584656">
        <ele>2101.1796875</ele>
        <time>2014-06-13T06:02:02Z</time>
      </trkpt>
      <trkpt lat="42.402529008686543" lon="2.163235014304519">
        <ele>2102.60546875</ele>
        <time>2014-06-13T06:02:12Z</time>
      </trkpt>
      <trkpt lat="42.402604026719928" lon="2.163284970447421">
        <ele>2103.1875</ele>
        <time>2014-06-13T06:02:23Z</time>
      </trkpt>
      <trkpt lat="42.402639985084534" lon="2.163359988480806">
        <ele>2103.85546875</ele>
        <time>2014-06-13T06:02:33Z</time>
      </trkpt>
      <trkpt lat="42.402675021439791" lon="2.163371974602342">
        <ele>2103.65625</ele>
        <time>2014-06-13T06:02:38Z</time>
      </trkpt>
      <trkpt lat="42.402712991461158" lon="2.163400975987315">
        <ele>2104.453125</ele>
        <time>2014-06-13T06:02:42Z</time>
      </trkpt>
      <trkpt lat="42.402753978967667" lon="2.163443975150585">
        <ele>2105.52734375</ele>
        <time>2014-06-13T06:02:47Z</time>
      </trkpt>
      <trkpt lat="42.402770994231105" lon="2.163472976535559">
        <ele>2105.96484375</ele>
        <time>2014-06-13T06:02:50Z</time>
      </trkpt>
      <trkpt lat="42.402837965637445" lon="2.163511030375958">
        <ele>2107.515625</ele>
        <time>2014-06-13T06:03:00Z</time>
      </trkpt>
      <trkpt lat="42.402851041406393" lon="2.163527039811015">
        <ele>2108.1015625</ele>
        <time>2014-06-13T06:03:02Z</time>
      </trkpt>
      <trkpt lat="42.402893034741282" lon="2.163613960146904">
        <ele>2110.61328125</ele>
        <time>2014-06-13T06:03:15Z</time>
      </trkpt>
      <trkpt lat="42.402899991720915" lon="2.163631981238723">
        <ele>2111.0703125</ele>
        <time>2014-06-13T06:03:30Z</time>
      </trkpt>
      <trkpt lat="42.402920024469495" lon="2.163666011765599">
        <ele>2111.9453125</ele>
        <time>2014-06-13T06:03:33Z</time>
      </trkpt>
      <trkpt lat="42.402949025854468" lon="2.163713034242392">
        <ele>2113.0390625</ele>
        <time>2014-06-13T06:03:38Z</time>
      </trkpt>
      <trkpt lat="42.403007028624415" lon="2.163802972063422">
        <ele>2114.73046875</ele>
        <time>2014-06-13T06:03:50Z</time>
      </trkpt>
      <trkpt lat="42.403046004474163" lon="2.163808001205325">
        <ele>2114.8046875</ele>
        <time>2014-06-13T06:04:01Z</time>
      </trkpt>
      <trkpt lat="42.403152035549283" lon="2.163872038945556">
        <ele>2116.8828125</ele>
        <time>2014-06-13T06:04:12Z</time>
      </trkpt>
      <trkpt lat="42.403228981420398" lon="2.163960970938206">
        <ele>2118.84765625</ele>
        <time>2014-06-13T06:04:22Z</time>
      </trkpt>
      <trkpt lat="42.403309028595686" lon="2.164072031155229">
        <ele>2120.2109375</ele>
        <time>2014-06-13T06:04:34Z</time>
      </trkpt>
      <trkpt lat="42.403320008888841" lon="2.164092985913158">
        <ele>2120.359375</ele>
        <time>2014-06-13T06:04:36Z</time>
      </trkpt>
      <trkpt lat="42.40338396281004" lon="2.16416004113853">
        <ele>2120.546875</ele>
        <time>2014-06-13T06:04:44Z</time>
      </trkpt>
      <trkpt lat="42.403411036357284" lon="2.164170015603304">
        <ele>2120.453125</ele>
        <time>2014-06-13T06:04:47Z</time>
      </trkpt>
      <trkpt lat="42.403440959751606" lon="2.164231035858393">
        <ele>2120.43359375</ele>
        <time>2014-06-13T06:04:56Z</time>
      </trkpt>
      <trkpt lat="42.403483958914876" lon="2.16424603946507">
        <ele>2120.5546875</ele>
        <time>2014-06-13T06:05:01Z</time>
      </trkpt>
      <trkpt lat="42.403518995270133" lon="2.164257019758225">
        <ele>2120.6953125</ele>
        <time>2014-06-13T06:05:07Z</time>
      </trkpt>
      <trkpt lat="42.403549002483487" lon="2.164273029193282">
        <ele>2120.9140625</ele>
        <time>2014-06-13T06:05:10Z</time>
      </trkpt>
      <trkpt lat="42.403616979718208" lon="2.164297001436353">
        <ele>2121.17578125</ele>
        <time>2014-06-13T06:05:19Z</time>
      </trkpt>
      <trkpt lat="42.403639024123549" lon="2.164316028356552">
        <ele>2121.41796875</ele>
        <time>2014-06-13T06:06:13Z</time>
      </trkpt>
      <trkpt lat="42.403696021065116" lon="2.164326002821326">
        <ele>2121.4453125</ele>
        <time>2014-06-13T06:06:21Z</time>
      </trkpt>
      <trkpt lat="42.403733991086483" lon="2.164320973679423">
        <ele>2121.3046875</ele>
        <time>2014-06-13T06:06:34Z</time>
      </trkpt>
      <trkpt lat="42.403768021613359" lon="2.164360033348203">
        <ele>2121.73046875</ele>
        <time>2014-06-13T06:06:52Z</time>
      </trkpt>
      <trkpt lat="42.403843039646745" lon="2.164363972842693">
        <ele>2121.97265625</ele>
        <time>2014-06-13T06:07:04Z</time>
      </trkpt>
      <trkpt lat="42.403889978304505" lon="2.164401020854712">
        <ele>2122.55859375</ele>
        <time>2014-06-13T06:07:14Z</time>
      </trkpt>
      <trkpt lat="42.403929959982634" lon="2.16442197561264">
        <ele>2122.88671875</ele>
        <time>2014-06-13T06:07:20Z</time>
      </trkpt>
      <trkpt lat="42.403955021873116" lon="2.164438990876079">
        <ele>2123.09375</ele>
        <time>2014-06-13T06:07:23Z</time>
      </trkpt>
      <trkpt lat="42.403981005772948" lon="2.164455000311136">
        <ele>2123.26953125</ele>
        <time>2014-06-13T06:07:31Z</time>
      </trkpt>
      <trkpt lat="42.404015036299825" lon="2.164475033059716">
        <ele>2123.45703125</ele>
        <time>2014-06-13T06:07:37Z</time>
      </trkpt>
      <trkpt lat="42.404111009091139" lon="2.164544016122818">
        <ele>2123.78125</ele>
        <time>2014-06-13T06:07:48Z</time>
      </trkpt>
      <trkpt lat="42.404159037396312" lon="2.164554996415973">
        <ele>2123.76953125</ele>
        <time>2014-06-13T06:07:57Z</time>
      </trkpt>
      <trkpt lat="42.404167000204325" lon="2.164562037214637">
        <ele>2123.80078125</ele>
        <time>2014-06-13T06:07:58Z</time>
      </trkpt>
      <trkpt lat="42.404247969388962" lon="2.16463596560061">
        <ele>2125.16796875</ele>
        <time>2014-06-13T06:08:09Z</time>
      </trkpt>
      <trkpt lat="42.404254004359245" lon="2.164642000570893">
        <ele>2125.37109375</ele>
        <time>2014-06-13T06:08:10Z</time>
      </trkpt>
      <trkpt lat="42.404276970773935" lon="2.164668990299106">
        <ele>2126.234375</ele>
        <time>2014-06-13T06:08:13Z</time>
      </trkpt>
      <trkpt lat="42.404302032664418" lon="2.164702014997602">
        <ele>2127.2421875</ele>
        <time>2014-06-13T06:08:16Z</time>
      </trkpt>
      <trkpt lat="42.404389036819339" lon="2.164759011939168">
        <ele>2129.03515625</ele>
        <time>2014-06-13T06:08:27Z</time>
      </trkpt>
      <trkpt lat="42.404390964657068" lon="2.16476303525269">
        <ele>2129.140625</ele>
        <time>2014-06-13T06:08:28Z</time>
      </trkpt>
      <trkpt lat="42.404476962983608" lon="2.164803016930819">
        <ele>2130.3125</ele>
        <time>2014-06-13T06:08:39Z</time>
      </trkpt>
      <trkpt lat="42.404511999338865" lon="2.164832018315792">
        <ele>2131.02734375</ele>
        <time>2014-06-13T06:08:45Z</time>
      </trkpt>
      <trkpt lat="42.404535971581936" lon="2.164846016094089">
        <ele>2131.40625</ele>
        <time>2014-06-13T06:08:48Z</time>
      </trkpt>
      <trkpt lat="42.404550975188613" lon="2.164846016094089">
        <ele>2131.6953125</ele>
        <time>2014-06-13T06:08:50Z</time>
      </trkpt>
      <trkpt lat="42.404619958251715" lon="2.164874011650682">
        <ele>2133.51171875</ele>
        <time>2014-06-13T06:08:58Z</time>
      </trkpt>
      <trkpt lat="42.404707968235016" lon="2.164923967793584">
        <ele>2135.76171875</ele>
        <time>2014-06-13T06:09:10Z</time>
      </trkpt>
      <trkpt lat="42.404736969619989" lon="2.164946012198925">
        <ele>2136.4765625</ele>
        <time>2014-06-13T06:09:14Z</time>
      </trkpt>
      <trkpt lat="42.404762031510472" lon="2.164989011362195">
        <ele>2137.36328125</ele>
        <time>2014-06-13T06:09:19Z</time>
      </trkpt>
      <trkpt lat="42.404778962954879" lon="2.165008038282394">
        <ele>2137.859375</ele>
        <time>2014-06-13T06:09:22Z</time>
      </trkpt>
      <trkpt lat="42.404792038723826" lon="2.165025975555182">
        <ele>2138.2734375</ele>
        <time>2014-06-13T06:09:24Z</time>
      </trkpt>
      <trkpt lat="42.404804024845362" lon="2.16504299081862">
        <ele>2138.64453125</ele>
        <time>2014-06-13T06:09:26Z</time>
      </trkpt>
      <trkpt lat="42.404898991808295" lon="2.165136029943824">
        <ele>2140.58203125</ele>
        <time>2014-06-13T06:09:37Z</time>
      </trkpt>
      <trkpt lat="42.404950959607959" lon="2.165184980258346">
        <ele>2141.04296875</ele>
        <time>2014-06-13T06:09:48Z</time>
      </trkpt>
      <trkpt lat="42.404975015670061" lon="2.165183974429965">
        <ele>2141.0078125</ele>
        <time>2014-06-13T06:09:53Z</time>
      </trkpt>
      <trkpt lat="42.404980966821313" lon="2.165140975266695">
        <ele>2140.6875</ele>
        <time>2014-06-13T06:10:04Z</time>
      </trkpt>
      <trkpt lat="42.405039975419641" lon="2.165079033002257">
        <ele>2140.375</ele>
        <time>2014-06-13T06:11:51Z</time>
      </trkpt>
      <trkpt lat="42.405063025653362" lon="2.165035028010607">
        <ele>2140.23046875</ele>
        <time>2014-06-13T06:11:57Z</time>
      </trkpt>
      <trkpt lat="42.405097978189588" lon="2.164954980835319">
        <ele>2140.1796875</ele>
        <time>2014-06-13T06:12:08Z</time>
      </trkpt>
      <trkpt lat="42.405120022594929" lon="2.164955986663699">
        <ele>2140.31640625</ele>
        <time>2014-06-13T06:12:13Z</time>
      </trkpt>
      <trkpt lat="42.405180959030986" lon="2.164936037734151">
        <ele>2140.75390625</ele>
        <time>2014-06-13T06:12:23Z</time>
      </trkpt>
      <trkpt lat="42.40521096624434" lon="2.164922961965203">
        <ele>2141</ele>
        <time>2014-06-13T06:12:37Z</time>
      </trkpt>
      <trkpt lat="42.40521096624434" lon="2.164922961965203">
        <ele>2141</ele>
        <time>2014-06-13T06:12:44Z</time>
      </trkpt>
      <trkpt lat="42.405242985114455" lon="2.164873005822301">
        <ele>2141.4375</ele>
        <time>2014-06-13T06:12:50Z</time>
      </trkpt>
      <trkpt lat="42.405267041176558" lon="2.164818020537496">
        <ele>2141.8984375</ele>
        <time>2014-06-13T06:12:54Z</time>
      </trkpt>
      <trkpt lat="42.405299982056022" lon="2.164789019152522">
        <ele>2142.8515625</ele>
        <time>2014-06-13T06:12:58Z</time>
      </trkpt>
      <trkpt lat="42.405327977612615" lon="2.164735961705446">
        <ele>2143.92578125</ele>
        <time>2014-06-13T06:13:03Z</time>
      </trkpt>
      <trkpt lat="42.405328983440995" lon="2.164707966148853">
        <ele>2144.10546875</ele>
        <time>2014-06-13T06:13:05Z</time>
      </trkpt>
      <trkpt lat="42.405347004532814" lon="2.16465700417757">
        <ele>2144.90234375</ele>
        <time>2014-06-13T06:13:09Z</time>
      </trkpt>
      <trkpt lat="42.405400983989239" lon="2.164594978094101">
        <ele>2147.01953125</ele>
        <time>2014-06-13T06:13:16Z</time>
      </trkpt>
      <trkpt lat="42.405434008687735" lon="2.164572011679411">
        <ele>2148.4453125</ele>
        <time>2014-06-13T06:13:20Z</time>
      </trkpt>
      <trkpt lat="42.405524030327797" lon="2.164626996964216">
        <ele>2150.2890625</ele>
        <time>2014-06-13T06:13:31Z</time>
      </trkpt>
      <trkpt lat="42.405537022277713" lon="2.164632026106119">
        <ele>2150.640625</ele>
        <time>2014-06-13T06:13:33Z</time>
      </trkpt>
      <trkpt lat="42.405559988692403" lon="2.164642000570893">
        <ele>2151.25</ele>
        <time>2014-06-13T06:13:36Z</time>
      </trkpt>
      <trkpt lat="42.405581027269363" lon="2.164665972813964">
        <ele>2151.69921875</ele>
        <time>2014-06-13T06:13:39Z</time>
      </trkpt>
      <trkpt lat="42.405602987855673" lon="2.164715006947517">
        <ele>2151.9921875</ele>
        <time>2014-06-13T06:13:44Z</time>
      </trkpt>
      <trkpt lat="42.405613968148828" lon="2.164745014160872">
        <ele>2152.09375</ele>
        <time>2014-06-13T06:13:47Z</time>
      </trkpt>
      <trkpt lat="42.405623020604253" lon="2.164778038859367">
        <ele>2152.11328125</ele>
        <time>2014-06-13T06:13:50Z</time>
      </trkpt>
      <trkpt lat="42.405650010332465" lon="2.164907958358526">
        <ele>2151.94140625</ele>
        <time>2014-06-13T06:14:03Z</time>
      </trkpt>
      <trkpt lat="42.405653027817607" lon="2.164922961965203">
        <ele>2151.9296875</ele>
        <time>2014-06-13T06:14:05Z</time>
      </trkpt>
      <trkpt lat="42.405670965090394" lon="2.164989011362195">
        <ele>2152.171875</ele>
        <time>2014-06-13T06:14:11Z</time>
      </trkpt>
      <trkpt lat="42.405714970082045" lon="2.165032010525465">
        <ele>2153.71484375</ele>
        <time>2014-06-13T06:14:22Z</time>
      </trkpt>
      <trkpt lat="42.405771967023611" lon="2.165090013295412">
        <ele>2155.7578125</ele>
        <time>2014-06-13T06:14:34Z</time>
      </trkpt>
      <trkpt lat="42.40583399310708" lon="2.16510602273047">
        <ele>2157.96875</ele>
        <time>2014-06-13T06:14:44Z</time>
      </trkpt>
      <trkpt lat="42.40589702501893" lon="2.165146004408598">
        <ele>2160.2734375</ele>
        <time>2014-06-13T06:14:55Z</time>
      </trkpt>
      <trkpt lat="42.405904987826943" lon="2.165152039378882">
        <ele>2160.56640625</ele>
        <time>2014-06-13T06:14:57Z</time>
      </trkpt>
      <trkpt lat="42.405955027788877" lon="2.165210964158177">
        <ele>2162.4765625</ele>
        <time>2014-06-13T06:15:07Z</time>
      </trkpt>
      <trkpt lat="42.405965002253652" lon="2.165243988856673">
        <ele>2162.91015625</ele>
        <time>2014-06-13T06:15:10Z</time>
      </trkpt>
      <trkpt lat="42.405981011688709" lon="2.165288999676704">
        <ele>2163.59375</ele>
        <time>2014-06-13T06:15:15Z</time>
      </trkpt>
      <trkpt lat="42.406002972275019" lon="2.165382038801909">
        <ele>2164.70703125</ele>
        <time>2014-06-13T06:15:27Z</time>
      </trkpt>
      <trkpt lat="42.406014958396554" lon="2.165454039350152">
        <ele>2165.51171875</ele>
        <time>2014-06-13T06:15:38Z</time>
      </trkpt>
      <trkpt lat="42.406049994751811" lon="2.165489997714758">
        <ele>2167.2265625</ele>
        <time>2014-06-13T06:15:50Z</time>
      </trkpt>
      <trkpt lat="42.406101040542126" lon="2.165525034070015">
        <ele>2169.625</ele>
        <time>2014-06-13T06:16:01Z</time>
      </trkpt>
      <trkpt lat="42.406121995300055" lon="2.165583036839962">
        <ele>2170.796875</ele>
        <time>2014-06-13T06:16:11Z</time>
      </trkpt>
      <trkpt lat="42.406181003898382" lon="2.165680015459657">
        <ele>2173.765625</ele>
        <time>2014-06-13T06:22:12Z</time>
      </trkpt>
      <trkpt lat="42.406229032203555" lon="2.165711028501391">
        <ele>2175.95703125</ele>
        <time>2014-06-13T06:22:23Z</time>
      </trkpt>
      <trkpt lat="42.406245041638613" lon="2.165747992694378">
        <ele>2176.75390625</ele>
        <time>2014-06-13T06:22:34Z</time>
      </trkpt>
      <trkpt lat="42.406248981133103" lon="2.165779005736113">
        <ele>2177.00390625</ele>
        <time>2014-06-13T06:22:39Z</time>
      </trkpt>
      <trkpt lat="42.40624001249671" lon="2.165815969929099">
        <ele>2176.73828125</ele>
        <time>2014-06-13T06:22:42Z</time>
      </trkpt>
      <trkpt lat="42.406250992789865" lon="2.165868021547794">
        <ele>2177.32421875</ele>
        <time>2014-06-13T06:22:49Z</time>
      </trkpt>
      <trkpt lat="42.406274965032935" lon="2.165942033752799">
        <ele>2178.44140625</ele>
        <time>2014-06-13T06:23:02Z</time>
      </trkpt>
      <trkpt lat="42.406279994174838" lon="2.166015962138772">
        <ele>2178.7890625</ele>
        <time>2014-06-13T06:23:12Z</time>
      </trkpt>
      <trkpt lat="42.406289968639612" lon="2.166100032627583">
        <ele>2179.38671875</ele>
        <time>2014-06-13T06:23:19Z</time>
      </trkpt>
      <trkpt lat="42.406287034973502" lon="2.166129034012556">
        <ele>2179.50390625</ele>
        <time>2014-06-13T06:23:21Z</time>
      </trkpt>
      <trkpt lat="42.406298015266657" lon="2.166233975440264">
        <ele>2180.6796875</ele>
        <time>2014-06-13T06:23:32Z</time>
      </trkpt>
      <trkpt lat="42.406341014429927" lon="2.166360961273313">
        <ele>2183.03125</ele>
        <time>2014-06-13T06:23:44Z</time>
      </trkpt>
      <trkpt lat="42.406347971409559" lon="2.166523989289999">
        <ele>2184.421875</ele>
        <time>2014-06-13T06:23:57Z</time>
      </trkpt>
      <trkpt lat="42.40632701665163" lon="2.166656004264951">
        <ele>2184.74609375</ele>
        <time>2014-06-13T06:24:08Z</time>
      </trkpt>
      <trkpt lat="42.406325004994869" lon="2.166747031733394">
        <ele>2185.35546875</ele>
        <time>2014-06-13T06:24:16Z</time>
      </trkpt>
      <trkpt lat="42.406308995559812" lon="2.166835041716695">
        <ele>2185.515625</ele>
        <time>2014-06-13T06:24:27Z</time>
      </trkpt>
      <trkpt lat="42.406310001388192" lon="2.166917016729713">
        <ele>2186.265625</ele>
        <time>2014-06-13T06:24:37Z</time>
      </trkpt>
      <trkpt lat="42.406315030530095" lon="2.167036039754748">
        <ele>2187.45703125</ele>
        <time>2014-06-13T06:24:50Z</time>
      </trkpt>
      <trkpt lat="42.406311007216573" lon="2.167194960638881">
        <ele>2188.72265625</ele>
        <time>2014-06-13T06:25:03Z</time>
      </trkpt>
      <trkpt lat="42.406308995559812" lon="2.167257992550731">
        <ele>2189.28515625</ele>
        <time>2014-06-13T06:25:14Z</time>
      </trkpt>
      <trkpt lat="42.406317964196205" lon="2.167357988655567">
        <ele>2190.53125</ele>
        <time>2014-06-13T06:25:27Z</time>
      </trkpt>
      <trkpt lat="42.406302038580179" lon="2.167512970045209">
        <ele>2191.6015625</ele>
        <time>2014-06-13T06:25:39Z</time>
      </trkpt>
      <trkpt lat="42.406291980296373" lon="2.167560998350382">
        <ele>2191.78515625</ele>
        <time>2014-06-13T06:25:44Z</time>
      </trkpt>
      <trkpt lat="42.406294997781515" lon="2.167585976421833">
        <ele>2192.1328125</ele>
        <time>2014-06-13T06:25:46Z</time>
      </trkpt>
      <trkpt lat="42.406290974467993" lon="2.167671974748373">
        <ele>2192.94140625</ele>
        <time>2014-06-13T06:25:57Z</time>
      </trkpt>
      <trkpt lat="42.406289968639612" lon="2.167682033032179">
        <ele>2193.01953125</ele>
        <time>2014-06-13T06:25:58Z</time>
      </trkpt>
      <trkpt lat="42.406288040801883" lon="2.167758978903294">
        <ele>2193.79296875</ele>
        <time>2014-06-13T06:26:05Z</time>
      </trkpt>
      <trkpt lat="42.406259039416909" lon="2.167860986664891">
        <ele>2194.125</ele>
        <time>2014-06-13T06:26:16Z</time>
      </trkpt>
      <trkpt lat="42.406236995011568" lon="2.167950002476573">
        <ele>2194.63671875</ele>
        <time>2014-06-13T06:26:27Z</time>
      </trkpt>
      <trkpt lat="42.406236995011568" lon="2.167977998033166">
        <ele>2195.1796875</ele>
        <time>2014-06-13T06:26:30Z</time>
      </trkpt>
      <trkpt lat="42.406268008053303" lon="2.168067013844848">
        <ele>2197.67578125</ele>
        <time>2014-06-13T06:26:42Z</time>
      </trkpt>
      <trkpt lat="42.406272031366825" lon="2.168075982481241">
        <ele>2197.94921875</ele>
        <time>2014-06-13T06:26:45Z</time>
      </trkpt>
      <trkpt lat="42.406264990568161" lon="2.168188970535994">
        <ele>2199.94140625</ele>
        <time>2014-06-13T06:26:57Z</time>
      </trkpt>
      <trkpt lat="42.406289968639612" lon="2.168285027146339">
        <ele>2202.40625</ele>
        <time>2014-06-13T06:27:09Z</time>
      </trkpt>
      <trkpt lat="42.406315030530095" lon="2.168316040188074">
        <ele>2203.60546875</ele>
        <time>2014-06-13T06:27:19Z</time>
      </trkpt>
      <trkpt lat="42.406359035521746" lon="2.168391980230808">
        <ele>2206.0546875</ele>
        <time>2014-06-13T06:27:33Z</time>
      </trkpt>
      <trkpt lat="42.406378984451294" lon="2.168450988829136">
        <ele>2207.62890625</ele>
        <time>2014-06-13T06:27:44Z</time>
      </trkpt>
      <trkpt lat="42.406422989442945" lon="2.168526006862521">
        <ele>2210.52734375</ele>
        <time>2014-06-13T06:27:56Z</time>
      </trkpt>
      <trkpt lat="42.406459031626582" lon="2.168614016845822">
        <ele>2213.35546875</ele>
        <time>2014-06-13T06:28:10Z</time>
      </trkpt>
      <trkpt lat="42.406485015526414" lon="2.168651986867189">
        <ele>2214.921875</ele>
        <time>2014-06-13T06:28:21Z</time>
      </trkpt>
      <trkpt lat="42.406514016911387" lon="2.168709989637137">
        <ele>2216.890625</ele>
        <time>2014-06-13T06:28:34Z</time>
      </trkpt>
      <trkpt lat="42.406534971669316" lon="2.168811997398734">
        <ele>2219.2734375</ele>
        <time>2014-06-13T06:28:45Z</time>
      </trkpt>
      <trkpt lat="42.40656397305429" lon="2.168866982683539">
        <ele>2221.13671875</ele>
        <time>2014-06-13T06:28:56Z</time>
      </trkpt>
      <trkpt lat="42.406603032723069" lon="2.168921967968345">
        <ele>2223.30859375</ele>
        <time>2014-06-13T06:29:08Z</time>
      </trkpt>
      <trkpt lat="42.406621975824237" lon="2.168949041515589">
        <ele>2224.359375</ele>
        <time>2014-06-13T06:29:20Z</time>
      </trkpt>
      <trkpt lat="42.406672015786171" lon="2.169007966294885">
        <ele>2226.90234375</ele>
        <time>2014-06-13T06:29:31Z</time>
      </trkpt>
      <trkpt lat="42.406724989414215" lon="2.169087007641792">
        <ele>2229.68359375</ele>
        <time>2014-06-13T06:29:43Z</time>
      </trkpt>
      <trkpt lat="42.406728006899357" lon="2.169099999591708">
        <ele>2229.93359375</ele>
        <time>2014-06-13T06:30:01Z</time>
      </trkpt>
      <trkpt lat="42.406723983585835" lon="2.169101005420089">
        <ele>2229.8203125</ele>
        <time>2014-06-13T06:30:37Z</time>
      </trkpt>
      <trkpt lat="42.406722977757454" lon="2.16910301707685">
        <ele>2229.8125</ele>
        <time>2014-06-13T06:31:10Z</time>
      </trkpt>
      <trkpt lat="42.406719960272312" lon="2.169180968776345">
        <ele>2230.64453125</ele>
        <time>2014-06-13T06:31:23Z</time>
      </trkpt>
      <trkpt lat="42.406730018556118" lon="2.169255986809731">
        <ele>2231.83984375</ele>
        <time>2014-06-13T06:31:35Z</time>
      </trkpt>
      <trkpt lat="42.406771006062627" lon="2.169354977086186">
        <ele>2234.515625</ele>
        <time>2014-06-13T06:31:48Z</time>
      </trkpt>
      <trkpt lat="42.406806964427233" lon="2.169406022876501">
        <ele>2236.84765625</ele>
        <time>2014-06-13T06:31:59Z</time>
      </trkpt>
      <trkpt lat="42.406832026317716" lon="2.169501995667815">
        <ele>2238.8828125</ele>
        <time>2014-06-13T06:32:10Z</time>
      </trkpt>
      <trkpt lat="42.406832026317716" lon="2.169609032571316">
        <ele>2239.74609375</ele>
        <time>2014-06-13T06:32:23Z</time>
      </trkpt>
      <trkpt lat="42.406845018267632" lon="2.169699976220727">
        <ele>2241.1015625</ele>
        <time>2014-06-13T06:32:35Z</time>
      </trkpt>
      <trkpt lat="42.406867984682322" lon="2.169778011739254">
        <ele>2242.828125</ele>
        <time>2014-06-13T06:32:47Z</time>
      </trkpt>
      <trkpt lat="42.406888017430902" lon="2.16985403560102">
        <ele>2244.296875</ele>
        <time>2014-06-13T06:32:58Z</time>
      </trkpt>
      <trkpt lat="42.406889023259282" lon="2.169861998409033">
        <ele>2244.39453125</ele>
        <time>2014-06-13T06:33:11Z</time>
      </trkpt>
      <trkpt lat="42.40688600577414" lon="2.169868033379316">
        <ele>2244.29296875</ele>
        <time>2014-06-13T06:33:45Z</time>
      </trkpt>
      <trkpt lat="42.406897991895676" lon="2.169932993128896">
        <ele>2245.27734375</ele>
        <time>2014-06-13T06:34:00Z</time>
      </trkpt>
      <trkpt lat="42.406916012987494" lon="2.170019997283816">
        <ele>2246.671875</ele>
        <time>2014-06-13T06:34:11Z</time>
      </trkpt>
      <trkpt lat="42.406916012987494" lon="2.170019997283816">
        <ele>2246.671875</ele>
        <time>2014-06-13T06:34:30Z</time>
      </trkpt>
      <trkpt lat="42.406916012987494" lon="2.170019997283816">
        <ele>2246.671875</ele>
        <time>2014-06-13T06:34:34Z</time>
      </trkpt>
      <trkpt lat="42.406962029635906" lon="2.170144971460104">
        <ele>2249.55078125</ele>
        <time>2014-06-13T06:34:46Z</time>
      </trkpt>
      <trkpt lat="42.40699103102088" lon="2.17026399448514">
        <ele>2251.203125</ele>
        <time>2014-06-13T06:34:57Z</time>
      </trkpt>
      <trkpt lat="42.407042998820543" lon="2.17035099864006">
        <ele>2253.83203125</ele>
        <time>2014-06-13T06:35:10Z</time>
      </trkpt>
      <trkpt lat="42.407050961628556" lon="2.170383017510176">
        <ele>2254.29296875</ele>
        <time>2014-06-13T06:35:14Z</time>
      </trkpt>
      <trkpt lat="42.407073006033897" lon="2.170473039150238">
        <ele>2255.58984375</ele>
        <time>2014-06-13T06:35:24Z</time>
      </trkpt>
      <trkpt lat="42.407098989933729" lon="2.170574041083455">
        <ele>2256.93359375</ele>
        <time>2014-06-13T06:35:35Z</time>
      </trkpt>
      <trkpt lat="42.407139977440238" lon="2.17067101970315">
        <ele>2258.8671875</ele>
        <time>2014-06-13T06:35:47Z</time>
      </trkpt>
      <trkpt lat="42.407167972996831" lon="2.170762969180942">
        <ele>2260.3125</ele>
        <time>2014-06-13T06:35:58Z</time>
      </trkpt>
      <trkpt lat="42.407194962725043" lon="2.170829018577933">
        <ele>2261.734375</ele>
        <time>2014-06-13T06:36:08Z</time>
      </trkpt>
      <trkpt lat="42.407226981595159" lon="2.170901019126177">
        <ele>2263.4140625</ele>
        <time>2014-06-13T06:36:17Z</time>
      </trkpt>
      <trkpt lat="42.407253971323371" lon="2.170965978875756">
        <ele>2264.4296875</ele>
        <time>2014-06-13T06:36:28Z</time>
      </trkpt>
      <trkpt lat="42.40729495882988" lon="2.171052983030677">
        <ele>2266.03515625</ele>
        <time>2014-06-13T06:36:40Z</time>
      </trkpt>
      <trkpt lat="42.407331001013517" lon="2.171150967478752">
        <ele>2267.2421875</ele>
        <time>2014-06-13T06:36:52Z</time>
      </trkpt>
      <trkpt lat="42.407374000176787" lon="2.171248029917479">
        <ele>2268.80859375</ele>
        <time>2014-06-13T06:37:03Z</time>
      </trkpt>
      <trkpt lat="42.407380035147071" lon="2.171251969411969">
        <ele>2269.109375</ele>
        <time>2014-06-13T06:37:17Z</time>
      </trkpt>
      <trkpt lat="42.407409036532044" lon="2.171296980232">
        <ele>2270.15234375</ele>
        <time>2014-06-13T06:37:23Z</time>
      </trkpt>
      <trkpt lat="42.40746402181685" lon="2.171350959688425">
        <ele>2272.38671875</ele>
        <time>2014-06-13T06:37:33Z</time>
      </trkpt>
      <trkpt lat="42.40750702098012" lon="2.171438969671726">
        <ele>2273.4453125</ele>
        <time>2014-06-13T06:37:45Z</time>
      </trkpt>
      <trkpt lat="42.407569969072938" lon="2.171514993533492">
        <ele>2275.71875</ele>
        <time>2014-06-13T06:37:57Z</time>
      </trkpt>
      <trkpt lat="42.407619003206491" lon="2.171606021001935">
        <ele>2276.97265625</ele>
        <time>2014-06-13T06:38:09Z</time>
      </trkpt>
      <trkpt lat="42.407674994319677" lon="2.171692019328475">
        <ele>2278.58984375</ele>
        <time>2014-06-13T06:38:22Z</time>
      </trkpt>
      <trkpt lat="42.407728973776102" lon="2.171778017655015">
        <ele>2280</ele>
        <time>2014-06-13T06:38:34Z</time>
      </trkpt>
      <trkpt lat="42.407769961282611" lon="2.171848006546497">
        <ele>2280.9375</ele>
        <time>2014-06-13T06:38:45Z</time>
      </trkpt>
      <trkpt lat="42.407815977931023" lon="2.171885976567864">
        <ele>2282.64453125</ele>
        <time>2014-06-13T06:38:56Z</time>
      </trkpt>
      <trkpt lat="42.407859982922673" lon="2.171911960467696">
        <ele>2284.43359375</ele>
        <time>2014-06-13T06:39:06Z</time>
      </trkpt>
      <trkpt lat="42.407896025106311" lon="2.17193802818656">
        <ele>2285.75390625</ele>
        <time>2014-06-13T06:39:17Z</time>
      </trkpt>
      <trkpt lat="42.407964002341032" lon="2.172020003199577">
        <ele>2287.5625</ele>
        <time>2014-06-13T06:39:30Z</time>
      </trkpt>
      <trkpt lat="42.408009013161063" lon="2.172083035111427">
        <ele>2288.3359375</ele>
        <time>2014-06-13T06:39:40Z</time>
      </trkpt>
      <trkpt lat="42.408061986789107" lon="2.172129973769188">
        <ele>2290.0078125</ele>
        <time>2014-06-13T06:39:52Z</time>
      </trkpt>
      <trkpt lat="42.408102974295616" lon="2.172194011509419">
        <ele>2290.796875</ele>
        <time>2014-06-13T06:40:02Z</time>
      </trkpt>
      <trkpt lat="42.408140022307634" lon="2.172233993187547">
        <ele>2291.96875</ele>
        <time>2014-06-13T06:40:12Z</time>
      </trkpt>
      <trkpt lat="42.408180003985763" lon="2.172291995957494">
        <ele>2293.01953125</ele>
        <time>2014-06-13T06:40:22Z</time>
      </trkpt>
      <trkpt lat="42.408227026462555" lon="2.172354022040963">
        <ele>2294.50390625</ele>
        <time>2014-06-13T06:40:32Z</time>
      </trkpt>
      <trkpt lat="42.40828201174736" lon="2.172402972355485">
        <ele>2296.5546875</ele>
        <time>2014-06-13T06:40:43Z</time>
      </trkpt>
      <trkpt lat="42.408354012295604" lon="2.172487964853644">
        <ele>2299.34765625</ele>
        <time>2014-06-13T06:40:56Z</time>
      </trkpt>
      <trkpt lat="42.408383013680577" lon="2.172513026744127">
        <ele>2300.640625</ele>
        <time>2014-06-13T06:41:06Z</time>
      </trkpt>
      <trkpt lat="42.408420983701944" lon="2.172560971230269">
        <ele>2302.265625</ele>
        <time>2014-06-13T06:41:18Z</time>
      </trkpt>
      <trkpt lat="42.408461971208453" lon="2.172607993707061">
        <ele>2304.15234375</ele>
        <time>2014-06-13T06:41:30Z</time>
      </trkpt>
      <trkpt lat="42.408520979806781" lon="2.172673037275672">
        <ele>2307.046875</ele>
        <time>2014-06-13T06:41:45Z</time>
      </trkpt>
      <trkpt lat="42.408537995070219" lon="2.172716036438942">
        <ele>2307.796875</ele>
        <time>2014-06-13T06:41:59Z</time>
      </trkpt>
      <trkpt lat="42.408537995070219" lon="2.172716036438942">
        <ele>2307.796875</ele>
        <time>2014-06-13T06:42:11Z</time>
      </trkpt>
      <trkpt lat="42.40856196731329" lon="2.172791976481676">
        <ele>2308.734375</ele>
        <time>2014-06-13T06:42:22Z</time>
      </trkpt>
      <trkpt lat="42.408597003668547" lon="2.172801028937101">
        <ele>2310.73828125</ele>
        <time>2014-06-13T06:42:33Z</time>
      </trkpt>
      <trkpt lat="42.408619970083237" lon="2.172806980088353">
        <ele>2311.83984375</ele>
        <time>2014-06-13T06:42:41Z</time>
      </trkpt>
      <trkpt lat="42.4086460378021" lon="2.172866994515061">
        <ele>2312.59375</ele>
        <time>2014-06-13T06:42:52Z</time>
      </trkpt>
      <trkpt lat="42.4086460378021" lon="2.172875963151455">
        <ele>2312.53515625</ele>
        <time>2014-06-13T06:43:11Z</time>
      </trkpt>
      <trkpt lat="42.408654000610113" lon="2.172888033092022">
        <ele>2312.8046875</ele>
        <time>2014-06-13T06:43:22Z</time>
      </trkpt>
      <trkpt lat="42.408699011430144" lon="2.172959027811885">
        <ele>2314.3125</ele>
        <time>2014-06-13T06:43:32Z</time>
      </trkpt>
      <trkpt lat="42.408704040572047" lon="2.172967996448278">
        <ele>2314.47265625</ele>
        <time>2014-06-13T06:43:33Z</time>
      </trkpt>
      <trkpt lat="42.408771011978388" lon="2.173055000603199">
        <ele>2316.8125</ele>
        <time>2014-06-13T06:43:44Z</time>
      </trkpt>
      <trkpt lat="42.40877696312964" lon="2.173065980896354">
        <ele>2316.99609375</ele>
        <time>2014-06-13T06:43:45Z</time>
      </trkpt>
      <trkpt lat="42.408867990598083" lon="2.173181986436248">
        <ele>2319.96875</ele>
        <time>2014-06-13T06:43:57Z</time>
      </trkpt>
      <trkpt lat="42.40890696644783" lon="2.173263039439917">
        <ele>2321.078125</ele>
        <time>2014-06-13T06:44:07Z</time>
      </trkpt>
      <trkpt lat="42.408928005024791" lon="2.173317018896341">
        <ele>2321.703125</ele>
        <time>2014-06-13T06:44:16Z</time>
      </trkpt>
      <trkpt lat="42.40894895978272" lon="2.173407962545753">
        <ele>2322.16015625</ele>
        <time>2014-06-13T06:44:28Z</time>
      </trkpt>
      <trkpt lat="42.408956000581384" lon="2.173460014164448">
        <ele>2322.20703125</ele>
        <time>2014-06-13T06:44:38Z</time>
      </trkpt>
      <trkpt lat="42.408959018066525" lon="2.173497984185815">
        <ele>2322.1015625</ele>
        <time>2014-06-13T06:44:41Z</time>
      </trkpt>
      <trkpt lat="42.409001011401415" lon="2.173542995005846">
        <ele>2323.2265625</ele>
        <time>2014-06-13T06:44:45Z</time>
      </trkpt>
      <trkpt lat="42.409105030819774" lon="2.173653971403837">
        <ele>2325.1328125</ele>
        <time>2014-06-13T06:44:56Z</time>
      </trkpt>
      <trkpt lat="42.409125985577703" lon="2.173692025244236">
        <ele>2325.47265625</ele>
        <time>2014-06-13T06:45:01Z</time>
      </trkpt>
      <trkpt lat="42.409176025539637" lon="2.173749022185803">
        <ele>2326.66796875</ele>
        <time>2014-06-13T06:45:12Z</time>
      </trkpt>
      <trkpt lat="42.409212989732623" lon="2.173816999420524">
        <ele>2327.515625</ele>
        <time>2014-06-13T06:45:22Z</time>
      </trkpt>
      <trkpt lat="42.40927099250257" lon="2.173826973885298">
        <ele>2329.46484375</ele>
        <time>2014-06-13T06:45:32Z</time>
      </trkpt>
      <trkpt lat="42.409322960302234" lon="2.173881959170103">
        <ele>2331.12109375</ele>
        <time>2014-06-13T06:46:09Z</time>
      </trkpt>
      <trkpt lat="42.409394038841128" lon="2.173892017453909">
        <ele>2333.1484375</ele>
        <time>2014-06-13T06:46:19Z</time>
      </trkpt>
      <trkpt lat="42.409465033560991" lon="2.173900986090303">
        <ele>2334.953125</ele>
        <time>2014-06-13T06:46:29Z</time>
      </trkpt>
      <trkpt lat="42.409508032724261" lon="2.173976004123688">
        <ele>2335.9296875</ele>
        <time>2014-06-13T06:46:40Z</time>
      </trkpt>
      <trkpt lat="42.40952898748219" lon="2.174036018550396">
        <ele>2336.375</ele>
        <time>2014-06-13T06:46:50Z</time>
      </trkpt>
      <trkpt lat="42.40954902023077" lon="2.174134002998471">
        <ele>2336.75</ele>
        <time>2014-06-13T06:47:03Z</time>
      </trkpt>
      <trkpt lat="42.40957098081708" lon="2.174212038516998">
        <ele>2337.22265625</ele>
        <time>2014-06-13T06:47:14Z</time>
      </trkpt>
      <trkpt lat="42.409600988030434" lon="2.174235004931688">
        <ele>2338.00390625</ele>
        <time>2014-06-13T06:47:26Z</time>
      </trkpt>
      <trkpt lat="42.409644993022084" lon="2.17423802241683">
        <ele>2339.20703125</ele>
        <time>2014-06-13T06:47:35Z</time>
      </trkpt>
      <trkpt lat="42.409696960821748" lon="2.174315974116325">
        <ele>2340.83203125</ele>
        <time>2014-06-13T06:47:46Z</time>
      </trkpt>
      <trkpt lat="42.409751024097204" lon="2.17438898049295">
        <ele>2342.625</ele>
        <time>2014-06-13T06:47:56Z</time>
      </trkpt>
      <trkpt lat="42.409810032695532" lon="2.174424016848207">
        <ele>2344.36328125</ele>
        <time>2014-06-13T06:48:06Z</time>
      </trkpt>
      <trkpt lat="42.409880021587014" lon="2.174473972991109">
        <ele>2346.4375</ele>
        <time>2014-06-13T06:48:16Z</time>
      </trkpt>
      <trkpt lat="42.409907011315227" lon="2.174491994082928">
        <ele>2347.23046875</ele>
        <time>2014-06-13T06:48:21Z</time>
      </trkpt>
      <trkpt lat="42.409928971901536" lon="2.17453901655972">
        <ele>2347.96484375</ele>
        <time>2014-06-13T06:48:26Z</time>
      </trkpt>
      <trkpt lat="42.409966019913554" lon="2.174577992409468">
        <ele>2349.0859375</ele>
        <time>2014-06-13T06:48:33Z</time>
      </trkpt>
      <trkpt lat="42.410024022683501" lon="2.174696009606123">
        <ele>2350.69921875</ele>
        <time>2014-06-13T06:48:45Z</time>
      </trkpt>
      <trkpt lat="42.410028968006372" lon="2.174709001556039">
        <ele>2350.83203125</ele>
        <time>2014-06-13T06:48:47Z</time>
      </trkpt>
      <trkpt lat="42.410064004361629" lon="2.174798017367721">
        <ele>2351.79296875</ele>
        <time>2014-06-13T06:48:58Z</time>
      </trkpt>
      <trkpt lat="42.410095017403364" lon="2.174887033179402">
        <ele>2352.671875</ele>
        <time>2014-06-13T06:49:08Z</time>
      </trkpt>
      <trkpt lat="42.410107003524899" lon="2.174914022907615">
        <ele>2353.015625</ele>
        <time>2014-06-13T06:49:11Z</time>
      </trkpt>
      <trkpt lat="42.410140028223395" lon="2.174941012635827">
        <ele>2353.9453125</ele>
        <time>2014-06-13T06:49:16Z</time>
      </trkpt>
      <trkpt lat="42.410162994638085" lon="2.175040002912283">
        <ele>2354.39453125</ele>
        <time>2014-06-13T06:49:24Z</time>
      </trkpt>
      <trkpt lat="42.410172969102859" lon="2.175054000690579">
        <ele>2354.63671875</ele>
        <time>2014-06-13T06:49:27Z</time>
      </trkpt>
      <trkpt lat="42.410186966881156" lon="2.175084007903934">
        <ele>2354.95703125</ele>
        <time>2014-06-13T06:49:31Z</time>
      </trkpt>
      <trkpt lat="42.410208005458117" lon="2.175129018723965">
        <ele>2355.43359375</ele>
        <time>2014-06-13T06:49:36Z</time>
      </trkpt>
      <trkpt lat="42.410225020721555" lon="2.175134969875217">
        <ele>2355.89453125</ele>
        <time>2014-06-13T06:49:38Z</time>
      </trkpt>
      <trkpt lat="42.410312024876475" lon="2.175246030092239">
        <ele>2358.05859375</ele>
        <time>2014-06-13T06:49:50Z</time>
      </trkpt>
      <trkpt lat="42.410364998504519" lon="2.175266984850168">
        <ele>2359.48828125</ele>
        <time>2014-06-13T06:49:57Z</time>
      </trkpt>
      <trkpt lat="42.41038897074759" lon="2.175339991226792">
        <ele>2359.98046875</ele>
        <time>2014-06-13T06:50:06Z</time>
      </trkpt>
      <trkpt lat="42.410424007102847" lon="2.175474017858505">
        <ele>2360.86328125</ele>
        <time>2014-06-13T06:50:18Z</time>
      </trkpt>
      <trkpt lat="42.410427024587989" lon="2.175476029515266">
        <ele>2360.95703125</ele>
        <time>2014-06-13T06:50:19Z</time>
      </trkpt>
      <trkpt lat="42.410467006266117" lon="2.175589017570019">
        <ele>2362.30859375</ele>
        <time>2014-06-13T06:50:31Z</time>
      </trkpt>
      <trkpt lat="42.410485027357936" lon="2.175764031708241">
        <ele>2362.96484375</ele>
        <time>2014-06-13T07:08:12Z</time>
      </trkpt>
      <trkpt lat="42.410491984337568" lon="2.175769982859492">
        <ele>2363.23828125</ele>
        <time>2014-06-13T07:08:13Z</time>
      </trkpt>
      <trkpt lat="42.410533977672458" lon="2.175805019214749">
        <ele>2364.890625</ele>
        <time>2014-06-13T07:08:19Z</time>
      </trkpt>
      <trkpt lat="42.410561973229051" lon="2.175863021984696">
        <ele>2365.98828125</ele>
        <time>2014-06-13T07:08:27Z</time>
      </trkpt>
      <trkpt lat="42.410578988492489" lon="2.175934016704559">
        <ele>2366.65234375</ele>
        <time>2014-06-13T07:08:35Z</time>
      </trkpt>
      <trkpt lat="42.410593992099166" lon="2.17595798894763">
        <ele>2367.2578125</ele>
        <time>2014-06-13T07:08:38Z</time>
      </trkpt>
      <trkpt lat="42.410639002919197" lon="2.176061002537608">
        <ele>2369.08203125</ele>
        <time>2014-06-13T07:08:51Z</time>
      </trkpt>
      <trkpt lat="42.4106440320611" lon="2.176075000315905">
        <ele>2369.2890625</ele>
        <time>2014-06-13T07:08:53Z</time>
      </trkpt>
      <trkpt lat="42.410660041496158" lon="2.176147000864148">
        <ele>2370.140625</ele>
        <time>2014-06-13T07:09:02Z</time>
      </trkpt>
      <trkpt lat="42.410662975162268" lon="2.176181031391025">
        <ele>2370.36328125</ele>
        <time>2014-06-13T07:09:36Z</time>
      </trkpt>
      <trkpt lat="42.410668004304171" lon="2.176185976713896">
        <ele>2370.59765625</ele>
        <time>2014-06-13T07:09:37Z</time>
      </trkpt>
      <trkpt lat="42.410741010680795" lon="2.176237022504211">
        <ele>2374.01171875</ele>
        <time>2014-06-13T07:09:48Z</time>
      </trkpt>
      <trkpt lat="42.410807982087135" lon="2.176314974203706">
        <ele>2377.484375</ele>
        <time>2014-06-13T07:10:00Z</time>
      </trkpt>
      <trkpt lat="42.410860033705831" lon="2.176378006115556">
        <ele>2380.46484375</ele>
        <time>2014-06-13T07:10:12Z</time>
      </trkpt>
      <trkpt lat="42.410875037312508" lon="2.176393009722233">
        <ele>2381.3203125</ele>
        <time>2014-06-13T07:10:15Z</time>
      </trkpt>
      <trkpt lat="42.410913007333875" lon="2.176462998613715">
        <ele>2383.55078125</ele>
        <time>2014-06-13T07:10:27Z</time>
      </trkpt>
      <trkpt lat="42.410936979576945" lon="2.176526030525565">
        <ele>2384.5625</ele>
        <time>2014-06-13T07:10:39Z</time>
      </trkpt>
      <trkpt lat="42.410976961255074" lon="2.176599958911538">
        <ele>2386.390625</ele>
        <time>2014-06-13T07:10:50Z</time>
      </trkpt>
      <trkpt lat="42.411020966246724" lon="2.17666600830853">
        <ele>2388.5</ele>
        <time>2014-06-13T07:11:02Z</time>
      </trkpt>
      <trkpt lat="42.411051979288459" lon="2.176723005250096">
        <ele>2390</ele>
        <time>2014-06-13T07:11:12Z</time>
      </trkpt>
      <trkpt lat="42.411102019250393" lon="2.176755024120212">
        <ele>2392.578125</ele>
        <time>2014-06-13T07:11:22Z</time>
      </trkpt>
      <trkpt lat="42.411149963736534" lon="2.176816966384649">
        <ele>2395.04296875</ele>
        <time>2014-06-13T07:11:33Z</time>
      </trkpt>
      <trkpt lat="42.411177959293127" lon="2.176883015781641">
        <ele>2396.48828125</ele>
        <time>2014-06-13T07:11:45Z</time>
      </trkpt>
      <trkpt lat="42.411218024790287" lon="2.176948981359601">
        <ele>2398.44140625</ele>
        <time>2014-06-13T07:11:57Z</time>
      </trkpt>
      <trkpt lat="42.411250965669751" lon="2.17701100744307">
        <ele>2399.94921875</ele>
        <time>2014-06-13T07:12:10Z</time>
      </trkpt>
      <trkpt lat="42.411264963448048" lon="2.177068004384637">
        <ele>2400.5546875</ele>
        <time>2014-06-13T07:12:20Z</time>
      </trkpt>
      <trkpt lat="42.411303017288446" lon="2.177191972732544">
        <ele>2402.21875</ele>
        <time>2014-06-13T07:12:32Z</time>
      </trkpt>
      <trkpt lat="42.411326989531517" lon="2.177294986322522">
        <ele>2403.54296875</ele>
        <time>2014-06-13T07:12:44Z</time>
      </trkpt>
      <trkpt lat="42.411373006179929" lon="2.177408980205655">
        <ele>2405.94921875</ele>
        <time>2014-06-13T07:12:57Z</time>
      </trkpt>
      <trkpt lat="42.411390021443367" lon="2.177509982138872">
        <ele>2406.96484375</ele>
        <time>2014-06-13T07:13:09Z</time>
      </trkpt>
      <trkpt lat="42.411410976201296" lon="2.177577959373593">
        <ele>2408.125</ele>
        <time>2014-06-13T07:13:19Z</time>
      </trkpt>
      <trkpt lat="42.411422040313482" lon="2.177649959921837">
        <ele>2408.8984375</ele>
        <time>2014-06-13T07:13:29Z</time>
      </trkpt>
      <trkpt lat="42.411455987021327" lon="2.177720032632351">
        <ele>2410.875</ele>
        <time>2014-06-13T07:13:41Z</time>
      </trkpt>
      <trkpt lat="42.411492029204965" lon="2.177787004038692">
        <ele>2413.0546875</ele>
        <time>2014-06-13T07:13:52Z</time>
      </trkpt>
      <trkpt lat="42.411537962034345" lon="2.177878031507134">
        <ele>2416.01953125</ele>
        <time>2014-06-13T07:14:04Z</time>
      </trkpt>
      <trkpt lat="42.411564029753208" lon="2.177950032055378">
        <ele>2417.859375</ele>
        <time>2014-06-13T07:14:12Z</time>
      </trkpt>
      <trkpt lat="42.411596970632672" lon="2.178007028996944">
        <ele>2419.41796875</ele>
        <time>2014-06-13T07:14:23Z</time>
      </trkpt>
      <trkpt lat="42.411609040573239" lon="2.178050028160214">
        <ele>2420.03125</ele>
        <time>2014-06-13T07:14:26Z</time>
      </trkpt>
      <trkpt lat="42.411631001159549" lon="2.178080035373569">
        <ele>2420.99609375</ele>
        <time>2014-06-13T07:14:29Z</time>
      </trkpt>
      <trkpt lat="42.411662014201283" lon="2.178233005106449">
        <ele>2422.60546875</ele>
        <time>2014-06-13T07:14:42Z</time>
      </trkpt>
      <trkpt lat="42.411683974787593" lon="2.178327972069383">
        <ele>2423.66796875</ele>
        <time>2014-06-13T07:14:52Z</time>
      </trkpt>
      <trkpt lat="42.411709958687425" lon="2.178412964567542">
        <ele>2424.87890625</ele>
        <time>2014-06-13T07:15:01Z</time>
      </trkpt>
      <trkpt lat="42.411720016971231" lon="2.178511032834649">
        <ele>2425.52734375</ele>
        <time>2014-06-13T07:15:12Z</time>
      </trkpt>
      <trkpt lat="42.411734014749527" lon="2.17862100340426">
        <ele>2426.3828125</ele>
        <time>2014-06-13T07:15:25Z</time>
      </trkpt>
      <trkpt lat="42.41176201030612" lon="2.178722005337477">
        <ele>2427.77734375</ele>
        <time>2014-06-13T07:15:36Z</time>
      </trkpt>
      <trkpt lat="42.411816995590925" lon="2.178796017542481">
        <ele>2430.1796875</ele>
        <time>2014-06-13T07:15:46Z</time>
      </trkpt>
      <trkpt lat="42.41184901446104" lon="2.178833987563849">
        <ele>2431.56640625</ele>
        <time>2014-06-13T07:15:51Z</time>
      </trkpt>
      <trkpt lat="42.411868963390589" lon="2.178867012262344">
        <ele>2432.453125</ele>
        <time>2014-06-13T07:15:54Z</time>
      </trkpt>
      <trkpt lat="42.411893019452691" lon="2.178932977840304">
        <ele>2433.5859375</ele>
        <time>2014-06-13T07:16:00Z</time>
      </trkpt>
      <trkpt lat="42.411901988089085" lon="2.178961979225278">
        <ele>2434.01953125</ele>
        <time>2014-06-13T07:16:04Z</time>
      </trkpt>
      <trkpt lat="42.411931995302439" lon="2.179019981995225">
        <ele>2435.375</ele>
        <time>2014-06-13T07:16:10Z</time>
      </trkpt>
      <trkpt lat="42.411943981423974" lon="2.179048983380199">
        <ele>2435.83984375</ele>
        <time>2014-06-13T07:16:13Z</time>
      </trkpt>
      <trkpt lat="42.412003995850682" lon="2.179127018898726">
        <ele>2437.703125</ele>
        <time>2014-06-13T07:16:25Z</time>
      </trkpt>
      <trkpt lat="42.41204297170043" lon="2.179190972819924">
        <ele>2438.87109375</ele>
        <time>2014-06-13T07:16:32Z</time>
      </trkpt>
      <trkpt lat="42.412057975307107" lon="2.17920002527535">
        <ele>2439.26171875</ele>
        <time>2014-06-13T07:16:35Z</time>
      </trkpt>
      <trkpt lat="42.412135004997253" lon="2.179240006953478">
        <ele>2441.20703125</ele>
        <time>2014-06-13T07:16:46Z</time>
      </trkpt>
      <trkpt lat="42.412183033302426" lon="2.179239001125097">
        <ele>2442.36328125</ele>
        <time>2014-06-13T07:16:54Z</time>
      </trkpt>
      <trkpt lat="42.412213962525129" lon="2.17933296225965">
        <ele>2443.08984375</ele>
        <time>2014-06-13T07:17:06Z</time>
      </trkpt>
      <trkpt lat="42.412231983616948" lon="2.179378978908062">
        <ele>2443.4765625</ele>
        <time>2014-06-13T07:17:12Z</time>
      </trkpt>
      <trkpt lat="42.412242041900754" lon="2.17941602692008">
        <ele>2443.671875</ele>
        <time>2014-06-13T07:17:17Z</time>
      </trkpt>
      <trkpt lat="42.412265008315444" lon="2.179529014974833">
        <ele>2443.98828125</ele>
        <time>2014-06-13T07:17:28Z</time>
      </trkpt>
      <trkpt lat="42.412293003872037" lon="2.179574025794864">
        <ele>2444.41796875</ele>
        <time>2014-06-13T07:17:33Z</time>
      </trkpt>
      <trkpt lat="42.412311024963856" lon="2.179604033008218">
        <ele>2444.6875</ele>
        <time>2014-06-13T07:17:36Z</time>
      </trkpt>
      <trkpt lat="42.41232099942863" lon="2.179632028564811">
        <ele>2444.84375</ele>
        <time>2014-06-13T07:17:40Z</time>
      </trkpt>
      <trkpt lat="42.412332985550165" lon="2.179638985544443">
        <ele>2445.1015625</ele>
        <time>2014-06-13T07:17:42Z</time>
      </trkpt>
      <trkpt lat="42.412359975278378" lon="2.179690031334758">
        <ele>2445.58203125</ele>
        <time>2014-06-13T07:17:47Z</time>
      </trkpt>
      <trkpt lat="42.41238696500659" lon="2.179755996912718">
        <ele>2446.0078125</ele>
        <time>2014-06-13T07:17:54Z</time>
      </trkpt>
      <trkpt lat="42.412417978048325" lon="2.179801007732749">
        <ele>2446.703125</ele>
        <time>2014-06-13T07:17:59Z</time>
      </trkpt>
      <trkpt lat="42.412444967776537" lon="2.179819028824568">
        <ele>2447.3671875</ele>
        <time>2014-06-13T07:18:03Z</time>
      </trkpt>
      <trkpt lat="42.412458965554833" lon="2.179834032431245">
        <ele>2447.73046875</ele>
        <time>2014-06-13T07:18:05Z</time>
      </trkpt>
      <trkpt lat="42.412457959726453" lon="2.179882982745767">
        <ele>2447.8984375</ele>
        <time>2014-06-13T07:18:09Z</time>
      </trkpt>
      <trkpt lat="42.412506993860006" lon="2.180014997720718">
        <ele>2449.30078125</ele>
        <time>2014-06-13T07:18:20Z</time>
      </trkpt>
      <trkpt lat="42.412526020780206" lon="2.180043999105692">
        <ele>2449.72265625</ele>
        <time>2014-06-13T07:18:23Z</time>
      </trkpt>
      <trkpt lat="42.412562984973192" lon="2.180106025189161">
        <ele>2450.5</ele>
        <time>2014-06-13T07:18:28Z</time>
      </trkpt>
      <trkpt lat="42.412598021328449" lon="2.180145001038909">
        <ele>2451.12890625</ele>
        <time>2014-06-13T07:18:32Z</time>
      </trkpt>
      <trkpt lat="42.412673961371183" lon="2.18029503710568">
        <ele>2453.15625</ele>
        <time>2014-06-13T07:18:46Z</time>
      </trkpt>
      <trkpt lat="42.412679996341467" lon="2.180306017398834">
        <ele>2453.3515625</ele>
        <time>2014-06-13T07:18:47Z</time>
      </trkpt>
      <trkpt lat="42.412717966362834" lon="2.180421017110348">
        <ele>2455.125</ele>
        <time>2014-06-13T07:18:58Z</time>
      </trkpt>
      <trkpt lat="42.412763983011246" lon="2.180563006550074">
        <ele>2457.44140625</ele>
        <time>2014-06-13T07:19:07Z</time>
      </trkpt>
      <trkpt lat="42.412774041295052" lon="2.180670965462923">
        <ele>2458.84765625</ele>
        <time>2014-06-13T07:19:15Z</time>
      </trkpt>
      <trkpt lat="42.412779992446303" lon="2.180709019303322">
        <ele>2459.39453125</ele>
        <time>2014-06-13T07:19:18Z</time>
      </trkpt>
      <trkpt lat="42.412808993831277" lon="2.180786971002817">
        <ele>2460.87890625</ele>
        <time>2014-06-13T07:19:25Z</time>
      </trkpt>
      <trkpt lat="42.412831960245967" lon="2.180953016504645">
        <ele>2463.01171875</ele>
        <time>2014-06-13T07:19:37Z</time>
      </trkpt>
      <trkpt lat="42.412828020751476" lon="2.180967014282942">
        <ele>2463.07421875</ele>
        <time>2014-06-13T07:19:38Z</time>
      </trkpt>
      <trkpt lat="42.412807988002896" lon="2.181025017052889">
        <ele>2463.30859375</ele>
        <time>2014-06-13T07:19:43Z</time>
      </trkpt>
      <trkpt lat="42.412818968296051" lon="2.181129958480597">
        <ele>2464.61328125</ele>
        <time>2014-06-13T07:19:53Z</time>
      </trkpt>
      <trkpt lat="42.412839001044631" lon="2.181197013705969">
        <ele>2465.59765625</ele>
        <time>2014-06-13T07:20:02Z</time>
      </trkpt>
      <trkpt lat="42.412841012701392" lon="2.181211011484265">
        <ele>2465.765625</ele>
        <time>2014-06-13T07:20:31Z</time>
      </trkpt>
      <trkpt lat="42.412840006873012" lon="2.181222997605801">
        <ele>2465.87109375</ele>
        <time>2014-06-13T07:20:32Z</time>
      </trkpt>
      <trkpt lat="42.412850987166166" lon="2.181279994547367">
        <ele>2466.625</ele>
        <time>2014-06-13T07:20:36Z</time>
      </trkpt>
      <trkpt lat="42.412859033793211" lon="2.181305978447199">
        <ele>2467.0546875</ele>
        <time>2014-06-13T07:20:38Z</time>
      </trkpt>
      <trkpt lat="42.41290002129972" lon="2.181446040049195">
        <ele>2469.17578125</ele>
        <time>2014-06-13T07:20:50Z</time>
      </trkpt>
      <trkpt lat="42.412937991321087" lon="2.181535977870226">
        <ele>2470.45703125</ele>
        <time>2014-06-13T07:21:05Z</time>
      </trkpt>
      <trkpt lat="42.412946037948132" lon="2.181610995903611">
        <ele>2471.30859375</ele>
        <time>2014-06-13T07:21:12Z</time>
      </trkpt>
      <trkpt lat="42.412954000756145" lon="2.181656006723642">
        <ele>2471.9765625</ele>
        <time>2014-06-13T07:21:27Z</time>
      </trkpt>
      <trkpt lat="42.412954000756145" lon="2.181656006723642">
        <ele>2471.9765625</ele>
        <time>2014-06-13T07:21:55Z</time>
      </trkpt>
      <trkpt lat="42.412937991321087" lon="2.181652989238501">
        <ele>2471.87109375</ele>
        <time>2014-06-13T07:21:57Z</time>
      </trkpt>
      <trkpt lat="42.412959029898047" lon="2.181708980351687">
        <ele>2472.9375</ele>
        <time>2014-06-13T07:22:01Z</time>
      </trkpt>
      <trkpt lat="42.412961041554809" lon="2.181875025853515">
        <ele>2475.91015625</ele>
        <time>2014-06-13T07:22:13Z</time>
      </trkpt>
      <trkpt lat="42.413005968555808" lon="2.181970998644829">
        <ele>2477.671875</ele>
        <time>2014-06-13T07:22:26Z</time>
      </trkpt>
      <trkpt lat="42.413017032667994" lon="2.181993965059519">
        <ele>2478.08203125</ele>
        <time>2014-06-13T07:22:46Z</time>
      </trkpt>
      <trkpt lat="42.413024995476007" lon="2.182027995586395">
        <ele>2478.63671875</ele>
        <time>2014-06-13T07:22:49Z</time>
      </trkpt>
      <trkpt lat="42.413061959668994" lon="2.182112988084555">
        <ele>2480.36328125</ele>
        <time>2014-06-13T07:22:59Z</time>
      </trkpt>
      <trkpt lat="42.413043016567826" lon="2.182220024988055">
        <ele>2481.65234375</ele>
        <time>2014-06-13T07:23:11Z</time>
      </trkpt>
      <trkpt lat="42.41300999186933" lon="2.182262018322945">
        <ele>2482.20703125</ele>
        <time>2014-06-13T07:23:22Z</time>
      </trkpt>
      <trkpt lat="42.41300999186933" lon="2.182269981130958">
        <ele>2482.328125</ele>
        <time>2014-06-13T07:23:38Z</time>
      </trkpt>
      <trkpt lat="42.41300999186933" lon="2.182269981130958">
        <ele>2482.328125</ele>
        <time>2014-06-13T07:24:00Z</time>
      </trkpt>
      <trkpt lat="42.413005968555808" lon="2.182267969474196">
        <ele>2482.28515625</ele>
        <time>2014-06-13T07:24:21Z</time>
      </trkpt>
      <trkpt lat="42.412992976605892" lon="2.182285990566015">
        <ele>2482.515625</ele>
        <time>2014-06-13T07:24:40Z</time>
      </trkpt>
      <trkpt lat="42.412950983271003" lon="2.182365031912923">
        <ele>2483.546875</ele>
        <time>2014-06-13T07:24:51Z</time>
      </trkpt>
      <trkpt lat="42.412927011027932" lon="2.182462010532618">
        <ele>2484.8125</ele>
        <time>2014-06-13T07:25:03Z</time>
      </trkpt>
      <trkpt lat="42.412903038784862" lon="2.182567035779357">
        <ele>2486.15625</ele>
        <time>2014-06-13T07:25:15Z</time>
      </trkpt>
      <trkpt lat="42.412886023521423" lon="2.182658985257149">
        <ele>2487.328125</ele>
        <time>2014-06-13T07:25:27Z</time>
      </trkpt>
      <trkpt lat="42.41286096163094" lon="2.182734003290534">
        <ele>2488.1953125</ele>
        <time>2014-06-13T07:25:37Z</time>
      </trkpt>
      <trkpt lat="42.412863979116082" lon="2.182849003002048">
        <ele>2490.25390625</ele>
        <time>2014-06-13T07:25:47Z</time>
      </trkpt>
      <trkpt lat="42.412830032408237" lon="2.182954028248787">
        <ele>2491.9609375</ele>
        <time>2014-06-13T07:26:00Z</time>
      </trkpt>
      <trkpt lat="42.412856016308069" lon="2.183024017140269">
        <ele>2493.37890625</ele>
        <time>2014-06-13T07:26:11Z</time>
      </trkpt>
      <trkpt lat="42.412856016308069" lon="2.183024017140269">
        <ele>2493.37890625</ele>
        <time>2014-06-13T07:26:16Z</time>
      </trkpt>
      <trkpt lat="42.412892980501056" lon="2.18311202712357">
        <ele>2495.16015625</ele>
        <time>2014-06-13T07:26:26Z</time>
      </trkpt>
      <trkpt lat="42.412906978279352" lon="2.18317698687315">
        <ele>2496.8046875</ele>
        <time>2014-06-13T07:26:37Z</time>
      </trkpt>
      <trkpt lat="42.412894992157817" lon="2.183288969099522">
        <ele>2499.45703125</ele>
        <time>2014-06-13T07:26:49Z</time>
      </trkpt>
      <trkpt lat="42.412914019078016" lon="2.183365998789668">
        <ele>2501.48828125</ele>
        <time>2014-06-13T07:27:01Z</time>
      </trkpt>
      <trkpt lat="42.412970010191202" lon="2.183387959375978">
        <ele>2502.51171875</ele>
        <time>2014-06-13T07:27:13Z</time>
      </trkpt>
      <trkpt lat="42.413021977990866" lon="2.183410003781319">
        <ele>2503.53125</ele>
        <time>2014-06-13T07:27:25Z</time>
      </trkpt>
      <trkpt lat="42.413055002689362" lon="2.18341302126646">
        <ele>2504.1328125</ele>
        <time>2014-06-13T07:27:38Z</time>
      </trkpt>
      <trkpt lat="42.41309498436749" lon="2.183430958539248">
        <ele>2506.109375</ele>
        <time>2014-06-13T07:27:49Z</time>
      </trkpt>
      <trkpt lat="42.413122979924083" lon="2.183443028479815">
        <ele>2507.48046875</ele>
        <time>2014-06-13T07:27:58Z</time>
      </trkpt>
      <trkpt lat="42.413130020722747" lon="2.183459037914872">
        <ele>2508.1796875</ele>
        <time>2014-06-13T07:28:08Z</time>
      </trkpt>
      <trkpt lat="42.413149969652295" lon="2.183453002944589">
        <ele>2508.765625</ele>
        <time>2014-06-13T07:28:24Z</time>
      </trkpt>
      <trkpt lat="42.41315801627934" lon="2.18345501460135">
        <ele>2509.125</ele>
        <time>2014-06-13T07:28:34Z</time>
      </trkpt>
      <trkpt lat="42.413213001564145" lon="2.18345501460135">
        <ele>2511.1953125</ele>
        <time>2014-06-13T07:28:46Z</time>
      </trkpt>
      <trkpt lat="42.413277039304376" lon="2.183464989066124">
        <ele>2513.88671875</ele>
        <time>2014-06-13T07:29:00Z</time>
      </trkpt>
      <trkpt lat="42.413328001275659" lon="2.18345602042973">
        <ele>2515.55859375</ele>
        <time>2014-06-13T07:29:12Z</time>
      </trkpt>
      <trkpt lat="42.413386004045606" lon="2.183464989066124">
        <ele>2518</ele>
        <time>2014-06-13T07:29:24Z</time>
      </trkpt>
      <trkpt lat="42.413420034572482" lon="2.183440010994673">
        <ele>2518.58203125</ele>
        <time>2014-06-13T07:29:38Z</time>
      </trkpt>
      <trkpt lat="42.413458004593849" lon="2.183449985459447">
        <ele>2520.5390625</ele>
        <time>2014-06-13T07:29:47Z</time>
      </trkpt>
      <trkpt lat="42.413508966565132" lon="2.183419978246093">
        <ele>2521.9375</ele>
        <time>2014-06-13T07:29:58Z</time>
      </trkpt>
      <trkpt lat="42.413509972393513" lon="2.183421989902854">
        <ele>2522.0390625</ele>
        <time>2014-06-13T07:30:22Z</time>
      </trkpt>
      <trkpt lat="42.413520030677319" lon="2.183417966589332">
        <ele>2522.37109375</ele>
        <time>2014-06-13T07:30:50Z</time>
      </trkpt>
      <trkpt lat="42.41356898099184" lon="2.18339298851788">
        <ele>2523.8515625</ele>
        <time>2014-06-13T07:31:01Z</time>
      </trkpt>
      <trkpt lat="42.413616003468633" lon="2.183385025709868">
        <ele>2525.7265625</ele>
        <time>2014-06-13T07:31:13Z</time>
      </trkpt>
      <trkpt lat="42.413643999025226" lon="2.183355018496513">
        <ele>2526.16796875</ele>
        <time>2014-06-13T07:31:27Z</time>
      </trkpt>
      <trkpt lat="42.413680041208863" lon="2.183328028768301">
        <ele>2527.0703125</ele>
        <time>2014-06-13T07:31:38Z</time>
      </trkpt>
      <trkpt lat="42.413707030937076" lon="2.183318976312876">
        <ele>2528.046875</ele>
        <time>2014-06-13T07:31:48Z</time>
      </trkpt>
      <trkpt lat="42.41371801123023" lon="2.183316964656115">
        <ele>2528.4921875</ele>
        <time>2014-06-13T07:31:59Z</time>
      </trkpt>
      <trkpt lat="42.413768973201513" lon="2.183310007676482">
        <ele>2530.61328125</ele>
        <time>2014-06-13T07:32:08Z</time>
      </trkpt>
      <trkpt lat="42.413814989849925" lon="2.183311013504863">
        <ele>2532.37890625</ele>
        <time>2014-06-13T07:32:17Z</time>
      </trkpt>
      <trkpt lat="42.413861006498337" lon="2.183311013504863">
        <ele>2533.90234375</ele>
        <time>2014-06-13T07:32:29Z</time>
      </trkpt>
      <trkpt lat="42.413938958197832" lon="2.183288969099522">
        <ele>2535.99609375</ele>
        <time>2014-06-13T07:32:43Z</time>
      </trkpt>
      <trkpt lat="42.414010958746076" lon="2.183292992413044">
        <ele>2538.49609375</ele>
        <time>2014-06-13T07:32:54Z</time>
      </trkpt>
      <trkpt lat="42.414059992879629" lon="2.183287041261792">
        <ele>2540.02734375</ele>
        <time>2014-06-13T07:33:03Z</time>
      </trkpt>
      <trkpt lat="42.414108021184802" lon="2.183344960212708">
        <ele>2542.66796875</ele>
        <time>2014-06-13T07:33:14Z</time>
      </trkpt>
      <trkpt lat="42.414115983992815" lon="2.183367004618049">
        <ele>2543.30859375</ele>
        <time>2014-06-13T07:33:17Z</time>
      </trkpt>
      <trkpt lat="42.414166023954749" lon="2.183463983237743">
        <ele>2546.3828125</ele>
        <time>2014-06-13T07:33:28Z</time>
      </trkpt>
      <trkpt lat="42.414181027561426" lon="2.183529026806355">
        <ele>2547.609375</ele>
        <time>2014-06-13T07:33:39Z</time>
      </trkpt>
      <trkpt lat="42.414141967892647" lon="2.183577977120876">
        <ele>2547.4609375</ele>
        <time>2014-06-13T07:33:50Z</time>
      </trkpt>
      <trkpt lat="42.414129981771111" lon="2.183626005426049">
        <ele>2547.859375</ele>
        <time>2014-06-13T07:33:56Z</time>
      </trkpt>
      <trkpt lat="42.414142973721027" lon="2.183699011802673">
        <ele>2549.234375</ele>
        <time>2014-06-13T07:34:07Z</time>
      </trkpt>
      <trkpt lat="42.414110032841563" lon="2.183765983209014">
        <ele>2549.51953125</ele>
        <time>2014-06-13T07:34:18Z</time>
      </trkpt>
      <trkpt lat="42.414102992042899" lon="2.183879977092147">
        <ele>2551.17578125</ele>
        <time>2014-06-13T07:34:31Z</time>
      </trkpt>
      <trkpt lat="42.414108021184802" lon="2.183963963761926">
        <ele>2552.65234375</ele>
        <time>2014-06-13T07:34:46Z</time>
      </trkpt>
      <trkpt lat="42.414095029234886" lon="2.184009980410337">
        <ele>2553.2109375</ele>
        <time>2014-06-13T07:34:58Z</time>
      </trkpt>
      <trkpt lat="42.414082959294319" lon="2.184026995673776">
        <ele>2553.31640625</ele>
        <time>2014-06-13T07:35:12Z</time>
      </trkpt>
      <trkpt lat="42.414068961516023" lon="2.184063037857413">
        <ele>2553.7265625</ele>
        <time>2014-06-13T07:35:17Z</time>
      </trkpt>
      <trkpt lat="42.41404197178781" lon="2.184108970686793">
        <ele>2554.1484375</ele>
        <time>2014-06-13T07:35:27Z</time>
      </trkpt>
      <trkpt lat="42.414008025079966" lon="2.184198992326856">
        <ele>2555.3359375</ele>
        <time>2014-06-13T07:35:35Z</time>
      </trkpt>
      <trkpt lat="42.413977012038231" lon="2.184288008138537">
        <ele>2556.5390625</ele>
        <time>2014-06-13T07:35:46Z</time>
      </trkpt>
      <trkpt lat="42.413970977067947" lon="2.184399990364909">
        <ele>2558.4140625</ele>
        <time>2014-06-13T07:35:56Z</time>
      </trkpt>
      <trkpt lat="42.413965025916696" lon="2.184517001733184">
        <ele>2560.39453125</ele>
        <time>2014-06-13T07:36:08Z</time>
      </trkpt>
      <trkpt lat="42.413936024531722" lon="2.184650022536516">
        <ele>2562.6640625</ele>
        <time>2014-06-13T07:36:21Z</time>
      </trkpt>
      <trkpt lat="42.4139320012182" lon="2.184664020314813">
        <ele>2562.921875</ele>
        <time>2014-06-13T07:36:23Z</time>
      </trkpt>
      <trkpt lat="42.413915991783142" lon="2.184751024469733">
        <ele>2564.58984375</ele>
        <time>2014-06-13T07:36:33Z</time>
      </trkpt>
      <trkpt lat="42.413921020925045" lon="2.184837022796273">
        <ele>2566.35546875</ele>
        <time>2014-06-13T07:36:44Z</time>
      </trkpt>
      <trkpt lat="42.413940969854593" lon="2.184878010302782">
        <ele>2567.265625</ele>
        <time>2014-06-13T07:36:55Z</time>
      </trkpt>
      <trkpt lat="42.413935018703341" lon="2.18491799198091">
        <ele>2568.04296875</ele>
        <time>2014-06-13T07:37:06Z</time>
      </trkpt>
      <trkpt lat="42.41386997513473" lon="2.184958979487419">
        <ele>2568.6484375</ele>
        <time>2014-06-13T07:37:16Z</time>
      </trkpt>
      <trkpt lat="42.413842985406518" lon="2.185019999742508">
        <ele>2569.98046875</ele>
        <time>2014-06-13T07:37:27Z</time>
      </trkpt>
      <trkpt lat="42.413836028426886" lon="2.185072973370552">
        <ele>2571.22265625</ele>
        <time>2014-06-13T07:37:40Z</time>
      </trkpt>
      <trkpt lat="42.413836028426886" lon="2.185072973370552">
        <ele>2571.22265625</ele>
        <time>2014-06-13T07:37:52Z</time>
      </trkpt>
      <trkpt lat="42.413855977356434" lon="2.185126030817628">
        <ele>2572.484375</ele>
        <time>2014-06-13T07:38:02Z</time>
      </trkpt>
      <trkpt lat="42.413855977356434" lon="2.185137011110783">
        <ele>2572.73828125</ele>
        <time>2014-06-13T07:38:13Z</time>
      </trkpt>
      <trkpt lat="42.413855977356434" lon="2.185137011110783">
        <ele>2572.73828125</ele>
        <time>2014-06-13T07:38:29Z</time>
      </trkpt>
      <trkpt lat="42.413855977356434" lon="2.185137011110783">
        <ele>2572.73828125</ele>
        <time>2014-06-13T07:38:40Z</time>
      </trkpt>
      <trkpt lat="42.413872992619872" lon="2.185318982228637">
        <ele>2576.91796875</ele>
        <time>2014-06-13T07:38:52Z</time>
      </trkpt>
      <trkpt lat="42.413904005661607" lon="2.185429958626628">
        <ele>2579.03515625</ele>
        <time>2014-06-13T07:39:03Z</time>
      </trkpt>
      <trkpt lat="42.413904005661607" lon="2.185429958626628">
        <ele>2579.03515625</ele>
        <time>2014-06-13T07:39:15Z</time>
      </trkpt>
      <trkpt lat="42.413937030360103" lon="2.18556197360158">
        <ele>2581.55078125</ele>
        <time>2014-06-13T07:39:27Z</time>
      </trkpt>
      <trkpt lat="42.413964020088315" lon="2.185616958886385">
        <ele>2582.5859375</ele>
        <time>2014-06-13T07:39:49Z</time>
      </trkpt>
      <trkpt lat="42.414021017029881" lon="2.185765989124775">
        <ele>2585.32421875</ele>
        <time>2014-06-13T07:40:02Z</time>
      </trkpt>
      <trkpt lat="42.414054963737726" lon="2.185877971351147">
        <ele>2587.3125</ele>
        <time>2014-06-13T07:40:15Z</time>
      </trkpt>
      <trkpt lat="42.414073990657926" lon="2.185915019363165">
        <ele>2588.015625</ele>
        <time>2014-06-13T07:40:26Z</time>
      </trkpt>
      <trkpt lat="42.414069967344403" lon="2.185943014919758">
        <ele>2588.515625</ele>
        <time>2014-06-13T07:40:38Z</time>
      </trkpt>
      <trkpt lat="42.414072984829545" lon="2.186019960790873">
        <ele>2589.9296875</ele>
        <time>2014-06-13T07:40:56Z</time>
      </trkpt>
      <trkpt lat="42.4140839651227" lon="2.186107970774174">
        <ele>2591.51171875</ele>
        <time>2014-06-13T07:41:07Z</time>
      </trkpt>
      <trkpt lat="42.414110032841563" lon="2.186147030442953">
        <ele>2592.296875</ele>
        <time>2014-06-13T07:41:13Z</time>
      </trkpt>
      <trkpt lat="42.414140962064266" lon="2.186214001849294">
        <ele>2593.62890625</ele>
        <time>2014-06-13T07:41:26Z</time>
      </trkpt>
      <trkpt lat="42.414174992591143" lon="2.186277033761144">
        <ele>2594.99609375</ele>
        <time>2014-06-13T07:41:39Z</time>
      </trkpt>
      <trkpt lat="42.414216985926032" lon="2.186370994895697">
        <ele>2597.078125</ele>
        <time>2014-06-13T07:41:51Z</time>
      </trkpt>
      <trkpt lat="42.414221009239554" lon="2.186438972130418">
        <ele>2598.37109375</ele>
        <time>2014-06-13T07:42:02Z</time>
      </trkpt>
      <trkpt lat="42.414250010624528" lon="2.186500998213887">
        <ele>2599.60546875</ele>
        <time>2014-06-13T07:42:14Z</time>
      </trkpt>
      <trkpt lat="42.414308013394475" lon="2.186565035954118">
        <ele>2601.29296875</ele>
        <time>2014-06-13T07:42:26Z</time>
      </trkpt>
      <trkpt lat="42.414351012557745" lon="2.186666037887335">
        <ele>2603.4765625</ele>
        <time>2014-06-13T07:42:38Z</time>
      </trkpt>
      <trkpt lat="42.414394011721015" lon="2.186733009293675">
        <ele>2605.25</ele>
        <time>2014-06-13T07:42:49Z</time>
      </trkpt>
      <trkpt lat="42.41442795842886" lon="2.186793023720384">
        <ele>2606.84375</ele>
        <time>2014-06-13T07:43:01Z</time>
      </trkpt>
      <trkpt lat="42.414459977298975" lon="2.186884973198175">
        <ele>2608.48828125</ele>
        <time>2014-06-13T07:43:13Z</time>
      </trkpt>
      <trkpt lat="42.414485039189458" lon="2.186983041465282">
        <ele>2610.0078125</ele>
        <time>2014-06-13T07:43:24Z</time>
      </trkpt>
      <trkpt lat="42.414502976462245" lon="2.187061998993158">
        <ele>2611.26953125</ele>
        <time>2014-06-13T07:43:36Z</time>
      </trkpt>
      <trkpt lat="42.414503982290626" lon="2.18712997622788">
        <ele>2612.03515625</ele>
        <time>2014-06-13T07:43:47Z</time>
      </trkpt>
      <trkpt lat="42.41453398950398" lon="2.187207005918026">
        <ele>2613.703125</ele>
        <time>2014-06-13T07:43:58Z</time>
      </trkpt>
      <trkpt lat="42.414589980617166" lon="2.187308007851243">
        <ele>2616.328125</ele>
        <time>2014-06-13T07:44:10Z</time>
      </trkpt>
      <trkpt lat="42.414586041122675" lon="2.187400041148067">
        <ele>2617.25</ele>
        <time>2014-06-13T07:44:21Z</time>
      </trkpt>
      <trkpt lat="42.414624011144042" lon="2.187449997290969">
        <ele>2618.90234375</ele>
        <time>2014-06-13T07:44:30Z</time>
      </trkpt>
      <trkpt lat="42.414668016135693" lon="2.187480004504323">
        <ele>2620.5234375</ele>
        <time>2014-06-13T07:54:23Z</time>
      </trkpt>
      <trkpt lat="42.414692994207144" lon="2.187482016161084">
        <ele>2621.2734375</ele>
        <time>2014-06-13T07:54:36Z</time>
      </trkpt>
      <trkpt lat="42.41472601890564" lon="2.187658036127687">
        <ele>2624.57421875</ele>
        <time>2014-06-13T08:16:17Z</time>
      </trkpt>
      <trkpt lat="42.414767006412148" lon="2.187845036387444">
        <ele>2628.34375</ele>
        <time>2014-06-13T08:29:52Z</time>
      </trkpt>
      <trkpt lat="42.414806988090277" lon="2.188029019162059">
        <ele>2632.45703125</ele>
        <time>2014-06-13T08:30:04Z</time>
      </trkpt>
      <trkpt lat="42.414851998910308" lon="2.188220964744687">
        <ele>2636.71875</ele>
        <time>2014-06-13T08:30:21Z</time>
      </trkpt>
      <trkpt lat="42.414873959496617" lon="2.188338981941342">
        <ele>2639.63671875</ele>
        <time>2014-06-13T08:30:34Z</time>
      </trkpt>
      <trkpt lat="42.414879994466901" lon="2.188518019393086">
        <ele>2645.3984375</ele>
        <time>2014-06-13T08:31:57Z</time>
      </trkpt>
      <trkpt lat="42.414891980588436" lon="2.188725974410772">
        <ele>2652.5703125</ele>
        <time>2014-06-13T08:32:08Z</time>
      </trkpt>
      <trkpt lat="42.414912013337016" lon="2.188939964398742">
        <ele>2661.640625</ele>
        <time>2014-06-13T08:32:21Z</time>
      </trkpt>
      <trkpt lat="42.414820985868573" lon="2.189070973545313">
        <ele>2666.83984375</ele>
        <time>2014-06-13T08:32:34Z</time>
      </trkpt>
      <trkpt lat="42.414635997265577" lon="2.189087988808751">
        <ele>2667.6640625</ele>
        <time>2014-06-13T08:32:46Z</time>
      </trkpt>
      <trkpt lat="42.414483027532697" lon="2.189099974930286">
        <ele>2668.5703125</ele>
        <time>2014-06-13T08:32:59Z</time>
      </trkpt>
      <trkpt lat="42.414356041699648" lon="2.18912897631526">
        <ele>2670.94140625</ele>
        <time>2014-06-13T08:33:16Z</time>
      </trkpt>
      <trkpt lat="42.414364004507661" lon="2.189240036532283">
        <ele>2675.80078125</ele>
        <time>2014-06-13T08:33:32Z</time>
      </trkpt>
      <trkpt lat="42.414453020319343" lon="2.189302984625101">
        <ele>2677.75390625</ele>
        <time>2014-06-13T08:33:44Z</time>
      </trkpt>
      <trkpt lat="42.414513034746051" lon="2.189388982951641">
        <ele>2680.94921875</ele>
        <time>2014-06-13T08:33:56Z</time>
      </trkpt>
      <trkpt lat="42.414456959813833" lon="2.189442040398717">
        <ele>2683.83203125</ele>
        <time>2014-06-13T08:34:13Z</time>
      </trkpt>
      <trkpt lat="42.41436299867928" lon="2.189489984884858">
        <ele>2686.81640625</ele>
        <time>2014-06-13T08:34:26Z</time>
      </trkpt>
      <trkpt lat="42.414274988695979" lon="2.189528038725257">
        <ele>2689.265625</ele>
        <time>2014-06-13T08:34:39Z</time>
      </trkpt>
      <trkpt lat="42.414194019511342" lon="2.189580006524921">
        <ele>2692.1953125</ele>
        <time>2014-06-13T08:34:51Z</time>
      </trkpt>
      <trkpt lat="42.4141910020262" lon="2.189645972102881">
        <ele>2695.00390625</ele>
        <time>2014-06-13T08:35:02Z</time>
      </trkpt>
      <trkpt lat="42.41429602727294" lon="2.189741022884846">
        <ele>2698.21484375</ele>
        <time>2014-06-13T08:35:12Z</time>
      </trkpt>
      <trkpt lat="42.41442896425724" lon="2.189770024269819">
        <ele>2698.46875</ele>
        <time>2014-06-13T08:35:22Z</time>
      </trkpt>
      <trkpt lat="42.414470035582781" lon="2.189844036474824">
        <ele>2701.546875</ele>
        <time>2014-06-13T08:35:38Z</time>
      </trkpt>
      <trkpt lat="42.414566008374095" lon="2.189888041466475">
        <ele>2703.91015625</ele>
        <time>2014-06-13T08:36:01Z</time>
      </trkpt>
      <trkpt lat="42.414750996977091" lon="2.189921988174319">
        <ele>2708.84375</ele>
        <time>2014-06-13T08:39:03Z</time>
      </trkpt>
      <trkpt lat="42.414865996688604" lon="2.18994596041739">
        <ele>2712.2421875</ele>
        <time>2014-06-13T08:39:13Z</time>
      </trkpt>
      <trkpt lat="42.415014021098614" lon="2.189891980960965">
        <ele>2712.39453125</ele>
        <time>2014-06-13T08:39:26Z</time>
      </trkpt>
      <trkpt lat="42.415129020810127" lon="2.189844958484173">
        <ele>2712.5234375</ele>
        <time>2014-06-13T08:39:37Z</time>
      </trkpt>
      <trkpt lat="42.415248965844512" lon="2.18985803425312">
        <ele>2716</ele>
        <time>2014-06-13T08:39:51Z</time>
      </trkpt>
      <trkpt lat="42.415334964171052" lon="2.189869014546275">
        <ele>2718.96875</ele>
        <time>2014-06-13T08:40:07Z</time>
      </trkpt>
      <trkpt lat="42.415451975539327" lon="2.189829032868147">
        <ele>2720.6171875</ele>
        <time>2014-06-13T08:40:20Z</time>
      </trkpt>
      <trkpt lat="42.415582984685898" lon="2.189797013998032">
        <ele>2723.3125</ele>
        <time>2014-06-13T08:40:24Z</time>
      </trkpt>
      <trkpt lat="42.415693961083889" lon="2.189867002889514">
        <ele>2728.63671875</ele>
        <time>2014-06-13T08:40:36Z</time>
      </trkpt>
      <trkpt lat="42.415825976058841" lon="2.189953001216054">
        <ele>2733.3671875</ele>
        <time>2014-06-13T08:42:34Z</time>
      </trkpt>
      <trkpt lat="42.415877021849155" lon="2.190118040889502">
        <ele>2738.984375</ele>
        <time>2014-06-13T08:42:57Z</time>
      </trkpt>
      <trkpt lat="42.415927983820438" lon="2.190209990367293">
        <ele>2740.07421875</ele>
        <time>2014-06-13T08:43:33Z</time>
      </trkpt>
      <trkpt lat="42.415977017953992" lon="2.190332030877471">
        <ele>2739.8125</ele>
        <time>2014-06-13T08:44:01Z</time>
      </trkpt>
      <trkpt lat="42.416034014895558" lon="2.190408976748586">
        <ele>2740.71484375</ele>
        <time>2014-06-13T08:44:13Z</time>
      </trkpt>
      <trkpt lat="42.416094029322267" lon="2.19041702337563">
        <ele>2743.9296875</ele>
        <time>2014-06-13T08:44:54Z</time>
      </trkpt>
      <trkpt lat="42.416184972971678" lon="2.190413000062108">
        <ele>2748.8125</ele>
        <time>2014-06-13T08:45:14Z</time>
      </trkpt>
      <trkpt lat="42.416245993226767" lon="2.190391039475799">
        <ele>2751.90234375</ele>
        <time>2014-06-13T08:45:19Z</time>
      </trkpt>
      <trkpt lat="42.416313970461488" lon="2.190357008948922">
        <ele>2755.05859375</ele>
        <time>2014-06-13T08:45:32Z</time>
      </trkpt>
      <trkpt lat="42.416373984888196" lon="2.190303029492497">
        <ele>2757.2734375</ele>
        <time>2014-06-13T08:45:41Z</time>
      </trkpt>
      <trkpt lat="42.416433999314904" lon="2.190279979258776">
        <ele>2760.25</ele>
        <time>2014-06-13T08:45:52Z</time>
      </trkpt>
      <trkpt lat="42.416492002084851" lon="2.190253995358944">
        <ele>2762.953125</ele>
        <time>2014-06-13T08:46:09Z</time>
      </trkpt>
      <trkpt lat="42.416497031226754" lon="2.190250977873802">
        <ele>2763.16015625</ele>
        <time>2014-06-13T08:46:33Z</time>
      </trkpt>
      <trkpt lat="42.416542964056134" lon="2.190227005630732">
        <ele>2765.09765625</ele>
        <time>2014-06-13T08:46:46Z</time>
      </trkpt>
      <trkpt lat="42.416602978482842" lon="2.19020202755928">
        <ele>2767.6328125</ele>
        <time>2014-06-13T08:46:48Z</time>
      </trkpt>
      <trkpt lat="42.416657963767648" lon="2.190188029780984">
        <ele>2770.08203125</ele>
        <time>2014-06-13T08:47:01Z</time>
      </trkpt>
      <trkpt lat="42.41666198708117" lon="2.190185012295842">
        <ele>2770.19921875</ele>
        <time>2014-06-13T08:47:03Z</time>
      </trkpt>
      <trkpt lat="42.416738010942936" lon="2.190128015354276">
        <ele>2772.32421875</ele>
        <time>2014-06-13T08:47:08Z</time>
      </trkpt>
      <trkpt lat="42.416845969855785" lon="2.190044028684497">
        <ele>2775.60546875</ele>
        <time>2014-06-13T08:47:18Z</time>
      </trkpt>
      <trkpt lat="42.416883017867804" lon="2.190022990107536">
        <ele>2776.95703125</ele>
        <time>2014-06-13T08:47:29Z</time>
      </trkpt>
      <trkpt lat="42.416883017867804" lon="2.190022990107536">
        <ele>2776.95703125</ele>
        <time>2014-06-13T08:47:46Z</time>
      </trkpt>
      <trkpt lat="42.416907995939255" lon="2.189997006207705">
        <ele>2777.58984375</ele>
        <time>2014-06-13T08:48:17Z</time>
      </trkpt>
      <trkpt lat="42.416934985667467" lon="2.189976973459125">
        <ele>2778.484375</ele>
        <time>2014-06-13T08:49:33Z</time>
      </trkpt>
      <trkpt lat="42.416965998709202" lon="2.18994596041739">
        <ele>2779.33203125</ele>
        <time>2014-06-13T08:49:38Z</time>
      </trkpt>
      <trkpt lat="42.416997011750937" lon="2.189914025366306">
        <ele>2780.17578125</ele>
        <time>2014-06-13T08:49:44Z</time>
      </trkpt>
      <trkpt lat="42.417007992044091" lon="2.18990296125412">
        <ele>2780.484375</ele>
        <time>2014-06-13T08:49:56Z</time>
      </trkpt>
      <trkpt lat="42.417074963450432" lon="2.189876977354288">
        <ele>2783.34765625</ele>
        <time>2014-06-13T08:49:59Z</time>
      </trkpt>
      <trkpt lat="42.417174959555268" lon="2.189818974584341">
        <ele>2785.58203125</ele>
        <time>2014-06-13T08:50:07Z</time>
      </trkpt>
      <trkpt lat="42.417195998132229" lon="2.189797013998032">
        <ele>2785.58984375</ele>
        <time>2014-06-13T08:50:17Z</time>
      </trkpt>
      <trkpt lat="42.417236985638738" lon="2.189759965986013">
        <ele>2785.76953125</ele>
        <time>2014-06-13T08:50:31Z</time>
      </trkpt>
      <trkpt lat="42.417281996458769" lon="2.189723001793027">
        <ele>2786.12109375</ele>
        <time>2014-06-13T08:50:43Z</time>
      </trkpt>
      <trkpt lat="42.417321978136897" lon="2.189684025943279">
        <ele>2786.39453125</ele>
        <time>2014-06-13T08:50:48Z</time>
      </trkpt>
      <trkpt lat="42.417322983965278" lon="2.18968796543777">
        <ele>2786.48828125</ele>
        <time>2014-06-13T08:50:53Z</time>
      </trkpt>
      <trkpt lat="42.417331030592322" lon="2.18968503177166">
        <ele>2786.640625</ele>
        <time>2014-06-13T08:51:08Z</time>
      </trkpt>
      <trkpt lat="42.41737000644207" lon="2.18968503177166">
        <ele>2787.625</ele>
        <time>2014-06-13T08:51:20Z</time>
      </trkpt>
      <trkpt lat="42.417449969798326" lon="2.189648989588022">
        <ele>2789.109375</ele>
        <time>2014-06-13T08:51:33Z</time>
      </trkpt>
      <trkpt lat="42.417423985898495" lon="2.189789973199368">
        <ele>2790.65234375</ele>
        <time>2014-06-13T08:51:44Z</time>
      </trkpt>
      <trkpt lat="42.417423985898495" lon="2.189789973199368">
        <ele>2790.65234375</ele>
        <time>2014-06-13T08:51:57Z</time>
      </trkpt>
      <trkpt lat="42.417421974241734" lon="2.189792990684509">
        <ele>2790.65625</ele>
        <time>2014-06-13T08:52:11Z</time>
      </trkpt>
      <trkpt lat="42.417432032525539" lon="2.189822997897863">
        <ele>2791.40625</ele>
        <time>2014-06-13T08:52:18Z</time>
      </trkpt>
      <trkpt lat="42.417451981455088" lon="2.189873959869146">
        <ele>2792.72265625</ele>
        <time>2014-06-13T08:52:31Z</time>
      </trkpt>
      <trkpt lat="42.417453993111849" lon="2.189918970689178">
        <ele>2793.53125</ele>
        <time>2014-06-13T08:52:44Z</time>
      </trkpt>
      <trkpt lat="42.417447036132216" lon="2.189959036186338">
        <ele>2794.07421875</ele>
        <time>2014-06-13T08:52:56Z</time>
      </trkpt>
      <trkpt lat="42.417450975626707" lon="2.190016033127904">
        <ele>2795.125</ele>
        <time>2014-06-13T08:53:09Z</time>
      </trkpt>
      <trkpt lat="42.417480982840061" lon="2.190152993425727">
        <ele>2797.91015625</ele>
        <time>2014-06-13T08:53:21Z</time>
      </trkpt>
      <trkpt lat="42.417524987831712" lon="2.190166991204023">
        <ele>2796.9453125</ele>
        <time>2014-06-13T08:53:33Z</time>
      </trkpt>
      <trkpt lat="42.417577039450407" lon="2.190255001187325">
        <ele>2796.05859375</ele>
        <time>2014-06-13T08:53:43Z</time>
      </trkpt>
      <trkpt lat="42.417582990601659" lon="2.190262963995338">
        <ele>2795.96484375</ele>
        <time>2014-06-13T08:53:53Z</time>
      </trkpt>
      <trkpt lat="42.417604029178619" lon="2.190282996743918">
        <ele>2795.58203125</ele>
        <time>2014-06-13T08:54:05Z</time>
      </trkpt>
      <trkpt lat="42.417724980041385" lon="2.190408976748586">
        <ele>2794.27734375</ele>
        <time>2014-06-13T08:54:20Z</time>
      </trkpt>
      <trkpt lat="42.417737971991301" lon="2.190425992012024">
        <ele>2794.2734375</ele>
        <time>2014-06-13T08:54:32Z</time>
      </trkpt>
      <trkpt lat="42.417819024994969" lon="2.19058801420033">
        <ele>2794.38671875</ele>
        <time>2014-06-13T08:54:43Z</time>
      </trkpt>
      <trkpt lat="42.417832016944885" lon="2.1906119864434">
        <ele>2794.2265625</ele>
        <time>2014-06-13T08:54:48Z</time>
      </trkpt>
      <trkpt lat="42.417861018329859" lon="2.190660014748573">
        <ele>2793.94140625</ele>
        <time>2014-06-13T08:54:58Z</time>
      </trkpt>
      <trkpt lat="42.417905023321509" lon="2.190762022510171">
        <ele>2793.42578125</ele>
        <time>2014-06-13T08:55:11Z</time>
      </trkpt>
      <trkpt lat="42.417974006384611" lon="2.190855983644724">
        <ele>2792.71484375</ele>
        <time>2014-06-13T08:55:23Z</time>
      </trkpt>
      <trkpt lat="42.417980963364244" lon="2.190870987251401">
        <ele>2792.6796875</ele>
        <time>2014-06-13T08:55:35Z</time>
      </trkpt>
      <trkpt lat="42.418013988062739" lon="2.190918009728193">
        <ele>2792.03515625</ele>
        <time>2014-06-13T08:55:44Z</time>
      </trkpt>
      <trkpt lat="42.418141979724169" lon="2.19106201082468">
        <ele>2789.640625</ele>
        <time>2014-06-13T08:55:57Z</time>
      </trkpt>
      <trkpt lat="42.418168969452381" lon="2.191108027473092">
        <ele>2789.1875</ele>
        <time>2014-06-13T08:56:09Z</time>
      </trkpt>
      <trkpt lat="42.418167041614652" lon="2.191161001101136">
        <ele>2788.9375</ele>
        <time>2014-06-13T08:56:11Z</time>
      </trkpt>
      <trkpt lat="42.418169975280762" lon="2.191238030791283">
        <ele>2788.546875</ele>
        <time>2014-06-13T08:56:22Z</time>
      </trkpt>
      <trkpt lat="42.418184978887439" lon="2.191265020519495">
        <ele>2788.2421875</ele>
        <time>2014-06-13T08:56:34Z</time>
      </trkpt>
      <trkpt lat="42.418211968615651" lon="2.191334003582597">
        <ele>2786.76171875</ele>
        <time>2014-06-13T08:56:49Z</time>
      </trkpt>
      <trkpt lat="42.418227978050709" lon="2.19142897054553">
        <ele>2784.8671875</ele>
        <time>2014-06-13T08:56:59Z</time>
      </trkpt>
      <trkpt lat="42.418267037719488" lon="2.191553022712469">
        <ele>2782.8359375</ele>
        <time>2014-06-13T08:57:05Z</time>
      </trkpt>
      <trkpt lat="42.418273994699121" lon="2.191671961918473">
        <ele>2780.3203125</ele>
        <time>2014-06-13T08:57:20Z</time>
      </trkpt>
      <trkpt lat="42.418264020234346" lon="2.191730970516801">
        <ele>2778.8046875</ele>
        <time>2014-06-13T08:57:31Z</time>
      </trkpt>
      <trkpt lat="42.418275000527501" lon="2.191783022135496">
        <ele>2777.65625</ele>
        <time>2014-06-13T08:57:43Z</time>
      </trkpt>
      <trkpt lat="42.418290004134178" lon="2.19192199409008">
        <ele>2774.4375</ele>
        <time>2014-06-13T08:57:50Z</time>
      </trkpt>
      <trkpt lat="42.418310958892107" lon="2.192013021558523">
        <ele>2772.36328125</ele>
        <time>2014-06-13T08:58:02Z</time>
      </trkpt>
      <trkpt lat="42.418328979983926" lon="2.192132966592908">
        <ele>2769.26171875</ele>
        <time>2014-06-13T08:58:16Z</time>
      </trkpt>
      <trkpt lat="42.418344989418983" lon="2.192206978797913">
        <ele>2767.41796875</ele>
        <time>2014-06-13T08:58:33Z</time>
      </trkpt>
      <trkpt lat="42.418371979147196" lon="2.192318039014936">
        <ele>2764.72265625</ele>
        <time>2014-06-13T08:58:48Z</time>
      </trkpt>
      <trkpt lat="42.418368961662054" lon="2.192450975999236">
        <ele>2761.3125</ele>
        <time>2014-06-13T08:59:07Z</time>
      </trkpt>
      <trkpt lat="42.418357981368899" lon="2.192508978769183">
        <ele>2759.75</ele>
        <time>2014-06-13T08:59:19Z</time>
      </trkpt>
      <trkpt lat="42.418355969712138" lon="2.192622972652316">
        <ele>2756.91015625</ele>
        <time>2014-06-13T08:59:31Z</time>
      </trkpt>
      <trkpt lat="42.418359993025661" lon="2.192711988463998">
        <ele>2754.76953125</ele>
        <time>2014-06-13T08:59:43Z</time>
      </trkpt>
      <trkpt lat="42.418365022167563" lon="2.192807039245963">
        <ele>2752.78515625</ele>
        <time>2014-06-13T08:59:56Z</time>
      </trkpt>
      <trkpt lat="42.418388994410634" lon="2.192902006208897">
        <ele>2751.13671875</ele>
        <time>2014-06-13T09:00:09Z</time>
      </trkpt>
      <trkpt lat="42.418403998017311" lon="2.192999990656972">
        <ele>2749.2734375</ele>
        <time>2014-06-13T09:00:23Z</time>
      </trkpt>
      <trkpt lat="42.418407015502453" lon="2.193108033388853">
        <ele>2747.046875</ele>
        <time>2014-06-13T09:00:35Z</time>
      </trkpt>
      <trkpt lat="42.418411038815975" lon="2.193141980096698">
        <ele>2746.47265625</ele>
        <time>2014-06-13T09:00:49Z</time>
      </trkpt>
      <trkpt lat="42.418411038815975" lon="2.193238958716393">
        <ele>2744.72265625</ele>
        <time>2014-06-13T09:01:03Z</time>
      </trkpt>
      <trkpt lat="42.418403998017311" lon="2.193354964256287">
        <ele>2742.59765625</ele>
        <time>2014-06-13T09:01:15Z</time>
      </trkpt>
      <trkpt lat="42.418425036594272" lon="2.193517992272973">
        <ele>2739.91015625</ele>
        <time>2014-06-13T09:01:27Z</time>
      </trkpt>
      <trkpt lat="42.418430987745523" lon="2.193627040833235">
        <ele>2738.51953125</ele>
        <time>2014-06-13T09:01:40Z</time>
      </trkpt>
      <trkpt lat="42.418431993573904" lon="2.193694012239575">
        <ele>2737.6640625</ele>
        <time>2014-06-13T09:01:54Z</time>
      </trkpt>
      <trkpt lat="42.418440962210298" lon="2.193734999746084">
        <ele>2737.19140625</ele>
        <time>2014-06-13T09:02:07Z</time>
      </trkpt>
      <trkpt lat="42.418446997180581" lon="2.193834995850921">
        <ele>2735.97265625</ele>
        <time>2014-06-13T09:02:20Z</time>
      </trkpt>
      <trkpt lat="42.418440962210298" lon="2.193949995562434">
        <ele>2734.47265625</ele>
        <time>2014-06-13T09:02:34Z</time>
      </trkpt>
      <trkpt lat="42.418451020494103" lon="2.194052003324032">
        <ele>2733.28515625</ele>
        <time>2014-06-13T09:02:46Z</time>
      </trkpt>
      <trkpt lat="42.418462000787258" lon="2.194147976115346">
        <ele>2732.1953125</ele>
        <time>2014-06-13T09:02:59Z</time>
      </trkpt>
      <trkpt lat="42.418486978858709" lon="2.194226011633873">
        <ele>2731.49609375</ele>
        <time>2014-06-13T09:03:12Z</time>
      </trkpt>
      <trkpt lat="42.418504999950528" lon="2.194336988031864">
        <ele>2730.3203125</ele>
        <time>2014-06-13T09:03:29Z</time>
      </trkpt>
      <trkpt lat="42.418513968586922" lon="2.194443019106984">
        <ele>2729.07421875</ele>
        <time>2014-06-13T09:04:00Z</time>
      </trkpt>
      <trkpt lat="42.418507011607289" lon="2.194466991350055">
        <ele>2728.73046875</ele>
        <time>2014-06-13T09:04:13Z</time>
      </trkpt>
      <trkpt lat="42.418478010222316" lon="2.194562964141369">
        <ele>2727.4140625</ele>
        <time>2014-06-13T09:04:25Z</time>
      </trkpt>
      <trkpt lat="42.41844498552382" lon="2.194644017145038">
        <ele>2726.28515625</ele>
        <time>2014-06-13T09:04:37Z</time>
      </trkpt>
      <trkpt lat="42.418443979695439" lon="2.19469103962183">
        <ele>2725.69921875</ele>
        <time>2014-06-13T09:04:48Z</time>
      </trkpt>
      <trkpt lat="42.418413972482085" lon="2.194808972999454">
        <ele>2724.39453125</ele>
        <time>2014-06-13T09:05:00Z</time>
      </trkpt>
      <trkpt lat="42.418383965268731" lon="2.19486303627491">
        <ele>2724.01953125</ele>
        <time>2014-06-13T09:05:12Z</time>
      </trkpt>
      <trkpt lat="42.418334009125829" lon="2.195025980472565">
        <ele>2723.16796875</ele>
        <time>2014-06-13T09:05:24Z</time>
      </trkpt>
      <trkpt lat="42.418300984427333" lon="2.195148020982742">
        <ele>2722.859375</ele>
        <time>2014-06-13T09:05:36Z</time>
      </trkpt>
      <trkpt lat="42.418241975829005" lon="2.195226978510618">
        <ele>2723.50390625</ele>
        <time>2014-06-13T09:05:49Z</time>
      </trkpt>
      <trkpt lat="42.418224960565567" lon="2.195300990715623">
        <ele>2723.28125</ele>
        <time>2014-06-13T09:06:01Z</time>
      </trkpt>
      <trkpt lat="42.418222026899457" lon="2.195356981828809">
        <ele>2722.8671875</ele>
        <time>2014-06-13T09:06:13Z</time>
      </trkpt>
      <trkpt lat="42.418224960565567" lon="2.195349019020796">
        <ele>2723.03515625</ele>
        <time>2014-06-13T09:06:25Z</time>
      </trkpt>
      <trkpt lat="42.418221021071076" lon="2.195377014577389">
        <ele>2722.6953125</ele>
        <time>2014-06-13T09:06:38Z</time>
      </trkpt>
      <trkpt lat="42.418222026899457" lon="2.195413978770375">
        <ele>2722.48046875</ele>
        <time>2014-06-13T09:06:49Z</time>
      </trkpt>
      <trkpt lat="42.418204005807638" lon="2.195467036217451">
        <ele>2721.62109375</ele>
        <time>2014-06-13T09:07:02Z</time>
      </trkpt>
      <trkpt lat="42.418178021907806" lon="2.195586981251836">
        <ele>2720.56640625</ele>
        <time>2014-06-13T09:07:16Z</time>
      </trkpt>
      <trkpt lat="42.418140973895788" lon="2.195696029812098">
        <ele>2720.01171875</ele>
        <time>2014-06-13T09:07:36Z</time>
      </trkpt>
      <trkpt lat="42.418105015531182" lon="2.195816980674863">
        <ele>2721.23828125</ele>
        <time>2014-06-13T09:07:47Z</time>
      </trkpt>
      <trkpt lat="42.418055981397629" lon="2.19591798260808">
        <ele>2722.953125</ele>
        <time>2014-06-13T09:07:59Z</time>
      </trkpt>
      <trkpt lat="42.41801499389112" lon="2.196016972884536">
        <ele>2725.22265625</ele>
        <time>2014-06-13T09:08:11Z</time>
      </trkpt>
      <trkpt lat="42.417988004162908" lon="2.196124009788036">
        <ele>2727.5859375</ele>
        <time>2014-06-13T09:08:20Z</time>
      </trkpt>
      <trkpt lat="42.417967971414328" lon="2.196206990629435">
        <ele>2729.3515625</ele>
        <time>2014-06-13T09:08:31Z</time>
      </trkpt>
      <trkpt lat="42.417917009443045" lon="2.196278991177678">
        <ele>2732.0078125</ele>
        <time>2014-06-13T09:08:41Z</time>
      </trkpt>
      <trkpt lat="42.417897982522845" lon="2.196314027532935">
        <ele>2733.23828125</ele>
        <time>2014-06-13T09:08:53Z</time>
      </trkpt>
      <trkpt lat="42.417881973087788" lon="2.196397008374333">
        <ele>2735.3671875</ele>
        <time>2014-06-13T09:09:06Z</time>
      </trkpt>
      <trkpt lat="42.417856995016336" lon="2.196503961458802">
        <ele>2736.52734375</ele>
        <time>2014-06-13T09:09:19Z</time>
      </trkpt>
      <trkpt lat="42.417821036651731" lon="2.196619966998696">
        <ele>2735.109375</ele>
        <time>2014-06-13T09:09:31Z</time>
      </trkpt>
      <trkpt lat="42.417775020003319" lon="2.19673597253859">
        <ele>2734.33203125</ele>
        <time>2014-06-13T09:09:46Z</time>
      </trkpt>
      <trkpt lat="42.417737971991301" lon="2.196857007220388">
        <ele>2734.6796875</ele>
        <time>2014-06-13T09:09:58Z</time>
      </trkpt>
      <trkpt lat="42.417696984484792" lon="2.196976030245423">
        <ele>2735.875</ele>
        <time>2014-06-13T09:10:08Z</time>
      </trkpt>
      <trkpt lat="42.417658008635044" lon="2.197102010250092">
        <ele>2737.4921875</ele>
        <time>2014-06-13T09:10:31Z</time>
      </trkpt>
      <trkpt lat="42.417649039998651" lon="2.197218015789986">
        <ele>2738.875</ele>
        <time>2014-06-13T09:10:45Z</time>
      </trkpt>
      <trkpt lat="42.417616015300155" lon="2.197339972481132">
        <ele>2740.83984375</ele>
        <time>2014-06-13T09:10:57Z</time>
      </trkpt>
      <trkpt lat="42.417591037228703" lon="2.197455978021026">
        <ele>2742.8203125</ele>
        <time>2014-06-13T09:11:10Z</time>
      </trkpt>
      <trkpt lat="42.417580978944898" lon="2.197476010769606">
        <ele>2743.32421875</ele>
        <time>2014-06-13T09:11:21Z</time>
      </trkpt>
      <trkpt lat="42.417580978944898" lon="2.197473999112845">
        <ele>2743.296875</ele>
        <time>2014-06-13T09:11:32Z</time>
      </trkpt>
      <trkpt lat="42.417554995045066" lon="2.197611965239048">
        <ele>2746.13671875</ele>
        <time>2014-06-13T09:14:04Z</time>
      </trkpt>
      <trkpt lat="42.417510990053415" lon="2.197730988264084">
        <ele>2749.98046875</ele>
        <time>2014-06-13T09:14:18Z</time>
      </trkpt>
      <trkpt lat="42.417482994496822" lon="2.197817992419004">
        <ele>2752.8046875</ele>
        <time>2014-06-13T09:14:24Z</time>
      </trkpt>
      <trkpt lat="42.417450975626707" lon="2.19789301045239">
        <ele>2754.77734375</ele>
        <time>2014-06-13T09:14:39Z</time>
      </trkpt>
      <trkpt lat="42.417428009212017" lon="2.197984037920833">
        <ele>2756.5703125</ele>
        <time>2014-06-13T09:14:52Z</time>
      </trkpt>
      <trkpt lat="42.417376963421702" lon="2.197999963536859">
        <ele>2757.515625</ele>
        <time>2014-06-13T09:15:05Z</time>
      </trkpt>
      <trkpt lat="42.417355002835393" lon="2.198072969913483">
        <ele>2759.1640625</ele>
        <time>2014-06-13T09:15:17Z</time>
      </trkpt>
      <trkpt lat="42.41734704002738" lon="2.198172966018319">
        <ele>2761.18359375</ele>
        <time>2014-06-13T09:17:46Z</time>
      </trkpt>
      <trkpt lat="42.417312003672123" lon="2.198247984051704">
        <ele>2763.52734375</ele>
        <time>2014-06-13T09:17:56Z</time>
      </trkpt>
      <trkpt lat="42.417283002287149" lon="2.198298024013639">
        <ele>2765.34375</ele>
        <time>2014-06-13T09:18:04Z</time>
      </trkpt>
      <trkpt lat="42.417240003123879" lon="2.198344962671399">
        <ele>2767.39453125</ele>
        <time>2014-06-13T09:18:17Z</time>
      </trkpt>
      <trkpt lat="42.417199015617371" lon="2.198385028168559">
        <ele>2769.4765625</ele>
        <time>2014-06-13T09:18:29Z</time>
      </trkpt>
      <trkpt lat="42.417135983705521" lon="2.198440013453364">
        <ele>2772.89453125</ele>
        <time>2014-06-13T09:18:40Z</time>
      </trkpt>
      <trkpt lat="42.417098013684154" lon="2.198511008173227">
        <ele>2774.9765625</ele>
        <time>2014-06-13T09:19:00Z</time>
      </trkpt>
      <trkpt lat="42.417098013684154" lon="2.198511008173227">
        <ele>2774.9765625</ele>
        <time>2014-06-13T09:19:19Z</time>
      </trkpt>
      <trkpt lat="42.417098013684154" lon="2.198511008173227">
        <ele>2774.9765625</ele>
        <time>2014-06-13T09:19:31Z</time>
      </trkpt>
      <trkpt lat="42.417051997035742" lon="2.198609998449683">
        <ele>2776.984375</ele>
        <time>2014-06-13T09:19:33Z</time>
      </trkpt>
      <trkpt lat="42.416995000094175" lon="2.1987110003829">
        <ele>2778.57421875</ele>
        <time>2014-06-13T09:19:45Z</time>
      </trkpt>
      <trkpt lat="42.416947977617383" lon="2.198793981224299">
        <ele>2779.859375</ele>
        <time>2014-06-13T09:19:58Z</time>
      </trkpt>
      <trkpt lat="42.416909001767635" lon="2.198880985379219">
        <ele>2781.7890625</ele>
        <time>2014-06-13T09:20:09Z</time>
      </trkpt>
      <trkpt lat="42.416898021474481" lon="2.198908980935812">
        <ele>2782.5078125</ele>
        <time>2014-06-13T09:22:40Z</time>
      </trkpt>
      <trkpt lat="42.416885029524565" lon="2.198950974270701">
        <ele>2783.62109375</ele>
        <time>2014-06-13T09:22:58Z</time>
      </trkpt>
      <trkpt lat="42.416862985119224" lon="2.198991039767861">
        <ele>2784.9609375</ele>
        <time>2014-06-13T09:22:59Z</time>
      </trkpt>
      <trkpt lat="42.416832977905869" lon="2.199045019224286">
        <ele>2786.74609375</ele>
        <time>2014-06-13T09:23:15Z</time>
      </trkpt>
      <trkpt lat="42.416777992621064" lon="2.199120037257671">
        <ele>2789.2265625</ele>
        <time>2014-06-13T09:23:22Z</time>
      </trkpt>
      <trkpt lat="42.416730970144272" lon="2.199192959815264">
        <ele>2791.26953125</ele>
        <time>2014-06-13T09:23:37Z</time>
      </trkpt>
      <trkpt lat="42.416680008172989" lon="2.199252974241972">
        <ele>2791.8046875</ele>
        <time>2014-06-13T09:23:44Z</time>
      </trkpt>
      <trkpt lat="42.41663902066648" lon="2.199320029467344">
        <ele>2792.79296875</ele>
        <time>2014-06-13T09:23:59Z</time>
      </trkpt>
      <trkpt lat="42.416599960997701" lon="2.199378032237291">
        <ele>2793.76953125</ele>
        <time>2014-06-13T09:24:15Z</time>
      </trkpt>
      <trkpt lat="42.416582023724914" lon="2.199410973116756">
        <ele>2794.28125</ele>
        <time>2014-06-13T09:24:30Z</time>
      </trkpt>
      <trkpt lat="42.416585041210055" lon="2.199409967288375">
        <ele>2794.2890625</ele>
        <time>2014-06-13T09:24:43Z</time>
      </trkpt>
      <trkpt lat="42.41657598875463" lon="2.19946201890707">
        <ele>2794.78515625</ele>
        <time>2014-06-13T09:24:52Z</time>
      </trkpt>
      <trkpt lat="42.416547993198037" lon="2.199520021677017">
        <ele>2795.34375</ele>
        <time>2014-06-13T09:25:05Z</time>
      </trkpt>
      <trkpt lat="42.416526032611728" lon="2.199584981426597">
        <ele>2796.11328125</ele>
        <time>2014-06-13T09:25:10Z</time>
      </trkpt>
      <trkpt lat="42.41651002317667" lon="2.199652958661318">
        <ele>2797.01171875</ele>
        <time>2014-06-13T09:25:24Z</time>
      </trkpt>
      <trkpt lat="42.416493007913232" lon="2.19974298030138">
        <ele>2798.30078125</ele>
        <time>2014-06-13T09:25:39Z</time>
      </trkpt>
      <trkpt lat="42.416492002084851" lon="2.199837025254965">
        <ele>2798.4296875</ele>
        <time>2014-06-13T09:25:52Z</time>
      </trkpt>
      <trkpt lat="42.416508011519909" lon="2.200025031343103">
        <ele>2797.38671875</ele>
        <time>2014-06-13T09:25:53Z</time>
      </trkpt>
      <trkpt lat="42.416515974327922" lon="2.200102983042598">
        <ele>2796.85546875</ele>
        <time>2014-06-13T09:26:06Z</time>
      </trkpt>
      <trkpt lat="42.416525026783347" lon="2.200229968875647">
        <ele>2796.22265625</ele>
        <time>2014-06-13T09:26:18Z</time>
      </trkpt>
      <trkpt lat="42.416501976549625" lon="2.200318984687328">
        <ele>2796.59375</ele>
        <time>2014-06-13T09:26:31Z</time>
      </trkpt>
      <trkpt lat="42.416475992649794" lon="2.200481006875634">
        <ele>2796.99609375</ele>
        <time>2014-06-13T09:26:44Z</time>
      </trkpt>
      <trkpt lat="42.416484961286187" lon="2.200538003817201">
        <ele>2796.7265625</ele>
        <time>2014-06-13T09:26:45Z</time>
      </trkpt>
      <trkpt lat="42.416435005143285" lon="2.200672030448914">
        <ele>2798.44140625</ele>
        <time>2014-06-13T09:26:50Z</time>
      </trkpt>
      <trkpt lat="42.41642402485013" lon="2.200715029612184">
        <ele>2798.83984375</ele>
        <time>2014-06-13T09:27:02Z</time>
      </trkpt>
      <trkpt lat="42.416382031515241" lon="2.200818965211511">
        <ele>2800.23828125</ele>
        <time>2014-06-13T09:27:13Z</time>
      </trkpt>
      <trkpt lat="42.416348000988364" lon="2.200941005721688">
        <ele>2800.984375</ele>
        <time>2014-06-13T09:27:25Z</time>
      </trkpt>
      <trkpt lat="42.416284969076514" lon="2.201072014868259">
        <ele>2801.69921875</ele>
        <time>2014-06-13T09:27:38Z</time>
      </trkpt>
      <trkpt lat="42.41627398878336" lon="2.201122976839542">
        <ele>2802.43359375</ele>
        <time>2014-06-13T09:27:52Z</time>
      </trkpt>
      <trkpt lat="42.416268037632108" lon="2.201152984052897">
        <ele>2802.86328125</ele>
        <time>2014-06-13T09:28:07Z</time>
      </trkpt>
      <trkpt lat="42.416238030418754" lon="2.201272007077932">
        <ele>2803.66015625</ele>
        <time>2014-06-13T09:28:17Z</time>
      </trkpt>
      <trkpt lat="42.416236018761992" lon="2.201277036219835">
        <ele>2803.5703125</ele>
        <time>2014-06-13T09:28:32Z</time>
      </trkpt>
      <trkpt lat="42.416236018761992" lon="2.201277036219835">
        <ele>2803.5703125</ele>
        <time>2014-06-13T09:28:33Z</time>
      </trkpt>
      <trkpt lat="42.416226966306567" lon="2.201362028717995">
        <ele>2803.44140625</ele>
        <time>2014-06-13T09:28:35Z</time>
      </trkpt>
      <trkpt lat="42.416227972134948" lon="2.201435035094619">
        <ele>2803.82421875</ele>
        <time>2014-06-13T09:28:39Z</time>
      </trkpt>
      <trkpt lat="42.416250016540289" lon="2.201559003442526">
        <ele>2805.59765625</ele>
        <time>2014-06-13T09:28:41Z</time>
      </trkpt>
      <trkpt lat="42.416258985176682" lon="2.201577024534345">
        <ele>2806.171875</ele>
        <time>2014-06-13T09:28:52Z</time>
      </trkpt>
      <trkpt lat="42.416260996833444" lon="2.201590016484261">
        <ele>2806.33984375</ele>
        <time>2014-06-13T09:28:55Z</time>
      </trkpt>
      <trkpt lat="42.416264014318585" lon="2.201600996777415">
        <ele>2806.5546875</ele>
        <time>2014-06-13T09:28:58Z</time>
      </trkpt>
      <trkpt lat="42.416354035958648" lon="2.201827978715301">
        <ele>2805.2890625</ele>
        <time>2014-06-13T09:29:00Z</time>
      </trkpt>
      <trkpt lat="42.41638102568686" lon="2.201906014233828">
        <ele>2803.8125</ele>
        <time>2014-06-13T09:29:10Z</time>
      </trkpt>
      <trkpt lat="42.416466018185019" lon="2.202079016715288">
        <ele>2800.47265625</ele>
        <time>2014-06-13T09:29:12Z</time>
      </trkpt>
      <trkpt lat="42.41648898459971" lon="2.20221103169024">
        <ele>2798.7734375</ele>
        <time>2014-06-13T09:29:23Z</time>
      </trkpt>
      <trkpt lat="42.416521003469825" lon="2.202429967001081">
        <ele>2795.953125</ele>
        <time>2014-06-13T09:29:34Z</time>
      </trkpt>
      <trkpt lat="42.416600966826081" lon="2.202679999172688">
        <ele>2793.1328125</ele>
        <time>2014-06-13T09:29:46Z</time>
      </trkpt>
      <trkpt lat="42.416685037314892" lon="2.20290002413094">
        <ele>2788.79296875</ele>
        <time>2014-06-13T09:29:54Z</time>
      </trkpt>
      <trkpt lat="42.416804982349277" lon="2.203048970550299">
        <ele>2782.98046875</ele>
        <time>2014-06-13T09:30:03Z</time>
      </trkpt>
      <trkpt lat="42.416871031746268" lon="2.20315701328218">
        <ele>2779.3515625</ele>
        <time>2014-06-13T09:30:09Z</time>
      </trkpt>
      <trkpt lat="42.416835995391011" lon="2.203338984400034">
        <ele>2779.6953125</ele>
        <time>2014-06-13T09:30:13Z</time>
      </trkpt>
      <trkpt lat="42.416842030361295" lon="2.203421965241432">
        <ele>2779.328125</ele>
        <time>2014-06-13T09:30:16Z</time>
      </trkpt>
      <trkpt lat="42.416903972625732" lon="2.203593039885163">
        <ele>2779.47265625</ele>
        <time>2014-06-13T09:30:29Z</time>
      </trkpt>
      <trkpt lat="42.416935991495848" lon="2.203838964924216">
        <ele>2781.83984375</ele>
        <time>2014-06-13T09:30:48Z</time>
      </trkpt>
      <trkpt lat="42.416936997324228" lon="2.204024959355593">
        <ele>2785.1484375</ele>
        <time>2014-06-13T09:30:51Z</time>
      </trkpt>
      <trkpt lat="42.41694001480937" lon="2.20403702929616">
        <ele>2785.41796875</ele>
        <time>2014-06-13T09:30:54Z</time>
      </trkpt>
      <trkpt lat="42.416944038122892" lon="2.204226963222027">
        <ele>2788.82421875</ele>
        <time>2014-06-13T09:31:08Z</time>
      </trkpt>
      <trkpt lat="42.416943032294512" lon="2.204394014552236">
        <ele>2790.2265625</ele>
        <time>2014-06-13T09:31:26Z</time>
      </trkpt>
      <trkpt lat="42.41691998206079" lon="2.204569028690457">
        <ele>2790.80859375</ele>
        <time>2014-06-13T09:31:53Z</time>
      </trkpt>
      <trkpt lat="42.416906990110874" lon="2.204754017293453">
        <ele>2791.0546875</ele>
        <time>2014-06-13T09:32:17Z</time>
      </trkpt>
      <trkpt lat="42.416907995939255" lon="2.204766003414989">
        <ele>2791.14453125</ele>
        <time>2014-06-13T09:32:48Z</time>
      </trkpt>
      <trkpt lat="42.416912019252777" lon="2.204830963164568">
        <ele>2791.56640625</ele>
        <time>2014-06-13T09:33:03Z</time>
      </trkpt>
      <trkpt lat="42.416917970404029" lon="2.204986028373241">
        <ele>2792.40234375</ele>
        <time>2014-06-13T09:33:15Z</time>
      </trkpt>
      <trkpt lat="42.416900033131242" lon="2.205138998106122">
        <ele>2792.1484375</ele>
        <time>2014-06-13T09:33:19Z</time>
      </trkpt>
      <trkpt lat="42.416861979290843" lon="2.205288028344512">
        <ele>2791.328125</ele>
        <time>2014-06-13T09:33:32Z</time>
      </trkpt>
      <trkpt lat="42.416821997612715" lon="2.205387018620968">
        <ele>2790.671875</ele>
        <time>2014-06-13T09:33:39Z</time>
      </trkpt>
      <trkpt lat="42.416798025369644" lon="2.205572007223964">
        <ele>2791.60546875</ele>
        <time>2014-06-13T09:33:52Z</time>
      </trkpt>
      <trkpt lat="42.41672501899302" lon="2.205759007483721">
        <ele>2791.03515625</ele>
        <time>2014-06-13T09:33:59Z</time>
      </trkpt>
      <trkpt lat="42.416702974587679" lon="2.205889010801911">
        <ele>2791.328125</ele>
        <time>2014-06-13T09:34:03Z</time>
      </trkpt>
      <trkpt lat="42.416599038988352" lon="2.206066958606243">
        <ele>2787.80859375</ele>
        <time>2014-06-13T09:34:15Z</time>
      </trkpt>
      <trkpt lat="42.416597027331591" lon="2.20607802271843">
        <ele>2787.8359375</ele>
        <time>2014-06-13T09:34:26Z</time>
      </trkpt>
      <trkpt lat="42.416589986532927" lon="2.206104006618261">
        <ele>2787.78125</ele>
        <time>2014-06-13T09:34:33Z</time>
      </trkpt>
      <trkpt lat="42.416580012068152" lon="2.206153040751815">
        <ele>2787.86328125</ele>
        <time>2014-06-13T09:34:45Z</time>
      </trkpt>
      <trkpt lat="42.416579006239772" lon="2.206182964146137">
        <ele>2788.1875</ele>
        <time>2014-06-13T09:34:56Z</time>
      </trkpt>
      <trkpt lat="42.416585041210055" lon="2.206324031576514">
        <ele>2790.2890625</ele>
        <time>2014-06-13T09:35:08Z</time>
      </trkpt>
      <trkpt lat="42.41657598875463" lon="2.206360995769501">
        <ele>2790.28125</ele>
        <time>2014-06-13T09:35:21Z</time>
      </trkpt>
      <trkpt lat="42.416565008461475" lon="2.206395026296377">
        <ele>2790.140625</ele>
        <time>2014-06-13T09:35:42Z</time>
      </trkpt>
      <trkpt lat="42.416557967662811" lon="2.206421010196209">
        <ele>2790.10546875</ele>
        <time>2014-06-13T09:35:46Z</time>
      </trkpt>
      <trkpt lat="42.41653298959136" lon="2.20653098076582">
        <ele>2789.81640625</ele>
        <time>2014-06-13T09:36:00Z</time>
      </trkpt>
      <trkpt lat="42.416525026783347" lon="2.2065510135144">
        <ele>2789.60546875</ele>
        <time>2014-06-13T09:36:12Z</time>
      </trkpt>
      <trkpt lat="42.416468029841781" lon="2.206630976870656">
        <ele>2787.69140625</ele>
        <time>2014-06-13T09:36:24Z</time>
      </trkpt>
      <trkpt lat="42.416418995708227" lon="2.206763997673988">
        <ele>2787.0234375</ele>
        <time>2014-06-13T09:36:38Z</time>
      </trkpt>
      <trkpt lat="42.416387982666492" lon="2.206891989335418">
        <ele>2787.4140625</ele>
        <time>2014-06-13T09:36:49Z</time>
      </trkpt>
      <trkpt lat="42.416354035958648" lon="2.206977987661958">
        <ele>2786.953125</ele>
        <time>2014-06-13T09:37:00Z</time>
      </trkpt>
      <trkpt lat="42.416307013481855" lon="2.207072032615542">
        <ele>2785.80078125</ele>
        <time>2014-06-13T09:37:22Z</time>
      </trkpt>
      <trkpt lat="42.416288992390037" lon="2.20713397487998">
        <ele>2785.7734375</ele>
        <time>2014-06-13T09:37:34Z</time>
      </trkpt>
      <trkpt lat="42.416263008490205" lon="2.20717404037714">
        <ele>2785.02734375</ele>
        <time>2014-06-13T09:37:38Z</time>
      </trkpt>
      <trkpt lat="42.41625102236867" lon="2.207202035933733">
        <ele>2784.69140625</ele>
        <time>2014-06-13T09:37:52Z</time>
      </trkpt>
      <trkpt lat="42.416197964921594" lon="2.207299014553428">
        <ele>2783.078125</ele>
        <time>2014-06-13T09:38:09Z</time>
      </trkpt>
      <trkpt lat="42.416143985465169" lon="2.207418959587812">
        <ele>2781.9453125</ele>
        <time>2014-06-13T09:38:21Z</time>
      </trkpt>
      <trkpt lat="42.416130993515253" lon="2.207456007599831">
        <ele>2781.8203125</ele>
        <time>2014-06-13T09:38:33Z</time>
      </trkpt>
      <trkpt lat="42.416121019050479" lon="2.20749699510634">
        <ele>2781.90234375</ele>
        <time>2014-06-13T09:38:45Z</time>
      </trkpt>
      <trkpt lat="42.416083971038461" lon="2.207580981776118">
        <ele>2780.9765625</ele>
        <time>2014-06-13T09:38:58Z</time>
      </trkpt>
      <trkpt lat="42.416081037372351" lon="2.207590034231544">
        <ele>2780.875</ele>
        <time>2014-06-13T09:39:12Z</time>
      </trkpt>
      <trkpt lat="42.416072990745306" lon="2.207613000646234">
        <ele>2780.609375</ele>
        <time>2014-06-13T09:39:13Z</time>
      </trkpt>
      <trkpt lat="42.416067961603403" lon="2.207613000646234">
        <ele>2780.41015625</ele>
        <time>2014-06-13T09:39:24Z</time>
      </trkpt>
      <trkpt lat="42.416051030158997" lon="2.207611994817853">
        <ele>2779.734375</ele>
        <time>2014-06-13T09:39:49Z</time>
      </trkpt>
      <trkpt lat="42.416051030158997" lon="2.207611994817853">
        <ele>2779.734375</ele>
        <time>2014-06-13T09:40:13Z</time>
      </trkpt>
      <trkpt lat="42.41601699963212" lon="2.207804024219513">
        <ele>2779.55078125</ele>
        <time>2014-06-13T09:40:44Z</time>
      </trkpt>
      <trkpt lat="42.416005013510585" lon="2.207849035039544">
        <ele>2779.46484375</ele>
        <time>2014-06-13T09:41:01Z</time>
      </trkpt>
      <trkpt lat="42.415944999083877" lon="2.207997981458902">
        <ele>2777.5859375</ele>
        <time>2014-06-13T09:41:06Z</time>
      </trkpt>
      <trkpt lat="42.415933012962341" lon="2.208074005320668">
        <ele>2777.3125</ele>
        <time>2014-06-13T09:41:20Z</time>
      </trkpt>
      <trkpt lat="42.415912980213761" lon="2.208220018073916">
        <ele>2777.08984375</ele>
        <time>2014-06-13T09:41:26Z</time>
      </trkpt>
      <trkpt lat="42.415905017405748" lon="2.208310039713979">
        <ele>2776.9140625</ele>
        <time>2014-06-13T09:41:30Z</time>
      </trkpt>
      <trkpt lat="42.41590803489089" lon="2.208345998078585">
        <ele>2776.73046875</ele>
        <time>2014-06-13T09:41:44Z</time>
      </trkpt>
      <trkpt lat="42.415863024070859" lon="2.208481030538678">
        <ele>2775.4453125</ele>
        <time>2014-06-13T09:41:57Z</time>
      </trkpt>
      <trkpt lat="42.415819019079208" lon="2.208602987229824">
        <ele>2775.28125</ele>
        <time>2014-06-13T09:42:10Z</time>
      </trkpt>
      <trkpt lat="42.41578096523881" lon="2.208668030798435">
        <ele>2775.61328125</ele>
        <time>2014-06-13T09:42:24Z</time>
      </trkpt>
      <trkpt lat="42.41569597274065" lon="2.20876500941813">
        <ele>2776.54296875</ele>
        <time>2014-06-13T09:42:37Z</time>
      </trkpt>
      <trkpt lat="42.41565003991127" lon="2.208884032443166">
        <ele>2777.80859375</ele>
        <time>2014-06-13T09:42:52Z</time>
      </trkpt>
      <trkpt lat="42.415607040748" lon="2.209004983305931">
        <ele>2777.78515625</ele>
        <time>2014-06-13T09:43:07Z</time>
      </trkpt>
      <trkpt lat="42.41558600217104" lon="2.209101039916277">
        <ele>2777.1328125</ele>
        <time>2014-06-13T09:44:11Z</time>
      </trkpt>
      <trkpt lat="42.415572004392743" lon="2.209193995222449">
        <ele>2776.74609375</ele>
        <time>2014-06-13T09:44:23Z</time>
      </trkpt>
      <trkpt lat="42.415564963594079" lon="2.209241017699242">
        <ele>2776.6484375</ele>
        <time>2014-06-13T09:44:37Z</time>
      </trkpt>
      <trkpt lat="42.41558700799942" lon="2.209400022402406">
        <ele>2776.41015625</ele>
        <time>2014-06-13T09:44:50Z</time>
      </trkpt>
      <trkpt lat="42.415590025484562" lon="2.20954000018537">
        <ele>2775.546875</ele>
        <time>2014-06-13T09:45:02Z</time>
      </trkpt>
      <trkpt lat="42.415605029091239" lon="2.209663968533278">
        <ele>2774.5703125</ele>
        <time>2014-06-13T09:45:15Z</time>
      </trkpt>
      <trkpt lat="42.41560896858573" lon="2.209794977679849">
        <ele>2773.4375</ele>
        <time>2014-06-13T09:45:27Z</time>
      </trkpt>
      <trkpt lat="42.415634030476213" lon="2.209879970178008">
        <ele>2771.703125</ele>
        <time>2014-06-13T09:45:41Z</time>
      </trkpt>
      <trkpt lat="42.41564903408289" lon="2.209931015968323">
        <ele>2770.2109375</ele>
        <time>2014-06-13T09:45:53Z</time>
      </trkpt>
      <trkpt lat="42.415663031861186" lon="2.209982983767986">
        <ele>2768.59375</ele>
        <time>2014-06-13T09:46:11Z</time>
      </trkpt>
      <trkpt lat="42.415708964690566" lon="2.210016008466482">
        <ele>2765.32421875</ele>
        <time>2014-06-13T09:46:22Z</time>
      </trkpt>
      <trkpt lat="42.415730003267527" lon="2.209993964061141">
        <ele>2764.42578125</ele>
        <time>2014-06-13T09:46:38Z</time>
      </trkpt>
      <trkpt lat="42.41582203656435" lon="2.209917018190026">
        <ele>2760.34765625</ele>
        <time>2014-06-13T09:46:47Z</time>
      </trkpt>
      <trkpt lat="42.41584500297904" lon="2.209888016805053">
        <ele>2759.5625</ele>
        <time>2014-06-13T09:46:59Z</time>
      </trkpt>
      <trkpt lat="42.415897976607084" lon="2.209811992943287">
        <ele>2758.03125</ele>
        <time>2014-06-13T09:47:08Z</time>
      </trkpt>
      <trkpt lat="42.415937036275864" lon="2.209724988788366">
        <ele>2757.19921875</ele>
        <time>2014-06-13T09:47:14Z</time>
      </trkpt>
      <trkpt lat="42.415991015732288" lon="2.209642007946968">
        <ele>2755.04296875</ele>
        <time>2014-06-13T09:47:19Z</time>
      </trkpt>
      <trkpt lat="42.416044995188713" lon="2.209561038762331">
        <ele>2752.8359375</ele>
        <time>2014-06-13T09:47:28Z</time>
      </trkpt>
      <trkpt lat="42.416077014058828" lon="2.209521979093552">
        <ele>2751.47265625</ele>
        <time>2014-06-13T09:47:42Z</time>
      </trkpt>
      <trkpt lat="42.416084976866841" lon="2.209506975486875">
        <ele>2751.20703125</ele>
        <time>2014-06-13T10:02:48Z</time>
      </trkpt>
      <trkpt lat="42.416152032092214" lon="2.209408991038799">
        <ele>2748.78515625</ele>
        <time>2014-06-13T10:03:00Z</time>
      </trkpt>
      <trkpt lat="42.416150020435452" lon="2.209411002695561">
        <ele>2748.8671875</ele>
        <time>2014-06-13T10:03:06Z</time>
      </trkpt>
      <trkpt lat="42.416151026263833" lon="2.209406979382038">
        <ele>2748.8671875</ele>
        <time>2014-06-13T10:03:11Z</time>
      </trkpt>
      <trkpt lat="42.416155971586704" lon="2.209403961896896">
        <ele>2748.64453125</ele>
        <time>2014-06-13T10:03:12Z</time>
      </trkpt>
      <trkpt lat="42.416171981021762" lon="2.209373032674193">
        <ele>2748.49609375</ele>
        <time>2014-06-13T10:03:15Z</time>
      </trkpt>
      <trkpt lat="42.416202994063497" lon="2.209326010197401">
        <ele>2748.1328125</ele>
        <time>2014-06-13T10:03:21Z</time>
      </trkpt>
      <trkpt lat="42.41629796102643" lon="2.209233976900578">
        <ele>2745.76953125</ele>
        <time>2014-06-13T10:03:26Z</time>
      </trkpt>
      <trkpt lat="42.4163409601897" lon="2.209197012707591">
        <ele>2744.6328125</ele>
        <time>2014-06-13T10:03:30Z</time>
      </trkpt>
      <trkpt lat="42.416370967403054" lon="2.209181003272533">
        <ele>2743.578125</ele>
        <time>2014-06-13T10:03:38Z</time>
      </trkpt>
      <trkpt lat="42.416458977386355" lon="2.209103973582387">
        <ele>2741.72265625</ele>
        <time>2014-06-13T10:03:43Z</time>
      </trkpt>
      <trkpt lat="42.416517985984683" lon="2.209054017439485">
        <ele>2740.65234375</ele>
        <time>2014-06-13T10:03:51Z</time>
      </trkpt>
      <trkpt lat="42.416566014289856" lon="2.209042031317949">
        <ele>2738.92578125</ele>
        <time>2014-06-13T10:04:07Z</time>
      </trkpt>
      <trkpt lat="42.416632985696197" lon="2.209021998569369">
        <ele>2736.69921875</ele>
        <time>2014-06-13T10:04:08Z</time>
      </trkpt>
      <trkpt lat="42.416743040084839" lon="2.208954021334648">
        <ele>2734.63671875</ele>
        <time>2014-06-13T10:04:14Z</time>
      </trkpt>
      <trkpt lat="42.416841024532914" lon="2.208905993029475">
        <ele>2732.65234375</ele>
        <time>2014-06-13T10:04:29Z</time>
      </trkpt>
      <trkpt lat="42.41685401648283" lon="2.208897024393082">
        <ele>2732.5078125</ele>
        <time>2014-06-13T10:04:31Z</time>
      </trkpt>
      <trkpt lat="42.416969016194344" lon="2.208812031894922">
        <ele>2731.57421875</ele>
        <time>2014-06-13T10:04:35Z</time>
      </trkpt>
      <trkpt lat="42.417036993429065" lon="2.208793004974723">
        <ele>2729.765625</ele>
        <time>2014-06-13T10:04:42Z</time>
      </trkpt>
      <trkpt lat="42.41706901229918" lon="2.208799039945006">
        <ele>2728.265625</ele>
        <time>2014-06-13T10:04:54Z</time>
      </trkpt>
      <trkpt lat="42.417147969827056" lon="2.208770038560033">
        <ele>2726.86328125</ele>
        <time>2014-06-13T10:05:08Z</time>
      </trkpt>
      <trkpt lat="42.417316026985645" lon="2.208774983882904">
        <ele>2722.2109375</ele>
        <time>2014-06-13T10:05:21Z</time>
      </trkpt>
      <trkpt lat="42.417408982291818" lon="2.208796022459865">
        <ele>2718.8671875</ele>
        <time>2014-06-13T10:05:25Z</time>
      </trkpt>
      <trkpt lat="42.417438989505172" lon="2.208804991096258">
        <ele>2717.69921875</ele>
        <time>2014-06-13T10:05:28Z</time>
      </trkpt>
      <trkpt lat="42.417553989216685" lon="2.208822006359696">
        <ele>2714.4375</ele>
        <time>2014-06-13T10:05:38Z</time>
      </trkpt>
      <trkpt lat="42.417629007250071" lon="2.208845978602767">
        <ele>2712.02734375</ele>
        <time>2014-06-13T10:05:43Z</time>
      </trkpt>
      <trkpt lat="42.417732020840049" lon="2.208901969715953">
        <ele>2707.8515625</ele>
        <time>2014-06-13T10:05:55Z</time>
      </trkpt>
      <trkpt lat="42.417739983648062" lon="2.208941029384732">
        <ele>2706.15234375</ele>
        <time>2014-06-13T10:06:09Z</time>
      </trkpt>
      <trkpt lat="42.417825981974602" lon="2.209008000791073">
        <ele>2701.9921875</ele>
        <time>2014-06-13T10:06:21Z</time>
      </trkpt>
      <trkpt lat="42.417881973087788" lon="2.209037002176046">
        <ele>2700.25</ele>
        <time>2014-06-13T10:06:23Z</time>
      </trkpt>
      <trkpt lat="42.417980963364244" lon="2.209056029096246">
        <ele>2699.17578125</ele>
        <time>2014-06-13T10:06:32Z</time>
      </trkpt>
      <trkpt lat="42.41805799305439" lon="2.209046976640821">
        <ele>2699.171875</ele>
        <time>2014-06-13T10:06:45Z</time>
      </trkpt>
      <trkpt lat="42.418088000267744" lon="2.209074972197413">
        <ele>2698.06640625</ele>
        <time>2014-06-13T10:06:47Z</time>
      </trkpt>
      <trkpt lat="42.418136028572917" lon="2.2090860363096">
        <ele>2697.47265625</ele>
        <time>2014-06-13T10:06:51Z</time>
      </trkpt>
      <trkpt lat="42.418198976665735" lon="2.209162982180715">
        <ele>2694.484375</ele>
        <time>2014-06-13T10:07:08Z</time>
      </trkpt>
      <trkpt lat="42.418300984427333" lon="2.209246968850493">
        <ele>2692.7421875</ele>
        <time>2014-06-13T10:07:15Z</time>
      </trkpt>
      <trkpt lat="42.418339960277081" lon="2.209304971620441">
        <ele>2691.5703125</ele>
        <time>2014-06-13T10:07:19Z</time>
      </trkpt>
      <trkpt lat="42.418385976925492" lon="2.209498006850481">
        <ele>2687.234375</ele>
        <time>2014-06-13T10:07:35Z</time>
      </trkpt>
      <trkpt lat="42.418415984138846" lon="2.209588028490543">
        <ele>2685.765625</ele>
        <time>2014-06-13T10:07:43Z</time>
      </trkpt>
      <trkpt lat="42.418406009674072" lon="2.209663968533278">
        <ele>2683.78125</ele>
        <time>2014-06-13T10:07:47Z</time>
      </trkpt>
      <trkpt lat="42.418410032987595" lon="2.209675032645464">
        <ele>2683.6015625</ele>
        <time>2014-06-13T10:07:53Z</time>
      </trkpt>
      <trkpt lat="42.418412966653705" lon="2.209721971303225">
        <ele>2682.5625</ele>
        <time>2014-06-13T10:07:54Z</time>
      </trkpt>
      <trkpt lat="42.418408021330833" lon="2.20979698933661">
        <ele>2680.8515625</ele>
        <time>2014-06-13T10:08:05Z</time>
      </trkpt>
      <trkpt lat="42.418373990803957" lon="2.209834959357977">
        <ele>2679.46875</ele>
        <time>2014-06-13T10:08:15Z</time>
      </trkpt>
      <trkpt lat="42.418338032439351" lon="2.209881981834769">
        <ele>2677.8984375</ele>
        <time>2014-06-13T10:08:21Z</time>
      </trkpt>
      <trkpt lat="42.418345995247364" lon="2.210006034001708">
        <ele>2675.73828125</ele>
        <time>2014-06-13T10:08:23Z</time>
      </trkpt>
      <trkpt lat="42.418320011347532" lon="2.210070993751288">
        <ele>2674.05078125</ele>
        <time>2014-06-13T10:08:36Z</time>
      </trkpt>
      <trkpt lat="42.418269971385598" lon="2.21016101539135">
        <ele>2671.52734375</ele>
        <time>2014-06-13T10:08:47Z</time>
      </trkpt>
      <trkpt lat="42.418140973895788" lon="2.210416998714209">
        <ele>2665.453125</ele>
        <time>2014-06-13T10:09:01Z</time>
      </trkpt>
      <trkpt lat="42.418135022744536" lon="2.210426973178983">
        <ele>2665.22265625</ele>
        <time>2014-06-13T10:09:13Z</time>
      </trkpt>
      <trkpt lat="42.418113984167576" lon="2.210514983162284">
        <ele>2663.58984375</ele>
        <time>2014-06-13T10:09:26Z</time>
      </trkpt>
      <trkpt lat="42.418048018589616" lon="2.210744982585311">
        <ele>2660.671875</ele>
        <time>2014-06-13T10:09:41Z</time>
      </trkpt>
      <trkpt lat="42.418032009154558" lon="2.210771972313523">
        <ele>2660.19140625</ele>
        <time>2014-06-13T10:09:47Z</time>
      </trkpt>
      <trkpt lat="42.418008036911488" lon="2.210831986740232">
        <ele>2659.24609375</ele>
        <time>2014-06-13T10:10:00Z</time>
      </trkpt>
      <trkpt lat="42.417970988899469" lon="2.210966013371944">
        <ele>2657.45703125</ele>
        <time>2014-06-13T10:10:05Z</time>
      </trkpt>
      <trkpt lat="42.417908040806651" lon="2.211175980046392">
        <ele>2654.359375</ele>
        <time>2014-06-13T10:10:16Z</time>
      </trkpt>
      <trkpt lat="42.417860012501478" lon="2.21136499196291">
        <ele>2651.5703125</ele>
        <time>2014-06-13T10:10:42Z</time>
      </trkpt>
      <trkpt lat="42.417789017781615" lon="2.211571019142866">
        <ele>2648.48046875</ele>
        <time>2014-06-13T10:10:49Z</time>
      </trkpt>
      <trkpt lat="42.417753981426358" lon="2.211617035791278">
        <ele>2647.3671875</ele>
        <time>2014-06-13T10:11:04Z</time>
      </trkpt>
      <trkpt lat="42.417723974213004" lon="2.211659029126167">
        <ele>2646.66796875</ele>
        <time>2014-06-13T10:11:18Z</time>
      </trkpt>
      <trkpt lat="42.417638981714845" lon="2.211775034666061">
        <ele>2644.58203125</ele>
        <time>2014-06-13T10:11:20Z</time>
      </trkpt>
      <trkpt lat="42.417618026956916" lon="2.211854998022318">
        <ele>2643.8046875</ele>
        <time>2014-06-13T10:11:25Z</time>
      </trkpt>
      <trkpt lat="42.417543008923531" lon="2.212059013545513">
        <ele>2641.25</ele>
        <time>2014-06-13T10:11:27Z</time>
      </trkpt>
      <trkpt lat="42.417504033073783" lon="2.212235033512116">
        <ele>2639.546875</ele>
        <time>2014-06-13T10:11:40Z</time>
      </trkpt>
      <trkpt lat="42.417428009212017" lon="2.212399989366531">
        <ele>2637.4453125</ele>
        <time>2014-06-13T10:11:58Z</time>
      </trkpt>
      <trkpt lat="42.417416023090482" lon="2.212433014065027">
        <ele>2636.9296875</ele>
        <time>2014-06-13T10:12:10Z</time>
      </trkpt>
      <trkpt lat="42.417363971471786" lon="2.212592018768191">
        <ele>2634.171875</ele>
        <time>2014-06-13T10:12:15Z</time>
      </trkpt>
      <trkpt lat="42.417334970086813" lon="2.21278103068471">
        <ele>2631.2734375</ele>
        <time>2014-06-13T10:12:29Z</time>
      </trkpt>
      <trkpt lat="42.4173270072788" lon="2.212820006534457">
        <ele>2630.73046875</ele>
        <time>2014-06-13T10:12:55Z</time>
      </trkpt>
      <trkpt lat="42.417301023378968" lon="2.212873985990882">
        <ele>2629.57421875</ele>
        <time>2014-06-13T10:12:56Z</time>
      </trkpt>
      <trkpt lat="42.417273027822375" lon="2.213152013719082">
        <ele>2626.3671875</ele>
        <time>2014-06-13T10:13:09Z</time>
      </trkpt>
      <trkpt lat="42.417257018387318" lon="2.21327799372375">
        <ele>2625.015625</ele>
        <time>2014-06-13T10:13:21Z</time>
      </trkpt>
      <trkpt lat="42.417260035872459" lon="2.213356029242277">
        <ele>2624.53515625</ele>
        <time>2014-06-13T10:13:24Z</time>
      </trkpt>
      <trkpt lat="42.417257018387318" lon="2.213625004515052">
        <ele>2623.07421875</ele>
        <time>2014-06-13T10:13:40Z</time>
      </trkpt>
      <trkpt lat="42.417218964546919" lon="2.213746961206198">
        <ele>2621.90625</ele>
        <time>2014-06-13T10:13:53Z</time>
      </trkpt>
      <trkpt lat="42.417205972597003" lon="2.213797001168132">
        <ele>2621.54296875</ele>
        <time>2014-06-13T10:14:04Z</time>
      </trkpt>
      <trkpt lat="42.417173031717539" lon="2.213832037523389">
        <ele>2620.9140625</ele>
        <time>2014-06-13T10:14:17Z</time>
      </trkpt>
      <trkpt lat="42.417169008404016" lon="2.213843017816544">
        <ele>2620.78125</ele>
        <time>2014-06-13T10:14:19Z</time>
      </trkpt>
      <trkpt lat="42.417151993140578" lon="2.214001016691327">
        <ele>2619.0234375</ele>
        <time>2014-06-13T10:14:23Z</time>
      </trkpt>
      <trkpt lat="42.417118968442082" lon="2.214129008352757">
        <ele>2617.3671875</ele>
        <time>2014-06-13T10:14:35Z</time>
      </trkpt>
      <trkpt lat="42.417100025340915" lon="2.214238978922367">
        <ele>2616.27734375</ele>
        <time>2014-06-13T10:14:36Z</time>
      </trkpt>
      <trkpt lat="42.417089967057109" lon="2.214270997792482">
        <ele>2615.8671875</ele>
        <time>2014-06-13T10:14:44Z</time>
      </trkpt>
      <trkpt lat="42.417086027562618" lon="2.214479958638549">
        <ele>2612.8828125</ele>
        <time>2014-06-13T10:14:56Z</time>
      </trkpt>
      <trkpt lat="42.417101031169295" lon="2.214656984433532">
        <ele>2609.6796875</ele>
        <time>2014-06-13T10:14:59Z</time>
      </trkpt>
      <trkpt lat="42.417102959007025" lon="2.214901987463236">
        <ele>2604.5859375</ele>
        <time>2014-06-13T10:15:10Z</time>
      </trkpt>
      <trkpt lat="42.417150987312198" lon="2.215097034350038">
        <ele>2601.734375</ele>
        <time>2014-06-13T10:15:22Z</time>
      </trkpt>
      <trkpt lat="42.417190968990326" lon="2.215299038216472">
        <ele>2599.10546875</ele>
        <time>2014-06-13T10:15:33Z</time>
      </trkpt>
      <trkpt lat="42.417223993688822" lon="2.215529037639499">
        <ele>2597.61328125</ele>
        <time>2014-06-13T10:15:46Z</time>
      </trkpt>
      <trkpt lat="42.417230028659105" lon="2.215615035966039">
        <ele>2597.0859375</ele>
        <time>2014-06-13T10:15:59Z</time>
      </trkpt>
      <trkpt lat="42.41724100895226" lon="2.215813016518951">
        <ele>2595.359375</ele>
        <time>2014-06-13T10:16:11Z</time>
      </trkpt>
      <trkpt lat="42.417214019224048" lon="2.215892979875207">
        <ele>2594.3515625</ele>
        <time>2014-06-13T10:16:24Z</time>
      </trkpt>
      <trkpt lat="42.417143024504185" lon="2.215980989858508">
        <ele>2592.671875</ele>
        <time>2014-06-13T10:16:36Z</time>
      </trkpt>
      <trkpt lat="42.417074041441083" lon="2.216218030080199">
        <ele>2588.55859375</ele>
        <time>2014-06-13T10:16:53Z</time>
      </trkpt>
      <trkpt lat="42.41709197871387" lon="2.216315008699894">
        <ele>2587.28515625</ele>
        <time>2014-06-13T10:16:59Z</time>
      </trkpt>
      <trkpt lat="42.417137995362282" lon="2.216593958437443">
        <ele>2583.94140625</ele>
        <time>2014-06-13T10:17:13Z</time>
      </trkpt>
      <trkpt lat="42.417121985927224" lon="2.216829992830753">
        <ele>2580.71484375</ele>
        <time>2014-06-13T10:17:26Z</time>
      </trkpt>
      <trkpt lat="42.417111005634069" lon="2.216857988387346">
        <ele>2580.5859375</ele>
        <time>2014-06-13T10:17:38Z</time>
      </trkpt>
      <trkpt lat="42.417085021734238" lon="2.216938035562635">
        <ele>2580.4296875</ele>
        <time>2014-06-13T10:17:41Z</time>
      </trkpt>
      <trkpt lat="42.41706901229918" lon="2.216980028897524">
        <ele>2580.3515625</ele>
        <time>2014-06-13T10:17:55Z</time>
      </trkpt>
      <trkpt lat="42.417000029236078" lon="2.217174991965294">
        <ele>2580.0703125</ele>
        <time>2014-06-13T10:18:08Z</time>
      </trkpt>
      <trkpt lat="42.41691998206079" lon="2.217458970844746">
        <ele>2579.30859375</ele>
        <time>2014-06-13T10:18:09Z</time>
      </trkpt>
      <trkpt lat="42.416917970404029" lon="2.217499958351255">
        <ele>2579.19140625</ele>
        <time>2014-06-13T10:18:15Z</time>
      </trkpt>
      <trkpt lat="42.416905984282494" lon="2.217562990263104">
        <ele>2578.828125</ele>
        <time>2014-06-13T10:18:29Z</time>
      </trkpt>
      <trkpt lat="42.416904978454113" lon="2.217600038275123">
        <ele>2578.5234375</ele>
        <time>2014-06-13T10:18:39Z</time>
      </trkpt>
      <trkpt lat="42.416904978454113" lon="2.217600038275123">
        <ele>2578.5234375</ele>
        <time>2014-06-13T10:18:54Z</time>
      </trkpt>
      <trkpt lat="42.416904978454113" lon="2.217600038275123">
        <ele>2578.5234375</ele>
        <time>2014-06-13T10:19:06Z</time>
      </trkpt>
      <trkpt lat="42.416886035352945" lon="2.21776801161468">
        <ele>2576.91015625</ele>
        <time>2014-06-13T10:19:19Z</time>
      </trkpt>
      <trkpt lat="42.416864996775985" lon="2.217933973297477">
        <ele>2575.2109375</ele>
        <time>2014-06-13T10:19:27Z</time>
      </trkpt>
      <trkpt lat="42.416848987340927" lon="2.217969009652734">
        <ele>2574.82421875</ele>
        <time>2014-06-13T10:19:40Z</time>
      </trkpt>
      <trkpt lat="42.416806994006038" lon="2.218166990205646">
        <ele>2573.62109375</ele>
        <time>2014-06-13T10:19:42Z</time>
      </trkpt>
      <trkpt lat="42.416791990399361" lon="2.218352984637022">
        <ele>2572.671875</ele>
        <time>2014-06-13T10:19:48Z</time>
      </trkpt>
      <trkpt lat="42.416757037863135" lon="2.218511989340186">
        <ele>2571.2265625</ele>
        <time>2014-06-13T10:19:59Z</time>
      </trkpt>
      <trkpt lat="42.416699035093188" lon="2.218697983771563">
        <ele>2568.73828125</ele>
        <time>2014-06-13T10:20:12Z</time>
      </trkpt>
      <trkpt lat="42.416695011779666" lon="2.21873302012682">
        <ele>2568.23046875</ele>
        <time>2014-06-13T10:20:24Z</time>
      </trkpt>
      <trkpt lat="42.416671039536595" lon="2.218773001804948">
        <ele>2567.30859375</ele>
        <time>2014-06-13T10:20:36Z</time>
      </trkpt>
      <trkpt lat="42.416640026494861" lon="2.218904010951519">
        <ele>2565.25</ele>
        <time>2014-06-13T10:20:40Z</time>
      </trkpt>
      <trkpt lat="42.41663902066648" lon="2.218918008729816">
        <ele>2565.07421875</ele>
        <time>2014-06-13T10:20:53Z</time>
      </trkpt>
      <trkpt lat="42.416641032323241" lon="2.219008030369878">
        <ele>2564.0703125</ele>
        <time>2014-06-13T10:21:12Z</time>
      </trkpt>
      <trkpt lat="42.416630974039435" lon="2.219125963747501">
        <ele>2562.38671875</ele>
        <time>2014-06-13T10:21:24Z</time>
      </trkpt>
      <trkpt lat="42.416638014838099" lon="2.219153037294745">
        <ele>2562.12109375</ele>
        <time>2014-06-13T10:21:31Z</time>
      </trkpt>
      <trkpt lat="42.416630974039435" lon="2.21922998316586">
        <ele>2561.01171875</ele>
        <time>2014-06-13T10:21:42Z</time>
      </trkpt>
      <trkpt lat="42.416594009846449" lon="2.219320004805923">
        <ele>2559.37890625</ele>
        <time>2014-06-13T10:21:52Z</time>
      </trkpt>
      <trkpt lat="42.416556039825082" lon="2.219470040872693">
        <ele>2556.94921875</ele>
        <time>2014-06-13T10:22:01Z</time>
      </trkpt>
      <trkpt lat="42.416513040661812" lon="2.219675984233618">
        <ele>2553.75</ele>
        <time>2014-06-13T10:22:14Z</time>
      </trkpt>
      <trkpt lat="42.416496025398374" lon="2.219854015856981">
        <ele>2550.95703125</ele>
        <time>2014-06-13T10:22:26Z</time>
      </trkpt>
      <trkpt lat="42.416468029841781" lon="2.220020983368158">
        <ele>2548.03515625</ele>
        <time>2014-06-13T10:22:39Z</time>
      </trkpt>
      <trkpt lat="42.416473980993032" lon="2.220170013606548">
        <ele>2545.94140625</ele>
        <time>2014-06-13T10:22:52Z</time>
      </trkpt>
      <trkpt lat="42.416450008749962" lon="2.220276966691017">
        <ele>2544.734375</ele>
        <time>2014-06-13T10:23:05Z</time>
      </trkpt>
      <trkpt lat="42.416441962122917" lon="2.220491962507367">
        <ele>2542.6171875</ele>
        <time>2014-06-13T10:23:11Z</time>
      </trkpt>
      <trkpt lat="42.416439028456807" lon="2.220569998025894">
        <ele>2541.84765625</ele>
        <time>2014-06-13T10:23:23Z</time>
      </trkpt>
      <trkpt lat="42.416411032900214" lon="2.220763033255935">
        <ele>2539.9375</ele>
        <time>2014-06-13T10:23:26Z</time>
      </trkpt>
      <trkpt lat="42.416417989879847" lon="2.220937041565776">
        <ele>2537.51953125</ele>
        <time>2014-06-13T10:23:33Z</time>
      </trkpt>
      <trkpt lat="42.416428970173001" lon="2.221048017963767">
        <ele>2535.2265625</ele>
        <time>2014-06-13T10:23:47Z</time>
      </trkpt>
      <trkpt lat="42.416437016800046" lon="2.221091017127037">
        <ele>2534.359375</ele>
        <time>2014-06-13T10:23:59Z</time>
      </trkpt>
      <trkpt lat="42.416483033448458" lon="2.221257984638214">
        <ele>2531.1875</ele>
        <time>2014-06-13T10:24:04Z</time>
      </trkpt>
      <trkpt lat="42.416513040661812" lon="2.221410032361746">
        <ele>2528.58203125</ele>
        <time>2014-06-13T10:24:12Z</time>
      </trkpt>
      <trkpt lat="42.416512034833431" lon="2.221422018483281">
        <ele>2528.359375</ele>
        <time>2014-06-13T10:24:23Z</time>
      </trkpt>
      <trkpt lat="42.416514968499541" lon="2.221483960747719">
        <ele>2527.25390625</ele>
        <time>2014-06-13T10:24:35Z</time>
      </trkpt>
      <trkpt lat="42.416562996804714" lon="2.221653023734689">
        <ele>2524.4296875</ele>
        <time>2014-06-13T10:24:38Z</time>
      </trkpt>
      <trkpt lat="42.416565008461475" lon="2.221682025119662">
        <ele>2523.91015625</ele>
        <time>2014-06-13T10:24:52Z</time>
      </trkpt>
      <trkpt lat="42.416620999574661" lon="2.221771040931344">
        <ele>2522.4921875</ele>
        <time>2014-06-13T10:25:04Z</time>
      </trkpt>
      <trkpt lat="42.416697023436427" lon="2.221869025379419">
        <ele>2520.8671875</ele>
        <time>2014-06-13T10:25:09Z</time>
      </trkpt>
      <trkpt lat="42.416717978194356" lon="2.221881011500955">
        <ele>2520.69140625</ele>
        <time>2014-06-13T10:25:21Z</time>
      </trkpt>
      <trkpt lat="42.416757959872484" lon="2.221942031756043">
        <ele>2519.71484375</ele>
        <time>2014-06-13T10:25:32Z</time>
      </trkpt>
      <trkpt lat="42.416853010654449" lon="2.222003974020481">
        <ele>2519.9921875</ele>
        <time>2014-06-13T10:25:45Z</time>
      </trkpt>
      <trkpt lat="42.416860973462462" lon="2.222013026475906">
        <ele>2519.9140625</ele>
        <time>2014-06-13T10:25:50Z</time>
      </trkpt>
      <trkpt lat="42.416901038959622" lon="2.222058037295938">
        <ele>2519.51953125</ele>
        <time>2014-06-13T10:26:04Z</time>
      </trkpt>
      <trkpt lat="42.416959963738918" lon="2.222122997045517">
        <ele>2518.89453125</ele>
        <time>2014-06-13T10:26:17Z</time>
      </trkpt>
      <trkpt lat="42.416965998709202" lon="2.222215030342341">
        <ele>2516.79296875</ele>
        <time>2014-06-13T10:26:29Z</time>
      </trkpt>
      <trkpt lat="42.416912019252777" lon="2.222304968163371">
        <ele>2513.953125</ele>
        <time>2014-06-13T10:26:39Z</time>
      </trkpt>
      <trkpt lat="42.416866002604365" lon="2.222357019782066">
        <ele>2512.17578125</ele>
        <time>2014-06-13T10:26:50Z</time>
      </trkpt>
      <trkpt lat="42.416858961805701" lon="2.222380992025137">
        <ele>2511.53515625</ele>
        <time>2014-06-13T10:27:02Z</time>
      </trkpt>
      <trkpt lat="42.416847981512547" lon="2.222464978694916">
        <ele>2509.4765625</ele>
        <time>2014-06-13T10:27:20Z</time>
      </trkpt>
      <trkpt lat="42.416849993169308" lon="2.222532033920288">
        <ele>2507.95703125</ele>
        <time>2014-06-13T10:27:30Z</time>
      </trkpt>
      <trkpt lat="42.41685401648283" lon="2.222662959247828">
        <ele>2504.9765625</ele>
        <time>2014-06-13T10:27:39Z</time>
      </trkpt>
      <trkpt lat="42.416878994554281" lon="2.222726996988058">
        <ele>2503.66015625</ele>
        <time>2014-06-13T10:27:41Z</time>
      </trkpt>
      <trkpt lat="42.416905984282494" lon="2.222809977829456">
        <ele>2501.828125</ele>
        <time>2014-06-13T10:27:55Z</time>
      </trkpt>
      <trkpt lat="42.416934985667467" lon="2.222904022783041">
        <ele>2499.64453125</ele>
        <time>2014-06-13T10:28:08Z</time>
      </trkpt>
      <trkpt lat="42.416964992880821" lon="2.223001001402736">
        <ele>2497.29296875</ele>
        <time>2014-06-13T10:28:09Z</time>
      </trkpt>
      <trkpt lat="42.417017966508865" lon="2.223052969202399">
        <ele>2496.015625</ele>
        <time>2014-06-13T10:28:13Z</time>
      </trkpt>
      <trkpt lat="42.417072029784322" lon="2.223123963922262">
        <ele>2494.23828125</ele>
        <time>2014-06-13T10:28:19Z</time>
      </trkpt>
      <trkpt lat="42.417149981483817" lon="2.223214991390705">
        <ele>2491.8203125</ele>
        <time>2014-06-13T10:28:30Z</time>
      </trkpt>
      <trkpt lat="42.417154004797339" lon="2.223238041624427">
        <ele>2491.234375</ele>
        <time>2014-06-13T10:28:36Z</time>
      </trkpt>
      <trkpt lat="42.417146963998675" lon="2.223421018570662">
        <ele>2486.76953125</ele>
        <time>2014-06-13T10:28:48Z</time>
      </trkpt>
      <trkpt lat="42.417179988697171" lon="2.223444990813732">
        <ele>2486.0703125</ele>
        <time>2014-06-13T10:29:01Z</time>
      </trkpt>
      <trkpt lat="42.417273027822375" lon="2.223449014127255">
        <ele>2485.66015625</ele>
        <time>2014-06-13T10:29:10Z</time>
      </trkpt>
      <trkpt lat="42.417308986186981" lon="2.223453037440777">
        <ele>2485.44140625</ele>
        <time>2014-06-13T10:29:21Z</time>
      </trkpt>
      <trkpt lat="42.417381992563605" lon="2.223443984985352">
        <ele>2485.4140625</ele>
        <time>2014-06-13T10:29:29Z</time>
      </trkpt>
      <trkpt lat="42.417516019195318" lon="2.223401991650462">
        <ele>2485.66796875</ele>
        <time>2014-06-13T10:29:43Z</time>
      </trkpt>
      <trkpt lat="42.417620960623026" lon="2.223378019407392">
        <ele>2484.78515625</ele>
        <time>2014-06-13T10:29:52Z</time>
      </trkpt>
      <trkpt lat="42.417617021128535" lon="2.223380031064153">
        <ele>2484.80078125</ele>
        <time>2014-06-13T10:30:05Z</time>
      </trkpt>
      <trkpt lat="42.417684998363256" lon="2.223338959738612">
        <ele>2484.6328125</ele>
        <time>2014-06-13T10:30:07Z</time>
      </trkpt>
      <trkpt lat="42.4177569989115" lon="2.223253967240453">
        <ele>2484.98828125</ele>
        <time>2014-06-13T10:30:21Z</time>
      </trkpt>
      <trkpt lat="42.417824976146221" lon="2.223190013319254">
        <ele>2484.8125</ele>
        <time>2014-06-13T10:30:34Z</time>
      </trkpt>
      <trkpt lat="42.417847020551562" lon="2.223194958642125">
        <ele>2484.33984375</ele>
        <time>2014-06-13T10:30:39Z</time>
      </trkpt>
      <trkpt lat="42.417909968644381" lon="2.223238041624427">
        <ele>2483.5078125</ele>
        <time>2014-06-13T10:30:52Z</time>
      </trkpt>
      <trkpt lat="42.417945004999638" lon="2.223318004980683">
        <ele>2482.36328125</ele>
        <time>2014-06-13T10:30:56Z</time>
      </trkpt>
      <trkpt lat="42.417963026091456" lon="2.22335496917367">
        <ele>2481.828125</ele>
        <time>2014-06-13T10:31:04Z</time>
      </trkpt>
      <trkpt lat="42.417996972799301" lon="2.223404003307223">
        <ele>2481.10546875</ele>
        <time>2014-06-13T10:31:17Z</time>
      </trkpt>
      <trkpt lat="42.417993033304811" lon="2.223437028005719">
        <ele>2480.63671875</ele>
        <time>2014-06-13T10:31:20Z</time>
      </trkpt>
      <trkpt lat="42.41801499389112" lon="2.223507016897202">
        <ele>2479.4296875</ele>
        <time>2014-06-13T10:31:32Z</time>
      </trkpt>
      <trkpt lat="42.418068973347545" lon="2.223511040210724">
        <ele>2479.32421875</ele>
        <time>2014-06-13T10:31:44Z</time>
      </trkpt>
      <trkpt lat="42.418140973895788" lon="2.223525959998369">
        <ele>2479.01953125</ele>
        <time>2014-06-13T10:31:47Z</time>
      </trkpt>
      <trkpt lat="42.418124964460731" lon="2.223603995516896">
        <ele>2477.640625</ele>
        <time>2014-06-13T10:31:54Z</time>
      </trkpt>
      <trkpt lat="42.418093029409647" lon="2.223669961094856">
        <ele>2476.46875</ele>
        <time>2014-06-13T10:32:06Z</time>
      </trkpt>
      <trkpt lat="42.418084982782602" lon="2.223695022985339">
        <ele>2476.015625</ele>
        <time>2014-06-13T10:32:19Z</time>
      </trkpt>
      <trkpt lat="42.41808095946908" lon="2.223789989948273">
        <ele>2474.3125</ele>
        <time>2014-06-13T10:32:24Z</time>
      </trkpt>
      <trkpt lat="42.418068973347545" lon="2.223851010203362">
        <ele>2473.10546875</ele>
        <time>2014-06-13T10:32:30Z</time>
      </trkpt>
      <trkpt lat="42.418070985004306" lon="2.223854027688503">
        <ele>2473.0390625</ele>
        <time>2014-06-13T10:32:43Z</time>
      </trkpt>
      <trkpt lat="42.418099986389279" lon="2.223942959681153">
        <ele>2471.0625</ele>
        <time>2014-06-13T10:32:50Z</time>
      </trkpt>
      <trkpt lat="42.418167963624001" lon="2.224029041826725">
        <ele>2469.296875</ele>
        <time>2014-06-13T10:33:00Z</time>
      </trkpt>
      <trkpt lat="42.41816402412951" lon="2.224047984927893">
        <ele>2468.8671875</ele>
        <time>2014-06-13T10:33:05Z</time>
      </trkpt>
      <trkpt lat="42.418189002200961" lon="2.224218975752592">
        <ele>2465.48046875</ele>
        <time>2014-06-13T10:33:07Z</time>
      </trkpt>
      <trkpt lat="42.4181869905442" lon="2.224376974627376">
        <ele>2464.2890625</ele>
        <time>2014-06-13T10:33:11Z</time>
      </trkpt>
      <trkpt lat="42.4181869905442" lon="2.224376974627376">
        <ele>2464.2890625</ele>
        <time>2014-06-13T10:34:42Z</time>
      </trkpt>
      <trkpt lat="42.418197970837355" lon="2.224433971568942">
        <ele>2463.91015625</ele>
        <time>2014-06-13T10:34:53Z</time>
      </trkpt>
      <trkpt lat="42.4181869905442" lon="2.224519969895482">
        <ele>2463.21484375</ele>
        <time>2014-06-13T10:35:04Z</time>
      </trkpt>
      <trkpt lat="42.418193025514483" lon="2.224674029275775">
        <ele>2461.828125</ele>
        <time>2014-06-13T10:35:16Z</time>
      </trkpt>
      <trkpt lat="42.418178021907806" lon="2.224765978753567">
        <ele>2460.81640625</ele>
        <time>2014-06-13T10:35:27Z</time>
      </trkpt>
      <trkpt lat="42.418185984715819" lon="2.224935041740537">
        <ele>2459.16015625</ele>
        <time>2014-06-13T10:35:37Z</time>
      </trkpt>
      <trkpt lat="42.418177016079426" lon="2.225003018975258">
        <ele>2457.94921875</ele>
        <time>2014-06-13T10:35:48Z</time>
      </trkpt>
      <trkpt lat="42.418193025514483" lon="2.225018022581935">
        <ele>2457.80078125</ele>
        <time>2014-06-13T10:36:03Z</time>
      </trkpt>
      <trkpt lat="42.41822998970747" lon="2.225085999816656">
        <ele>2456.87890625</ele>
        <time>2014-06-13T10:36:11Z</time>
      </trkpt>
      <trkpt lat="42.418222026899457" lon="2.225150037556887">
        <ele>2455.7109375</ele>
        <time>2014-06-13T10:36:14Z</time>
      </trkpt>
      <trkpt lat="42.41822998970747" lon="2.225270988419652">
        <ele>2453.6796875</ele>
        <time>2014-06-13T10:36:18Z</time>
      </trkpt>
      <trkpt lat="42.418259996920824" lon="2.225346006453037">
        <ele>2452.4765625</ele>
        <time>2014-06-13T10:36:30Z</time>
      </trkpt>
      <trkpt lat="42.418354041874409" lon="2.225419012829661">
        <ele>2451.45703125</ele>
        <time>2014-06-13T10:36:39Z</time>
      </trkpt>
      <trkpt lat="42.418367033824325" lon="2.2254360280931">
        <ele>2451.1484375</ele>
        <time>2014-06-13T10:36:43Z</time>
      </trkpt>
      <trkpt lat="42.418439034372568" lon="2.225594026967883">
        <ele>2447.84375</ele>
        <time>2014-06-13T10:36:45Z</time>
      </trkpt>
      <trkpt lat="42.418448003008962" lon="2.225755965337157">
        <ele>2444.4140625</ele>
        <time>2014-06-13T10:36:49Z</time>
      </trkpt>
      <trkpt lat="42.418475998565555" lon="2.225794019177556">
        <ele>2443.73046875</ele>
        <time>2014-06-13T10:37:02Z</time>
      </trkpt>
      <trkpt lat="42.41857398301363" lon="2.225834000855684">
        <ele>2443.15625</ele>
        <time>2014-06-13T10:37:09Z</time>
      </trkpt>
      <trkpt lat="42.418577000498772" lon="2.225863002240658">
        <ele>2442.62890625</ele>
        <time>2014-06-13T10:37:20Z</time>
      </trkpt>
      <trkpt lat="42.418600972741842" lon="2.225950006395578">
        <ele>2441.12890625</ele>
        <time>2014-06-13T10:37:31Z</time>
      </trkpt>
      <trkpt lat="42.418656963855028" lon="2.225988982245326">
        <ele>2441.31640625</ele>
        <time>2014-06-13T10:37:36Z</time>
      </trkpt>
      <trkpt lat="42.418658975511789" lon="2.226022006943822">
        <ele>2440.73828125</ele>
        <time>2014-06-13T10:37:48Z</time>
      </trkpt>
      <trkpt lat="42.418711027130485" lon="2.226127032190561">
        <ele>2440.32421875</ele>
        <time>2014-06-13T10:39:01Z</time>
      </trkpt>
      <trkpt lat="42.418714966624975" lon="2.226266004145145">
        <ele>2439.1015625</ele>
        <time>2014-06-13T10:39:14Z</time>
      </trkpt>
      <trkpt lat="42.418721001595259" lon="2.226305985823274">
        <ele>2438.8046875</ele>
        <time>2014-06-13T10:39:17Z</time>
      </trkpt>
      <trkpt lat="42.418709015473723" lon="2.226392989978194">
        <ele>2437.87109375</ele>
        <time>2014-06-13T10:39:30Z</time>
      </trkpt>
      <trkpt lat="42.418716978281736" lon="2.226530034095049">
        <ele>2436.2890625</ele>
        <time>2014-06-13T10:39:35Z</time>
      </trkpt>
      <trkpt lat="42.418718989938498" lon="2.226677974686027">
        <ele>2434.40234375</ele>
        <time>2014-06-13T10:39:46Z</time>
      </trkpt>
      <trkpt lat="42.418719995766878" lon="2.226742012426257">
        <ele>2433.5859375</ele>
        <time>2014-06-13T10:39:51Z</time>
      </trkpt>
      <trkpt lat="42.418728964403272" lon="2.226805966347456">
        <ele>2432.8125</ele>
        <time>2014-06-13T10:40:03Z</time>
      </trkpt>
      <trkpt lat="42.418741034343839" lon="2.226980980485678">
        <ele>2430.41015625</ele>
        <time>2014-06-13T10:40:16Z</time>
      </trkpt>
      <trkpt lat="42.418760983273387" lon="2.227077037096024">
        <ele>2429.18359375</ele>
        <time>2014-06-13T10:40:29Z</time>
      </trkpt>
      <trkpt lat="42.41874597966671" lon="2.22722003236413">
        <ele>2426.9921875</ele>
        <time>2014-06-13T10:40:43Z</time>
      </trkpt>
      <trkpt lat="42.418761989101768" lon="2.22726495936513">
        <ele>2426.4453125</ele>
        <time>2014-06-13T10:40:59Z</time>
      </trkpt>
      <trkpt lat="42.41876601241529" lon="2.227297984063625">
        <ele>2425.98828125</ele>
        <time>2014-06-13T10:41:12Z</time>
      </trkpt>
      <trkpt lat="42.418777998536825" lon="2.227330002933741">
        <ele>2425.6015625</ele>
        <time>2014-06-13T10:41:23Z</time>
      </trkpt>
      <trkpt lat="42.418830972164869" lon="2.227386999875307">
        <ele>2425.1484375</ele>
        <time>2014-06-13T10:41:32Z</time>
      </trkpt>
      <trkpt lat="42.418930968269706" lon="2.227360010147095">
        <ele>2426.2890625</ele>
        <time>2014-06-13T10:41:45Z</time>
      </trkpt>
      <trkpt lat="42.419010009616613" lon="2.227388005703688">
        <ele>2427.30078125</ele>
        <time>2014-06-13T10:41:48Z</time>
      </trkpt>
      <trkpt lat="42.419026019051671" lon="2.22745799459517">
        <ele>2426.8046875</ele>
        <time>2014-06-13T10:42:02Z</time>
      </trkpt>
      <trkpt lat="42.418994000181556" lon="2.227550027891994">
        <ele>2424.65625</ele>
        <time>2014-06-13T10:42:08Z</time>
      </trkpt>
      <trkpt lat="42.418990982696414" lon="2.227597972378135">
        <ele>2424.18359375</ele>
        <time>2014-06-13T10:42:16Z</time>
      </trkpt>
      <trkpt lat="42.419013027101755" lon="2.227701991796494">
        <ele>2424.109375</ele>
        <time>2014-06-13T10:42:18Z</time>
      </trkpt>
      <trkpt lat="42.419017972424626" lon="2.227719007059932">
        <ele>2424.15234375</ele>
        <time>2014-06-13T10:42:20Z</time>
      </trkpt>
      <trkpt lat="42.419014032930136" lon="2.227833000943065">
        <ele>2423.15625</ele>
        <time>2014-06-13T10:42:32Z</time>
      </trkpt>
      <trkpt lat="42.419010009616613" lon="2.227872982621193">
        <ele>2422.7109375</ele>
        <time>2014-06-13T10:42:43Z</time>
      </trkpt>
      <trkpt lat="42.419017972424626" lon="2.227913970127702">
        <ele>2422.7265625</ele>
        <time>2014-06-13T10:42:54Z</time>
      </trkpt>
      <trkpt lat="42.419015960767865" lon="2.228066017851234">
        <ele>2421.93359375</ele>
        <time>2014-06-13T10:43:07Z</time>
      </trkpt>
      <trkpt lat="42.41900498047471" lon="2.228169031441212">
        <ele>2420.9765625</ele>
        <time>2014-06-13T10:43:20Z</time>
      </trkpt>
      <trkpt lat="42.419011015444994" lon="2.228222005069256">
        <ele>2420.98046875</ele>
        <time>2014-06-13T10:43:23Z</time>
      </trkpt>
      <trkpt lat="42.41900498047471" lon="2.228247988969088">
        <ele>2420.5859375</ele>
        <time>2014-06-13T10:43:36Z</time>
      </trkpt>
      <trkpt lat="42.418999029323459" lon="2.228300040587783">
        <ele>2420.54296875</ele>
        <time>2014-06-13T10:43:48Z</time>
      </trkpt>
      <trkpt lat="42.418974973261356" lon="2.228460973128676">
        <ele>2421.44140625</ele>
        <time>2014-06-13T10:43:52Z</time>
      </trkpt>
      <trkpt lat="42.418972961604595" lon="2.228542026132345">
        <ele>2422.3515625</ele>
        <time>2014-06-13T10:44:04Z</time>
      </trkpt>
      <trkpt lat="42.418944966048002" lon="2.228647973388434">
        <ele>2422.1484375</ele>
        <time>2014-06-13T10:44:17Z</time>
      </trkpt>
      <trkpt lat="42.418942032381892" lon="2.228748975321651">
        <ele>2423.53515625</ele>
        <time>2014-06-13T10:44:28Z</time>
      </trkpt>
      <trkpt lat="42.418932979926467" lon="2.228804966434836">
        <ele>2423.91796875</ele>
        <time>2014-06-13T10:44:41Z</time>
      </trkpt>
      <trkpt lat="42.418952006846666" lon="2.228910997509956">
        <ele>2426.53125</ele>
        <time>2014-06-13T10:44:53Z</time>
      </trkpt>
      <trkpt lat="42.418901966884732" lon="2.229119036346674">
        <ele>2427.79296875</ele>
        <time>2014-06-13T10:45:14Z</time>
      </trkpt>
      <trkpt lat="42.418800964951515" lon="2.22922096028924">
        <ele>2425.60546875</ele>
        <time>2014-06-13T10:45:27Z</time>
      </trkpt>
      <trkpt lat="42.418779004365206" lon="2.229235963895917">
        <ele>2425.0390625</ele>
        <time>2014-06-13T10:45:38Z</time>
      </trkpt>
      <trkpt lat="42.418694011867046" lon="2.229352975264192">
        <ele>2424.625</ele>
        <time>2014-06-13T10:45:41Z</time>
      </trkpt>
      <trkpt lat="42.418675990775228" lon="2.229403015226126">
        <ele>2424.93359375</ele>
        <time>2014-06-13T10:45:45Z</time>
      </trkpt>
      <trkpt lat="42.418665010482073" lon="2.229505022987723">
        <ele>2425.4453125</ele>
        <time>2014-06-13T10:45:53Z</time>
      </trkpt>
      <trkpt lat="42.418665010482073" lon="2.229553973302245">
        <ele>2425.88671875</ele>
        <time>2014-06-13T10:46:06Z</time>
      </trkpt>
      <trkpt lat="42.418655036017299" lon="2.229677019640803">
        <ele>2426.5546875</ele>
        <time>2014-06-13T10:46:21Z</time>
      </trkpt>
      <trkpt lat="42.418666016310453" lon="2.22979998216033">
        <ele>2428.19140625</ele>
        <time>2014-06-13T10:46:32Z</time>
      </trkpt>
      <trkpt lat="42.418622011318803" lon="2.229877011850476">
        <ele>2426.92578125</ele>
        <time>2014-06-13T10:46:44Z</time>
      </trkpt>
      <trkpt lat="42.418622011318803" lon="2.229877011850476">
        <ele>2426.92578125</ele>
        <time>2014-06-13T10:47:03Z</time>
      </trkpt>
      <trkpt lat="42.418601978570223" lon="2.229980025440455">
        <ele>2427.01953125</ele>
        <time>2014-06-13T10:47:35Z</time>
      </trkpt>
      <trkpt lat="42.418583035469055" lon="2.2301210090518">
        <ele>2427.3515625</ele>
        <time>2014-06-13T10:47:51Z</time>
      </trkpt>
      <trkpt lat="42.418558979406953" lon="2.230214970186353">
        <ele>2427.40625</ele>
        <time>2014-06-13T10:47:53Z</time>
      </trkpt>
      <trkpt lat="42.418539030477405" lon="2.230347990989685">
        <ele>2428.46875</ele>
        <time>2014-06-13T10:47:55Z</time>
      </trkpt>
      <trkpt lat="42.418521009385586" lon="2.230517975986004">
        <ele>2430.3828125</ele>
        <time>2014-06-13T10:48:03Z</time>
      </trkpt>
      <trkpt lat="42.418500976637006" lon="2.230546977370977">
        <ele>2429.94140625</ele>
        <time>2014-06-13T10:48:05Z</time>
      </trkpt>
      <trkpt lat="42.418460994958878" lon="2.230661977082491">
        <ele>2430.015625</ele>
        <time>2014-06-13T10:48:17Z</time>
      </trkpt>
      <trkpt lat="42.418438028544188" lon="2.230710005387664">
        <ele>2429.8203125</ele>
        <time>2014-06-13T10:48:31Z</time>
      </trkpt>
      <trkpt lat="42.418368039652705" lon="2.230783011764288">
        <ele>2428.16015625</ele>
        <time>2014-06-13T10:48:34Z</time>
      </trkpt>
      <trkpt lat="42.418357981368899" lon="2.230803966522217">
        <ele>2428.109375</ele>
        <time>2014-06-13T10:48:37Z</time>
      </trkpt>
      <trkpt lat="42.418343983590603" lon="2.230821987614036">
        <ele>2427.859375</ele>
        <time>2014-06-13T10:48:48Z</time>
      </trkpt>
      <trkpt lat="42.418282041326165" lon="2.230935981497169">
        <ele>2427.54296875</ele>
        <time>2014-06-13T10:48:50Z</time>
      </trkpt>
      <trkpt lat="42.418215991929173" lon="2.231046035885811">
        <ele>2427.28125</ele>
        <time>2014-06-13T10:49:02Z</time>
      </trkpt>
      <trkpt lat="42.418183973059058" lon="2.231162963435054">
        <ele>2428.44921875</ele>
        <time>2014-06-13T10:49:12Z</time>
      </trkpt>
      <trkpt lat="42.418097974732518" lon="2.231294978410006">
        <ele>2427.90234375</ele>
        <time>2014-06-13T10:49:18Z</time>
      </trkpt>
      <trkpt lat="42.418033014982939" lon="2.231383994221687">
        <ele>2427.296875</ele>
        <time>2014-06-13T10:49:30Z</time>
      </trkpt>
      <trkpt lat="42.41801499389112" lon="2.231408972293139">
        <ele>2427.1328125</ele>
        <time>2014-06-13T10:49:42Z</time>
      </trkpt>
      <trkpt lat="42.417953973636031" lon="2.231542998924851">
        <ele>2427.640625</ele>
        <time>2014-06-13T10:49:45Z</time>
      </trkpt>
      <trkpt lat="42.417918015271425" lon="2.231652969494462">
        <ele>2428.20703125</ele>
        <time>2014-06-13T10:49:56Z</time>
      </trkpt>
      <trkpt lat="42.417903011664748" lon="2.231691023334861">
        <ele>2428.18359375</ele>
        <time>2014-06-13T10:50:07Z</time>
      </trkpt>
      <trkpt lat="42.417894965037704" lon="2.231809962540865">
        <ele>2429.59765625</ele>
        <time>2014-06-13T10:50:20Z</time>
      </trkpt>
      <trkpt lat="42.417874010279775" lon="2.231961004436016">
        <ele>2431.2265625</ele>
        <time>2014-06-13T10:50:33Z</time>
      </trkpt>
      <trkpt lat="42.41786302998662" lon="2.232064018025994">
        <ele>2431.58203125</ele>
        <time>2014-06-13T10:50:48Z</time>
      </trkpt>
      <trkpt lat="42.417817013338208" lon="2.232229979708791">
        <ele>2431.125</ele>
        <time>2014-06-13T10:55:56Z</time>
      </trkpt>
      <trkpt lat="42.417806033045053" lon="2.232281025499106">
        <ele>2431.15234375</ele>
        <time>2014-06-13T10:56:07Z</time>
      </trkpt>
      <trkpt lat="42.417804021388292" lon="2.232283959165216">
        <ele>2431.1171875</ele>
        <time>2014-06-13T10:56:19Z</time>
      </trkpt>
      <trkpt lat="42.417804021388292" lon="2.232288988307118">
        <ele>2431.1484375</ele>
        <time>2014-06-13T10:56:31Z</time>
      </trkpt>
      <trkpt lat="42.417812990024686" lon="2.232302986085415">
        <ele>2431.4765625</ele>
        <time>2014-06-13T10:56:44Z</time>
      </trkpt>
      <trkpt lat="42.417807038873434" lon="2.232332993298769">
        <ele>2431.51953125</ele>
        <time>2014-06-13T10:56:55Z</time>
      </trkpt>
      <trkpt lat="42.417780971154571" lon="2.232394013553858">
        <ele>2430.83203125</ele>
        <time>2014-06-13T10:57:07Z</time>
      </trkpt>
      <trkpt lat="42.417768985033035" lon="2.23250599578023">
        <ele>2430.3359375</ele>
        <time>2014-06-13T10:57:17Z</time>
      </trkpt>
      <trkpt lat="42.417770996689796" lon="2.232561986893416">
        <ele>2430.26953125</ele>
        <time>2014-06-13T10:57:28Z</time>
      </trkpt>
      <trkpt lat="42.417774014174938" lon="2.232603980228305">
        <ele>2430.2421875</ele>
        <time>2014-06-13T10:57:41Z</time>
      </trkpt>
      <trkpt lat="42.417754987254739" lon="2.232760973274708">
        <ele>2430.04296875</ele>
        <time>2014-06-13T10:58:11Z</time>
      </trkpt>
      <trkpt lat="42.417731015011668" lon="2.232859963551164">
        <ele>2430.34765625</ele>
        <time>2014-06-13T10:58:24Z</time>
      </trkpt>
      <trkpt lat="42.417731015011668" lon="2.232859963551164">
        <ele>2430.34765625</ele>
        <time>2014-06-13T10:58:32Z</time>
      </trkpt>
      <trkpt lat="42.417729003354907" lon="2.232859041541815">
        <ele>2430.3125</ele>
        <time>2014-06-13T10:58:44Z</time>
      </trkpt>
      <trkpt lat="42.417735038325191" lon="2.232879996299744">
        <ele>2430.546875</ele>
        <time>2014-06-13T10:58:48Z</time>
      </trkpt>
      <trkpt lat="42.417748030275106" lon="2.232906986027956">
        <ele>2430.9296875</ele>
        <time>2014-06-13T10:59:00Z</time>
      </trkpt>
      <trkpt lat="42.417746018618345" lon="2.232945961877704">
        <ele>2431.16796875</ele>
        <time>2014-06-13T10:59:02Z</time>
      </trkpt>
      <trkpt lat="42.417758004739881" lon="2.233093986287713">
        <ele>2432.37890625</ele>
        <time>2014-06-13T10:59:10Z</time>
      </trkpt>
      <trkpt lat="42.417749958112836" lon="2.233127010986209">
        <ele>2432.5546875</ele>
        <time>2014-06-13T10:59:13Z</time>
      </trkpt>
      <trkpt lat="42.417729003354907" lon="2.233277969062328">
        <ele>2433.625</ele>
        <time>2014-06-13T10:59:25Z</time>
      </trkpt>
      <trkpt lat="42.417701007798314" lon="2.233432028442621">
        <ele>2434.67578125</ele>
        <time>2014-06-13T10:59:26Z</time>
      </trkpt>
      <trkpt lat="42.417690027505159" lon="2.233466980978847">
        <ele>2434.8515625</ele>
        <time>2014-06-13T10:59:39Z</time>
      </trkpt>
      <trkpt lat="42.417673012241721" lon="2.233502017334104">
        <ele>2434.9296875</ele>
        <time>2014-06-13T10:59:51Z</time>
      </trkpt>
      <trkpt lat="42.417646022513509" lon="2.233621040359139">
        <ele>2435.62109375</ele>
        <time>2014-06-13T11:00:20Z</time>
      </trkpt>
      <trkpt lat="42.417636970058084" lon="2.233635960146785">
        <ele>2435.6484375</ele>
        <time>2014-06-13T11:00:49Z</time>
      </trkpt>
      <trkpt lat="42.417556000873446" lon="2.233712989836931">
        <ele>2435.49609375</ele>
        <time>2014-06-13T11:00:50Z</time>
      </trkpt>
      <trkpt lat="42.417507972568274" lon="2.233788007870317">
        <ele>2435.7421875</ele>
        <time>2014-06-13T11:00:57Z</time>
      </trkpt>
      <trkpt lat="42.417477965354919" lon="2.233835030347109">
        <ele>2435.8125</ele>
        <time>2014-06-13T11:01:04Z</time>
      </trkpt>
      <trkpt lat="42.417423985898495" lon="2.233953969553113">
        <ele>2435.703125</ele>
        <time>2014-06-13T11:01:08Z</time>
      </trkpt>
      <trkpt lat="42.417376963421702" lon="2.234067041426897">
        <ele>2435.60546875</ele>
        <time>2014-06-13T11:01:17Z</time>
      </trkpt>
      <trkpt lat="42.417363971471786" lon="2.234096964821219">
        <ele>2435.5546875</ele>
        <time>2014-06-13T11:01:29Z</time>
      </trkpt>
      <trkpt lat="42.417389033362269" lon="2.234234008938074">
        <ele>2437.02734375</ele>
        <time>2014-06-13T11:01:39Z</time>
      </trkpt>
      <trkpt lat="42.41743303835392" lon="2.234372980892658">
        <ele>2439.0546875</ele>
        <time>2014-06-13T11:01:50Z</time>
      </trkpt>
      <trkpt lat="42.417491041123867" lon="2.234543971717358">
        <ele>2441.60546875</ele>
        <time>2014-06-13T11:02:00Z</time>
      </trkpt>
      <trkpt lat="42.417505960911512" lon="2.234644973650575">
        <ele>2443.60546875</ele>
        <time>2014-06-13T11:02:14Z</time>
      </trkpt>
      <trkpt lat="42.417505038902164" lon="2.234644973650575">
        <ele>2443.578125</ele>
        <time>2014-06-13T11:02:25Z</time>
      </trkpt>
      <trkpt lat="42.417535968124866" lon="2.234780006110668">
        <ele>2446.84375</ele>
        <time>2014-06-13T11:02:37Z</time>
      </trkpt>
      <trkpt lat="42.417534040287137" lon="2.234849995002151">
        <ele>2448.01171875</ele>
        <time>2014-06-13T11:02:45Z</time>
      </trkpt>
      <trkpt lat="42.417507972568274" lon="2.234952002763748">
        <ele>2449.18359375</ele>
        <time>2014-06-13T11:02:58Z</time>
      </trkpt>
      <trkpt lat="42.417481988668442" lon="2.235021991655231">
        <ele>2450.421875</ele>
        <time>2014-06-13T11:03:15Z</time>
      </trkpt>
      <trkpt lat="42.417464973405004" lon="2.235073959454894">
        <ele>2451.52734375</ele>
        <time>2014-06-13T11:03:21Z</time>
      </trkpt>
      <trkpt lat="42.417416023090482" lon="2.235162975266576">
        <ele>2452.94140625</ele>
        <time>2014-06-13T11:03:31Z</time>
      </trkpt>
      <trkpt lat="42.417350979521871" lon="2.235275963321328">
        <ele>2454.53515625</ele>
        <time>2014-06-13T11:03:41Z</time>
      </trkpt>
      <trkpt lat="42.417308986186981" lon="2.235347963869572">
        <ele>2455.48828125</ele>
        <time>2014-06-13T11:03:44Z</time>
      </trkpt>
      <trkpt lat="42.417285013943911" lon="2.235430022701621">
        <ele>2457.11328125</ele>
        <time>2014-06-13T11:03:55Z</time>
      </trkpt>
      <trkpt lat="42.417250983417034" lon="2.235464975237846">
        <ele>2457.22265625</ele>
        <time>2014-06-13T11:04:06Z</time>
      </trkpt>
      <trkpt lat="42.417250983417034" lon="2.235464975237846">
        <ele>2457.22265625</ele>
        <time>2014-06-13T11:04:17Z</time>
      </trkpt>
      <trkpt lat="42.417201027274132" lon="2.235586009919643">
        <ele>2459.17578125</ele>
        <time>2014-06-13T11:04:21Z</time>
      </trkpt>
      <trkpt lat="42.417174037545919" lon="2.235667984932661">
        <ele>2460.625</ele>
        <time>2014-06-13T11:04:27Z</time>
      </trkpt>
      <trkpt lat="42.417115028947592" lon="2.2357730101794">
        <ele>2461.83984375</ele>
        <time>2014-06-13T11:04:30Z</time>
      </trkpt>
      <trkpt lat="42.417108993977308" lon="2.235809974372387">
        <ele>2462.69921875</ele>
        <time>2014-06-13T11:04:39Z</time>
      </trkpt>
      <trkpt lat="42.417064988985658" lon="2.235904019325972">
        <ele>2464.49609375</ele>
        <time>2014-06-13T11:04:42Z</time>
      </trkpt>
      <trkpt lat="42.417060965672135" lon="2.235917011275888">
        <ele>2464.7734375</ele>
        <time>2014-06-13T11:04:46Z</time>
      </trkpt>
      <trkpt lat="42.417027018964291" lon="2.235976019874215">
        <ele>2465.83984375</ele>
        <time>2014-06-13T11:04:57Z</time>
      </trkpt>
      <trkpt lat="42.417008997872472" lon="2.235998986288905">
        <ele>2466.19140625</ele>
        <time>2014-06-13T11:05:08Z</time>
      </trkpt>
      <trkpt lat="42.416954012587667" lon="2.236089007928968">
        <ele>2467.59375</ele>
        <time>2014-06-13T11:05:18Z</time>
      </trkpt>
      <trkpt lat="42.416950995102525" lon="2.23609303124249">
        <ele>2467.640625</ele>
        <time>2014-06-13T11:05:32Z</time>
      </trkpt>
      <trkpt lat="42.416903972625732" lon="2.236194033175707">
        <ele>2469.10546875</ele>
        <time>2014-06-13T11:05:46Z</time>
      </trkpt>
      <trkpt lat="42.416893998160958" lon="2.236210964620113">
        <ele>2469.31640625</ele>
        <time>2014-06-13T11:05:48Z</time>
      </trkpt>
      <trkpt lat="42.416892992332578" lon="2.236207025125623">
        <ele>2469.21875</ele>
        <time>2014-06-13T11:05:51Z</time>
      </trkpt>
      <trkpt lat="42.416877988725901" lon="2.236239966005087">
        <ele>2469.6875</ele>
        <time>2014-06-13T11:06:03Z</time>
      </trkpt>
      <trkpt lat="42.416874971240759" lon="2.236251030117273">
        <ele>2469.87109375</ele>
        <time>2014-06-13T11:06:13Z</time>
      </trkpt>
      <trkpt lat="42.416843036189675" lon="2.236327975988388">
        <ele>2470.9765625</ele>
        <time>2014-06-13T11:06:24Z</time>
      </trkpt>
      <trkpt lat="42.416832977905869" lon="2.236407017335296">
        <ele>2472.4296875</ele>
        <time>2014-06-13T11:06:36Z</time>
      </trkpt>
      <trkpt lat="42.416830966249108" lon="2.236444987356663">
        <ele>2473.14453125</ele>
        <time>2014-06-13T11:06:43Z</time>
      </trkpt>
      <trkpt lat="42.416801964864135" lon="2.236565016210079">
        <ele>2474.94921875</ele>
        <time>2014-06-13T11:06:46Z</time>
      </trkpt>
      <trkpt lat="42.416773969307542" lon="2.236698037013412">
        <ele>2476.91015625</ele>
        <time>2014-06-13T11:06:55Z</time>
      </trkpt>
      <trkpt lat="42.416711021214724" lon="2.236798033118248">
        <ele>2477.51171875</ele>
        <time>2014-06-13T11:06:59Z</time>
      </trkpt>
      <trkpt lat="42.416663998737931" lon="2.236902974545956">
        <ele>2478.828125</ele>
        <time>2014-06-13T11:07:03Z</time>
      </trkpt>
      <trkpt lat="42.416630974039435" lon="2.23697698675096">
        <ele>2479.76171875</ele>
        <time>2014-06-13T11:07:07Z</time>
      </trkpt>
      <trkpt lat="42.416602978482842" lon="2.237029960379005">
        <ele>2480.33984375</ele>
        <time>2014-06-13T11:07:12Z</time>
      </trkpt>
      <trkpt lat="42.41657498292625" lon="2.237124005332589">
        <ele>2481.80078125</ele>
        <time>2014-06-13T11:07:25Z</time>
      </trkpt>
      <trkpt lat="42.416554028168321" lon="2.237218972295523">
        <ele>2483.23828125</ele>
        <time>2014-06-13T11:07:33Z</time>
      </trkpt>
      <trkpt lat="42.416536007076502" lon="2.23729700781405">
        <ele>2484.3203125</ele>
        <time>2014-06-13T11:07:47Z</time>
      </trkpt>
      <trkpt lat="42.416508011519909" lon="2.237428016960621">
        <ele>2486.16796875</ele>
        <time>2014-06-13T11:07:49Z</time>
      </trkpt>
      <trkpt lat="42.416503988206387" lon="2.237457018345594">
        <ele>2486.62109375</ele>
        <time>2014-06-13T11:08:02Z</time>
      </trkpt>
      <trkpt lat="42.41648898459971" lon="2.237507980316877">
        <ele>2487.25</ele>
        <time>2014-06-13T11:08:06Z</time>
      </trkpt>
      <trkpt lat="42.416458977386355" lon="2.237630020827055">
        <ele>2488.8671875</ele>
        <time>2014-06-13T11:08:14Z</time>
      </trkpt>
      <trkpt lat="42.416441962122917" lon="2.237672014161944">
        <ele>2489.27734375</ele>
        <time>2014-06-13T11:08:26Z</time>
      </trkpt>
      <trkpt lat="42.416441962122917" lon="2.237672014161944">
        <ele>2489.27734375</ele>
        <time>2014-06-13T11:08:29Z</time>
      </trkpt>
      <trkpt lat="42.416389994323254" lon="2.237760024145246">
        <ele>2489.7890625</ele>
        <time>2014-06-13T11:08:35Z</time>
      </trkpt>
      <trkpt lat="42.416344983503222" lon="2.237840993329883">
        <ele>2490.48828125</ele>
        <time>2014-06-13T11:08:47Z</time>
      </trkpt>
      <trkpt lat="42.416301984339952" lon="2.237950041890144">
        <ele>2491.6015625</ele>
        <time>2014-06-13T11:08:49Z</time>
      </trkpt>
      <trkpt lat="42.416288992390037" lon="2.237987006083131">
        <ele>2491.9375</ele>
        <time>2014-06-13T11:09:01Z</time>
      </trkpt>
      <trkpt lat="42.416281029582024" lon="2.23804802633822">
        <ele>2492.703125</ele>
        <time>2014-06-13T11:09:09Z</time>
      </trkpt>
      <trkpt lat="42.416268959641457" lon="2.238078033551574">
        <ele>2492.9453125</ele>
        <time>2014-06-13T11:09:22Z</time>
      </trkpt>
      <trkpt lat="42.416243981570005" lon="2.238188004121184">
        <ele>2494.14453125</ele>
        <time>2014-06-13T11:09:33Z</time>
      </trkpt>
      <trkpt lat="42.416229983791709" lon="2.238222034648061">
        <ele>2494.40625</ele>
        <time>2014-06-13T11:09:34Z</time>
      </trkpt>
      <trkpt lat="42.416212968528271" lon="2.238253969699144">
        <ele>2494.58984375</ele>
        <time>2014-06-13T11:09:46Z</time>
      </trkpt>
      <trkpt lat="42.4162080232054" lon="2.238376010209322">
        <ele>2495.6953125</ele>
        <time>2014-06-13T11:09:55Z</time>
      </trkpt>
      <trkpt lat="42.416222020983696" lon="2.238490004092455">
        <ele>2497</ele>
        <time>2014-06-13T11:10:05Z</time>
      </trkpt>
      <trkpt lat="42.416235012933612" lon="2.238588994368911">
        <ele>2498.171875</ele>
        <time>2014-06-13T11:10:06Z</time>
      </trkpt>
      <trkpt lat="42.416217997670174" lon="2.238619001582265">
        <ele>2498.12109375</ele>
        <time>2014-06-13T11:10:17Z</time>
      </trkpt>
      <trkpt lat="42.416210034862161" lon="2.238710029050708">
        <ele>2498.34765625</ele>
        <time>2014-06-13T11:10:22Z</time>
      </trkpt>
      <trkpt lat="42.416215986013412" lon="2.238738024607301">
        <ele>2498.55859375</ele>
        <time>2014-06-13T11:10:25Z</time>
      </trkpt>
      <trkpt lat="42.416224032640457" lon="2.238778006285429">
        <ele>2498.85546875</ele>
        <time>2014-06-13T11:10:35Z</time>
      </trkpt>
      <trkpt lat="42.416233001276851" lon="2.238947991281748">
        <ele>2499.61328125</ele>
        <time>2014-06-13T11:10:37Z</time>
      </trkpt>
      <trkpt lat="42.416259991005063" lon="2.239067014306784">
        <ele>2500.4375</ele>
        <time>2014-06-13T11:10:40Z</time>
      </trkpt>
      <trkpt lat="42.416302990168333" lon="2.239182014018297">
        <ele>2501.44921875</ele>
        <time>2014-06-13T11:10:53Z</time>
      </trkpt>
      <trkpt lat="42.416344983503222" lon="2.239287961274386">
        <ele>2502.4609375</ele>
        <time>2014-06-13T11:11:04Z</time>
      </trkpt>
      <trkpt lat="42.416373984888196" lon="2.239356022328138">
        <ele>2503.171875</ele>
        <time>2014-06-13T11:11:14Z</time>
      </trkpt>
      <trkpt lat="42.416374990716577" lon="2.239394998177886">
        <ele>2503.1484375</ele>
        <time>2014-06-13T11:11:27Z</time>
      </trkpt>
      <trkpt lat="42.416398962959647" lon="2.239503040909767">
        <ele>2503.4921875</ele>
        <time>2014-06-13T11:11:38Z</time>
      </trkpt>
      <trkpt lat="42.41640399210155" lon="2.23955299705267">
        <ele>2503.48828125</ele>
        <time>2014-06-13T11:14:55Z</time>
      </trkpt>
      <trkpt lat="42.416411032900214" lon="2.239599013701081">
        <ele>2503.5390625</ele>
        <time>2014-06-13T11:15:06Z</time>
      </trkpt>
      <trkpt lat="42.416414972394705" lon="2.239642012864351">
        <ele>2503.51953125</ele>
        <time>2014-06-13T11:15:22Z</time>
      </trkpt>
      <trkpt lat="42.416429976001382" lon="2.239706972613931">
        <ele>2503.70703125</ele>
        <time>2014-06-13T11:17:44Z</time>
      </trkpt>
      <trkpt lat="42.416475992649794" lon="2.239865977317095">
        <ele>2504.078125</ele>
        <time>2014-06-13T11:17:57Z</time>
      </trkpt>
      <trkpt lat="42.416513962671161" lon="2.239951975643635">
        <ele>2504.5234375</ele>
        <time>2014-06-13T11:18:12Z</time>
      </trkpt>
      <trkpt lat="42.416598033159971" lon="2.240080973133445">
        <ele>2505.79296875</ele>
        <time>2014-06-13T11:18:31Z</time>
      </trkpt>
      <trkpt lat="42.416612030938268" lon="2.240095976740122">
        <ele>2506.03515625</ele>
        <time>2014-06-13T11:18:33Z</time>
      </trkpt>
      <trkpt lat="42.416698029264808" lon="2.240206031128764">
        <ele>2507.90625</ele>
        <time>2014-06-13T11:18:43Z</time>
      </trkpt>
      <trkpt lat="42.416724013164639" lon="2.240237966179848">
        <ele>2508.50390625</ele>
        <time>2014-06-13T11:18:48Z</time>
      </trkpt>
      <trkpt lat="42.416761983186007" lon="2.240264033898711">
        <ele>2509.3671875</ele>
        <time>2014-06-13T11:18:53Z</time>
      </trkpt>
      <trkpt lat="42.416855022311211" lon="2.240343997254968">
        <ele>2511.4375</ele>
        <time>2014-06-13T11:18:55Z</time>
      </trkpt>
      <trkpt lat="42.41687698289752" lon="2.240376016125083">
        <ele>2511.92578125</ele>
        <time>2014-06-13T11:18:59Z</time>
      </trkpt>
      <trkpt lat="42.416893998160958" lon="2.240462014451623">
        <ele>2512.3046875</ele>
        <time>2014-06-13T11:19:12Z</time>
      </trkpt>
      <trkpt lat="42.416930962353945" lon="2.240625964477658">
        <ele>2513.8125</ele>
        <time>2014-06-13T11:19:25Z</time>
      </trkpt>
      <trkpt lat="42.416929034516215" lon="2.240652032196522">
        <ele>2513.8984375</ele>
        <time>2014-06-13T11:19:36Z</time>
      </trkpt>
      <trkpt lat="42.416915036737919" lon="2.240788992494345">
        <ele>2514.265625</ele>
        <time>2014-06-13T11:19:59Z</time>
      </trkpt>
      <trkpt lat="42.416910007596016" lon="2.240875996649265">
        <ele>2514.6015625</ele>
        <time>2014-06-13T11:20:13Z</time>
      </trkpt>
      <trkpt lat="42.416913025081158" lon="2.241011029109359">
        <ele>2515.45703125</ele>
        <time>2014-06-13T11:20:24Z</time>
      </trkpt>
      <trkpt lat="42.416907995939255" lon="2.241145977750421">
        <ele>2516.140625</ele>
        <time>2014-06-13T11:20:49Z</time>
      </trkpt>
      <trkpt lat="42.416909001767635" lon="2.241157041862607">
        <ele>2516.2265625</ele>
        <time>2014-06-13T11:21:03Z</time>
      </trkpt>
      <trkpt lat="42.416939008980989" lon="2.241286039352417">
        <ele>2517.69140625</ele>
        <time>2014-06-13T11:21:14Z</time>
      </trkpt>
      <trkpt lat="42.416963987052441" lon="2.241389974951744">
        <ele>2518.9140625</ele>
        <time>2014-06-13T11:21:26Z</time>
      </trkpt>
      <trkpt lat="42.416972033679485" lon="2.241504974663258">
        <ele>2519.85546875</ele>
        <time>2014-06-13T11:21:40Z</time>
      </trkpt>
      <trkpt lat="42.416973961517215" lon="2.241516960784793">
        <ele>2519.96875</ele>
        <time>2014-06-13T11:21:52Z</time>
      </trkpt>
      <trkpt lat="42.416989970952272" lon="2.241636989638209">
        <ele>2521.00390625</ele>
        <time>2014-06-13T11:22:04Z</time>
      </trkpt>
      <trkpt lat="42.416991982609034" lon="2.241687029600143">
        <ele>2521.32421875</ele>
        <time>2014-06-13T11:22:18Z</time>
      </trkpt>
      <trkpt lat="42.416991982609034" lon="2.24172399379313">
        <ele>2521.5390625</ele>
        <time>2014-06-13T11:22:26Z</time>
      </trkpt>
      <trkpt lat="42.416987959295511" lon="2.24183002486825">
        <ele>2522.1015625</ele>
        <time>2014-06-13T11:22:39Z</time>
      </trkpt>
      <trkpt lat="42.416988965123892" lon="2.241851985454559">
        <ele>2522.2421875</ele>
        <time>2014-06-13T11:23:01Z</time>
      </trkpt>
      <trkpt lat="42.416991982609034" lon="2.241879981011152">
        <ele>2522.44140625</ele>
        <time>2014-06-13T11:23:19Z</time>
      </trkpt>
      <trkpt lat="42.417016960680485" lon="2.242026999592781">
        <ele>2523.22265625</ele>
        <time>2014-06-13T11:23:26Z</time>
      </trkpt>
      <trkpt lat="42.417036993429065" lon="2.242124984040856">
        <ele>2523.41796875</ele>
        <time>2014-06-13T11:23:38Z</time>
      </trkpt>
      <trkpt lat="42.417051997035742" lon="2.242231015115976">
        <ele>2523.53125</ele>
        <time>2014-06-13T11:23:51Z</time>
      </trkpt>
      <trkpt lat="42.417086027562618" lon="2.242365963757038">
        <ele>2523.71484375</ele>
        <time>2014-06-13T11:24:01Z</time>
      </trkpt>
      <trkpt lat="42.417118968442082" lon="2.242482975125313">
        <ele>2523.515625</ele>
        <time>2014-06-13T11:24:03Z</time>
      </trkpt>
      <trkpt lat="42.417144030332565" lon="2.242720015347004">
        <ele>2522.09375</ele>
        <time>2014-06-13T11:24:19Z</time>
      </trkpt>
      <trkpt lat="42.417204966768622" lon="2.242792015895248">
        <ele>2519.7421875</ele>
        <time>2014-06-13T11:24:31Z</time>
      </trkpt>
      <trkpt lat="42.417298005893826" lon="2.242828980088234">
        <ele>2516.53515625</ele>
        <time>2014-06-13T11:24:48Z</time>
      </trkpt>
      <trkpt lat="42.417363971471786" lon="2.242825962603092">
        <ele>2514.671875</ele>
        <time>2014-06-13T11:24:52Z</time>
      </trkpt>
      <trkpt lat="42.417420968413353" lon="2.242796961218119">
        <ele>2513.76171875</ele>
        <time>2014-06-13T11:25:06Z</time>
      </trkpt>
      <trkpt lat="42.417495986446738" lon="2.242835015058518">
        <ele>2510.26171875</ele>
        <time>2014-06-13T11:25:19Z</time>
      </trkpt>
      <trkpt lat="42.417484000325203" lon="2.242848007008433">
        <ele>2510.53515625</ele>
        <time>2014-06-13T11:25:32Z</time>
      </trkpt>
      <trkpt lat="42.417484000325203" lon="2.242848007008433">
        <ele>2510.53515625</ele>
        <time>2014-06-13T11:25:47Z</time>
      </trkpt>
      <trkpt lat="42.417448963969946" lon="2.242897041141987">
        <ele>2510.2578125</ele>
        <time>2014-06-13T11:25:56Z</time>
      </trkpt>
      <trkpt lat="42.417411999776959" lon="2.242952026426792">
        <ele>2510.09765625</ele>
        <time>2014-06-13T11:25:59Z</time>
      </trkpt>
      <trkpt lat="42.417369000613689" lon="2.242998965084553">
        <ele>2510.59375</ele>
        <time>2014-06-13T11:26:08Z</time>
      </trkpt>
      <trkpt lat="42.417355002835393" lon="2.243018997833133">
        <ele>2510.703125</ele>
        <time>2014-06-13T11:26:22Z</time>
      </trkpt>
      <trkpt lat="42.417337987571955" lon="2.24307700060308">
        <ele>2510.17578125</ele>
        <time>2014-06-13T11:26:36Z</time>
      </trkpt>
      <trkpt lat="42.41730404086411" lon="2.243130980059505">
        <ele>2509.99609375</ele>
        <time>2014-06-13T11:26:50Z</time>
      </trkpt>
      <trkpt lat="42.417301023378968" lon="2.243136009201407">
        <ele>2509.97265625</ele>
        <time>2014-06-13T11:26:53Z</time>
      </trkpt>
      <trkpt lat="42.417301023378968" lon="2.243136009201407">
        <ele>2509.97265625</ele>
        <time>2014-06-13T11:27:00Z</time>
      </trkpt>
      <trkpt lat="42.417301023378968" lon="2.243136009201407">
        <ele>2509.97265625</ele>
        <time>2014-06-13T11:27:07Z</time>
      </trkpt>
      <trkpt lat="42.417305968701839" lon="2.243155958130956">
        <ele>2509.140625</ele>
        <time>2014-06-13T11:27:10Z</time>
      </trkpt>
      <trkpt lat="42.417304962873459" lon="2.243161993101239">
        <ele>2508.99609375</ele>
        <time>2014-06-13T11:27:24Z</time>
      </trkpt>
      <trkpt lat="42.417304962873459" lon="2.243164004758">
        <ele>2508.93359375</ele>
        <time>2014-06-13T11:27:30Z</time>
      </trkpt>
      <trkpt lat="42.417299011722207" lon="2.243209015578032">
        <ele>2507.8125</ele>
        <time>2014-06-13T11:27:43Z</time>
      </trkpt>
      <trkpt lat="42.417309992015362" lon="2.243326026946306">
        <ele>2503.6953125</ele>
        <time>2014-06-13T11:27:57Z</time>
      </trkpt>
      <trkpt lat="42.4173270072788" lon="2.243380006402731">
        <ele>2501.2265625</ele>
        <time>2014-06-13T11:28:03Z</time>
      </trkpt>
      <trkpt lat="42.417338993400335" lon="2.2434420324862">
        <ele>2498.72265625</ele>
        <time>2014-06-13T11:28:09Z</time>
      </trkpt>
      <trkpt lat="42.417372018098831" lon="2.243518978357315">
        <ele>2495.6015625</ele>
        <time>2014-06-13T11:28:12Z</time>
      </trkpt>
      <trkpt lat="42.417404958978295" lon="2.243616040796042">
        <ele>2492.21875</ele>
        <time>2014-06-13T11:28:20Z</time>
      </trkpt>
      <trkpt lat="42.417441001161933" lon="2.243716036900878">
        <ele>2488.6953125</ele>
        <time>2014-06-13T11:28:34Z</time>
      </trkpt>
      <trkpt lat="42.417450975626707" lon="2.243757024407387">
        <ele>2487.48828125</ele>
        <time>2014-06-13T11:28:53Z</time>
      </trkpt>
      <trkpt lat="42.417502021417022" lon="2.243803963065147">
        <ele>2484.25390625</ele>
        <time>2014-06-13T11:29:17Z</time>
      </trkpt>
      <trkpt lat="42.417504033073783" lon="2.243805974721909">
        <ele>2484.11328125</ele>
        <time>2014-06-13T11:29:19Z</time>
      </trkpt>
      <trkpt lat="42.417507972568274" lon="2.243799017742276">
        <ele>2484.03515625</ele>
        <time>2014-06-13T11:29:32Z</time>
      </trkpt>
      <trkpt lat="42.417507972568274" lon="2.243799017742276">
        <ele>2484.03515625</ele>
        <time>2014-06-13T11:29:59Z</time>
      </trkpt>
      <trkpt lat="42.417569998651743" lon="2.243790971115232">
        <ele>2480.96875</ele>
        <time>2014-06-13T11:30:07Z</time>
      </trkpt>
      <trkpt lat="42.417617021128535" lon="2.243846962228417">
        <ele>2477.86328125</ele>
        <time>2014-06-13T11:30:13Z</time>
      </trkpt>
      <trkpt lat="42.417674018070102" lon="2.243802035227418">
        <ele>2475.4375</ele>
        <time>2014-06-13T11:30:24Z</time>
      </trkpt>
      <trkpt lat="42.417682986706495" lon="2.243806980550289">
        <ele>2474.91015625</ele>
        <time>2014-06-13T11:30:30Z</time>
      </trkpt>
      <trkpt lat="42.417676029726863" lon="2.243953999131918">
        <ele>2473.9453125</ele>
        <time>2014-06-13T11:30:43Z</time>
      </trkpt>
      <trkpt lat="42.417705031111836" lon="2.243970008566976">
        <ele>2472.37890625</ele>
        <time>2014-06-13T11:30:52Z</time>
      </trkpt>
      <trkpt lat="42.417708970606327" lon="2.243972020223737">
        <ele>2472.16796875</ele>
        <time>2014-06-13T11:30:59Z</time>
      </trkpt>
      <trkpt lat="42.417741995304823" lon="2.243944024667144">
        <ele>2470.7578125</ele>
        <time>2014-06-13T11:31:05Z</time>
      </trkpt>
      <trkpt lat="42.417811984196305" lon="2.244017031043768">
        <ele>2466.76171875</ele>
        <time>2014-06-13T11:31:17Z</time>
      </trkpt>
      <trkpt lat="42.41786596365273" lon="2.244081990793347">
        <ele>2463.8046875</ele>
        <time>2014-06-13T11:31:21Z</time>
      </trkpt>
      <trkpt lat="42.41788599640131" lon="2.244124989956617">
        <ele>2462.8515625</ele>
        <time>2014-06-13T11:31:25Z</time>
      </trkpt>
      <trkpt lat="42.41788599640131" lon="2.244124989956617">
        <ele>2462.8515625</ele>
        <time>2014-06-13T11:31:40Z</time>
      </trkpt>
      <trkpt lat="42.417951039969921" lon="2.244121972471476">
        <ele>2460.6796875</ele>
        <time>2014-06-13T11:31:52Z</time>
      </trkpt>
      <trkpt lat="42.417977023869753" lon="2.244090959429741">
        <ele>2459.96875</ele>
        <time>2014-06-13T11:32:03Z</time>
      </trkpt>
      <trkpt lat="42.418040977790952" lon="2.244081990793347">
        <ele>2457.83203125</ele>
        <time>2014-06-13T11:32:14Z</time>
      </trkpt>
      <trkpt lat="42.418152038007975" lon="2.244136976078153">
        <ele>2453.859375</ele>
        <time>2014-06-13T11:32:17Z</time>
      </trkpt>
      <trkpt lat="42.418261002749205" lon="2.244212999939919">
        <ele>2450.22265625</ele>
        <time>2014-06-13T11:32:27Z</time>
      </trkpt>
      <trkpt lat="42.418362004682422" lon="2.244293969124556">
        <ele>2447.1328125</ele>
        <time>2014-06-13T11:32:43Z</time>
      </trkpt>
      <trkpt lat="42.418377008289099" lon="2.244325987994671">
        <ele>2446.6171875</ele>
        <time>2014-06-13T11:32:47Z</time>
      </trkpt>
      <trkpt lat="42.418438028544188" lon="2.244351971894503">
        <ele>2444.67578125</ele>
        <time>2014-06-13T11:32:50Z</time>
      </trkpt>
      <trkpt lat="42.418489996343851" lon="2.244400000199676">
        <ele>2442.89453125</ele>
        <time>2014-06-13T11:32:58Z</time>
      </trkpt>
      <trkpt lat="42.418507011607289" lon="2.244418021291494">
        <ele>2442.2890625</ele>
        <time>2014-06-13T11:33:01Z</time>
      </trkpt>
      <trkpt lat="42.418630979955196" lon="2.24449303932488">
        <ele>2438.2734375</ele>
        <time>2014-06-13T11:33:08Z</time>
      </trkpt>
      <trkpt lat="42.418671967461705" lon="2.244547018781304">
        <ele>2437.09765625</ele>
        <time>2014-06-13T11:33:21Z</time>
      </trkpt>
      <trkpt lat="42.418725024908781" lon="2.244676016271114">
        <ele>2435.44140625</ele>
        <time>2014-06-13T11:33:29Z</time>
      </trkpt>
      <trkpt lat="42.418854022398591" lon="2.244755979627371">
        <ele>2432.23046875</ele>
        <time>2014-06-13T11:33:33Z</time>
      </trkpt>
      <trkpt lat="42.418897021561861" lon="2.244792021811009">
        <ele>2431.11328125</ele>
        <time>2014-06-13T11:33:37Z</time>
      </trkpt>
      <trkpt lat="42.418923005461693" lon="2.244863016530871">
        <ele>2430.234375</ele>
        <time>2014-06-13T11:33:50Z</time>
      </trkpt>
      <trkpt lat="42.418949995189905" lon="2.244878020137548">
        <ele>2429.5546875</ele>
        <time>2014-06-13T11:34:01Z</time>
      </trkpt>
      <trkpt lat="42.419006992131472" lon="2.244934011250734">
        <ele>2428.09765625</ele>
        <time>2014-06-13T11:34:15Z</time>
      </trkpt>
      <trkpt lat="42.419059965759516" lon="2.245060997083783">
        <ele>2426.91015625</ele>
        <time>2014-06-13T11:34:16Z</time>
      </trkpt>
      <trkpt lat="42.419059965759516" lon="2.245060997083783">
        <ele>2426.91015625</ele>
        <time>2014-06-13T11:34:20Z</time>
      </trkpt>
      <trkpt lat="42.419103970751166" lon="2.245070971548557">
        <ele>2425.9375</ele>
        <time>2014-06-13T11:34:34Z</time>
      </trkpt>
      <trkpt lat="42.419119980186224" lon="2.245100978761911">
        <ele>2425.5625</ele>
        <time>2014-06-13T11:34:48Z</time>
      </trkpt>
      <trkpt lat="42.419119980186224" lon="2.245163004845381">
        <ele>2425.5234375</ele>
        <time>2014-06-13T11:35:02Z</time>
      </trkpt>
      <trkpt lat="42.419119980186224" lon="2.245163004845381">
        <ele>2425.5234375</ele>
        <time>2014-06-13T11:35:14Z</time>
      </trkpt>
      <trkpt lat="42.419117968529463" lon="2.245164010673761">
        <ele>2425.56640625</ele>
        <time>2014-06-13T11:35:37Z</time>
      </trkpt>
      <trkpt lat="42.419148981571198" lon="2.245228970423341">
        <ele>2424.81640625</ele>
        <time>2014-06-13T11:36:04Z</time>
      </trkpt>
      <trkpt lat="42.419210001826286" lon="2.245359979569912">
        <ele>2423.15234375</ele>
        <time>2014-06-13T11:36:13Z</time>
      </trkpt>
      <trkpt lat="42.41926004178822" lon="2.245425023138523">
        <ele>2421.82421875</ele>
        <time>2014-06-13T11:36:27Z</time>
      </trkpt>
      <trkpt lat="42.419316032901406" lon="2.245558965951204">
        <ele>2420.2265625</ele>
        <time>2014-06-13T11:36:41Z</time>
      </trkpt>
      <trkpt lat="42.419375963509083" lon="2.245675977319479">
        <ele>2418.89453125</ele>
        <time>2014-06-13T11:36:57Z</time>
      </trkpt>
      <trkpt lat="42.419383004307747" lon="2.245779996737838">
        <ele>2418.484375</ele>
        <time>2014-06-13T11:37:15Z</time>
      </trkpt>
      <trkpt lat="42.419365989044309" lon="2.245864989235997">
        <ele>2418.51953125</ele>
        <time>2014-06-13T11:38:57Z</time>
      </trkpt>
      <trkpt lat="42.41941200569272" lon="2.246012007817626">
        <ele>2417.2578125</ele>
        <time>2014-06-13T11:39:10Z</time>
      </trkpt>
      <trkpt lat="42.419426003471017" lon="2.246046960353851">
        <ele>2416.89453125</ele>
        <time>2014-06-13T11:39:22Z</time>
      </trkpt>
      <trkpt lat="42.419466990977526" lon="2.24608501419425">
        <ele>2416.0625</ele>
        <time>2014-06-13T11:39:35Z</time>
      </trkpt>
      <trkpt lat="42.419550977647305" lon="2.246262039989233">
        <ele>2414.01171875</ele>
        <time>2014-06-13T11:39:46Z</time>
      </trkpt>
      <trkpt lat="42.419631024822593" lon="2.246403023600578">
        <ele>2411.83984375</ele>
        <time>2014-06-13T11:39:59Z</time>
      </trkpt>
      <trkpt lat="42.419703025370836" lon="2.246502013877034">
        <ele>2409.77734375</ele>
        <time>2014-06-13T11:40:02Z</time>
      </trkpt>
      <trkpt lat="42.419724985957146" lon="2.246590023860335">
        <ele>2408.95703125</ele>
        <time>2014-06-13T11:40:08Z</time>
      </trkpt>
      <trkpt lat="42.419738983735442" lon="2.246630005538464">
        <ele>2408.515625</ele>
        <time>2014-06-13T11:40:20Z</time>
      </trkpt>
      <trkpt lat="42.419763039797544" lon="2.246780963614583">
        <ele>2407.4140625</ele>
        <time>2014-06-13T11:40:26Z</time>
      </trkpt>
      <trkpt lat="42.419806960970163" lon="2.247004006057978">
        <ele>2405.13671875</ele>
        <time>2014-06-13T11:40:38Z</time>
      </trkpt>
      <trkpt lat="42.419825987890363" lon="2.247061002999544">
        <ele>2404.4609375</ele>
        <time>2014-06-13T11:40:50Z</time>
      </trkpt>
      <trkpt lat="42.419829005375504" lon="2.247098973020911">
        <ele>2404.1796875</ele>
        <time>2014-06-13T11:41:02Z</time>
      </trkpt>
      <trkpt lat="42.41984199732542" lon="2.247183965519071">
        <ele>2403.33984375</ele>
        <time>2014-06-13T11:41:13Z</time>
      </trkpt>
      <trkpt lat="42.419822970405221" lon="2.247222019359469">
        <ele>2403.21875</ele>
        <time>2014-06-13T11:41:26Z</time>
      </trkpt>
      <trkpt lat="42.419839985668659" lon="2.247308017686009">
        <ele>2402.17578125</ele>
        <time>2014-06-13T11:41:31Z</time>
      </trkpt>
      <trkpt lat="42.419909974560142" lon="2.247468028217554">
        <ele>2400.4375</ele>
        <time>2014-06-13T11:41:39Z</time>
      </trkpt>
      <trkpt lat="42.419939981773496" lon="2.247556960210204">
        <ele>2399.8828125</ele>
        <time>2014-06-13T11:41:47Z</time>
      </trkpt>
      <trkpt lat="42.419919027015567" lon="2.247615968808532">
        <ele>2399.62890625</ele>
        <time>2014-06-13T11:41:57Z</time>
      </trkpt>
      <trkpt lat="42.419921038672328" lon="2.247681012377143">
        <ele>2399.3203125</ele>
        <time>2014-06-13T11:42:02Z</time>
      </trkpt>
      <trkpt lat="42.419911986216903" lon="2.247873963788152">
        <ele>2398.44140625</ele>
        <time>2014-06-13T11:42:15Z</time>
      </trkpt>
      <trkpt lat="42.419910980388522" lon="2.248022994026542">
        <ele>2397.97265625</ele>
        <time>2014-06-13T11:42:16Z</time>
      </trkpt>
      <trkpt lat="42.41990796290338" lon="2.248138999566436">
        <ele>2397.640625</ele>
        <time>2014-06-13T11:42:20Z</time>
      </trkpt>
      <trkpt lat="42.41990796290338" lon="2.248138999566436">
        <ele>2397.640625</ele>
        <time>2014-06-13T11:42:28Z</time>
      </trkpt>
      <trkpt lat="42.419895976781845" lon="2.248187027871609">
        <ele>2397.5625</ele>
        <time>2014-06-13T11:42:42Z</time>
      </trkpt>
      <trkpt lat="42.419925983995199" lon="2.24838400259614">
        <ele>2396.58984375</ele>
        <time>2014-06-13T11:42:54Z</time>
      </trkpt>
      <trkpt lat="42.41996998898685" lon="2.248543007299304">
        <ele>2395.5</ele>
        <time>2014-06-13T11:43:07Z</time>
      </trkpt>
      <trkpt lat="42.420005025342107" lon="2.248735958710313">
        <ele>2392.46875</ele>
        <time>2014-06-13T11:43:08Z</time>
      </trkpt>
      <trkpt lat="42.41999396122992" lon="2.248768983408809">
        <ele>2391.85546875</ele>
        <time>2014-06-13T11:43:11Z</time>
      </trkpt>
      <trkpt lat="42.41999396122992" lon="2.248768983408809">
        <ele>2391.85546875</ele>
        <time>2014-06-13T11:43:17Z</time>
      </trkpt>
      <trkpt lat="42.41999396122992" lon="2.248790021985769">
        <ele>2391.3984375</ele>
        <time>2014-06-13T11:43:25Z</time>
      </trkpt>
      <trkpt lat="42.420031009241939" lon="2.248894041404128">
        <ele>2388.7734375</ele>
        <time>2014-06-13T11:43:33Z</time>
      </trkpt>
      <trkpt lat="42.42005699314177" lon="2.249084981158376">
        <ele>2384.06640625</ele>
        <time>2014-06-13T11:43:43Z</time>
      </trkpt>
      <trkpt lat="42.420074008405209" lon="2.249233005568385">
        <ele>2380.23046875</ele>
        <time>2014-06-13T11:43:58Z</time>
      </trkpt>
      <trkpt lat="42.420117007568479" lon="2.249355968087912">
        <ele>2377.73828125</ele>
        <time>2014-06-13T11:44:03Z</time>
      </trkpt>
      <trkpt lat="42.420117007568479" lon="2.249355968087912">
        <ele>2377.73828125</ele>
        <time>2014-06-13T11:44:05Z</time>
      </trkpt>
      <trkpt lat="42.420124970376492" lon="2.249467028304935">
        <ele>2375.125</ele>
        <time>2014-06-13T11:44:08Z</time>
      </trkpt>
      <trkpt lat="42.420151960104704" lon="2.249598037451506">
        <ele>2372.51953125</ele>
        <time>2014-06-13T11:44:21Z</time>
      </trkpt>
      <trkpt lat="42.420152965933084" lon="2.249683029949665">
        <ele>2370.51171875</ele>
        <time>2014-06-13T11:44:24Z</time>
      </trkpt>
      <trkpt lat="42.420136034488678" lon="2.249773973599076">
        <ele>2368.03515625</ele>
        <time>2014-06-13T11:44:33Z</time>
      </trkpt>
      <trkpt lat="42.420106027275324" lon="2.249789983034134">
        <ele>2366.92578125</ele>
        <time>2014-06-13T11:44:38Z</time>
      </trkpt>
      <trkpt lat="42.420111978426576" lon="2.249829964712262">
        <ele>2366.3828125</ele>
        <time>2014-06-13T11:44:51Z</time>
      </trkpt>
      <trkpt lat="42.420111978426576" lon="2.249829964712262">
        <ele>2366.3828125</ele>
        <time>2014-06-13T11:44:57Z</time>
      </trkpt>
      <trkpt lat="42.420104015618563" lon="2.249894002452493">
        <ele>2365.0703125</ele>
        <time>2014-06-13T11:45:08Z</time>
      </trkpt>
      <trkpt lat="42.420110972598195" lon="2.250002967193723">
        <ele>2363.31640625</ele>
        <time>2014-06-13T11:45:21Z</time>
      </trkpt>
      <trkpt lat="42.420135028660297" lon="2.250049989670515">
        <ele>2362.91796875</ele>
        <time>2014-06-13T11:45:41Z</time>
      </trkpt>
      <trkpt lat="42.420135028660297" lon="2.250140011310577">
        <ele>2361.29296875</ele>
        <time>2014-06-13T11:45:49Z</time>
      </trkpt>
      <trkpt lat="42.420114995911717" lon="2.250248976051807">
        <ele>2359.21875</ele>
        <time>2014-06-13T11:46:00Z</time>
      </trkpt>
      <trkpt lat="42.420096974819899" lon="2.250328017398715">
        <ele>2357.81640625</ele>
        <time>2014-06-13T11:46:14Z</time>
      </trkpt>
      <trkpt lat="42.420107033103704" lon="2.250417033210397">
        <ele>2356.44921875</ele>
        <time>2014-06-13T11:46:20Z</time>
      </trkpt>
      <trkpt lat="42.420149026438594" lon="2.25051099434495">
        <ele>2354.625</ele>
        <time>2014-06-13T11:46:32Z</time>
      </trkpt>
      <trkpt lat="42.42016302421689" lon="2.250548964366317">
        <ele>2353.640625</ele>
        <time>2014-06-13T11:46:33Z</time>
      </trkpt>
      <trkpt lat="42.420200994238257" lon="2.250624988228083">
        <ele>2351.62890625</ele>
        <time>2014-06-13T11:46:47Z</time>
      </trkpt>
      <trkpt lat="42.42020501755178" lon="2.250728001818061">
        <ele>2348.9609375</ele>
        <time>2014-06-13T11:47:00Z</time>
      </trkpt>
      <trkpt lat="42.420214992016554" lon="2.250843001529574">
        <ele>2345.94921875</ele>
        <time>2014-06-13T11:47:13Z</time>
      </trkpt>
      <trkpt lat="42.420193031430244" lon="2.250883989036083">
        <ele>2345.5</ele>
        <time>2014-06-13T11:47:18Z</time>
      </trkpt>
      <trkpt lat="42.420210968703032" lon="2.250966969877482">
        <ele>2344.58984375</ele>
        <time>2014-06-13T11:47:33Z</time>
      </trkpt>
      <trkpt lat="42.420210968703032" lon="2.250966969877482">
        <ele>2344.58984375</ele>
        <time>2014-06-13T11:47:38Z</time>
      </trkpt>
      <trkpt lat="42.420233013108373" lon="2.250968981534243">
        <ele>2344.48828125</ele>
        <time>2014-06-13T11:47:45Z</time>
      </trkpt>
      <trkpt lat="42.420277018100023" lon="2.251032013446093">
        <ele>2343.7109375</ele>
        <time>2014-06-13T11:47:46Z</time>
      </trkpt>
      <trkpt lat="42.420394029468298" lon="2.251165034249425">
        <ele>2342.0859375</ele>
        <time>2014-06-13T11:48:01Z</time>
      </trkpt>
      <trkpt lat="42.420431999489665" lon="2.251185989007354">
        <ele>2341.79296875</ele>
        <time>2014-06-13T11:48:02Z</time>
      </trkpt>
      <trkpt lat="42.420461000874639" lon="2.251269975677133">
        <ele>2340.94140625</ele>
        <time>2014-06-13T11:48:08Z</time>
      </trkpt>
      <trkpt lat="42.4204630125314" lon="2.251277016475797">
        <ele>2340.87109375</ele>
        <time>2014-06-13T11:48:10Z</time>
      </trkpt>
      <trkpt lat="42.420482961460948" lon="2.251298977062106">
        <ele>2340.63671875</ele>
        <time>2014-06-13T11:48:17Z</time>
      </trkpt>
      <trkpt lat="42.420512968674302" lon="2.251358991488814">
        <ele>2339.98828125</ele>
        <time>2014-06-13T11:48:33Z</time>
      </trkpt>
      <trkpt lat="42.420523026958108" lon="2.251427974551916">
        <ele>2339.25</ele>
        <time>2014-06-13T11:48:38Z</time>
      </trkpt>
      <trkpt lat="42.420595027506351" lon="2.251414982602">
        <ele>2339.26171875</ele>
        <time>2014-06-13T11:48:46Z</time>
      </trkpt>
      <trkpt lat="42.420632997527719" lon="2.251535011455417">
        <ele>2337.81640625</ele>
        <time>2014-06-13T11:48:50Z</time>
      </trkpt>
      <trkpt lat="42.420599972829223" lon="2.251698961481452">
        <ele>2334.6484375</ele>
        <time>2014-06-13T11:49:04Z</time>
      </trkpt>
      <trkpt lat="42.420600978657603" lon="2.251764005050063">
        <ele>2333.0546875</ele>
        <time>2014-06-13T11:49:19Z</time>
      </trkpt>
      <trkpt lat="42.420610031113029" lon="2.251789988949895">
        <ele>2332.375</ele>
        <time>2014-06-13T11:49:31Z</time>
      </trkpt>
      <trkpt lat="42.420610031113029" lon="2.251837011426687">
        <ele>2331.2265625</ele>
        <time>2014-06-13T11:49:40Z</time>
      </trkpt>
      <trkpt lat="42.420609025284648" lon="2.251905994489789">
        <ele>2329.54296875</ele>
        <time>2014-06-13T11:49:56Z</time>
      </trkpt>
      <trkpt lat="42.420595027506351" lon="2.251942036673427">
        <ele>2328.75</ele>
        <time>2014-06-13T11:50:09Z</time>
      </trkpt>
      <trkpt lat="42.420631991699338" lon="2.252024011686444">
        <ele>2326.62109375</ele>
        <time>2014-06-13T11:50:23Z</time>
      </trkpt>
      <trkpt lat="42.420652024447918" lon="2.252063993364573">
        <ele>2325.52734375</ele>
        <time>2014-06-13T11:50:25Z</time>
      </trkpt>
      <trkpt lat="42.420673985034227" lon="2.252138005569577">
        <ele>2323.55859375</ele>
        <time>2014-06-13T11:50:29Z</time>
      </trkpt>
      <trkpt lat="42.420665016397834" lon="2.25218603387475">
        <ele>2322.53515625</ele>
        <time>2014-06-13T11:50:42Z</time>
      </trkpt>
      <trkpt lat="42.420634003356099" lon="2.252262979745865">
        <ele>2321.19921875</ele>
        <time>2014-06-13T11:52:40Z</time>
      </trkpt>
      <trkpt lat="42.420628974214196" lon="2.252281000837684">
        <ele>2320.87109375</ele>
        <time>2014-06-13T11:52:53Z</time>
      </trkpt>
      <trkpt lat="42.42063601501286" lon="2.252331962808967">
        <ele>2319.60546875</ele>
        <time>2014-06-13T11:53:01Z</time>
      </trkpt>
      <trkpt lat="42.420649006962776" lon="2.252418966963887">
        <ele>2317.5859375</ele>
        <time>2014-06-13T11:53:09Z</time>
      </trkpt>
      <trkpt lat="42.420620005577803" lon="2.252504965290427">
        <ele>2316.48046875</ele>
        <time>2014-06-13T11:53:17Z</time>
      </trkpt>
      <trkpt lat="42.420607013627887" lon="2.252655001357198">
        <ele>2313.890625</ele>
        <time>2014-06-13T11:53:30Z</time>
      </trkpt>
      <trkpt lat="42.420599972829223" lon="2.252703029662371">
        <ele>2313.1640625</ele>
        <time>2014-06-13T11:53:44Z</time>
      </trkpt>
      <trkpt lat="42.420568959787488" lon="2.252818029373884">
        <ele>2310.88671875</ele>
        <time>2014-06-13T11:53:55Z</time>
      </trkpt>
      <trkpt lat="42.420565020292997" lon="2.252828003838658">
        <ele>2310.71875</ele>
        <time>2014-06-13T11:54:09Z</time>
      </trkpt>
      <trkpt lat="42.420520009472966" lon="2.25291701965034">
        <ele>2309.421875</ele>
        <time>2014-06-13T11:54:16Z</time>
      </trkpt>
      <trkpt lat="42.420501988381147" lon="2.253021961078048">
        <ele>2306.87109375</ele>
        <time>2014-06-13T11:54:32Z</time>
      </trkpt>
      <trkpt lat="42.420468963682652" lon="2.253145007416606">
        <ele>2304.0703125</ele>
        <time>2014-06-13T11:54:47Z</time>
      </trkpt>
      <trkpt lat="42.420456977561116" lon="2.253191024065018">
        <ele>2302.984375</ele>
        <time>2014-06-13T11:55:00Z</time>
      </trkpt>
      <trkpt lat="42.420436022803187" lon="2.253324966877699">
        <ele>2299.26171875</ele>
        <time>2014-06-13T11:55:03Z</time>
      </trkpt>
      <trkpt lat="42.420423030853271" lon="2.253356985747814">
        <ele>2298.40234375</ele>
        <time>2014-06-13T11:57:26Z</time>
      </trkpt>
      <trkpt lat="42.420410038903356" lon="2.253412976861">
        <ele>2296.8515625</ele>
        <time>2014-06-13T11:57:41Z</time>
      </trkpt>
      <trkpt lat="42.420404003933072" lon="2.253419011831284">
        <ele>2296.71875</ele>
        <time>2014-06-13T11:58:08Z</time>
      </trkpt>
      <trkpt lat="42.420338960364461" lon="2.253574999049306">
        <ele>2292.9140625</ele>
        <time>2014-06-13T11:58:13Z</time>
      </trkpt>
      <trkpt lat="42.42033502086997" lon="2.2535839676857">
        <ele>2292.69921875</ele>
        <time>2014-06-13T11:58:18Z</time>
      </trkpt>
      <trkpt lat="42.420316999778152" lon="2.253656974062324">
        <ele>2290.84765625</ele>
        <time>2014-06-13T11:58:27Z</time>
      </trkpt>
      <trkpt lat="42.420304007828236" lon="2.253676000982523">
        <ele>2290.42578125</ele>
        <time>2014-06-13T11:58:39Z</time>
      </trkpt>
      <trkpt lat="42.420300990343094" lon="2.253753030672669">
        <ele>2288.35546875</ele>
      </trkpt>
      <trkpt lat="42.420329991728067" lon="2.253907006233931">
        <ele>2285.44921875</ele>
      </trkpt>
      <trkpt lat="42.420340972021222" lon="2.2539690323174">
        <ele>2284.6796875</ele>
      </trkpt>
      <trkpt lat="42.420339966192842" lon="2.254052013158798">
        <ele>2283.7421875</ele>
      </trkpt>
      <trkpt lat="42.420325968414545" lon="2.254088977351785">
        <ele>2283.375</ele>
      </trkpt>
      <trkpt lat="42.42031398229301" lon="2.25424999371171">
        <ele>2281.515625</ele>
      </trkpt>
      <trkpt lat="42.420282969251275" lon="2.254427019506693">
        <ele>2279.3515625</ele>
      </trkpt>
      <trkpt lat="42.420252962037921" lon="2.254584012553096">
        <ele>2277.34375</ele>
      </trkpt>
      <trkpt lat="42.420247010886669" lon="2.254603039473295">
        <ele>2277.1171875</ele>
      </trkpt>
      <trkpt lat="42.42022898979485" lon="2.254847958683968">
        <ele>2274.3515625</ele>
      </trkpt>
      <trkpt lat="42.42020602338016" lon="2.255045017227531">
        <ele>2272.1953125</ele>
      </trkpt>
      <trkpt lat="42.420190013945103" lon="2.25523897446692">
        <ele>2270.27734375</ele>
      </trkpt>
      <trkpt lat="42.420181967318058" lon="2.255273004993796">
        <ele>2269.93359375</ele>
      </trkpt>
      <trkpt lat="42.420175010338426" lon="2.255348023027182">
        <ele>2269.15234375</ele>
      </trkpt>
      <trkpt lat="42.420186996459961" lon="2.255553966388106">
        <ele>2266.9921875</ele>
      </trkpt>
      <trkpt lat="42.420152965933084" lon="2.255721017718315">
        <ele>2265.0234375</ele>
      </trkpt>
      <trkpt lat="42.420137962326407" lon="2.255918998271227">
        <ele>2262.25390625</ele>
      </trkpt>
      <trkpt lat="42.420121030882001" lon="2.256027963012457">
        <ele>2260.7265625</ele>
      </trkpt>
      <trkpt lat="42.420112984254956" lon="2.256151009351015">
        <ele>2259.4296875</ele>
      </trkpt>
      <trkpt lat="42.420093035325408" lon="2.256245976313949">
        <ele>2258.5078125</ele>
      </trkpt>
      <trkpt lat="42.42005699314177" lon="2.256443034857512">
        <ele>2256.13671875</ele>
      </trkpt>
      <trkpt lat="42.420048024505377" lon="2.256631040945649">
        <ele>2253.52734375</ele>
      </trkpt>
      <trkpt lat="42.420030003413558" lon="2.25669801235199">
        <ele>2252.37890625</ele>
      </trkpt>
      <trkpt lat="42.420019023120403" lon="2.256725002080202">
        <ele>2251.859375</ele>
      </trkpt>
      <trkpt lat="42.420009970664978" lon="2.256816029548645">
        <ele>2250.28125</ele>
      </trkpt>
      <trkpt lat="42.419909974560142" lon="2.256918959319592">
        <ele>2247.2109375</ele>
      </trkpt>
      <trkpt lat="42.419863035902381" lon="2.25699900649488">
        <ele>2245.4609375</ele>
      </trkpt>
      <trkpt lat="42.419845014810562" lon="2.257148958742619">
        <ele>2243.03515625</ele>
      </trkpt>
      <trkpt lat="42.419826993718743" lon="2.257173014804721">
        <ele>2242.453125</ele>
      </trkpt>
      <trkpt lat="42.419681986793876" lon="2.257245015352964">
        <ele>2239.921875</ele>
      </trkpt>
      <trkpt lat="42.419683998450637" lon="2.257315004244447">
        <ele>2238.63671875</ele>
      </trkpt>
      <trkpt lat="42.419683998450637" lon="2.257315004244447">
        <ele>2238.63671875</ele>
      </trkpt>
      <trkpt lat="42.419702019542456" lon="2.257369989529252">
        <ele>2237.9375</ele>
      </trkpt>
      <trkpt lat="42.419677963480353" lon="2.257418017834425">
        <ele>2236.5703125</ele>
      </trkpt>
      <trkpt lat="42.419682992622256" lon="2.257523965090513">
        <ele>2234.6328125</ele>
      </trkpt>
      <trkpt lat="42.419679975137115" lon="2.257620021700859">
        <ele>2232.4921875</ele>
      </trkpt>
      <trkpt lat="42.419651" lon="2.257737">
        <ele>2230.3</ele>
        <time>2014-06-14T05:13:12Z</time>
      </trkpt>
      <trkpt lat="42.419700" lon="2.257897">
        <ele>2226.9</ele>
        <time>2014-06-14T05:13:21Z</time>
      </trkpt>
      <trkpt lat="42.419830" lon="2.257956">
        <ele>2225.6</ele>
        <time>2014-06-14T05:13:32Z</time>
      </trkpt>
      <trkpt lat="42.419867" lon="2.257933">
        <ele>2226.8</ele>
        <time>2014-06-14T05:13:36Z</time>
      </trkpt>
      <trkpt lat="42.419903" lon="2.257931">
        <ele>2227.0</ele>
        <time>2014-06-14T05:13:39Z</time>
      </trkpt>
      <trkpt lat="42.420030" lon="2.257886">
        <ele>2227.2</ele>
        <time>2014-06-14T05:13:52Z</time>
      </trkpt>
      <trkpt lat="42.420063" lon="2.257888">
        <ele>2226.8</ele>
        <time>2014-06-14T05:13:57Z</time>
      </trkpt>
      <trkpt lat="42.420120" lon="2.257905">
        <ele>2225.7</ele>
        <time>2014-06-14T05:14:05Z</time>
      </trkpt>
      <trkpt lat="42.420168" lon="2.257939">
        <ele>2223.9</ele>
        <time>2014-06-14T05:14:11Z</time>
      </trkpt>
      <trkpt lat="42.420176" lon="2.257966">
        <ele>2222.9</ele>
        <time>2014-06-14T05:14:13Z</time>
      </trkpt>
      <trkpt lat="42.420241" lon="2.258006">
        <ele>2221.5</ele>
        <time>2014-06-14T05:14:20Z</time>
      </trkpt>
      <trkpt lat="42.420326" lon="2.258064">
        <ele>2218.0</ele>
        <time>2014-06-14T05:14:33Z</time>
      </trkpt>
      <trkpt lat="42.420336" lon="2.258125">
        <ele>2215.9</ele>
        <time>2014-06-14T05:14:44Z</time>
      </trkpt>
      <trkpt lat="42.420419" lon="2.258119">
        <ele>2213.3</ele>
        <time>2014-06-14T05:14:54Z</time>
      </trkpt>
      <trkpt lat="42.420434" lon="2.258128">
        <ele>2212.5</ele>
        <time>2014-06-14T05:14:56Z</time>
      </trkpt>
      <trkpt lat="42.420431" lon="2.258169">
        <ele>2211.4</ele>
        <time>2014-06-14T05:15:08Z</time>
      </trkpt>
      <trkpt lat="42.420430" lon="2.258177">
        <ele>2211.2</ele>
        <time>2014-06-14T05:15:12Z</time>
      </trkpt>
      <trkpt lat="42.420434" lon="2.258206">
        <ele>2210.2</ele>
        <time>2014-06-14T05:15:15Z</time>
      </trkpt>
      <trkpt lat="42.420416" lon="2.258293">
        <ele>2208.3</ele>
        <time>2014-06-14T05:15:26Z</time>
      </trkpt>
      <trkpt lat="42.420412" lon="2.258343">
        <ele>2207.0</ele>
        <time>2014-06-14T05:15:38Z</time>
      </trkpt>
      <trkpt lat="42.420413" lon="2.258391">
        <ele>2205.6</ele>
        <time>2014-06-14T05:15:50Z</time>
      </trkpt>
      <trkpt lat="42.420360" lon="2.258470">
        <ele>2204.9</ele>
        <time>2014-06-14T05:16:03Z</time>
      </trkpt>
      <trkpt lat="42.420374" lon="2.258553">
        <ele>2202.4</ele>
        <time>2014-06-14T05:16:15Z</time>
      </trkpt>
      <trkpt lat="42.420406" lon="2.258603">
        <ele>2200.5</ele>
        <time>2014-06-14T05:16:27Z</time>
      </trkpt>
      <trkpt lat="42.420433" lon="2.258664">
        <ele>2198.8</ele>
        <time>2014-06-14T05:16:40Z</time>
      </trkpt>
      <trkpt lat="42.420401" lon="2.258716">
        <ele>2197.9</ele>
        <time>2014-06-14T05:16:52Z</time>
      </trkpt>
      <trkpt lat="42.420385" lon="2.258795">
        <ele>2195.8</ele>
        <time>2014-06-14T05:17:04Z</time>
      </trkpt>
      <trkpt lat="42.420431" lon="2.258838">
        <ele>2194.8</ele>
        <time>2014-06-14T05:17:18Z</time>
      </trkpt>
      <trkpt lat="42.420423" lon="2.258902">
        <ele>2193.3</ele>
        <time>2014-06-14T05:17:31Z</time>
      </trkpt>
      <trkpt lat="42.420425" lon="2.258997">
        <ele>2191.2</ele>
        <time>2014-06-14T05:17:42Z</time>
      </trkpt>
      <trkpt lat="42.420426" lon="2.259136">
        <ele>2188.0</ele>
        <time>2014-06-14T05:17:56Z</time>
      </trkpt>
      <trkpt lat="42.420501" lon="2.259191">
        <ele>2187.9</ele>
        <time>2014-06-14T05:18:08Z</time>
      </trkpt>
      <trkpt lat="42.420547" lon="2.259236">
        <ele>2187.7</ele>
        <time>2014-06-14T05:18:20Z</time>
      </trkpt>
      <trkpt lat="42.420564" lon="2.259248">
        <ele>2188.1</ele>
        <time>2014-06-14T05:19:41Z</time>
      </trkpt>
      <trkpt lat="42.420564" lon="2.259319">
        <ele>2186.4</ele>
        <time>2014-06-14T05:19:51Z</time>
      </trkpt>
      <trkpt lat="42.420571" lon="2.259475">
        <ele>2183.8</ele>
        <time>2014-06-14T05:20:06Z</time>
      </trkpt>
      <trkpt lat="42.420556" lon="2.259564">
        <ele>2182.0</ele>
        <time>2014-06-14T05:20:18Z</time>
      </trkpt>
      <trkpt lat="42.420531" lon="2.259641">
        <ele>2181.3</ele>
        <time>2014-06-14T05:20:24Z</time>
      </trkpt>
      <trkpt lat="42.420544" lon="2.259785">
        <ele>2180.8</ele>
        <time>2014-06-14T05:20:37Z</time>
      </trkpt>
      <trkpt lat="42.420596" lon="2.259898">
        <ele>2181.0</ele>
        <time>2014-06-14T05:20:52Z</time>
      </trkpt>
      <trkpt lat="42.420601" lon="2.259993">
        <ele>2180.0</ele>
        <time>2014-06-14T05:21:04Z</time>
      </trkpt>
      <trkpt lat="42.420594" lon="2.260087">
        <ele>2178.8</ele>
        <time>2014-06-14T05:21:16Z</time>
      </trkpt>
      <trkpt lat="42.420597" lon="2.260187">
        <ele>2176.5</ele>
        <time>2014-06-14T05:21:29Z</time>
      </trkpt>
      <trkpt lat="42.420603" lon="2.260319">
        <ele>2172.9</ele>
        <time>2014-06-14T05:21:40Z</time>
      </trkpt>
      <trkpt lat="42.420613" lon="2.260445">
        <ele>2169.9</ele>
        <time>2014-06-14T05:21:51Z</time>
      </trkpt>
      <trkpt lat="42.420659" lon="2.260545">
        <ele>2167.8</ele>
        <time>2014-06-14T05:22:04Z</time>
      </trkpt>
      <trkpt lat="42.420687" lon="2.260629">
        <ele>2166.2</ele>
        <time>2014-06-14T05:22:14Z</time>
      </trkpt>
      <trkpt lat="42.420668" lon="2.260721">
        <ele>2164.0</ele>
        <time>2014-06-14T05:22:24Z</time>
      </trkpt>
      <trkpt lat="42.420619" lon="2.260807">
        <ele>2161.8</ele>
        <time>2014-06-14T05:22:35Z</time>
      </trkpt>
      <trkpt lat="42.420575" lon="2.260842">
        <ele>2160.7</ele>
        <time>2014-06-14T05:22:47Z</time>
      </trkpt>
      <trkpt lat="42.420542" lon="2.260920">
        <ele>2158.6</ele>
        <time>2014-06-14T05:23:00Z</time>
      </trkpt>
      <trkpt lat="42.420494" lon="2.260990">
        <ele>2157.1</ele>
        <time>2014-06-14T05:23:12Z</time>
      </trkpt>
      <trkpt lat="42.420473" lon="2.261123">
        <ele>2154.4</ele>
        <time>2014-06-14T05:23:25Z</time>
      </trkpt>
      <trkpt lat="42.420517" lon="2.261176">
        <ele>2153.2</ele>
        <time>2014-06-14T05:23:37Z</time>
      </trkpt>
      <trkpt lat="42.420519" lon="2.261233">
        <ele>2151.4</ele>
        <time>2014-06-14T05:23:48Z</time>
      </trkpt>
      <trkpt lat="42.420526" lon="2.261276">
        <ele>2149.9</ele>
        <time>2014-06-14T05:24:00Z</time>
      </trkpt>
      <trkpt lat="42.420514" lon="2.261345">
        <ele>2147.3</ele>
        <time>2014-06-14T05:24:14Z</time>
      </trkpt>
      <trkpt lat="42.420511" lon="2.261351">
        <ele>2147.1</ele>
        <time>2014-06-14T05:24:16Z</time>
      </trkpt>
      <trkpt lat="42.420458" lon="2.261346">
        <ele>2147.3</ele>
        <time>2014-06-14T05:24:29Z</time>
      </trkpt>
      <trkpt lat="42.420420" lon="2.261345">
        <ele>2147.1</ele>
        <time>2014-06-14T05:24:42Z</time>
      </trkpt>
      <trkpt lat="42.420402" lon="2.261367">
        <ele>2146.1</ele>
        <time>2014-06-14T05:24:56Z</time>
      </trkpt>
      <trkpt lat="42.420437" lon="2.261450">
        <ele>2143.3</ele>
        <time>2014-06-14T05:25:09Z</time>
      </trkpt>
      <trkpt lat="42.420471" lon="2.261483">
        <ele>2142.1</ele>
        <time>2014-06-14T05:25:25Z</time>
      </trkpt>
      <trkpt lat="42.420487" lon="2.261508">
        <ele>2141.1</ele>
        <time>2014-06-14T05:25:42Z</time>
      </trkpt>
      <trkpt lat="42.420501" lon="2.261555">
        <ele>2139.2</ele>
        <time>2014-06-14T05:25:57Z</time>
      </trkpt>
      <trkpt lat="42.420501" lon="2.261555">
        <ele>2139.2</ele>
        <time>2014-06-14T05:26:14Z</time>
      </trkpt>
      <trkpt lat="42.420517" lon="2.261562">
        <ele>2139.0</ele>
        <time>2014-06-14T05:26:31Z</time>
      </trkpt>
      <trkpt lat="42.420517" lon="2.261562">
        <ele>2139.0</ele>
        <time>2014-06-14T05:26:34Z</time>
      </trkpt>
      <trkpt lat="42.420516" lon="2.261604">
        <ele>2137.3</ele>
        <time>2014-06-14T05:26:47Z</time>
      </trkpt>
      <trkpt lat="42.420564" lon="2.261686">
        <ele>2134.2</ele>
        <time>2014-06-14T05:26:59Z</time>
      </trkpt>
      <trkpt lat="42.420623" lon="2.261739">
        <ele>2132.5</ele>
        <time>2014-06-14T05:27:11Z</time>
      </trkpt>
      <trkpt lat="42.420636" lon="2.261749">
        <ele>2132.2</ele>
        <time>2014-06-14T05:27:15Z</time>
      </trkpt>
      <trkpt lat="42.420652" lon="2.261823">
        <ele>2130.0</ele>
        <time>2014-06-14T05:27:26Z</time>
      </trkpt>
      <trkpt lat="42.420674" lon="2.261838">
        <ele>2129.5</ele>
        <time>2014-06-14T05:27:48Z</time>
      </trkpt>
      <trkpt lat="42.420754" lon="2.261893">
        <ele>2128.0</ele>
        <time>2014-06-14T05:28:03Z</time>
      </trkpt>
      <trkpt lat="42.420798" lon="2.261970">
        <ele>2126.1</ele>
        <time>2014-06-14T05:28:14Z</time>
      </trkpt>
      <trkpt lat="42.420816" lon="2.262088">
        <ele>2122.9</ele>
        <time>2014-06-14T05:28:26Z</time>
      </trkpt>
      <trkpt lat="42.420845" lon="2.262116">
        <ele>2122.2</ele>
        <time>2014-06-14T05:28:31Z</time>
      </trkpt>
      <trkpt lat="42.420840" lon="2.262134">
        <ele>2121.8</ele>
        <time>2014-06-14T05:28:43Z</time>
      </trkpt>
      <trkpt lat="42.420899" lon="2.262221">
        <ele>2119.5</ele>
        <time>2014-06-14T05:28:54Z</time>
      </trkpt>
      <trkpt lat="42.420980" lon="2.262357">
        <ele>2115.8</ele>
        <time>2014-06-14T05:29:09Z</time>
      </trkpt>
      <trkpt lat="42.420986" lon="2.262357">
        <ele>2115.8</ele>
        <time>2014-06-14T05:29:10Z</time>
      </trkpt>
      <trkpt lat="42.421006" lon="2.262382">
        <ele>2115.2</ele>
        <time>2014-06-14T05:29:19Z</time>
      </trkpt>
      <trkpt lat="42.421033" lon="2.262482">
        <ele>2112.7</ele>
        <time>2014-06-14T05:29:30Z</time>
      </trkpt>
      <trkpt lat="42.421071" lon="2.262588">
        <ele>2109.6</ele>
        <time>2014-06-14T05:29:44Z</time>
      </trkpt>
      <trkpt lat="42.421083" lon="2.262604">
        <ele>2109.1</ele>
        <time>2014-06-14T05:29:50Z</time>
      </trkpt>
      <trkpt lat="42.421157" lon="2.262701">
        <ele>2106.9</ele>
        <time>2014-06-14T05:30:02Z</time>
      </trkpt>
      <trkpt lat="42.421184" lon="2.262781">
        <ele>2105.0</ele>
        <time>2014-06-14T05:30:13Z</time>
      </trkpt>
      <trkpt lat="42.421228" lon="2.262837">
        <ele>2104.7</ele>
        <time>2014-06-14T05:37:36Z</time>
      </trkpt>
      <trkpt lat="42.421265" lon="2.262951">
        <ele>2103.2</ele>
        <time>2014-06-14T05:37:45Z</time>
      </trkpt>
      <trkpt lat="42.421298" lon="2.263023">
        <ele>2102.4</ele>
        <time>2014-06-14T05:37:51Z</time>
      </trkpt>
      <trkpt lat="42.421313" lon="2.263079">
        <ele>2101.5</ele>
        <time>2014-06-14T05:37:56Z</time>
      </trkpt>
      <trkpt lat="42.421334" lon="2.263120">
        <ele>2101.2</ele>
        <time>2014-06-14T05:38:00Z</time>
      </trkpt>
      <trkpt lat="42.421324" lon="2.263239">
        <ele>2097.8</ele>
        <time>2014-06-14T05:38:09Z</time>
      </trkpt>
      <trkpt lat="42.421342" lon="2.263333">
        <ele>2095.9</ele>
        <time>2014-06-14T05:38:15Z</time>
      </trkpt>
      <trkpt lat="42.421405" lon="2.263466">
        <ele>2095.3</ele>
        <time>2014-06-14T05:38:28Z</time>
      </trkpt>
      <trkpt lat="42.421424" lon="2.263623">
        <ele>2092.1</ele>
        <time>2014-06-14T05:38:40Z</time>
      </trkpt>
      <trkpt lat="42.421428" lon="2.263795">
        <ele>2087.3</ele>
        <time>2014-06-14T05:38:54Z</time>
      </trkpt>
      <trkpt lat="42.421451" lon="2.263854">
        <ele>2086.3</ele>
        <time>2014-06-14T05:39:00Z</time>
      </trkpt>
      <trkpt lat="42.421477" lon="2.263914">
        <ele>2085.2</ele>
        <time>2014-06-14T05:39:16Z</time>
      </trkpt>
      <trkpt lat="42.421479" lon="2.263913">
        <ele>2085.3</ele>
        <time>2014-06-14T05:39:48Z</time>
      </trkpt>
      <trkpt lat="42.421497" lon="2.263941">
        <ele>2085.0</ele>
        <time>2014-06-14T05:40:17Z</time>
      </trkpt>
      <trkpt lat="42.421516" lon="2.264085">
        <ele>2082.2</ele>
        <time>2014-06-14T05:40:31Z</time>
      </trkpt>
      <trkpt lat="42.421517" lon="2.264084">
        <ele>2082.3</ele>
        <time>2014-06-14T05:40:55Z</time>
      </trkpt>
      <trkpt lat="42.421511" lon="2.264092">
        <ele>2082.1</ele>
        <time>2014-06-14T05:41:08Z</time>
      </trkpt>
      <trkpt lat="42.421520" lon="2.264149">
        <ele>2082.0</ele>
        <time>2014-06-14T05:41:17Z</time>
      </trkpt>
      <trkpt lat="42.421562" lon="2.264363">
        <ele>2081.8</ele>
        <time>2014-06-14T05:41:34Z</time>
      </trkpt>
      <trkpt lat="42.421578" lon="2.264408">
        <ele>2081.6</ele>
        <time>2014-06-14T05:41:37Z</time>
      </trkpt>
      <trkpt lat="42.421556" lon="2.264564">
        <ele>2080.1</ele>
        <time>2014-06-14T05:41:50Z</time>
      </trkpt>
      <trkpt lat="42.421503" lon="2.264689">
        <ele>2075.2</ele>
        <time>2014-06-14T05:42:04Z</time>
      </trkpt>
      <trkpt lat="42.421478" lon="2.264728">
        <ele>2073.0</ele>
        <time>2014-06-14T05:42:17Z</time>
      </trkpt>
      <trkpt lat="42.421475" lon="2.264794">
        <ele>2071.2</ele>
        <time>2014-06-14T05:42:31Z</time>
      </trkpt>
      <trkpt lat="42.421492" lon="2.264873">
        <ele>2069.3</ele>
        <time>2014-06-14T05:42:44Z</time>
      </trkpt>
      <trkpt lat="42.421492" lon="2.264873">
        <ele>2069.3</ele>
        <time>2014-06-14T05:42:45Z</time>
      </trkpt>
      <trkpt lat="42.421505" lon="2.265051">
        <ele>2064.0</ele>
        <time>2014-06-14T05:42:56Z</time>
      </trkpt>
      <trkpt lat="42.421521" lon="2.265082">
        <ele>2063.7</ele>
        <time>2014-06-14T05:42:59Z</time>
      </trkpt>
      <trkpt lat="42.421611" lon="2.265204">
        <ele>2062.4</ele>
        <time>2014-06-14T05:43:12Z</time>
      </trkpt>
      <trkpt lat="42.421591" lon="2.265218">
        <ele>2061.5</ele>
        <time>2014-06-14T05:43:25Z</time>
      </trkpt>
      <trkpt lat="42.421591" lon="2.265218">
        <ele>2061.5</ele>
        <time>2014-06-14T05:43:38Z</time>
      </trkpt>
      <trkpt lat="42.421552" lon="2.265256">
        <ele>2059.5</ele>
        <time>2014-06-14T05:43:49Z</time>
      </trkpt>
      <trkpt lat="42.421525" lon="2.265341">
        <ele>2055.9</ele>
        <time>2014-06-14T05:44:00Z</time>
      </trkpt>
      <trkpt lat="42.421490" lon="2.265482">
        <ele>2050.2</ele>
        <time>2014-06-14T05:44:14Z</time>
      </trkpt>
      <trkpt lat="42.421442" lon="2.265540">
        <ele>2047.2</ele>
        <time>2014-06-14T05:44:27Z</time>
      </trkpt>
      <trkpt lat="42.421402" lon="2.265652">
        <ele>2043.2</ele>
        <time>2014-06-14T05:44:41Z</time>
      </trkpt>
      <trkpt lat="42.421402" lon="2.265685">
        <ele>2042.4</ele>
        <time>2014-06-14T05:44:56Z</time>
      </trkpt>
      <trkpt lat="42.421393" lon="2.265704">
        <ele>2041.7</ele>
        <time>2014-06-14T05:45:11Z</time>
      </trkpt>
      <trkpt lat="42.421327" lon="2.265799">
        <ele>2037.9</ele>
        <time>2014-06-14T05:45:26Z</time>
      </trkpt>
      <trkpt lat="42.421318" lon="2.265841">
        <ele>2036.9</ele>
        <time>2014-06-14T05:45:38Z</time>
      </trkpt>
      <trkpt lat="42.421318" lon="2.265841">
        <ele>2036.9</ele>
        <time>2014-06-14T05:45:57Z</time>
      </trkpt>
      <trkpt lat="42.421334" lon="2.266003">
        <ele>2036.0</ele>
        <time>2014-06-14T05:46:10Z</time>
      </trkpt>
      <trkpt lat="42.421339" lon="2.266106">
        <ele>2035.4</ele>
        <time>2014-06-14T05:46:17Z</time>
      </trkpt>
      <trkpt lat="42.421353" lon="2.266168">
        <ele>2035.5</ele>
        <time>2014-06-14T05:46:23Z</time>
      </trkpt>
      <trkpt lat="42.421341" lon="2.266252">
        <ele>2034.2</ele>
        <time>2014-06-14T05:46:37Z</time>
      </trkpt>
      <trkpt lat="42.421406" lon="2.266342">
        <ele>2033.8</ele>
        <time>2014-06-14T05:46:49Z</time>
      </trkpt>
      <trkpt lat="42.421403" lon="2.266400">
        <ele>2032.4</ele>
        <time>2014-06-14T05:47:01Z</time>
      </trkpt>
      <trkpt lat="42.421417" lon="2.266425">
        <ele>2031.8</ele>
        <time>2014-06-14T05:47:05Z</time>
      </trkpt>
      <trkpt lat="42.421440" lon="2.266463">
        <ele>2030.8</ele>
        <time>2014-06-14T05:47:18Z</time>
      </trkpt>
      <trkpt lat="42.421442" lon="2.266458">
        <ele>2030.9</ele>
        <time>2014-06-14T05:47:31Z</time>
      </trkpt>
      <trkpt lat="42.421442" lon="2.266458">
        <ele>2030.9</ele>
        <time>2014-06-14T05:47:41Z</time>
      </trkpt>
      <trkpt lat="42.421429" lon="2.266529">
        <ele>2028.5</ele>
        <time>2014-06-14T05:47:52Z</time>
      </trkpt>
      <trkpt lat="42.421517" lon="2.266729">
        <ele>2023.2</ele>
        <time>2014-06-14T05:53:38Z</time>
      </trkpt>
      <trkpt lat="42.421653" lon="2.266864">
        <ele>2021.2</ele>
        <time>2014-06-14T05:53:43Z</time>
      </trkpt>
      <trkpt lat="42.421843" lon="2.266992">
        <ele>2018.1</ele>
        <time>2014-06-14T05:53:57Z</time>
      </trkpt>
      <trkpt lat="42.422039" lon="2.267127">
        <ele>2017.4</ele>
        <time>2014-06-14T05:54:04Z</time>
      </trkpt>
      <trkpt lat="42.422178" lon="2.267259">
        <ele>2017.4</ele>
        <time>2014-06-14T05:54:13Z</time>
      </trkpt>
      <trkpt lat="42.422309" lon="2.267386">
        <ele>2017.5</ele>
        <time>2014-06-14T05:54:28Z</time>
      </trkpt>
      <trkpt lat="42.422372" lon="2.267604">
        <ele>2018.8</ele>
        <time>2014-06-14T05:54:45Z</time>
      </trkpt>
      <trkpt lat="42.422340" lon="2.267788">
        <ele>2019.6</ele>
        <time>2014-06-14T05:54:47Z</time>
      </trkpt>
      <trkpt lat="42.422205" lon="2.267874">
        <ele>2017.6</ele>
        <time>2014-06-14T05:55:05Z</time>
      </trkpt>
      <trkpt lat="42.422038" lon="2.267915">
        <ele>2015.4</ele>
        <time>2014-06-14T05:55:21Z</time>
      </trkpt>
      <trkpt lat="42.421927" lon="2.267909">
        <ele>2013.1</ele>
        <time>2014-06-14T05:55:46Z</time>
      </trkpt>
      <trkpt lat="42.421864" lon="2.267863">
        <ele>2011.2</ele>
        <time>2014-06-14T05:56:13Z</time>
      </trkpt>
      <trkpt lat="42.421827" lon="2.267901">
        <ele>2010.8</ele>
        <time>2014-06-14T05:56:14Z</time>
      </trkpt>
      <trkpt lat="42.421702" lon="2.267936">
        <ele>2007.7</ele>
        <time>2014-06-14T05:56:26Z</time>
      </trkpt>
      <trkpt lat="42.421643" lon="2.267990">
        <ele>2006.3</ele>
        <time>2014-06-14T05:56:34Z</time>
      </trkpt>
      <trkpt lat="42.421594" lon="2.268039">
        <ele>2005.0</ele>
        <time>2014-06-14T05:56:47Z</time>
      </trkpt>
      <trkpt lat="42.421488" lon="2.268202">
        <ele>2003.9</ele>
        <time>2014-06-14T05:57:00Z</time>
      </trkpt>
      <trkpt lat="42.421334" lon="2.268388">
        <ele>2001.3</ele>
        <time>2014-06-14T05:57:04Z</time>
      </trkpt>
      <trkpt lat="42.421323" lon="2.268409">
        <ele>2001.2</ele>
        <time>2014-06-14T05:57:07Z</time>
      </trkpt>
      <trkpt lat="42.421144" lon="2.268578">
        <ele>1996.7</ele>
        <time>2014-06-14T05:57:11Z</time>
      </trkpt>
      <trkpt lat="42.420996" lon="2.268682">
        <ele>1993.2</ele>
        <time>2014-06-14T05:57:13Z</time>
      </trkpt>
      <trkpt lat="42.420996" lon="2.268682">
        <ele>1993.2</ele>
        <time>2014-06-14T05:57:27Z</time>
      </trkpt>
      <trkpt lat="42.420993" lon="2.268681">
        <ele>1993.1</ele>
        <time>2014-06-14T05:57:41Z</time>
      </trkpt>
      <trkpt lat="42.420993" lon="2.268681">
        <ele>1993.1</ele>
        <time>2014-06-14T05:57:55Z</time>
      </trkpt>
      <trkpt lat="42.420932" lon="2.268593">
        <ele>1991.0</ele>
        <time>2014-06-14T05:58:09Z</time>
      </trkpt>
      <trkpt lat="42.420863" lon="2.268519">
        <ele>1989.0</ele>
        <time>2014-06-14T05:58:26Z</time>
      </trkpt>
      <trkpt lat="42.420777" lon="2.268445">
        <ele>1986.6</ele>
        <time>2014-06-14T05:58:40Z</time>
      </trkpt>
      <trkpt lat="42.420704" lon="2.268353">
        <ele>1984.7</ele>
        <time>2014-06-14T05:58:51Z</time>
      </trkpt>
      <trkpt lat="42.420684" lon="2.268343">
        <ele>1984.1</ele>
        <time>2014-06-14T05:59:04Z</time>
      </trkpt>
      <trkpt lat="42.420681" lon="2.268376">
        <ele>1984.1</ele>
        <time>2014-06-14T05:59:18Z</time>
      </trkpt>
      <trkpt lat="42.420680" lon="2.268426">
        <ele>1984.0</ele>
        <time>2014-06-14T05:59:33Z</time>
      </trkpt>
      <trkpt lat="42.420679" lon="2.268453">
        <ele>1984.0</ele>
        <time>2014-06-14T05:59:47Z</time>
      </trkpt>
      <trkpt lat="42.420640" lon="2.268612">
        <ele>1983.1</ele>
        <time>2014-06-14T06:00:00Z</time>
      </trkpt>
      <trkpt lat="42.420626" lon="2.268675">
        <ele>1983.2</ele>
        <time>2014-06-14T06:00:13Z</time>
      </trkpt>
      <trkpt lat="42.420595" lon="2.268810">
        <ele>1982.9</ele>
        <time>2014-06-14T06:00:31Z</time>
      </trkpt>
      <trkpt lat="42.420519" lon="2.268892">
        <ele>1980.9</ele>
        <time>2014-06-14T06:00:43Z</time>
      </trkpt>
      <trkpt lat="42.420441" lon="2.269064">
        <ele>1978.6</ele>
        <time>2014-06-14T06:00:55Z</time>
      </trkpt>
      <trkpt lat="42.420390" lon="2.269177">
        <ele>1977.2</ele>
        <time>2014-06-14T06:01:07Z</time>
      </trkpt>
      <trkpt lat="42.420364" lon="2.269213">
        <ele>1977.0</ele>
        <time>2014-06-14T06:01:19Z</time>
      </trkpt>
      <trkpt lat="42.420308" lon="2.269327">
        <ele>1976.4</ele>
        <time>2014-06-14T06:01:34Z</time>
      </trkpt>
      <trkpt lat="42.420226" lon="2.269429">
        <ele>1974.3</ele>
        <time>2014-06-14T06:01:47Z</time>
      </trkpt>
      <trkpt lat="42.420140" lon="2.269552">
        <ele>1971.3</ele>
        <time>2014-06-14T06:02:00Z</time>
      </trkpt>
      <trkpt lat="42.420055" lon="2.269637">
        <ele>1966.5</ele>
        <time>2014-06-14T06:02:14Z</time>
      </trkpt>
      <trkpt lat="42.419974" lon="2.269728">
        <ele>1963.3</ele>
        <time>2014-06-14T06:02:28Z</time>
      </trkpt>
      <trkpt lat="42.419938" lon="2.269766">
        <ele>1962.2</ele>
        <time>2014-06-14T06:02:41Z</time>
      </trkpt>
      <trkpt lat="42.419938" lon="2.269766">
        <ele>1962.2</ele>
        <time>2014-06-14T06:02:53Z</time>
      </trkpt>
      <trkpt lat="42.419895" lon="2.269901">
        <ele>1961.3</ele>
        <time>2014-06-14T06:03:06Z</time>
      </trkpt>
      <trkpt lat="42.419867" lon="2.270060">
        <ele>1961.0</ele>
        <time>2014-06-14T06:03:18Z</time>
      </trkpt>
      <trkpt lat="42.419837" lon="2.270193">
        <ele>1959.4</ele>
        <time>2014-06-14T06:03:31Z</time>
      </trkpt>
      <trkpt lat="42.419807" lon="2.270351">
        <ele>1959.2</ele>
        <time>2014-06-14T06:03:35Z</time>
      </trkpt>
      <trkpt lat="42.419746" lon="2.270504">
        <ele>1958.8</ele>
        <time>2014-06-14T06:03:45Z</time>
      </trkpt>
      <trkpt lat="42.419696" lon="2.270647">
        <ele>1958.8</ele>
        <time>2014-06-14T06:03:57Z</time>
      </trkpt>
      <trkpt lat="42.419613" lon="2.270741">
        <ele>1955.6</ele>
        <time>2014-06-14T06:04:07Z</time>
      </trkpt>
      <trkpt lat="42.419518" lon="2.270817">
        <ele>1951.4</ele>
        <time>2014-06-14T06:04:13Z</time>
      </trkpt>
      <trkpt lat="42.419395" lon="2.270879">
        <ele>1947.8</ele>
        <time>2014-06-14T06:04:22Z</time>
      </trkpt>
      <trkpt lat="42.419281" lon="2.270930">
        <ele>1945.0</ele>
        <time>2014-06-14T06:04:36Z</time>
      </trkpt>
      <trkpt lat="42.419179" lon="2.270958">
        <ele>1944.4</ele>
        <time>2014-06-14T06:04:49Z</time>
      </trkpt>
      <trkpt lat="42.419105" lon="2.270973">
        <ele>1944.4</ele>
        <time>2014-06-14T06:05:01Z</time>
      </trkpt>
      <trkpt lat="42.419015" lon="2.270962">
        <ele>1942.9</ele>
        <time>2014-06-14T06:05:12Z</time>
      </trkpt>
      <trkpt lat="42.418950" lon="2.270966">
        <ele>1941.6</ele>
        <time>2014-06-14T06:05:28Z</time>
      </trkpt>
      <trkpt lat="42.418943" lon="2.270961">
        <ele>1941.2</ele>
        <time>2014-06-14T06:05:34Z</time>
      </trkpt>
      <trkpt lat="42.418881" lon="2.270989">
        <ele>1939.9</ele>
        <time>2014-06-14T06:05:42Z</time>
      </trkpt>
      <trkpt lat="42.418780" lon="2.271007">
        <ele>1936.4</ele>
        <time>2014-06-14T06:05:55Z</time>
      </trkpt>
      <trkpt lat="42.418780" lon="2.271007">
        <ele>1936.4</ele>
        <time>2014-06-14T06:06:07Z</time>
      </trkpt>
      <trkpt lat="42.418723" lon="2.271005">
        <ele>1933.9</ele>
        <time>2014-06-14T06:06:21Z</time>
      </trkpt>
      <trkpt lat="42.418628" lon="2.271026">
        <ele>1930.5</ele>
        <time>2014-06-14T06:06:33Z</time>
      </trkpt>
      <trkpt lat="42.418512" lon="2.271098">
        <ele>1927.4</ele>
        <time>2014-06-14T06:06:36Z</time>
      </trkpt>
      <trkpt lat="42.418469" lon="2.271170">
        <ele>1927.0</ele>
        <time>2014-06-14T06:06:43Z</time>
      </trkpt>
      <trkpt lat="42.418400" lon="2.271225">
        <ele>1925.2</ele>
        <time>2014-06-14T06:06:56Z</time>
      </trkpt>
      <trkpt lat="42.418324" lon="2.271320">
        <ele>1923.7</ele>
        <time>2014-06-14T06:06:57Z</time>
      </trkpt>
      <trkpt lat="42.418229" lon="2.271482">
        <ele>1923.7</ele>
        <time>2014-06-14T06:07:08Z</time>
      </trkpt>
      <trkpt lat="42.418191" lon="2.271540">
        <ele>1924.7</ele>
        <time>2014-06-14T06:07:20Z</time>
      </trkpt>
      <trkpt lat="42.418133" lon="2.271587">
        <ele>1924.6</ele>
        <time>2014-06-14T06:07:31Z</time>
      </trkpt>
      <trkpt lat="42.418049" lon="2.271625">
        <ele>1923.5</ele>
        <time>2014-06-14T06:07:32Z</time>
      </trkpt>
      <trkpt lat="42.417966" lon="2.271656">
        <ele>1922.2</ele>
        <time>2014-06-14T06:07:44Z</time>
      </trkpt>
      <trkpt lat="42.417860" lon="2.271710">
        <ele>1920.1</ele>
        <time>2014-06-14T06:07:58Z</time>
      </trkpt>
      <trkpt lat="42.417774" lon="2.271795">
        <ele>1917.9</ele>
        <time>2014-06-14T06:08:10Z</time>
      </trkpt>
      <trkpt lat="42.417754" lon="2.271796">
        <ele>1917.3</ele>
        <time>2014-06-14T06:08:23Z</time>
      </trkpt>
      <trkpt lat="42.417702" lon="2.271832">
        <ele>1915.7</ele>
        <time>2014-06-14T06:08:36Z</time>
      </trkpt>
      <trkpt lat="42.417606" lon="2.271877">
        <ele>1911.7</ele>
        <time>2014-06-14T06:08:49Z</time>
      </trkpt>
      <trkpt lat="42.417600" lon="2.271885">
        <ele>1911.4</ele>
        <time>2014-06-14T06:09:11Z</time>
      </trkpt>
      <trkpt lat="42.417538" lon="2.271936">
        <ele>1908.1</ele>
        <time>2014-06-14T06:09:23Z</time>
      </trkpt>
      <trkpt lat="42.417467" lon="2.271999">
        <ele>1905.8</ele>
        <time>2014-06-14T06:09:26Z</time>
      </trkpt>
      <trkpt lat="42.417382" lon="2.272080">
        <ele>1904.5</ele>
        <time>2014-06-14T06:09:40Z</time>
      </trkpt>
      <trkpt lat="42.417377" lon="2.272089">
        <ele>1904.6</ele>
        <time>2014-06-14T06:09:53Z</time>
      </trkpt>
      <trkpt lat="42.417300" lon="2.272167">
        <ele>1905.4</ele>
        <time>2014-06-14T06:10:04Z</time>
      </trkpt>
      <trkpt lat="42.417212" lon="2.272198">
        <ele>1905.1</ele>
        <time>2014-06-14T06:10:09Z</time>
      </trkpt>
      <trkpt lat="42.417139" lon="2.272165">
        <ele>1903.4</ele>
        <time>2014-06-14T06:10:23Z</time>
      </trkpt>
      <trkpt lat="42.417091" lon="2.272184">
        <ele>1903.0</ele>
        <time>2014-06-14T06:10:36Z</time>
      </trkpt>
      <trkpt lat="42.417020" lon="2.272221">
        <ele>1902.1</ele>
        <time>2014-06-14T06:10:50Z</time>
      </trkpt>
      <trkpt lat="42.416970" lon="2.272205">
        <ele>1901.0</ele>
        <time>2014-06-14T06:11:02Z</time>
      </trkpt>
      <trkpt lat="42.416928" lon="2.272230">
        <ele>1900.3</ele>
        <time>2014-06-14T06:11:14Z</time>
      </trkpt>
      <trkpt lat="42.416860" lon="2.272278">
        <ele>1898.9</ele>
        <time>2014-06-14T06:11:27Z</time>
      </trkpt>
      <trkpt lat="42.416842" lon="2.272313">
        <ele>1898.3</ele>
        <time>2014-06-14T06:11:40Z</time>
      </trkpt>
      <trkpt lat="42.416727" lon="2.272367">
        <ele>1895.2</ele>
        <time>2014-06-14T06:11:52Z</time>
      </trkpt>
      <trkpt lat="42.416646" lon="2.272468">
        <ele>1891.7</ele>
        <time>2014-06-14T06:12:05Z</time>
      </trkpt>
      <trkpt lat="42.416570" lon="2.272567">
        <ele>1888.3</ele>
        <time>2014-06-14T06:12:12Z</time>
      </trkpt>
      <trkpt lat="42.416542" lon="2.272618">
        <ele>1887.5</ele>
        <time>2014-06-14T06:12:22Z</time>
      </trkpt>
      <trkpt lat="42.416463" lon="2.272727">
        <ele>1885.7</ele>
        <time>2014-06-14T06:12:36Z</time>
      </trkpt>
      <trkpt lat="42.416406" lon="2.272819">
        <ele>1883.8</ele>
        <time>2014-06-14T06:12:48Z</time>
      </trkpt>
      <trkpt lat="42.416338" lon="2.272913">
        <ele>1881.7</ele>
        <time>2014-06-14T06:13:09Z</time>
      </trkpt>
      <trkpt lat="42.416281" lon="2.273028">
        <ele>1880.1</ele>
        <time>2014-06-14T06:13:23Z</time>
      </trkpt>
      <trkpt lat="42.416256" lon="2.273149">
        <ele>1880.0</ele>
        <time>2014-06-14T06:13:37Z</time>
      </trkpt>
      <trkpt lat="42.416200" lon="2.273250">
        <ele>1878.4</ele>
        <time>2014-06-14T06:13:51Z</time>
      </trkpt>
      <trkpt lat="42.416147" lon="2.273347">
        <ele>1877.4</ele>
        <time>2014-06-14T06:14:05Z</time>
      </trkpt>
      <trkpt lat="42.416141" lon="2.273478">
        <ele>1876.1</ele>
        <time>2014-06-14T06:14:17Z</time>
      </trkpt>
      <trkpt lat="42.416152" lon="2.273591">
        <ele>1874.9</ele>
        <time>2014-06-14T06:14:39Z</time>
      </trkpt>
      <trkpt lat="42.416161" lon="2.273649">
        <ele>1874.3</ele>
        <time>2014-06-14T06:14:45Z</time>
      </trkpt>
      <trkpt lat="42.416185" lon="2.273753">
        <ele>1873.2</ele>
        <time>2014-06-14T06:14:57Z</time>
      </trkpt>
      <trkpt lat="42.416195" lon="2.273905">
        <ele>1872.0</ele>
        <time>2014-06-14T06:16:17Z</time>
      </trkpt>
      <trkpt lat="42.416178" lon="2.273989">
        <ele>1870.7</ele>
        <time>2014-06-14T06:16:28Z</time>
      </trkpt>
      <trkpt lat="42.416178" lon="2.273990">
        <ele>1870.7</ele>
        <time>2014-06-14T06:16:42Z</time>
      </trkpt>
      <trkpt lat="42.416120" lon="2.274126">
        <ele>1866.8</ele>
        <time>2014-06-14T06:16:53Z</time>
      </trkpt>
      <trkpt lat="42.416072" lon="2.274293">
        <ele>1864.2</ele>
        <time>2014-06-14T06:16:57Z</time>
      </trkpt>
      <trkpt lat="42.416031" lon="2.274455">
        <ele>1864.6</ele>
        <time>2014-06-14T06:17:00Z</time>
      </trkpt>
      <trkpt lat="42.415999" lon="2.274563">
        <ele>1865.3</ele>
        <time>2014-06-14T06:17:07Z</time>
      </trkpt>
      <trkpt lat="42.415950" lon="2.274594">
        <ele>1863.7</ele>
        <time>2014-06-14T06:17:20Z</time>
      </trkpt>
      <trkpt lat="42.415950" lon="2.274594">
        <ele>1863.7</ele>
        <time>2014-06-14T06:17:31Z</time>
      </trkpt>
      <trkpt lat="42.415950" lon="2.274594">
        <ele>1863.7</ele>
        <time>2014-06-14T06:17:39Z</time>
      </trkpt>
      <trkpt lat="42.415838" lon="2.274642">
        <ele>1861.1</ele>
        <time>2014-06-14T06:17:52Z</time>
      </trkpt>
      <trkpt lat="42.415793" lon="2.274653">
        <ele>1860.5</ele>
        <time>2014-06-14T06:17:55Z</time>
      </trkpt>
      <trkpt lat="42.415731" lon="2.274658">
        <ele>1859.8</ele>
        <time>2014-06-14T06:17:59Z</time>
      </trkpt>
      <trkpt lat="42.415669" lon="2.274692">
        <ele>1859.4</ele>
        <time>2014-06-14T06:18:13Z</time>
      </trkpt>
      <trkpt lat="42.415643" lon="2.274692">
        <ele>1859.3</ele>
        <time>2014-06-14T06:18:17Z</time>
      </trkpt>
      <trkpt lat="42.415602" lon="2.274695">
        <ele>1858.1</ele>
        <time>2014-06-14T06:18:21Z</time>
      </trkpt>
      <trkpt lat="42.415571" lon="2.274725">
        <ele>1857.0</ele>
        <time>2014-06-14T06:18:32Z</time>
      </trkpt>
      <trkpt lat="42.415498" lon="2.274791">
        <ele>1855.1</ele>
        <time>2014-06-14T06:18:38Z</time>
      </trkpt>
      <trkpt lat="42.415356" lon="2.274867">
        <ele>1851.1</ele>
        <time>2014-06-14T06:18:54Z</time>
      </trkpt>
      <trkpt lat="42.415264" lon="2.274913">
        <ele>1848.9</ele>
        <time>2014-06-14T06:19:06Z</time>
      </trkpt>
      <trkpt lat="42.415189" lon="2.274943">
        <ele>1847.7</ele>
        <time>2014-06-14T06:19:08Z</time>
      </trkpt>
      <trkpt lat="42.415060" lon="2.274996">
        <ele>1845.8</ele>
        <time>2014-06-14T06:19:21Z</time>
      </trkpt>
      <trkpt lat="42.415035" lon="2.274998">
        <ele>1845.2</ele>
        <time>2014-06-14T06:19:34Z</time>
      </trkpt>
      <trkpt lat="42.414998" lon="2.274990">
        <ele>1844.2</ele>
        <time>2014-06-14T06:19:48Z</time>
      </trkpt>
      <trkpt lat="42.414843" lon="2.275005">
        <ele>1842.9</ele>
        <time>2014-06-14T06:19:53Z</time>
      </trkpt>
      <trkpt lat="42.414804" lon="2.275023">
        <ele>1842.7</ele>
        <time>2014-06-14T06:20:05Z</time>
      </trkpt>
      <trkpt lat="42.414764" lon="2.275043">
        <ele>1842.7</ele>
        <time>2014-06-14T06:20:18Z</time>
      </trkpt>
      <trkpt lat="42.414658" lon="2.275067">
        <ele>1841.9</ele>
        <time>2014-06-14T06:20:30Z</time>
      </trkpt>
      <trkpt lat="42.414601" lon="2.275082">
        <ele>1841.2</ele>
        <time>2014-06-14T06:20:35Z</time>
      </trkpt>
      <trkpt lat="42.414457" lon="2.275136">
        <ele>1837.8</ele>
        <time>2014-06-14T06:20:48Z</time>
      </trkpt>
      <trkpt lat="42.414365" lon="2.275218">
        <ele>1835.0</ele>
        <time>2014-06-14T06:20:49Z</time>
      </trkpt>
      <trkpt lat="42.414354" lon="2.275240">
        <ele>1834.7</ele>
        <time>2014-06-14T06:21:02Z</time>
      </trkpt>
      <trkpt lat="42.414273" lon="2.275271">
        <ele>1832.0</ele>
        <time>2014-06-14T06:21:09Z</time>
      </trkpt>
      <trkpt lat="42.414218" lon="2.275306">
        <ele>1830.4</ele>
        <time>2014-06-14T06:21:11Z</time>
      </trkpt>
      <trkpt lat="42.414136" lon="2.275283">
        <ele>1827.7</ele>
        <time>2014-06-14T06:21:17Z</time>
      </trkpt>
      <trkpt lat="42.414087" lon="2.275285">
        <ele>1825.9</ele>
        <time>2014-06-14T06:21:31Z</time>
      </trkpt>
      <trkpt lat="42.414000" lon="2.275288">
        <ele>1823.2</ele>
        <time>2014-06-14T06:21:45Z</time>
      </trkpt>
      <trkpt lat="42.413895" lon="2.275325">
        <ele>1820.8</ele>
        <time>2014-06-14T06:21:56Z</time>
      </trkpt>
      <trkpt lat="42.413797" lon="2.275363">
        <ele>1820.0</ele>
        <time>2014-06-14T06:22:07Z</time>
      </trkpt>
      <trkpt lat="42.413760" lon="2.275405">
        <ele>1820.6</ele>
        <time>2014-06-14T06:22:19Z</time>
      </trkpt>
      <trkpt lat="42.413679" lon="2.275470">
        <ele>1821.8</ele>
        <time>2014-06-14T06:22:33Z</time>
      </trkpt>
      <trkpt lat="42.413670" lon="2.275480">
        <ele>1822.0</ele>
        <time>2014-06-14T06:22:47Z</time>
      </trkpt>
      <trkpt lat="42.413551" lon="2.275518">
        <ele>1821.2</ele>
        <time>2014-06-14T06:22:59Z</time>
      </trkpt>
      <trkpt lat="42.413502" lon="2.275544">
        <ele>1820.8</ele>
        <time>2014-06-14T06:23:12Z</time>
      </trkpt>
      <trkpt lat="42.413482" lon="2.275577">
        <ele>1821.1</ele>
        <time>2014-06-14T06:23:25Z</time>
      </trkpt>
      <trkpt lat="42.413436" lon="2.275563">
        <ele>1819.4</ele>
        <time>2014-06-14T06:23:40Z</time>
      </trkpt>
      <trkpt lat="42.413336" lon="2.275482">
        <ele>1814.5</ele>
        <time>2014-06-14T06:23:53Z</time>
      </trkpt>
      <trkpt lat="42.413239" lon="2.275455">
        <ele>1811.2</ele>
        <time>2014-06-14T06:24:19Z</time>
      </trkpt>
      <trkpt lat="42.413173" lon="2.275442">
        <ele>1810.4</ele>
        <time>2014-06-14T06:24:32Z</time>
      </trkpt>
      <trkpt lat="42.413113" lon="2.275438">
        <ele>1810.0</ele>
        <time>2014-06-14T06:24:47Z</time>
      </trkpt>
      <trkpt lat="42.413086" lon="2.275440">
        <ele>1810.0</ele>
        <time>2014-06-14T06:25:03Z</time>
      </trkpt>
      <trkpt lat="42.412996" lon="2.275428">
        <ele>1809.6</ele>
        <time>2014-06-14T06:25:16Z</time>
      </trkpt>
      <trkpt lat="42.412937" lon="2.275401">
        <ele>1809.1</ele>
        <time>2014-06-14T06:25:29Z</time>
      </trkpt>
      <trkpt lat="42.412916" lon="2.275405">
        <ele>1809.2</ele>
        <time>2014-06-14T06:25:41Z</time>
      </trkpt>
      <trkpt lat="42.412916" lon="2.275405">
        <ele>1809.2</ele>
        <time>2014-06-14T06:26:08Z</time>
      </trkpt>
      <trkpt lat="42.412786" lon="2.275368">
        <ele>1808.1</ele>
        <time>2014-06-14T06:26:38Z</time>
      </trkpt>
      <trkpt lat="42.412660" lon="2.275301">
        <ele>1805.6</ele>
        <time>2014-06-14T06:26:58Z</time>
      </trkpt>
      <trkpt lat="42.412614" lon="2.275281">
        <ele>1804.6</ele>
        <time>2014-06-14T06:27:11Z</time>
      </trkpt>
      <trkpt lat="42.412588" lon="2.275276">
        <ele>1804.1</ele>
        <time>2014-06-14T06:27:13Z</time>
      </trkpt>
      <trkpt lat="42.412511" lon="2.275227">
        <ele>1803.2</ele>
        <time>2014-06-14T06:27:27Z</time>
      </trkpt>
      <trkpt lat="42.412450" lon="2.275194">
        <ele>1802.8</ele>
        <time>2014-06-14T06:27:36Z</time>
      </trkpt>
      <trkpt lat="42.412287" lon="2.275107">
        <ele>1802.8</ele>
        <time>2014-06-14T06:27:41Z</time>
      </trkpt>
      <trkpt lat="42.412177" lon="2.275061">
        <ele>1803.1</ele>
        <time>2014-06-14T06:27:56Z</time>
      </trkpt>
      <trkpt lat="42.412074" lon="2.275003">
        <ele>1802.9</ele>
        <time>2014-06-14T06:28:07Z</time>
      </trkpt>
      <trkpt lat="42.411990" lon="2.274980">
        <ele>1802.7</ele>
        <time>2014-06-14T06:28:20Z</time>
      </trkpt>
      <trkpt lat="42.411991" lon="2.274981">
        <ele>1802.7</ele>
        <time>2014-06-14T06:28:33Z</time>
      </trkpt>
      <trkpt lat="42.411989" lon="2.274986">
        <ele>1802.8</ele>
        <time>2014-06-14T06:28:47Z</time>
      </trkpt>
      <trkpt lat="42.411972" lon="2.274980">
        <ele>1802.8</ele>
        <time>2014-06-14T06:28:50Z</time>
      </trkpt>
      <trkpt lat="42.411856" lon="2.274928">
        <ele>1801.8</ele>
        <time>2014-06-14T06:29:01Z</time>
      </trkpt>
      <trkpt lat="42.411856" lon="2.274928">
        <ele>1801.8</ele>
        <time>2014-06-14T06:29:06Z</time>
      </trkpt>
      <trkpt lat="42.411738" lon="2.274881">
        <ele>1799.1</ele>
        <time>2014-06-14T06:29:13Z</time>
      </trkpt>
      <trkpt lat="42.411670" lon="2.274840">
        <ele>1796.3</ele>
        <time>2014-06-14T06:29:20Z</time>
      </trkpt>
      <trkpt lat="42.411628" lon="2.274807">
        <ele>1794.6</ele>
        <time>2014-06-14T06:29:33Z</time>
      </trkpt>
      <trkpt lat="42.411526" lon="2.274722">
        <ele>1790.7</ele>
        <time>2014-06-14T06:29:46Z</time>
      </trkpt>
      <trkpt lat="42.411466" lon="2.274650">
        <ele>1788.5</ele>
        <time>2014-06-14T06:29:50Z</time>
      </trkpt>
      <trkpt lat="42.411359" lon="2.274574">
        <ele>1786.2</ele>
        <time>2014-06-14T06:29:52Z</time>
      </trkpt>
      <trkpt lat="42.411256" lon="2.274515">
        <ele>1784.7</ele>
        <time>2014-06-14T06:29:59Z</time>
      </trkpt>
      <trkpt lat="42.411142" lon="2.274475">
        <ele>1784.1</ele>
        <time>2014-06-14T06:30:01Z</time>
      </trkpt>
      <trkpt lat="42.411117" lon="2.274457">
        <ele>1783.8</ele>
        <time>2014-06-14T06:30:14Z</time>
      </trkpt>
      <trkpt lat="42.411028" lon="2.274411">
        <ele>1782.7</ele>
        <time>2014-06-14T06:30:28Z</time>
      </trkpt>
      <trkpt lat="42.410990" lon="2.274396">
        <ele>1782.3</ele>
        <time>2014-06-14T06:30:38Z</time>
      </trkpt>
      <trkpt lat="42.410931" lon="2.274366">
        <ele>1781.5</ele>
        <time>2014-06-14T06:30:51Z</time>
      </trkpt>
      <trkpt lat="42.410876" lon="2.274359">
        <ele>1781.3</ele>
        <time>2014-06-14T06:31:01Z</time>
      </trkpt>
      <trkpt lat="42.410756" lon="2.274357">
        <ele>1782.0</ele>
        <time>2014-06-14T06:31:14Z</time>
      </trkpt>
      <trkpt lat="42.410638" lon="2.274352">
        <ele>1780.2</ele>
        <time>2014-06-14T06:31:27Z</time>
      </trkpt>
      <trkpt lat="42.410605" lon="2.274335">
        <ele>1779.0</ele>
        <time>2014-06-14T06:31:42Z</time>
      </trkpt>
      <trkpt lat="42.410586" lon="2.274332">
        <ele>1778.4</ele>
        <time>2014-06-14T06:31:57Z</time>
      </trkpt>
      <trkpt lat="42.410529" lon="2.274310">
        <ele>1776.5</ele>
        <time>2014-06-14T06:32:09Z</time>
      </trkpt>
      <trkpt lat="42.410512" lon="2.274305">
        <ele>1776.0</ele>
        <time>2014-06-14T06:32:20Z</time>
      </trkpt>
      <trkpt lat="42.410427" lon="2.274223">
        <ele>1772.2</ele>
        <time>2014-06-14T06:32:29Z</time>
      </trkpt>
      <trkpt lat="42.410331" lon="2.274196">
        <ele>1768.8</ele>
        <time>2014-06-14T06:32:32Z</time>
      </trkpt>
      <trkpt lat="42.410267" lon="2.274248">
        <ele>1767.1</ele>
        <time>2014-06-14T06:32:45Z</time>
      </trkpt>
      <trkpt lat="42.410179" lon="2.274281">
        <ele>1765.4</ele>
        <time>2014-06-14T06:32:50Z</time>
      </trkpt>
      <trkpt lat="42.410116" lon="2.274292">
        <ele>1764.1</ele>
        <time>2014-06-14T06:33:02Z</time>
      </trkpt>
      <trkpt lat="42.410025" lon="2.274305">
        <ele>1762.3</ele>
        <time>2014-06-14T06:33:07Z</time>
      </trkpt>
      <trkpt lat="42.409937" lon="2.274295">
        <ele>1760.4</ele>
        <time>2014-06-14T06:33:20Z</time>
      </trkpt>
      <trkpt lat="42.409833" lon="2.274351">
        <ele>1758.6</ele>
        <time>2014-06-14T06:33:24Z</time>
      </trkpt>
      <trkpt lat="42.409737" lon="2.274380">
        <ele>1756.5</ele>
        <time>2014-06-14T06:33:35Z</time>
      </trkpt>
      <trkpt lat="42.409669" lon="2.274466">
        <ele>1755.7</ele>
        <time>2014-06-14T06:33:48Z</time>
      </trkpt>
      <trkpt lat="42.409609" lon="2.274507">
        <ele>1754.3</ele>
        <time>2014-06-14T06:34:13Z</time>
      </trkpt>
      <trkpt lat="42.409565" lon="2.274569">
        <ele>1753.5</ele>
        <time>2014-06-14T06:34:26Z</time>
      </trkpt>
      <trkpt lat="42.409543" lon="2.274593">
        <ele>1753.0</ele>
        <time>2014-06-14T06:34:31Z</time>
      </trkpt>
      <trkpt lat="42.409456" lon="2.274668">
        <ele>1750.3</ele>
        <time>2014-06-14T06:34:43Z</time>
      </trkpt>
      <trkpt lat="42.409425" lon="2.274703">
        <ele>1749.2</ele>
        <time>2014-06-14T06:34:45Z</time>
      </trkpt>
      <trkpt lat="42.409347" lon="2.274782">
        <ele>1746.8</ele>
        <time>2014-06-14T06:34:57Z</time>
      </trkpt>
      <trkpt lat="42.409305" lon="2.274835">
        <ele>1745.6</ele>
        <time>2014-06-14T06:35:03Z</time>
      </trkpt>
      <trkpt lat="42.409196" lon="2.274957">
        <ele>1743.5</ele>
        <time>2014-06-14T06:35:09Z</time>
      </trkpt>
      <trkpt lat="42.409174" lon="2.275021">
        <ele>1744.0</ele>
        <time>2014-06-14T06:35:15Z</time>
      </trkpt>
      <trkpt lat="42.409125" lon="2.275094">
        <ele>1743.1</ele>
        <time>2014-06-14T06:35:28Z</time>
      </trkpt>
      <trkpt lat="42.409101" lon="2.275135">
        <ele>1742.7</ele>
        <time>2014-06-14T06:35:30Z</time>
      </trkpt>
      <trkpt lat="42.409101" lon="2.275135">
        <ele>1742.7</ele>
        <time>2014-06-14T06:35:35Z</time>
      </trkpt>
      <trkpt lat="42.409078" lon="2.275140">
        <ele>1741.7</ele>
        <time>2014-06-14T06:35:40Z</time>
      </trkpt>
      <trkpt lat="42.409016" lon="2.275163">
        <ele>1739.2</ele>
        <time>2014-06-14T06:35:48Z</time>
      </trkpt>
      <trkpt lat="42.408904" lon="2.275254">
        <ele>1736.4</ele>
        <time>2014-06-14T06:36:02Z</time>
      </trkpt>
      <trkpt lat="42.408890" lon="2.275269">
        <ele>1736.2</ele>
        <time>2014-06-14T06:36:16Z</time>
      </trkpt>
      <trkpt lat="42.408795" lon="2.275356">
        <ele>1734.3</ele>
        <time>2014-06-14T06:36:31Z</time>
      </trkpt>
      <trkpt lat="42.408753" lon="2.275421">
        <ele>1733.9</ele>
        <time>2014-06-14T06:36:45Z</time>
      </trkpt>
      <trkpt lat="42.408707" lon="2.275453">
        <ele>1732.9</ele>
        <time>2014-06-14T06:36:47Z</time>
      </trkpt>
      <trkpt lat="42.408668" lon="2.275482">
        <ele>1732.0</ele>
        <time>2014-06-14T06:36:50Z</time>
      </trkpt>
      <trkpt lat="42.408613" lon="2.275528">
        <ele>1731.0</ele>
        <time>2014-06-14T06:37:03Z</time>
      </trkpt>
      <trkpt lat="42.408591" lon="2.275539">
        <ele>1730.6</ele>
        <time>2014-06-14T06:37:17Z</time>
      </trkpt>
      <trkpt lat="42.408543" lon="2.275561">
        <ele>1729.9</ele>
        <time>2014-06-14T06:37:32Z</time>
      </trkpt>
      <trkpt lat="42.408519" lon="2.275574">
        <ele>1729.5</ele>
        <time>2014-06-14T06:37:45Z</time>
      </trkpt>
      <trkpt lat="42.408450" lon="2.275601">
        <ele>1728.2</ele>
        <time>2014-06-14T06:37:50Z</time>
      </trkpt>
      <trkpt lat="42.408351" lon="2.275648">
        <ele>1726.1</ele>
        <time>2014-06-14T06:37:58Z</time>
      </trkpt>
      <trkpt lat="42.408211" lon="2.275743">
        <ele>1724.4</ele>
        <time>2014-06-14T06:38:13Z</time>
      </trkpt>
      <trkpt lat="42.408082" lon="2.275816">
        <ele>1722.1</ele>
        <time>2014-06-14T06:38:24Z</time>
      </trkpt>
      <trkpt lat="42.407991" lon="2.275870">
        <ele>1720.4</ele>
        <time>2014-06-14T06:38:37Z</time>
      </trkpt>
      <trkpt lat="42.407973" lon="2.275884">
        <ele>1720.0</ele>
        <time>2014-06-14T06:38:50Z</time>
      </trkpt>
      <trkpt lat="42.407943" lon="2.275903">
        <ele>1719.3</ele>
        <time>2014-06-14T06:39:03Z</time>
      </trkpt>
      <trkpt lat="42.407843" lon="2.276016">
        <ele>1718.2</ele>
        <time>2014-06-14T06:39:16Z</time>
      </trkpt>
      <trkpt lat="42.407730" lon="2.276145">
        <ele>1718.9</ele>
        <time>2014-06-14T06:39:30Z</time>
      </trkpt>
      <trkpt lat="42.407597" lon="2.276232">
        <ele>1717.9</ele>
        <time>2014-06-14T06:39:45Z</time>
      </trkpt>
      <trkpt lat="42.407480" lon="2.276278">
        <ele>1716.5</ele>
        <time>2014-06-14T06:40:00Z</time>
      </trkpt>
      <trkpt lat="42.407432" lon="2.276288">
        <ele>1715.4</ele>
        <time>2014-06-14T06:40:13Z</time>
      </trkpt>
      <trkpt lat="42.407362" lon="2.276302">
        <ele>1713.8</ele>
        <time>2014-06-14T06:40:24Z</time>
      </trkpt>
      <trkpt lat="42.407219" lon="2.276336">
        <ele>1711.2</ele>
        <time>2014-06-14T06:40:37Z</time>
      </trkpt>
      <trkpt lat="42.407127" lon="2.276347">
        <ele>1709.5</ele>
        <time>2014-06-14T06:40:48Z</time>
      </trkpt>
      <trkpt lat="42.407013" lon="2.276355">
        <ele>1707.7</ele>
        <time>2014-06-14T06:41:00Z</time>
      </trkpt>
      <trkpt lat="42.406929" lon="2.276381">
        <ele>1706.7</ele>
        <time>2014-06-14T06:41:11Z</time>
      </trkpt>
      <trkpt lat="42.406805" lon="2.276437">
        <ele>1704.5</ele>
        <time>2014-06-14T06:41:23Z</time>
      </trkpt>
      <trkpt lat="42.406712" lon="2.276477">
        <ele>1702.2</ele>
        <time>2014-06-14T06:41:37Z</time>
      </trkpt>
      <trkpt lat="42.406601" lon="2.276589">
        <ele>1700.7</ele>
        <time>2014-06-14T06:41:49Z</time>
      </trkpt>
      <trkpt lat="42.406484" lon="2.276689">
        <ele>1698.9</ele>
        <time>2014-06-14T06:42:03Z</time>
      </trkpt>
      <trkpt lat="42.406368" lon="2.276778">
        <ele>1697.2</ele>
        <time>2014-06-14T06:42:18Z</time>
      </trkpt>
      <trkpt lat="42.406263" lon="2.276863">
        <ele>1695.5</ele>
        <time>2014-06-14T06:42:30Z</time>
      </trkpt>
      <trkpt lat="42.406204" lon="2.276874">
        <ele>1694.0</ele>
        <time>2014-06-14T06:42:43Z</time>
      </trkpt>
      <trkpt lat="42.406098" lon="2.276928">
        <ele>1691.9</ele>
        <time>2014-06-14T06:42:56Z</time>
      </trkpt>
      <trkpt lat="42.406031" lon="2.276953">
        <ele>1690.7</ele>
        <time>2014-06-14T06:43:10Z</time>
      </trkpt>
      <trkpt lat="42.405927" lon="2.277014">
        <ele>1689.1</ele>
        <time>2014-06-14T06:43:24Z</time>
      </trkpt>
      <trkpt lat="42.405866" lon="2.277093">
        <ele>1688.7</ele>
        <time>2014-06-14T06:43:30Z</time>
      </trkpt>
      <trkpt lat="42.405775" lon="2.277158">
        <ele>1686.4</ele>
        <time>2014-06-14T06:43:42Z</time>
      </trkpt>
      <trkpt lat="42.405732" lon="2.277185">
        <ele>1685.5</ele>
        <time>2014-06-14T06:43:44Z</time>
      </trkpt>
      <trkpt lat="42.405679" lon="2.277224">
        <ele>1685.3</ele>
        <time>2014-06-14T06:43:49Z</time>
      </trkpt>
      <trkpt lat="42.405593" lon="2.277238">
        <ele>1684.1</ele>
        <time>2014-06-14T06:44:03Z</time>
      </trkpt>
      <trkpt lat="42.405562" lon="2.277246">
        <ele>1683.9</ele>
        <time>2014-06-14T06:46:37Z</time>
      </trkpt>
      <trkpt lat="42.405460" lon="2.277281">
        <ele>1682.2</ele>
        <time>2014-06-14T06:46:48Z</time>
      </trkpt>
      <trkpt lat="42.405460" lon="2.277281">
        <ele>1682.2</ele>
        <time>2014-06-14T06:47:03Z</time>
      </trkpt>
      <trkpt lat="42.405315" lon="2.277280">
        <ele>1676.1</ele>
        <time>2014-06-14T06:47:11Z</time>
      </trkpt>
      <trkpt lat="42.405196" lon="2.277317">
        <ele>1672.4</ele>
        <time>2014-06-14T06:47:22Z</time>
      </trkpt>
      <trkpt lat="42.405048" lon="2.277357">
        <ele>1668.4</ele>
        <time>2014-06-14T06:47:31Z</time>
      </trkpt>
      <trkpt lat="42.405010" lon="2.277382">
        <ele>1668.1</ele>
        <time>2014-06-14T06:47:47Z</time>
      </trkpt>
      <trkpt lat="42.404912" lon="2.277412">
        <ele>1667.1</ele>
        <time>2014-06-14T06:48:00Z</time>
      </trkpt>
      <trkpt lat="42.404896" lon="2.277418">
        <ele>1667.0</ele>
        <time>2014-06-14T06:48:04Z</time>
      </trkpt>
      <trkpt lat="42.404843" lon="2.277425">
        <ele>1666.4</ele>
        <time>2014-06-14T06:48:20Z</time>
      </trkpt>
      <trkpt lat="42.404766" lon="2.277439">
        <ele>1665.4</ele>
        <time>2014-06-14T06:48:34Z</time>
      </trkpt>
      <trkpt lat="42.404694" lon="2.277479">
        <ele>1665.0</ele>
        <time>2014-06-14T06:48:48Z</time>
      </trkpt>
      <trkpt lat="42.404576" lon="2.277483">
        <ele>1663.6</ele>
        <time>2014-06-14T06:48:54Z</time>
      </trkpt>
      <trkpt lat="42.404389" lon="2.277464">
        <ele>1661.1</ele>
        <time>2014-06-14T06:49:06Z</time>
      </trkpt>
      <trkpt lat="42.404283" lon="2.277459">
        <ele>1659.8</ele>
        <time>2014-06-14T06:49:22Z</time>
      </trkpt>
      <trkpt lat="42.404129" lon="2.277469">
        <ele>1657.7</ele>
        <time>2014-06-14T06:49:36Z</time>
      </trkpt>
      <trkpt lat="42.404009" lon="2.277404">
        <ele>1655.3</ele>
        <time>2014-06-14T06:49:50Z</time>
      </trkpt>
      <trkpt lat="42.403815" lon="2.277340">
        <ele>1651.8</ele>
        <time>2014-06-14T06:49:53Z</time>
      </trkpt>
      <trkpt lat="42.403664" lon="2.277333">
        <ele>1650.9</ele>
        <time>2014-06-14T06:50:05Z</time>
      </trkpt>
      <trkpt lat="42.403629" lon="2.277318">
        <ele>1649.8</ele>
        <time>2014-06-14T06:50:27Z</time>
      </trkpt>
      <trkpt lat="42.403425" lon="2.277286">
        <ele>1646.5</ele>
        <time>2014-06-14T06:50:41Z</time>
      </trkpt>
      <trkpt lat="42.403245" lon="2.277302">
        <ele>1645.6</ele>
        <time>2014-06-14T06:50:53Z</time>
      </trkpt>
      <trkpt lat="42.403075" lon="2.277308">
        <ele>1645.3</ele>
        <time>2014-06-14T06:51:09Z</time>
      </trkpt>
      <trkpt lat="42.402984" lon="2.277293">
        <ele>1645.1</ele>
        <time>2014-06-14T06:51:21Z</time>
      </trkpt>
      <trkpt lat="42.402805" lon="2.277225">
        <ele>1640.4</ele>
        <time>2014-06-14T06:51:23Z</time>
      </trkpt>
      <trkpt lat="42.402632" lon="2.277150">
        <ele>1633.4</ele>
        <time>2014-06-14T06:51:32Z</time>
      </trkpt>
      <trkpt lat="42.402629" lon="2.277138">
        <ele>1632.9</ele>
        <time>2014-06-14T06:51:46Z</time>
      </trkpt>
      <trkpt lat="42.402625" lon="2.277140">
        <ele>1632.8</ele>
        <time>2014-06-14T06:52:01Z</time>
      </trkpt>
      <trkpt lat="42.402583" lon="2.277157">
        <ele>1632.4</ele>
        <time>2014-06-14T06:52:08Z</time>
      </trkpt>
      <trkpt lat="42.402559" lon="2.277172">
        <ele>1632.5</ele>
        <time>2014-06-14T06:52:22Z</time>
      </trkpt>
      <trkpt lat="42.402476" lon="2.277160">
        <ele>1630.4</ele>
        <time>2014-06-14T06:52:34Z</time>
      </trkpt>
      <trkpt lat="42.402309" lon="2.277161">
        <ele>1627.9</ele>
        <time>2014-06-14T06:56:57Z</time>
      </trkpt>
      <trkpt lat="42.402154" lon="2.277185">
        <ele>1627.0</ele>
        <time>2014-06-14T06:57:05Z</time>
      </trkpt>
      <trkpt lat="42.401959" lon="2.277184">
        <ele>1623.4</ele>
        <time>2014-06-14T06:57:10Z</time>
      </trkpt>
      <trkpt lat="42.401841" lon="2.277205">
        <ele>1622.5</ele>
        <time>2014-06-14T06:57:25Z</time>
      </trkpt>
      <trkpt lat="42.401823" lon="2.277200">
        <ele>1622.3</ele>
        <time>2014-06-14T06:57:36Z</time>
      </trkpt>
      <trkpt lat="42.401746" lon="2.277173">
        <ele>1621.2</ele>
        <time>2014-06-14T06:57:50Z</time>
      </trkpt>
      <trkpt lat="42.401625" lon="2.277169">
        <ele>1618.4</ele>
        <time>2014-06-14T06:57:51Z</time>
      </trkpt>
      <trkpt lat="42.401437" lon="2.277154">
        <ele>1613.8</ele>
        <time>2014-06-14T06:58:04Z</time>
      </trkpt>
      <trkpt lat="42.401343" lon="2.277143">
        <ele>1611.2</ele>
        <time>2014-06-14T06:58:19Z</time>
      </trkpt>
      <trkpt lat="42.401240" lon="2.277151">
        <ele>1608.4</ele>
        <time>2014-06-14T06:58:32Z</time>
      </trkpt>
      <trkpt lat="42.401208" lon="2.277172">
        <ele>1607.9</ele>
        <time>2014-06-14T06:58:34Z</time>
      </trkpt>
      <trkpt lat="42.401162" lon="2.277243">
        <ele>1607.5</ele>
        <time>2014-06-14T06:58:41Z</time>
      </trkpt>
      <trkpt lat="42.401116" lon="2.277232">
        <ele>1605.9</ele>
        <time>2014-06-14T06:58:55Z</time>
      </trkpt>
      <trkpt lat="42.401067" lon="2.277231">
        <ele>1604.9</ele>
        <time>2014-06-14T06:59:01Z</time>
      </trkpt>
      <trkpt lat="42.400942" lon="2.277325">
        <ele>1602.8</ele>
        <time>2014-06-14T06:59:09Z</time>
      </trkpt>
      <trkpt lat="42.400864" lon="2.277432">
        <ele>1601.6</ele>
        <time>2014-06-14T06:59:14Z</time>
      </trkpt>
      <trkpt lat="42.400780" lon="2.277523">
        <ele>1599.7</ele>
        <time>2014-06-14T06:59:21Z</time>
      </trkpt>
      <trkpt lat="42.400775" lon="2.277537">
        <ele>1599.6</ele>
        <time>2014-06-14T06:59:32Z</time>
      </trkpt>
      <trkpt lat="42.400727" lon="2.277702">
        <ele>1597.9</ele>
        <time>2014-06-14T07:09:58Z</time>
      </trkpt>
      <trkpt lat="42.400684" lon="2.277853">
        <ele>1597.6</ele>
        <time>2014-06-14T07:10:10Z</time>
      </trkpt>
      <trkpt lat="42.400625" lon="2.277948">
        <ele>1596.0</ele>
        <time>2014-06-14T07:10:26Z</time>
      </trkpt>
      <trkpt lat="42.400619" lon="2.277965">
        <ele>1595.8</ele>
        <time>2014-06-14T07:10:48Z</time>
      </trkpt>
      <trkpt lat="42.400590" lon="2.278023">
        <ele>1594.8</ele>
        <time>2014-06-14T07:11:02Z</time>
      </trkpt>
      <trkpt lat="42.400581" lon="2.278173">
        <ele>1595.1</ele>
        <time>2014-06-14T07:11:17Z</time>
      </trkpt>
      <trkpt lat="42.400572" lon="2.278235">
        <ele>1595.0</ele>
        <time>2014-06-14T07:11:35Z</time>
      </trkpt>
      <trkpt lat="42.400550" lon="2.278290">
        <ele>1594.2</ele>
        <time>2014-06-14T07:11:50Z</time>
      </trkpt>
      <trkpt lat="42.400527" lon="2.278258">
        <ele>1593.1</ele>
        <time>2014-06-14T07:12:06Z</time>
      </trkpt>
      <trkpt lat="42.400480" lon="2.278196">
        <ele>1591.0</ele>
        <time>2014-06-14T07:12:18Z</time>
      </trkpt>
      <trkpt lat="42.400399" lon="2.278158">
        <ele>1588.1</ele>
        <time>2014-06-14T07:12:31Z</time>
      </trkpt>
      <trkpt lat="42.400369" lon="2.278140">
        <ele>1587.1</ele>
        <time>2014-06-14T07:12:42Z</time>
      </trkpt>
      <trkpt lat="42.400333" lon="2.278219">
        <ele>1585.3</ele>
        <time>2014-06-14T07:12:57Z</time>
      </trkpt>
      <trkpt lat="42.400335" lon="2.278242">
        <ele>1585.2</ele>
        <time>2014-06-14T07:13:12Z</time>
      </trkpt>
      <trkpt lat="42.400335" lon="2.278242">
        <ele>1585.2</ele>
        <time>2014-06-14T07:13:13Z</time>
      </trkpt>
      <trkpt lat="42.400301" lon="2.278451">
        <ele>1583.8</ele>
        <time>2014-06-14T07:13:28Z</time>
      </trkpt>
      <trkpt lat="42.400253" lon="2.278692">
        <ele>1582.4</ele>
        <time>2014-06-14T07:13:30Z</time>
      </trkpt>
      <trkpt lat="42.400184" lon="2.278955">
        <ele>1581.3</ele>
        <time>2014-06-14T07:13:38Z</time>
      </trkpt>
      <trkpt lat="42.400139" lon="2.279155">
        <ele>1581.3</ele>
        <time>2014-06-14T07:13:54Z</time>
      </trkpt>
      <trkpt lat="42.400079" lon="2.279379">
        <ele>1579.2</ele>
        <time>2014-06-14T07:14:10Z</time>
      </trkpt>
      <trkpt lat="42.400030" lon="2.279529">
        <ele>1577.0</ele>
        <time>2014-06-14T07:14:24Z</time>
      </trkpt>
      <trkpt lat="42.400014" lon="2.279576">
        <ele>1576.3</ele>
        <time>2014-06-14T07:14:39Z</time>
      </trkpt>
      <trkpt lat="42.399986" lon="2.279691">
        <ele>1575.3</ele>
        <time>2014-06-14T07:14:55Z</time>
      </trkpt>
      <trkpt lat="42.399941" lon="2.279907">
        <ele>1574.5</ele>
        <time>2014-06-14T07:15:11Z</time>
      </trkpt>
      <trkpt lat="42.399905" lon="2.280126">
        <ele>1571.8</ele>
        <time>2014-06-14T07:15:26Z</time>
      </trkpt>
      <trkpt lat="42.399903" lon="2.280140">
        <ele>1571.6</ele>
        <time>2014-06-14T07:15:29Z</time>
      </trkpt>
      <trkpt lat="42.399911" lon="2.280358">
        <ele>1571.4</ele>
        <time>2014-06-14T07:15:39Z</time>
      </trkpt>
      <trkpt lat="42.399903" lon="2.280380">
        <ele>1570.9</ele>
        <time>2014-06-14T07:15:49Z</time>
      </trkpt>
      <trkpt lat="42.399887" lon="2.280492">
        <ele>1569.1</ele>
        <time>2014-06-14T07:16:04Z</time>
      </trkpt>
      <trkpt lat="42.399847" lon="2.280745">
        <ele>1565.6</ele>
        <time>2014-06-14T07:16:19Z</time>
      </trkpt>
      <trkpt lat="42.399814" lon="2.280961">
        <ele>1562.3</ele>
        <time>2014-06-14T07:16:35Z</time>
      </trkpt>
      <trkpt lat="42.399774" lon="2.281149">
        <ele>1560.3</ele>
        <time>2014-06-14T07:16:50Z</time>
      </trkpt>
      <trkpt lat="42.399744" lon="2.281372">
        <ele>1558.6</ele>
        <time>2014-06-14T07:17:04Z</time>
      </trkpt>
      <trkpt lat="42.399721" lon="2.281591">
        <ele>1557.0</ele>
        <time>2014-06-14T07:17:05Z</time>
      </trkpt>
      <trkpt lat="42.399696" lon="2.281808">
        <ele>1555.8</ele>
        <time>2014-06-14T07:17:12Z</time>
      </trkpt>
      <trkpt lat="42.399685" lon="2.282000">
        <ele>1555.1</ele>
        <time>2014-06-14T07:17:19Z</time>
      </trkpt>
      <trkpt lat="42.399682" lon="2.282044">
        <ele>1555.1</ele>
        <time>2014-06-14T07:17:33Z</time>
      </trkpt>
      <trkpt lat="42.399672" lon="2.282065">
        <ele>1554.8</ele>
        <time>2014-06-14T07:17:47Z</time>
      </trkpt>
      <trkpt lat="42.399676" lon="2.282110">
        <ele>1554.9</ele>
        <time>2014-06-14T07:18:01Z</time>
      </trkpt>
      <trkpt lat="42.399655" lon="2.282329">
        <ele>1553.6</ele>
        <time>2014-06-14T07:18:12Z</time>
      </trkpt>
      <trkpt lat="42.399625" lon="2.282543">
        <ele>1551.3</ele>
        <time>2014-06-14T07:18:32Z</time>
      </trkpt>
      <trkpt lat="42.399557" lon="2.282747">
        <ele>1548.0</ele>
        <time>2014-06-14T07:18:46Z</time>
      </trkpt>
      <trkpt lat="42.399441" lon="2.282852">
        <ele>1545.4</ele>
        <time>2014-06-14T07:18:59Z</time>
      </trkpt>
      <trkpt lat="42.399331" lon="2.282933">
        <ele>1543.0</ele>
        <time>2014-06-14T07:19:13Z</time>
      </trkpt>
      <trkpt lat="42.399324" lon="2.282937">
        <ele>1542.9</ele>
        <time>2014-06-14T07:19:30Z</time>
      </trkpt>
      <trkpt lat="42.399271" lon="2.282968">
        <ele>1541.8</ele>
        <time>2014-06-14T07:19:44Z</time>
      </trkpt>
      <trkpt lat="42.399208" lon="2.282987">
        <ele>1540.7</ele>
        <time>2014-06-14T07:19:59Z</time>
      </trkpt>
      <trkpt lat="42.399087" lon="2.283095">
        <ele>1538.8</ele>
        <time>2014-06-14T07:20:14Z</time>
      </trkpt>
      <trkpt lat="42.398971" lon="2.283175">
        <ele>1536.7</ele>
        <time>2014-06-14T07:20:30Z</time>
      </trkpt>
      <trkpt lat="42.398935" lon="2.283199">
        <ele>1536.0</ele>
        <time>2014-06-14T07:20:46Z</time>
      </trkpt>
      <trkpt lat="42.398870" lon="2.283251">
        <ele>1534.6</ele>
        <time>2014-06-14T07:20:58Z</time>
      </trkpt>
      <trkpt lat="42.398811" lon="2.283307">
        <ele>1533.3</ele>
        <time>2014-06-14T07:21:03Z</time>
      </trkpt>
      <trkpt lat="42.398715" lon="2.283504">
        <ele>1530.3</ele>
        <time>2014-06-14T07:21:12Z</time>
      </trkpt>
      <trkpt lat="42.398665" lon="2.283673">
        <ele>1529.1</ele>
        <time>2014-06-14T07:21:26Z</time>
      </trkpt>
      <trkpt lat="42.398624" lon="2.283871">
        <ele>1527.3</ele>
        <time>2014-06-14T07:21:40Z</time>
      </trkpt>
      <trkpt lat="42.398585" lon="2.284087">
        <ele>1525.4</ele>
        <time>2014-06-14T07:21:55Z</time>
      </trkpt>
      <trkpt lat="42.398528" lon="2.284293">
        <ele>1523.1</ele>
        <time>2014-06-14T07:21:57Z</time>
      </trkpt>
      <trkpt lat="42.398483" lon="2.284561">
        <ele>1521.1</ele>
        <time>2014-06-14T07:22:13Z</time>
      </trkpt>
      <trkpt lat="42.398449" lon="2.284760">
        <ele>1520.5</ele>
        <time>2014-06-14T07:22:34Z</time>
      </trkpt>
      <trkpt lat="42.398389" lon="2.284954">
        <ele>1520.0</ele>
        <time>2014-06-14T07:23:07Z</time>
      </trkpt>
      <trkpt lat="42.398303" lon="2.285159">
        <ele>1519.0</ele>
        <time>2014-06-14T07:23:20Z</time>
      </trkpt>
      <trkpt lat="42.398238" lon="2.285309">
        <ele>1517.3</ele>
        <time>2014-06-14T07:23:34Z</time>
      </trkpt>
      <trkpt lat="42.398207" lon="2.285354">
        <ele>1516.7</ele>
        <time>2014-06-14T07:23:50Z</time>
      </trkpt>
      <trkpt lat="42.398158" lon="2.285450">
        <ele>1515.3</ele>
        <time>2014-06-14T07:24:05Z</time>
      </trkpt>
      <trkpt lat="42.398077" lon="2.285627">
        <ele>1511.6</ele>
        <time>2014-06-14T07:24:20Z</time>
      </trkpt>
      <trkpt lat="42.398000" lon="2.285800">
        <ele>1510.0</ele>
        <time>2014-06-14T07:24:35Z</time>
      </trkpt>
      <trkpt lat="42.397907" lon="2.285986">
        <ele>1508.0</ele>
        <time>2014-06-14T07:24:50Z</time>
      </trkpt>
      <trkpt lat="42.397901" lon="2.286005">
        <ele>1507.9</ele>
        <time>2014-06-14T07:25:04Z</time>
      </trkpt>
      <trkpt lat="42.397858" lon="2.286095">
        <ele>1506.9</ele>
        <time>2014-06-14T07:25:19Z</time>
      </trkpt>
      <trkpt lat="42.397855" lon="2.286097">
        <ele>1506.8</ele>
        <time>2014-06-14T07:25:33Z</time>
      </trkpt>
      <trkpt lat="42.397857" lon="2.286095">
        <ele>1506.9</ele>
        <time>2014-06-14T07:25:47Z</time>
      </trkpt>
      <trkpt lat="42.397805" lon="2.286218">
        <ele>1505.6</ele>
        <time>2014-06-14T07:26:03Z</time>
      </trkpt>
      <trkpt lat="42.397724" lon="2.286389">
        <ele>1503.2</ele>
        <time>2014-06-14T07:26:17Z</time>
      </trkpt>
      <trkpt lat="42.397653" lon="2.286587">
        <ele>1501.5</ele>
        <time>2014-06-14T07:26:24Z</time>
      </trkpt>
      <trkpt lat="42.397568" lon="2.286789">
        <ele>1499.9</ele>
        <time>2014-06-14T07:26:39Z</time>
      </trkpt>
      <trkpt lat="42.397491" lon="2.286998">
        <ele>1499.8</ele>
        <time>2014-06-14T07:26:55Z</time>
      </trkpt>
      <trkpt lat="42.397416" lon="2.287192">
        <ele>1498.2</ele>
        <time>2014-06-14T07:27:09Z</time>
      </trkpt>
      <trkpt lat="42.397319" lon="2.287385">
        <ele>1496.3</ele>
        <time>2014-06-14T07:27:22Z</time>
      </trkpt>
      <trkpt lat="42.397225" lon="2.287531">
        <ele>1494.7</ele>
        <time>2014-06-14T07:27:37Z</time>
      </trkpt>
      <trkpt lat="42.397095" lon="2.287706">
        <ele>1492.9</ele>
        <time>2014-06-14T07:28:05Z</time>
      </trkpt>
      <trkpt lat="42.396968" lon="2.287830">
        <ele>1491.3</ele>
        <time>2014-06-14T07:28:13Z</time>
      </trkpt>
      <trkpt lat="42.396849" lon="2.287953">
        <ele>1490.3</ele>
        <time>2014-06-14T07:28:19Z</time>
      </trkpt>
      <trkpt lat="42.396710" lon="2.288115">
        <ele>1488.7</ele>
        <time>2014-06-14T07:28:36Z</time>
      </trkpt>
      <trkpt lat="42.396583" lon="2.288222">
        <ele>1487.4</ele>
        <time>2014-06-14T07:28:52Z</time>
      </trkpt>
      <trkpt lat="42.396521" lon="2.288283">
        <ele>1486.7</ele>
        <time>2014-06-14T07:29:07Z</time>
      </trkpt>
      <trkpt lat="42.396383" lon="2.288378">
        <ele>1484.0</ele>
        <time>2014-06-14T07:29:23Z</time>
      </trkpt>
      <trkpt lat="42.396233" lon="2.288476">
        <ele>1481.1</ele>
        <time>2014-06-14T07:29:30Z</time>
      </trkpt>
      <trkpt lat="42.396101" lon="2.288554">
        <ele>1480.1</ele>
        <time>2014-06-14T07:29:43Z</time>
      </trkpt>
      <trkpt lat="42.395987" lon="2.288625">
        <ele>1480.1</ele>
        <time>2014-06-14T07:29:59Z</time>
      </trkpt>
      <trkpt lat="42.395932" lon="2.288657">
        <ele>1480.1</ele>
        <time>2014-06-14T07:30:07Z</time>
      </trkpt>
      <trkpt lat="42.395878" lon="2.288699">
        <ele>1480.1</ele>
        <time>2014-06-14T07:32:14Z</time>
      </trkpt>
      <trkpt lat="42.395774" lon="2.288755">
        <ele>1480.1</ele>
        <time>2014-06-14T07:32:34Z</time>
      </trkpt>
      <trkpt lat="42.395721" lon="2.288787">
        <ele>1480.1</ele>
        <time>2014-06-14T07:32:54Z</time>
      </trkpt>
      <trkpt lat="42.395531" lon="2.288926">
        <ele>1480.1</ele>
        <time>2014-06-14T07:33:17Z</time>
      </trkpt>
      <trkpt lat="42.395357" lon="2.289055">
        <ele>1479.9</ele>
        <time>2014-06-14T07:33:38Z</time>
      </trkpt>
      <trkpt lat="42.395200" lon="2.289175">
        <ele>1476.3</ele>
        <time>2014-06-14T07:33:54Z</time>
      </trkpt>
      <trkpt lat="42.395053" lon="2.289285">
        <ele>1473.5</ele>
        <time>2014-06-14T07:34:09Z</time>
      </trkpt>
      <trkpt lat="42.394988" lon="2.289344">
        <ele>1472.2</ele>
        <time>2014-06-14T07:34:24Z</time>
      </trkpt>
      <trkpt lat="42.394858" lon="2.289456">
        <ele>1468.3</ele>
        <time>2014-06-14T07:34:40Z</time>
      </trkpt>
      <trkpt lat="42.394697" lon="2.289586">
        <ele>1463.5</ele>
        <time>2014-06-14T07:34:50Z</time>
      </trkpt>
      <trkpt lat="42.394628" lon="2.289654">
        <ele>1461.9</ele>
        <time>2014-06-14T07:35:05Z</time>
      </trkpt>
      <trkpt lat="42.394512" lon="2.289757">
        <ele>1460.4</ele>
        <time>2014-06-14T07:35:19Z</time>
      </trkpt>
      <trkpt lat="42.394332" lon="2.289970">
        <ele>1460.0</ele>
        <time>2014-06-14T07:35:30Z</time>
      </trkpt>
      <trkpt lat="42.394193" lon="2.290214">
        <ele>1459.7</ele>
        <time>2014-06-14T07:35:41Z</time>
      </trkpt>
      <trkpt lat="42.394073" lon="2.290522">
        <ele>1456.4</ele>
        <time>2014-06-14T07:35:59Z</time>
      </trkpt>
      <trkpt lat="42.393982" lon="2.290774">
        <ele>1453.6</ele>
        <time>2014-06-14T07:36:23Z</time>
      </trkpt>
      <trkpt lat="42.393931" lon="2.290997">
        <ele>1452.7</ele>
        <time>2014-06-14T07:36:42Z</time>
      </trkpt>
      <trkpt lat="42.393881" lon="2.291200">
        <ele>1450.9</ele>
        <time>2014-06-14T07:36:59Z</time>
      </trkpt>
      <trkpt lat="42.393856" lon="2.291341">
        <ele>1448.4</ele>
        <time>2014-06-14T07:37:12Z</time>
      </trkpt>
      <trkpt lat="42.393817" lon="2.291562">
        <ele>1444.3</ele>
        <time>2014-06-14T07:37:15Z</time>
      </trkpt>
      <trkpt lat="42.393810" lon="2.291709">
        <ele>1443.0</ele>
        <time>2014-06-14T07:37:31Z</time>
      </trkpt>
      <trkpt lat="42.393805" lon="2.291908">
        <ele>1441.4</ele>
        <time>2014-06-14T07:37:44Z</time>
      </trkpt>
      <trkpt lat="42.393793" lon="2.292036">
        <ele>1441.0</ele>
        <time>2014-06-14T07:37:51Z</time>
      </trkpt>
      <trkpt lat="42.393758" lon="2.292222">
        <ele>1440.7</ele>
        <time>2014-06-14T07:37:56Z</time>
      </trkpt>
      <trkpt lat="42.393745" lon="2.292349">
        <ele>1440.6</ele>
        <time>2014-06-14T07:38:05Z</time>
      </trkpt>
      <trkpt lat="42.393745" lon="2.292349">
        <ele>1440.6</ele>
        <time>2014-06-14T07:38:20Z</time>
      </trkpt>
      <trkpt lat="42.393746" lon="2.292352">
        <ele>1440.6</ele>
        <time>2014-06-14T07:38:34Z</time>
      </trkpt>
      <trkpt lat="42.393746" lon="2.292352">
        <ele>1440.6</ele>
        <time>2014-06-14T07:38:47Z</time>
      </trkpt>
      <trkpt lat="42.393715" lon="2.292454">
        <ele>1440.2</ele>
        <time>2014-06-14T07:38:59Z</time>
      </trkpt>
      <trkpt lat="42.393660" lon="2.292647">
        <ele>1440.9</ele>
        <time>2014-06-14T07:39:06Z</time>
      </trkpt>
      <trkpt lat="42.393650" lon="2.292696">
        <ele>1440.9</ele>
        <time>2014-06-14T07:39:21Z</time>
      </trkpt>
      <trkpt lat="42.393574" lon="2.292932">
        <ele>1439.8</ele>
        <time>2014-06-14T07:39:35Z</time>
      </trkpt>
      <trkpt lat="42.393505" lon="2.293124">
        <ele>1441.7</ele>
        <time>2014-06-14T07:39:37Z</time>
      </trkpt>
      <trkpt lat="42.393446" lon="2.293213">
        <ele>1441.6</ele>
        <time>2014-06-14T07:39:50Z</time>
      </trkpt>
      <trkpt lat="42.393400" lon="2.293275">
        <ele>1441.1</ele>
        <time>2014-06-14T07:39:59Z</time>
      </trkpt>
      <trkpt lat="42.393333" lon="2.293363">
        <ele>1439.3</ele>
        <time>2014-06-14T07:40:16Z</time>
      </trkpt>
      <trkpt lat="42.393209" lon="2.293533">
        <ele>1436.0</ele>
        <time>2014-06-14T07:40:26Z</time>
      </trkpt>
      <trkpt lat="42.393068" lon="2.293653">
        <ele>1433.9</ele>
        <time>2014-06-14T07:40:41Z</time>
      </trkpt>
      <trkpt lat="42.392943" lon="2.293729">
        <ele>1432.2</ele>
        <time>2014-06-14T07:40:55Z</time>
      </trkpt>
      <trkpt lat="42.392834" lon="2.293765">
        <ele>1430.5</ele>
        <time>2014-06-14T07:41:10Z</time>
      </trkpt>
      <trkpt lat="42.392764" lon="2.293782">
        <ele>1429.2</ele>
        <time>2014-06-14T07:41:25Z</time>
      </trkpt>
      <trkpt lat="42.392611" lon="2.293859">
        <ele>1428.5</ele>
        <time>2014-06-14T07:41:39Z</time>
      </trkpt>
      <trkpt lat="42.392466" lon="2.293935">
        <ele>1426.1</ele>
        <time>2014-06-14T07:41:54Z</time>
      </trkpt>
      <trkpt lat="42.392446" lon="2.293946">
        <ele>1425.5</ele>
        <time>2014-06-14T07:42:08Z</time>
      </trkpt>
      <trkpt lat="42.392306" lon="2.294033">
        <ele>1421.5</ele>
        <time>2014-06-14T07:42:16Z</time>
      </trkpt>
      <trkpt lat="42.392219" lon="2.294105">
        <ele>1420.1</ele>
        <time>2014-06-14T07:42:30Z</time>
      </trkpt>
      <trkpt lat="42.392060" lon="2.294246">
        <ele>1420.7</ele>
        <time>2014-06-14T07:42:43Z</time>
      </trkpt>
      <trkpt lat="42.391980" lon="2.294341">
        <ele>1421.1</ele>
        <time>2014-06-14T07:42:56Z</time>
      </trkpt>
      <trkpt lat="42.391885" lon="2.294543">
        <ele>1419.8</ele>
        <time>2014-06-14T07:43:11Z</time>
      </trkpt>
      <trkpt lat="42.391812" lon="2.294725">
        <ele>1418.5</ele>
        <time>2014-06-14T07:43:24Z</time>
      </trkpt>
      <trkpt lat="42.391725" lon="2.294912">
        <ele>1417.1</ele>
        <time>2014-06-14T07:43:38Z</time>
      </trkpt>
      <trkpt lat="42.391624" lon="2.295086">
        <ele>1414.7</ele>
        <time>2014-06-14T07:43:52Z</time>
      </trkpt>
      <trkpt lat="42.391530" lon="2.295241">
        <ele>1412.0</ele>
        <time>2014-06-14T07:44:06Z</time>
      </trkpt>
      <trkpt lat="42.391411" lon="2.295393">
        <ele>1409.9</ele>
        <time>2014-06-14T07:44:19Z</time>
      </trkpt>
      <trkpt lat="42.391309" lon="2.295532">
        <ele>1409.4</ele>
        <time>2014-06-14T07:44:32Z</time>
      </trkpt>
      <trkpt lat="42.391256" lon="2.295614">
        <ele>1409.1</ele>
        <time>2014-06-14T07:44:55Z</time>
      </trkpt>
      <trkpt lat="42.391168" lon="2.295775">
        <ele>1408.5</ele>
        <time>2014-06-14T07:45:22Z</time>
      </trkpt>
      <trkpt lat="42.391083" lon="2.295911">
        <ele>1408.2</ele>
        <time>2014-06-14T07:45:36Z</time>
      </trkpt>
      <trkpt lat="42.391005" lon="2.296051">
        <ele>1408.0</ele>
        <time>2014-06-14T07:45:53Z</time>
      </trkpt>
      <trkpt lat="42.390935" lon="2.296227">
        <ele>1407.3</ele>
        <time>2014-06-14T07:46:10Z</time>
      </trkpt>
      <trkpt lat="42.390868" lon="2.296383">
        <ele>1405.2</ele>
        <time>2014-06-14T07:46:26Z</time>
      </trkpt>
      <trkpt lat="42.390798" lon="2.296571">
        <ele>1403.0</ele>
        <time>2014-06-14T07:46:42Z</time>
      </trkpt>
      <trkpt lat="42.390730" lon="2.296744">
        <ele>1401.2</ele>
        <time>2014-06-14T07:47:00Z</time>
      </trkpt>
      <trkpt lat="42.390664" lon="2.296917">
        <ele>1399.8</ele>
        <time>2014-06-14T07:47:04Z</time>
      </trkpt>
      <trkpt lat="42.390599" lon="2.297070">
        <ele>1398.9</ele>
        <time>2014-06-14T07:47:21Z</time>
      </trkpt>
      <trkpt lat="42.390583" lon="2.297174">
        <ele>1398.1</ele>
        <time>2014-06-14T07:47:36Z</time>
      </trkpt>
      <trkpt lat="42.390583" lon="2.297174">
        <ele>1398.1</ele>
        <time>2014-06-14T07:47:51Z</time>
      </trkpt>
      <trkpt lat="42.390538" lon="2.297248">
        <ele>1397.5</ele>
        <time>2014-06-14T07:48:06Z</time>
      </trkpt>
      <trkpt lat="42.390431" lon="2.297435">
        <ele>1395.0</ele>
        <time>2014-06-14T07:48:20Z</time>
      </trkpt>
      <trkpt lat="42.390315" lon="2.297655">
        <ele>1392.3</ele>
        <time>2014-06-14T07:48:36Z</time>
      </trkpt>
      <trkpt lat="42.390173" lon="2.297872">
        <ele>1391.6</ele>
        <time>2014-06-14T07:48:57Z</time>
      </trkpt>
      <trkpt lat="42.390034" lon="2.298065">
        <ele>1390.9</ele>
        <time>2014-06-14T07:49:14Z</time>
      </trkpt>
      <trkpt lat="42.389873" lon="2.298249">
        <ele>1388.9</ele>
        <time>2014-06-14T07:49:28Z</time>
      </trkpt>
      <trkpt lat="42.389716" lon="2.298431">
        <ele>1387.0</ele>
        <time>2014-06-14T07:49:39Z</time>
      </trkpt>
      <trkpt lat="42.389694" lon="2.298464">
        <ele>1386.9</ele>
        <time>2014-06-14T07:49:53Z</time>
      </trkpt>
      <trkpt lat="42.389576" lon="2.298627">
        <ele>1385.7</ele>
        <time>2014-06-14T07:50:08Z</time>
      </trkpt>
      <trkpt lat="42.389469" lon="2.298781">
        <ele>1384.1</ele>
        <time>2014-06-14T07:50:21Z</time>
      </trkpt>
      <trkpt lat="42.389367" lon="2.298917">
        <ele>1382.1</ele>
        <time>2014-06-14T07:50:28Z</time>
      </trkpt>
      <trkpt lat="42.389269" lon="2.299058">
        <ele>1380.5</ele>
        <time>2014-06-14T07:50:41Z</time>
      </trkpt>
      <trkpt lat="42.389158" lon="2.299222">
        <ele>1380.1</ele>
        <time>2014-06-14T07:50:55Z</time>
      </trkpt>
      <trkpt lat="42.389026" lon="2.299360">
        <ele>1379.4</ele>
        <time>2014-06-14T07:51:09Z</time>
      </trkpt>
      <trkpt lat="42.388870" lon="2.299549">
        <ele>1377.4</ele>
        <time>2014-06-14T07:51:17Z</time>
      </trkpt>
      <trkpt lat="42.388770" lon="2.299735">
        <ele>1374.7</ele>
        <time>2014-06-14T07:51:31Z</time>
      </trkpt>
      <trkpt lat="42.388665" lon="2.299901">
        <ele>1372.5</ele>
        <time>2014-06-14T07:51:47Z</time>
      </trkpt>
      <trkpt lat="42.388583" lon="2.300001">
        <ele>1371.7</ele>
        <time>2014-06-14T07:52:02Z</time>
      </trkpt>
      <trkpt lat="42.388479" lon="2.300153">
        <ele>1371.3</ele>
        <time>2014-06-14T07:52:16Z</time>
      </trkpt>
      <trkpt lat="42.388373" lon="2.300299">
        <ele>1369.7</ele>
        <time>2014-06-14T07:52:30Z</time>
      </trkpt>
      <trkpt lat="42.388335" lon="2.300359">
        <ele>1369.0</ele>
        <time>2014-06-14T07:52:46Z</time>
      </trkpt>
      <trkpt lat="42.388300" lon="2.300425">
        <ele>1369.0</ele>
        <time>2014-06-14T07:53:03Z</time>
      </trkpt>
      <trkpt lat="42.388205" lon="2.300539">
        <ele>1368.4</ele>
        <time>2014-06-14T07:53:19Z</time>
      </trkpt>
      <trkpt lat="42.388103" lon="2.300689">
        <ele>1368.3</ele>
        <time>2014-06-14T07:53:34Z</time>
      </trkpt>
      <trkpt lat="42.387999" lon="2.300848">
        <ele>1367.9</ele>
        <time>2014-06-14T07:53:49Z</time>
      </trkpt>
      <trkpt lat="42.387946" lon="2.300931">
        <ele>1367.2</ele>
        <time>2014-06-14T07:53:55Z</time>
      </trkpt>
      <trkpt lat="42.387907" lon="2.301005">
        <ele>1366.2</ele>
        <time>2014-06-14T07:54:09Z</time>
      </trkpt>
      <trkpt lat="42.387761" lon="2.301210">
        <ele>1361.5</ele>
        <time>2014-06-14T07:54:22Z</time>
      </trkpt>
      <trkpt lat="42.387643" lon="2.301393">
        <ele>1360.1</ele>
        <time>2014-06-14T07:54:29Z</time>
      </trkpt>
      <trkpt lat="42.387537" lon="2.301550">
        <ele>1360.0</ele>
        <time>2014-06-14T07:54:44Z</time>
      </trkpt>
      <trkpt lat="42.387435" lon="2.301712">
        <ele>1360.0</ele>
        <time>2014-06-14T07:54:59Z</time>
      </trkpt>
      <trkpt lat="42.387337" lon="2.301893">
        <ele>1360.0</ele>
        <time>2014-06-14T07:55:12Z</time>
      </trkpt>
      <trkpt lat="42.387223" lon="2.302086">
        <ele>1360.0</ele>
        <time>2014-06-14T07:55:27Z</time>
      </trkpt>
      <trkpt lat="42.387112" lon="2.302268">
        <ele>1360.0</ele>
        <time>2014-06-14T07:55:39Z</time>
      </trkpt>
      <trkpt lat="42.386988" lon="2.302437">
        <ele>1360.0</ele>
        <time>2014-06-14T07:55:52Z</time>
      </trkpt>
      <trkpt lat="42.386857" lon="2.302563">
        <ele>1360.0</ele>
        <time>2014-06-14T07:56:07Z</time>
      </trkpt>
      <trkpt lat="42.386808" lon="2.302618">
        <ele>1359.7</ele>
        <time>2014-06-14T07:56:21Z</time>
      </trkpt>
      <trkpt lat="42.386683" lon="2.302714">
        <ele>1359.0</ele>
        <time>2014-06-14T07:56:36Z</time>
      </trkpt>
      <trkpt lat="42.386581" lon="2.302799">
        <ele>1356.7</ele>
        <time>2014-06-14T07:56:38Z</time>
      </trkpt>
      <trkpt lat="42.386532" lon="2.302838">
        <ele>1355.7</ele>
        <time>2014-06-14T07:56:41Z</time>
      </trkpt>
      <trkpt lat="42.386428" lon="2.302918">
        <ele>1353.7</ele>
        <time>2014-06-14T07:56:53Z</time>
      </trkpt>
      <trkpt lat="42.386298" lon="2.302994">
        <ele>1350.5</ele>
        <time>2014-06-14T07:57:04Z</time>
      </trkpt>
      <trkpt lat="42.386175" lon="2.303066">
        <ele>1348.7</ele>
        <time>2014-06-14T07:57:07Z</time>
      </trkpt>
      <trkpt lat="42.386002" lon="2.303173">
        <ele>1346.8</ele>
        <time>2014-06-14T07:57:22Z</time>
      </trkpt>
      <trkpt lat="42.385874" lon="2.303233">
        <ele>1345.2</ele>
        <time>2014-06-14T07:57:36Z</time>
      </trkpt>
      <trkpt lat="42.385714" lon="2.303286">
        <ele>1342.1</ele>
        <time>2014-06-14T07:57:51Z</time>
      </trkpt>
      <trkpt lat="42.385551" lon="2.303382">
        <ele>1340.3</ele>
        <time>2014-06-14T07:58:06Z</time>
      </trkpt>
      <trkpt lat="42.385416" lon="2.303457">
        <ele>1339.9</ele>
        <time>2014-06-14T07:58:21Z</time>
      </trkpt>
      <trkpt lat="42.385407" lon="2.303459">
        <ele>1339.9</ele>
        <time>2014-06-14T07:58:27Z</time>
      </trkpt>
      <trkpt lat="42.385407" lon="2.303459">
        <ele>1339.9</ele>
        <time>2014-06-14T07:58:45Z</time>
      </trkpt>
      <trkpt lat="42.385383" lon="2.303463">
        <ele>1339.9</ele>
        <time>2014-06-14T07:58:58Z</time>
      </trkpt>
      <trkpt lat="42.385273" lon="2.303516">
        <ele>1339.9</ele>
        <time>2014-06-14T07:59:08Z</time>
      </trkpt>
      <trkpt lat="42.385180" lon="2.303559">
        <ele>1339.9</ele>
        <time>2014-06-14T07:59:24Z</time>
      </trkpt>
      <trkpt lat="42.385142" lon="2.303577">
        <ele>1339.9</ele>
        <time>2014-06-14T07:59:35Z</time>
      </trkpt>
      <trkpt lat="42.384989" lon="2.303596">
        <ele>1339.9</ele>
        <time>2014-06-14T07:59:48Z</time>
      </trkpt>
      <trkpt lat="42.384849" lon="2.303633">
        <ele>1339.9</ele>
        <time>2014-06-14T08:00:04Z</time>
      </trkpt>
      <trkpt lat="42.384699" lon="2.303659">
        <ele>1338.9</ele>
        <time>2014-06-14T08:00:12Z</time>
      </trkpt>
      <trkpt lat="42.384539" lon="2.303727">
        <ele>1335.5</ele>
        <time>2014-06-14T08:00:26Z</time>
      </trkpt>
      <trkpt lat="42.384363" lon="2.303757">
        <ele>1332.0</ele>
        <time>2014-06-14T08:00:40Z</time>
      </trkpt>
      <trkpt lat="42.384309" lon="2.303778">
        <ele>1331.3</ele>
        <time>2014-06-14T08:00:44Z</time>
      </trkpt>
      <trkpt lat="42.384100" lon="2.303813">
        <ele>1329.2</ele>
        <time>2014-06-14T08:00:51Z</time>
      </trkpt>
      <trkpt lat="42.383971" lon="2.303830">
        <ele>1327.0</ele>
        <time>2014-06-14T08:00:55Z</time>
      </trkpt>
      <trkpt lat="42.383859" lon="2.303845">
        <ele>1325.0</ele>
        <time>2014-06-14T08:01:10Z</time>
      </trkpt>
      <trkpt lat="42.383689" lon="2.303875">
        <ele>1322.8</ele>
        <time>2014-06-14T08:01:24Z</time>
      </trkpt>
      <trkpt lat="42.383578" lon="2.303904">
        <ele>1322.4</ele>
        <time>2014-06-14T08:01:38Z</time>
      </trkpt>
      <trkpt lat="42.383441" lon="2.303937">
        <ele>1323.9</ele>
        <time>2014-06-14T08:01:47Z</time>
      </trkpt>
      <trkpt lat="42.383295" lon="2.303924">
        <ele>1324.0</ele>
        <time>2014-06-14T08:01:50Z</time>
      </trkpt>
      <trkpt lat="42.383213" lon="2.303916">
        <ele>1323.8</ele>
        <time>2014-06-14T08:02:04Z</time>
      </trkpt>
      <trkpt lat="42.383096" lon="2.303864">
        <ele>1322.0</ele>
        <time>2014-06-14T08:02:22Z</time>
      </trkpt>
      <trkpt lat="42.382955" lon="2.303819">
        <ele>1321.1</ele>
        <time>2014-06-14T08:02:46Z</time>
      </trkpt>
      <trkpt lat="42.382918" lon="2.303815">
        <ele>1320.9</ele>
        <time>2014-06-14T08:03:00Z</time>
      </trkpt>
      <trkpt lat="42.382850" lon="2.303771">
        <ele>1320.1</ele>
        <time>2014-06-14T08:03:15Z</time>
      </trkpt>
      <trkpt lat="42.382811" lon="2.303749">
        <ele>1320.1</ele>
        <time>2014-06-14T08:03:19Z</time>
      </trkpt>
      <trkpt lat="42.382672" lon="2.303698">
        <ele>1321.6</ele>
        <time>2014-06-14T08:03:39Z</time>
      </trkpt>
      <trkpt lat="42.382550" lon="2.303627">
        <ele>1325.2</ele>
        <time>2014-06-14T08:03:55Z</time>
      </trkpt>
      <trkpt lat="42.382393" lon="2.303583">
        <ele>1321.6</ele>
        <time>2014-06-14T08:04:04Z</time>
      </trkpt>
      <trkpt lat="42.382297" lon="2.303557">
        <ele>1320.1</ele>
        <time>2014-06-14T08:04:21Z</time>
      </trkpt>
      <trkpt lat="42.382255" lon="2.303556">
        <ele>1319.8</ele>
        <time>2014-06-14T08:04:36Z</time>
      </trkpt>
      <trkpt lat="42.382106" lon="2.303515">
        <ele>1318.7</ele>
        <time>2014-06-14T08:04:50Z</time>
      </trkpt>
      <trkpt lat="42.382102" lon="2.303512">
        <ele>1318.6</ele>
        <time>2014-06-14T08:05:03Z</time>
      </trkpt>
      <trkpt lat="42.382032" lon="2.303479">
        <ele>1318.0</ele>
        <time>2014-06-14T08:05:18Z</time>
      </trkpt>
      <trkpt lat="42.381968" lon="2.303454">
        <ele>1317.1</ele>
        <time>2014-06-14T08:05:31Z</time>
      </trkpt>
      <trkpt lat="42.381835" lon="2.303386">
        <ele>1315.3</ele>
        <time>2014-06-14T08:05:45Z</time>
      </trkpt>
      <trkpt lat="42.381801" lon="2.303378">
        <ele>1314.9</ele>
        <time>2014-06-14T08:05:58Z</time>
      </trkpt>
      <trkpt lat="42.381572" lon="2.303246">
        <ele>1311.8</ele>
        <time>2014-06-14T08:06:11Z</time>
      </trkpt>
      <trkpt lat="42.381388" lon="2.303141">
        <ele>1309.1</ele>
        <time>2014-06-14T08:06:12Z</time>
      </trkpt>
      <trkpt lat="42.381294" lon="2.303085">
        <ele>1308.0</ele>
        <time>2014-06-14T08:06:14Z</time>
      </trkpt>
      <trkpt lat="42.381107" lon="2.302943">
        <ele>1304.6</ele>
        <time>2014-06-14T08:06:18Z</time>
      </trkpt>
      <trkpt lat="42.380943" lon="2.302840">
        <ele>1302.6</ele>
        <time>2014-06-14T08:06:20Z</time>
      </trkpt>
      <trkpt lat="42.380794" lon="2.302732">
        <ele>1300.7</ele>
        <time>2014-06-14T08:06:33Z</time>
      </trkpt>
      <trkpt lat="42.380658" lon="2.302650">
        <ele>1299.9</ele>
        <time>2014-06-14T08:06:35Z</time>
      </trkpt>
      <trkpt lat="42.380512" lon="2.302533">
        <ele>1299.9</ele>
        <time>2014-06-14T08:10:57Z</time>
      </trkpt>
      <trkpt lat="42.380389" lon="2.302431">
        <ele>1299.9</ele>
        <time>2014-06-14T08:11:10Z</time>
      </trkpt>
      <trkpt lat="42.380253" lon="2.302298">
        <ele>1299.9</ele>
        <time>2014-06-14T08:11:27Z</time>
      </trkpt>
      <trkpt lat="42.380141" lon="2.302177">
        <ele>1300.3</ele>
        <time>2014-06-14T08:11:28Z</time>
      </trkpt>
      <trkpt lat="42.380070" lon="2.302055">
        <ele>1301.5</ele>
        <time>2014-06-14T08:11:42Z</time>
      </trkpt>
      <trkpt lat="42.380066" lon="2.302049">
        <ele>1301.5</ele>
        <time>2014-06-14T08:12:09Z</time>
      </trkpt>
      <trkpt lat="42.380053" lon="2.302027">
        <ele>1301.7</ele>
        <time>2014-06-14T08:12:26Z</time>
      </trkpt>
      <trkpt lat="42.380028" lon="2.301992">
        <ele>1301.9</ele>
        <time>2014-06-14T08:12:43Z</time>
      </trkpt>
      <trkpt lat="42.380015" lon="2.301972">
        <ele>1302.0</ele>
        <time>2014-06-14T08:12:56Z</time>
      </trkpt>
      <trkpt lat="42.379944" lon="2.301856">
        <ele>1304.1</ele>
        <time>2014-06-14T08:13:09Z</time>
      </trkpt>
      <trkpt lat="42.379944" lon="2.301856">
        <ele>1304.1</ele>
        <time>2014-06-14T08:13:24Z</time>
      </trkpt>
      <trkpt lat="42.379824" lon="2.301884">
        <ele>1302.8</ele>
        <time>2014-06-14T08:13:37Z</time>
      </trkpt>
      <trkpt lat="42.379732" lon="2.301815">
        <ele>1302.7</ele>
        <time>2014-06-14T08:13:49Z</time>
      </trkpt>
      <trkpt lat="42.379521" lon="2.301828">
        <ele>1299.6</ele>
        <time>2014-06-14T08:14:01Z</time>
      </trkpt>
      <trkpt lat="42.379513" lon="2.301825">
        <ele>1299.4</ele>
        <time>2014-06-14T08:14:16Z</time>
      </trkpt>
      <trkpt lat="42.379426" lon="2.301816">
        <ele>1298.3</ele>
        <time>2014-06-14T08:14:45Z</time>
      </trkpt>
      <trkpt lat="42.379320" lon="2.301759">
        <ele>1297.5</ele>
        <time>2014-06-14T08:15:00Z</time>
      </trkpt>
      <trkpt lat="42.379127" lon="2.301691">
        <ele>1296.2</ele>
        <time>2014-06-14T08:15:14Z</time>
      </trkpt>
      <trkpt lat="42.378921" lon="2.301688">
        <ele>1295.5</ele>
        <time>2014-06-14T08:15:18Z</time>
      </trkpt>
      <trkpt lat="42.378780" lon="2.301685">
        <ele>1295.0</ele>
        <time>2014-06-14T08:15:33Z</time>
      </trkpt>
      <trkpt lat="42.378659" lon="2.301666">
        <ele>1295.0</ele>
        <time>2014-06-14T08:15:47Z</time>
      </trkpt>
      <trkpt lat="42.378501" lon="2.301653">
        <ele>1294.8</ele>
        <time>2014-06-14T08:16:02Z</time>
      </trkpt>
      <trkpt lat="42.378382" lon="2.301655">
        <ele>1294.7</ele>
        <time>2014-06-14T08:16:15Z</time>
      </trkpt>
      <trkpt lat="42.378257" lon="2.301629">
        <ele>1295.2</ele>
        <time>2014-06-14T08:16:17Z</time>
      </trkpt>
      <trkpt lat="42.378118" lon="2.301667">
        <ele>1294.4</ele>
        <time>2014-06-14T08:16:24Z</time>
      </trkpt>
      <trkpt lat="42.377991" lon="2.301732">
        <ele>1292.9</ele>
        <time>2014-06-14T08:16:36Z</time>
      </trkpt>
      <trkpt lat="42.377986" lon="2.301722">
        <ele>1293.2</ele>
        <time>2014-06-14T08:16:50Z</time>
      </trkpt>
      <trkpt lat="42.377880" lon="2.301758">
        <ele>1292.3</ele>
        <time>2014-06-14T08:17:04Z</time>
      </trkpt>
      <trkpt lat="42.377698" lon="2.301810">
        <ele>1290.2</ele>
        <time>2014-06-14T08:17:18Z</time>
      </trkpt>
      <trkpt lat="42.377649" lon="2.301829">
        <ele>1289.2</ele>
        <time>2014-06-14T08:17:33Z</time>
      </trkpt>
      <trkpt lat="42.377545" lon="2.301869">
        <ele>1287.3</ele>
        <time>2014-06-14T08:17:57Z</time>
      </trkpt>
      <trkpt lat="42.377390" lon="2.301907">
        <ele>1285.1</ele>
        <time>2014-06-14T08:18:12Z</time>
      </trkpt>
      <trkpt lat="42.377269" lon="2.301914">
        <ele>1284.7</ele>
        <time>2014-06-14T08:18:24Z</time>
      </trkpt>
      <trkpt lat="42.377271" lon="2.301915">
        <ele>1284.6</ele>
        <time>2014-06-14T08:18:50Z</time>
      </trkpt>
      <trkpt lat="42.377263" lon="2.301908">
        <ele>1284.7</ele>
        <time>2014-06-14T08:19:09Z</time>
      </trkpt>
      <trkpt lat="42.377192" lon="2.301881">
        <ele>1284.7</ele>
        <time>2014-06-14T08:19:21Z</time>
      </trkpt>
      <trkpt lat="42.377060" lon="2.301837">
        <ele>1284.5</ele>
        <time>2014-06-14T08:19:35Z</time>
      </trkpt>
      <trkpt lat="42.376914" lon="2.301793">
        <ele>1283.9</ele>
        <time>2014-06-14T08:19:52Z</time>
      </trkpt>
      <trkpt lat="42.376765" lon="2.301731">
        <ele>1282.9</ele>
        <time>2014-06-14T08:20:03Z</time>
      </trkpt>
      <trkpt lat="42.376620" lon="2.301673">
        <ele>1281.5</ele>
        <time>2014-06-14T08:20:17Z</time>
      </trkpt>
      <trkpt lat="42.376519" lon="2.301680">
        <ele>1280.3</ele>
        <time>2014-06-14T08:20:27Z</time>
      </trkpt>
      <trkpt lat="42.376520" lon="2.301682">
        <ele>1280.3</ele>
        <time>2014-06-14T08:20:36Z</time>
      </trkpt>
      <trkpt lat="42.376399" lon="2.301768">
        <ele>1278.8</ele>
        <time>2014-06-14T08:20:47Z</time>
      </trkpt>
      <trkpt lat="42.376388" lon="2.301784">
        <ele>1278.7</ele>
        <time>2014-06-14T08:21:01Z</time>
      </trkpt>
      <trkpt lat="42.376370" lon="2.301779">
        <ele>1278.7</ele>
        <time>2014-06-14T08:21:15Z</time>
      </trkpt>
      <trkpt lat="42.376342" lon="2.301778">
        <ele>1278.5</ele>
        <time>2014-06-14T08:22:32Z</time>
      </trkpt>
      <trkpt lat="42.376205" lon="2.301780">
        <ele>1277.0</ele>
        <time>2014-06-14T08:33:15Z</time>
      </trkpt>
      <trkpt lat="42.376109" lon="2.301762">
        <ele>1276.0</ele>
        <time>2014-06-14T08:59:19Z</time>
      </trkpt>
      <trkpt lat="42.376022" lon="2.301773">
        <ele>1275.3</ele>
        <time>2014-06-14T08:59:27Z</time>
      </trkpt>
      <trkpt lat="42.375956" lon="2.301810">
        <ele>1274.5</ele>
        <time>2014-06-14T08:59:30Z</time>
      </trkpt>
      <trkpt lat="42.375817" lon="2.301834">
        <ele>1273.3</ele>
        <time>2014-06-14T08:59:33Z</time>
      </trkpt>
      <trkpt lat="42.375703" lon="2.301873">
        <ele>1272.2</ele>
        <time>2014-06-14T08:59:36Z</time>
      </trkpt>
      <trkpt lat="42.375607" lon="2.301856">
        <ele>1271.5</ele>
        <time>2014-06-14T08:59:40Z</time>
      </trkpt>
      <trkpt lat="42.375483" lon="2.301818">
        <ele>1271.0</ele>
        <time>2014-06-14T08:59:41Z</time>
      </trkpt>
      <trkpt lat="42.375352" lon="2.301804">
        <ele>1270.1</ele>
        <time>2014-06-14T08:59:46Z</time>
      </trkpt>
      <trkpt lat="42.375200" lon="2.301763">
        <ele>1269.5</ele>
        <time>2014-06-14T08:59:51Z</time>
      </trkpt>
      <trkpt lat="42.375140" lon="2.301684">
        <ele>1270.2</ele>
        <time>2014-06-14T08:59:58Z</time>
      </trkpt>
      <trkpt lat="42.375023" lon="2.301926">
        <ele>1266.6</ele>
        <time>2014-06-14T09:00:05Z</time>
      </trkpt>
      <trkpt lat="42.375667" lon="2.302458">
        <ele>1270.2</ele>
        <time>2014-06-14T09:00:15Z</time>
      </trkpt>
      <trkpt lat="42.375702" lon="2.302513">
        <ele>1270.7</ele>
        <time>2014-06-14T09:00:27Z</time>
      </trkpt>
      <trkpt lat="42.375709" lon="2.302543">
        <ele>1270.9</ele>
        <time>2014-06-14T09:25:40Z</time>
      </trkpt>
      <trkpt lat="42.375722" lon="2.302569">
        <ele>1271.1</ele>
        <time>2014-06-14T09:25:53Z</time>
      </trkpt>
      <trkpt lat="42.375728" lon="2.302601">
        <ele>1271.3</ele>
        <time>2014-06-14T09:26:07Z</time>
      </trkpt>
      <trkpt lat="42.375732" lon="2.302661">
        <ele>1271.6</ele>
        <time>2014-06-14T09:26:23Z</time>
      </trkpt>
      <trkpt lat="42.375731" lon="2.302671">
        <ele>1271.6</ele>
        <time>2014-06-14T09:26:30Z</time>
      </trkpt>
      <trkpt lat="42.375730" lon="2.302737">
        <ele>1271.9</ele>
        <time>2014-06-14T09:26:46Z</time>
      </trkpt>
      <trkpt lat="42.375734" lon="2.302801">
        <ele>1272.5</ele>
        <time>2014-06-14T09:26:48Z</time>
      </trkpt>
      <trkpt lat="42.375717" lon="2.302837">
        <ele>1272.9</ele>
        <time>2014-06-14T09:27:02Z</time>
      </trkpt>
      <trkpt lat="42.375713" lon="2.302877">
        <ele>1273.5</ele>
        <time>2014-06-14T09:27:04Z</time>
      </trkpt>
      <trkpt lat="42.375708" lon="2.302983">
        <ele>1275.2</ele>
        <time>2014-06-14T09:27:14Z</time>
      </trkpt>
      <trkpt lat="42.375652" lon="2.303030">
        <ele>1275.6</ele>
        <time>2014-06-14T09:27:21Z</time>
      </trkpt>
      <trkpt lat="42.375580" lon="2.303099">
        <ele>1276.6</ele>
        <time>2014-06-14T09:27:34Z</time>
      </trkpt>
      <trkpt lat="42.375446" lon="2.303186">
        <ele>1277.8</ele>
        <time>2014-06-14T09:27:40Z</time>
      </trkpt>
      <trkpt lat="42.375442" lon="2.303248">
        <ele>1278.9</ele>
        <time>2014-06-14T09:27:46Z</time>
      </trkpt>
      <trkpt lat="42.375442" lon="2.303248">
        <ele>1278.9</ele>
        <time>2014-06-14T09:27:58Z</time>
      </trkpt>
      <trkpt lat="42.375456" lon="2.303319">
        <ele>1279.8</ele>
        <time>2014-06-14T09:28:11Z</time>
      </trkpt>
      <trkpt lat="42.375468" lon="2.303415">
        <ele>1279.8</ele>
        <time>2014-06-14T09:28:23Z</time>
      </trkpt>
      <trkpt lat="42.375468" lon="2.303415">
        <ele>1279.8</ele>
        <time>2014-06-14T09:28:36Z</time>
      </trkpt>
      <trkpt lat="42.375536" lon="2.303617">
        <ele>1279.8</ele>
        <time>2014-06-14T09:28:47Z</time>
      </trkpt>
      <trkpt lat="42.375545" lon="2.303641">
        <ele>1279.8</ele>
        <time>2014-06-14T09:28:59Z</time>
      </trkpt>
      <trkpt lat="42.375599" lon="2.303799">
        <ele>1279.9</ele>
        <time>2014-06-14T09:29:11Z</time>
      </trkpt>
      <trkpt lat="42.375560" lon="2.303871">
        <ele>1280.4</ele>
        <time>2014-06-14T09:29:26Z</time>
      </trkpt>
      <trkpt lat="42.375486" lon="2.303970">
        <ele>1281.4</ele>
        <time>2014-06-14T09:29:39Z</time>
      </trkpt>
      <trkpt lat="42.375485" lon="2.303978">
        <ele>1281.5</ele>
        <time>2014-06-14T09:29:50Z</time>
      </trkpt>
      <trkpt lat="42.375434" lon="2.303963">
        <ele>1281.7</ele>
        <time>2014-06-14T09:30:03Z</time>
      </trkpt>
      <trkpt lat="42.375417" lon="2.303945">
        <ele>1281.6</ele>
        <time>2014-06-14T09:30:16Z</time>
      </trkpt>
      <trkpt lat="42.375417" lon="2.303945">
        <ele>1281.6</ele>
        <time>2014-06-14T09:30:29Z</time>
      </trkpt>
      <trkpt lat="42.375417" lon="2.304046">
        <ele>1283.4</ele>
        <time>2014-06-14T09:30:44Z</time>
      </trkpt>
      <trkpt lat="42.375435" lon="2.304139">
        <ele>1285.1</ele>
        <time>2014-06-14T09:31:05Z</time>
      </trkpt>
      <trkpt lat="42.375446" lon="2.304194">
        <ele>1286.0</ele>
        <time>2014-06-14T09:31:17Z</time>
      </trkpt>
      <trkpt lat="42.375453" lon="2.304271">
        <ele>1287.2</ele>
        <time>2014-06-14T09:31:31Z</time>
      </trkpt>
      <trkpt lat="42.375419" lon="2.304287">
        <ele>1288.6</ele>
        <time>2014-06-14T09:31:43Z</time>
      </trkpt>
      <trkpt lat="42.375410" lon="2.304293">
        <ele>1289.1</ele>
        <time>2014-06-14T09:31:54Z</time>
      </trkpt>
      <trkpt lat="42.375410" lon="2.304293">
        <ele>1289.1</ele>
        <time>2014-06-14T09:32:15Z</time>
      </trkpt>
      <trkpt lat="42.375394" lon="2.304289">
        <ele>1289.5</ele>
        <time>2014-06-14T09:32:30Z</time>
      </trkpt>
      <trkpt lat="42.375262" lon="2.304214">
        <ele>1292.9</ele>
        <time>2014-06-14T09:32:42Z</time>
      </trkpt>
      <trkpt lat="42.375253" lon="2.304210">
        <ele>1293.2</ele>
        <time>2014-06-14T09:32:53Z</time>
      </trkpt>
      <trkpt lat="42.375198" lon="2.304153">
        <ele>1294.6</ele>
        <time>2014-06-14T09:33:03Z</time>
      </trkpt>
      <trkpt lat="42.375178" lon="2.304131">
        <ele>1295.4</ele>
        <time>2014-06-14T09:33:15Z</time>
      </trkpt>
      <trkpt lat="42.375178" lon="2.304128">
        <ele>1295.3</ele>
        <time>2014-06-14T09:33:26Z</time>
      </trkpt>
      <trkpt lat="42.375082" lon="2.304001">
        <ele>1298.7</ele>
        <time>2014-06-14T09:33:36Z</time>
      </trkpt>
      <trkpt lat="42.375022" lon="2.303908">
        <ele>1299.5</ele>
        <time>2014-06-14T09:33:48Z</time>
      </trkpt>
      <trkpt lat="42.374984" lon="2.303859">
        <ele>1300.0</ele>
        <time>2014-06-14T09:34:03Z</time>
      </trkpt>
      <trkpt lat="42.374957" lon="2.303847">
        <ele>1300.9</ele>
        <time>2014-06-14T09:34:14Z</time>
      </trkpt>
      <trkpt lat="42.374957" lon="2.303847">
        <ele>1300.9</ele>
        <time>2014-06-14T09:34:25Z</time>
      </trkpt>
      <trkpt lat="42.374918" lon="2.303800">
        <ele>1301.0</ele>
        <time>2014-06-14T09:34:36Z</time>
      </trkpt>
      <trkpt lat="42.374827" lon="2.303802">
        <ele>1305.2</ele>
        <time>2014-06-14T09:34:51Z</time>
      </trkpt>
      <trkpt lat="42.374755" lon="2.303815">
        <ele>1309.5</ele>
        <time>2014-06-14T09:35:04Z</time>
      </trkpt>
      <trkpt lat="42.374712" lon="2.303819">
        <ele>1311.5</ele>
        <time>2014-06-14T09:35:19Z</time>
      </trkpt>
      <trkpt lat="42.374656" lon="2.303816">
        <ele>1313.6</ele>
        <time>2014-06-14T09:35:31Z</time>
      </trkpt>
      <trkpt lat="42.374559" lon="2.303801">
        <ele>1315.9</ele>
        <time>2014-06-14T09:35:44Z</time>
      </trkpt>
      <trkpt lat="42.374497" lon="2.303803">
        <ele>1317.7</ele>
        <time>2014-06-14T09:35:56Z</time>
      </trkpt>
      <trkpt lat="42.374412" lon="2.303816">
        <ele>1320.7</ele>
        <time>2014-06-14T09:36:08Z</time>
      </trkpt>
      <trkpt lat="42.374369" lon="2.303817">
        <ele>1322.0</ele>
        <time>2014-06-14T09:36:20Z</time>
      </trkpt>
      <trkpt lat="42.374305" lon="2.303815">
        <ele>1323.6</ele>
        <time>2014-06-14T09:36:32Z</time>
      </trkpt>
      <trkpt lat="42.374270" lon="2.303830">
        <ele>1325.3</ele>
        <time>2014-06-14T09:36:45Z</time>
      </trkpt>
      <trkpt lat="42.374222" lon="2.303832">
        <ele>1326.7</ele>
        <time>2014-06-14T09:36:55Z</time>
      </trkpt>
      <trkpt lat="42.374153" lon="2.303843">
        <ele>1328.5</ele>
        <time>2014-06-14T09:37:06Z</time>
      </trkpt>
      <trkpt lat="42.374143" lon="2.303874">
        <ele>1330.4</ele>
        <time>2014-06-14T09:37:20Z</time>
      </trkpt>
      <trkpt lat="42.374156" lon="2.303879">
        <ele>1330.7</ele>
        <time>2014-06-14T09:37:28Z</time>
      </trkpt>
      <trkpt lat="42.374187" lon="2.303912">
        <ele>1332.3</ele>
        <time>2014-06-14T09:37:40Z</time>
      </trkpt>
      <trkpt lat="42.374244" lon="2.303956">
        <ele>1332.7</ele>
        <time>2014-06-14T09:37:50Z</time>
      </trkpt>
      <trkpt lat="42.374321" lon="2.304044">
        <ele>1334.4</ele>
        <time>2014-06-14T09:37:52Z</time>
      </trkpt>
      <trkpt lat="42.374390" lon="2.304116">
        <ele>1335.5</ele>
        <time>2014-06-14T09:38:01Z</time>
      </trkpt>
      <trkpt lat="42.374464" lon="2.304206">
        <ele>1337.2</ele>
        <time>2014-06-14T09:38:13Z</time>
      </trkpt>
      <trkpt lat="42.374508" lon="2.304304">
        <ele>1339.9</ele>
        <time>2014-06-14T09:38:25Z</time>
      </trkpt>
      <trkpt lat="42.374535" lon="2.304403">
        <ele>1342.9</ele>
        <time>2014-06-14T09:38:36Z</time>
      </trkpt>
      <trkpt lat="42.374563" lon="2.304510">
        <ele>1346.0</ele>
        <time>2014-06-14T09:38:38Z</time>
      </trkpt>
      <trkpt lat="42.374600" lon="2.304621">
        <ele>1348.2</ele>
        <time>2014-06-14T09:38:50Z</time>
      </trkpt>
      <trkpt lat="42.374659" lon="2.304778">
        <ele>1348.9</ele>
        <time>2014-06-14T09:38:55Z</time>
      </trkpt>
      <trkpt lat="42.374684" lon="2.304861">
        <ele>1349.3</ele>
        <time>2014-06-14T09:39:06Z</time>
      </trkpt>
      <trkpt lat="42.374723" lon="2.304999">
        <ele>1349.9</ele>
        <time>2014-06-14T09:39:16Z</time>
      </trkpt>
      <trkpt lat="42.374740" lon="2.305098">
        <ele>1351.6</ele>
        <time>2014-06-14T09:39:28Z</time>
      </trkpt>
      <trkpt lat="42.374746" lon="2.305116">
        <ele>1351.7</ele>
        <time>2014-06-14T09:39:40Z</time>
      </trkpt>
      <trkpt lat="42.374777" lon="2.305227">
        <ele>1352.7</ele>
        <time>2014-06-14T09:39:51Z</time>
      </trkpt>
      <trkpt lat="42.374833" lon="2.305351">
        <ele>1352.3</ele>
        <time>2014-06-14T09:40:03Z</time>
      </trkpt>
      <trkpt lat="42.374870" lon="2.305466">
        <ele>1354.6</ele>
        <time>2014-06-14T09:40:15Z</time>
      </trkpt>
      <trkpt lat="42.374918" lon="2.305586">
        <ele>1356.7</ele>
        <time>2014-06-14T09:40:20Z</time>
      </trkpt>
      <trkpt lat="42.374928" lon="2.305604">
        <ele>1357.0</ele>
        <time>2014-06-14T09:40:33Z</time>
      </trkpt>
      <trkpt lat="42.374982" lon="2.305707">
        <ele>1358.7</ele>
        <time>2014-06-14T09:40:45Z</time>
      </trkpt>
      <trkpt lat="42.375005" lon="2.305746">
        <ele>1359.2</ele>
        <time>2014-06-14T09:40:47Z</time>
      </trkpt>
      <trkpt lat="42.375047" lon="2.305836">
        <ele>1361.0</ele>
        <time>2014-06-14T09:41:00Z</time>
      </trkpt>
      <trkpt lat="42.375096" lon="2.305912">
        <ele>1362.4</ele>
        <time>2014-06-14T09:41:05Z</time>
      </trkpt>
      <trkpt lat="42.375137" lon="2.305998">
        <ele>1365.3</ele>
        <time>2014-06-14T09:41:18Z</time>
      </trkpt>
      <trkpt lat="42.375192" lon="2.306051">
        <ele>1366.3</ele>
        <time>2014-06-14T09:41:22Z</time>
      </trkpt>
      <trkpt lat="42.375228" lon="2.306081">
        <ele>1366.7</ele>
        <time>2014-06-14T09:41:34Z</time>
      </trkpt>
      <trkpt lat="42.375285" lon="2.306155">
        <ele>1368.9</ele>
        <time>2014-06-14T09:41:45Z</time>
      </trkpt>
      <trkpt lat="42.375340" lon="2.306217">
        <ele>1370.4</ele>
        <time>2014-06-14T09:41:58Z</time>
      </trkpt>
      <trkpt lat="42.375358" lon="2.306245">
        <ele>1371.2</ele>
        <time>2014-06-14T09:42:09Z</time>
      </trkpt>
      <trkpt lat="42.375450" lon="2.306344">
        <ele>1372.3</ele>
        <time>2014-06-14T09:42:20Z</time>
      </trkpt>
      <trkpt lat="42.375527" lon="2.306397">
        <ele>1371.8</ele>
        <time>2014-06-14T09:42:31Z</time>
      </trkpt>
      <trkpt lat="42.375544" lon="2.306410">
        <ele>1371.8</ele>
        <time>2014-06-14T09:42:43Z</time>
      </trkpt>
      <trkpt lat="42.375599" lon="2.306537">
        <ele>1374.2</ele>
        <time>2014-06-14T09:42:55Z</time>
      </trkpt>
      <trkpt lat="42.375622" lon="2.306580">
        <ele>1374.4</ele>
        <time>2014-06-14T09:43:07Z</time>
      </trkpt>
      <trkpt lat="42.375647" lon="2.306711">
        <ele>1376.7</ele>
        <time>2014-06-14T09:43:19Z</time>
      </trkpt>
      <trkpt lat="42.375663" lon="2.306746">
        <ele>1376.8</ele>
        <time>2014-06-14T09:43:30Z</time>
      </trkpt>
      <trkpt lat="42.375673" lon="2.306883">
        <ele>1378.3</ele>
        <time>2014-06-14T09:43:42Z</time>
      </trkpt>
      <trkpt lat="42.375684" lon="2.307008">
        <ele>1379.8</ele>
        <time>2014-06-14T09:43:54Z</time>
      </trkpt>
      <trkpt lat="42.375682" lon="2.307150">
        <ele>1382.5</ele>
        <time>2014-06-14T09:44:05Z</time>
      </trkpt>
      <trkpt lat="42.375680" lon="2.307255">
        <ele>1384.3</ele>
        <time>2014-06-14T09:44:16Z</time>
      </trkpt>
      <trkpt lat="42.375657" lon="2.307355">
        <ele>1387.7</ele>
        <time>2014-06-14T09:44:27Z</time>
      </trkpt>
      <trkpt lat="42.375659" lon="2.307456">
        <ele>1388.8</ele>
        <time>2014-06-14T09:44:40Z</time>
      </trkpt>
      <trkpt lat="42.375637" lon="2.307556">
        <ele>1391.7</ele>
        <time>2014-06-14T09:44:50Z</time>
      </trkpt>
      <trkpt lat="42.375636" lon="2.307675">
        <ele>1393.0</ele>
        <time>2014-06-14T09:45:00Z</time>
      </trkpt>
      <trkpt lat="42.375627" lon="2.307776">
        <ele>1394.6</ele>
        <time>2014-06-14T09:45:12Z</time>
      </trkpt>
      <trkpt lat="42.375637" lon="2.307880">
        <ele>1394.7</ele>
        <time>2014-06-14T09:45:29Z</time>
      </trkpt>
      <trkpt lat="42.375621" lon="2.307953">
        <ele>1395.8</ele>
        <time>2014-06-14T09:45:41Z</time>
      </trkpt>
      <trkpt lat="42.375592" lon="2.308016">
        <ele>1397.3</ele>
        <time>2014-06-14T09:45:53Z</time>
      </trkpt>
      <trkpt lat="42.375561" lon="2.308143">
        <ele>1398.9</ele>
        <time>2014-06-14T09:50:15Z</time>
      </trkpt>
      <trkpt lat="42.375524" lon="2.308228">
        <ele>1401.1</ele>
        <time>2014-06-14T09:50:27Z</time>
      </trkpt>
      <trkpt lat="42.375491" lon="2.308324">
        <ele>1403.7</ele>
        <time>2014-06-14T09:50:40Z</time>
      </trkpt>
      <trkpt lat="42.375450" lon="2.308384">
        <ele>1406.4</ele>
        <time>2014-06-14T09:50:52Z</time>
      </trkpt>
      <trkpt lat="42.375423" lon="2.308434">
        <ele>1408.2</ele>
        <time>2014-06-14T09:51:04Z</time>
      </trkpt>
      <trkpt lat="42.375399" lon="2.308473">
        <ele>1409.8</ele>
        <time>2014-06-14T09:51:16Z</time>
      </trkpt>
      <trkpt lat="42.375360" lon="2.308521">
        <ele>1412.5</ele>
        <time>2014-06-14T09:51:30Z</time>
      </trkpt>
      <trkpt lat="42.375286" lon="2.308527">
        <ele>1416.3</ele>
        <time>2014-06-14T09:51:43Z</time>
      </trkpt>
      <trkpt lat="42.375279" lon="2.308541">
        <ele>1416.9</ele>
        <time>2014-06-14T09:51:58Z</time>
      </trkpt>
      <trkpt lat="42.375267" lon="2.308597">
        <ele>1418.5</ele>
        <time>2014-06-14T09:52:10Z</time>
      </trkpt>
      <trkpt lat="42.375241" lon="2.308683">
        <ele>1421.2</ele>
        <time>2014-06-14T09:52:25Z</time>
      </trkpt>
      <trkpt lat="42.375211" lon="2.308821">
        <ele>1425.4</ele>
        <time>2014-06-14T09:52:38Z</time>
      </trkpt>
      <trkpt lat="42.375230" lon="2.308926">
        <ele>1426.6</ele>
        <time>2014-06-14T09:52:51Z</time>
      </trkpt>
      <trkpt lat="42.375273" lon="2.309020">
        <ele>1426.6</ele>
        <time>2014-06-14T09:53:05Z</time>
      </trkpt>
      <trkpt lat="42.375313" lon="2.309111">
        <ele>1427.1</ele>
        <time>2014-06-14T09:53:18Z</time>
      </trkpt>
      <trkpt lat="42.375323" lon="2.309191">
        <ele>1429.1</ele>
        <time>2014-06-14T09:53:33Z</time>
      </trkpt>
      <trkpt lat="42.375340" lon="2.309260">
        <ele>1430.3</ele>
        <time>2014-06-14T09:53:46Z</time>
      </trkpt>
      <trkpt lat="42.375286" lon="2.309281">
        <ele>1433.9</ele>
        <time>2014-06-14T09:53:57Z</time>
      </trkpt>
      <trkpt lat="42.375289" lon="2.309346">
        <ele>1435.9</ele>
        <time>2014-06-14T09:54:12Z</time>
      </trkpt>
      <trkpt lat="42.375296" lon="2.309453">
        <ele>1439.0</ele>
        <time>2014-06-14T09:54:27Z</time>
      </trkpt>
      <trkpt lat="42.375292" lon="2.309526">
        <ele>1441.5</ele>
        <time>2014-06-14T09:54:44Z</time>
      </trkpt>
      <trkpt lat="42.375291" lon="2.309601">
        <ele>1443.1</ele>
        <time>2014-06-14T09:54:59Z</time>
      </trkpt>
      <trkpt lat="42.375307" lon="2.309699">
        <ele>1443.4</ele>
        <time>2014-06-14T09:55:13Z</time>
      </trkpt>
      <trkpt lat="42.375300" lon="2.309778">
        <ele>1445.2</ele>
        <time>2014-06-14T09:55:26Z</time>
      </trkpt>
      <trkpt lat="42.375292" lon="2.309897">
        <ele>1446.6</ele>
        <time>2014-06-14T09:55:41Z</time>
      </trkpt>
      <trkpt lat="42.375254" lon="2.309990">
        <ele>1449.9</ele>
        <time>2014-06-14T09:55:58Z</time>
      </trkpt>
      <trkpt lat="42.375232" lon="2.310062">
        <ele>1452.4</ele>
        <time>2014-06-14T09:56:14Z</time>
      </trkpt>
      <trkpt lat="42.375232" lon="2.310186">
        <ele>1454.3</ele>
        <time>2014-06-14T09:56:30Z</time>
      </trkpt>
      <trkpt lat="42.375245" lon="2.310274">
        <ele>1455.2</ele>
        <time>2014-06-14T09:56:46Z</time>
      </trkpt>
      <trkpt lat="42.375229" lon="2.310376">
        <ele>1458.1</ele>
        <time>2014-06-14T09:57:04Z</time>
      </trkpt>
      <trkpt lat="42.375223" lon="2.310458">
        <ele>1459.7</ele>
        <time>2014-06-14T09:57:19Z</time>
      </trkpt>
      <trkpt lat="42.375204" lon="2.310576">
        <ele>1462.5</ele>
        <time>2014-06-14T09:57:33Z</time>
      </trkpt>
      <trkpt lat="42.375191" lon="2.310662">
        <ele>1464.6</ele>
        <time>2014-06-14T09:57:47Z</time>
      </trkpt>
      <trkpt lat="42.375177" lon="2.310785">
        <ele>1467.0</ele>
        <time>2014-06-14T09:58:04Z</time>
      </trkpt>
      <trkpt lat="42.375167" lon="2.310871">
        <ele>1468.2</ele>
        <time>2014-06-14T09:58:25Z</time>
      </trkpt>
      <trkpt lat="42.375153" lon="2.310968">
        <ele>1470.1</ele>
        <time>2014-06-14T09:58:38Z</time>
      </trkpt>
      <trkpt lat="42.375164" lon="2.311113">
        <ele>1471.5</ele>
        <time>2014-06-14T09:58:50Z</time>
      </trkpt>
      <trkpt lat="42.375158" lon="2.311223">
        <ele>1473.6</ele>
        <time>2014-06-14T09:59:04Z</time>
      </trkpt>
      <trkpt lat="42.375152" lon="2.311300">
        <ele>1475.4</ele>
        <time>2014-06-14T09:59:20Z</time>
      </trkpt>
      <trkpt lat="42.375110" lon="2.311511">
        <ele>1482.9</ele>
        <time>2014-06-14T09:59:35Z</time>
      </trkpt>
      <trkpt lat="42.375111" lon="2.311551">
        <ele>1484.1</ele>
        <time>2014-06-14T09:59:46Z</time>
      </trkpt>
      <trkpt lat="42.375105" lon="2.311687">
        <ele>1488.5</ele>
        <time>2014-06-14T10:00:01Z</time>
      </trkpt>
      <trkpt lat="42.375096" lon="2.311831">
        <ele>1492.3</ele>
        <time>2014-06-14T10:00:16Z</time>
      </trkpt>
      <trkpt lat="42.375104" lon="2.312060">
        <ele>1496.4</ele>
        <time>2014-06-14T10:00:30Z</time>
      </trkpt>
      <trkpt lat="42.375103" lon="2.312075">
        <ele>1496.7</ele>
        <time>2014-06-14T10:00:31Z</time>
      </trkpt>
      <trkpt lat="42.375095" lon="2.312114">
        <ele>1497.6</ele>
        <time>2014-06-14T10:00:45Z</time>
      </trkpt>
      <trkpt lat="42.375045" lon="2.312255">
        <ele>1501.6</ele>
        <time>2014-06-14T10:00:56Z</time>
      </trkpt>
      <trkpt lat="42.375045" lon="2.312404">
        <ele>1503.6</ele>
        <time>2014-06-14T10:01:03Z</time>
      </trkpt>
      <trkpt lat="42.375044" lon="2.312475">
        <ele>1504.4</ele>
        <time>2014-06-14T10:01:07Z</time>
      </trkpt>
      <trkpt lat="42.375022" lon="2.312535">
        <ele>1505.5</ele>
        <time>2014-06-14T10:01:13Z</time>
      </trkpt>
      <trkpt lat="42.375022" lon="2.312535">
        <ele>1505.5</ele>
        <time>2014-06-14T10:01:22Z</time>
      </trkpt>
      <trkpt lat="42.374979" lon="2.312750">
        <ele>1508.5</ele>
        <time>2014-06-14T10:01:34Z</time>
      </trkpt>
      <trkpt lat="42.374953" lon="2.312989">
        <ele>1510.8</ele>
        <time>2014-06-14T10:01:45Z</time>
      </trkpt>
      <trkpt lat="42.374943" lon="2.313186">
        <ele>1511.9</ele>
        <time>2014-06-14T10:01:46Z</time>
      </trkpt>
      <trkpt lat="42.374902" lon="2.313349">
        <ele>1513.9</ele>
        <time>2014-06-14T10:01:49Z</time>
      </trkpt>
      <trkpt lat="42.374901" lon="2.313360">
        <ele>1513.9</ele>
        <time>2014-06-14T10:02:02Z</time>
      </trkpt>
      <trkpt lat="42.374912" lon="2.313433">
        <ele>1513.7</ele>
        <time>2014-06-14T10:02:04Z</time>
      </trkpt>
      <trkpt lat="42.374932" lon="2.313596">
        <ele>1514.9</ele>
        <time>2014-06-14T10:02:16Z</time>
      </trkpt>
      <trkpt lat="42.374933" lon="2.313687">
        <ele>1516.7</ele>
        <time>2014-06-14T10:02:27Z</time>
      </trkpt>
      <trkpt lat="42.374944" lon="2.313740">
        <ele>1517.2</ele>
        <time>2014-06-14T10:02:28Z</time>
      </trkpt>
      <trkpt lat="42.374968" lon="2.313809">
        <ele>1517.6</ele>
        <time>2014-06-14T10:02:35Z</time>
      </trkpt>
      <trkpt lat="42.375001" lon="2.313919">
        <ele>1518.2</ele>
        <time>2014-06-14T10:02:39Z</time>
      </trkpt>
      <trkpt lat="42.375054" lon="2.314068">
        <ele>1519.1</ele>
        <time>2014-06-14T10:02:53Z</time>
      </trkpt>
      <trkpt lat="42.375062" lon="2.314200">
        <ele>1520.6</ele>
        <time>2014-06-14T10:03:06Z</time>
      </trkpt>
      <trkpt lat="42.375063" lon="2.314208">
        <ele>1520.7</ele>
        <time>2014-06-14T10:03:18Z</time>
      </trkpt>
      <trkpt lat="42.375066" lon="2.314243">
        <ele>1521.0</ele>
        <time>2014-06-14T10:03:30Z</time>
      </trkpt>
      <trkpt lat="42.375067" lon="2.314405">
        <ele>1522.4</ele>
        <time>2014-06-14T10:03:45Z</time>
      </trkpt>
      <trkpt lat="42.375064" lon="2.314428">
        <ele>1522.7</ele>
        <time>2014-06-14T10:03:59Z</time>
      </trkpt>
      <trkpt lat="42.375018" lon="2.314583">
        <ele>1525.8</ele>
        <time>2014-06-14T10:04:20Z</time>
      </trkpt>
      <trkpt lat="42.374981" lon="2.314714">
        <ele>1526.9</ele>
        <time>2014-06-14T10:04:31Z</time>
      </trkpt>
      <trkpt lat="42.374977" lon="2.314724">
        <ele>1527.0</ele>
        <time>2014-06-14T10:04:45Z</time>
      </trkpt>
      <trkpt lat="42.374956" lon="2.314805">
        <ele>1527.3</ele>
        <time>2014-06-14T10:04:59Z</time>
      </trkpt>
      <trkpt lat="42.374934" lon="2.314849">
        <ele>1527.9</ele>
        <time>2014-06-14T10:05:13Z</time>
      </trkpt>
      <trkpt lat="42.374888" lon="2.314982">
        <ele>1528.8</ele>
        <time>2014-06-14T10:05:25Z</time>
      </trkpt>
      <trkpt lat="42.374832" lon="2.315043">
        <ele>1530.7</ele>
        <time>2014-06-14T10:05:35Z</time>
      </trkpt>
      <trkpt lat="42.374738" lon="2.315005">
        <ele>1533.7</ele>
        <time>2014-06-14T10:05:45Z</time>
      </trkpt>
      <trkpt lat="42.374681" lon="2.315022">
        <ele>1535.4</ele>
        <time>2014-06-14T10:05:58Z</time>
      </trkpt>
      <trkpt lat="42.374576" lon="2.314999">
        <ele>1538.5</ele>
        <time>2014-06-14T10:06:11Z</time>
      </trkpt>
      <trkpt lat="42.374507" lon="2.314988">
        <ele>1540.6</ele>
        <time>2014-06-14T10:06:38Z</time>
      </trkpt>
      <trkpt lat="42.374495" lon="2.315005">
        <ele>1541.0</ele>
        <time>2014-06-14T10:06:51Z</time>
      </trkpt>
      <trkpt lat="42.374451" lon="2.315021">
        <ele>1542.4</ele>
        <time>2014-06-14T10:07:04Z</time>
      </trkpt>
      <trkpt lat="42.374416" lon="2.315016">
        <ele>1543.6</ele>
        <time>2014-06-14T10:07:15Z</time>
      </trkpt>
      <trkpt lat="42.374365" lon="2.315011">
        <ele>1545.5</ele>
        <time>2014-06-14T10:07:28Z</time>
      </trkpt>
      <trkpt lat="42.374304" lon="2.315120">
        <ele>1548.4</ele>
        <time>2014-06-14T10:07:47Z</time>
      </trkpt>
      <trkpt lat="42.374256" lon="2.315176">
        <ele>1550.5</ele>
        <time>2014-06-14T10:08:04Z</time>
      </trkpt>
      <trkpt lat="42.374222" lon="2.315179">
        <ele>1551.8</ele>
        <time>2014-06-14T10:08:19Z</time>
      </trkpt>
      <trkpt lat="42.374176" lon="2.315213">
        <ele>1553.4</ele>
        <time>2014-06-14T10:08:33Z</time>
      </trkpt>
      <trkpt lat="42.374156" lon="2.315284">
        <ele>1554.3</ele>
        <time>2014-06-14T10:08:48Z</time>
      </trkpt>
      <trkpt lat="42.374131" lon="2.315349">
        <ele>1555.5</ele>
        <time>2014-06-14T10:09:05Z</time>
      </trkpt>
      <trkpt lat="42.374131" lon="2.315349">
        <ele>1555.5</ele>
        <time>2014-06-14T10:09:16Z</time>
      </trkpt>
      <trkpt lat="42.374138" lon="2.315487">
        <ele>1555.9</ele>
        <time>2014-06-14T10:09:29Z</time>
      </trkpt>
      <trkpt lat="42.374170" lon="2.315610">
        <ele>1554.9</ele>
        <time>2014-06-14T10:09:42Z</time>
      </trkpt>
      <trkpt lat="42.374157" lon="2.315689">
        <ele>1555.8</ele>
        <time>2014-06-14T10:09:54Z</time>
      </trkpt>
      <trkpt lat="42.374159" lon="2.315713">
        <ele>1555.9</ele>
        <time>2014-06-14T10:10:06Z</time>
      </trkpt>
      <trkpt lat="42.374157" lon="2.315761">
        <ele>1556.0</ele>
        <time>2014-06-14T10:10:18Z</time>
      </trkpt>
      <trkpt lat="42.374131" lon="2.315804">
        <ele>1557.1</ele>
        <time>2014-06-14T10:10:29Z</time>
      </trkpt>
      <trkpt lat="42.374119" lon="2.315951">
        <ele>1558.8</ele>
        <time>2014-06-14T10:10:41Z</time>
      </trkpt>
      <trkpt lat="42.374107" lon="2.316058">
        <ele>1560.2</ele>
        <time>2014-06-14T10:10:52Z</time>
      </trkpt>
      <trkpt lat="42.374116" lon="2.316295">
        <ele>1561.7</ele>
        <time>2014-06-14T10:11:05Z</time>
      </trkpt>
      <trkpt lat="42.374101" lon="2.316602">
        <ele>1563.7</ele>
        <time>2014-06-14T10:11:22Z</time>
      </trkpt>
      <trkpt lat="42.374104" lon="2.316718">
        <ele>1563.6</ele>
        <time>2014-06-14T10:11:36Z</time>
      </trkpt>
      <trkpt lat="42.374090" lon="2.316843">
        <ele>1564.8</ele>
        <time>2014-06-14T10:11:50Z</time>
      </trkpt>
      <trkpt lat="42.374059" lon="2.316949">
        <ele>1565.8</ele>
        <time>2014-06-14T10:12:02Z</time>
      </trkpt>
      <trkpt lat="42.374020" lon="2.317094">
        <ele>1565.8</ele>
        <time>2014-06-14T10:12:17Z</time>
      </trkpt>
      <trkpt lat="42.373979" lon="2.317113">
        <ele>1567.3</ele>
        <time>2014-06-14T10:12:34Z</time>
      </trkpt>
      <trkpt lat="42.373950" lon="2.317133">
        <ele>1568.1</ele>
        <time>2014-06-14T10:15:12Z</time>
      </trkpt>
      <trkpt lat="42.373930" lon="2.317144">
        <ele>1568.8</ele>
        <time>2014-06-14T10:15:25Z</time>
      </trkpt>
      <trkpt lat="42.373871" lon="2.317171">
        <ele>1570.9</ele>
        <time>2014-06-14T10:15:37Z</time>
      </trkpt>
      <trkpt lat="42.373848" lon="2.317178">
        <ele>1571.8</ele>
        <time>2014-06-14T10:15:51Z</time>
      </trkpt>
      <trkpt lat="42.373846" lon="2.317176">
        <ele>1571.9</ele>
        <time>2014-06-14T10:16:05Z</time>
      </trkpt>
      <trkpt lat="42.373831" lon="2.317186">
        <ele>1572.4</ele>
        <time>2014-06-14T10:16:17Z</time>
      </trkpt>
      <trkpt lat="42.373789" lon="2.317180">
        <ele>1574.4</ele>
        <time>2014-06-14T10:16:31Z</time>
      </trkpt>
      <trkpt lat="42.373668" lon="2.317164">
        <ele>1580.7</ele>
        <time>2014-06-14T10:16:44Z</time>
      </trkpt>
      <trkpt lat="42.373590" lon="2.317132">
        <ele>1584.8</ele>
        <time>2014-06-14T10:17:02Z</time>
      </trkpt>
      <trkpt lat="42.373523" lon="2.317091">
        <ele>1588.3</ele>
        <time>2014-06-14T10:17:17Z</time>
      </trkpt>
      <trkpt lat="42.373485" lon="2.317075">
        <ele>1590.0</ele>
        <time>2014-06-14T10:17:33Z</time>
      </trkpt>
      <trkpt lat="42.373427" lon="2.317078">
        <ele>1592.6</ele>
        <time>2014-06-14T10:17:47Z</time>
      </trkpt>
      <trkpt lat="42.373366" lon="2.317137">
        <ele>1594.8</ele>
        <time>2014-06-14T10:17:58Z</time>
      </trkpt>
      <trkpt lat="42.373263" lon="2.317236">
        <ele>1598.2</ele>
        <time>2014-06-14T10:18:10Z</time>
      </trkpt>
      <trkpt lat="42.373210" lon="2.317340">
        <ele>1599.3</ele>
        <time>2014-06-14T10:18:38Z</time>
      </trkpt>
      <trkpt lat="42.373124" lon="2.317549">
        <ele>1600.1</ele>
        <time>2014-06-14T10:18:44Z</time>
      </trkpt>
      <trkpt lat="42.373097" lon="2.317625">
        <ele>1599.1</ele>
        <time>2014-06-14T10:18:55Z</time>
      </trkpt>
      <trkpt lat="42.373017" lon="2.317778">
        <ele>1598.4</ele>
        <time>2014-06-14T10:19:08Z</time>
      </trkpt>
      <trkpt lat="42.373010" lon="2.317782">
        <ele>1598.6</ele>
        <time>2014-06-14T10:19:21Z</time>
      </trkpt>
      <trkpt lat="42.373012" lon="2.317785">
        <ele>1598.4</ele>
        <time>2014-06-14T10:19:34Z</time>
      </trkpt>
      <trkpt lat="42.372980" lon="2.317840">
        <ele>1598.5</ele>
        <time>2014-06-14T10:19:49Z</time>
      </trkpt>
      <trkpt lat="42.372916" lon="2.318011">
        <ele>1597.0</ele>
        <time>2014-06-14T10:20:03Z</time>
      </trkpt>
      <trkpt lat="42.372906" lon="2.318071">
        <ele>1596.6</ele>
        <time>2014-06-14T10:20:20Z</time>
      </trkpt>
      <trkpt lat="42.372906" lon="2.318071">
        <ele>1596.6</ele>
        <time>2014-06-14T10:20:36Z</time>
      </trkpt>
      <trkpt lat="42.372896" lon="2.318214">
        <ele>1597.3</ele>
        <time>2014-06-14T10:20:51Z</time>
      </trkpt>
      <trkpt lat="42.372896" lon="2.318214">
        <ele>1597.3</ele>
        <time>2014-06-14T10:21:04Z</time>
      </trkpt>
      <trkpt lat="42.372896" lon="2.318214">
        <ele>1597.3</ele>
        <time>2014-06-14T10:21:16Z</time>
      </trkpt>
      <trkpt lat="42.372915" lon="2.318338">
        <ele>1597.6</ele>
        <time>2014-06-14T10:21:31Z</time>
      </trkpt>
      <trkpt lat="42.372941" lon="2.318558">
        <ele>1599.3</ele>
        <time>2014-06-14T10:21:43Z</time>
      </trkpt>
      <trkpt lat="42.372951" lon="2.318717">
        <ele>1600.8</ele>
        <time>2014-06-14T10:21:54Z</time>
      </trkpt>
      <trkpt lat="42.372952" lon="2.318794">
        <ele>1601.7</ele>
        <time>2014-06-14T10:22:11Z</time>
      </trkpt>
      <trkpt lat="42.372971" lon="2.319041">
        <ele>1604.2</ele>
        <time>2014-06-14T10:22:23Z</time>
      </trkpt>
      <trkpt lat="42.372975" lon="2.319088">
        <ele>1604.7</ele>
        <time>2014-06-14T10:22:34Z</time>
      </trkpt>
      <trkpt lat="42.372990" lon="2.319105">
        <ele>1604.6</ele>
        <time>2014-06-14T10:22:49Z</time>
      </trkpt>
      <trkpt lat="42.373014" lon="2.319229">
        <ele>1606.0</ele>
        <time>2014-06-14T10:23:00Z</time>
      </trkpt>
      <trkpt lat="42.373097" lon="2.319368">
        <ele>1606.6</ele>
        <time>2014-06-14T10:23:12Z</time>
      </trkpt>
      <trkpt lat="42.373146" lon="2.319489">
        <ele>1607.6</ele>
        <time>2014-06-14T10:28:49Z</time>
      </trkpt>
      <trkpt lat="42.373196" lon="2.319614">
        <ele>1608.6</ele>
        <time>2014-06-14T10:33:48Z</time>
      </trkpt>
      <trkpt lat="42.373266" lon="2.319802">
        <ele>1608.8</ele>
        <time>2014-06-14T10:33:58Z</time>
      </trkpt>
      <trkpt lat="42.373250" lon="2.319924">
        <ele>1610.1</ele>
        <time>2014-06-14T10:34:09Z</time>
      </trkpt>
      <trkpt lat="42.373237" lon="2.320017">
        <ele>1610.8</ele>
        <time>2014-06-14T10:34:24Z</time>
      </trkpt>
      <trkpt lat="42.373212" lon="2.320101">
        <ele>1611.7</ele>
        <time>2014-06-14T10:34:36Z</time>
      </trkpt>
      <trkpt lat="42.373183" lon="2.320233">
        <ele>1613.2</ele>
        <time>2014-06-14T10:34:55Z</time>
      </trkpt>
      <trkpt lat="42.373173" lon="2.320235">
        <ele>1613.6</ele>
        <time>2014-06-14T10:35:08Z</time>
      </trkpt>
      <trkpt lat="42.373099" lon="2.320282">
        <ele>1615.8</ele>
        <time>2014-06-14T10:35:22Z</time>
      </trkpt>
      <trkpt lat="42.373046" lon="2.320273">
        <ele>1617.4</ele>
        <time>2014-06-14T10:35:39Z</time>
      </trkpt>
      <trkpt lat="42.373046" lon="2.320273">
        <ele>1617.4</ele>
        <time>2014-06-14T10:35:53Z</time>
      </trkpt>
      <trkpt lat="42.372957" lon="2.320380">
        <ele>1620.6</ele>
        <time>2014-06-14T10:36:11Z</time>
      </trkpt>
      <trkpt lat="42.372846" lon="2.320350">
        <ele>1624.2</ele>
        <time>2014-06-14T10:36:24Z</time>
      </trkpt>
      <trkpt lat="42.372709" lon="2.320298">
        <ele>1628.5</ele>
        <time>2014-06-14T10:36:37Z</time>
      </trkpt>
      <trkpt lat="42.372634" lon="2.320320">
        <ele>1631.4</ele>
        <time>2014-06-14T10:36:51Z</time>
      </trkpt>
      <trkpt lat="42.372617" lon="2.320349">
        <ele>1632.3</ele>
        <time>2014-06-14T10:37:06Z</time>
      </trkpt>
      <trkpt lat="42.372604" lon="2.320364">
        <ele>1633.0</ele>
        <time>2014-06-14T10:37:20Z</time>
      </trkpt>
      <trkpt lat="42.372596" lon="2.320374">
        <ele>1633.5</ele>
        <time>2014-06-14T10:37:33Z</time>
      </trkpt>
      <trkpt lat="42.372546" lon="2.320418">
        <ele>1636.1</ele>
        <time>2014-06-14T10:37:45Z</time>
      </trkpt>
      <trkpt lat="42.372523" lon="2.320431">
        <ele>1637.2</ele>
        <time>2014-06-14T10:37:47Z</time>
      </trkpt>
      <trkpt lat="42.372425" lon="2.320467">
        <ele>1641.5</ele>
        <time>2014-06-14T10:38:01Z</time>
      </trkpt>
      <trkpt lat="42.372378" lon="2.320508">
        <ele>1643.8</ele>
        <time>2014-06-14T10:38:16Z</time>
      </trkpt>
      <trkpt lat="42.372273" lon="2.320561">
        <ele>1647.7</ele>
        <time>2014-06-14T10:38:27Z</time>
      </trkpt>
      <trkpt lat="42.372302" lon="2.320678">
        <ele>1648.6</ele>
        <time>2014-06-14T10:38:38Z</time>
      </trkpt>
      <trkpt lat="42.372322" lon="2.320803">
        <ele>1650.0</ele>
        <time>2014-06-14T10:38:50Z</time>
      </trkpt>
      <trkpt lat="42.372425" lon="2.320931">
        <ele>1650.4</ele>
        <time>2014-06-14T10:39:03Z</time>
      </trkpt>
      <trkpt lat="42.372545" lon="2.321114">
        <ele>1650.8</ele>
        <time>2014-06-14T10:39:15Z</time>
      </trkpt>
      <trkpt lat="42.372599" lon="2.321232">
        <ele>1651.6</ele>
        <time>2014-06-14T10:39:28Z</time>
      </trkpt>
      <trkpt lat="42.372657" lon="2.321406">
        <ele>1653.1</ele>
        <time>2014-06-14T10:39:44Z</time>
      </trkpt>
      <trkpt lat="42.372673" lon="2.321442">
        <ele>1653.4</ele>
        <time>2014-06-14T10:39:56Z</time>
      </trkpt>
      <trkpt lat="42.372687" lon="2.321474">
        <ele>1653.7</ele>
        <time>2014-06-14T10:40:07Z</time>
      </trkpt>
      <trkpt lat="42.372764" lon="2.321559">
        <ele>1653.5</ele>
        <time>2014-06-14T10:40:20Z</time>
      </trkpt>
      <trkpt lat="42.372838" lon="2.321711">
        <ele>1656.8</ele>
        <time>2014-06-14T10:40:24Z</time>
      </trkpt>
      <trkpt lat="42.372919" lon="2.321794">
        <ele>1657.9</ele>
        <time>2014-06-14T10:40:37Z</time>
      </trkpt>
      <trkpt lat="42.372992" lon="2.321844">
        <ele>1658.4</ele>
        <time>2014-06-14T10:43:30Z</time>
      </trkpt>
      <trkpt lat="42.373069" lon="2.321909">
        <ele>1660.4</ele>
        <time>2014-06-14T10:43:41Z</time>
      </trkpt>
      <trkpt lat="42.373137" lon="2.322003">
        <ele>1662.1</ele>
        <time>2014-06-14T10:43:42Z</time>
      </trkpt>
      <trkpt lat="42.373185" lon="2.322067">
        <ele>1663.1</ele>
        <time>2014-06-14T10:43:52Z</time>
      </trkpt>
      <trkpt lat="42.373267" lon="2.322151">
        <ele>1663.5</ele>
        <time>2014-06-14T10:44:05Z</time>
      </trkpt>
      <trkpt lat="42.373322" lon="2.322221">
        <ele>1664.0</ele>
        <time>2014-06-14T10:44:17Z</time>
      </trkpt>
      <trkpt lat="42.373332" lon="2.322293">
        <ele>1665.8</ele>
        <time>2014-06-14T10:44:28Z</time>
      </trkpt>
      <trkpt lat="42.373331" lon="2.322435">
        <ele>1669.5</ele>
        <time>2014-06-14T10:44:39Z</time>
      </trkpt>
      <trkpt lat="42.373358" lon="2.322558">
        <ele>1672.0</ele>
        <time>2014-06-14T10:44:50Z</time>
      </trkpt>
      <trkpt lat="42.373375" lon="2.322599">
        <ele>1672.8</ele>
        <time>2014-06-14T10:45:01Z</time>
      </trkpt>
      <trkpt lat="42.373422" lon="2.322731">
        <ele>1674.3</ele>
        <time>2014-06-14T10:47:06Z</time>
      </trkpt>
      <trkpt lat="42.373482" lon="2.322949">
        <ele>1676.3</ele>
        <time>2014-06-14T10:47:19Z</time>
      </trkpt>
      <trkpt lat="42.373493" lon="2.323093">
        <ele>1678.7</ele>
        <time>2014-06-14T10:47:31Z</time>
      </trkpt>
      <trkpt lat="42.373494" lon="2.323105">
        <ele>1678.9</ele>
        <time>2014-06-14T10:47:44Z</time>
      </trkpt>
      <trkpt lat="42.373478" lon="2.323212">
        <ele>1680.6</ele>
        <time>2014-06-14T10:47:56Z</time>
      </trkpt>
      <trkpt lat="42.373443" lon="2.323392">
        <ele>1682.4</ele>
        <time>2014-06-14T10:48:08Z</time>
      </trkpt>
      <trkpt lat="42.373397" lon="2.323552">
        <ele>1684.8</ele>
        <time>2014-06-14T10:48:21Z</time>
      </trkpt>
      <trkpt lat="42.373369" lon="2.323698">
        <ele>1686.6</ele>
        <time>2014-06-14T10:48:25Z</time>
      </trkpt>
      <trkpt lat="42.373346" lon="2.323836">
        <ele>1687.5</ele>
        <time>2014-06-14T10:48:43Z</time>
      </trkpt>
      <trkpt lat="42.373338" lon="2.323911">
        <ele>1687.8</ele>
        <time>2014-06-14T10:49:01Z</time>
      </trkpt>
      <trkpt lat="42.373278" lon="2.324035">
        <ele>1690.3</ele>
        <time>2014-06-14T10:49:18Z</time>
      </trkpt>
      <trkpt lat="42.373293" lon="2.324166">
        <ele>1690.0</ele>
        <time>2014-06-14T10:49:42Z</time>
      </trkpt>
      <trkpt lat="42.373290" lon="2.324270">
        <ele>1690.2</ele>
        <time>2014-06-14T10:49:53Z</time>
      </trkpt>
      <trkpt lat="42.373283" lon="2.324423">
        <ele>1689.5</ele>
        <time>2014-06-14T10:50:04Z</time>
      </trkpt>
      <trkpt lat="42.373273" lon="2.324567">
        <ele>1687.8</ele>
        <time>2014-06-14T10:50:17Z</time>
      </trkpt>
      <trkpt lat="42.373249" lon="2.324700">
        <ele>1687.4</ele>
        <time>2014-06-14T10:50:30Z</time>
      </trkpt>
      <trkpt lat="42.373222" lon="2.324808">
        <ele>1687.8</ele>
        <time>2014-06-14T10:50:36Z</time>
      </trkpt>
      <trkpt lat="42.373185" lon="2.324882">
        <ele>1689.1</ele>
        <time>2014-06-14T10:50:39Z</time>
      </trkpt>
      <trkpt lat="42.373185" lon="2.324882">
        <ele>1689.1</ele>
        <time>2014-06-14T10:50:41Z</time>
      </trkpt>
      <trkpt lat="42.373166" lon="2.325066">
        <ele>1692.7</ele>
        <time>2014-06-14T10:50:58Z</time>
      </trkpt>
      <trkpt lat="42.373151" lon="2.325127">
        <ele>1694.4</ele>
        <time>2014-06-14T10:51:20Z</time>
      </trkpt>
      <trkpt lat="42.373151" lon="2.325127">
        <ele>1694.4</ele>
        <time>2014-06-14T10:51:32Z</time>
      </trkpt>
      <trkpt lat="42.373182" lon="2.325194">
        <ele>1694.5</ele>
        <time>2014-06-14T10:51:44Z</time>
      </trkpt>
      <trkpt lat="42.373210" lon="2.325306">
        <ele>1696.3</ele>
        <time>2014-06-14T10:51:52Z</time>
      </trkpt>
      <trkpt lat="42.373259" lon="2.325354">
        <ele>1696.7</ele>
        <time>2014-06-14T10:52:07Z</time>
      </trkpt>
      <trkpt lat="42.373396" lon="2.325425">
        <ele>1695.4</ele>
        <time>2014-06-14T10:52:19Z</time>
      </trkpt>
      <trkpt lat="42.373502" lon="2.325479">
        <ele>1695.7</ele>
        <time>2014-06-14T10:52:31Z</time>
      </trkpt>
      <trkpt lat="42.373502" lon="2.325479">
        <ele>1695.7</ele>
        <time>2014-06-14T10:52:36Z</time>
      </trkpt>
      <trkpt lat="42.373521" lon="2.325489">
        <ele>1695.9</ele>
        <time>2014-06-14T10:52:48Z</time>
      </trkpt>
      <trkpt lat="42.373541" lon="2.325508">
        <ele>1696.5</ele>
        <time>2014-06-14T10:53:02Z</time>
      </trkpt>
      <trkpt lat="42.373576" lon="2.325521">
        <ele>1696.4</ele>
        <time>2014-06-14T10:53:15Z</time>
      </trkpt>
      <trkpt lat="42.373576" lon="2.325521">
        <ele>1696.4</ele>
        <time>2014-06-14T10:53:31Z</time>
      </trkpt>
      <trkpt lat="42.373692" lon="2.325619">
        <ele>1698.3</ele>
        <time>2014-06-14T10:53:45Z</time>
      </trkpt>
      <trkpt lat="42.373789" lon="2.325693">
        <ele>1699.2</ele>
        <time>2014-06-14T10:54:01Z</time>
      </trkpt>
      <trkpt lat="42.373876" lon="2.325776">
        <ele>1699.8</ele>
        <time>2014-06-14T10:54:02Z</time>
      </trkpt>
      <trkpt lat="42.374007" lon="2.325973">
        <ele>1702.7</ele>
        <time>2014-06-14T10:54:06Z</time>
      </trkpt>
      <trkpt lat="42.374098" lon="2.326094">
        <ele>1702.9</ele>
        <time>2014-06-14T10:54:12Z</time>
      </trkpt>
      <trkpt lat="42.374151" lon="2.326139">
        <ele>1702.1</ele>
        <time>2014-06-14T10:54:27Z</time>
      </trkpt>
      <trkpt lat="42.374212" lon="2.326159">
        <ele>1699.9</ele>
        <time>2014-06-14T10:54:38Z</time>
      </trkpt>
      <trkpt lat="42.374252" lon="2.326196">
        <ele>1699.3</ele>
        <time>2014-06-14T10:54:52Z</time>
      </trkpt>
      <trkpt lat="42.374298" lon="2.326288">
        <ele>1700.3</ele>
        <time>2014-06-14T10:55:05Z</time>
      </trkpt>
      <trkpt lat="42.374438" lon="2.326397">
        <ele>1698.5</ele>
        <time>2014-06-14T10:55:12Z</time>
      </trkpt>
      <trkpt lat="42.374621" lon="2.326518">
        <ele>1697.5</ele>
        <time>2014-06-14T10:55:25Z</time>
      </trkpt>
      <trkpt lat="42.374782" lon="2.326662">
        <ele>1698.1</ele>
        <time>2014-06-14T10:55:36Z</time>
      </trkpt>
      <trkpt lat="42.374894" lon="2.326882">
        <ele>1699.3</ele>
        <time>2014-06-14T10:55:48Z</time>
      </trkpt>
      <trkpt lat="42.374900" lon="2.326896">
        <ele>1699.4</ele>
        <time>2014-06-14T10:55:54Z</time>
      </trkpt>
      <trkpt lat="42.374914" lon="2.326953">
        <ele>1700.1</ele>
        <time>2014-06-14T10:56:07Z</time>
      </trkpt>
      <trkpt lat="42.374946" lon="2.327032">
        <ele>1700.8</ele>
        <time>2014-06-14T10:56:20Z</time>
      </trkpt>
      <trkpt lat="42.375011" lon="2.327239">
        <ele>1702.1</ele>
        <time>2014-06-14T10:56:23Z</time>
      </trkpt>
      <trkpt lat="42.375037" lon="2.327405">
        <ele>1702.4</ele>
        <time>2014-06-14T10:56:31Z</time>
      </trkpt>
      <trkpt lat="42.375064" lon="2.327609">
        <ele>1702.7</ele>
        <time>2014-06-14T10:56:43Z</time>
      </trkpt>
      <trkpt lat="42.375073" lon="2.327810">
        <ele>1703.8</ele>
        <time>2014-06-14T10:56:47Z</time>
      </trkpt>
      <trkpt lat="42.375081" lon="2.327924">
        <ele>1704.3</ele>
        <time>2014-06-14T10:56:54Z</time>
      </trkpt>
      <trkpt lat="42.375106" lon="2.328104">
        <ele>1704.6</ele>
        <time>2014-06-14T10:56:58Z</time>
      </trkpt>
      <trkpt lat="42.375125" lon="2.328266">
        <ele>1705.7</ele>
        <time>2014-06-14T10:57:09Z</time>
      </trkpt>
      <trkpt lat="42.375141" lon="2.328439">
        <ele>1706.3</ele>
        <time>2014-06-14T10:57:22Z</time>
      </trkpt>
      <trkpt lat="42.375148" lon="2.328527">
        <ele>1706.5</ele>
        <time>2014-06-14T10:57:27Z</time>
      </trkpt>
      <trkpt lat="42.375186" lon="2.328713">
        <ele>1705.8</ele>
        <time>2014-06-14T10:57:41Z</time>
      </trkpt>
      <trkpt lat="42.375181" lon="2.328909">
        <ele>1707.9</ele>
        <time>2014-06-14T10:57:54Z</time>
      </trkpt>
      <trkpt lat="42.375180" lon="2.328941">
        <ele>1708.4</ele>
        <time>2014-06-14T10:58:03Z</time>
      </trkpt>
      <trkpt lat="42.375197" lon="2.329070">
        <ele>1709.1</ele>
        <time>2014-06-14T10:58:15Z</time>
      </trkpt>
      <trkpt lat="42.375231" lon="2.329255">
        <ele>1709.4</ele>
        <time>2014-06-14T10:58:26Z</time>
      </trkpt>
      <trkpt lat="42.375241" lon="2.329318">
        <ele>1709.8</ele>
        <time>2014-06-14T10:58:37Z</time>
      </trkpt>
      <trkpt lat="42.375246" lon="2.329415">
        <ele>1710.8</ele>
        <time>2014-06-14T10:58:49Z</time>
      </trkpt>
      <trkpt lat="42.375270" lon="2.329461">
        <ele>1710.3</ele>
        <time>2014-06-14T10:59:14Z</time>
      </trkpt>
      <trkpt lat="42.375314" lon="2.329608">
        <ele>1710.5</ele>
        <time>2014-06-14T10:59:32Z</time>
      </trkpt>
      <trkpt lat="42.375347" lon="2.329785">
        <ele>1712.2</ele>
        <time>2014-06-14T10:59:46Z</time>
      </trkpt>
      <trkpt lat="42.375358" lon="2.329853">
        <ele>1712.9</ele>
        <time>2014-06-14T11:00:10Z</time>
      </trkpt>
      <trkpt lat="42.375393" lon="2.330058">
        <ele>1714.0</ele>
        <time>2014-06-14T11:00:22Z</time>
      </trkpt>
      <trkpt lat="42.375411" lon="2.330251">
        <ele>1714.7</ele>
        <time>2014-06-14T11:00:26Z</time>
      </trkpt>
      <trkpt lat="42.375422" lon="2.330389">
        <ele>1715.3</ele>
        <time>2014-06-14T11:00:39Z</time>
      </trkpt>
      <trkpt lat="42.375449" lon="2.330557">
        <ele>1715.1</ele>
        <time>2014-06-14T11:00:46Z</time>
      </trkpt>
      <trkpt lat="42.375475" lon="2.330720">
        <ele>1715.5</ele>
        <time>2014-06-14T11:01:00Z</time>
      </trkpt>
      <trkpt lat="42.375501" lon="2.330876">
        <ele>1715.6</ele>
        <time>2014-06-14T11:01:07Z</time>
      </trkpt>
      <trkpt lat="42.375500" lon="2.330929">
        <ele>1716.0</ele>
        <time>2014-06-14T11:01:19Z</time>
      </trkpt>
      <trkpt lat="42.375502" lon="2.330935">
        <ele>1716.0</ele>
        <time>2014-06-14T11:01:52Z</time>
      </trkpt>
      <trkpt lat="42.375496" lon="2.330945">
        <ele>1716.3</ele>
        <time>2014-06-14T11:02:12Z</time>
      </trkpt>
      <trkpt lat="42.375504" lon="2.331044">
        <ele>1716.9</ele>
        <time>2014-06-14T11:02:22Z</time>
      </trkpt>
      <trkpt lat="42.375507" lon="2.331117">
        <ele>1717.4</ele>
        <time>2014-06-14T11:03:03Z</time>
      </trkpt>
      <trkpt lat="42.375553" lon="2.331327">
        <ele>1717.5</ele>
        <time>2014-06-14T11:03:22Z</time>
      </trkpt>
      <trkpt lat="42.375567" lon="2.331406">
        <ele>1717.6</ele>
        <time>2014-06-14T11:03:41Z</time>
      </trkpt>
      <trkpt lat="42.375561" lon="2.331607">
        <ele>1719.4</ele>
        <time>2014-06-14T11:03:53Z</time>
      </trkpt>
      <trkpt lat="42.375559" lon="2.331732">
        <ele>1721.0</ele>
        <time>2014-06-14T11:04:03Z</time>
      </trkpt>
      <trkpt lat="42.375603" lon="2.331898">
        <ele>1722.8</ele>
        <time>2014-06-14T11:04:13Z</time>
      </trkpt>
      <trkpt lat="42.375606" lon="2.331909">
        <ele>1722.9</ele>
        <time>2014-06-14T11:04:25Z</time>
      </trkpt>
      <trkpt lat="42.375627" lon="2.331991">
        <ele>1724.0</ele>
        <time>2014-06-14T11:04:36Z</time>
      </trkpt>
      <trkpt lat="42.375627" lon="2.331991">
        <ele>1724.0</ele>
        <time>2014-06-14T11:04:44Z</time>
      </trkpt>
      <trkpt lat="42.375642" lon="2.332109">
        <ele>1725.8</ele>
        <time>2014-06-14T11:04:56Z</time>
      </trkpt>
      <trkpt lat="42.375708" lon="2.332224">
        <ele>1725.9</ele>
        <time>2014-06-14T11:05:04Z</time>
      </trkpt>
      <trkpt lat="42.375671" lon="2.332371">
        <ele>1728.8</ele>
        <time>2014-06-14T11:05:16Z</time>
      </trkpt>
      <trkpt lat="42.375671" lon="2.332371">
        <ele>1728.8</ele>
        <time>2014-06-14T11:05:17Z</time>
      </trkpt>
      <trkpt lat="42.375642" lon="2.332420">
        <ele>1729.9</ele>
        <time>2014-06-14T11:05:28Z</time>
      </trkpt>
      <trkpt lat="42.375603" lon="2.332491">
        <ele>1731.4</ele>
        <time>2014-06-14T11:05:40Z</time>
      </trkpt>
      <trkpt lat="42.375546" lon="2.332537">
        <ele>1733.2</ele>
        <time>2014-06-14T11:05:52Z</time>
      </trkpt>
      <trkpt lat="42.375507" lon="2.332549">
        <ele>1734.3</ele>
        <time>2014-06-14T11:06:03Z</time>
      </trkpt>
      <trkpt lat="42.375451" lon="2.332664">
        <ele>1736.8</ele>
        <time>2014-06-14T11:06:11Z</time>
      </trkpt>
      <trkpt lat="42.375406" lon="2.332724">
        <ele>1738.5</ele>
        <time>2014-06-14T11:06:23Z</time>
      </trkpt>
      <trkpt lat="42.375332" lon="2.332748">
        <ele>1741.1</ele>
        <time>2014-06-14T11:06:35Z</time>
      </trkpt>
      <trkpt lat="42.375274" lon="2.332806">
        <ele>1743.6</ele>
        <time>2014-06-14T11:06:47Z</time>
      </trkpt>
      <trkpt lat="42.375245" lon="2.332855">
        <ele>1744.9</ele>
        <time>2014-06-14T11:06:58Z</time>
      </trkpt>
      <trkpt lat="42.375217" lon="2.332927">
        <ele>1746.2</ele>
        <time>2014-06-14T11:07:09Z</time>
      </trkpt>
      <trkpt lat="42.375212" lon="2.332933">
        <ele>1746.4</ele>
        <time>2014-06-14T11:07:21Z</time>
      </trkpt>
      <trkpt lat="42.375147" lon="2.332962">
        <ele>1748.7</ele>
        <time>2014-06-14T11:07:32Z</time>
      </trkpt>
      <trkpt lat="42.375081" lon="2.332963">
        <ele>1750.8</ele>
        <time>2014-06-14T11:07:43Z</time>
      </trkpt>
      <trkpt lat="42.375005" lon="2.332945">
        <ele>1753.0</ele>
        <time>2014-06-14T11:07:54Z</time>
      </trkpt>
      <trkpt lat="42.374940" lon="2.332903">
        <ele>1754.7</ele>
        <time>2014-06-14T11:08:07Z</time>
      </trkpt>
      <trkpt lat="42.374904" lon="2.332909">
        <ele>1755.8</ele>
        <time>2014-06-14T11:08:19Z</time>
      </trkpt>
      <trkpt lat="42.374836" lon="2.332997">
        <ele>1758.6</ele>
        <time>2014-06-14T11:08:31Z</time>
      </trkpt>
      <trkpt lat="42.374773" lon="2.333076">
        <ele>1761.0</ele>
        <time>2014-06-14T11:08:44Z</time>
      </trkpt>
      <trkpt lat="42.374725" lon="2.333159">
        <ele>1763.2</ele>
        <time>2014-06-14T11:08:55Z</time>
      </trkpt>
      <trkpt lat="42.374692" lon="2.333181">
        <ele>1764.6</ele>
        <time>2014-06-14T11:09:09Z</time>
      </trkpt>
      <trkpt lat="42.374637" lon="2.333204">
        <ele>1766.8</ele>
        <time>2014-06-14T11:09:15Z</time>
      </trkpt>
      <trkpt lat="42.374567" lon="2.333218">
        <ele>1769.2</ele>
        <time>2014-06-14T11:09:25Z</time>
      </trkpt>
      <trkpt lat="42.374504" lon="2.333259">
        <ele>1771.4</ele>
        <time>2014-06-14T11:09:36Z</time>
      </trkpt>
      <trkpt lat="42.374474" lon="2.333346">
        <ele>1773.0</ele>
        <time>2014-06-14T11:09:43Z</time>
      </trkpt>
      <trkpt lat="42.374397" lon="2.333375">
        <ele>1775.8</ele>
        <time>2014-06-14T11:09:48Z</time>
      </trkpt>
      <trkpt lat="42.374358" lon="2.333399">
        <ele>1777.3</ele>
        <time>2014-06-14T11:09:54Z</time>
      </trkpt>
      <trkpt lat="42.374298" lon="2.333423">
        <ele>1779.3</ele>
        <time>2014-06-14T11:10:04Z</time>
      </trkpt>
      <trkpt lat="42.374239" lon="2.333397">
        <ele>1779.9</ele>
        <time>2014-06-14T11:10:14Z</time>
      </trkpt>
      <trkpt lat="42.374174" lon="2.333386">
        <ele>1780.3</ele>
        <time>2014-06-14T11:10:26Z</time>
      </trkpt>
      <trkpt lat="42.374130" lon="2.333391">
        <ele>1781.9</ele>
        <time>2014-06-14T11:10:37Z</time>
      </trkpt>
      <trkpt lat="42.374117" lon="2.333380">
        <ele>1782.3</ele>
        <time>2014-06-14T11:10:50Z</time>
      </trkpt>
      <trkpt lat="42.374117" lon="2.333380">
        <ele>1782.3</ele>
        <time>2014-06-14T11:11:04Z</time>
      </trkpt>
      <trkpt lat="42.374141" lon="2.333468">
        <ele>1782.5</ele>
        <time>2014-06-14T11:11:15Z</time>
      </trkpt>
      <trkpt lat="42.374173" lon="2.333529">
        <ele>1782.4</ele>
        <time>2014-06-14T11:11:16Z</time>
      </trkpt>
      <trkpt lat="42.374191" lon="2.333578">
        <ele>1782.9</ele>
        <time>2014-06-14T11:11:34Z</time>
      </trkpt>
      <trkpt lat="42.374200" lon="2.333605">
        <ele>1783.3</ele>
        <time>2014-06-14T11:12:05Z</time>
      </trkpt>
      <trkpt lat="42.374204" lon="2.333642">
        <ele>1784.1</ele>
        <time>2014-06-14T11:12:19Z</time>
      </trkpt>
      <trkpt lat="42.374121" lon="2.333633">
        <ele>1786.5</ele>
        <time>2014-06-14T11:12:32Z</time>
      </trkpt>
      <trkpt lat="42.374096" lon="2.333628">
        <ele>1787.3</ele>
        <time>2014-06-14T11:12:45Z</time>
      </trkpt>
      <trkpt lat="42.374034" lon="2.333656">
        <ele>1790.4</ele>
        <time>2014-06-14T11:13:00Z</time>
      </trkpt>
      <trkpt lat="42.374023" lon="2.333713">
        <ele>1791.9</ele>
        <time>2014-06-14T11:13:10Z</time>
      </trkpt>
      <trkpt lat="42.373972" lon="2.333700">
        <ele>1793.9</ele>
        <time>2014-06-14T11:13:21Z</time>
      </trkpt>
      <trkpt lat="42.373917" lon="2.333688">
        <ele>1796.0</ele>
        <time>2014-06-14T11:13:36Z</time>
      </trkpt>
      <trkpt lat="42.373859" lon="2.333685">
        <ele>1798.8</ele>
        <time>2014-06-14T11:13:49Z</time>
      </trkpt>
      <trkpt lat="42.373848" lon="2.333683">
        <ele>1799.3</ele>
        <time>2014-06-14T11:14:02Z</time>
      </trkpt>
      <trkpt lat="42.373834" lon="2.333672">
        <ele>1799.9</ele>
        <time>2014-06-14T11:14:15Z</time>
      </trkpt>
      <trkpt lat="42.373834" lon="2.333669">
        <ele>1799.8</ele>
        <time>2014-06-14T11:14:28Z</time>
      </trkpt>
      <trkpt lat="42.373793" lon="2.333682">
        <ele>1802.0</ele>
        <time>2014-06-14T11:14:41Z</time>
      </trkpt>
      <trkpt lat="42.373735" lon="2.333674">
        <ele>1804.1</ele>
        <time>2014-06-14T11:14:53Z</time>
      </trkpt>
      <trkpt lat="42.373671" lon="2.333683">
        <ele>1805.9</ele>
        <time>2014-06-14T11:15:03Z</time>
      </trkpt>
      <trkpt lat="42.373602" lon="2.333654">
        <ele>1807.2</ele>
        <time>2014-06-14T11:15:13Z</time>
      </trkpt>
      <trkpt lat="42.373550" lon="2.333629">
        <ele>1808.7</ele>
        <time>2014-06-14T11:15:25Z</time>
      </trkpt>
      <trkpt lat="42.373489" lon="2.333623">
        <ele>1811.3</ele>
        <time>2014-06-14T11:15:37Z</time>
      </trkpt>
      <trkpt lat="42.373460" lon="2.333630">
        <ele>1812.8</ele>
        <time>2014-06-14T11:15:50Z</time>
      </trkpt>
      <trkpt lat="42.373423" lon="2.333635">
        <ele>1814.7</ele>
        <time>2014-06-14T11:16:01Z</time>
      </trkpt>
      <trkpt lat="42.373362" lon="2.333682">
        <ele>1818.7</ele>
        <time>2014-06-14T11:16:14Z</time>
      </trkpt>
      <trkpt lat="42.373315" lon="2.333711">
        <ele>1821.7</ele>
        <time>2014-06-14T11:16:26Z</time>
      </trkpt>
      <trkpt lat="42.373274" lon="2.333741">
        <ele>1824.2</ele>
        <time>2014-06-14T11:16:39Z</time>
      </trkpt>
      <trkpt lat="42.373203" lon="2.333763">
        <ele>1827.0</ele>
        <time>2014-06-14T11:16:50Z</time>
      </trkpt>
      <trkpt lat="42.373159" lon="2.333795">
        <ele>1828.9</ele>
        <time>2014-06-14T11:17:01Z</time>
      </trkpt>
      <trkpt lat="42.373130" lon="2.333817">
        <ele>1830.1</ele>
        <time>2014-06-14T11:17:35Z</time>
      </trkpt>
      <trkpt lat="42.373085" lon="2.333848">
        <ele>1831.9</ele>
        <time>2014-06-14T11:17:36Z</time>
      </trkpt>
      <trkpt lat="42.373017" lon="2.333880">
        <ele>1834.6</ele>
        <time>2014-06-14T11:17:48Z</time>
      </trkpt>
      <trkpt lat="42.372949" lon="2.333924">
        <ele>1837.3</ele>
        <time>2014-06-14T11:18:06Z</time>
      </trkpt>
      <trkpt lat="42.372882" lon="2.333952">
        <ele>1839.0</ele>
        <time>2014-06-14T11:18:26Z</time>
      </trkpt>
      <trkpt lat="42.372832" lon="2.333992">
        <ele>1840.6</ele>
        <time>2014-06-14T11:18:37Z</time>
      </trkpt>
      <trkpt lat="42.372745" lon="2.334027">
        <ele>1842.4</ele>
        <time>2014-06-14T11:18:40Z</time>
      </trkpt>
      <trkpt lat="42.372675" lon="2.334061">
        <ele>1843.7</ele>
        <time>2014-06-14T11:18:52Z</time>
      </trkpt>
      <trkpt lat="42.372624" lon="2.334076">
        <ele>1844.3</ele>
        <time>2014-06-14T11:18:53Z</time>
      </trkpt>
      <trkpt lat="42.372598" lon="2.334130">
        <ele>1845.6</ele>
        <time>2014-06-14T11:19:04Z</time>
      </trkpt>
      <trkpt lat="42.372577" lon="2.334170">
        <ele>1846.8</ele>
        <time>2014-06-14T11:19:16Z</time>
      </trkpt>
      <trkpt lat="42.372561" lon="2.334203">
        <ele>1847.7</ele>
        <time>2014-06-14T11:19:26Z</time>
      </trkpt>
      <trkpt lat="42.372554" lon="2.334207">
        <ele>1847.9</ele>
        <time>2014-06-14T11:19:33Z</time>
      </trkpt>
      <trkpt lat="42.372521" lon="2.334306">
        <ele>1850.2</ele>
        <time>2014-06-14T11:19:36Z</time>
      </trkpt>
      <trkpt lat="42.372514" lon="2.334310">
        <ele>1850.3</ele>
        <time>2014-06-14T11:19:38Z</time>
      </trkpt>
      <trkpt lat="42.372502" lon="2.334337">
        <ele>1851.0</ele>
        <time>2014-06-14T11:19:42Z</time>
      </trkpt>
      <trkpt lat="42.372433" lon="2.334461">
        <ele>1854.2</ele>
        <time>2014-06-14T11:19:52Z</time>
      </trkpt>
      <trkpt lat="42.372422" lon="2.334501">
        <ele>1855.2</ele>
        <time>2014-06-14T11:20:07Z</time>
      </trkpt>
      <trkpt lat="42.372365" lon="2.334648">
        <ele>1857.7</ele>
        <time>2014-06-14T11:20:21Z</time>
      </trkpt>
      <trkpt lat="42.372362" lon="2.334657">
        <ele>1857.9</ele>
        <time>2014-06-14T11:20:33Z</time>
      </trkpt>
      <trkpt lat="42.372289" lon="2.334781">
        <ele>1860.0</ele>
        <time>2014-06-14T11:20:44Z</time>
      </trkpt>
      <trkpt lat="42.372257" lon="2.334862">
        <ele>1860.9</ele>
        <time>2014-06-14T11:20:55Z</time>
      </trkpt>
      <trkpt lat="42.372221" lon="2.334963">
        <ele>1862.7</ele>
        <time>2014-06-14T11:21:10Z</time>
      </trkpt>
      <trkpt lat="42.372204" lon="2.335035">
        <ele>1863.6</ele>
        <time>2014-06-14T11:21:20Z</time>
      </trkpt>
      <trkpt lat="42.372196" lon="2.335060">
        <ele>1864.0</ele>
        <time>2014-06-14T11:21:29Z</time>
      </trkpt>
      <trkpt lat="42.372190" lon="2.335081">
        <ele>1864.2</ele>
        <time>2014-06-14T11:21:41Z</time>
      </trkpt>
      <trkpt lat="42.372182" lon="2.335126">
        <ele>1864.7</ele>
        <time>2014-06-14T11:21:51Z</time>
      </trkpt>
      <trkpt lat="42.372157" lon="2.335236">
        <ele>1866.7</ele>
        <time>2014-06-14T11:21:53Z</time>
      </trkpt>
      <trkpt lat="42.372158" lon="2.335242">
        <ele>1866.8</ele>
        <time>2014-06-14T11:21:59Z</time>
      </trkpt>
      <trkpt lat="42.372163" lon="2.335267">
        <ele>1867.3</ele>
        <time>2014-06-14T11:22:07Z</time>
      </trkpt>
      <trkpt lat="42.372161" lon="2.335440">
        <ele>1870.2</ele>
        <time>2014-06-14T11:22:19Z</time>
      </trkpt>
      <trkpt lat="42.372154" lon="2.335613">
        <ele>1872.9</ele>
        <time>2014-06-14T11:22:22Z</time>
      </trkpt>
      <trkpt lat="42.372163" lon="2.335789">
        <ele>1874.6</ele>
        <time>2014-06-14T11:22:36Z</time>
      </trkpt>
      <trkpt lat="42.372170" lon="2.336005">
        <ele>1876.6</ele>
        <time>2014-06-14T11:22:48Z</time>
      </trkpt>
      <trkpt lat="42.372185" lon="2.336139">
        <ele>1878.1</ele>
        <time>2014-06-14T11:22:51Z</time>
      </trkpt>
      <trkpt lat="42.372188" lon="2.336243">
        <ele>1878.7</ele>
        <time>2014-06-14T11:23:03Z</time>
      </trkpt>
      <trkpt lat="42.372243" lon="2.336374">
        <ele>1879.1</ele>
        <time>2014-06-14T11:23:15Z</time>
      </trkpt>
      <trkpt lat="42.372289" lon="2.336487">
        <ele>1879.0</ele>
        <time>2014-06-14T11:23:19Z</time>
      </trkpt>
      <trkpt lat="42.372296" lon="2.336502">
        <ele>1879.0</ele>
        <time>2014-06-14T11:23:23Z</time>
      </trkpt>
      <trkpt lat="42.372325" lon="2.336551">
        <ele>1878.8</ele>
        <time>2014-06-14T11:23:33Z</time>
      </trkpt>
      <trkpt lat="42.372375" lon="2.336629">
        <ele>1879.0</ele>
        <time>2014-06-14T11:23:44Z</time>
      </trkpt>
      <trkpt lat="42.372442" lon="2.336730">
        <ele>1879.1</ele>
        <time>2014-06-14T11:23:59Z</time>
      </trkpt>
      <trkpt lat="42.372462" lon="2.336763">
        <ele>1879.3</ele>
        <time>2014-06-14T11:24:45Z</time>
      </trkpt>
      <trkpt lat="42.372488" lon="2.336803">
        <ele>1879.5</ele>
        <time>2014-06-14T11:24:47Z</time>
      </trkpt>
      <trkpt lat="42.372492" lon="2.336804">
        <ele>1879.5</ele>
        <time>2014-06-14T11:24:53Z</time>
      </trkpt>
      <trkpt lat="42.372507" lon="2.336828">
        <ele>1879.7</ele>
        <time>2014-06-14T11:25:06Z</time>
      </trkpt>
      <trkpt lat="42.372571" lon="2.336915">
        <ele>1880.5</ele>
        <time>2014-06-14T11:25:18Z</time>
      </trkpt>
      <trkpt lat="42.372601" lon="2.336950">
        <ele>1880.8</ele>
        <time>2014-06-14T11:25:37Z</time>
      </trkpt>
      <trkpt lat="42.372622" lon="2.336990">
        <ele>1881.2</ele>
        <time>2014-06-14T11:25:48Z</time>
      </trkpt>
      <trkpt lat="42.372645" lon="2.337033">
        <ele>1881.7</ele>
        <time>2014-06-14T11:26:11Z</time>
      </trkpt>
      <trkpt lat="42.372727" lon="2.337130">
        <ele>1882.9</ele>
        <time>2014-06-14T11:26:33Z</time>
      </trkpt>
      <trkpt lat="42.372788" lon="2.337261">
        <ele>1883.3</ele>
        <time>2014-06-14T11:26:37Z</time>
      </trkpt>
      <trkpt lat="42.372767" lon="2.337271">
        <ele>1882.8</ele>
        <time>2014-06-14T11:26:45Z</time>
      </trkpt>
      <trkpt lat="42.372767" lon="2.337272">
        <ele>1882.8</ele>
        <time>2014-06-14T11:26:53Z</time>
      </trkpt>
      <trkpt lat="42.372767" lon="2.337272">
        <ele>1882.8</ele>
        <time>2014-06-14T11:27:06Z</time>
      </trkpt>
      <trkpt lat="42.372811" lon="2.337320">
        <ele>1883.3</ele>
        <time>2014-06-14T11:27:15Z</time>
      </trkpt>
      <trkpt lat="42.372911" lon="2.337440">
        <ele>1884.3</ele>
        <time>2014-06-14T11:27:35Z</time>
      </trkpt>
      <trkpt lat="42.373015" lon="2.337505">
        <ele>1886.3</ele>
        <time>2014-06-14T11:27:43Z</time>
      </trkpt>
      <trkpt lat="42.373064" lon="2.337532">
        <ele>1887.4</ele>
        <time>2014-06-14T11:27:57Z</time>
      </trkpt>
      <trkpt lat="42.373110" lon="2.337566">
        <ele>1888.4</ele>
        <time>2014-06-14T11:27:59Z</time>
      </trkpt>
      <trkpt lat="42.373110" lon="2.337566">
        <ele>1888.4</ele>
        <time>2014-06-14T11:28:13Z</time>
      </trkpt>
      <trkpt lat="42.373200" lon="2.337610">
        <ele>1890.1</ele>
        <time>2014-06-14T11:28:21Z</time>
      </trkpt>
      <trkpt lat="42.373232" lon="2.337631">
        <ele>1890.7</ele>
        <time>2014-06-14T11:28:39Z</time>
      </trkpt>
      <trkpt lat="42.373297" lon="2.337664">
        <ele>1891.4</ele>
        <time>2014-06-14T11:28:47Z</time>
      </trkpt>
      <trkpt lat="42.373369" lon="2.337705">
        <ele>1892.0</ele>
        <time>2014-06-14T11:29:02Z</time>
      </trkpt>
      <trkpt lat="42.373466" lon="2.337799">
        <ele>1893.2</ele>
        <time>2014-06-14T11:29:16Z</time>
      </trkpt>
      <trkpt lat="42.373502" lon="2.337836">
        <ele>1893.7</ele>
        <time>2014-06-14T11:29:37Z</time>
      </trkpt>
      <trkpt lat="42.373532" lon="2.337865">
        <ele>1894.1</ele>
        <time>2014-06-14T11:29:58Z</time>
      </trkpt>
      <trkpt lat="42.373589" lon="2.337910">
        <ele>1894.8</ele>
        <time>2014-06-14T11:30:12Z</time>
      </trkpt>
      <trkpt lat="42.373710" lon="2.338010">
        <ele>1893.3</ele>
        <time>2014-06-14T11:37:23Z</time>
      </trkpt>
      <trkpt lat="42.373729" lon="2.338024">
        <ele>1892.9</ele>
        <time>2014-06-14T11:37:33Z</time>
      </trkpt>
      <trkpt lat="42.373836" lon="2.338166">
        <ele>1888.8</ele>
        <time>2014-06-14T11:37:38Z</time>
      </trkpt>
      <trkpt lat="42.373892" lon="2.338234">
        <ele>1886.8</ele>
        <time>2014-06-14T11:37:43Z</time>
      </trkpt>
      <trkpt lat="42.374077" lon="2.338371">
        <ele>1882.1</ele>
        <time>2014-06-14T11:37:58Z</time>
      </trkpt>
      <trkpt lat="42.374146" lon="2.338425">
        <ele>1880.7</ele>
        <time>2014-06-14T11:38:16Z</time>
      </trkpt>
      <trkpt lat="42.374295" lon="2.338481">
        <ele>1880.0</ele>
        <time>2014-06-14T11:38:30Z</time>
      </trkpt>
      <trkpt lat="42.374356" lon="2.338520">
        <ele>1879.5</ele>
        <time>2014-06-14T11:38:46Z</time>
      </trkpt>
      <trkpt lat="42.374356" lon="2.338520">
        <ele>1879.5</ele>
        <time>2014-06-14T11:38:51Z</time>
      </trkpt>
      <trkpt lat="42.374358" lon="2.338520">
        <ele>1879.5</ele>
        <time>2014-06-14T11:38:59Z</time>
      </trkpt>
      <trkpt lat="42.374423" lon="2.338554">
        <ele>1878.6</ele>
        <time>2014-06-14T11:39:12Z</time>
      </trkpt>
      <trkpt lat="42.374506" lon="2.338612">
        <ele>1876.8</ele>
        <time>2014-06-14T11:39:50Z</time>
      </trkpt>
      <trkpt lat="42.374586" lon="2.338660">
        <ele>1874.3</ele>
        <time>2014-06-14T11:40:05Z</time>
      </trkpt>
      <trkpt lat="42.374628" lon="2.338650">
        <ele>1873.3</ele>
        <time>2014-06-14T11:40:19Z</time>
      </trkpt>
      <trkpt lat="42.374656" lon="2.338705">
        <ele>1871.8</ele>
        <time>2014-06-14T11:40:34Z</time>
      </trkpt>
      <trkpt lat="42.374781" lon="2.338779">
        <ele>1867.7</ele>
        <time>2014-06-14T11:40:35Z</time>
      </trkpt>
      <trkpt lat="42.374999" lon="2.338917">
        <ele>1863.8</ele>
        <time>2014-06-14T11:40:40Z</time>
      </trkpt>
      <trkpt lat="42.375016" lon="2.338941">
        <ele>1863.8</ele>
        <time>2014-06-14T11:40:44Z</time>
      </trkpt>
      <trkpt lat="42.375027" lon="2.338951">
        <ele>1863.9</ele>
        <time>2014-06-14T11:40:58Z</time>
      </trkpt>
      <trkpt lat="42.375027" lon="2.338951">
        <ele>1863.9</ele>
        <time>2014-06-14T11:41:12Z</time>
      </trkpt>
      <trkpt lat="42.375026" lon="2.339075">
        <ele>1863.8</ele>
        <time>2014-06-14T11:41:18Z</time>
      </trkpt>
      <trkpt lat="42.375045" lon="2.339225">
        <ele>1863.7</ele>
        <time>2014-06-14T11:41:33Z</time>
      </trkpt>
      <trkpt lat="42.375044" lon="2.339225">
        <ele>1863.7</ele>
        <time>2014-06-14T11:41:46Z</time>
      </trkpt>
      <trkpt lat="42.375070" lon="2.339398">
        <ele>1863.4</ele>
        <time>2014-06-14T11:41:58Z</time>
      </trkpt>
      <trkpt lat="42.375105" lon="2.339646">
        <ele>1862.6</ele>
        <time>2014-06-14T11:42:11Z</time>
      </trkpt>
      <trkpt lat="42.375140" lon="2.339886">
        <ele>1860.8</ele>
        <time>2014-06-14T11:42:25Z</time>
      </trkpt>
      <trkpt lat="42.375148" lon="2.339901">
        <ele>1860.9</ele>
        <time>2014-06-14T11:42:36Z</time>
      </trkpt>
      <trkpt lat="42.375159" lon="2.340007">
        <ele>1860.0</ele>
        <time>2014-06-14T11:42:50Z</time>
      </trkpt>
      <trkpt lat="42.375176" lon="2.340085">
        <ele>1859.9</ele>
        <time>2014-06-14T11:43:04Z</time>
      </trkpt>
      <trkpt lat="42.375224" lon="2.340273">
        <ele>1859.0</ele>
        <time>2014-06-14T11:43:20Z</time>
      </trkpt>
      <trkpt lat="42.375297" lon="2.340481">
        <ele>1857.9</ele>
        <time>2014-06-14T11:43:29Z</time>
      </trkpt>
      <trkpt lat="42.375334" lon="2.340565">
        <ele>1857.8</ele>
        <time>2014-06-14T11:43:44Z</time>
      </trkpt>
      <trkpt lat="42.375439" lon="2.340778">
        <ele>1857.9</ele>
        <time>2014-06-14T11:43:57Z</time>
      </trkpt>
      <trkpt lat="42.375501" lon="2.340873">
        <ele>1858.6</ele>
        <time>2014-06-14T11:44:01Z</time>
      </trkpt>
      <trkpt lat="42.375609" lon="2.341080">
        <ele>1858.3</ele>
        <time>2014-06-14T11:44:14Z</time>
      </trkpt>
      <trkpt lat="42.375682" lon="2.341251">
        <ele>1856.8</ele>
        <time>2014-06-14T11:44:18Z</time>
      </trkpt>
      <trkpt lat="42.375750" lon="2.341418">
        <ele>1856.5</ele>
        <time>2014-06-14T11:44:32Z</time>
      </trkpt>
      <trkpt lat="42.375810" lon="2.341556">
        <ele>1856.3</ele>
        <time>2014-06-14T11:44:42Z</time>
      </trkpt>
      <trkpt lat="42.375873" lon="2.341741">
        <ele>1855.8</ele>
        <time>2014-06-14T11:44:57Z</time>
      </trkpt>
      <trkpt lat="42.375914" lon="2.341922">
        <ele>1854.2</ele>
        <time>2014-06-14T11:45:12Z</time>
      </trkpt>
      <trkpt lat="42.375927" lon="2.341962">
        <ele>1854.1</ele>
        <time>2014-06-14T11:45:18Z</time>
      </trkpt>
      <trkpt lat="42.375981" lon="2.342098">
        <ele>1854.9</ele>
        <time>2014-06-14T11:45:35Z</time>
      </trkpt>
      <trkpt lat="42.376022" lon="2.342327">
        <ele>1854.2</ele>
        <time>2014-06-14T11:45:49Z</time>
      </trkpt>
      <trkpt lat="42.376042" lon="2.342545">
        <ele>1852.9</ele>
        <time>2014-06-14T11:46:02Z</time>
      </trkpt>
      <trkpt lat="42.376054" lon="2.342625">
        <ele>1852.8</ele>
        <time>2014-06-14T11:46:04Z</time>
      </trkpt>
      <trkpt lat="42.376072" lon="2.342841">
        <ele>1852.6</ele>
        <time>2014-06-14T11:46:21Z</time>
      </trkpt>
      <trkpt lat="42.376079" lon="2.342903">
        <ele>1852.7</ele>
        <time>2014-06-14T11:46:24Z</time>
      </trkpt>
      <trkpt lat="42.376088" lon="2.343081">
        <ele>1852.0</ele>
        <time>2014-06-14T11:46:38Z</time>
      </trkpt>
      <trkpt lat="42.376094" lon="2.343168">
        <ele>1851.2</ele>
        <time>2014-06-14T11:46:55Z</time>
      </trkpt>
      <trkpt lat="42.376175" lon="2.343354">
        <ele>1851.8</ele>
        <time>2014-06-14T11:47:12Z</time>
      </trkpt>
      <trkpt lat="42.376217" lon="2.343583">
        <ele>1850.5</ele>
        <time>2014-06-14T11:47:19Z</time>
      </trkpt>
      <trkpt lat="42.376230" lon="2.343664">
        <ele>1849.9</ele>
        <time>2014-06-14T11:47:31Z</time>
      </trkpt>
      <trkpt lat="42.376251" lon="2.343838">
        <ele>1849.0</ele>
        <time>2014-06-14T11:47:44Z</time>
      </trkpt>
      <trkpt lat="42.376281" lon="2.343935">
        <ele>1849.5</ele>
        <time>2014-06-14T11:47:57Z</time>
      </trkpt>
      <trkpt lat="42.376324" lon="2.344183">
        <ele>1848.9</ele>
        <time>2014-06-14T11:48:06Z</time>
      </trkpt>
      <trkpt lat="42.376321" lon="2.344217">
        <ele>1848.2</ele>
        <time>2014-06-14T11:48:21Z</time>
      </trkpt>
      <trkpt lat="42.376283" lon="2.344473">
        <ele>1843.9</ele>
        <time>2014-06-14T11:48:34Z</time>
      </trkpt>
      <trkpt lat="42.376282" lon="2.344499">
        <ele>1843.5</ele>
        <time>2014-06-14T11:48:45Z</time>
      </trkpt>
      <trkpt lat="42.376341" lon="2.344618">
        <ele>1845.2</ele>
        <time>2014-06-14T11:48:59Z</time>
      </trkpt>
      <trkpt lat="42.376347" lon="2.344761">
        <ele>1844.2</ele>
        <time>2014-06-14T11:49:11Z</time>
      </trkpt>
      <trkpt lat="42.376347" lon="2.344761">
        <ele>1844.2</ele>
        <time>2014-06-14T11:49:27Z</time>
      </trkpt>
      <trkpt lat="42.376347" lon="2.344761">
        <ele>1844.2</ele>
        <time>2014-06-14T11:49:28Z</time>
      </trkpt>
      <trkpt lat="42.376368" lon="2.344837">
        <ele>1844.1</ele>
        <time>2014-06-14T11:49:32Z</time>
      </trkpt>
      <trkpt lat="42.376463" lon="2.345081">
        <ele>1844.3</ele>
        <time>2014-06-14T11:49:46Z</time>
      </trkpt>
      <trkpt lat="42.376489" lon="2.345310">
        <ele>1841.6</ele>
        <time>2014-06-14T11:49:53Z</time>
      </trkpt>
      <trkpt lat="42.376484" lon="2.345449">
        <ele>1839.1</ele>
        <time>2014-06-14T11:50:08Z</time>
      </trkpt>
      <trkpt lat="42.376511" lon="2.345564">
        <ele>1838.1</ele>
        <time>2014-06-14T11:50:12Z</time>
      </trkpt>
      <trkpt lat="42.376547" lon="2.345720">
        <ele>1837.2</ele>
        <time>2014-06-14T11:50:16Z</time>
      </trkpt>
      <trkpt lat="42.376593" lon="2.345862">
        <ele>1836.7</ele>
        <time>2014-06-14T11:50:32Z</time>
      </trkpt>
      <trkpt lat="42.376654" lon="2.346045">
        <ele>1836.1</ele>
        <time>2014-06-14T11:50:47Z</time>
      </trkpt>
      <trkpt lat="42.376677" lon="2.346158">
        <ele>1835.4</ele>
        <time>2014-06-14T11:51:02Z</time>
      </trkpt>
      <trkpt lat="42.376721" lon="2.346282">
        <ele>1835.1</ele>
        <time>2014-06-14T11:51:15Z</time>
      </trkpt>
      <trkpt lat="42.376727" lon="2.346296">
        <ele>1835.1</ele>
        <time>2014-06-14T11:51:29Z</time>
      </trkpt>
      <trkpt lat="42.376747" lon="2.346370">
        <ele>1834.8</ele>
        <time>2014-06-14T11:51:42Z</time>
      </trkpt>
      <trkpt lat="42.376841" lon="2.346595">
        <ele>1835.6</ele>
        <time>2014-06-14T11:51:56Z</time>
      </trkpt>
      <trkpt lat="42.376869" lon="2.346668">
        <ele>1835.6</ele>
        <time>2014-06-14T11:51:58Z</time>
      </trkpt>
      <trkpt lat="42.376916" lon="2.346877">
        <ele>1834.8</ele>
        <time>2014-06-14T11:52:07Z</time>
      </trkpt>
      <trkpt lat="42.376939" lon="2.346921">
        <ele>1835.0</ele>
        <time>2014-06-14T11:52:24Z</time>
      </trkpt>
      <trkpt lat="42.376970" lon="2.346970">
        <ele>1835.0</ele>
        <time>2014-06-14T11:52:37Z</time>
      </trkpt>
      <trkpt lat="42.377068" lon="2.347179">
        <ele>1834.0</ele>
        <time>2014-06-14T11:52:52Z</time>
      </trkpt>
      <trkpt lat="42.377138" lon="2.347367">
        <ele>1831.4</ele>
        <time>2014-06-14T11:52:55Z</time>
      </trkpt>
      <trkpt lat="42.377167" lon="2.347553">
        <ele>1828.7</ele>
        <time>2014-06-14T11:53:08Z</time>
      </trkpt>
      <trkpt lat="42.377241" lon="2.347706">
        <ele>1827.9</ele>
        <time>2014-06-14T11:53:22Z</time>
      </trkpt>
      <trkpt lat="42.377294" lon="2.347910">
        <ele>1825.1</ele>
        <time>2014-06-14T11:53:38Z</time>
      </trkpt>
      <trkpt lat="42.377349" lon="2.348055">
        <ele>1823.6</ele>
        <time>2014-06-14T11:53:53Z</time>
      </trkpt>
      <trkpt lat="42.377425" lon="2.348208">
        <ele>1822.7</ele>
        <time>2014-06-14T11:54:05Z</time>
      </trkpt>
      <trkpt lat="42.377440" lon="2.348220">
        <ele>1822.9</ele>
        <time>2014-06-14T11:54:07Z</time>
      </trkpt>
      <trkpt lat="42.377512" lon="2.348318">
        <ele>1823.7</ele>
        <time>2014-06-14T11:54:11Z</time>
      </trkpt>
      <trkpt lat="42.377540" lon="2.348566">
        <ele>1822.9</ele>
        <time>2014-06-14T11:54:23Z</time>
      </trkpt>
      <trkpt lat="42.377586" lon="2.348736">
        <ele>1822.7</ele>
        <time>2014-06-14T11:54:25Z</time>
      </trkpt>
      <trkpt lat="42.377654" lon="2.348930">
        <ele>1823.9</ele>
        <time>2014-06-14T11:54:39Z</time>
      </trkpt>
      <trkpt lat="42.377671" lon="2.348967">
        <ele>1824.4</ele>
        <time>2014-06-14T11:54:47Z</time>
      </trkpt>
      <trkpt lat="42.377710" lon="2.349139">
        <ele>1825.1</ele>
        <time>2014-06-14T11:54:59Z</time>
      </trkpt>
      <trkpt lat="42.377764" lon="2.349315">
        <ele>1825.9</ele>
        <time>2014-06-14T11:55:10Z</time>
      </trkpt>
      <trkpt lat="42.377821" lon="2.349504">
        <ele>1826.6</ele>
        <time>2014-06-14T11:55:11Z</time>
      </trkpt>
      <trkpt lat="42.377846" lon="2.349688">
        <ele>1826.6</ele>
        <time>2014-06-14T11:55:19Z</time>
      </trkpt>
      <trkpt lat="42.377865" lon="2.349845">
        <ele>1826.7</ele>
        <time>2014-06-14T11:55:23Z</time>
      </trkpt>
      <trkpt lat="42.377868" lon="2.349864">
        <ele>1826.7</ele>
        <time>2014-06-14T11:55:38Z</time>
      </trkpt>
      <trkpt lat="42.377884" lon="2.349904">
        <ele>1827.0</ele>
        <time>2014-06-14T11:55:50Z</time>
      </trkpt>
      <trkpt lat="42.377906" lon="2.350067">
        <ele>1826.5</ele>
        <time>2014-06-14T11:55:52Z</time>
      </trkpt>
      <trkpt lat="42.377913" lon="2.350090">
        <ele>1826.6</ele>
        <time>2014-06-14T11:55:55Z</time>
      </trkpt>
      <trkpt lat="42.377966" lon="2.350248">
        <ele>1827.4</ele>
        <time>2014-06-14T11:55:59Z</time>
      </trkpt>
      <trkpt lat="42.378000" lon="2.350338">
        <ele>1828.0</ele>
        <time>2014-06-14T11:56:11Z</time>
      </trkpt>
      <trkpt lat="42.378055" lon="2.350489">
        <ele>1828.8</ele>
        <time>2014-06-14T11:56:25Z</time>
      </trkpt>
      <trkpt lat="42.378105" lon="2.350626">
        <ele>1829.3</ele>
        <time>2014-06-14T11:56:33Z</time>
      </trkpt>
      <trkpt lat="42.378109" lon="2.350642">
        <ele>1829.2</ele>
        <time>2014-06-14T11:56:47Z</time>
      </trkpt>
      <trkpt lat="42.378139" lon="2.350755">
        <ele>1828.4</ele>
        <time>2014-06-14T11:56:55Z</time>
      </trkpt>
      <trkpt lat="42.378166" lon="2.350804">
        <ele>1828.4</ele>
        <time>2014-06-14T11:57:02Z</time>
      </trkpt>
      <trkpt lat="42.378252" lon="2.351027">
        <ele>1828.2</ele>
        <time>2014-06-14T11:57:17Z</time>
      </trkpt>
      <trkpt lat="42.378338" lon="2.351175">
        <ele>1828.8</ele>
        <time>2014-06-14T11:57:23Z</time>
      </trkpt>
      <trkpt lat="42.378350" lon="2.351193">
        <ele>1828.9</ele>
        <time>2014-06-14T11:57:35Z</time>
      </trkpt>
      <trkpt lat="42.378366" lon="2.351218">
        <ele>1829.2</ele>
        <time>2014-06-14T11:57:47Z</time>
      </trkpt>
      <trkpt lat="42.378363" lon="2.351275">
        <ele>1828.8</ele>
        <time>2014-06-14T11:57:53Z</time>
      </trkpt>
      <trkpt lat="42.378357" lon="2.351449">
        <ele>1828.3</ele>
        <time>2014-06-14T11:58:01Z</time>
      </trkpt>
      <trkpt lat="42.378378" lon="2.351649">
        <ele>1827.9</ele>
        <time>2014-06-14T11:58:15Z</time>
      </trkpt>
      <trkpt lat="42.378391" lon="2.351767">
        <ele>1828.4</ele>
        <time>2014-06-14T11:58:22Z</time>
      </trkpt>
      <trkpt lat="42.378336" lon="2.351928">
        <ele>1827.9</ele>
        <time>2014-06-14T11:58:37Z</time>
      </trkpt>
      <trkpt lat="42.378287" lon="2.352021">
        <ele>1826.5</ele>
        <time>2014-06-14T11:58:58Z</time>
      </trkpt>
      <trkpt lat="42.378262" lon="2.352107">
        <ele>1825.7</ele>
        <time>2014-06-14T11:58:59Z</time>
      </trkpt>
      <trkpt lat="42.378247" lon="2.352276">
        <ele>1824.5</ele>
        <time>2014-06-14T11:59:01Z</time>
      </trkpt>
      <trkpt lat="42.378234" lon="2.352323">
        <ele>1823.8</ele>
        <time>2014-06-14T11:59:07Z</time>
      </trkpt>
      <trkpt lat="42.378239" lon="2.352471">
        <ele>1822.8</ele>
        <time>2014-06-14T11:59:22Z</time>
      </trkpt>
      <trkpt lat="42.378244" lon="2.352607">
        <ele>1821.7</ele>
        <time>2014-06-14T11:59:38Z</time>
      </trkpt>
      <trkpt lat="42.378245" lon="2.352677">
        <ele>1820.9</ele>
        <time>2014-06-14T11:59:54Z</time>
      </trkpt>
      <trkpt lat="42.378230" lon="2.352777">
        <ele>1820.1</ele>
        <time>2014-06-14T12:00:08Z</time>
      </trkpt>
      <trkpt lat="42.378180" lon="2.352930">
        <ele>1819.9</ele>
        <time>2014-06-14T12:00:10Z</time>
      </trkpt>
      <trkpt lat="42.378160" lon="2.353004">
        <ele>1819.9</ele>
        <time>2014-06-14T12:00:24Z</time>
      </trkpt>
      <trkpt lat="42.378139" lon="2.353120">
        <ele>1819.5</ele>
        <time>2014-06-14T12:00:29Z</time>
      </trkpt>
      <trkpt lat="42.378107" lon="2.353164">
        <ele>1818.7</ele>
        <time>2014-06-14T12:00:43Z</time>
      </trkpt>
      <trkpt lat="42.378098" lon="2.353172">
        <ele>1818.5</ele>
        <time>2014-06-14T12:00:51Z</time>
      </trkpt>
      <trkpt lat="42.378077" lon="2.353188">
        <ele>1818.0</ele>
        <time>2014-06-14T12:00:54Z</time>
      </trkpt>
      <trkpt lat="42.378046" lon="2.353289">
        <ele>1817.1</ele>
        <time>2014-06-14T12:01:08Z</time>
      </trkpt>
      <trkpt lat="42.377963" lon="2.353496">
        <ele>1815.3</ele>
        <time>2014-06-14T12:01:10Z</time>
      </trkpt>
      <trkpt lat="42.377908" lon="2.353626">
        <ele>1813.5</ele>
        <time>2014-06-14T12:01:24Z</time>
      </trkpt>
      <trkpt lat="42.377857" lon="2.353681">
        <ele>1811.6</ele>
        <time>2014-06-14T12:01:38Z</time>
      </trkpt>
      <trkpt lat="42.377821" lon="2.353851">
        <ele>1810.4</ele>
        <time>2014-06-14T12:01:49Z</time>
      </trkpt>
      <trkpt lat="42.377818" lon="2.353880">
        <ele>1810.5</ele>
        <time>2014-06-14T12:02:02Z</time>
      </trkpt>
      <trkpt lat="42.377780" lon="2.354044">
        <ele>1809.7</ele>
        <time>2014-06-14T12:02:14Z</time>
      </trkpt>
      <trkpt lat="42.377764" lon="2.354096">
        <ele>1809.2</ele>
        <time>2014-06-14T12:02:29Z</time>
      </trkpt>
      <trkpt lat="42.377713" lon="2.354266">
        <ele>1808.0</ele>
        <time>2014-06-14T12:02:33Z</time>
      </trkpt>
      <trkpt lat="42.377697" lon="2.354293">
        <ele>1807.4</ele>
        <time>2014-06-14T12:02:35Z</time>
      </trkpt>
      <trkpt lat="42.377696" lon="2.354352">
        <ele>1807.5</ele>
        <time>2014-06-14T12:02:50Z</time>
      </trkpt>
      <trkpt lat="42.377605" lon="2.354557">
        <ele>1805.0</ele>
        <time>2014-06-14T12:03:12Z</time>
      </trkpt>
      <trkpt lat="42.377599" lon="2.354585">
        <ele>1804.8</ele>
        <time>2014-06-14T12:03:37Z</time>
      </trkpt>
      <trkpt lat="42.377580" lon="2.354778">
        <ele>1804.1</ele>
        <time>2014-06-14T12:04:01Z</time>
      </trkpt>
      <trkpt lat="42.377576" lon="2.354949">
        <ele>1804.4</ele>
        <time>2014-06-14T12:04:23Z</time>
      </trkpt>
      <trkpt lat="42.377543" lon="2.355081">
        <ele>1803.6</ele>
        <time>2014-06-14T12:04:27Z</time>
      </trkpt>
      <trkpt lat="42.377497" lon="2.355242">
        <ele>1803.0</ele>
        <time>2014-06-14T12:04:29Z</time>
      </trkpt>
      <trkpt lat="42.377481" lon="2.355400">
        <ele>1802.7</ele>
        <time>2014-06-14T12:04:44Z</time>
      </trkpt>
      <trkpt lat="42.377486" lon="2.355587">
        <ele>1803.5</ele>
        <time>2014-06-14T12:04:50Z</time>
      </trkpt>
      <trkpt lat="42.377485" lon="2.355632">
        <ele>1803.2</ele>
        <time>2014-06-14T12:05:05Z</time>
      </trkpt>
      <trkpt lat="42.377473" lon="2.355653">
        <ele>1802.7</ele>
        <time>2014-06-14T12:05:20Z</time>
      </trkpt>
      <trkpt lat="42.377457" lon="2.355793">
        <ele>1800.8</ele>
        <time>2014-06-14T12:05:34Z</time>
      </trkpt>
      <trkpt lat="42.377425" lon="2.355920">
        <ele>1798.9</ele>
        <time>2014-06-14T12:05:49Z</time>
      </trkpt>
      <trkpt lat="42.377425" lon="2.355917">
        <ele>1798.9</ele>
        <time>2014-06-14T12:06:03Z</time>
      </trkpt>
      <trkpt lat="42.377426" lon="2.355916">
        <ele>1798.9</ele>
        <time>2014-06-14T12:06:17Z</time>
      </trkpt>
      <trkpt lat="42.377407" lon="2.355950">
        <ele>1798.2</ele>
        <time>2014-06-14T12:06:19Z</time>
      </trkpt>
      <trkpt lat="42.377391" lon="2.355999">
        <ele>1797.2</ele>
        <time>2014-06-14T12:06:31Z</time>
      </trkpt>
      <trkpt lat="42.377383" lon="2.356028">
        <ele>1796.7</ele>
        <time>2014-06-14T12:06:45Z</time>
      </trkpt>
      <trkpt lat="42.377307" lon="2.356187">
        <ele>1793.3</ele>
        <time>2014-06-14T12:06:59Z</time>
      </trkpt>
      <trkpt lat="42.377271" lon="2.356234">
        <ele>1791.7</ele>
        <time>2014-06-14T12:07:13Z</time>
      </trkpt>
      <trkpt lat="42.377175" lon="2.356353">
        <ele>1787.3</ele>
        <time>2014-06-14T12:07:19Z</time>
      </trkpt>
      <trkpt lat="42.377096" lon="2.356474">
        <ele>1783.6</ele>
        <time>2014-06-14T12:07:34Z</time>
      </trkpt>
      <trkpt lat="42.377010" lon="2.356598">
        <ele>1780.8</ele>
        <time>2014-06-14T12:07:47Z</time>
      </trkpt>
      <trkpt lat="42.376925" lon="2.356746">
        <ele>1779.0</ele>
        <time>2014-06-14T12:07:59Z</time>
      </trkpt>
      <trkpt lat="42.376836" lon="2.356886">
        <ele>1777.6</ele>
        <time>2014-06-14T12:08:13Z</time>
      </trkpt>
      <trkpt lat="42.376753" lon="2.357035">
        <ele>1775.4</ele>
        <time>2014-06-14T12:08:29Z</time>
      </trkpt>
      <trkpt lat="42.376743" lon="2.357054">
        <ele>1775.1</ele>
        <time>2014-06-14T12:08:43Z</time>
      </trkpt>
      <trkpt lat="42.376667" lon="2.357176">
        <ele>1774.2</ele>
        <time>2014-06-14T12:08:54Z</time>
      </trkpt>
      <trkpt lat="42.376568" lon="2.357318">
        <ele>1771.6</ele>
        <time>2014-06-14T12:09:01Z</time>
      </trkpt>
      <trkpt lat="42.376494" lon="2.357463">
        <ele>1769.3</ele>
        <time>2014-06-14T12:09:15Z</time>
      </trkpt>
      <trkpt lat="42.376418" lon="2.357581">
        <ele>1767.4</ele>
        <time>2014-06-14T12:09:29Z</time>
      </trkpt>
      <trkpt lat="42.376390" lon="2.357636">
        <ele>1766.6</ele>
        <time>2014-06-14T12:09:42Z</time>
      </trkpt>
      <trkpt lat="42.376338" lon="2.357839">
        <ele>1764.3</ele>
        <time>2014-06-14T12:09:50Z</time>
      </trkpt>
      <trkpt lat="42.376268" lon="2.358007">
        <ele>1762.0</ele>
        <time>2014-06-14T12:10:00Z</time>
      </trkpt>
      <trkpt lat="42.376193" lon="2.358155">
        <ele>1760.2</ele>
        <time>2014-06-14T12:10:11Z</time>
      </trkpt>
      <trkpt lat="42.376124" lon="2.358369">
        <ele>1758.9</ele>
        <time>2014-06-14T12:10:18Z</time>
      </trkpt>
      <trkpt lat="42.376059" lon="2.358608">
        <ele>1758.5</ele>
        <time>2014-06-14T12:10:32Z</time>
      </trkpt>
      <trkpt lat="42.375946" lon="2.358760">
        <ele>1758.1</ele>
        <time>2014-06-14T12:10:38Z</time>
      </trkpt>
      <trkpt lat="42.375894" lon="2.358804">
        <ele>1757.6</ele>
        <time>2014-06-14T12:10:49Z</time>
      </trkpt>
      <trkpt lat="42.375841" lon="2.358864">
        <ele>1757.3</ele>
        <time>2014-06-14T12:10:52Z</time>
      </trkpt>
      <trkpt lat="42.375757" lon="2.359023">
        <ele>1757.8</ele>
        <time>2014-06-14T12:11:05Z</time>
      </trkpt>
      <trkpt lat="42.375699" lon="2.359221">
        <ele>1757.9</ele>
        <time>2014-06-14T12:11:20Z</time>
      </trkpt>
      <trkpt lat="42.375664" lon="2.359387">
        <ele>1758.6</ele>
        <time>2014-06-14T12:11:32Z</time>
      </trkpt>
      <trkpt lat="42.375658" lon="2.359479">
        <ele>1759.5</ele>
        <time>2014-06-14T12:11:41Z</time>
      </trkpt>
      <trkpt lat="42.375613" lon="2.359571">
        <ele>1759.8</ele>
        <time>2014-06-14T12:11:44Z</time>
      </trkpt>
      <trkpt lat="42.375526" lon="2.359647">
        <ele>1759.7</ele>
        <time>2014-06-14T12:11:58Z</time>
      </trkpt>
      <trkpt lat="42.375480" lon="2.359732">
        <ele>1759.6</ele>
        <time>2014-06-14T12:12:04Z</time>
      </trkpt>
      <trkpt lat="42.375405" lon="2.359926">
        <ele>1759.0</ele>
        <time>2014-06-14T12:12:18Z</time>
      </trkpt>
      <trkpt lat="42.375393" lon="2.360009">
        <ele>1759.4</ele>
        <time>2014-06-14T12:12:30Z</time>
      </trkpt>
      <trkpt lat="42.375333" lon="2.360149">
        <ele>1759.4</ele>
        <time>2014-06-14T12:12:45Z</time>
      </trkpt>
      <trkpt lat="42.375312" lon="2.360175">
        <ele>1759.4</ele>
        <time>2014-06-14T12:12:59Z</time>
      </trkpt>
      <trkpt lat="42.375245" lon="2.360344">
        <ele>1759.2</ele>
        <time>2014-06-14T12:13:00Z</time>
      </trkpt>
      <trkpt lat="42.375184" lon="2.360565">
        <ele>1759.4</ele>
        <time>2014-06-14T12:13:14Z</time>
      </trkpt>
      <trkpt lat="42.375185" lon="2.360747">
        <ele>1760.3</ele>
        <time>2014-06-14T12:13:28Z</time>
      </trkpt>
      <trkpt lat="42.375200" lon="2.360859">
        <ele>1760.2</ele>
        <time>2014-06-14T12:13:44Z</time>
      </trkpt>
      <trkpt lat="42.375215" lon="2.360893">
        <ele>1760.2</ele>
        <time>2014-06-14T12:13:57Z</time>
      </trkpt>
      <trkpt lat="42.375244" lon="2.361010">
        <ele>1760.1</ele>
        <time>2014-06-14T12:14:15Z</time>
      </trkpt>
      <trkpt lat="42.375244" lon="2.361010">
        <ele>1760.1</ele>
        <time>2014-06-14T12:14:30Z</time>
      </trkpt>
      <trkpt lat="42.375187" lon="2.361201">
        <ele>1759.8</ele>
        <time>2014-06-14T12:14:46Z</time>
      </trkpt>
      <trkpt lat="42.375141" lon="2.361375">
        <ele>1757.4</ele>
        <time>2014-06-14T12:14:49Z</time>
      </trkpt>
      <trkpt lat="42.375096" lon="2.361578">
        <ele>1752.9</ele>
        <time>2014-06-14T12:14:54Z</time>
      </trkpt>
      <trkpt lat="42.375080" lon="2.361723">
        <ele>1750.4</ele>
        <time>2014-06-14T12:15:09Z</time>
      </trkpt>
      <trkpt lat="42.375080" lon="2.361723">
        <ele>1750.4</ele>
        <time>2014-06-14T12:15:23Z</time>
      </trkpt>
      <trkpt lat="42.375021" lon="2.361913">
        <ele>1746.4</ele>
        <time>2014-06-14T12:15:24Z</time>
      </trkpt>
      <trkpt lat="42.374980" lon="2.362095">
        <ele>1744.4</ele>
        <time>2014-06-14T12:15:40Z</time>
      </trkpt>
      <trkpt lat="42.374890" lon="2.362282">
        <ele>1742.2</ele>
        <time>2014-06-14T12:15:55Z</time>
      </trkpt>
      <trkpt lat="42.374845" lon="2.362446">
        <ele>1739.8</ele>
        <time>2014-06-14T12:16:05Z</time>
      </trkpt>
      <trkpt lat="42.374794" lon="2.362695">
        <ele>1737.8</ele>
        <time>2014-06-14T12:16:13Z</time>
      </trkpt>
      <trkpt lat="42.374711" lon="2.362897">
        <ele>1737.5</ele>
        <time>2014-06-14T12:16:19Z</time>
      </trkpt>
      <trkpt lat="42.374631" lon="2.363100">
        <ele>1737.6</ele>
        <time>2014-06-14T12:16:32Z</time>
      </trkpt>
      <trkpt lat="42.374605" lon="2.363140">
        <ele>1737.7</ele>
        <time>2014-06-14T12:16:47Z</time>
      </trkpt>
      <trkpt lat="42.374585" lon="2.363194">
        <ele>1737.6</ele>
        <time>2014-06-14T12:17:00Z</time>
      </trkpt>
      <trkpt lat="42.374490" lon="2.363379">
        <ele>1735.8</ele>
        <time>2014-06-14T12:17:16Z</time>
      </trkpt>
      <trkpt lat="42.374376" lon="2.363536">
        <ele>1732.1</ele>
        <time>2014-06-14T12:17:30Z</time>
      </trkpt>
      <trkpt lat="42.374362" lon="2.363543">
        <ele>1731.7</ele>
        <time>2014-06-14T12:17:42Z</time>
      </trkpt>
      <trkpt lat="42.374241" lon="2.363709">
        <ele>1728.5</ele>
        <time>2014-06-14T12:17:56Z</time>
      </trkpt>
      <trkpt lat="42.374133" lon="2.363877">
        <ele>1725.6</ele>
        <time>2014-06-14T12:18:09Z</time>
      </trkpt>
      <trkpt lat="42.374122" lon="2.363910">
        <ele>1725.6</ele>
        <time>2014-06-14T12:18:22Z</time>
      </trkpt>
      <trkpt lat="42.374104" lon="2.364043">
        <ele>1725.3</ele>
        <time>2014-06-14T12:18:36Z</time>
      </trkpt>
      <trkpt lat="42.374073" lon="2.364120">
        <ele>1724.4</ele>
        <time>2014-06-14T12:18:49Z</time>
      </trkpt>
      <trkpt lat="42.374016" lon="2.364302">
        <ele>1723.2</ele>
        <time>2014-06-14T12:19:01Z</time>
      </trkpt>
      <trkpt lat="42.373971" lon="2.364535">
        <ele>1722.2</ele>
        <time>2014-06-14T12:19:14Z</time>
      </trkpt>
      <trkpt lat="42.373941" lon="2.364723">
        <ele>1721.4</ele>
        <time>2014-06-14T12:19:27Z</time>
      </trkpt>
      <trkpt lat="42.373940" lon="2.364982">
        <ele>1720.1</ele>
        <time>2014-06-14T12:19:41Z</time>
      </trkpt>
      <trkpt lat="42.373946" lon="2.365186">
        <ele>1719.6</ele>
        <time>2014-06-14T12:19:54Z</time>
      </trkpt>
      <trkpt lat="42.373914" lon="2.365348">
        <ele>1719.1</ele>
        <time>2014-06-14T12:20:04Z</time>
      </trkpt>
      <trkpt lat="42.373870" lon="2.365553">
        <ele>1719.1</ele>
        <time>2014-06-14T12:20:10Z</time>
      </trkpt>
      <trkpt lat="42.373813" lon="2.365714">
        <ele>1718.9</ele>
        <time>2014-06-14T12:20:16Z</time>
      </trkpt>
      <trkpt lat="42.373728" lon="2.365840">
        <ele>1718.2</ele>
        <time>2014-06-14T12:20:23Z</time>
      </trkpt>
      <trkpt lat="42.373633" lon="2.365994">
        <ele>1717.2</ele>
        <time>2014-06-14T12:20:30Z</time>
      </trkpt>
      <trkpt lat="42.373559" lon="2.366084">
        <ele>1716.8</ele>
        <time>2014-06-14T12:20:34Z</time>
      </trkpt>
      <trkpt lat="42.373473" lon="2.366213">
        <ele>1716.5</ele>
        <time>2014-06-14T12:20:36Z</time>
      </trkpt>
      <trkpt lat="42.373365" lon="2.366348">
        <ele>1715.8</ele>
        <time>2014-06-14T12:20:52Z</time>
      </trkpt>
      <trkpt lat="42.373254" lon="2.366456">
        <ele>1714.8</ele>
        <time>2014-06-14T12:20:56Z</time>
      </trkpt>
      <trkpt lat="42.373127" lon="2.366558">
        <ele>1713.5</ele>
        <time>2014-06-14T12:21:10Z</time>
      </trkpt>
      <trkpt lat="42.373025" lon="2.366684">
        <ele>1713.1</ele>
        <time>2014-06-14T12:21:20Z</time>
      </trkpt>
      <trkpt lat="42.372959" lon="2.366764">
        <ele>1712.9</ele>
        <time>2014-06-14T12:21:32Z</time>
      </trkpt>
      <trkpt lat="42.372933" lon="2.366848">
        <ele>1713.6</ele>
        <time>2014-06-14T12:21:36Z</time>
      </trkpt>
      <trkpt lat="42.372887" lon="2.366911">
        <ele>1713.4</ele>
        <time>2014-06-14T12:21:51Z</time>
      </trkpt>
      <trkpt lat="42.372850" lon="2.367001">
        <ele>1713.3</ele>
        <time>2014-06-14T12:22:04Z</time>
      </trkpt>
      <trkpt lat="42.372797" lon="2.367078">
        <ele>1713.0</ele>
        <time>2014-06-14T12:22:07Z</time>
      </trkpt>
      <trkpt lat="42.372768" lon="2.367120">
        <ele>1713.0</ele>
        <time>2014-06-14T12:22:21Z</time>
      </trkpt>
      <trkpt lat="42.372751" lon="2.367142">
        <ele>1712.9</ele>
        <time>2014-06-14T12:22:37Z</time>
      </trkpt>
      <trkpt lat="42.372640" lon="2.367316">
        <ele>1712.8</ele>
        <time>2014-06-14T12:22:50Z</time>
      </trkpt>
      <trkpt lat="42.372621" lon="2.367356">
        <ele>1712.9</ele>
        <time>2014-06-14T12:23:03Z</time>
      </trkpt>
      <trkpt lat="42.372495" lon="2.367464">
        <ele>1711.7</ele>
        <time>2014-06-14T12:23:29Z</time>
      </trkpt>
      <trkpt lat="42.372403" lon="2.367568">
        <ele>1710.6</ele>
        <time>2014-06-14T12:23:30Z</time>
      </trkpt>
      <trkpt lat="42.372291" lon="2.367644">
        <ele>1709.1</ele>
        <time>2014-06-14T12:23:35Z</time>
      </trkpt>
      <trkpt lat="42.372255" lon="2.367673">
        <ele>1708.7</ele>
        <time>2014-06-14T12:23:48Z</time>
      </trkpt>
      <trkpt lat="42.372151" lon="2.367864">
        <ele>1709.1</ele>
        <time>2014-06-14T12:24:00Z</time>
      </trkpt>
      <trkpt lat="42.372063" lon="2.368008">
        <ele>1708.7</ele>
        <time>2014-06-14T12:24:12Z</time>
      </trkpt>
      <trkpt lat="42.372048" lon="2.368038">
        <ele>1708.7</ele>
        <time>2014-06-14T12:24:25Z</time>
      </trkpt>
      <trkpt lat="42.371942" lon="2.368156">
        <ele>1707.3</ele>
        <time>2014-06-14T12:24:41Z</time>
      </trkpt>
      <trkpt lat="42.371842" lon="2.368331">
        <ele>1707.3</ele>
        <time>2014-06-14T12:24:56Z</time>
      </trkpt>
      <trkpt lat="42.371772" lon="2.368498">
        <ele>1707.3</ele>
        <time>2014-06-14T12:25:04Z</time>
      </trkpt>
      <trkpt lat="42.371743" lon="2.368590">
        <ele>1707.7</ele>
        <time>2014-06-14T12:25:09Z</time>
      </trkpt>
      <trkpt lat="42.371743" lon="2.368590">
        <ele>1707.7</ele>
        <time>2014-06-14T12:25:23Z</time>
      </trkpt>
      <trkpt lat="42.371743" lon="2.368590">
        <ele>1707.7</ele>
        <time>2014-06-14T12:25:38Z</time>
      </trkpt>
      <trkpt lat="42.371715" lon="2.368643">
        <ele>1707.4</ele>
        <time>2014-06-14T12:25:52Z</time>
      </trkpt>
      <trkpt lat="42.371689" lon="2.368723">
        <ele>1707.9</ele>
        <time>2014-06-14T12:26:06Z</time>
      </trkpt>
      <trkpt lat="42.371678" lon="2.368741">
        <ele>1707.8</ele>
        <time>2014-06-14T12:26:51Z</time>
      </trkpt>
      <trkpt lat="42.371606" lon="2.368870">
        <ele>1707.4</ele>
        <time>2014-06-14T12:27:01Z</time>
      </trkpt>
      <trkpt lat="42.371491" lon="2.368995">
        <ele>1705.8</ele>
        <time>2014-06-14T12:27:06Z</time>
      </trkpt>
      <trkpt lat="42.371311" lon="2.369111">
        <ele>1701.9</ele>
        <time>2014-06-14T12:27:21Z</time>
      </trkpt>
      <trkpt lat="42.371171" lon="2.369211">
        <ele>1702.6</ele>
        <time>2014-06-14T12:27:31Z</time>
      </trkpt>
      <trkpt lat="42.371079" lon="2.369256">
        <ele>1702.5</ele>
        <time>2014-06-14T12:27:46Z</time>
      </trkpt>
      <trkpt lat="42.371036" lon="2.369294">
        <ele>1702.8</ele>
        <time>2014-06-14T12:27:49Z</time>
      </trkpt>
      <trkpt lat="42.370901" lon="2.369426">
        <ele>1704.0</ele>
        <time>2014-06-14T12:28:04Z</time>
      </trkpt>
      <trkpt lat="42.370754" lon="2.369530">
        <ele>1703.9</ele>
        <time>2014-06-14T12:28:17Z</time>
      </trkpt>
      <trkpt lat="42.370616" lon="2.369598">
        <ele>1703.3</ele>
        <time>2014-06-14T12:28:29Z</time>
      </trkpt>
      <trkpt lat="42.370546" lon="2.369619">
        <ele>1702.6</ele>
        <time>2014-06-14T12:28:42Z</time>
      </trkpt>
      <trkpt lat="42.370502" lon="2.369639">
        <ele>1702.2</ele>
        <time>2014-06-14T12:28:56Z</time>
      </trkpt>
      <trkpt lat="42.370480" lon="2.369667">
        <ele>1702.3</ele>
        <time>2014-06-14T12:28:59Z</time>
      </trkpt>
      <trkpt lat="42.370430" lon="2.369717">
        <ele>1702.2</ele>
        <time>2014-06-14T12:29:12Z</time>
      </trkpt>
      <trkpt lat="42.370303" lon="2.369876">
        <ele>1701.5</ele>
        <time>2014-06-14T12:29:16Z</time>
      </trkpt>
      <trkpt lat="42.370230" lon="2.369996">
        <ele>1700.5</ele>
        <time>2014-06-14T12:29:29Z</time>
      </trkpt>
      <trkpt lat="42.370109" lon="2.370145">
        <ele>1698.0</ele>
        <time>2014-06-14T12:29:42Z</time>
      </trkpt>
      <trkpt lat="42.370083" lon="2.370171">
        <ele>1697.5</ele>
        <time>2014-06-14T12:29:56Z</time>
      </trkpt>
      <trkpt lat="42.369978" lon="2.370345">
        <ele>1695.4</ele>
        <time>2014-06-14T12:29:59Z</time>
      </trkpt>
      <trkpt lat="42.369903" lon="2.370516">
        <ele>1694.4</ele>
        <time>2014-06-14T12:30:12Z</time>
      </trkpt>
      <trkpt lat="42.369843" lon="2.370679">
        <ele>1693.4</ele>
        <time>2014-06-14T12:30:26Z</time>
      </trkpt>
      <trkpt lat="42.369826" lon="2.370872">
        <ele>1693.8</ele>
        <time>2014-06-14T12:30:42Z</time>
      </trkpt>
      <trkpt lat="42.369777" lon="2.371087">
        <ele>1693.8</ele>
        <time>2014-06-14T12:30:55Z</time>
      </trkpt>
      <trkpt lat="42.369762" lon="2.371125">
        <ele>1693.6</ele>
        <time>2014-06-14T12:31:09Z</time>
      </trkpt>
      <trkpt lat="42.369726" lon="2.371308">
        <ele>1694.7</ele>
        <time>2014-06-14T12:31:23Z</time>
      </trkpt>
      <trkpt lat="42.369694" lon="2.371352">
        <ele>1694.1</ele>
        <time>2014-06-14T12:31:27Z</time>
      </trkpt>
      <trkpt lat="42.369607" lon="2.371497">
        <ele>1693.0</ele>
        <time>2014-06-14T12:31:42Z</time>
      </trkpt>
      <trkpt lat="42.369505" lon="2.371628">
        <ele>1692.2</ele>
        <time>2014-06-14T12:31:48Z</time>
      </trkpt>
      <trkpt lat="42.369412" lon="2.371797">
        <ele>1692.5</ele>
        <time>2014-06-14T12:31:50Z</time>
      </trkpt>
      <trkpt lat="42.369388" lon="2.371823">
        <ele>1692.4</ele>
        <time>2014-06-14T12:31:58Z</time>
      </trkpt>
      <trkpt lat="42.369321" lon="2.371988">
        <ele>1693.7</ele>
        <time>2014-06-14T12:32:11Z</time>
      </trkpt>
      <trkpt lat="42.369223" lon="2.372169">
        <ele>1693.9</ele>
        <time>2014-06-14T12:32:19Z</time>
      </trkpt>
      <trkpt lat="42.369122" lon="2.372351">
        <ele>1692.6</ele>
        <time>2014-06-14T12:32:33Z</time>
      </trkpt>
      <trkpt lat="42.369074" lon="2.372531">
        <ele>1691.8</ele>
        <time>2014-06-14T12:32:41Z</time>
      </trkpt>
      <trkpt lat="42.369041" lon="2.372743">
        <ele>1691.3</ele>
        <time>2014-06-14T12:32:49Z</time>
      </trkpt>
      <trkpt lat="42.368981" lon="2.372931">
        <ele>1689.2</ele>
        <time>2014-06-14T12:33:02Z</time>
      </trkpt>
      <trkpt lat="42.368977" lon="2.372976">
        <ele>1689.0</ele>
        <time>2014-06-14T12:33:17Z</time>
      </trkpt>
      <trkpt lat="42.368903" lon="2.373160">
        <ele>1686.6</ele>
        <time>2014-06-14T12:33:25Z</time>
      </trkpt>
      <trkpt lat="42.368884" lon="2.373241">
        <ele>1685.7</ele>
        <time>2014-06-14T12:33:39Z</time>
      </trkpt>
      <trkpt lat="42.368883" lon="2.373271">
        <ele>1685.4</ele>
        <time>2014-06-14T12:33:40Z</time>
      </trkpt>
      <trkpt lat="42.368902" lon="2.373379">
        <ele>1685.0</ele>
        <time>2014-06-14T12:33:50Z</time>
      </trkpt>
      <trkpt lat="42.368893" lon="2.373560">
        <ele>1683.6</ele>
        <time>2014-06-14T12:34:02Z</time>
      </trkpt>
      <trkpt lat="42.368902" lon="2.373665">
        <ele>1683.4</ele>
        <time>2014-06-14T12:34:32Z</time>
      </trkpt>
      <trkpt lat="42.368918" lon="2.373866">
        <ele>1682.3</ele>
        <time>2014-06-14T12:34:47Z</time>
      </trkpt>
      <trkpt lat="42.368951" lon="2.373969">
        <ele>1681.8</ele>
        <time>2014-06-14T12:34:48Z</time>
      </trkpt>
      <trkpt lat="42.368959" lon="2.374074">
        <ele>1681.0</ele>
        <time>2014-06-14T12:34:55Z</time>
      </trkpt>
      <trkpt lat="42.368944" lon="2.374242">
        <ele>1678.6</ele>
        <time>2014-06-14T12:35:08Z</time>
      </trkpt>
      <trkpt lat="42.368852" lon="2.374387">
        <ele>1675.2</ele>
        <time>2014-06-14T12:35:10Z</time>
      </trkpt>
      <trkpt lat="42.368812" lon="2.374456">
        <ele>1673.2</ele>
        <time>2014-06-14T12:35:23Z</time>
      </trkpt>
      <trkpt lat="42.368764" lon="2.374643">
        <ele>1669.1</ele>
        <time>2014-06-14T12:35:36Z</time>
      </trkpt>
      <trkpt lat="42.368768" lon="2.374652">
        <ele>1669.1</ele>
        <time>2014-06-14T12:35:52Z</time>
      </trkpt>
      <trkpt lat="42.368806" lon="2.374748">
        <ele>1669.4</ele>
        <time>2014-06-14T12:36:06Z</time>
      </trkpt>
      <trkpt lat="42.368847" lon="2.374812">
        <ele>1670.0</ele>
        <time>2014-06-14T12:36:20Z</time>
      </trkpt>
      <trkpt lat="42.368847" lon="2.374812">
        <ele>1670.0</ele>
        <time>2014-06-14T12:36:22Z</time>
      </trkpt>
      <trkpt lat="42.368876" lon="2.375039">
        <ele>1669.8</ele>
        <time>2014-06-14T12:36:28Z</time>
      </trkpt>
      <trkpt lat="42.368875" lon="2.375050">
        <ele>1669.8</ele>
        <time>2014-06-14T12:36:42Z</time>
      </trkpt>
      <trkpt lat="42.368890" lon="2.375127">
        <ele>1670.7</ele>
        <time>2014-06-14T12:37:47Z</time>
      </trkpt>
      <trkpt lat="42.368829" lon="2.375301">
        <ele>1670.0</ele>
        <time>2014-06-14T12:38:27Z</time>
      </trkpt>
      <trkpt lat="42.368816" lon="2.375316">
        <ele>1669.7</ele>
        <time>2014-06-14T12:38:43Z</time>
      </trkpt>
      <trkpt lat="42.368701" lon="2.375433">
        <ele>1668.1</ele>
        <time>2014-06-14T12:38:48Z</time>
      </trkpt>
      <trkpt lat="42.368583" lon="2.375571">
        <ele>1666.2</ele>
        <time>2014-06-14T12:38:51Z</time>
      </trkpt>
      <trkpt lat="42.368446" lon="2.375729">
        <ele>1662.2</ele>
        <time>2014-06-14T12:39:05Z</time>
      </trkpt>
      <trkpt lat="42.368325" lon="2.375844">
        <ele>1660.3</ele>
        <time>2014-06-14T12:39:16Z</time>
      </trkpt>
      <trkpt lat="42.368217" lon="2.375984">
        <ele>1659.9</ele>
        <time>2014-06-14T12:39:28Z</time>
      </trkpt>
      <trkpt lat="42.368210" lon="2.376005">
        <ele>1659.9</ele>
        <time>2014-06-14T12:39:40Z</time>
      </trkpt>
      <trkpt lat="42.368169" lon="2.376070">
        <ele>1659.9</ele>
        <time>2014-06-14T12:39:54Z</time>
      </trkpt>
      <trkpt lat="42.368020" lon="2.376131">
        <ele>1659.9</ele>
        <time>2014-06-14T12:40:06Z</time>
      </trkpt>
      <trkpt lat="42.368026" lon="2.376182">
        <ele>1659.9</ele>
        <time>2014-06-14T12:40:18Z</time>
      </trkpt>
      <trkpt lat="42.368022" lon="2.376199">
        <ele>1659.9</ele>
        <time>2014-06-14T12:40:31Z</time>
      </trkpt>
      <trkpt lat="42.367921" lon="2.376243">
        <ele>1659.9</ele>
        <time>2014-06-14T12:40:45Z</time>
      </trkpt>
      <trkpt lat="42.367917" lon="2.376247">
        <ele>1659.9</ele>
        <time>2014-06-14T12:40:58Z</time>
      </trkpt>
      <trkpt lat="42.367887" lon="2.376252">
        <ele>1659.9</ele>
        <time>2014-06-14T12:41:10Z</time>
      </trkpt>
      <trkpt lat="42.367728" lon="2.376277">
        <ele>1660.4</ele>
        <time>2014-06-14T12:41:19Z</time>
      </trkpt>
      <trkpt lat="42.367609" lon="2.376299">
        <ele>1661.2</ele>
        <time>2014-06-14T12:41:33Z</time>
      </trkpt>
      <trkpt lat="42.367544" lon="2.376289">
        <ele>1662.0</ele>
        <time>2014-06-14T12:41:47Z</time>
      </trkpt>
      <trkpt lat="42.367416" lon="2.376275">
        <ele>1663.5</ele>
        <time>2014-06-14T12:41:56Z</time>
      </trkpt>
      <trkpt lat="42.367283" lon="2.376336">
        <ele>1664.6</ele>
        <time>2014-06-14T12:42:05Z</time>
      </trkpt>
      <trkpt lat="42.367178" lon="2.376369">
        <ele>1665.2</ele>
        <time>2014-06-14T12:42:18Z</time>
      </trkpt>
      <trkpt lat="42.367047" lon="2.376389">
        <ele>1666.1</ele>
        <time>2014-06-14T12:42:32Z</time>
      </trkpt>
      <trkpt lat="42.366909" lon="2.376406">
        <ele>1666.4</ele>
        <time>2014-06-14T12:42:42Z</time>
      </trkpt>
      <trkpt lat="42.366762" lon="2.376436">
        <ele>1666.5</ele>
        <time>2014-06-14T12:42:46Z</time>
      </trkpt>
      <trkpt lat="42.366620" lon="2.376471">
        <ele>1665.6</ele>
        <time>2014-06-14T12:43:01Z</time>
      </trkpt>
      <trkpt lat="42.366489" lon="2.376503">
        <ele>1664.9</ele>
        <time>2014-06-14T12:43:12Z</time>
      </trkpt>
      <trkpt lat="42.366392" lon="2.376527">
        <ele>1664.6</ele>
        <time>2014-06-14T12:43:33Z</time>
      </trkpt>
      <trkpt lat="42.366249" lon="2.376585">
        <ele>1663.7</ele>
        <time>2014-06-14T12:43:46Z</time>
      </trkpt>
      <trkpt lat="42.366113" lon="2.376646">
        <ele>1662.2</ele>
        <time>2014-06-14T12:43:58Z</time>
      </trkpt>
      <trkpt lat="42.366021" lon="2.376677">
        <ele>1661.5</ele>
        <time>2014-06-14T12:44:13Z</time>
      </trkpt>
      <trkpt lat="42.365958" lon="2.376741">
        <ele>1660.5</ele>
        <time>2014-06-14T12:44:28Z</time>
      </trkpt>
      <trkpt lat="42.365870" lon="2.376852">
        <ele>1658.5</ele>
        <time>2014-06-14T12:44:46Z</time>
      </trkpt>
      <trkpt lat="42.365774" lon="2.376963">
        <ele>1656.2</ele>
        <time>2014-06-14T12:44:59Z</time>
      </trkpt>
      <trkpt lat="42.365711" lon="2.377035">
        <ele>1654.5</ele>
        <time>2014-06-14T12:45:14Z</time>
      </trkpt>
      <trkpt lat="42.365675" lon="2.377058">
        <ele>1654.0</ele>
        <time>2014-06-14T12:45:25Z</time>
      </trkpt>
      <trkpt lat="42.365568" lon="2.377179">
        <ele>1651.4</ele>
        <time>2014-06-14T12:45:38Z</time>
      </trkpt>
      <trkpt lat="42.365563" lon="2.377201">
        <ele>1651.0</ele>
        <time>2014-06-14T12:45:50Z</time>
      </trkpt>
      <trkpt lat="42.365527" lon="2.377237">
        <ele>1650.1</ele>
        <time>2014-06-14T12:46:03Z</time>
      </trkpt>
      <trkpt lat="42.365426" lon="2.377363">
        <ele>1646.3</ele>
        <time>2014-06-14T12:46:17Z</time>
      </trkpt>
      <trkpt lat="42.365378" lon="2.377417">
        <ele>1644.5</ele>
        <time>2014-06-14T12:46:30Z</time>
      </trkpt>
      <trkpt lat="42.365244" lon="2.377536">
        <ele>1640.9</ele>
        <time>2014-06-14T12:46:50Z</time>
      </trkpt>
      <trkpt lat="42.365132" lon="2.377578">
        <ele>1639.2</ele>
        <time>2014-06-14T12:47:02Z</time>
      </trkpt>
      <trkpt lat="42.365084" lon="2.377605">
        <ele>1638.4</ele>
        <time>2014-06-14T12:47:16Z</time>
      </trkpt>
      <trkpt lat="42.364965" lon="2.377654">
        <ele>1636.7</ele>
        <time>2014-06-14T12:47:30Z</time>
      </trkpt>
      <trkpt lat="42.364848" lon="2.377728">
        <ele>1634.5</ele>
        <time>2014-06-14T12:47:41Z</time>
      </trkpt>
      <trkpt lat="42.364779" lon="2.377806">
        <ele>1632.2</ele>
        <time>2014-06-14T12:47:46Z</time>
      </trkpt>
      <trkpt lat="42.364679" lon="2.377916">
        <ele>1629.0</ele>
        <time>2014-06-14T12:47:51Z</time>
      </trkpt>
      <trkpt lat="42.364587" lon="2.378011">
        <ele>1626.5</ele>
        <time>2014-06-14T12:48:05Z</time>
      </trkpt>
      <trkpt lat="42.364493" lon="2.378096">
        <ele>1624.6</ele>
        <time>2014-06-14T12:48:12Z</time>
      </trkpt>
      <trkpt lat="42.364380" lon="2.378238">
        <ele>1621.3</ele>
        <time>2014-06-14T12:48:27Z</time>
      </trkpt>
      <trkpt lat="42.364305" lon="2.378359">
        <ele>1618.5</ele>
        <time>2014-06-14T12:48:39Z</time>
      </trkpt>
      <trkpt lat="42.364238" lon="2.378437">
        <ele>1617.1</ele>
        <time>2014-06-14T12:48:55Z</time>
      </trkpt>
      <trkpt lat="42.364155" lon="2.378547">
        <ele>1615.2</ele>
        <time>2014-06-14T12:49:00Z</time>
      </trkpt>
      <trkpt lat="42.364040" lon="2.378677">
        <ele>1612.5</ele>
        <time>2014-06-14T12:49:13Z</time>
      </trkpt>
      <trkpt lat="42.363979" lon="2.378805">
        <ele>1610.1</ele>
        <time>2014-06-14T12:49:15Z</time>
      </trkpt>
      <trkpt lat="42.363938" lon="2.378887">
        <ele>1608.9</ele>
        <time>2014-06-14T12:49:20Z</time>
      </trkpt>
      <trkpt lat="42.363936" lon="2.378894">
        <ele>1608.9</ele>
        <time>2014-06-14T12:49:36Z</time>
      </trkpt>
      <trkpt lat="42.363912" lon="2.378971">
        <ele>1607.9</ele>
        <time>2014-06-14T12:49:50Z</time>
      </trkpt>
      <trkpt lat="42.363878" lon="2.379146">
        <ele>1605.4</ele>
        <time>2014-06-14T12:50:01Z</time>
      </trkpt>
      <trkpt lat="42.363852" lon="2.379247">
        <ele>1604.1</ele>
        <time>2014-06-14T12:50:14Z</time>
      </trkpt>
      <trkpt lat="42.363795" lon="2.379437">
        <ele>1601.4</ele>
        <time>2014-06-14T12:50:29Z</time>
      </trkpt>
      <trkpt lat="42.363774" lon="2.379571">
        <ele>1598.9</ele>
        <time>2014-06-14T12:50:34Z</time>
      </trkpt>
      <trkpt lat="42.363742" lon="2.379707">
        <ele>1596.2</ele>
        <time>2014-06-14T12:50:46Z</time>
      </trkpt>
      <trkpt lat="42.363729" lon="2.379734">
        <ele>1595.7</ele>
        <time>2014-06-14T12:50:50Z</time>
      </trkpt>
      <trkpt lat="42.363666" lon="2.379902">
        <ele>1593.7</ele>
        <time>2014-06-14T12:51:05Z</time>
      </trkpt>
      <trkpt lat="42.363665" lon="2.379921">
        <ele>1593.3</ele>
        <time>2014-06-14T12:51:11Z</time>
      </trkpt>
      <trkpt lat="42.363642" lon="2.379988">
        <ele>1592.5</ele>
        <time>2014-06-14T12:51:23Z</time>
      </trkpt>
      <trkpt lat="42.363615" lon="2.380104">
        <ele>1591.0</ele>
        <time>2014-06-14T12:51:35Z</time>
      </trkpt>
      <trkpt lat="42.363596" lon="2.380207">
        <ele>1589.1</ele>
        <time>2014-06-14T12:51:48Z</time>
      </trkpt>
      <trkpt lat="42.363562" lon="2.380338">
        <ele>1586.9</ele>
        <time>2014-06-14T12:51:50Z</time>
      </trkpt>
      <trkpt lat="42.363500" lon="2.380503">
        <ele>1583.5</ele>
        <time>2014-06-14T12:52:04Z</time>
      </trkpt>
      <trkpt lat="42.363441" lon="2.380693">
        <ele>1579.2</ele>
        <time>2014-06-14T12:52:19Z</time>
      </trkpt>
      <trkpt lat="42.363444" lon="2.380758">
        <ele>1578.1</ele>
        <time>2014-06-14T12:52:48Z</time>
      </trkpt>
      <trkpt lat="42.363363" lon="2.380882">
        <ele>1575.5</ele>
        <time>2014-06-14T12:52:50Z</time>
      </trkpt>
      <trkpt lat="42.363337" lon="2.380934">
        <ele>1574.7</ele>
        <time>2014-06-14T12:52:59Z</time>
      </trkpt>
      <trkpt lat="42.363227" lon="2.381085">
        <ele>1572.0</ele>
        <time>2014-06-14T12:53:10Z</time>
      </trkpt>
      <trkpt lat="42.363197" lon="2.381147">
        <ele>1570.7</ele>
        <time>2014-06-14T12:53:31Z</time>
      </trkpt>
      <trkpt lat="42.363172" lon="2.381204">
        <ele>1569.7</ele>
        <time>2014-06-14T12:53:32Z</time>
      </trkpt>
      <trkpt lat="42.363103" lon="2.381337">
        <ele>1567.4</ele>
        <time>2014-06-14T12:53:33Z</time>
      </trkpt>
      <trkpt lat="42.363028" lon="2.381464">
        <ele>1565.0</ele>
        <time>2014-06-14T12:53:34Z</time>
      </trkpt>
      <trkpt lat="42.363009" lon="2.381476">
        <ele>1564.7</ele>
        <time>2014-06-14T12:53:47Z</time>
      </trkpt>
      <trkpt lat="42.362888" lon="2.381511">
        <ele>1562.3</ele>
        <time>2014-06-14T12:54:02Z</time>
      </trkpt>
      <trkpt lat="42.362781" lon="2.381579">
        <ele>1559.2</ele>
        <time>2014-06-14T12:54:17Z</time>
      </trkpt>
      <trkpt lat="42.362781" lon="2.381579">
        <ele>1559.2</ele>
        <time>2014-06-14T12:59:42Z</time>
      </trkpt>
      <trkpt lat="42.362781" lon="2.381579">
        <ele>1559.2</ele>
        <time>2014-06-14T12:59:58Z</time>
      </trkpt>
      <trkpt lat="42.362744" lon="2.381585">
        <ele>1558.6</ele>
        <time>2014-06-14T13:00:07Z</time>
      </trkpt>
      <trkpt lat="42.362684" lon="2.381603">
        <ele>1557.4</ele>
        <time>2014-06-14T13:00:10Z</time>
      </trkpt>
      <trkpt lat="42.362509" lon="2.381797">
        <ele>1551.3</ele>
        <time>2014-06-14T13:00:22Z</time>
      </trkpt>
      <trkpt lat="42.362505" lon="2.381802">
        <ele>1551.2</ele>
        <time>2014-06-14T13:00:29Z</time>
      </trkpt>
      <trkpt lat="42.362499" lon="2.381810">
        <ele>1550.9</ele>
        <time>2014-06-14T13:00:33Z</time>
      </trkpt>
      <trkpt lat="42.362493" lon="2.381819">
        <ele>1550.7</ele>
        <time>2014-06-14T13:00:39Z</time>
      </trkpt>
      <trkpt lat="42.362483" lon="2.381827">
        <ele>1550.4</ele>
        <time>2014-06-14T13:00:57Z</time>
      </trkpt>
      <trkpt lat="42.362372" lon="2.381952">
        <ele>1546.5</ele>
        <time>2014-06-14T13:01:17Z</time>
      </trkpt>
      <trkpt lat="42.362342" lon="2.381987">
        <ele>1545.3</ele>
        <time>2014-06-14T13:01:33Z</time>
      </trkpt>
      <trkpt lat="42.362262" lon="2.382054">
        <ele>1542.8</ele>
        <time>2014-06-14T13:01:45Z</time>
      </trkpt>
      <trkpt lat="42.362142" lon="2.382201">
        <ele>1538.9</ele>
        <time>2014-06-14T13:01:51Z</time>
      </trkpt>
      <trkpt lat="42.362095" lon="2.382275">
        <ele>1537.4</ele>
        <time>2014-06-14T13:02:06Z</time>
      </trkpt>
      <trkpt lat="42.362061" lon="2.382291">
        <ele>1536.7</ele>
        <time>2014-06-14T13:02:12Z</time>
      </trkpt>
      <trkpt lat="42.361958" lon="2.382220">
        <ele>1535.2</ele>
        <time>2014-06-14T13:02:22Z</time>
      </trkpt>
      <trkpt lat="42.361899" lon="2.382155">
        <ele>1535.3</ele>
        <time>2014-06-14T13:02:33Z</time>
      </trkpt>
      <trkpt lat="42.361875" lon="2.382111">
        <ele>1535.6</ele>
        <time>2014-06-14T13:02:47Z</time>
      </trkpt>
      <trkpt lat="42.361844" lon="2.382068">
        <ele>1535.8</ele>
        <time>2014-06-14T13:03:01Z</time>
      </trkpt>
      <trkpt lat="42.361796" lon="2.382054">
        <ele>1535.3</ele>
        <time>2014-06-14T13:03:15Z</time>
      </trkpt>
      <trkpt lat="42.361738" lon="2.382042">
        <ele>1534.5</ele>
        <time>2014-06-14T13:03:28Z</time>
      </trkpt>
      <trkpt lat="42.361567" lon="2.382107">
        <ele>1530.1</ele>
        <time>2014-06-14T13:03:41Z</time>
      </trkpt>
      <trkpt lat="42.361466" lon="2.382176">
        <ele>1527.6</ele>
        <time>2014-06-14T13:03:58Z</time>
      </trkpt>
      <trkpt lat="42.361400" lon="2.382216">
        <ele>1526.1</ele>
        <time>2014-06-14T13:04:12Z</time>
      </trkpt>
      <trkpt lat="42.361255" lon="2.382277">
        <ele>1523.3</ele>
        <time>2014-06-14T13:04:26Z</time>
      </trkpt>
      <trkpt lat="42.361185" lon="2.382273">
        <ele>1522.7</ele>
        <time>2014-06-14T13:04:40Z</time>
      </trkpt>
      <trkpt lat="42.361071" lon="2.382266">
        <ele>1521.2</ele>
        <time>2014-06-14T13:04:53Z</time>
      </trkpt>
      <trkpt lat="42.360950" lon="2.382267">
        <ele>1519.5</ele>
        <time>2014-06-14T13:05:08Z</time>
      </trkpt>
      <trkpt lat="42.360813" lon="2.382284">
        <ele>1516.6</ele>
        <time>2014-06-14T13:05:21Z</time>
      </trkpt>
      <trkpt lat="42.360670" lon="2.382271">
        <ele>1513.8</ele>
        <time>2014-06-14T13:05:27Z</time>
      </trkpt>
      <trkpt lat="42.360527" lon="2.382335">
        <ele>1510.6</ele>
        <time>2014-06-14T13:05:40Z</time>
      </trkpt>
      <trkpt lat="42.360415" lon="2.382440">
        <ele>1507.9</ele>
        <time>2014-06-14T13:05:55Z</time>
      </trkpt>
      <trkpt lat="42.360292" lon="2.382551">
        <ele>1505.8</ele>
        <time>2014-06-14T13:05:58Z</time>
      </trkpt>
      <trkpt lat="42.360122" lon="2.382637">
        <ele>1504.0</ele>
        <time>2014-06-14T13:06:01Z</time>
      </trkpt>
      <trkpt lat="42.359970" lon="2.382661">
        <ele>1503.2</ele>
        <time>2014-06-14T13:06:16Z</time>
      </trkpt>
      <trkpt lat="42.359857" lon="2.382794">
        <ele>1500.7</ele>
        <time>2014-06-14T13:06:30Z</time>
      </trkpt>
      <trkpt lat="42.359742" lon="2.382920">
        <ele>1499.6</ele>
        <time>2014-06-14T13:06:45Z</time>
      </trkpt>
      <trkpt lat="42.359646" lon="2.383047">
        <ele>1498.1</ele>
        <time>2014-06-14T13:06:57Z</time>
      </trkpt>
      <trkpt lat="42.359515" lon="2.383197">
        <ele>1495.6</ele>
        <time>2014-06-14T13:07:10Z</time>
      </trkpt>
      <trkpt lat="42.359447" lon="2.383347">
        <ele>1493.9</ele>
        <time>2014-06-14T13:07:24Z</time>
      </trkpt>
      <trkpt lat="42.359405" lon="2.383411">
        <ele>1492.8</ele>
        <time>2014-06-14T13:07:36Z</time>
      </trkpt>
      <trkpt lat="42.359309" lon="2.383545">
        <ele>1489.7</ele>
        <time>2014-06-14T13:07:40Z</time>
      </trkpt>
      <trkpt lat="42.359241" lon="2.383751">
        <ele>1485.2</ele>
        <time>2014-06-14T13:07:55Z</time>
      </trkpt>
      <trkpt lat="42.359233" lon="2.383787">
        <ele>1484.3</ele>
        <time>2014-06-14T13:08:07Z</time>
      </trkpt>
      <trkpt lat="42.359231" lon="2.383831">
        <ele>1483.3</ele>
        <time>2014-06-14T13:08:19Z</time>
      </trkpt>
      <trkpt lat="42.359167" lon="2.384023">
        <ele>1480.6</ele>
        <time>2014-06-14T13:08:32Z</time>
      </trkpt>
      <trkpt lat="42.359074" lon="2.384208">
        <ele>1480.1</ele>
        <time>2014-06-14T13:08:46Z</time>
      </trkpt>
      <trkpt lat="42.359005" lon="2.384329">
        <ele>1480.1</ele>
        <time>2014-06-14T13:08:58Z</time>
      </trkpt>
      <trkpt lat="42.359001" lon="2.384337">
        <ele>1480.1</ele>
        <time>2014-06-14T13:09:12Z</time>
      </trkpt>
      <trkpt lat="42.358981" lon="2.384392">
        <ele>1480.0</ele>
        <time>2014-06-14T13:09:26Z</time>
      </trkpt>
      <trkpt lat="42.358895" lon="2.384517">
        <ele>1479.6</ele>
        <time>2014-06-14T13:09:40Z</time>
      </trkpt>
      <trkpt lat="42.358798" lon="2.384632">
        <ele>1477.8</ele>
        <time>2014-06-14T13:09:53Z</time>
      </trkpt>
      <trkpt lat="42.358764" lon="2.384683">
        <ele>1476.3</ele>
        <time>2014-06-14T13:10:06Z</time>
      </trkpt>
      <trkpt lat="42.358658" lon="2.384864">
        <ele>1470.4</ele>
        <time>2014-06-14T13:10:18Z</time>
      </trkpt>
      <trkpt lat="42.358577" lon="2.384983">
        <ele>1467.1</ele>
        <time>2014-06-14T13:10:23Z</time>
      </trkpt>
      <trkpt lat="42.358519" lon="2.385101">
        <ele>1464.4</ele>
        <time>2014-06-14T13:10:37Z</time>
      </trkpt>
      <trkpt lat="42.358435" lon="2.385222">
        <ele>1462.2</ele>
        <time>2014-06-14T13:10:51Z</time>
      </trkpt>
      <trkpt lat="42.358350" lon="2.385396">
        <ele>1460.5</ele>
        <time>2014-06-14T13:11:03Z</time>
      </trkpt>
      <trkpt lat="42.358315" lon="2.385526">
        <ele>1460.3</ele>
        <time>2014-06-14T13:11:07Z</time>
      </trkpt>
      <trkpt lat="42.358245" lon="2.385731">
        <ele>1459.8</ele>
        <time>2014-06-14T13:11:23Z</time>
      </trkpt>
      <trkpt lat="42.358150" lon="2.385895">
        <ele>1459.9</ele>
        <time>2014-06-14T13:11:31Z</time>
      </trkpt>
      <trkpt lat="42.358033" lon="2.386041">
        <ele>1460.1</ele>
        <time>2014-06-14T13:11:45Z</time>
      </trkpt>
      <trkpt lat="42.357900" lon="2.386130">
        <ele>1460.8</ele>
        <time>2014-06-14T13:11:58Z</time>
      </trkpt>
      <trkpt lat="42.357772" lon="2.386219">
        <ele>1460.4</ele>
        <time>2014-06-14T13:12:11Z</time>
      </trkpt>
      <trkpt lat="42.357707" lon="2.386289">
        <ele>1459.9</ele>
        <time>2014-06-14T13:12:21Z</time>
      </trkpt>
      <trkpt lat="42.357707" lon="2.386289">
        <ele>1459.9</ele>
        <time>2014-06-14T13:12:35Z</time>
      </trkpt>
      <trkpt lat="42.357673" lon="2.386486">
        <ele>1456.5</ele>
        <time>2014-06-14T13:12:48Z</time>
      </trkpt>
      <trkpt lat="42.357610" lon="2.386670">
        <ele>1450.8</ele>
        <time>2014-06-14T13:12:50Z</time>
      </trkpt>
      <trkpt lat="42.357541" lon="2.386827">
        <ele>1444.9</ele>
        <time>2014-06-14T13:13:03Z</time>
      </trkpt>
      <trkpt lat="42.357525" lon="2.386863">
        <ele>1443.8</ele>
        <time>2014-06-14T13:13:14Z</time>
      </trkpt>
      <trkpt lat="42.357427" lon="2.387074">
        <ele>1440.1</ele>
        <time>2014-06-14T13:13:28Z</time>
      </trkpt>
      <trkpt lat="42.357404" lon="2.387198">
        <ele>1439.4</ele>
        <time>2014-06-14T13:13:37Z</time>
      </trkpt>
      <trkpt lat="42.357342" lon="2.387391">
        <ele>1437.0</ele>
        <time>2014-06-14T13:13:51Z</time>
      </trkpt>
      <trkpt lat="42.357280" lon="2.387506">
        <ele>1435.2</ele>
        <time>2014-06-14T13:13:52Z</time>
      </trkpt>
      <trkpt lat="42.357194" lon="2.387609">
        <ele>1433.9</ele>
        <time>2014-06-14T13:14:07Z</time>
      </trkpt>
      <trkpt lat="42.357141" lon="2.387693">
        <ele>1433.7</ele>
        <time>2014-06-14T13:14:19Z</time>
      </trkpt>
      <trkpt lat="42.357067" lon="2.387873">
        <ele>1433.9</ele>
        <time>2014-06-14T13:14:31Z</time>
      </trkpt>
      <trkpt lat="42.356991" lon="2.388023">
        <ele>1434.1</ele>
        <time>2014-06-14T13:14:42Z</time>
      </trkpt>
      <trkpt lat="42.356977" lon="2.388049">
        <ele>1434.3</ele>
        <time>2014-06-14T13:14:55Z</time>
      </trkpt>
      <trkpt lat="42.356896" lon="2.388206">
        <ele>1435.6</ele>
        <time>2014-06-14T13:15:09Z</time>
      </trkpt>
      <trkpt lat="42.356834" lon="2.388336">
        <ele>1436.6</ele>
        <time>2014-06-14T13:15:23Z</time>
      </trkpt>
      <trkpt lat="42.356802" lon="2.388545">
        <ele>1438.9</ele>
        <time>2014-06-14T13:15:30Z</time>
      </trkpt>
      <trkpt lat="42.356785" lon="2.388575">
        <ele>1439.0</ele>
        <time>2014-06-14T13:15:45Z</time>
      </trkpt>
      <trkpt lat="42.356716" lon="2.388739">
        <ele>1438.4</ele>
        <time>2014-06-14T13:15:46Z</time>
      </trkpt>
      <trkpt lat="42.356712" lon="2.388750">
        <ele>1438.2</ele>
        <time>2014-06-14T13:16:00Z</time>
      </trkpt>
      <trkpt lat="42.356634" lon="2.388945">
        <ele>1434.5</ele>
        <time>2014-06-14T13:16:05Z</time>
      </trkpt>
      <trkpt lat="42.356566" lon="2.389116">
        <ele>1430.8</ele>
        <time>2014-06-14T13:16:16Z</time>
      </trkpt>
      <trkpt lat="42.356505" lon="2.389268">
        <ele>1427.8</ele>
        <time>2014-06-14T13:16:23Z</time>
      </trkpt>
      <trkpt lat="42.356447" lon="2.389406">
        <ele>1424.7</ele>
        <time>2014-06-14T13:17:07Z</time>
      </trkpt>
      <trkpt lat="42.356393" lon="2.389572">
        <ele>1422.1</ele>
        <time>2014-06-14T13:17:35Z</time>
      </trkpt>
      <trkpt lat="42.356338" lon="2.389760">
        <ele>1420.5</ele>
        <time>2014-06-14T13:17:49Z</time>
      </trkpt>
      <trkpt lat="42.356252" lon="2.389956">
        <ele>1423.0</ele>
        <time>2014-06-14T13:17:59Z</time>
      </trkpt>
      <trkpt lat="42.356219" lon="2.390031">
        <ele>1424.5</ele>
        <time>2014-06-14T13:18:15Z</time>
      </trkpt>
      <trkpt lat="42.356119" lon="2.390240">
        <ele>1427.9</ele>
        <time>2014-06-14T13:18:44Z</time>
      </trkpt>
      <trkpt lat="42.356112" lon="2.390256">
        <ele>1428.1</ele>
        <time>2014-06-14T13:19:15Z</time>
      </trkpt>
      <trkpt lat="42.356057" lon="2.390316">
        <ele>1428.6</ele>
        <time>2014-06-14T13:19:16Z</time>
      </trkpt>
      <trkpt lat="42.356057" lon="2.390316">
        <ele>1428.6</ele>
        <time>2014-06-14T13:19:33Z</time>
      </trkpt>
      <trkpt lat="42.356041" lon="2.390463">
        <ele>1428.9</ele>
        <time>2014-06-14T13:19:37Z</time>
      </trkpt>
      <trkpt lat="42.356041" lon="2.390463">
        <ele>1428.9</ele>
        <time>2014-06-14T13:19:54Z</time>
      </trkpt>
      <trkpt lat="42.356064" lon="2.390617">
        <ele>1427.9</ele>
        <time>2014-06-14T13:20:08Z</time>
      </trkpt>
      <trkpt lat="42.356050" lon="2.390761">
        <ele>1427.6</ele>
        <time>2014-06-14T13:20:23Z</time>
      </trkpt>
      <trkpt lat="42.356013" lon="2.390924">
        <ele>1426.7</ele>
        <time>2014-06-14T13:20:33Z</time>
      </trkpt>
      <trkpt lat="42.356013" lon="2.390924">
        <ele>1426.7</ele>
        <time>2014-06-14T13:20:44Z</time>
      </trkpt>
      <trkpt lat="42.355997" lon="2.390924">
        <ele>1426.9</ele>
        <time>2014-06-14T13:20:48Z</time>
      </trkpt>
      <trkpt lat="42.355995" lon="2.390920">
        <ele>1427.0</ele>
        <time>2014-06-14T13:21:03Z</time>
      </trkpt>
      <trkpt lat="42.355995" lon="2.390920">
        <ele>1427.0</ele>
        <time>2014-06-14T13:21:18Z</time>
      </trkpt>
      <trkpt lat="42.355995" lon="2.390920">
        <ele>1427.0</ele>
        <time>2014-06-14T13:21:33Z</time>
      </trkpt>
      <trkpt lat="42.355932" lon="2.391187">
        <ele>1423.9</ele>
        <time>2014-06-14T13:21:48Z</time>
      </trkpt>
      <trkpt lat="42.355928" lon="2.391260">
        <ele>1422.6</ele>
        <time>2014-06-14T13:22:04Z</time>
      </trkpt>
      <trkpt lat="42.355902" lon="2.391588">
        <ele>1416.3</ele>
        <time>2014-06-14T13:22:24Z</time>
      </trkpt>
      <trkpt lat="42.355926" lon="2.391842">
        <ele>1410.0</ele>
        <time>2014-06-14T13:22:35Z</time>
      </trkpt>
      <trkpt lat="42.355965" lon="2.392103">
        <ele>1404.6</ele>
        <time>2014-06-14T13:22:48Z</time>
      </trkpt>
      <trkpt lat="42.355928" lon="2.392274">
        <ele>1403.3</ele>
        <time>2014-06-14T13:23:02Z</time>
      </trkpt>
      <trkpt lat="42.355922" lon="2.392424">
        <ele>1401.6</ele>
        <time>2014-06-14T13:23:09Z</time>
      </trkpt>
      <trkpt lat="42.355925" lon="2.392481">
        <ele>1401.2</ele>
        <time>2014-06-14T13:23:20Z</time>
      </trkpt>
      <trkpt lat="42.355896" lon="2.392732">
        <ele>1399.7</ele>
        <time>2014-06-14T13:23:34Z</time>
      </trkpt>
      <trkpt lat="42.355888" lon="2.392800">
        <ele>1399.6</ele>
        <time>2014-06-14T13:23:48Z</time>
      </trkpt>
      <trkpt lat="42.355894" lon="2.392858">
        <ele>1399.6</ele>
        <time>2014-06-14T13:24:03Z</time>
      </trkpt>
      <trkpt lat="42.355877" lon="2.393138">
        <ele>1398.8</ele>
        <time>2014-06-14T13:24:15Z</time>
      </trkpt>
      <trkpt lat="42.355890" lon="2.393242">
        <ele>1397.1</ele>
        <time>2014-06-14T13:24:28Z</time>
      </trkpt>
      <trkpt lat="42.355890" lon="2.393242">
        <ele>1397.1</ele>
        <time>2014-06-14T13:24:37Z</time>
      </trkpt>
      <trkpt lat="42.355880" lon="2.393363">
        <ele>1395.0</ele>
        <time>2014-06-14T13:24:41Z</time>
      </trkpt>
      <trkpt lat="42.355881" lon="2.393419">
        <ele>1394.1</ele>
        <time>2014-06-14T13:24:42Z</time>
      </trkpt>
      <trkpt lat="42.355879" lon="2.393462">
        <ele>1393.4</ele>
        <time>2014-06-14T13:24:54Z</time>
      </trkpt>
      <trkpt lat="42.355879" lon="2.393462">
        <ele>1393.4</ele>
        <time>2014-06-14T13:25:10Z</time>
      </trkpt>
      <trkpt lat="42.355876" lon="2.393631">
        <ele>1389.9</ele>
        <time>2014-06-14T13:25:33Z</time>
      </trkpt>
      <trkpt lat="42.355852" lon="2.393833">
        <ele>1385.8</ele>
        <time>2014-06-14T13:25:47Z</time>
      </trkpt>
      <trkpt lat="42.355836" lon="2.393924">
        <ele>1384.4</ele>
        <time>2014-06-14T13:25:49Z</time>
      </trkpt>
      <trkpt lat="42.355812" lon="2.394083">
        <ele>1381.0</ele>
        <time>2014-06-14T13:26:05Z</time>
      </trkpt>
      <trkpt lat="42.355824" lon="2.394245">
        <ele>1377.0</ele>
        <time>2014-06-14T13:26:18Z</time>
      </trkpt>
      <trkpt lat="42.355801" lon="2.394408">
        <ele>1373.4</ele>
        <time>2014-06-14T13:26:31Z</time>
      </trkpt>
      <trkpt lat="42.355792" lon="2.394515">
        <ele>1371.4</ele>
        <time>2014-06-14T13:26:47Z</time>
      </trkpt>
      <trkpt lat="42.355789" lon="2.394575">
        <ele>1370.2</ele>
        <time>2014-06-14T13:26:49Z</time>
      </trkpt>
      <trkpt lat="42.355791" lon="2.394587">
        <ele>1369.9</ele>
        <time>2014-06-14T13:27:01Z</time>
      </trkpt>
      <trkpt lat="42.355783" lon="2.394749">
        <ele>1366.2</ele>
        <time>2014-06-14T13:27:10Z</time>
      </trkpt>
      <trkpt lat="42.355749" lon="2.394808">
        <ele>1365.5</ele>
        <time>2014-06-14T13:27:26Z</time>
      </trkpt>
      <trkpt lat="42.355703" lon="2.394804">
        <ele>1365.8</ele>
        <time>2014-06-14T13:27:40Z</time>
      </trkpt>
      <trkpt lat="42.355663" lon="2.394812">
        <ele>1365.9</ele>
        <time>2014-06-14T13:27:55Z</time>
      </trkpt>
      <trkpt lat="42.355658" lon="2.394816">
        <ele>1365.9</ele>
        <time>2014-06-14T13:28:09Z</time>
      </trkpt>
      <trkpt lat="42.355587" lon="2.394831">
        <ele>1365.9</ele>
        <time>2014-06-14T13:28:24Z</time>
      </trkpt>
      <trkpt lat="42.355441" lon="2.394843">
        <ele>1366.6</ele>
        <time>2014-06-14T13:28:39Z</time>
      </trkpt>
      <trkpt lat="42.355297" lon="2.394832">
        <ele>1366.4</ele>
        <time>2014-06-14T13:28:45Z</time>
      </trkpt>
      <trkpt lat="42.355216" lon="2.394789">
        <ele>1366.5</ele>
        <time>2014-06-14T13:29:01Z</time>
      </trkpt>
      <trkpt lat="42.355216" lon="2.394789">
        <ele>1366.5</ele>
        <time>2014-06-14T13:29:09Z</time>
      </trkpt>
      <trkpt lat="42.355089" lon="2.394764">
        <ele>1365.2</ele>
        <time>2014-06-14T13:29:29Z</time>
      </trkpt>
      <trkpt lat="42.354968" lon="2.394795">
        <ele>1362.8</ele>
        <time>2014-06-14T13:29:52Z</time>
      </trkpt>
      <trkpt lat="42.354769" lon="2.394826">
        <ele>1360.2</ele>
        <time>2014-06-14T13:30:04Z</time>
      </trkpt>
      <trkpt lat="42.354590" lon="2.394813">
        <ele>1359.6</ele>
        <time>2014-06-14T13:30:19Z</time>
      </trkpt>
      <trkpt lat="42.354428" lon="2.394725">
        <ele>1356.4</ele>
        <time>2014-06-14T13:30:33Z</time>
      </trkpt>
      <trkpt lat="42.354328" lon="2.394585">
        <ele>1354.6</ele>
        <time>2014-06-14T13:30:47Z</time>
      </trkpt>
      <trkpt lat="42.354217" lon="2.394424">
        <ele>1352.4</ele>
        <time>2014-06-14T13:31:02Z</time>
      </trkpt>
      <trkpt lat="42.354091" lon="2.394271">
        <ele>1351.1</ele>
        <time>2014-06-14T13:31:17Z</time>
      </trkpt>
      <trkpt lat="42.354038" lon="2.394238">
        <ele>1350.4</ele>
        <time>2014-06-14T13:31:29Z</time>
      </trkpt>
      <trkpt lat="42.353853" lon="2.394168">
        <ele>1348.1</ele>
        <time>2014-06-14T13:31:44Z</time>
      </trkpt>
      <trkpt lat="42.353778" lon="2.394142">
        <ele>1347.7</ele>
        <time>2014-06-14T13:32:03Z</time>
      </trkpt>
      <trkpt lat="42.353672" lon="2.394142">
        <ele>1346.6</ele>
        <time>2014-06-14T13:32:18Z</time>
      </trkpt>
      <trkpt lat="42.353672" lon="2.394142">
        <ele>1346.6</ele>
        <time>2014-06-14T13:32:34Z</time>
      </trkpt>
      <trkpt lat="42.353647" lon="2.394143">
        <ele>1346.3</ele>
        <time>2014-06-14T13:32:49Z</time>
      </trkpt>
      <trkpt lat="42.353481" lon="2.394094">
        <ele>1346.4</ele>
        <time>2014-06-14T13:33:02Z</time>
      </trkpt>
      <trkpt lat="42.353324" lon="2.394112">
        <ele>1345.4</ele>
        <time>2014-06-14T13:33:15Z</time>
      </trkpt>
      <trkpt lat="42.353207" lon="2.394162">
        <ele>1343.5</ele>
        <time>2014-06-14T13:33:30Z</time>
      </trkpt>
      <trkpt lat="42.353047" lon="2.394188">
        <ele>1341.6</ele>
        <time>2014-06-14T13:33:46Z</time>
      </trkpt>
      <trkpt lat="42.352882" lon="2.394228">
        <ele>1339.7</ele>
        <time>2014-06-14T13:34:01Z</time>
      </trkpt>
      <trkpt lat="42.352803" lon="2.394251">
        <ele>1338.3</ele>
        <time>2014-06-14T13:34:15Z</time>
      </trkpt>
      <trkpt lat="42.352778" lon="2.394256">
        <ele>1337.9</ele>
        <time>2014-06-14T13:34:29Z</time>
      </trkpt>
      <trkpt lat="42.352688" lon="2.394277">
        <ele>1336.7</ele>
        <time>2014-06-14T13:34:42Z</time>
      </trkpt>
      <trkpt lat="42.352551" lon="2.394385">
        <ele>1334.7</ele>
        <time>2014-06-14T13:34:57Z</time>
      </trkpt>
      <trkpt lat="42.352386" lon="2.394524">
        <ele>1331.5</ele>
        <time>2014-06-14T13:35:11Z</time>
      </trkpt>
      <trkpt lat="42.352240" lon="2.394671">
        <ele>1328.3</ele>
        <time>2014-06-14T13:35:20Z</time>
      </trkpt>
      <trkpt lat="42.352096" lon="2.394768">
        <ele>1325.7</ele>
        <time>2014-06-14T13:35:35Z</time>
      </trkpt>
      <trkpt lat="42.351939" lon="2.394870">
        <ele>1322.9</ele>
        <time>2014-06-14T13:35:58Z</time>
      </trkpt>
      <trkpt lat="42.351784" lon="2.394991">
        <ele>1319.9</ele>
        <time>2014-06-14T13:36:03Z</time>
      </trkpt>
      <trkpt lat="42.351635" lon="2.395101">
        <ele>1318.2</ele>
        <time>2014-06-14T13:36:15Z</time>
      </trkpt>
      <trkpt lat="42.351487" lon="2.395226">
        <ele>1316.2</ele>
        <time>2014-06-14T13:36:30Z</time>
      </trkpt>
      <trkpt lat="42.351354" lon="2.395340">
        <ele>1315.6</ele>
        <time>2014-06-14T13:36:35Z</time>
      </trkpt>
      <trkpt lat="42.351219" lon="2.395462">
        <ele>1314.4</ele>
        <time>2014-06-14T13:36:47Z</time>
      </trkpt>
      <trkpt lat="42.351093" lon="2.395536">
        <ele>1312.5</ele>
        <time>2014-06-14T13:36:48Z</time>
      </trkpt>
      <trkpt lat="42.350933" lon="2.395629">
        <ele>1310.3</ele>
        <time>2014-06-14T13:37:04Z</time>
      </trkpt>
      <trkpt lat="42.350802" lon="2.395741">
        <ele>1308.4</ele>
        <time>2014-06-14T13:37:19Z</time>
      </trkpt>
      <trkpt lat="42.350756" lon="2.395849">
        <ele>1306.8</ele>
        <time>2014-06-14T13:37:35Z</time>
      </trkpt>
      <trkpt lat="42.350749" lon="2.395915">
        <ele>1306.3</ele>
        <time>2014-06-14T13:37:49Z</time>
      </trkpt>
      <trkpt lat="42.350733" lon="2.395986">
        <ele>1305.6</ele>
        <time>2014-06-14T13:38:03Z</time>
      </trkpt>
      <trkpt lat="42.350733" lon="2.395982">
        <ele>1305.6</ele>
        <time>2014-06-14T13:38:18Z</time>
      </trkpt>
      <trkpt lat="42.350644" lon="2.396105">
        <ele>1303.3</ele>
        <time>2014-06-14T13:38:34Z</time>
      </trkpt>
      <trkpt lat="42.350528" lon="2.396224">
        <ele>1300.9</ele>
        <time>2014-06-14T13:38:49Z</time>
      </trkpt>
      <trkpt lat="42.350483" lon="2.396282">
        <ele>1300.1</ele>
        <time>2014-06-14T13:39:04Z</time>
      </trkpt>
      <trkpt lat="42.350407" lon="2.396353">
        <ele>1298.9</ele>
        <time>2014-06-14T13:39:19Z</time>
      </trkpt>
      <trkpt lat="42.350402" lon="2.396361">
        <ele>1298.8</ele>
        <time>2014-06-14T13:39:32Z</time>
      </trkpt>
      <trkpt lat="42.350293" lon="2.396521">
        <ele>1296.0</ele>
        <time>2014-06-14T13:39:46Z</time>
      </trkpt>
      <trkpt lat="42.350207" lon="2.396687">
        <ele>1293.1</ele>
        <time>2014-06-14T13:39:48Z</time>
      </trkpt>
      <trkpt lat="42.350142" lon="2.396870">
        <ele>1290.3</ele>
        <time>2014-06-14T13:39:50Z</time>
      </trkpt>
      <trkpt lat="42.350076" lon="2.397045">
        <ele>1287.7</ele>
        <time>2014-06-14T13:40:05Z</time>
      </trkpt>
      <trkpt lat="42.350015" lon="2.397217">
        <ele>1285.2</ele>
        <time>2014-06-14T13:40:22Z</time>
      </trkpt>
      <trkpt lat="42.349981" lon="2.397410">
        <ele>1283.0</ele>
        <time>2014-06-14T13:40:37Z</time>
      </trkpt>
      <trkpt lat="42.349891" lon="2.397591">
        <ele>1280.8</ele>
        <time>2014-06-14T13:40:52Z</time>
      </trkpt>
      <trkpt lat="42.349811" lon="2.397753">
        <ele>1278.7</ele>
        <time>2014-06-14T13:41:06Z</time>
      </trkpt>
      <trkpt lat="42.349685" lon="2.397896">
        <ele>1276.0</ele>
        <time>2014-06-14T13:41:08Z</time>
      </trkpt>
      <trkpt lat="42.349559" lon="2.398011">
        <ele>1273.7</ele>
        <time>2014-06-14T13:41:17Z</time>
      </trkpt>
      <trkpt lat="42.349459" lon="2.398127">
        <ele>1271.3</ele>
        <time>2014-06-14T13:41:25Z</time>
      </trkpt>
      <trkpt lat="42.349360" lon="2.398277">
        <ele>1268.8</ele>
        <time>2014-06-14T13:41:39Z</time>
      </trkpt>
      <trkpt lat="42.349352" lon="2.398292">
        <ele>1268.6</ele>
        <time>2014-06-14T13:41:53Z</time>
      </trkpt>
      <trkpt lat="42.349342" lon="2.398314">
        <ele>1268.4</ele>
        <time>2014-06-14T13:42:05Z</time>
      </trkpt>
      <trkpt lat="42.349283" lon="2.398476">
        <ele>1266.7</ele>
        <time>2014-06-14T13:42:19Z</time>
      </trkpt>
      <trkpt lat="42.349185" lon="2.398649">
        <ele>1264.7</ele>
        <time>2014-06-14T13:42:33Z</time>
      </trkpt>
      <trkpt lat="42.349082" lon="2.398803">
        <ele>1262.6</ele>
        <time>2014-06-14T13:42:51Z</time>
      </trkpt>
      <trkpt lat="42.349060" lon="2.398837">
        <ele>1262.0</ele>
        <time>2014-06-14T13:42:56Z</time>
      </trkpt>
      <trkpt lat="42.348978" lon="2.398931">
        <ele>1260.0</ele>
        <time>2014-06-14T13:43:05Z</time>
      </trkpt>
      <trkpt lat="42.348963" lon="2.398947">
        <ele>1259.6</ele>
        <time>2014-06-14T13:43:13Z</time>
      </trkpt>
      <trkpt lat="42.348898" lon="2.399020">
        <ele>1257.8</ele>
        <time>2014-06-14T13:43:26Z</time>
      </trkpt>
      <trkpt lat="42.348848" lon="2.399093">
        <ele>1256.5</ele>
        <time>2014-06-14T13:43:39Z</time>
      </trkpt>
      <trkpt lat="42.348754" lon="2.399212">
        <ele>1253.5</ele>
        <time>2014-06-14T13:43:54Z</time>
      </trkpt>
      <trkpt lat="42.348663" lon="2.399321">
        <ele>1250.7</ele>
        <time>2014-06-14T13:44:10Z</time>
      </trkpt>
      <trkpt lat="42.348589" lon="2.399408">
        <ele>1248.9</ele>
        <time>2014-06-14T13:44:22Z</time>
      </trkpt>
      <trkpt lat="42.348491" lon="2.399518">
        <ele>1245.9</ele>
        <time>2014-06-14T13:44:31Z</time>
      </trkpt>
      <trkpt lat="42.348419" lon="2.399578">
        <ele>1243.8</ele>
        <time>2014-06-14T13:44:41Z</time>
      </trkpt>
      <trkpt lat="42.348384" lon="2.399596">
        <ele>1243.0</ele>
        <time>2014-06-14T13:44:53Z</time>
      </trkpt>
      <trkpt lat="42.348330" lon="2.399629">
        <ele>1241.7</ele>
        <time>2014-06-14T13:45:14Z</time>
      </trkpt>
      <trkpt lat="42.348261" lon="2.399661">
        <ele>1240.2</ele>
        <time>2014-06-14T13:45:28Z</time>
      </trkpt>
      <trkpt lat="42.348196" lon="2.399680">
        <ele>1238.9</ele>
        <time>2014-06-14T13:46:00Z</time>
      </trkpt>
      <trkpt lat="42.348089" lon="2.399746">
        <ele>1235.9</ele>
        <time>2014-06-14T13:46:01Z</time>
      </trkpt>
      <trkpt lat="42.347988" lon="2.399794">
        <ele>1233.8</ele>
        <time>2014-06-14T13:46:06Z</time>
      </trkpt>
      <trkpt lat="42.347920" lon="2.399845">
        <ele>1232.4</ele>
        <time>2014-06-14T13:46:20Z</time>
      </trkpt>
      <trkpt lat="42.347788" lon="2.399914">
        <ele>1229.0</ele>
        <time>2014-06-14T13:46:24Z</time>
      </trkpt>
      <trkpt lat="42.347673" lon="2.399985">
        <ele>1226.3</ele>
        <time>2014-06-14T13:46:40Z</time>
      </trkpt>
      <trkpt lat="42.347584" lon="2.400061">
        <ele>1223.3</ele>
        <time>2014-06-14T13:46:57Z</time>
      </trkpt>
      <trkpt lat="42.347511" lon="2.400083">
        <ele>1221.7</ele>
        <time>2014-06-14T13:47:12Z</time>
      </trkpt>
      <trkpt lat="42.347436" lon="2.400087">
        <ele>1220.1</ele>
        <time>2014-06-14T13:47:14Z</time>
      </trkpt>
      <trkpt lat="42.347393" lon="2.400109">
        <ele>1218.9</ele>
        <time>2014-06-14T13:47:33Z</time>
      </trkpt>
      <trkpt lat="42.347321" lon="2.400181">
        <ele>1216.8</ele>
        <time>2014-06-14T13:47:46Z</time>
      </trkpt>
      <trkpt lat="42.347291" lon="2.400196">
        <ele>1216.6</ele>
        <time>2014-06-14T13:48:01Z</time>
      </trkpt>
      <trkpt lat="42.347277" lon="2.400199">
        <ele>1216.5</ele>
        <time>2014-06-14T13:48:25Z</time>
      </trkpt>
      <trkpt lat="42.347207" lon="2.400202">
        <ele>1216.0</ele>
        <time>2014-06-14T13:48:38Z</time>
      </trkpt>
      <trkpt lat="42.347057" lon="2.400156">
        <ele>1214.5</ele>
        <time>2014-06-14T13:48:51Z</time>
      </trkpt>
      <trkpt lat="42.347008" lon="2.400112">
        <ele>1214.1</ele>
        <time>2014-06-14T13:49:05Z</time>
      </trkpt>
      <trkpt lat="42.346908" lon="2.399951">
        <ele>1212.7</ele>
        <time>2014-06-14T13:49:17Z</time>
      </trkpt>
      <trkpt lat="42.346842" lon="2.399725">
        <ele>1209.8</ele>
        <time>2014-06-14T13:49:33Z</time>
      </trkpt>
      <trkpt lat="42.346826" lon="2.399520">
        <ele>1207.7</ele>
        <time>2014-06-14T13:49:47Z</time>
      </trkpt>
      <trkpt lat="42.346830" lon="2.399491">
        <ele>1207.7</ele>
        <time>2014-06-14T13:50:00Z</time>
      </trkpt>
      <trkpt lat="42.346797" lon="2.399322">
        <ele>1205.4</ele>
        <time>2014-06-14T13:50:20Z</time>
      </trkpt>
      <trkpt lat="42.346789" lon="2.399312">
        <ele>1205.0</ele>
        <time>2014-06-14T13:50:39Z</time>
      </trkpt>
      <trkpt lat="42.346768" lon="2.399284">
        <ele>1204.0</ele>
        <time>2014-06-14T13:50:52Z</time>
      </trkpt>
      <trkpt lat="42.346768" lon="2.399284">
        <ele>1204.0</ele>
        <time>2014-06-14T13:51:06Z</time>
      </trkpt>
      <trkpt lat="42.346750" lon="2.399395">
        <ele>1204.0</ele>
        <time>2014-06-14T13:51:07Z</time>
      </trkpt>
      <trkpt lat="42.346735" lon="2.399441">
        <ele>1203.7</ele>
        <time>2014-06-14T13:51:19Z</time>
      </trkpt>
      <trkpt lat="42.346661" lon="2.399625">
        <ele>1202.4</ele>
        <time>2014-06-14T13:51:33Z</time>
      </trkpt>
      <trkpt lat="42.346604" lon="2.399781">
        <ele>1201.9</ele>
        <time>2014-06-14T13:51:49Z</time>
      </trkpt>
      <trkpt lat="42.346518" lon="2.399997">
        <ele>1201.2</ele>
        <time>2014-06-14T13:52:01Z</time>
      </trkpt>
      <trkpt lat="42.346501" lon="2.400198">
        <ele>1200.0</ele>
        <time>2014-06-14T13:52:13Z</time>
      </trkpt>
      <trkpt lat="42.346493" lon="2.400383">
        <ele>1199.5</ele>
        <time>2014-06-14T13:52:22Z</time>
      </trkpt>
      <trkpt lat="42.346477" lon="2.400644">
        <ele>1198.5</ele>
        <time>2014-06-14T13:52:34Z</time>
      </trkpt>
      <trkpt lat="42.346546" lon="2.400882">
        <ele>1197.9</ele>
        <time>2014-06-14T13:52:49Z</time>
      </trkpt>
      <trkpt lat="42.346610" lon="2.401061">
        <ele>1197.5</ele>
        <time>2014-06-14T13:53:03Z</time>
      </trkpt>
      <trkpt lat="42.346703" lon="2.401194">
        <ele>1196.6</ele>
        <time>2014-06-14T13:53:15Z</time>
      </trkpt>
      <trkpt lat="42.346712" lon="2.401201">
        <ele>1196.6</ele>
        <time>2014-06-14T13:53:19Z</time>
      </trkpt>
      <trkpt lat="42.346798" lon="2.401281">
        <ele>1196.2</ele>
        <time>2014-06-14T13:53:33Z</time>
      </trkpt>
      <trkpt lat="42.346922" lon="2.401305">
        <ele>1195.9</ele>
        <time>2014-06-14T13:53:35Z</time>
      </trkpt>
      <trkpt lat="42.347098" lon="2.401337">
        <ele>1196.0</ele>
        <time>2014-06-14T13:53:47Z</time>
      </trkpt>
      <trkpt lat="42.347219" lon="2.401341">
        <ele>1197.5</ele>
        <time>2014-06-14T13:53:48Z</time>
      </trkpt>
      <trkpt lat="42.347322" lon="2.401313">
        <ele>1199.4</ele>
        <time>2014-06-14T13:53:52Z</time>
      </trkpt>
      <trkpt lat="42.347392" lon="2.401320">
        <ele>1200.6</ele>
        <time>2014-06-14T13:54:09Z</time>
      </trkpt>
      <trkpt lat="42.347464" lon="2.401435">
        <ele>1200.4</ele>
        <time>2014-06-14T13:54:30Z</time>
      </trkpt>
      <trkpt lat="42.347570" lon="2.401561">
        <ele>1200.5</ele>
        <time>2014-06-14T13:54:46Z</time>
      </trkpt>
      <trkpt lat="42.347613" lon="2.401607">
        <ele>1200.5</ele>
        <time>2014-06-14T13:54:58Z</time>
      </trkpt>
      <trkpt lat="42.347681" lon="2.401713">
        <ele>1199.7</ele>
        <time>2014-06-14T13:55:13Z</time>
      </trkpt>
      <trkpt lat="42.347696" lon="2.401757">
        <ele>1198.9</ele>
        <time>2014-06-14T13:55:27Z</time>
      </trkpt>
      <trkpt lat="42.347751" lon="2.401934">
        <ele>1196.4</ele>
        <time>2014-06-14T13:56:29Z</time>
      </trkpt>
      <trkpt lat="42.347760" lon="2.401963">
        <ele>1196.1</ele>
        <time>2014-06-14T13:56:35Z</time>
      </trkpt>
      <trkpt lat="42.347809" lon="2.402105">
        <ele>1193.9</ele>
        <time>2014-06-14T13:56:51Z</time>
      </trkpt>
      <trkpt lat="42.347811" lon="2.402113">
        <ele>1193.8</ele>
        <time>2014-06-14T15:23:29Z</time>
      </trkpt>
      <trkpt lat="42.347834" lon="2.402152">
        <ele>1193.2</ele>
        <time>2014-06-14T15:23:44Z</time>
      </trkpt>
      <trkpt lat="42.347849" lon="2.402208">
        <ele>1192.2</ele>
        <time>2014-06-14T15:23:57Z</time>
      </trkpt>
      <trkpt lat="42.347855" lon="2.402214">
        <ele>1192.1</ele>
        <time>2014-06-14T15:24:12Z</time>
      </trkpt>
      <trkpt lat="42.347990" lon="2.402339">
        <ele>1191.3</ele>
        <time>2014-06-14T15:24:24Z</time>
      </trkpt>
      <trkpt lat="42.348099" lon="2.402407">
        <ele>1191.7</ele>
        <time>2014-06-14T15:24:35Z</time>
      </trkpt>
      <trkpt lat="42.348231" lon="2.402500">
        <ele>1191.3</ele>
        <time>2014-06-14T15:24:48Z</time>
      </trkpt>
      <trkpt lat="42.348321" lon="2.402634">
        <ele>1189.3</ele>
        <time>2014-06-14T15:25:05Z</time>
      </trkpt>
      <trkpt lat="42.348438" lon="2.402890">
        <ele>1183.0</ele>
        <time>2014-06-14T15:25:23Z</time>
      </trkpt>
      <trkpt lat="42.348499" lon="2.402901">
        <ele>1183.4</ele>
        <time>2014-06-14T15:25:40Z</time>
      </trkpt>
      <trkpt lat="42.348678" lon="2.402932">
        <ele>1183.8</ele>
        <time>2014-06-14T15:26:04Z</time>
      </trkpt>
      <trkpt lat="42.348769" lon="2.403102">
        <ele>1183.4</ele>
        <time>2014-06-14T15:26:24Z</time>
      </trkpt>
      <trkpt lat="42.348699" lon="2.403211">
        <ele>1181.7</ele>
      </trkpt>
      <trkpt lat="42.348642" lon="2.403331">
        <ele>1179.4</ele>
      </trkpt>
      <trkpt lat="42.348561" lon="2.403486">
        <ele>1176.2</ele>
      </trkpt>
      <trkpt lat="42.348539" lon="2.403587">
        <ele>1177.8</ele>
      </trkpt>
      <trkpt lat="42.348492" lon="2.403683">
        <ele>1178.8</ele>
      </trkpt>
      <trkpt lat="42.348456" lon="2.403785">
        <ele>1180.3</ele>
      </trkpt>
      <trkpt lat="42.348388" lon="2.403944">
        <ele>1183.0</ele>
      </trkpt>
      <trkpt lat="42.348345" lon="2.404099">
        <ele>1183.3</ele>
      </trkpt>
      <trkpt lat="42.348318" lon="2.404239">
        <ele>1182.6</ele>
      </trkpt>
      <trkpt lat="42.348318" lon="2.404239">
        <ele>1182.6</ele>
      </trkpt>
      <trkpt lat="42.348301" lon="2.404373">
        <ele>1182.5</ele>
      </trkpt>
    </trkseg>
  </trk>
</gpx>
